<?xml version='1.0' encoding='UTF-8'?><gpx version="1.1" creator="JPX - https://github.com/jenetics/jpx" xmlns="http://www.topografix.com/GPX/1/1"><trk><trkseg><trkpt lat="45.79485662028976" lon="9.41572009694115"><ele>204.0</ele><time>2026-05-01T04:57:17.328Z</time></trkpt><trkpt lat="45.79477087538199" lon="9.415755919405644"><ele>204.0</ele><time>2026-05-01T04:57:18.328Z</time></trkpt><trkpt lat="45.79468088469316" lon="9.415795336134565"><ele>204.0</ele><time>2026-05-01T04:57:19.328Z</time></trkpt><trkpt lat="45.79458999965372" lon="9.41583559360977"><ele>204.0</ele><time>2026-05-01T04:57:20.328Z</time></trkpt><trkpt lat="45.79452417552952" lon="9.415864048606533"><ele>204.0</ele><time>2026-05-01T04:57:20.998Z</time></trkpt><trkpt lat="45.794425255620325" lon="9.415906212547084"><ele>204.39999999999998</ele><time>2026-05-01T04:57:21.998Z</time></trkpt><trkpt lat="45.79432865419708" lon="9.415947969455459"><ele>204.8</ele><time>2026-05-01T04:57:22.998Z</time></trkpt><trkpt lat="45.79422993220504" lon="9.415988119767091"><ele>205.2</ele><time>2026-05-01T04:57:23.998Z</time></trkpt><trkpt lat="45.794121832642304" lon="9.41603453933454"><ele>205.60000000000002</ele><time>2026-05-01T04:57:24.998Z</time></trkpt><trkpt lat="45.794012770059005" lon="9.416081247496146"><ele>206.0</ele><time>2026-05-01T04:57:25.998Z</time></trkpt><trkpt lat="45.79390806902228" lon="9.416129187662206"><ele>206.0</ele><time>2026-05-01T04:57:26.998Z</time></trkpt><trkpt lat="45.79380058652756" lon="9.416174527192942"><ele>206.0</ele><time>2026-05-01T04:57:27.998Z</time></trkpt><trkpt lat="45.79368992369519" lon="9.416218779538866"><ele>206.0</ele><time>2026-05-01T04:57:28.999Z</time></trkpt><trkpt lat="45.793575709547625" lon="9.416261972374118"><ele>206.0</ele><time>2026-05-01T04:57:29.999Z</time></trkpt><trkpt lat="45.79346619634612" lon="9.41630228862359"><ele>205.20000000000002</ele><time>2026-05-01T04:57:30.999Z</time></trkpt><trkpt lat="45.793356607901075" lon="9.416342475499638"><ele>204.4</ele><time>2026-05-01T04:57:31.999Z</time></trkpt><trkpt lat="45.79325417547599" lon="9.416382246505446"><ele>203.6</ele><time>2026-05-01T04:57:32.999Z</time></trkpt><trkpt lat="45.7931614340501" lon="9.416419824765098"><ele>202.8</ele><time>2026-05-01T04:57:33.999Z</time></trkpt><trkpt lat="45.79305651739494" lon="9.416462154783483"><ele>202.0</ele><time>2026-05-01T04:57:34.999Z</time></trkpt><trkpt lat="45.792951080378415" lon="9.41650657740231"><ele>202.0</ele><time>2026-05-01T04:57:35.999Z</time></trkpt><trkpt lat="45.79283572539289" lon="9.416555647464842"><ele>202.0</ele><time>2026-05-01T04:57:36.999Z</time></trkpt><trkpt lat="45.79271236386163" lon="9.41660100337427"><ele>202.0</ele><time>2026-05-01T04:57:37.999Z</time></trkpt><trkpt lat="45.79259255961391" lon="9.416646656206618"><ele>202.0</ele><time>2026-05-01T04:57:38.999Z</time></trkpt><trkpt lat="45.79247307186345" lon="9.416694089021313"><ele>203.0</ele><time>2026-05-01T04:57:39.999Z</time></trkpt><trkpt lat="45.7923514777993" lon="9.416742214563042"><ele>204.0</ele><time>2026-05-01T04:57:40.999Z</time></trkpt><trkpt lat="45.79223339336039" lon="9.416797482428896"><ele>205.0</ele><time>2026-05-01T04:57:41.999Z</time></trkpt><trkpt lat="45.792114950848436" lon="9.416857146705118"><ele>206.0</ele><time>2026-05-01T04:57:42.999Z</time></trkpt><trkpt lat="45.79198778286132" lon="9.416925662915576"><ele>206.0</ele><time>2026-05-01T04:57:44Z</time></trkpt><trkpt lat="45.79187082560609" lon="9.41699668397102"><ele>206.0</ele><time>2026-05-01T04:57:45Z</time></trkpt><trkpt lat="45.791760580032715" lon="9.417072662725028"><ele>206.0</ele><time>2026-05-01T04:57:46Z</time></trkpt><trkpt lat="45.79164622616927" lon="9.41716336297977"><ele>206.0</ele><time>2026-05-01T04:57:47Z</time></trkpt><trkpt lat="45.79153920896887" lon="9.417249481547215"><ele>205.75</ele><time>2026-05-01T04:57:48Z</time></trkpt><trkpt lat="45.79142687110851" lon="9.417344207840928"><ele>205.5</ele><time>2026-05-01T04:57:49Z</time></trkpt><trkpt lat="45.79131633643418" lon="9.41743622046694"><ele>205.25</ele><time>2026-05-01T04:57:50Z</time></trkpt><trkpt lat="45.79120439338497" lon="9.417526317857938"><ele>205.0</ele><time>2026-05-01T04:57:51Z</time></trkpt><trkpt lat="45.79109442550601" lon="9.417616471281972"><ele>205.75</ele><time>2026-05-01T04:57:52Z</time></trkpt><trkpt lat="45.79098638375075" lon="9.417704994421658"><ele>206.5</ele><time>2026-05-01T04:57:53Z</time></trkpt><trkpt lat="45.790880019400014" lon="9.41779147187922"><ele>207.25</ele><time>2026-05-01T04:57:54Z</time></trkpt><trkpt lat="45.79077515624639" lon="9.417877651991708"><ele>208.0</ele><time>2026-05-01T04:57:55Z</time></trkpt><trkpt lat="45.79066979069353" lon="9.417966703989345"><ele>207.75</ele><time>2026-05-01T04:57:56Z</time></trkpt><trkpt lat="45.790565972162305" lon="9.41805423727358"><ele>207.5</ele><time>2026-05-01T04:57:57Z</time></trkpt><trkpt lat="45.790463573982564" lon="9.418137000207926"><ele>207.25</ele><time>2026-05-01T04:57:58Z</time></trkpt><trkpt lat="45.790360445155805" lon="9.418226096278978"><ele>207.0</ele><time>2026-05-01T04:57:59Z</time></trkpt><trkpt lat="45.79025773038503" lon="9.41829877672641"><ele>207.6</ele><time>2026-05-01T04:58:00Z</time></trkpt><trkpt lat="45.79016177231063" lon="9.418355877407086"><ele>208.2</ele><time>2026-05-01T04:58:01Z</time></trkpt><trkpt lat="45.7900740422441" lon="9.41842391583942"><ele>208.8</ele><time>2026-05-01T04:58:02Z</time></trkpt><trkpt lat="45.789989125683114" lon="9.41850121939222"><ele>209.4</ele><time>2026-05-01T04:58:03Z</time></trkpt><trkpt lat="45.7899158035006" lon="9.418556298582873"><ele>210.0</ele><time>2026-05-01T04:58:04Z</time></trkpt><trkpt lat="45.789808107846554" lon="9.418569767483627"><ele>210.0</ele><time>2026-05-01T04:58:06Z</time></trkpt><trkpt lat="45.78975553140204" lon="9.418513836317675"><ele>210.0</ele><time>2026-05-01T04:58:07Z</time></trkpt><trkpt lat="45.78970943330318" lon="9.418379062333155"><ele>210.0</ele><time>2026-05-01T04:58:09Z</time></trkpt><trkpt lat="45.789707330467344" lon="9.418201018509842"><ele>210.0</ele><time>2026-05-01T04:58:11Z</time></trkpt><trkpt lat="45.78976596718675" lon="9.418103186149267"><ele>210.0</ele><time>2026-05-01T04:58:12Z</time></trkpt><trkpt lat="45.78982028877902" lon="9.418006712663447"><ele>210.4</ele><time>2026-05-01T04:58:13Z</time></trkpt><trkpt lat="45.78987784264491" lon="9.417901080197813"><ele>210.8</ele><time>2026-05-01T04:58:14Z</time></trkpt><trkpt lat="45.78993703987189" lon="9.417792583167298"><ele>211.2</ele><time>2026-05-01T04:58:15Z</time></trkpt><trkpt lat="45.79000077602018" lon="9.417679650303011"><ele>211.6</ele><time>2026-05-01T04:58:16Z</time></trkpt><trkpt lat="45.79006714009433" lon="9.417562350528664"><ele>212.0</ele><time>2026-05-01T04:58:17Z</time></trkpt><trkpt lat="45.7901329520658" lon="9.417446074079308"><ele>211.50000000000003</ele><time>2026-05-01T04:58:18Z</time></trkpt><trkpt lat="45.790192648900174" lon="9.41733914207553"><ele>211.0</ele><time>2026-05-01T04:58:19Z</time></trkpt><trkpt lat="45.79024043605676" lon="9.417251808563714"><ele>210.5</ele><time>2026-05-01T04:58:20Z</time></trkpt><trkpt lat="45.790281924611214" lon="9.417180763725765"><ele>210.0</ele><time>2026-05-01T04:58:21Z</time></trkpt><trkpt lat="45.790338955108524" lon="9.417069682159163"><ele>209.50000000000003</ele><time>2026-05-01T04:58:23Z</time></trkpt><trkpt lat="45.79029642716126" lon="9.416973025217729"><ele>209.0</ele><time>2026-05-01T04:58:25Z</time></trkpt><trkpt lat="45.7902309349793" lon="9.416952863542962"><ele>209.0</ele><time>2026-05-01T04:58:27Z</time></trkpt><trkpt lat="45.790236313584764" lon="9.417099714711645"><ele>209.0</ele><time>2026-05-01T04:58:28Z</time></trkpt><trkpt lat="45.79018467654206" lon="9.417228470439102"><ele>209.0</ele><time>2026-05-01T04:58:42Z</time></trkpt><trkpt lat="45.79014672126398" lon="9.417352846398849"><ele>209.0</ele><time>2026-05-01T04:58:43Z</time></trkpt><trkpt lat="45.79008201768012" lon="9.417461775777111"><ele>209.0</ele><time>2026-05-01T04:58:44Z</time></trkpt><trkpt lat="45.79000508021774" lon="9.417564172910875"><ele>209.2</ele><time>2026-05-01T04:58:45Z</time></trkpt><trkpt lat="45.78993133886893" lon="9.417672492399701"><ele>209.39999999999998</ele><time>2026-05-01T04:58:46Z</time></trkpt><trkpt lat="45.789862247998556" lon="9.417791053822398"><ele>209.6</ele><time>2026-05-01T04:58:47Z</time></trkpt><trkpt lat="45.789795690064736" lon="9.41791151113051"><ele>209.8</ele><time>2026-05-01T04:58:48Z</time></trkpt><trkpt lat="45.78973157396173" lon="9.418038732636541"><ele>210.0</ele><time>2026-05-01T04:58:49Z</time></trkpt><trkpt lat="45.78966199517007" lon="9.418166895836006"><ele>210.0</ele><time>2026-05-01T04:58:50Z</time></trkpt><trkpt lat="45.78958563495712" lon="9.418295962475822"><ele>210.0</ele><time>2026-05-01T04:58:51Z</time></trkpt><trkpt lat="45.78950796598351" lon="9.418427608256193"><ele>210.0</ele><time>2026-05-01T04:58:51.999Z</time></trkpt><trkpt lat="45.78942710887701" lon="9.418559124895214"><ele>210.0</ele><time>2026-05-01T04:58:52.999Z</time></trkpt><trkpt lat="45.78934482507164" lon="9.418692925640045"><ele>210.5</ele><time>2026-05-01T04:58:53.999Z</time></trkpt><trkpt lat="45.78925842812562" lon="9.418825096994576"><ele>211.0</ele><time>2026-05-01T04:58:54.999Z</time></trkpt><trkpt lat="45.789158112227156" lon="9.418948631817512"><ele>211.5</ele><time>2026-05-01T04:58:55.999Z</time></trkpt><trkpt lat="45.789049349413126" lon="9.419061206420823"><ele>212.0</ele><time>2026-05-01T04:58:56.999Z</time></trkpt><trkpt lat="45.78894307941455" lon="9.419182911307852"><ele>212.0</ele><time>2026-05-01T04:58:57.999Z</time></trkpt><trkpt lat="45.78884074096322" lon="9.419313555313087"><ele>212.0</ele><time>2026-05-01T04:58:58.999Z</time></trkpt><trkpt lat="45.78873093785787" lon="9.419435242530103"><ele>212.0</ele><time>2026-05-01T04:58:59.999Z</time></trkpt><trkpt lat="45.788618103961554" lon="9.419557035760148"><ele>212.0</ele><time>2026-05-01T04:59:00.999Z</time></trkpt><trkpt lat="45.788503843960626" lon="9.419673566514195"><ele>212.5</ele><time>2026-05-01T04:59:01.999Z</time></trkpt><trkpt lat="45.78838498707539" lon="9.419786946156998"><ele>213.0</ele><time>2026-05-01T04:59:02.999Z</time></trkpt><trkpt lat="45.78826524841436" lon="9.419895795636654"><ele>213.5</ele><time>2026-05-01T04:59:03.999Z</time></trkpt><trkpt lat="45.78814377241125" lon="9.419998234079777"><ele>214.0</ele><time>2026-05-01T04:59:04.999Z</time></trkpt><trkpt lat="45.7880222737072" lon="9.420108256016963"><ele>214.0</ele><time>2026-05-01T04:59:05.999Z</time></trkpt><trkpt lat="45.78789796913128" lon="9.420211418581323"><ele>214.0</ele><time>2026-05-01T04:59:06.999Z</time></trkpt><trkpt lat="45.787775619162055" lon="9.420319177127718"><ele>214.0</ele><time>2026-05-01T04:59:07.999Z</time></trkpt><trkpt lat="45.78765501304262" lon="9.42042506460263"><ele>214.0</ele><time>2026-05-01T04:59:08.999Z</time></trkpt><trkpt lat="45.787530784301374" lon="9.420525356969543"><ele>214.0</ele><time>2026-05-01T04:59:09.999Z</time></trkpt><trkpt lat="45.78740764930397" lon="9.420624952523141"><ele>214.0</ele><time>2026-05-01T04:59:10.999Z</time></trkpt><trkpt lat="45.787284532055324" lon="9.4207205824691"><ele>214.0</ele><time>2026-05-01T04:59:11.999Z</time></trkpt><trkpt lat="45.78716308185107" lon="9.420821487876028"><ele>214.0</ele><time>2026-05-01T04:59:12.999Z</time></trkpt><trkpt lat="45.787040266204535" lon="9.420921485844422"><ele>214.0</ele><time>2026-05-01T04:59:13.999Z</time></trkpt><trkpt lat="45.78692049144242" lon="9.421022716738248"><ele>214.0</ele><time>2026-05-01T04:59:14.999Z</time></trkpt><trkpt lat="45.78679887064172" lon="9.421122543734226"><ele>214.0</ele><time>2026-05-01T04:59:15.999Z</time></trkpt><trkpt lat="45.78667679917841" lon="9.421226103192454"><ele>214.0</ele><time>2026-05-01T04:59:16.999Z</time></trkpt><trkpt lat="45.7865539684371" lon="9.421325430436108"><ele>214.25</ele><time>2026-05-01T04:59:17.999Z</time></trkpt><trkpt lat="45.786432173515344" lon="9.421430728146346"><ele>214.5</ele><time>2026-05-01T04:59:18.999Z</time></trkpt><trkpt lat="45.78630838367863" lon="9.421533544742852"><ele>214.75</ele><time>2026-05-01T04:59:19.999Z</time></trkpt><trkpt lat="45.786183724648154" lon="9.421632935677385"><ele>215.0</ele><time>2026-05-01T04:59:20.999Z</time></trkpt><trkpt lat="45.78606055276582" lon="9.421735752799465"><ele>215.75</ele><time>2026-05-01T04:59:21.999Z</time></trkpt><trkpt lat="45.78593974381252" lon="9.421843309171244"><ele>216.5</ele><time>2026-05-01T04:59:23Z</time></trkpt><trkpt lat="45.78581869320396" lon="9.421938991115697"><ele>217.25</ele><time>2026-05-01T04:59:24Z</time></trkpt><trkpt lat="45.78570166310815" lon="9.422030507935103"><ele>218.0</ele><time>2026-05-01T04:59:25Z</time></trkpt><trkpt lat="45.785589073671716" lon="9.422120247737437"><ele>217.75</ele><time>2026-05-01T04:59:26Z</time></trkpt><trkpt lat="45.78548111656005" lon="9.422209504470178"><ele>217.5</ele><time>2026-05-01T04:59:27Z</time></trkpt><trkpt lat="45.7853750049375" lon="9.422296018529295"><ele>217.25</ele><time>2026-05-01T04:59:28Z</time></trkpt><trkpt lat="45.785273275468846" lon="9.422379028903913"><ele>217.0</ele><time>2026-05-01T04:59:29Z</time></trkpt><trkpt lat="45.785174947765526" lon="9.422457508709927"><ele>217.8</ele><time>2026-05-01T04:59:30Z</time></trkpt><trkpt lat="45.78508636051001" lon="9.422531355987624"><ele>218.6</ele><time>2026-05-01T04:59:31Z</time></trkpt><trkpt lat="45.78500303578394" lon="9.422598990405712"><ele>219.40000000000003</ele><time>2026-05-01T04:59:32Z</time></trkpt><trkpt lat="45.784926626279734" lon="9.422658092137306"><ele>220.20000000000002</ele><time>2026-05-01T04:59:33Z</time></trkpt><trkpt lat="45.78485327913946" lon="9.422719730595396"><ele>221.0</ele><time>2026-05-01T04:59:34Z</time></trkpt><trkpt lat="45.784770776101816" lon="9.422763558879597"><ele>221.00000000000003</ele><time>2026-05-01T04:59:35Z</time></trkpt><trkpt lat="45.78468400161197" lon="9.422767849645815"><ele>221.0</ele><time>2026-05-01T04:59:36Z</time></trkpt><trkpt lat="45.78460653382285" lon="9.422737027119176"><ele>221.0</ele><time>2026-05-01T04:59:37Z</time></trkpt><trkpt lat="45.78453451718812" lon="9.422753813767113"><ele>221.0</ele><time>2026-05-01T04:59:38Z</time></trkpt><trkpt lat="45.784489235488245" lon="9.422844308470001"><ele>221.00000000000003</ele><time>2026-05-01T04:59:39Z</time></trkpt><trkpt lat="45.78446769011123" lon="9.4229717725947"><ele>221.0</ele><time>2026-05-01T04:59:40Z</time></trkpt><trkpt lat="45.7844225481444" lon="9.423089508091653"><ele>220.75</ele><time>2026-05-01T04:59:41Z</time></trkpt><trkpt lat="45.78434310386937" lon="9.423179086002479"><ele>220.5</ele><time>2026-05-01T04:59:42Z</time></trkpt><trkpt lat="45.78423865757585" lon="9.423234466909163"><ele>220.25</ele><time>2026-05-01T04:59:43Z</time></trkpt><trkpt lat="45.784138335550374" lon="9.423328043416616"><ele>220.0</ele><time>2026-05-01T04:59:44Z</time></trkpt><trkpt lat="45.784025999098766" lon="9.423402464158874"><ele>220.0</ele><time>2026-05-01T04:59:45Z</time></trkpt><trkpt lat="45.78390956329784" lon="9.423480153952818"><ele>220.0</ele><time>2026-05-01T04:59:46Z</time></trkpt><trkpt lat="45.783793900122454" lon="9.423553702200463"><ele>220.0</ele><time>2026-05-01T04:59:47Z</time></trkpt><trkpt lat="45.7836749660162" lon="9.423623659480002"><ele>220.0</ele><time>2026-05-01T04:59:48Z</time></trkpt><trkpt lat="45.78355059542268" lon="9.423687919284106"><ele>220.5</ele><time>2026-05-01T04:59:49Z</time></trkpt><trkpt lat="45.78342029996626" lon="9.4237424162974"><ele>221.0</ele><time>2026-05-01T04:59:50Z</time></trkpt><trkpt lat="45.78328751834959" lon="9.42379116854719"><ele>221.5</ele><time>2026-05-01T04:59:51Z</time></trkpt><trkpt lat="45.78315055824996" lon="9.423832587726324"><ele>222.0</ele><time>2026-05-01T04:59:52Z</time></trkpt><trkpt lat="45.78301261094023" lon="9.423870183007182"><ele>222.25</ele><time>2026-05-01T04:59:53Z</time></trkpt><trkpt lat="45.782871510953214" lon="9.423906919397236"><ele>222.5</ele><time>2026-05-01T04:59:54Z</time></trkpt><trkpt lat="45.78272771259192" lon="9.42394779692894"><ele>222.75</ele><time>2026-05-01T04:59:55Z</time></trkpt><trkpt lat="45.782585823887615" lon="9.423990387642846"><ele>223.0</ele><time>2026-05-01T04:59:56Z</time></trkpt><trkpt lat="45.782441013660886" lon="9.424035640542806"><ele>223.0</ele><time>2026-05-01T04:59:57Z</time></trkpt><trkpt lat="45.782296761998445" lon="9.424077853843787"><ele>223.0</ele><time>2026-05-01T04:59:58Z</time></trkpt><trkpt lat="45.78214884435852" lon="9.424099533161979"><ele>223.0</ele><time>2026-05-01T04:59:59Z</time></trkpt><trkpt lat="45.78199590968825" lon="9.424090116992565"><ele>223.0</ele><time>2026-05-01T05:00:00Z</time></trkpt><trkpt lat="45.78184033484053" lon="9.424095972376756"><ele>222.0</ele><time>2026-05-01T05:00:01Z</time></trkpt><trkpt lat="45.781685570994405" lon="9.424186500724684"><ele>221.0</ele><time>2026-05-01T05:00:02Z</time></trkpt><trkpt lat="45.78152877478209" lon="9.424254887191436"><ele>220.0</ele><time>2026-05-01T05:00:03Z</time></trkpt><trkpt lat="45.7813664630617" lon="9.424302680490745"><ele>220.0</ele><time>2026-05-01T05:00:04Z</time></trkpt><trkpt lat="45.7811961557239" lon="9.424348907987891"><ele>220.0</ele><time>2026-05-01T05:00:05Z</time></trkpt><trkpt lat="45.78101600369145" lon="9.424394779311699"><ele>220.0</ele><time>2026-05-01T05:00:06Z</time></trkpt><trkpt lat="45.780844675212165" lon="9.424443784260689"><ele>220.33333333333331</ele><time>2026-05-01T05:00:07Z</time></trkpt><trkpt lat="45.780668742050004" lon="9.424490863682426"><ele>220.66666666666669</ele><time>2026-05-01T05:00:08Z</time></trkpt><trkpt lat="45.78049659074212" lon="9.424539469095453"><ele>221.0</ele><time>2026-05-01T05:00:09Z</time></trkpt><trkpt lat="45.78031916711942" lon="9.424592766803364"><ele>220.33333333333334</ele><time>2026-05-01T05:00:10Z</time></trkpt><trkpt lat="45.7801388143467" lon="9.424641194474525"><ele>219.66666666666669</ele><time>2026-05-01T05:00:11Z</time></trkpt><trkpt lat="45.779950958884804" lon="9.424687549027052"><ele>219.0</ele><time>2026-05-01T05:00:12Z</time></trkpt><trkpt lat="45.779763612437804" lon="9.424736147053734"><ele>219.0</ele><time>2026-05-01T05:00:13Z</time></trkpt><trkpt lat="45.77957954462299" lon="9.424795015679544"><ele>219.0</ele><time>2026-05-01T05:00:14Z</time></trkpt><trkpt lat="45.77938659384967" lon="9.4248475481057"><ele>219.0</ele><time>2026-05-01T05:00:15Z</time></trkpt><trkpt lat="45.77919694994823" lon="9.424912217943"><ele>219.66666666666669</ele><time>2026-05-01T05:00:16Z</time></trkpt><trkpt lat="45.779010243093964" lon="9.424979539156665"><ele>220.33333333333334</ele><time>2026-05-01T05:00:17Z</time></trkpt><trkpt lat="45.77882211554321" lon="9.42505331365473"><ele>221.0</ele><time>2026-05-01T05:00:18Z</time></trkpt><trkpt lat="45.77863588862149" lon="9.425133514350515"><ele>223.66666666666669</ele><time>2026-05-01T05:00:19Z</time></trkpt><trkpt lat="45.77845586804467" lon="9.42521660785962"><ele>226.33333333333331</ele><time>2026-05-01T05:00:20Z</time></trkpt><trkpt lat="45.77825398950175" lon="9.425317927457053"><ele>229.0</ele><time>2026-05-01T05:00:21Z</time></trkpt><trkpt lat="45.77808914553831" lon="9.425385997834956"><ele>229.0</ele><time>2026-05-01T05:00:22Z</time></trkpt><trkpt lat="45.777908322898334" lon="9.425470565883277"><ele>229.0</ele><time>2026-05-01T05:00:23Z</time></trkpt><trkpt lat="45.777730772749074" lon="9.425555300794569"><ele>229.0</ele><time>2026-05-01T05:00:24Z</time></trkpt><trkpt lat="45.7775505486673" lon="9.425643035813772"><ele>223.66666666666666</ele><time>2026-05-01T05:00:25Z</time></trkpt><trkpt lat="45.77736334574107" lon="9.425721304669718"><ele>218.33333333333331</ele><time>2026-05-01T05:00:26Z</time></trkpt><trkpt lat="45.77717231113626" lon="9.425761552032416"><ele>213.0</ele><time>2026-05-01T05:00:27Z</time></trkpt><trkpt lat="45.77698434120441" lon="9.425795372285096"><ele>212.33333333333331</ele><time>2026-05-01T05:00:28Z</time></trkpt><trkpt lat="45.77679807627914" lon="9.425811030012918"><ele>211.66666666666666</ele><time>2026-05-01T05:00:29Z</time></trkpt><trkpt lat="45.776624447764185" lon="9.425800419827969"><ele>211.0</ele><time>2026-05-01T05:00:30Z</time></trkpt><trkpt lat="45.77646437347976" lon="9.425778516107867"><ele>211.0</ele><time>2026-05-01T05:00:31Z</time></trkpt><trkpt lat="45.77630864548628" lon="9.425766353778288"><ele>211.0</ele><time>2026-05-01T05:00:32Z</time></trkpt><trkpt lat="45.776166441742554" lon="9.425695815103447"><ele>211.0</ele><time>2026-05-01T05:00:33Z</time></trkpt><trkpt lat="45.77603099458552" lon="9.425585581208205"><ele>211.0</ele><time>2026-05-01T05:00:34Z</time></trkpt><trkpt lat="45.77590329164672" lon="9.425470741501101"><ele>211.0</ele><time>2026-05-01T05:00:35Z</time></trkpt><trkpt lat="45.775759974671246" lon="9.425410598144182"><ele>211.0</ele><time>2026-05-01T05:00:36Z</time></trkpt><trkpt lat="45.7756000208648" lon="9.425412366424275"><ele>211.0</ele><time>2026-05-01T05:00:37Z</time></trkpt><trkpt lat="45.77543130505386" lon="9.425386972268207"><ele>211.0</ele><time>2026-05-01T05:00:38Z</time></trkpt><trkpt lat="45.7752652090441" lon="9.425344097805837"><ele>211.0</ele><time>2026-05-01T05:00:39Z</time></trkpt><trkpt lat="45.775088423223124" lon="9.425306136072358"><ele>210.33333333333331</ele><time>2026-05-01T05:00:40Z</time></trkpt><trkpt lat="45.77490675627274" lon="9.425281270795644"><ele>209.66666666666669</ele><time>2026-05-01T05:00:41Z</time></trkpt><trkpt lat="45.77472251065249" lon="9.425262214106581"><ele>209.0</ele><time>2026-05-01T05:00:42Z</time></trkpt><trkpt lat="45.77453324176184" lon="9.425245184571082"><ele>208.66666666666669</ele><time>2026-05-01T05:00:43Z</time></trkpt><trkpt lat="45.77434077313406" lon="9.425228942980073"><ele>208.33333333333331</ele><time>2026-05-01T05:00:44Z</time></trkpt><trkpt lat="45.774144912664816" lon="9.425213779315758"><ele>208.0</ele><time>2026-05-01T05:00:45Z</time></trkpt><trkpt lat="45.77394723062392" lon="9.425199968518696"><ele>208.0</ele><time>2026-05-01T05:00:46Z</time></trkpt><trkpt lat="45.773747553622385" lon="9.425185982494623"><ele>208.0</ele><time>2026-05-01T05:00:47Z</time></trkpt><trkpt lat="45.77354129072698" lon="9.425174615614997"><ele>208.0</ele><time>2026-05-01T05:00:48Z</time></trkpt><trkpt lat="45.77333997936459" lon="9.425164353422563"><ele>207.0</ele><time>2026-05-01T05:00:49Z</time></trkpt><trkpt lat="45.773135443535246" lon="9.425150470258712"><ele>206.0</ele><time>2026-05-01T05:00:50Z</time></trkpt><trkpt lat="45.772928995537626" lon="9.425134917184158"><ele>205.0</ele><time>2026-05-01T05:00:50.999Z</time></trkpt><trkpt lat="45.772720828355" lon="9.4251188878836"><ele>205.0</ele><time>2026-05-01T05:00:51.999Z</time></trkpt><trkpt lat="45.77251128638253" lon="9.425102875208974"><ele>205.0</ele><time>2026-05-01T05:00:52.999Z</time></trkpt><trkpt lat="45.77230208027763" lon="9.425085410927915"><ele>205.0</ele><time>2026-05-01T05:00:53.999Z</time></trkpt><trkpt lat="45.77209262703015" lon="9.425065634871455"><ele>205.0</ele><time>2026-05-01T05:00:54.999Z</time></trkpt><trkpt lat="45.77188092749457" lon="9.425045217006215"><ele>205.0</ele><time>2026-05-01T05:00:55.999Z</time></trkpt><trkpt lat="45.77166890962726" lon="9.425028084346707"><ele>205.0</ele><time>2026-05-01T05:00:56.999Z</time></trkpt><trkpt lat="45.7714578736239" lon="9.425013477423567"><ele>204.0</ele><time>2026-05-01T05:00:57.999Z</time></trkpt><trkpt lat="45.77124604377848" lon="9.425000717037078"><ele>203.0</ele><time>2026-05-01T05:00:58.999Z</time></trkpt><trkpt lat="45.77103492616234" lon="9.4249884712195"><ele>202.0</ele><time>2026-05-01T05:00:59.999Z</time></trkpt><trkpt lat="45.77082379965888" lon="9.42497537584638"><ele>201.33333333333331</ele><time>2026-05-01T05:01:00.999Z</time></trkpt><trkpt lat="45.77061403478367" lon="9.424962985558432"><ele>200.66666666666669</ele><time>2026-05-01T05:01:01.999Z</time></trkpt><trkpt lat="45.77040245483012" lon="9.42494836410257"><ele>200.0</ele><time>2026-05-01T05:01:02.999Z</time></trkpt><trkpt lat="45.77019275661472" lon="9.42493460639747"><ele>201.0</ele><time>2026-05-01T05:01:03.999Z</time></trkpt><trkpt lat="45.76998369098534" lon="9.424920578052925"><ele>202.0</ele><time>2026-05-01T05:01:04.999Z</time></trkpt><trkpt lat="45.76977372012086" lon="9.42490208355703"><ele>203.0</ele><time>2026-05-01T05:01:05.999Z</time></trkpt><trkpt lat="45.76956373206178" lon="9.42487818750529"><ele>202.66666666666669</ele><time>2026-05-01T05:01:06.999Z</time></trkpt><trkpt lat="45.76935337191434" lon="9.42485554985948"><ele>202.33333333333331</ele><time>2026-05-01T05:01:07.999Z</time></trkpt><trkpt lat="45.76914113040187" lon="9.424835786108131"><ele>202.0</ele><time>2026-05-01T05:01:08.999Z</time></trkpt><trkpt lat="45.76893034635001" lon="9.42481636211902"><ele>202.0</ele><time>2026-05-01T05:01:09.999Z</time></trkpt><trkpt lat="45.768717074976145" lon="9.42479699769515"><ele>202.0</ele><time>2026-05-01T05:01:10.999Z</time></trkpt><trkpt lat="45.76850534296744" lon="9.42478053608815"><ele>202.0</ele><time>2026-05-01T05:01:11.999Z</time></trkpt><trkpt lat="45.7682946262637" lon="9.42476590449047"><ele>201.66666666666666</ele><time>2026-05-01T05:01:12.999Z</time></trkpt><trkpt lat="45.768081336047224" lon="9.424748501887999"><ele>201.33333333333331</ele><time>2026-05-01T05:01:13.999Z</time></trkpt><trkpt lat="45.76786925898716" lon="9.424740396885554"><ele>201.0</ele><time>2026-05-01T05:01:14.999Z</time></trkpt><trkpt lat="45.767656561119864" lon="9.424740827461354"><ele>201.66666666666669</ele><time>2026-05-01T05:01:15.999Z</time></trkpt><trkpt lat="45.76744491540552" lon="9.424754343125066"><ele>202.33333333333334</ele><time>2026-05-01T05:01:16.999Z</time></trkpt><trkpt lat="45.76723093038198" lon="9.424766703806743"><ele>203.0</ele><time>2026-05-01T05:01:17.999Z</time></trkpt><trkpt lat="45.767025278858675" lon="9.424835877112567"><ele>204.0</ele><time>2026-05-01T05:01:18.999Z</time></trkpt><trkpt lat="45.76681893107806" lon="9.424896337259932"><ele>205.0</ele><time>2026-05-01T05:01:19.999Z</time></trkpt><trkpt lat="45.76661506089344" lon="9.424971830267921"><ele>206.0</ele><time>2026-05-01T05:01:20.999Z</time></trkpt><trkpt lat="45.76641350731683" lon="9.425061151634601"><ele>206.0</ele><time>2026-05-01T05:01:21.999Z</time></trkpt><trkpt lat="45.76620957774377" lon="9.425147758415362"><ele>206.0</ele><time>2026-05-01T05:01:22.999Z</time></trkpt><trkpt lat="45.76600398849653" lon="9.425233970865687"><ele>206.0</ele><time>2026-05-01T05:01:23.999Z</time></trkpt><trkpt lat="45.765797032094945" lon="9.425319171176245"><ele>205.0</ele><time>2026-05-01T05:01:24.999Z</time></trkpt><trkpt lat="45.76559054993254" lon="9.425401684829918"><ele>204.0</ele><time>2026-05-01T05:01:25.999Z</time></trkpt><trkpt lat="45.76538347025759" lon="9.425488842562942"><ele>203.0</ele><time>2026-05-01T05:01:26.999Z</time></trkpt><trkpt lat="45.765176056888414" lon="9.425574652199066"><ele>203.0</ele><time>2026-05-01T05:01:27.999Z</time></trkpt><trkpt lat="45.76496632899231" lon="9.425659912595513"><ele>203.0</ele><time>2026-05-01T05:01:29Z</time></trkpt><trkpt lat="45.764759209640886" lon="9.425745706037825"><ele>203.0</ele><time>2026-05-01T05:01:30Z</time></trkpt><trkpt lat="45.764550315833375" lon="9.425829660276117"><ele>206.33333333333334</ele><time>2026-05-01T05:01:31Z</time></trkpt><trkpt lat="45.76434215831819" lon="9.425912937534786"><ele>209.66666666666669</ele><time>2026-05-01T05:01:32Z</time></trkpt><trkpt lat="45.76413321994301" lon="9.425996094937902"><ele>213.0</ele><time>2026-05-01T05:01:33Z</time></trkpt><trkpt lat="45.763925231709315" lon="9.426082221884304"><ele>213.0</ele><time>2026-05-01T05:01:34Z</time></trkpt><trkpt lat="45.76371464950435" lon="9.426163203421522"><ele>213.0</ele><time>2026-05-01T05:01:35Z</time></trkpt><trkpt lat="45.76350611122373" lon="9.426246501056273"><ele>213.0</ele><time>2026-05-01T05:01:36Z</time></trkpt><trkpt lat="45.76330011348765" lon="9.426323125980321"><ele>213.66666666666669</ele><time>2026-05-01T05:01:37Z</time></trkpt><trkpt lat="45.76309253404284" lon="9.426393956666175"><ele>214.33333333333334</ele><time>2026-05-01T05:01:38Z</time></trkpt><trkpt lat="45.76288330706421" lon="9.426454013621253"><ele>215.0</ele><time>2026-05-01T05:01:39Z</time></trkpt><trkpt lat="45.76267370743071" lon="9.426494585185434"><ele>215.0</ele><time>2026-05-01T05:01:40Z</time></trkpt><trkpt lat="45.76246314870822" lon="9.426522128126074"><ele>215.0</ele><time>2026-05-01T05:01:41Z</time></trkpt><trkpt lat="45.76224941707797" lon="9.426539334193965"><ele>215.0</ele><time>2026-05-01T05:01:42Z</time></trkpt><trkpt lat="45.76203873075843" lon="9.426559160851012"><ele>213.66666666666669</ele><time>2026-05-01T05:01:43Z</time></trkpt><trkpt lat="45.76182353254149" lon="9.426577498952938"><ele>212.33333333333331</ele><time>2026-05-01T05:01:44Z</time></trkpt><trkpt lat="45.76161273778931" lon="9.426599153084757"><ele>211.0</ele><time>2026-05-01T05:01:45Z</time></trkpt><trkpt lat="45.761398230986266" lon="9.426619273852587"><ele>211.0</ele><time>2026-05-01T05:01:46Z</time></trkpt><trkpt lat="45.76118504874229" lon="9.42661399935742"><ele>211.0</ele><time>2026-05-01T05:01:47Z</time></trkpt><trkpt lat="45.760971730646396" lon="9.426654785822976"><ele>211.0</ele><time>2026-05-01T05:01:48Z</time></trkpt><trkpt lat="45.76075710646093" lon="9.426648796914064"><ele>210.66666666666666</ele><time>2026-05-01T05:01:49Z</time></trkpt><trkpt lat="45.760545371419035" lon="9.426666015489824"><ele>210.33333333333331</ele><time>2026-05-01T05:01:50Z</time></trkpt><trkpt lat="45.7603313968898" lon="9.426683423790063"><ele>210.0</ele><time>2026-05-01T05:01:51Z</time></trkpt><trkpt lat="45.7601211571907" lon="9.426700528233741"><ele>211.33333333333331</ele><time>2026-05-01T05:01:52Z</time></trkpt><trkpt lat="45.7599092784183" lon="9.426717766026645"><ele>212.66666666666666</ele><time>2026-05-01T05:01:53Z</time></trkpt><trkpt lat="45.759701483531856" lon="9.426734671506015"><ele>214.0</ele><time>2026-05-01T05:01:54Z</time></trkpt><trkpt lat="45.759490069019336" lon="9.426751871445594"><ele>216.66666666666666</ele><time>2026-05-01T05:01:55Z</time></trkpt><trkpt lat="45.75928170293075" lon="9.426768823376415"><ele>219.33333333333331</ele><time>2026-05-01T05:01:56Z</time></trkpt><trkpt lat="45.7590726743749" lon="9.426787279991784"><ele>222.0</ele><time>2026-05-01T05:01:57Z</time></trkpt><trkpt lat="45.75886426939269" lon="9.426823594688765"><ele>222.0</ele><time>2026-05-01T05:01:58Z</time></trkpt><trkpt lat="45.75865561105225" lon="9.426827656117753"><ele>222.0</ele><time>2026-05-01T05:01:59Z</time></trkpt><trkpt lat="45.75845026044014" lon="9.426821129665639"><ele>222.0</ele><time>2026-05-01T05:02:00Z</time></trkpt><trkpt lat="45.758246245271415" lon="9.426807228054432"><ele>218.66666666666669</ele><time>2026-05-01T05:02:01Z</time></trkpt><trkpt lat="45.75803949916027" lon="9.426788634292512"><ele>215.33333333333334</ele><time>2026-05-01T05:02:02Z</time></trkpt><trkpt lat="45.757837309667714" lon="9.42677698507269"><ele>212.0</ele><time>2026-05-01T05:02:03Z</time></trkpt><trkpt lat="45.75763275195955" lon="9.426764354975417"><ele>212.0</ele><time>2026-05-01T05:02:04Z</time></trkpt><trkpt lat="45.75743014696793" lon="9.426750189812934"><ele>212.0</ele><time>2026-05-01T05:02:05Z</time></trkpt><trkpt lat="45.75723235533664" lon="9.426737337148925"><ele>212.0</ele><time>2026-05-01T05:02:06Z</time></trkpt><trkpt lat="45.757036865987416" lon="9.426727514816454"><ele>214.0</ele><time>2026-05-01T05:02:07Z</time></trkpt><trkpt lat="45.75685037970761" lon="9.426717929631252"><ele>216.0</ele><time>2026-05-01T05:02:08Z</time></trkpt><trkpt lat="45.756670954211465" lon="9.426711065895455"><ele>218.0</ele><time>2026-05-01T05:02:09Z</time></trkpt><trkpt lat="45.75650557531466" lon="9.426717098091142"><ele>218.0</ele><time>2026-05-01T05:02:10Z</time></trkpt><trkpt lat="45.75635074700696" lon="9.426720670203837"><ele>218.0</ele><time>2026-05-01T05:02:11Z</time></trkpt><trkpt lat="45.756205326337984" lon="9.426726042426566"><ele>218.0</ele><time>2026-05-01T05:02:12Z</time></trkpt><trkpt lat="45.75606029264824" lon="9.4267237166841"><ele>218.0</ele><time>2026-05-01T05:02:13Z</time></trkpt><trkpt lat="45.75591898102287" lon="9.426695385997858"><ele>218.0</ele><time>2026-05-01T05:02:14Z</time></trkpt><trkpt lat="45.755772793048415" lon="9.426668520881972"><ele>218.0</ele><time>2026-05-01T05:02:15Z</time></trkpt><trkpt lat="45.7556243755543" lon="9.426663302950422"><ele>218.0</ele><time>2026-05-01T05:02:16Z</time></trkpt><trkpt lat="45.7554741453198" lon="9.426664782564831"><ele>218.0</ele><time>2026-05-01T05:02:17Z</time></trkpt><trkpt lat="45.75532792821203" lon="9.42666291859299"><ele>218.5</ele><time>2026-05-01T05:02:18Z</time></trkpt><trkpt lat="45.75519215308697" lon="9.426654804047198"><ele>219.0</ele><time>2026-05-01T05:02:19Z</time></trkpt><trkpt lat="45.75505780452229" lon="9.426648170847384"><ele>219.5</ele><time>2026-05-01T05:02:20Z</time></trkpt><trkpt lat="45.754912305983886" lon="9.426638310198554"><ele>220.0</ele><time>2026-05-01T05:02:21Z</time></trkpt><trkpt lat="45.754761496342695" lon="9.426635326191178"><ele>220.0</ele><time>2026-05-01T05:02:22Z</time></trkpt><trkpt lat="45.7546048686747" lon="9.42663243381694"><ele>220.0</ele><time>2026-05-01T05:02:23Z</time></trkpt><trkpt lat="45.754439862935605" lon="9.42662804720628"><ele>220.0</ele><time>2026-05-01T05:02:24Z</time></trkpt><trkpt lat="45.754273465514665" lon="9.42662388220692"><ele>219.33333333333331</ele><time>2026-05-01T05:02:25Z</time></trkpt><trkpt lat="45.754102075161086" lon="9.426618879990881"><ele>218.66666666666669</ele><time>2026-05-01T05:02:26Z</time></trkpt><trkpt lat="45.75393077757905" lon="9.426612425887416"><ele>218.0</ele><time>2026-05-01T05:02:27Z</time></trkpt><trkpt lat="45.753758342640346" lon="9.42660621098675"><ele>218.0</ele><time>2026-05-01T05:02:28Z</time></trkpt><trkpt lat="45.75358160401237" lon="9.426601410755737"><ele>218.0</ele><time>2026-05-01T05:02:29Z</time></trkpt><trkpt lat="45.75340226997018" lon="9.426596789020994"><ele>218.0</ele><time>2026-05-01T05:02:30Z</time></trkpt><trkpt lat="45.75322028317733" lon="9.426591518835156"><ele>217.33333333333334</ele><time>2026-05-01T05:02:31Z</time></trkpt><trkpt lat="45.753035997417385" lon="9.42658782994612"><ele>216.66666666666669</ele><time>2026-05-01T05:02:32Z</time></trkpt><trkpt lat="45.75284886090508" lon="9.426581479779134"><ele>216.0</ele><time>2026-05-01T05:02:33Z</time></trkpt><trkpt lat="45.75265997094463" lon="9.426573653449447"><ele>215.33333333333331</ele><time>2026-05-01T05:02:34Z</time></trkpt><trkpt lat="45.75246664780769" lon="9.42656678951218"><ele>214.66666666666666</ele><time>2026-05-01T05:02:35Z</time></trkpt><trkpt lat="45.75227259848607" lon="9.426558462814485"><ele>214.0</ele><time>2026-05-01T05:02:36Z</time></trkpt><trkpt lat="45.752075266120556" lon="9.426551630272675"><ele>214.0</ele><time>2026-05-01T05:02:37Z</time></trkpt><trkpt lat="45.751876631966574" lon="9.426544285428639"><ele>214.0</ele><time>2026-05-01T05:02:38Z</time></trkpt><trkpt lat="45.751677921352474" lon="9.42653703777951"><ele>214.0</ele><time>2026-05-01T05:02:39Z</time></trkpt><trkpt lat="45.75147431587278" lon="9.426524642839516"><ele>212.66666666666666</ele><time>2026-05-01T05:02:40Z</time></trkpt><trkpt lat="45.751274136088085" lon="9.426512484290514"><ele>211.33333333333331</ele><time>2026-05-01T05:02:41Z</time></trkpt><trkpt lat="45.7510782081237" lon="9.426497057752993"><ele>210.0</ele><time>2026-05-01T05:02:42Z</time></trkpt><trkpt lat="45.750874804779095" lon="9.426475405780648"><ele>209.33333333333331</ele><time>2026-05-01T05:02:43Z</time></trkpt><trkpt lat="45.750674236722595" lon="9.426447464299772"><ele>208.66666666666666</ele><time>2026-05-01T05:02:44Z</time></trkpt><trkpt lat="45.7504755100135" lon="9.426410568282977"><ele>208.0</ele><time>2026-05-01T05:02:45Z</time></trkpt><trkpt lat="45.7502689001967" lon="9.426395913148447"><ele>208.33333333333331</ele><time>2026-05-01T05:02:46Z</time></trkpt><trkpt lat="45.750062437505356" lon="9.426404822546685"><ele>208.66666666666669</ele><time>2026-05-01T05:02:47Z</time></trkpt><trkpt lat="45.749851697457146" lon="9.426406155793554"><ele>209.0</ele><time>2026-05-01T05:02:48Z</time></trkpt><trkpt lat="45.74964085491162" lon="9.426393402637402"><ele>209.0</ele><time>2026-05-01T05:02:49Z</time></trkpt><trkpt lat="45.749431436692355" lon="9.4263747857125"><ele>209.0</ele><time>2026-05-01T05:02:49.999Z</time></trkpt><trkpt lat="45.74922231450155" lon="9.426353153634857"><ele>209.0</ele><time>2026-05-01T05:02:50.999Z</time></trkpt><trkpt lat="45.74901070303835" lon="9.426331667630615"><ele>210.66666666666669</ele><time>2026-05-01T05:02:51.999Z</time></trkpt><trkpt lat="45.74879881214051" lon="9.426308774172307"><ele>212.33333333333331</ele><time>2026-05-01T05:02:52.999Z</time></trkpt><trkpt lat="45.748587053951596" lon="9.42628609217652"><ele>214.0</ele><time>2026-05-01T05:02:53.999Z</time></trkpt><trkpt lat="45.748373083042246" lon="9.42626485030283"><ele>214.33333333333331</ele><time>2026-05-01T05:02:54.999Z</time></trkpt><trkpt lat="45.7481597913631" lon="9.426244110290229"><ele>214.66666666666669</ele><time>2026-05-01T05:02:55.999Z</time></trkpt><trkpt lat="45.74794543544581" lon="9.4262235527728"><ele>215.0</ele><time>2026-05-01T05:02:56.999Z</time></trkpt><trkpt lat="45.7477322995864" lon="9.426201234676086"><ele>216.0</ele><time>2026-05-01T05:02:57.999Z</time></trkpt><trkpt lat="45.74751731931383" lon="9.426177417687239"><ele>217.0</ele><time>2026-05-01T05:02:58.999Z</time></trkpt><trkpt lat="45.747302184768536" lon="9.42615483827257"><ele>218.0</ele><time>2026-05-01T05:02:59.999Z</time></trkpt><trkpt lat="45.74708596786689" lon="9.42613380693759"><ele>217.33333333333334</ele><time>2026-05-01T05:03:00.999Z</time></trkpt><trkpt lat="45.74687093837109" lon="9.426112476485907"><ele>216.66666666666669</ele><time>2026-05-01T05:03:01.999Z</time></trkpt><trkpt lat="45.74665437607605" lon="9.426091191207625"><ele>216.0</ele><time>2026-05-01T05:03:02.999Z</time></trkpt><trkpt lat="45.74643878229065" lon="9.42606547985174"><ele>216.0</ele><time>2026-05-01T05:03:03.999Z</time></trkpt><trkpt lat="45.7462224379244" lon="9.42603137997793"><ele>216.0</ele><time>2026-05-01T05:03:04.999Z</time></trkpt><trkpt lat="45.74600763846798" lon="9.42598284865647"><ele>216.0</ele><time>2026-05-01T05:03:05.999Z</time></trkpt><trkpt lat="45.74579514352372" lon="9.425916796848359"><ele>216.0</ele><time>2026-05-01T05:03:06.999Z</time></trkpt><trkpt lat="45.74558698174166" lon="9.425833208982084"><ele>216.0</ele><time>2026-05-01T05:03:07.999Z</time></trkpt><trkpt lat="45.745382745746056" lon="9.425728847385436"><ele>216.0</ele><time>2026-05-01T05:03:08.999Z</time></trkpt><trkpt lat="45.7451841908652" lon="9.425608333020145"><ele>214.66666666666669</ele><time>2026-05-01T05:03:09.999Z</time></trkpt><trkpt lat="45.74498303509967" lon="9.425488636657795"><ele>213.33333333333334</ele><time>2026-05-01T05:03:10.999Z</time></trkpt><trkpt lat="45.74478075374891" lon="9.425374431881755"><ele>212.0</ele><time>2026-05-01T05:03:11.999Z</time></trkpt><trkpt lat="45.74457935673423" lon="9.425262526248858"><ele>214.0</ele><time>2026-05-01T05:03:12.999Z</time></trkpt><trkpt lat="45.7443761485841" lon="9.425149773558303"><ele>216.0</ele><time>2026-05-01T05:03:13.999Z</time></trkpt><trkpt lat="45.744173445218784" lon="9.425036950808"><ele>218.0</ele><time>2026-05-01T05:03:14.999Z</time></trkpt><trkpt lat="45.743971376723984" lon="9.424924845146466"><ele>218.0</ele><time>2026-05-01T05:03:15.999Z</time></trkpt><trkpt lat="45.74377022782486" lon="9.424813590633624"><ele>218.0</ele><time>2026-05-01T05:03:16.999Z</time></trkpt><trkpt lat="45.74356922100507" lon="9.424702031413986"><ele>218.0</ele><time>2026-05-01T05:03:17.999Z</time></trkpt><trkpt lat="45.74336881433325" lon="9.42458961692678"><ele>220.33333333333334</ele><time>2026-05-01T05:03:18.999Z</time></trkpt><trkpt lat="45.743168522494095" lon="9.424476722634271"><ele>222.66666666666669</ele><time>2026-05-01T05:03:19.999Z</time></trkpt><trkpt lat="45.7429690870444" lon="9.42436251922306"><ele>225.0</ele><time>2026-05-01T05:03:20.999Z</time></trkpt><trkpt lat="45.742770493359814" lon="9.424248806897292"><ele>222.0</ele><time>2026-05-01T05:03:21.999Z</time></trkpt><trkpt lat="45.74256975442162" lon="9.424137314464863"><ele>219.0</ele><time>2026-05-01T05:03:22.999Z</time></trkpt><trkpt lat="45.74236925227817" lon="9.42402575808251"><ele>216.0</ele><time>2026-05-01T05:03:23.999Z</time></trkpt><trkpt lat="45.74216823127384" lon="9.423912776591862"><ele>217.0</ele><time>2026-05-01T05:03:24.999Z</time></trkpt><trkpt lat="45.74196964656586" lon="9.423794789495446"><ele>218.0</ele><time>2026-05-01T05:03:25.999Z</time></trkpt><trkpt lat="45.741774286258426" lon="9.423669014519946"><ele>219.0</ele><time>2026-05-01T05:03:26.999Z</time></trkpt><trkpt lat="45.741582950181396" lon="9.423533294457153"><ele>219.0</ele><time>2026-05-01T05:03:27.999Z</time></trkpt><trkpt lat="45.74139298353254" lon="9.423392770187126"><ele>219.0</ele><time>2026-05-01T05:03:28.999Z</time></trkpt><trkpt lat="45.74120370325276" lon="9.423248962785387"><ele>219.0</ele><time>2026-05-01T05:03:29.999Z</time></trkpt><trkpt lat="45.7410147995017" lon="9.423105126316317"><ele>220.0</ele><time>2026-05-01T05:03:30.999Z</time></trkpt><trkpt lat="45.74082744552485" lon="9.422958289765386"><ele>221.0</ele><time>2026-05-01T05:03:31.999Z</time></trkpt><trkpt lat="45.740638751764756" lon="9.42280802795241"><ele>222.0</ele><time>2026-05-01T05:03:32.999Z</time></trkpt><trkpt lat="45.74044929587646" lon="9.422659077529861"><ele>222.0</ele><time>2026-05-01T05:03:34Z</time></trkpt><trkpt lat="45.74025965118638" lon="9.422507086545792"><ele>222.0</ele><time>2026-05-01T05:03:35Z</time></trkpt><trkpt lat="45.74006673078857" lon="9.422360671241035"><ele>222.0</ele><time>2026-05-01T05:03:36Z</time></trkpt><trkpt lat="45.73987570817395" lon="9.422213311463896"><ele>221.33333333333331</ele><time>2026-05-01T05:03:37Z</time></trkpt><trkpt lat="45.73968204637727" lon="9.422065100252096"><ele>220.66666666666666</ele><time>2026-05-01T05:03:38Z</time></trkpt><trkpt lat="45.73949069972095" lon="9.421917721927853"><ele>220.0</ele><time>2026-05-01T05:03:39Z</time></trkpt><trkpt lat="45.73929849208174" lon="9.421767399307559"><ele>220.0</ele><time>2026-05-01T05:03:40Z</time></trkpt><trkpt lat="45.73910654725551" lon="9.421615566975081"><ele>220.0</ele><time>2026-05-01T05:03:41Z</time></trkpt><trkpt lat="45.73891315898531" lon="9.421463848709891"><ele>220.0</ele><time>2026-05-01T05:03:42Z</time></trkpt><trkpt lat="45.73871958310356" lon="9.421312576523858"><ele>219.66666666666666</ele><time>2026-05-01T05:03:43Z</time></trkpt><trkpt lat="45.73852624761633" lon="9.421161950836028"><ele>219.33333333333331</ele><time>2026-05-01T05:03:44Z</time></trkpt><trkpt lat="45.73833279053639" lon="9.42101203628223"><ele>219.0</ele><time>2026-05-01T05:03:45Z</time></trkpt><trkpt lat="45.73814039087329" lon="9.42086250561289"><ele>219.0</ele><time>2026-05-01T05:03:46Z</time></trkpt><trkpt lat="45.737947125399735" lon="9.42071253512899"><ele>219.0</ele><time>2026-05-01T05:03:47Z</time></trkpt><trkpt lat="45.737752981327375" lon="9.420562601495865"><ele>219.0</ele><time>2026-05-01T05:03:48Z</time></trkpt><trkpt lat="45.7375602792117" lon="9.4204133738412"><ele>219.66666666666669</ele><time>2026-05-01T05:03:49Z</time></trkpt><trkpt lat="45.73736733744051" lon="9.42026397059519"><ele>220.33333333333334</ele><time>2026-05-01T05:03:50Z</time></trkpt><trkpt lat="45.73717516244151" lon="9.420113816298525"><ele>221.0</ele><time>2026-05-01T05:03:51Z</time></trkpt><trkpt lat="45.73698396691552" lon="9.419962372117123"><ele>220.66666666666669</ele><time>2026-05-01T05:03:52Z</time></trkpt><trkpt lat="45.73679345467602" lon="9.419810209968574"><ele>220.33333333333331</ele><time>2026-05-01T05:03:53Z</time></trkpt><trkpt lat="45.736604504441836" lon="9.419663508649604"><ele>220.0</ele><time>2026-05-01T05:03:54Z</time></trkpt><trkpt lat="45.73641516825299" lon="9.419519357742997"><ele>220.0</ele><time>2026-05-01T05:03:55Z</time></trkpt><trkpt lat="45.73622455700547" lon="9.419375498309899"><ele>220.0</ele><time>2026-05-01T05:03:56Z</time></trkpt><trkpt lat="45.73603792139705" lon="9.41923374595235"><ele>220.0</ele><time>2026-05-01T05:03:57Z</time></trkpt><trkpt lat="45.735853831375614" lon="9.41909477520286"><ele>220.0</ele><time>2026-05-01T05:03:58Z</time></trkpt><trkpt lat="45.73567470150149" lon="9.41895484477293"><ele>220.0</ele><time>2026-05-01T05:03:59Z</time></trkpt><trkpt lat="45.735505566915066" lon="9.418816751925203"><ele>220.0</ele><time>2026-05-01T05:04:00Z</time></trkpt><trkpt lat="45.73534906628995" lon="9.418679637517748"><ele>221.33333333333331</ele><time>2026-05-01T05:04:01Z</time></trkpt><trkpt lat="45.73520257687302" lon="9.418530403975382"><ele>222.66666666666669</ele><time>2026-05-01T05:04:02Z</time></trkpt><trkpt lat="45.73506834359104" lon="9.418366587186314"><ele>224.0</ele><time>2026-05-01T05:04:03Z</time></trkpt><trkpt lat="45.73494683455606" lon="9.418196181736874"><ele>224.0</ele><time>2026-05-01T05:04:04Z</time></trkpt><trkpt lat="45.734820925695246" lon="9.418030400607158"><ele>224.0</ele><time>2026-05-01T05:04:05Z</time></trkpt><trkpt lat="45.734678085826936" lon="9.417889984603008"><ele>224.0</ele><time>2026-05-01T05:04:06Z</time></trkpt><trkpt lat="45.734529818683924" lon="9.417757124614848"><ele>223.66666666666669</ele><time>2026-05-01T05:04:07Z</time></trkpt><trkpt lat="45.73439114526562" lon="9.417601025743316"><ele>223.33333333333331</ele><time>2026-05-01T05:04:08Z</time></trkpt><trkpt lat="45.73425642526068" lon="9.417433135501154"><ele>223.0</ele><time>2026-05-01T05:04:09Z</time></trkpt><trkpt lat="45.73411507534549" lon="9.41727595627586"><ele>225.33333333333331</ele><time>2026-05-01T05:04:10Z</time></trkpt><trkpt lat="45.733960353233364" lon="9.417147784055803"><ele>227.66666666666669</ele><time>2026-05-01T05:04:11Z</time></trkpt><trkpt lat="45.733791238062416" lon="9.417062102157477"><ele>230.0</ele><time>2026-05-01T05:04:12Z</time></trkpt><trkpt lat="45.733613998837974" lon="9.417031933385289"><ele>231.33333333333334</ele><time>2026-05-01T05:04:13Z</time></trkpt><trkpt lat="45.733435263507374" lon="9.417047616449484"><ele>232.66666666666669</ele><time>2026-05-01T05:04:14Z</time></trkpt><trkpt lat="45.73326213118572" lon="9.417114988011242"><ele>234.0</ele><time>2026-05-01T05:04:15Z</time></trkpt><trkpt lat="45.7331043134349" lon="9.417222907892636"><ele>237.33333333333331</ele><time>2026-05-01T05:04:16Z</time></trkpt><trkpt lat="45.732966884462385" lon="9.41737530494059"><ele>240.66666666666666</ele><time>2026-05-01T05:04:17Z</time></trkpt><trkpt lat="45.732851387658386" lon="9.417563488480225"><ele>244.0</ele><time>2026-05-01T05:04:18Z</time></trkpt><trkpt lat="45.732767665281465" lon="9.417789701405376"><ele>246.0</ele><time>2026-05-01T05:04:19Z</time></trkpt><trkpt lat="45.73271363284702" lon="9.418040801172571"><ele>248.0</ele><time>2026-05-01T05:04:20Z</time></trkpt><trkpt lat="45.7326867682214" lon="9.418307691679106"><ele>250.0</ele><time>2026-05-01T05:04:21Z</time></trkpt><trkpt lat="45.73266520969695" lon="9.41857886062631"><ele>251.0</ele><time>2026-05-01T05:04:22Z</time></trkpt><trkpt lat="45.732632428455645" lon="9.41884476600446"><ele>252.0</ele><time>2026-05-01T05:04:23Z</time></trkpt><trkpt lat="45.73258252130387" lon="9.419095856627566"><ele>253.0</ele><time>2026-05-01T05:04:24Z</time></trkpt><trkpt lat="45.73250981474811" lon="9.419331975985836"><ele>253.0</ele><time>2026-05-01T05:04:25Z</time></trkpt><trkpt lat="45.73241286472475" lon="9.41954329223071"><ele>253.0</ele><time>2026-05-01T05:04:26Z</time></trkpt><trkpt lat="45.7322947821756" lon="9.419722567151558"><ele>253.0</ele><time>2026-05-01T05:04:27Z</time></trkpt><trkpt lat="45.732151688414085" lon="9.419840554128973"><ele>253.33333333333331</ele><time>2026-05-01T05:04:28Z</time></trkpt><trkpt lat="45.73199915237193" lon="9.419891216709608"><ele>253.66666666666669</ele><time>2026-05-01T05:04:29Z</time></trkpt><trkpt lat="45.731835969483534" lon="9.419865591431593"><ele>254.0</ele><time>2026-05-01T05:04:30Z</time></trkpt><trkpt lat="45.7316727286316" lon="9.419804738219252"><ele>253.33333333333334</ele><time>2026-05-01T05:04:31Z</time></trkpt><trkpt lat="45.73151389514087" lon="9.419701501033103"><ele>252.66666666666669</ele><time>2026-05-01T05:04:32Z</time></trkpt><trkpt lat="45.731356746001644" lon="9.41956417577118"><ele>252.0</ele><time>2026-05-01T05:04:33Z</time></trkpt><trkpt lat="45.731201037530774" lon="9.419406450770301"><ele>255.0</ele><time>2026-05-01T05:04:34Z</time></trkpt><trkpt lat="45.73104198839608" lon="9.419236951680462"><ele>258.0</ele><time>2026-05-01T05:04:35Z</time></trkpt><trkpt lat="45.73087451456758" lon="9.419067750445064"><ele>261.0</ele><time>2026-05-01T05:04:36Z</time></trkpt><trkpt lat="45.73070592581918" lon="9.418906339286618"><ele>259.0</ele><time>2026-05-01T05:04:37Z</time></trkpt><trkpt lat="45.730516096474254" lon="9.418727691117695"><ele>257.0</ele><time>2026-05-01T05:04:38Z</time></trkpt><trkpt lat="45.73033197513596" lon="9.418546723099693"><ele>259.0</ele><time>2026-05-01T05:04:39Z</time></trkpt><trkpt lat="45.73014636878971" lon="9.418378135019957"><ele>261.0</ele><time>2026-05-01T05:04:39.999Z</time></trkpt><trkpt lat="45.72996472854979" lon="9.41821629240997"><ele>263.0</ele><time>2026-05-01T05:04:40.999Z</time></trkpt><trkpt lat="45.72978131038156" lon="9.418063110785061"><ele>264.0</ele><time>2026-05-01T05:04:41.999Z</time></trkpt><trkpt lat="45.72959457877305" lon="9.417907892329046"><ele>265.0</ele><time>2026-05-01T05:04:42.999Z</time></trkpt><trkpt lat="45.72941120106944" lon="9.417746841139754"><ele>266.0</ele><time>2026-05-01T05:04:43.999Z</time></trkpt><trkpt lat="45.72924133345188" lon="9.417555148438465"><ele>266.0</ele><time>2026-05-01T05:04:44.999Z</time></trkpt><trkpt lat="45.72909195706527" lon="9.417322684129747"><ele>266.0</ele><time>2026-05-01T05:04:45.999Z</time></trkpt><trkpt lat="45.72894764433393" lon="9.417076764560806"><ele>266.0</ele><time>2026-05-01T05:04:46.999Z</time></trkpt><trkpt lat="45.72880920289259" lon="9.416831828230933"><ele>266.33333333333337</ele><time>2026-05-01T05:04:47.999Z</time></trkpt><trkpt lat="45.728667342764005" lon="9.416598252966747"><ele>266.6666666666667</ele><time>2026-05-01T05:04:48.999Z</time></trkpt><trkpt lat="45.72850952717384" lon="9.416385309397016"><ele>267.0</ele><time>2026-05-01T05:04:49.999Z</time></trkpt><trkpt lat="45.72833213544822" lon="9.416200880799783"><ele>267.0</ele><time>2026-05-01T05:04:50.999Z</time></trkpt><trkpt lat="45.728145688364656" lon="9.416042932589395"><ele>267.0</ele><time>2026-05-01T05:04:51.999Z</time></trkpt><trkpt lat="45.72795500242388" lon="9.41590015718649"><ele>267.0</ele><time>2026-05-01T05:04:52.999Z</time></trkpt><trkpt lat="45.72775550195284" lon="9.415777391115835"><ele>269.0</ele><time>2026-05-01T05:04:53.999Z</time></trkpt><trkpt lat="45.727546252437506" lon="9.415676770021719"><ele>271.0</ele><time>2026-05-01T05:04:54.999Z</time></trkpt><trkpt lat="45.727337672569824" lon="9.415594206357756"><ele>273.0</ele><time>2026-05-01T05:04:55.999Z</time></trkpt><trkpt lat="45.727126589082204" lon="9.415529931073124"><ele>273.0</ele><time>2026-05-01T05:04:56.999Z</time></trkpt><trkpt lat="45.72691780871392" lon="9.415494762279907"><ele>273.0</ele><time>2026-05-01T05:04:57.999Z</time></trkpt><trkpt lat="45.72670584937292" lon="9.415448924165213"><ele>273.0</ele><time>2026-05-01T05:04:58.999Z</time></trkpt><trkpt lat="45.726494236529525" lon="9.415434732691791"><ele>275.0</ele><time>2026-05-01T05:04:59.999Z</time></trkpt><trkpt lat="45.726289241716586" lon="9.415450079901744"><ele>277.0</ele><time>2026-05-01T05:05:00.999Z</time></trkpt><trkpt lat="45.72609288911082" lon="9.415470111992022"><ele>279.0</ele><time>2026-05-01T05:05:01.999Z</time></trkpt><trkpt lat="45.72591263287851" lon="9.415505550979379"><ele>279.3333333333333</ele><time>2026-05-01T05:05:02.999Z</time></trkpt><trkpt lat="45.725745780079905" lon="9.41555628809977"><ele>279.66666666666663</ele><time>2026-05-01T05:05:03.999Z</time></trkpt><trkpt lat="45.72559161919464" lon="9.415616956892297"><ele>280.0</ele><time>2026-05-01T05:05:04.999Z</time></trkpt><trkpt lat="45.72544595792153" lon="9.41567845357571"><ele>280.0</ele><time>2026-05-01T05:05:05.999Z</time></trkpt><trkpt lat="45.72530813990141" lon="9.415740523785658"><ele>280.0</ele><time>2026-05-01T05:05:06.999Z</time></trkpt><trkpt lat="45.72517756784482" lon="9.41580033540771"><ele>280.0</ele><time>2026-05-01T05:05:07.999Z</time></trkpt><trkpt lat="45.72505803279878" lon="9.415843816262376"><ele>280.0</ele><time>2026-05-01T05:05:08.999Z</time></trkpt><trkpt lat="45.724937103864406" lon="9.415853096046822"><ele>281.0</ele><time>2026-05-01T05:05:09.999Z</time></trkpt><trkpt lat="45.724805481414165" lon="9.415849051999613"><ele>282.0</ele><time>2026-05-01T05:05:10.999Z</time></trkpt><trkpt lat="45.724663163204305" lon="9.415860061021633"><ele>283.0</ele><time>2026-05-01T05:05:11.999Z</time></trkpt><trkpt lat="45.72452261100559" lon="9.415814284049238"><ele>284.0</ele><time>2026-05-01T05:05:12.999Z</time></trkpt><trkpt lat="45.724414248964884" lon="9.415662806813058"><ele>284.0</ele><time>2026-05-01T05:05:13.999Z</time></trkpt><trkpt lat="45.72427227861202" lon="9.4155387497108"><ele>284.0</ele><time>2026-05-01T05:05:14.999Z</time></trkpt><trkpt lat="45.72412789357839" lon="9.4153861630795"><ele>284.0</ele><time>2026-05-01T05:05:15.999Z</time></trkpt><trkpt lat="45.723981464585755" lon="9.415238626519319"><ele>284.0</ele><time>2026-05-01T05:05:16.999Z</time></trkpt><trkpt lat="45.723839279989896" lon="9.415091755508938"><ele>284.0</ele><time>2026-05-01T05:05:17.999Z</time></trkpt><trkpt lat="45.72369770592217" lon="9.414942743520996"><ele>284.0</ele><time>2026-05-01T05:05:18.999Z</time></trkpt><trkpt lat="45.72355667092002" lon="9.4147927173266"><ele>284.6666666666667</ele><time>2026-05-01T05:05:19.999Z</time></trkpt><trkpt lat="45.723410709247766" lon="9.414645175365383"><ele>285.3333333333333</ele><time>2026-05-01T05:05:20.999Z</time></trkpt><trkpt lat="45.72326203691958" lon="9.414492707215446"><ele>286.0</ele><time>2026-05-01T05:05:21.999Z</time></trkpt><trkpt lat="45.723115722906066" lon="9.414341171011046"><ele>286.0</ele><time>2026-05-01T05:05:22.999Z</time></trkpt><trkpt lat="45.72297313874509" lon="9.414190867378174"><ele>286.0</ele><time>2026-05-01T05:05:23.999Z</time></trkpt><trkpt lat="45.72283016475656" lon="9.414037041054538"><ele>286.0</ele><time>2026-05-01T05:05:24.999Z</time></trkpt><trkpt lat="45.722688902537804" lon="9.41388257547916"><ele>286.66666666666663</ele><time>2026-05-01T05:05:25.999Z</time></trkpt><trkpt lat="45.722548189207224" lon="9.413728503691615"><ele>287.3333333333333</ele><time>2026-05-01T05:05:26.999Z</time></trkpt><trkpt lat="45.72240949645512" lon="9.413580386784943"><ele>288.0</ele><time>2026-05-01T05:05:27.999Z</time></trkpt><trkpt lat="45.72227303836353" lon="9.413439964235167"><ele>288.0</ele><time>2026-05-01T05:05:28.999Z</time></trkpt><trkpt lat="45.72214308335349" lon="9.41330843093729"><ele>288.0</ele><time>2026-05-01T05:05:29.999Z</time></trkpt><trkpt lat="45.72201391563422" lon="9.413180556817647"><ele>288.0</ele><time>2026-05-01T05:05:30.999Z</time></trkpt><trkpt lat="45.72188208395223" lon="9.413050087419222"><ele>288.6666666666667</ele><time>2026-05-01T05:05:31.999Z</time></trkpt><trkpt lat="45.72175158362529" lon="9.412914841578774"><ele>289.33333333333337</ele><time>2026-05-01T05:05:32.999Z</time></trkpt><trkpt lat="45.721623106069" lon="9.412772805732686"><ele>290.0</ele><time>2026-05-01T05:05:33.999Z</time></trkpt><trkpt lat="45.72149400689367" lon="9.412630439160305"><ele>290.0</ele><time>2026-05-01T05:05:34.999Z</time></trkpt><trkpt lat="45.72136522251161" lon="9.412490467536497"><ele>290.0</ele><time>2026-05-01T05:05:35.999Z</time></trkpt><trkpt lat="45.72123208511961" lon="9.412347720475887"><ele>290.0</ele><time>2026-05-01T05:05:36.999Z</time></trkpt><trkpt lat="45.72109776087954" lon="9.412207051087368"><ele>292.0</ele><time>2026-05-01T05:05:37.999Z</time></trkpt><trkpt lat="45.7209598934692" lon="9.412061692238446"><ele>294.0</ele><time>2026-05-01T05:05:38.999Z</time></trkpt><trkpt lat="45.720819818360226" lon="9.411915091045616"><ele>296.0</ele><time>2026-05-01T05:05:40Z</time></trkpt><trkpt lat="45.72067950766035" lon="9.411768768888823"><ele>296.0</ele><time>2026-05-01T05:05:41Z</time></trkpt><trkpt lat="45.72053142471679" lon="9.411621773070028"><ele>296.0</ele><time>2026-05-01T05:05:42Z</time></trkpt><trkpt lat="45.72038467680772" lon="9.411467318721076"><ele>296.0</ele><time>2026-05-01T05:05:43Z</time></trkpt><trkpt lat="45.720231390805466" lon="9.411310205734674"><ele>296.0</ele><time>2026-05-01T05:05:44Z</time></trkpt><trkpt lat="45.720075329753065" lon="9.411152581490208"><ele>296.0</ele><time>2026-05-01T05:05:45Z</time></trkpt><trkpt lat="45.7199142835266" lon="9.410995357142788"><ele>296.0</ele><time>2026-05-01T05:05:46Z</time></trkpt><trkpt lat="45.71976873298651" lon="9.410810418914886"><ele>296.0</ele><time>2026-05-01T05:05:47Z</time></trkpt><trkpt lat="45.71960282226961" lon="9.410667014779817"><ele>296.0</ele><time>2026-05-01T05:05:48Z</time></trkpt><trkpt lat="45.719446059742346" lon="9.410496197100064"><ele>296.0</ele><time>2026-05-01T05:05:49Z</time></trkpt><trkpt lat="45.71929010484433" lon="9.410327029855077"><ele>297.0</ele><time>2026-05-01T05:05:50Z</time></trkpt><trkpt lat="45.719135343777815" lon="9.410159138375292"><ele>298.0</ele><time>2026-05-01T05:05:51Z</time></trkpt><trkpt lat="45.71898056456639" lon="9.409993237157131"><ele>299.0</ele><time>2026-05-01T05:05:52Z</time></trkpt><trkpt lat="45.71882536941886" lon="9.40982617065355"><ele>298.6666666666667</ele><time>2026-05-01T05:05:53Z</time></trkpt><trkpt lat="45.718671986979366" lon="9.409658647165855"><ele>298.3333333333333</ele><time>2026-05-01T05:05:54Z</time></trkpt><trkpt lat="45.71851704771314" lon="9.409494439314908"><ele>298.0</ele><time>2026-05-01T05:05:55Z</time></trkpt><trkpt lat="45.71836444627497" lon="9.409335396899701"><ele>298.0</ele><time>2026-05-01T05:05:56Z</time></trkpt><trkpt lat="45.718215672991384" lon="9.409183322407472"><ele>298.0</ele><time>2026-05-01T05:05:57Z</time></trkpt><trkpt lat="45.718069783699846" lon="9.409036565234008"><ele>298.0</ele><time>2026-05-01T05:05:58Z</time></trkpt><trkpt lat="45.71793486974959" lon="9.408905483631203"><ele>297.75</ele><time>2026-05-01T05:05:59Z</time></trkpt><trkpt lat="45.71780854572231" lon="9.40877654835134"><ele>297.5</ele><time>2026-05-01T05:06:00Z</time></trkpt><trkpt lat="45.71769405794461" lon="9.408658229477968"><ele>297.25</ele><time>2026-05-01T05:06:01Z</time></trkpt><trkpt lat="45.717590935428824" lon="9.408533558359357"><ele>297.0</ele><time>2026-05-01T05:06:02Z</time></trkpt><trkpt lat="45.717510436295306" lon="9.40839124820113"><ele>297.0</ele><time>2026-05-01T05:06:03Z</time></trkpt><trkpt lat="45.717481560276525" lon="9.408235502102427"><ele>297.0</ele><time>2026-05-01T05:06:04Z</time></trkpt><trkpt lat="45.717449876539476" lon="9.408120187176431"><ele>297.0</ele><time>2026-05-01T05:06:05Z</time></trkpt><trkpt lat="45.71739318057386" lon="9.408065318674899"><ele>297.0</ele><time>2026-05-01T05:06:06Z</time></trkpt><trkpt lat="45.71731211560462" lon="9.408081648622986"><ele>297.0</ele><time>2026-05-01T05:06:07Z</time></trkpt><trkpt lat="45.71723038494867" lon="9.408141946560617"><ele>297.0</ele><time>2026-05-01T05:06:08Z</time></trkpt><trkpt lat="45.71713985942885" lon="9.408200240252285"><ele>297.0</ele><time>2026-05-01T05:06:09Z</time></trkpt><trkpt lat="45.71701842033874" lon="9.408195730724863"><ele>297.0</ele><time>2026-05-01T05:06:10Z</time></trkpt><trkpt lat="45.71689049726186" lon="9.408151484605156"><ele>297.0</ele><time>2026-05-01T05:06:11Z</time></trkpt><trkpt lat="45.71675690046144" lon="9.408101006598162"><ele>297.0</ele><time>2026-05-01T05:06:12Z</time></trkpt><trkpt lat="45.716621990521844" lon="9.408048054654087"><ele>297.3333333333333</ele><time>2026-05-01T05:06:13Z</time></trkpt><trkpt lat="45.71648024169029" lon="9.407994135777873"><ele>297.66666666666663</ele><time>2026-05-01T05:06:14Z</time></trkpt><trkpt lat="45.71633211732698" lon="9.407943510324108"><ele>298.0</ele><time>2026-05-01T05:06:15Z</time></trkpt><trkpt lat="45.71617966354306" lon="9.407895614738814"><ele>298.66666666666663</ele><time>2026-05-01T05:06:16Z</time></trkpt><trkpt lat="45.71602173907206" lon="9.40784529606826"><ele>299.3333333333333</ele><time>2026-05-01T05:06:17Z</time></trkpt><trkpt lat="45.71585992110514" lon="9.407792019399315"><ele>300.0</ele><time>2026-05-01T05:06:18Z</time></trkpt><trkpt lat="45.715699841869196" lon="9.407736594366494"><ele>300.0</ele><time>2026-05-01T05:06:19Z</time></trkpt><trkpt lat="45.715538460002286" lon="9.407678610439618"><ele>300.0</ele><time>2026-05-01T05:06:20Z</time></trkpt><trkpt lat="45.71537618718723" lon="9.407617970717457"><ele>300.0</ele><time>2026-05-01T05:06:21Z</time></trkpt><trkpt lat="45.71521270646841" lon="9.407548466039195"><ele>300.3333333333333</ele><time>2026-05-01T05:06:22Z</time></trkpt><trkpt lat="45.715051809251776" lon="9.407470166918179"><ele>300.66666666666663</ele><time>2026-05-01T05:06:23Z</time></trkpt><trkpt lat="45.71488963249531" lon="9.407391311226412"><ele>301.0</ele><time>2026-05-01T05:06:24Z</time></trkpt><trkpt lat="45.71472541362646" lon="9.407313688253746"><ele>301.0</ele><time>2026-05-01T05:06:25Z</time></trkpt><trkpt lat="45.71455934003196" lon="9.407234627462255"><ele>301.0</ele><time>2026-05-01T05:06:26Z</time></trkpt><trkpt lat="45.71439246116801" lon="9.407151945154837"><ele>301.0</ele><time>2026-05-01T05:06:27Z</time></trkpt><trkpt lat="45.71422420637191" lon="9.407069481776208"><ele>300.66666666666663</ele><time>2026-05-01T05:06:28Z</time></trkpt><trkpt lat="45.714053491065016" lon="9.406985921525783"><ele>300.3333333333333</ele><time>2026-05-01T05:06:29Z</time></trkpt><trkpt lat="45.71388185040143" lon="9.406900250102487"><ele>300.0</ele><time>2026-05-01T05:06:30Z</time></trkpt><trkpt lat="45.713711787348764" lon="9.406815551277093"><ele>301.0</ele><time>2026-05-01T05:06:31Z</time></trkpt><trkpt lat="45.71353841605284" lon="9.406728944461898"><ele>302.0</ele><time>2026-05-01T05:06:32Z</time></trkpt><trkpt lat="45.71336658544466" lon="9.406639844954121"><ele>303.0</ele><time>2026-05-01T05:06:33Z</time></trkpt><trkpt lat="45.71319287392655" lon="9.406550713295134"><ele>303.0</ele><time>2026-05-01T05:06:34Z</time></trkpt><trkpt lat="45.713019793678484" lon="9.40646701875064"><ele>303.0</ele><time>2026-05-01T05:06:35Z</time></trkpt><trkpt lat="45.71284668717171" lon="9.406382589952301"><ele>303.0</ele><time>2026-05-01T05:06:36Z</time></trkpt><trkpt lat="45.71267584704289" lon="9.406303305514962"><ele>302.3333333333333</ele><time>2026-05-01T05:06:37Z</time></trkpt><trkpt lat="45.71250294240829" lon="9.406234325596783"><ele>301.66666666666663</ele><time>2026-05-01T05:06:38Z</time></trkpt><trkpt lat="45.71233022278448" lon="9.406180736220483"><ele>301.0</ele><time>2026-05-01T05:06:39Z</time></trkpt><trkpt lat="45.712160103527545" lon="9.406150139633008"><ele>301.0</ele><time>2026-05-01T05:06:40Z</time></trkpt><trkpt lat="45.71198713616233" lon="9.406112556282737"><ele>301.0</ele><time>2026-05-01T05:06:41Z</time></trkpt><trkpt lat="45.71181789288556" lon="9.406135792518365"><ele>301.0</ele><time>2026-05-01T05:06:42Z</time></trkpt><trkpt lat="45.71164995648311" lon="9.406142859876587"><ele>301.75</ele><time>2026-05-01T05:06:43Z</time></trkpt><trkpt lat="45.711489807683336" lon="9.406145643718066"><ele>302.5</ele><time>2026-05-01T05:06:44Z</time></trkpt><trkpt lat="45.7113449731218" lon="9.40612977377856"><ele>303.25</ele><time>2026-05-01T05:06:45Z</time></trkpt><trkpt lat="45.71120991562691" lon="9.406103379010254"><ele>304.0</ele><time>2026-05-01T05:06:46Z</time></trkpt><trkpt lat="45.71108851903843" lon="9.406124487692557"><ele>305.25</ele><time>2026-05-01T05:06:47Z</time></trkpt><trkpt lat="45.710983281301225" lon="9.40620597856735"><ele>306.5</ele><time>2026-05-01T05:06:48Z</time></trkpt><trkpt lat="45.71089019161039" lon="9.406331693050156"><ele>307.75</ele><time>2026-05-01T05:06:48.999Z</time></trkpt><trkpt lat="45.71078521903013" lon="9.406440323505459"><ele>309.0</ele><time>2026-05-01T05:06:49.999Z</time></trkpt><trkpt lat="45.71065846970434" lon="9.406534242310356"><ele>309.0</ele><time>2026-05-01T05:06:50.999Z</time></trkpt><trkpt lat="45.71052930563616" lon="9.406632519659874"><ele>309.0</ele><time>2026-05-01T05:06:51.999Z</time></trkpt><trkpt lat="45.71039282638099" lon="9.406730408528889"><ele>309.0</ele><time>2026-05-01T05:06:52.999Z</time></trkpt><trkpt lat="45.71025234734805" lon="9.406832888518165"><ele>309.3333333333333</ele><time>2026-05-01T05:06:53.999Z</time></trkpt><trkpt lat="45.710117410466594" lon="9.406950007637272"><ele>309.66666666666663</ele><time>2026-05-01T05:06:54.999Z</time></trkpt><trkpt lat="45.70997068059608" lon="9.407064776480809"><ele>310.0</ele><time>2026-05-01T05:06:55.999Z</time></trkpt><trkpt lat="45.70982596505116" lon="9.407180131829147"><ele>310.0</ele><time>2026-05-01T05:06:56.999Z</time></trkpt><trkpt lat="45.70967790553682" lon="9.407296410901779"><ele>310.0</ele><time>2026-05-01T05:06:57.999Z</time></trkpt><trkpt lat="45.70952935179803" lon="9.407412865297514"><ele>310.0</ele><time>2026-05-01T05:06:58.999Z</time></trkpt><trkpt lat="45.70938378918561" lon="9.407530931840597"><ele>309.0</ele><time>2026-05-01T05:06:59.999Z</time></trkpt><trkpt lat="45.70923588956073" lon="9.407652624025166"><ele>308.0</ele><time>2026-05-01T05:07:00.999Z</time></trkpt><trkpt lat="45.709087856139575" lon="9.40777577724092"><ele>307.0</ele><time>2026-05-01T05:07:01.999Z</time></trkpt><trkpt lat="45.70893589680967" lon="9.407901337262485"><ele>306.66666666666663</ele><time>2026-05-01T05:07:02.999Z</time></trkpt><trkpt lat="45.70878518814948" lon="9.408036802569617"><ele>306.3333333333333</ele><time>2026-05-01T05:07:03.999Z</time></trkpt><trkpt lat="45.70862130306063" lon="9.408151257511486"><ele>306.0</ele><time>2026-05-01T05:07:04.999Z</time></trkpt><trkpt lat="45.70847117707758" lon="9.408307267476436"><ele>305.6666666666667</ele><time>2026-05-01T05:07:05.999Z</time></trkpt><trkpt lat="45.708307333328634" lon="9.408433811919961"><ele>305.33333333333337</ele><time>2026-05-01T05:07:06.999Z</time></trkpt><trkpt lat="45.70814381645828" lon="9.408553221326152"><ele>305.0</ele><time>2026-05-01T05:07:07.999Z</time></trkpt><trkpt lat="45.7079803443499" lon="9.408676744199235"><ele>305.0</ele><time>2026-05-01T05:07:08.999Z</time></trkpt><trkpt lat="45.70782684143509" lon="9.40880101971018"><ele>305.0</ele><time>2026-05-01T05:07:09.999Z</time></trkpt><trkpt lat="45.707684205470024" lon="9.408917498805442"><ele>305.0</ele><time>2026-05-01T05:07:10.999Z</time></trkpt><trkpt lat="45.70754323199177" lon="9.409024676308054"><ele>304.0</ele><time>2026-05-01T05:07:11.999Z</time></trkpt><trkpt lat="45.70740938397985" lon="9.409131373012489"><ele>303.0</ele><time>2026-05-01T05:07:12.999Z</time></trkpt><trkpt lat="45.70727713205223" lon="9.409230623240227"><ele>302.0</ele><time>2026-05-01T05:07:13.999Z</time></trkpt><trkpt lat="45.70715236839101" lon="9.409325777228352"><ele>301.0</ele><time>2026-05-01T05:07:14.999Z</time></trkpt><trkpt lat="45.70703362352272" lon="9.409423162676912"><ele>301.0</ele><time>2026-05-01T05:07:15.999Z</time></trkpt><trkpt lat="45.706924331507516" lon="9.409513792913407"><ele>301.0</ele><time>2026-05-01T05:07:16.999Z</time></trkpt><trkpt lat="45.70682066603143" lon="9.409604532801774"><ele>301.0</ele><time>2026-05-01T05:07:17.999Z</time></trkpt><trkpt lat="45.70672787394919" lon="9.409685240537208"><ele>301.0</ele><time>2026-05-01T05:07:18.999Z</time></trkpt><trkpt lat="45.70664024539284" lon="9.409761599890704"><ele>300.6</ele><time>2026-05-01T05:07:19.999Z</time></trkpt><trkpt lat="45.70655791130154" lon="9.409828402769651"><ele>300.20000000000005</ele><time>2026-05-01T05:07:20.999Z</time></trkpt><trkpt lat="45.706475983733796" lon="9.409889469113416"><ele>299.79999999999995</ele><time>2026-05-01T05:07:21.999Z</time></trkpt><trkpt lat="45.70639359858679" lon="9.409946811799331"><ele>299.4</ele><time>2026-05-01T05:07:22.999Z</time></trkpt><trkpt lat="45.70630424304462" lon="9.410014318724125"><ele>299.0</ele><time>2026-05-01T05:07:23.999Z</time></trkpt><trkpt lat="45.70620921456129" lon="9.410094663777214"><ele>299.0</ele><time>2026-05-01T05:07:24.999Z</time></trkpt><trkpt lat="45.70610569520645" lon="9.410179351359146"><ele>299.0</ele><time>2026-05-01T05:07:25.999Z</time></trkpt><trkpt lat="45.705995761045116" lon="9.410269487367882"><ele>299.0</ele><time>2026-05-01T05:07:26.999Z</time></trkpt><trkpt lat="45.70587902180668" lon="9.410364262249981"><ele>299.0</ele><time>2026-05-01T05:07:27.999Z</time></trkpt><trkpt lat="45.70575552034469" lon="9.41046476880688"><ele>297.6666666666667</ele><time>2026-05-01T05:07:28.999Z</time></trkpt><trkpt lat="45.705626246733566" lon="9.410568624129214"><ele>296.3333333333333</ele><time>2026-05-01T05:07:29.999Z</time></trkpt><trkpt lat="45.70549244551063" lon="9.410679947947086"><ele>295.0</ele><time>2026-05-01T05:07:30.999Z</time></trkpt><trkpt lat="45.70535535628627" lon="9.410791750670274"><ele>293.3333333333333</ele><time>2026-05-01T05:07:31.999Z</time></trkpt><trkpt lat="45.7052195524043" lon="9.410902264333597"><ele>291.6666666666667</ele><time>2026-05-01T05:07:32.999Z</time></trkpt><trkpt lat="45.70508572558677" lon="9.411006967232714"><ele>290.0</ele><time>2026-05-01T05:07:33.999Z</time></trkpt><trkpt lat="45.70495698357209" lon="9.41110570210194"><ele>290.0</ele><time>2026-05-01T05:07:34.999Z</time></trkpt><trkpt lat="45.704829749707706" lon="9.411197695302679"><ele>290.0</ele><time>2026-05-01T05:07:35.999Z</time></trkpt><trkpt lat="45.70470012430237" lon="9.411279534731467"><ele>290.0</ele><time>2026-05-01T05:07:36.999Z</time></trkpt><trkpt lat="45.70456615008408" lon="9.411351783989728"><ele>290.0</ele><time>2026-05-01T05:07:37.999Z</time></trkpt><trkpt lat="45.70443001264093" lon="9.411415920190413"><ele>289.25</ele><time>2026-05-01T05:07:38.999Z</time></trkpt><trkpt lat="45.7042901810232" lon="9.411468338297853"><ele>288.5</ele><time>2026-05-01T05:07:39.999Z</time></trkpt><trkpt lat="45.704144029852976" lon="9.411506277157086"><ele>287.75</ele><time>2026-05-01T05:07:40.999Z</time></trkpt><trkpt lat="45.70399000000936" lon="9.411530251406823"><ele>287.0</ele><time>2026-05-01T05:07:41.999Z</time></trkpt><trkpt lat="45.703833307325496" lon="9.411544015497961"><ele>287.0</ele><time>2026-05-01T05:07:42.999Z</time></trkpt><trkpt lat="45.703669604123306" lon="9.411540092033535"><ele>287.0</ele><time>2026-05-01T05:07:43.999Z</time></trkpt><trkpt lat="45.70350296008576" lon="9.411513702171545"><ele>287.0</ele><time>2026-05-01T05:07:44.999Z</time></trkpt><trkpt lat="45.70333294853747" lon="9.411464802348092"><ele>288.0</ele><time>2026-05-01T05:07:46Z</time></trkpt><trkpt lat="45.70315770850562" lon="9.411398162797443"><ele>289.0</ele><time>2026-05-01T05:07:47Z</time></trkpt><trkpt lat="45.702980408708754" lon="9.41131797488915"><ele>290.0</ele><time>2026-05-01T05:07:48Z</time></trkpt><trkpt lat="45.70280250566825" lon="9.411231730391677"><ele>289.33333333333337</ele><time>2026-05-01T05:07:49Z</time></trkpt><trkpt lat="45.70262467785804" lon="9.411146090564008"><ele>288.6666666666667</ele><time>2026-05-01T05:07:50Z</time></trkpt><trkpt lat="45.70244623579669" lon="9.41105929365633"><ele>288.0</ele><time>2026-05-01T05:07:51Z</time></trkpt><trkpt lat="45.70226933888076" lon="9.410968645160954"><ele>288.0</ele><time>2026-05-01T05:07:52Z</time></trkpt><trkpt lat="45.702091455207906" lon="9.410873073338367"><ele>288.0</ele><time>2026-05-01T05:07:53Z</time></trkpt><trkpt lat="45.70192018013238" lon="9.410757514824239"><ele>288.0</ele><time>2026-05-01T05:07:54Z</time></trkpt><trkpt lat="45.70175416619728" lon="9.410625717888097"><ele>286.3333333333333</ele><time>2026-05-01T05:07:55Z</time></trkpt><trkpt lat="45.70159567068958" lon="9.410475421592947"><ele>284.66666666666663</ele><time>2026-05-01T05:07:56Z</time></trkpt><trkpt lat="45.70144191997056" lon="9.41031588294133"><ele>283.0</ele><time>2026-05-01T05:07:57Z</time></trkpt><trkpt lat="45.701292615328725" lon="9.410148288483315"><ele>283.0</ele><time>2026-05-01T05:07:58Z</time></trkpt><trkpt lat="45.701147952871274" lon="9.409972788165856"><ele>283.0</ele><time>2026-05-01T05:07:59Z</time></trkpt><trkpt lat="45.70100183672554" lon="9.409799033120704"><ele>283.0</ele><time>2026-05-01T05:08:00Z</time></trkpt><trkpt lat="45.70085515392472" lon="9.409624899054469"><ele>283.66666666666663</ele><time>2026-05-01T05:08:01Z</time></trkpt><trkpt lat="45.70070791970683" lon="9.409450501658336"><ele>284.3333333333333</ele><time>2026-05-01T05:08:02Z</time></trkpt><trkpt lat="45.70056076800682" lon="9.409277389051285"><ele>285.0</ele><time>2026-05-01T05:08:03Z</time></trkpt><trkpt lat="45.700412666125565" lon="9.409107698939234"><ele>285.0</ele><time>2026-05-01T05:08:04Z</time></trkpt><trkpt lat="45.70026732876493" lon="9.408934611644321"><ele>285.0</ele><time>2026-05-01T05:08:05Z</time></trkpt><trkpt lat="45.70012458423806" lon="9.40876248339454"><ele>285.0</ele><time>2026-05-01T05:08:06Z</time></trkpt><trkpt lat="45.69998411718739" lon="9.40858416829121"><ele>285.6666666666667</ele><time>2026-05-01T05:08:07Z</time></trkpt><trkpt lat="45.69984729674847" lon="9.408400598947841"><ele>286.33333333333337</ele><time>2026-05-01T05:08:08Z</time></trkpt><trkpt lat="45.699714123573486" lon="9.408217024101186"><ele>287.0</ele><time>2026-05-01T05:08:09Z</time></trkpt><trkpt lat="45.69958290528698" lon="9.408036892000277"><ele>286.0</ele><time>2026-05-01T05:08:10Z</time></trkpt><trkpt lat="45.699452783564055" lon="9.40785735419931"><ele>285.0</ele><time>2026-05-01T05:08:11Z</time></trkpt><trkpt lat="45.69932521060052" lon="9.407677543222784"><ele>284.0</ele><time>2026-05-01T05:08:12Z</time></trkpt><trkpt lat="45.699199983167674" lon="9.407501279538247"><ele>284.0</ele><time>2026-05-01T05:08:13Z</time></trkpt><trkpt lat="45.699074120419056" lon="9.407330485683715"><ele>284.0</ele><time>2026-05-01T05:08:14Z</time></trkpt><trkpt lat="45.698947197397324" lon="9.407167810218935"><ele>284.0</ele><time>2026-05-01T05:08:15Z</time></trkpt><trkpt lat="45.698826298803034" lon="9.407005064505242"><ele>283.0</ele><time>2026-05-01T05:08:16Z</time></trkpt><trkpt lat="45.6987125393318" lon="9.40684034000039"><ele>282.0</ele><time>2026-05-01T05:08:17Z</time></trkpt><trkpt lat="45.69859860988449" lon="9.406676543018628"><ele>281.0</ele><time>2026-05-01T05:08:18Z</time></trkpt><trkpt lat="45.69847446203359" lon="9.406525202518193"><ele>280.6666666666667</ele><time>2026-05-01T05:08:19Z</time></trkpt><trkpt lat="45.69832840041768" lon="9.406404464624623"><ele>280.3333333333333</ele><time>2026-05-01T05:08:20Z</time></trkpt><trkpt lat="45.69817235454519" lon="9.406291558025153"><ele>280.0</ele><time>2026-05-01T05:08:21Z</time></trkpt><trkpt lat="45.6980180938125" lon="9.40616626164444"><ele>279.3333333333333</ele><time>2026-05-01T05:08:22Z</time></trkpt><trkpt lat="45.697868030340295" lon="9.406022783590107"><ele>278.6666666666667</ele><time>2026-05-01T05:08:23Z</time></trkpt><trkpt lat="45.69771731551499" lon="9.405864750754962"><ele>278.0</ele><time>2026-05-01T05:08:24Z</time></trkpt><trkpt lat="45.69756220752922" lon="9.405702858558382"><ele>277.6666666666667</ele><time>2026-05-01T05:08:25Z</time></trkpt><trkpt lat="45.69740735124477" lon="9.405533984200519"><ele>277.3333333333333</ele><time>2026-05-01T05:08:26Z</time></trkpt><trkpt lat="45.69724972164791" lon="9.405363470187366"><ele>277.0</ele><time>2026-05-01T05:08:27Z</time></trkpt><trkpt lat="45.69708899839492" lon="9.4051910833644"><ele>277.0</ele><time>2026-05-01T05:08:28Z</time></trkpt><trkpt lat="45.69692966778251" lon="9.405026865118653"><ele>277.0</ele><time>2026-05-01T05:08:29Z</time></trkpt><trkpt lat="45.6967579113423" lon="9.40485604744315"><ele>277.0</ele><time>2026-05-01T05:08:30Z</time></trkpt><trkpt lat="45.69658192964408" lon="9.404696051867809"><ele>276.66666666666663</ele><time>2026-05-01T05:08:31Z</time></trkpt><trkpt lat="45.69641375735979" lon="9.404527791022467"><ele>276.3333333333333</ele><time>2026-05-01T05:08:32Z</time></trkpt><trkpt lat="45.69624508486479" lon="9.40436239672482"><ele>276.0</ele><time>2026-05-01T05:08:33Z</time></trkpt><trkpt lat="45.6960741761427" lon="9.404195972709218"><ele>275.3333333333333</ele><time>2026-05-01T05:08:34Z</time></trkpt><trkpt lat="45.69590731985505" lon="9.404024792352445"><ele>274.66666666666663</ele><time>2026-05-01T05:08:35Z</time></trkpt><trkpt lat="45.69574232055242" lon="9.403857959382165"><ele>274.0</ele><time>2026-05-01T05:08:36Z</time></trkpt><trkpt lat="45.69558014911639" lon="9.403684005897928"><ele>274.0</ele><time>2026-05-01T05:08:37Z</time></trkpt><trkpt lat="45.69541943162541" lon="9.40351827104157"><ele>274.0</ele><time>2026-05-01T05:08:38Z</time></trkpt><trkpt lat="45.695257207060585" lon="9.403354104310374"><ele>274.0</ele><time>2026-05-01T05:08:39Z</time></trkpt><trkpt lat="45.69509592687034" lon="9.403188665658364"><ele>274.0</ele><time>2026-05-01T05:08:40Z</time></trkpt><trkpt lat="45.69493643611955" lon="9.403022648692884"><ele>274.0</ele><time>2026-05-01T05:08:41Z</time></trkpt><trkpt lat="45.69477953192578" lon="9.402859728498239"><ele>274.0</ele><time>2026-05-01T05:08:42Z</time></trkpt><trkpt lat="45.69462521193871" lon="9.402686420560716"><ele>274.0</ele><time>2026-05-01T05:08:43Z</time></trkpt><trkpt lat="45.69446979410726" lon="9.402524645859978"><ele>274.0</ele><time>2026-05-01T05:08:44Z</time></trkpt><trkpt lat="45.69431318519527" lon="9.40237675314479"><ele>274.0</ele><time>2026-05-01T05:08:45Z</time></trkpt><trkpt lat="45.69416264426038" lon="9.402231899431744"><ele>272.3333333333333</ele><time>2026-05-01T05:08:46Z</time></trkpt><trkpt lat="45.69399386325487" lon="9.402133987369982"><ele>270.6666666666667</ele><time>2026-05-01T05:08:47Z</time></trkpt><trkpt lat="45.69382317203168" lon="9.402092545570316"><ele>269.0</ele><time>2026-05-01T05:08:48Z</time></trkpt><trkpt lat="45.69364369584106" lon="9.40210487833786"><ele>269.0</ele><time>2026-05-01T05:08:49Z</time></trkpt><trkpt lat="45.69345936523035" lon="9.402141807406387"><ele>269.0</ele><time>2026-05-01T05:08:50Z</time></trkpt><trkpt lat="45.693271510539404" lon="9.402180481170893"><ele>269.0</ele><time>2026-05-01T05:08:51Z</time></trkpt><trkpt lat="45.69308386277045" lon="9.402196981693201"><ele>269.0</ele><time>2026-05-01T05:08:52Z</time></trkpt><trkpt lat="45.69288865938289" lon="9.402175115032241"><ele>269.0</ele><time>2026-05-01T05:08:52.999Z</time></trkpt><trkpt lat="45.69269501527293" lon="9.402124715206837"><ele>269.0</ele><time>2026-05-01T05:08:53.999Z</time></trkpt><trkpt lat="45.69250229465752" lon="9.40205019296646"><ele>269.0</ele><time>2026-05-01T05:08:54.999Z</time></trkpt><trkpt lat="45.692315463628766" lon="9.40194932218898"><ele>269.0</ele><time>2026-05-01T05:08:55.999Z</time></trkpt><trkpt lat="45.69212666103715" lon="9.401845506026303"><ele>269.0</ele><time>2026-05-01T05:08:56.999Z</time></trkpt><trkpt lat="45.69192917879669" lon="9.401745658009064"><ele>268.6666666666667</ele><time>2026-05-01T05:08:57.999Z</time></trkpt><trkpt lat="45.69173040040999" lon="9.401644839893143"><ele>268.3333333333333</ele><time>2026-05-01T05:08:58.999Z</time></trkpt><trkpt lat="45.69153433306397" lon="9.401543216085763"><ele>268.0</ele><time>2026-05-01T05:08:59.999Z</time></trkpt><trkpt lat="45.691334225046845" lon="9.401446325865665"><ele>268.0</ele><time>2026-05-01T05:09:00.999Z</time></trkpt><trkpt lat="45.691132140937505" lon="9.401348386474314"><ele>268.0</ele><time>2026-05-01T05:09:01.999Z</time></trkpt><trkpt lat="45.69093179443367" lon="9.401250375068571"><ele>268.0</ele><time>2026-05-01T05:09:02.999Z</time></trkpt><trkpt lat="45.690730884106245" lon="9.40114733756117"><ele>267.0</ele><time>2026-05-01T05:09:03.999Z</time></trkpt><trkpt lat="45.690530165855556" lon="9.401044653497813"><ele>266.0</ele><time>2026-05-01T05:09:04.999Z</time></trkpt><trkpt lat="45.69033386885143" lon="9.400943992663912"><ele>265.0</ele><time>2026-05-01T05:09:05.999Z</time></trkpt><trkpt lat="45.69014134722947" lon="9.400851444839313"><ele>264.0</ele><time>2026-05-01T05:09:06.999Z</time></trkpt><trkpt lat="45.68995488651924" lon="9.400760320278165"><ele>263.0</ele><time>2026-05-01T05:09:07.999Z</time></trkpt><trkpt lat="45.68977783396315" lon="9.400671610431331"><ele>262.0</ele><time>2026-05-01T05:09:08.999Z</time></trkpt><trkpt lat="45.68960635121321" lon="9.400591067987818"><ele>262.0</ele><time>2026-05-01T05:09:09.999Z</time></trkpt><trkpt lat="45.68944266124108" lon="9.400517116375283"><ele>262.0</ele><time>2026-05-01T05:09:10.999Z</time></trkpt><trkpt lat="45.68928424548062" lon="9.40044529214178"><ele>262.0</ele><time>2026-05-01T05:09:11.999Z</time></trkpt><trkpt lat="45.68913652422877" lon="9.400376259841575"><ele>262.25</ele><time>2026-05-01T05:09:12.999Z</time></trkpt><trkpt lat="45.68900279945128" lon="9.400300865380785"><ele>262.5</ele><time>2026-05-01T05:09:13.999Z</time></trkpt><trkpt lat="45.68887782403096" lon="9.400213216088083"><ele>262.75</ele><time>2026-05-01T05:09:14.999Z</time></trkpt><trkpt lat="45.688771388105664" lon="9.400103144341047"><ele>263.0</ele><time>2026-05-01T05:09:15.999Z</time></trkpt><trkpt lat="45.68866887569962" lon="9.400002957290715"><ele>262.75</ele><time>2026-05-01T05:09:16.999Z</time></trkpt><trkpt lat="45.68853966666986" lon="9.399967649478565"><ele>262.5</ele><time>2026-05-01T05:09:17.999Z</time></trkpt><trkpt lat="45.68840153080718" lon="9.400006284577122"><ele>262.25</ele><time>2026-05-01T05:09:18.999Z</time></trkpt><trkpt lat="45.68825188746232" lon="9.400039345070391"><ele>262.0</ele><time>2026-05-01T05:09:19.999Z</time></trkpt><trkpt lat="45.68809207318321" lon="9.400018240652651"><ele>262.0</ele><time>2026-05-01T05:09:20.999Z</time></trkpt><trkpt lat="45.6879254991674" lon="9.399972733037794"><ele>262.0</ele><time>2026-05-01T05:09:21.999Z</time></trkpt><trkpt lat="45.68774929626305" lon="9.399916980759672"><ele>262.0</ele><time>2026-05-01T05:09:22.999Z</time></trkpt><trkpt lat="45.687572866779114" lon="9.399856284693843"><ele>260.66666666666663</ele><time>2026-05-01T05:09:23.999Z</time></trkpt><trkpt lat="45.68739553356184" lon="9.399793767406168"><ele>259.3333333333333</ele><time>2026-05-01T05:09:24.999Z</time></trkpt><trkpt lat="45.6872132110009" lon="9.39972803043709"><ele>258.0</ele><time>2026-05-01T05:09:25.999Z</time></trkpt><trkpt lat="45.687029111045895" lon="9.399663208717804"><ele>257.6666666666667</ele><time>2026-05-01T05:09:26.999Z</time></trkpt><trkpt lat="45.68684030430282" lon="9.399597021824654"><ele>257.33333333333337</ele><time>2026-05-01T05:09:27.999Z</time></trkpt><trkpt lat="45.68664945586023" lon="9.399530193988788"><ele>257.0</ele><time>2026-05-01T05:09:28.999Z</time></trkpt><trkpt lat="45.68645691232187" lon="9.39946249715143"><ele>257.0</ele><time>2026-05-01T05:09:29.999Z</time></trkpt><trkpt lat="45.68626668060731" lon="9.399394980305892"><ele>257.0</ele><time>2026-05-01T05:09:30.999Z</time></trkpt><trkpt lat="45.68607690635806" lon="9.399326452409882"><ele>257.0</ele><time>2026-05-01T05:09:31.999Z</time></trkpt><trkpt lat="45.685886051748405" lon="9.399256490458582"><ele>255.66666666666669</ele><time>2026-05-01T05:09:32.999Z</time></trkpt><trkpt lat="45.68569657184935" lon="9.399186022175373"><ele>254.33333333333331</ele><time>2026-05-01T05:09:33.999Z</time></trkpt><trkpt lat="45.68550553085849" lon="9.399117401472669"><ele>253.0</ele><time>2026-05-01T05:09:34.999Z</time></trkpt><trkpt lat="45.68531409849332" lon="9.399050564422668"><ele>254.0</ele><time>2026-05-01T05:09:35.999Z</time></trkpt><trkpt lat="45.68512063533162" lon="9.398985959157498"><ele>255.0</ele><time>2026-05-01T05:09:36.999Z</time></trkpt><trkpt lat="45.68492754678842" lon="9.398922700384036"><ele>256.0</ele><time>2026-05-01T05:09:37.999Z</time></trkpt><trkpt lat="45.684730418993496" lon="9.398855866880092"><ele>255.33333333333331</ele><time>2026-05-01T05:09:38.999Z</time></trkpt><trkpt lat="45.684544683289815" lon="9.398756206743458"><ele>254.66666666666669</ele><time>2026-05-01T05:09:39.999Z</time></trkpt><trkpt lat="45.68435350585436" lon="9.398688655616608"><ele>254.0</ele><time>2026-05-01T05:09:40.999Z</time></trkpt><trkpt lat="45.68416744053697" lon="9.398622400495807"><ele>253.66666666666669</ele><time>2026-05-01T05:09:41.999Z</time></trkpt><trkpt lat="45.683995654874124" lon="9.398561230136956"><ele>253.33333333333331</ele><time>2026-05-01T05:09:42.999Z</time></trkpt><trkpt lat="45.6838340055447" lon="9.398503669213586"><ele>253.0</ele><time>2026-05-01T05:09:43.999Z</time></trkpt><trkpt lat="45.68368124107876" lon="9.398470718007266"><ele>253.0</ele><time>2026-05-01T05:09:44.999Z</time></trkpt><trkpt lat="45.6835423396515" lon="9.398415329933632"><ele>253.0</ele><time>2026-05-01T05:09:45.999Z</time></trkpt><trkpt lat="45.68341395679331" lon="9.398370978930526"><ele>253.0</ele><time>2026-05-01T05:09:46.999Z</time></trkpt><trkpt lat="45.68329142096535" lon="9.398332619647217"><ele>253.0</ele><time>2026-05-01T05:09:47.999Z</time></trkpt><trkpt lat="45.683176843882265" lon="9.398297997376051"><ele>253.0</ele><time>2026-05-01T05:09:48.999Z</time></trkpt><trkpt lat="45.683064925293245" lon="9.398266227522218"><ele>253.0</ele><time>2026-05-01T05:09:49.999Z</time></trkpt><trkpt lat="45.68296066395553" lon="9.398233478631047"><ele>253.0</ele><time>2026-05-01T05:09:50.999Z</time></trkpt><trkpt lat="45.682862237275096" lon="9.398197445301207"><ele>253.0</ele><time>2026-05-01T05:09:52Z</time></trkpt><trkpt lat="45.68276006777129" lon="9.398157411105174"><ele>253.0</ele><time>2026-05-01T05:09:53Z</time></trkpt><trkpt lat="45.68264691202366" lon="9.398115154003118"><ele>253.75</ele><time>2026-05-01T05:09:54Z</time></trkpt><trkpt lat="45.682524371266474" lon="9.39807027300093"><ele>254.5</ele><time>2026-05-01T05:09:55Z</time></trkpt><trkpt lat="45.682398156951145" lon="9.39799755795622"><ele>255.25</ele><time>2026-05-01T05:09:56Z</time></trkpt><trkpt lat="45.68225885306233" lon="9.397962682710144"><ele>256.0</ele><time>2026-05-01T05:09:57Z</time></trkpt><trkpt lat="45.68211717394979" lon="9.397906097357437"><ele>256.3333333333333</ele><time>2026-05-01T05:09:58Z</time></trkpt><trkpt lat="45.68197428392331" lon="9.397829098827803"><ele>256.6666666666667</ele><time>2026-05-01T05:09:59Z</time></trkpt><trkpt lat="45.68182246255157" lon="9.397774034377909"><ele>257.0</ele><time>2026-05-01T05:10:00Z</time></trkpt><trkpt lat="45.681668685749266" lon="9.3977183955954"><ele>256.33333333333337</ele><time>2026-05-01T05:10:01Z</time></trkpt><trkpt lat="45.68151031065483" lon="9.397661431747695"><ele>255.66666666666669</ele><time>2026-05-01T05:10:02Z</time></trkpt><trkpt lat="45.6813483650136" lon="9.397603326201327"><ele>255.0</ele><time>2026-05-01T05:10:03Z</time></trkpt><trkpt lat="45.68118580708695" lon="9.397545000092515"><ele>254.66666666666669</ele><time>2026-05-01T05:10:04Z</time></trkpt><trkpt lat="45.68102450773614" lon="9.397486912248239"><ele>254.33333333333334</ele><time>2026-05-01T05:10:05Z</time></trkpt><trkpt lat="45.68086198100043" lon="9.397428431035639"><ele>254.0</ele><time>2026-05-01T05:10:06Z</time></trkpt><trkpt lat="45.68070513055731" lon="9.397371632478071"><ele>254.0</ele><time>2026-05-01T05:10:07Z</time></trkpt><trkpt lat="45.68055045426428" lon="9.397313777402031"><ele>254.0</ele><time>2026-05-01T05:10:08Z</time></trkpt><trkpt lat="45.68040913922911" lon="9.397259692925426"><ele>254.0</ele><time>2026-05-01T05:10:09Z</time></trkpt><trkpt lat="45.68027844795113" lon="9.397224025050468"><ele>254.0</ele><time>2026-05-01T05:10:10Z</time></trkpt><trkpt lat="45.68016998047914" lon="9.397159591881143"><ele>253.6</ele><time>2026-05-01T05:10:11Z</time></trkpt><trkpt lat="45.680069453973125" lon="9.397101463929676"><ele>253.2</ele><time>2026-05-01T05:10:12Z</time></trkpt><trkpt lat="45.67997935727984" lon="9.397056533700011"><ele>252.79999999999998</ele><time>2026-05-01T05:10:13Z</time></trkpt><trkpt lat="45.679896940211236" lon="9.397017153620341"><ele>252.39999999999998</ele><time>2026-05-01T05:10:14Z</time></trkpt><trkpt lat="45.679823033368706" lon="9.39696673283444"><ele>252.0</ele><time>2026-05-01T05:10:15Z</time></trkpt><trkpt lat="45.67975773655313" lon="9.396900467018211"><ele>252.0</ele><time>2026-05-01T05:10:16Z</time></trkpt><trkpt lat="45.6796916375139" lon="9.396824898861334"><ele>252.0</ele><time>2026-05-01T05:10:17Z</time></trkpt><trkpt lat="45.67962099639886" lon="9.396752623431372"><ele>252.0</ele><time>2026-05-01T05:10:18Z</time></trkpt><trkpt lat="45.67954696732801" lon="9.396696210945922"><ele>252.0</ele><time>2026-05-01T05:10:19Z</time></trkpt><trkpt lat="45.679457539764414" lon="9.396685886019913"><ele>252.0</ele><time>2026-05-01T05:10:20Z</time></trkpt><trkpt lat="45.67936125542649" lon="9.39672439936854"><ele>252.0</ele><time>2026-05-01T05:10:21Z</time></trkpt><trkpt lat="45.67925865321793" lon="9.396775340666302"><ele>251.5</ele><time>2026-05-01T05:10:22Z</time></trkpt><trkpt lat="45.67914773864725" lon="9.396800447791827"><ele>251.0</ele><time>2026-05-01T05:10:23Z</time></trkpt><trkpt lat="45.679030154382794" lon="9.396791146073042"><ele>250.5</ele><time>2026-05-01T05:10:24Z</time></trkpt><trkpt lat="45.67891711194852" lon="9.3967253372464"><ele>250.0</ele><time>2026-05-01T05:10:25Z</time></trkpt><trkpt lat="45.67879076219541" lon="9.396681814020228"><ele>250.0</ele><time>2026-05-01T05:10:26Z</time></trkpt><trkpt lat="45.678655804771836" lon="9.396659083612352"><ele>250.0</ele><time>2026-05-01T05:10:27Z</time></trkpt><trkpt lat="45.678514823521006" lon="9.39660982702714"><ele>250.0</ele><time>2026-05-01T05:10:28Z</time></trkpt><trkpt lat="45.67836649357536" lon="9.396532868534726"><ele>250.0</ele><time>2026-05-01T05:10:29Z</time></trkpt><trkpt lat="45.678205213403935" lon="9.3964746196001"><ele>249.66666666666666</ele><time>2026-05-01T05:10:30Z</time></trkpt><trkpt lat="45.67803384292378" lon="9.396412603699037"><ele>249.33333333333331</ele><time>2026-05-01T05:10:31Z</time></trkpt><trkpt lat="45.67783967077862" lon="9.396365066836948"><ele>249.0</ele><time>2026-05-01T05:10:32Z</time></trkpt><trkpt lat="45.67764356181245" lon="9.396280287026151"><ele>249.0</ele><time>2026-05-01T05:10:33Z</time></trkpt><trkpt lat="45.67744633859573" lon="9.3962014683912"><ele>249.0</ele><time>2026-05-01T05:10:34Z</time></trkpt><trkpt lat="45.677247830662644" lon="9.396129032617646"><ele>249.0</ele><time>2026-05-01T05:10:35Z</time></trkpt><trkpt lat="45.67704287197162" lon="9.396057447796462"><ele>249.0</ele><time>2026-05-01T05:10:36Z</time></trkpt><trkpt lat="45.67683826271376" lon="9.395985072665155"><ele>249.0</ele><time>2026-05-01T05:10:37Z</time></trkpt><trkpt lat="45.67663372275994" lon="9.395910610930095"><ele>249.0</ele><time>2026-05-01T05:10:38Z</time></trkpt><trkpt lat="45.67642814742379" lon="9.395833636810789"><ele>249.0</ele><time>2026-05-01T05:10:39Z</time></trkpt><trkpt lat="45.67622458966187" lon="9.395755132712546"><ele>249.0</ele><time>2026-05-01T05:10:40Z</time></trkpt><trkpt lat="45.67602133466288" lon="9.395671129631975"><ele>249.0</ele><time>2026-05-01T05:10:41Z</time></trkpt><trkpt lat="45.67582038022833" lon="9.395578993668542"><ele>248.33333333333331</ele><time>2026-05-01T05:10:42Z</time></trkpt><trkpt lat="45.67562335912665" lon="9.395473616696306"><ele>247.66666666666666</ele><time>2026-05-01T05:10:43Z</time></trkpt><trkpt lat="45.67542965919694" lon="9.395355884493634"><ele>247.0</ele><time>2026-05-01T05:10:44Z</time></trkpt><trkpt lat="45.67523909508217" lon="9.395225241525914"><ele>246.0</ele><time>2026-05-01T05:10:45Z</time></trkpt><trkpt lat="45.675053175432986" lon="9.395081359340118"><ele>245.0</ele><time>2026-05-01T05:10:46Z</time></trkpt><trkpt lat="45.67487072178322" lon="9.394933909395865"><ele>244.0</ele><time>2026-05-01T05:10:47Z</time></trkpt><trkpt lat="45.67469129985585" lon="9.394780177047618"><ele>244.0</ele><time>2026-05-01T05:10:48Z</time></trkpt><trkpt lat="45.67451298867943" lon="9.39462268878799"><ele>244.0</ele><time>2026-05-01T05:10:49Z</time></trkpt><trkpt lat="45.67435243854187" lon="9.394431463880297"><ele>244.0</ele><time>2026-05-01T05:10:50Z</time></trkpt><trkpt lat="45.67418560808298" lon="9.394247406037858"><ele>244.33333333333331</ele><time>2026-05-01T05:10:51Z</time></trkpt><trkpt lat="45.674027807198954" lon="9.394053050615048"><ele>244.66666666666669</ele><time>2026-05-01T05:10:52Z</time></trkpt><trkpt lat="45.673874321332065" lon="9.393849449447348"><ele>245.0</ele><time>2026-05-01T05:10:53Z</time></trkpt><trkpt lat="45.67372809640141" lon="9.393640222276504"><ele>245.33333333333334</ele><time>2026-05-01T05:10:54Z</time></trkpt><trkpt lat="45.67357860838261" lon="9.393431272491616"><ele>245.66666666666669</ele><time>2026-05-01T05:10:55Z</time></trkpt><trkpt lat="45.673441689622834" lon="9.393204627214478"><ele>246.0</ele><time>2026-05-01T05:10:56Z</time></trkpt><trkpt lat="45.673303734416095" lon="9.392981634494141"><ele>245.33333333333331</ele><time>2026-05-01T05:10:57Z</time></trkpt><trkpt lat="45.67316416724434" lon="9.392761566757168"><ele>244.66666666666666</ele><time>2026-05-01T05:10:58Z</time></trkpt><trkpt lat="45.67302334062438" lon="9.392541688805306"><ele>244.0</ele><time>2026-05-01T05:10:59Z</time></trkpt><trkpt lat="45.672884918338355" lon="9.392320548250776"><ele>243.0</ele><time>2026-05-01T05:11:00Z</time></trkpt><trkpt lat="45.67275037042321" lon="9.392092902996259"><ele>242.0</ele><time>2026-05-01T05:11:01Z</time></trkpt><trkpt lat="45.67262380192995" lon="9.391858913763645"><ele>241.0</ele><time>2026-05-01T05:11:02Z</time></trkpt><trkpt lat="45.672502589451796" lon="9.391619274498742"><ele>241.0</ele><time>2026-05-01T05:11:03Z</time></trkpt><trkpt lat="45.67238043042176" lon="9.391381104030874"><ele>241.0</ele><time>2026-05-01T05:11:03.999Z</time></trkpt><trkpt lat="45.67224605620786" lon="9.391158925129224"><ele>241.0</ele><time>2026-05-01T05:11:04.999Z</time></trkpt><trkpt lat="45.672101184576206" lon="9.39094955442698"><ele>241.0</ele><time>2026-05-01T05:11:05.999Z</time></trkpt><trkpt lat="45.67194357343338" lon="9.390751707264338"><ele>241.0</ele><time>2026-05-01T05:11:06.999Z</time></trkpt><trkpt lat="45.67177899940604" lon="9.390572181201563"><ele>241.0</ele><time>2026-05-01T05:11:07.999Z</time></trkpt><trkpt lat="45.67160766439603" lon="9.390404998839214"><ele>240.66666666666666</ele><time>2026-05-01T05:11:08.999Z</time></trkpt><trkpt lat="45.67142831999359" lon="9.390254112969966"><ele>240.33333333333331</ele><time>2026-05-01T05:11:09.999Z</time></trkpt><trkpt lat="45.67124179738356" lon="9.390115411391978"><ele>240.0</ele><time>2026-05-01T05:11:10.999Z</time></trkpt><trkpt lat="45.671050876752496" lon="9.389989665415085"><ele>240.0</ele><time>2026-05-01T05:11:11.999Z</time></trkpt><trkpt lat="45.67085710232915" lon="9.389868849491993"><ele>240.0</ele><time>2026-05-01T05:11:12.999Z</time></trkpt><trkpt lat="45.67066539015012" lon="9.389747282776154"><ele>240.0</ele><time>2026-05-01T05:11:13.999Z</time></trkpt><trkpt lat="45.6704695778086" lon="9.389618605341203"><ele>239.66666666666669</ele><time>2026-05-01T05:11:14.999Z</time></trkpt><trkpt lat="45.670274354486764" lon="9.389492012468319"><ele>239.33333333333334</ele><time>2026-05-01T05:11:15.999Z</time></trkpt><trkpt lat="45.670078521129355" lon="9.38936538157316"><ele>239.0</ele><time>2026-05-01T05:11:16.999Z</time></trkpt><trkpt lat="45.66988135645148" lon="9.389240342997313"><ele>239.0</ele><time>2026-05-01T05:11:17.999Z</time></trkpt><trkpt lat="45.66967982745462" lon="9.389118069200876"><ele>239.0</ele><time>2026-05-01T05:11:18.999Z</time></trkpt><trkpt lat="45.66947841037482" lon="9.389002934719588"><ele>239.0</ele><time>2026-05-01T05:11:19.999Z</time></trkpt><trkpt lat="45.66927420448763" lon="9.388893104658699"><ele>237.66666666666669</ele><time>2026-05-01T05:11:20.999Z</time></trkpt><trkpt lat="45.66906924951889" lon="9.388785202676422"><ele>236.33333333333331</ele><time>2026-05-01T05:11:21.999Z</time></trkpt><trkpt lat="45.668862951404485" lon="9.388673284091986"><ele>235.0</ele><time>2026-05-01T05:11:22.999Z</time></trkpt><trkpt lat="45.668655921539795" lon="9.388556550819944"><ele>235.33333333333331</ele><time>2026-05-01T05:11:23.999Z</time></trkpt><trkpt lat="45.668450890979045" lon="9.388432004847527"><ele>235.66666666666669</ele><time>2026-05-01T05:11:24.999Z</time></trkpt><trkpt lat="45.668247640595276" lon="9.388300783615295"><ele>236.0</ele><time>2026-05-01T05:11:25.999Z</time></trkpt><trkpt lat="45.66804823192268" lon="9.388163093067757"><ele>236.0</ele><time>2026-05-01T05:11:26.999Z</time></trkpt><trkpt lat="45.66785262289106" lon="9.388016572905585"><ele>236.0</ele><time>2026-05-01T05:11:27.999Z</time></trkpt><trkpt lat="45.66766072657183" lon="9.387867475908703"><ele>236.0</ele><time>2026-05-01T05:11:28.999Z</time></trkpt><trkpt lat="45.66746965586129" lon="9.387718151480057"><ele>236.33333333333334</ele><time>2026-05-01T05:11:29.999Z</time></trkpt><trkpt lat="45.66728095197922" lon="9.38756650094302"><ele>236.66666666666669</ele><time>2026-05-01T05:11:30.999Z</time></trkpt><trkpt lat="45.66709414007662" lon="9.387412770585458"><ele>237.0</ele><time>2026-05-01T05:11:31.999Z</time></trkpt><trkpt lat="45.66690859232121" lon="9.387260067643119"><ele>235.33333333333331</ele><time>2026-05-01T05:11:32.999Z</time></trkpt><trkpt lat="45.66671961591151" lon="9.387105968339126"><ele>233.66666666666666</ele><time>2026-05-01T05:11:33.999Z</time></trkpt><trkpt lat="45.666531057205574" lon="9.386952636067347"><ele>232.0</ele><time>2026-05-01T05:11:34.999Z</time></trkpt><trkpt lat="45.66634337250312" lon="9.38680103330671"><ele>232.0</ele><time>2026-05-01T05:11:35.999Z</time></trkpt><trkpt lat="45.6661555523862" lon="9.386649542590266"><ele>232.0</ele><time>2026-05-01T05:11:36.999Z</time></trkpt><trkpt lat="45.6659692190523" lon="9.386497866723175"><ele>232.0</ele><time>2026-05-01T05:11:37.999Z</time></trkpt><trkpt lat="45.665784816494785" lon="9.386347860059075"><ele>231.66666666666666</ele><time>2026-05-01T05:11:38.999Z</time></trkpt><trkpt lat="45.66560177731387" lon="9.386200281702145"><ele>231.33333333333331</ele><time>2026-05-01T05:11:39.999Z</time></trkpt><trkpt lat="45.6654215586606" lon="9.386052425597612"><ele>231.0</ele><time>2026-05-01T05:11:40.999Z</time></trkpt><trkpt lat="45.66524589107692" lon="9.3859052307264"><ele>231.0</ele><time>2026-05-01T05:11:41.999Z</time></trkpt><trkpt lat="45.66507724766787" lon="9.385754933610599"><ele>231.0</ele><time>2026-05-01T05:11:42.999Z</time></trkpt><trkpt lat="45.66491953698525" lon="9.385602306274599"><ele>231.0</ele><time>2026-05-01T05:11:43.999Z</time></trkpt><trkpt lat="45.66477304211835" lon="9.385451600100813"><ele>231.0</ele><time>2026-05-01T05:11:44.999Z</time></trkpt><trkpt lat="45.66463422644118" lon="9.385308725960481"><ele>231.0</ele><time>2026-05-01T05:11:45.999Z</time></trkpt><trkpt lat="45.66450346427773" lon="9.385178742211643"><ele>231.0</ele><time>2026-05-01T05:11:46.999Z</time></trkpt><trkpt lat="45.66438769206506" lon="9.385062905565729"><ele>230.8</ele><time>2026-05-01T05:11:47.999Z</time></trkpt><trkpt lat="45.664294290663044" lon="9.384945459393268"><ele>230.60000000000002</ele><time>2026-05-01T05:11:48.999Z</time></trkpt><trkpt lat="45.66422217195132" lon="9.384828983792497"><ele>230.4</ele><time>2026-05-01T05:11:49.999Z</time></trkpt><trkpt lat="45.664176827249186" lon="9.384725725401532"><ele>230.2</ele><time>2026-05-01T05:11:50.999Z</time></trkpt><trkpt lat="45.6641028790804" lon="9.384673408753796"><ele>230.0</ele><time>2026-05-01T05:11:51.999Z</time></trkpt><trkpt lat="45.664006444908516" lon="9.384686730657425"><ele>230.0</ele><time>2026-05-01T05:11:52.999Z</time></trkpt><trkpt lat="45.66389902744924" lon="9.384717805582941"><ele>230.0</ele><time>2026-05-01T05:11:53.999Z</time></trkpt><trkpt lat="45.663780535316825" lon="9.384685956355904"><ele>230.0</ele><time>2026-05-01T05:11:54.999Z</time></trkpt><trkpt lat="45.66365506302296" lon="9.384601794550571"><ele>230.0</ele><time>2026-05-01T05:11:55.999Z</time></trkpt><trkpt lat="45.663526947483646" lon="9.384488395561721"><ele>230.33333333333334</ele><time>2026-05-01T05:11:56.999Z</time></trkpt><trkpt lat="45.66339568638758" lon="9.384373163172125"><ele>230.66666666666669</ele><time>2026-05-01T05:11:58Z</time></trkpt><trkpt lat="45.66325469796482" lon="9.384253795095807"><ele>231.0</ele><time>2026-05-01T05:11:59Z</time></trkpt><trkpt lat="45.66310950195956" lon="9.384129315491485"><ele>231.0</ele><time>2026-05-01T05:12:00Z</time></trkpt><trkpt lat="45.662964077474314" lon="9.384002970496512"><ele>231.0</ele><time>2026-05-01T05:12:01Z</time></trkpt><trkpt lat="45.66282193362405" lon="9.383878104224188"><ele>231.0</ele><time>2026-05-01T05:12:02Z</time></trkpt><trkpt lat="45.66268171962293" lon="9.383753128464825"><ele>230.33333333333331</ele><time>2026-05-01T05:12:03Z</time></trkpt><trkpt lat="45.66250577549686" lon="9.383576679656029"><ele>229.66666666666666</ele><time>2026-05-01T05:12:04Z</time></trkpt><trkpt lat="45.662349006926334" lon="9.38342897621054"><ele>229.0</ele><time>2026-05-01T05:12:05Z</time></trkpt><trkpt lat="45.6621881670249" lon="9.383278018204003"><ele>229.0</ele><time>2026-05-01T05:12:06Z</time></trkpt><trkpt lat="45.66203826389997" lon="9.383129289280395"><ele>229.0</ele><time>2026-05-01T05:12:07Z</time></trkpt><trkpt lat="45.661879710792604" lon="9.382980825796965"><ele>229.0</ele><time>2026-05-01T05:12:08Z</time></trkpt><trkpt lat="45.66172277567804" lon="9.382813429857313"><ele>229.0</ele><time>2026-05-01T05:12:09Z</time></trkpt><trkpt lat="45.661569014492066" lon="9.382634228676386"><ele>229.0</ele><time>2026-05-01T05:12:10Z</time></trkpt><trkpt lat="45.66141026163815" lon="9.382455486292544"><ele>229.0</ele><time>2026-05-01T05:12:11Z</time></trkpt><trkpt lat="45.66124270286085" lon="9.382272257842972"><ele>231.33333333333331</ele><time>2026-05-01T05:12:12Z</time></trkpt><trkpt lat="45.661078677392815" lon="9.38209363327262"><ele>233.66666666666669</ele><time>2026-05-01T05:12:13Z</time></trkpt><trkpt lat="45.66091595066856" lon="9.38191119204318"><ele>236.0</ele><time>2026-05-01T05:12:14Z</time></trkpt><trkpt lat="45.66075460651184" lon="9.381722580855444"><ele>236.0</ele><time>2026-05-01T05:12:15Z</time></trkpt><trkpt lat="45.66059783089163" lon="9.381523507663442"><ele>236.0</ele><time>2026-05-01T05:12:16Z</time></trkpt><trkpt lat="45.660437996229334" lon="9.381323754872533"><ele>236.0</ele><time>2026-05-01T05:12:17Z</time></trkpt><trkpt lat="45.660280292732416" lon="9.381119454693764"><ele>235.0</ele><time>2026-05-01T05:12:18Z</time></trkpt><trkpt lat="45.660125914557604" lon="9.380908163254398"><ele>234.0</ele><time>2026-05-01T05:12:19Z</time></trkpt><trkpt lat="45.6599710740068" lon="9.380697376941795"><ele>233.0</ele><time>2026-05-01T05:12:20Z</time></trkpt><trkpt lat="45.65981641930388" lon="9.380480855735952"><ele>232.33333333333334</ele><time>2026-05-01T05:12:21Z</time></trkpt><trkpt lat="45.65966158647966" lon="9.380263366023364"><ele>231.66666666666669</ele><time>2026-05-01T05:12:22Z</time></trkpt><trkpt lat="45.659509678583014" lon="9.380047959822107"><ele>231.0</ele><time>2026-05-01T05:12:23Z</time></trkpt><trkpt lat="45.659361013011434" lon="9.379827540891972"><ele>232.33333333333331</ele><time>2026-05-01T05:12:24Z</time></trkpt><trkpt lat="45.65921252183376" lon="9.379602263509174"><ele>233.66666666666666</ele><time>2026-05-01T05:12:25Z</time></trkpt><trkpt lat="45.65906981569074" lon="9.379379832977884"><ele>235.0</ele><time>2026-05-01T05:12:26Z</time></trkpt><trkpt lat="45.658926467961045" lon="9.379157154546926"><ele>235.0</ele><time>2026-05-01T05:12:27Z</time></trkpt><trkpt lat="45.65878452967489" lon="9.378936739567392"><ele>235.0</ele><time>2026-05-01T05:12:28Z</time></trkpt><trkpt lat="45.658639046409434" lon="9.37872008061566"><ele>235.0</ele><time>2026-05-01T05:12:29Z</time></trkpt><trkpt lat="45.658494092945574" lon="9.378505108160477"><ele>235.66666666666666</ele><time>2026-05-01T05:12:30Z</time></trkpt><trkpt lat="45.65835178420951" lon="9.37828969505303"><ele>236.33333333333331</ele><time>2026-05-01T05:12:31Z</time></trkpt><trkpt lat="45.65821515582734" lon="9.378070825057138"><ele>237.0</ele><time>2026-05-01T05:12:32Z</time></trkpt><trkpt lat="45.65808193669162" lon="9.377849214460179"><ele>237.0</ele><time>2026-05-01T05:12:33Z</time></trkpt><trkpt lat="45.657952571230524" lon="9.377617404467763"><ele>237.0</ele><time>2026-05-01T05:12:34Z</time></trkpt><trkpt lat="45.65782870811454" lon="9.37738574089794"><ele>237.0</ele><time>2026-05-01T05:12:35Z</time></trkpt><trkpt lat="45.657703912695574" lon="9.377159768594845"><ele>233.33333333333331</ele><time>2026-05-01T05:12:36Z</time></trkpt><trkpt lat="45.65757371008531" lon="9.376934800291828"><ele>229.66666666666666</ele><time>2026-05-01T05:12:37Z</time></trkpt><trkpt lat="45.657436867763174" lon="9.376719155033644"><ele>226.0</ele><time>2026-05-01T05:12:38Z</time></trkpt><trkpt lat="45.65729142500681" lon="9.376515113108644"><ele>226.0</ele><time>2026-05-01T05:12:39Z</time></trkpt><trkpt lat="45.65713947102834" lon="9.376321744317362"><ele>226.0</ele><time>2026-05-01T05:12:40Z</time></trkpt><trkpt lat="45.65698655980896" lon="9.376128932050165"><ele>226.0</ele><time>2026-05-01T05:12:41Z</time></trkpt><trkpt lat="45.65683463247257" lon="9.375925080533982"><ele>226.0</ele><time>2026-05-01T05:12:42Z</time></trkpt><trkpt lat="45.656690678482825" lon="9.37570528140889"><ele>226.0</ele><time>2026-05-01T05:12:43Z</time></trkpt><trkpt lat="45.65655902911538" lon="9.375470843756242"><ele>226.0</ele><time>2026-05-01T05:12:44Z</time></trkpt><trkpt lat="45.6564372594494" lon="9.375226048361766"><ele>225.33333333333331</ele><time>2026-05-01T05:12:45Z</time></trkpt><trkpt lat="45.65632249797935" lon="9.374979719484049"><ele>224.66666666666669</ele><time>2026-05-01T05:12:46Z</time></trkpt><trkpt lat="45.65621984003651" lon="9.374722254488686"><ele>224.0</ele><time>2026-05-01T05:12:47Z</time></trkpt><trkpt lat="45.65611762801541" lon="9.37446214679671"><ele>224.0</ele><time>2026-05-01T05:12:48Z</time></trkpt><trkpt lat="45.656017003621095" lon="9.374199240522923"><ele>224.0</ele><time>2026-05-01T05:12:49Z</time></trkpt><trkpt lat="45.65592002737897" lon="9.373932200583555"><ele>224.0</ele><time>2026-05-01T05:12:50Z</time></trkpt><trkpt lat="45.6558175153449" lon="9.373666647751156"><ele>225.0</ele><time>2026-05-01T05:12:51Z</time></trkpt><trkpt lat="45.65570635350369" lon="9.373392476060655"><ele>226.0</ele><time>2026-05-01T05:12:52Z</time></trkpt><trkpt lat="45.65560974671901" lon="9.373102564690642"><ele>227.0</ele><time>2026-05-01T05:12:53Z</time></trkpt><trkpt lat="45.6554916403606" lon="9.372830169889843"><ele>228.33333333333334</ele><time>2026-05-01T05:12:54Z</time></trkpt><trkpt lat="45.65539635184861" lon="9.372540102127111"><ele>229.66666666666669</ele><time>2026-05-01T05:12:55Z</time></trkpt><trkpt lat="45.65530361042311" lon="9.372259362196399"><ele>231.0</ele><time>2026-05-01T05:12:56Z</time></trkpt><trkpt lat="45.65520803872853" lon="9.371985473190676"><ele>229.66666666666669</ele><time>2026-05-01T05:12:57Z</time></trkpt><trkpt lat="45.65511279098531" lon="9.371722624540412"><ele>228.33333333333334</ele><time>2026-05-01T05:12:58Z</time></trkpt><trkpt lat="45.65502290520197" lon="9.37146915397908"><ele>227.0</ele><time>2026-05-01T05:12:59Z</time></trkpt><trkpt lat="45.654937421908684" lon="9.371232005669182"><ele>227.0</ele><time>2026-05-01T05:13:00Z</time></trkpt><trkpt lat="45.65485581132261" lon="9.371003055835677"><ele>227.0</ele><time>2026-05-01T05:13:01Z</time></trkpt><trkpt lat="45.65477392623714" lon="9.370784617876353"><ele>227.0</ele><time>2026-05-01T05:13:02Z</time></trkpt><trkpt lat="45.654682953192065" lon="9.370568447002604"><ele>228.66666666666669</ele><time>2026-05-01T05:13:03Z</time></trkpt><trkpt lat="45.65458030897407" lon="9.37036736683062"><ele>230.33333333333331</ele><time>2026-05-01T05:13:04Z</time></trkpt><trkpt lat="45.65446132543801" lon="9.370196229911718"><ele>232.0</ele><time>2026-05-01T05:13:05Z</time></trkpt><trkpt lat="45.65432703885919" lon="9.370052213387622"><ele>228.0</ele><time>2026-05-01T05:13:06Z</time></trkpt><trkpt lat="45.654181359040074" lon="9.369945574505218"><ele>224.0</ele><time>2026-05-01T05:13:07Z</time></trkpt><trkpt lat="45.65402335081947" lon="9.369872534609836"><ele>220.0</ele><time>2026-05-01T05:13:08Z</time></trkpt><trkpt lat="45.65386405206893" lon="9.369813513937382"><ele>220.0</ele><time>2026-05-01T05:13:09Z</time></trkpt><trkpt lat="45.65370443148145" lon="9.369725147024363"><ele>220.0</ele><time>2026-05-01T05:13:10Z</time></trkpt><trkpt lat="45.653536332294664" lon="9.36964508538813"><ele>220.0</ele><time>2026-05-01T05:13:11Z</time></trkpt><trkpt lat="45.653364018716374" lon="9.369563082945303"><ele>219.33333333333331</ele><time>2026-05-01T05:13:12Z</time></trkpt><trkpt lat="45.65318390519044" lon="9.369477560164967"><ele>218.66666666666669</ele><time>2026-05-01T05:13:13Z</time></trkpt><trkpt lat="45.65299655276536" lon="9.36938891009007"><ele>218.0</ele><time>2026-05-01T05:13:14Z</time></trkpt><trkpt lat="45.65280160904477" lon="9.369296668035195"><ele>218.66666666666669</ele><time>2026-05-01T05:13:15Z</time></trkpt><trkpt lat="45.65259904565899" lon="9.369200720434954"><ele>219.33333333333331</ele><time>2026-05-01T05:13:16Z</time></trkpt><trkpt lat="45.65239123518703" lon="9.369103526505333"><ele>220.0</ele><time>2026-05-01T05:13:17Z</time></trkpt><trkpt lat="45.65217873875905" lon="9.369027331947235"><ele>220.0</ele><time>2026-05-01T05:13:17.999Z</time></trkpt><trkpt lat="45.651970933707965" lon="9.368932442774504"><ele>220.0</ele><time>2026-05-01T05:13:18.999Z</time></trkpt><trkpt lat="45.65176125618703" lon="9.368852241319052"><ele>220.0</ele><time>2026-05-01T05:13:19.999Z</time></trkpt><trkpt lat="45.65155029808073" lon="9.36877778787273"><ele>220.0</ele><time>2026-05-01T05:13:20.999Z</time></trkpt><trkpt lat="45.651337264093115" lon="9.368703427891674"><ele>220.0</ele><time>2026-05-01T05:13:21.999Z</time></trkpt><trkpt lat="45.651125857069076" lon="9.36862575545665"><ele>220.0</ele><time>2026-05-01T05:13:22.999Z</time></trkpt><trkpt lat="45.6509120905883" lon="9.36854797915932"><ele>220.0</ele><time>2026-05-01T05:13:23.999Z</time></trkpt><trkpt lat="45.65069787653315" lon="9.36847222647698"><ele>220.0</ele><time>2026-05-01T05:13:24.999Z</time></trkpt><trkpt lat="45.65048164971978" lon="9.368396552984308"><ele>220.0</ele><time>2026-05-01T05:13:25.999Z</time></trkpt><trkpt lat="45.650268536649335" lon="9.368321760939608"><ele>219.0</ele><time>2026-05-01T05:13:26.999Z</time></trkpt><trkpt lat="45.65005547646986" lon="9.368246073011575"><ele>218.0</ele><time>2026-05-01T05:13:27.999Z</time></trkpt><trkpt lat="45.64984306796331" lon="9.368169498468989"><ele>217.0</ele><time>2026-05-01T05:13:28.999Z</time></trkpt><trkpt lat="45.64962796930829" lon="9.368092540610451"><ele>216.66666666666666</ele><time>2026-05-01T05:13:29.999Z</time></trkpt><trkpt lat="45.64941481940555" lon="9.36801750648826"><ele>216.33333333333331</ele><time>2026-05-01T05:13:30.999Z</time></trkpt><trkpt lat="45.649200329168075" lon="9.367942988050343"><ele>216.0</ele><time>2026-05-01T05:13:31.999Z</time></trkpt><trkpt lat="45.648986278582974" lon="9.367867029898155"><ele>216.0</ele><time>2026-05-01T05:13:32.999Z</time></trkpt><trkpt lat="45.64877376240551" lon="9.367788694978739"><ele>216.0</ele><time>2026-05-01T05:13:33.999Z</time></trkpt><trkpt lat="45.64855760400405" lon="9.36771092953396"><ele>216.0</ele><time>2026-05-01T05:13:34.999Z</time></trkpt><trkpt lat="45.648338694359225" lon="9.367632201216933"><ele>217.0</ele><time>2026-05-01T05:13:35.999Z</time></trkpt><trkpt lat="45.64811890831291" lon="9.36755723620613"><ele>218.0</ele><time>2026-05-01T05:13:36.999Z</time></trkpt><trkpt lat="45.647899073685316" lon="9.367479705129863"><ele>218.5</ele><time>2026-05-01T05:13:37.999Z</time></trkpt><trkpt lat="45.647671426056554" lon="9.367399782453747"><ele>219.0</ele><time>2026-05-01T05:13:38.999Z</time></trkpt><trkpt lat="45.647450470165175" lon="9.36731741159987"><ele>219.0</ele><time>2026-05-01T05:13:39.999Z</time></trkpt><trkpt lat="45.647225084638386" lon="9.367236219622415"><ele>219.0</ele><time>2026-05-01T05:13:40.999Z</time></trkpt><trkpt lat="45.64699903421195" lon="9.367155108143365"><ele>219.5</ele><time>2026-05-01T05:13:41.999Z</time></trkpt><trkpt lat="45.64677014186336" lon="9.36707426036112"><ele>220.0</ele><time>2026-05-01T05:13:42.999Z</time></trkpt><trkpt lat="45.64654302877643" lon="9.366993262019568"><ele>220.0</ele><time>2026-05-01T05:13:43.999Z</time></trkpt><trkpt lat="45.6463134500062" lon="9.366910608201895"><ele>220.0</ele><time>2026-05-01T05:13:44.999Z</time></trkpt><trkpt lat="45.64608156467004" lon="9.366826570397373"><ele>217.5</ele><time>2026-05-01T05:13:45.999Z</time></trkpt><trkpt lat="45.645847916829155" lon="9.36674433406259"><ele>215.0</ele><time>2026-05-01T05:13:46.999Z</time></trkpt><trkpt lat="45.64561194169966" lon="9.366663466586639"><ele>215.0</ele><time>2026-05-01T05:13:47.999Z</time></trkpt><trkpt lat="45.645379684392054" lon="9.366577172758129"><ele>215.0</ele><time>2026-05-01T05:13:48.999Z</time></trkpt><trkpt lat="45.645142291616466" lon="9.366490845822474"><ele>214.5</ele><time>2026-05-01T05:13:49.999Z</time></trkpt><trkpt lat="45.64490650124696" lon="9.366399714859757"><ele>214.0</ele><time>2026-05-01T05:13:50.999Z</time></trkpt><trkpt lat="45.64466771359904" lon="9.36630592480266"><ele>216.5</ele><time>2026-05-01T05:13:51.999Z</time></trkpt><trkpt lat="45.64443150771617" lon="9.36621862978615"><ele>219.0</ele><time>2026-05-01T05:13:52.999Z</time></trkpt><trkpt lat="45.64419109836385" lon="9.366131799778653"><ele>219.0</ele><time>2026-05-01T05:13:53.999Z</time></trkpt><trkpt lat="45.64395496061799" lon="9.366036959910378"><ele>219.0</ele><time>2026-05-01T05:13:54.999Z</time></trkpt><trkpt lat="45.64371835659224" lon="9.365943785279214"><ele>217.5</ele><time>2026-05-01T05:13:55.999Z</time></trkpt><trkpt lat="45.643479247020764" lon="9.36585323439544"><ele>216.0</ele><time>2026-05-01T05:13:56.999Z</time></trkpt><trkpt lat="45.643243620480625" lon="9.365763654147349"><ele>216.0</ele><time>2026-05-01T05:13:57.999Z</time></trkpt><trkpt lat="45.643006399122804" lon="9.365676499901157"><ele>216.0</ele><time>2026-05-01T05:13:58.999Z</time></trkpt><trkpt lat="45.64276999306088" lon="9.365591121443757"><ele>216.0</ele><time>2026-05-01T05:13:59.999Z</time></trkpt><trkpt lat="45.64253164743218" lon="9.365506585672104"><ele>216.0</ele><time>2026-05-01T05:14:00.999Z</time></trkpt><trkpt lat="45.6422953102873" lon="9.365422037464818"><ele>216.0</ele><time>2026-05-01T05:14:01.999Z</time></trkpt><trkpt lat="45.642060357146775" lon="9.365336318095821"><ele>216.0</ele><time>2026-05-01T05:14:02.999Z</time></trkpt><trkpt lat="45.64182047238768" lon="9.365254512069201"><ele>215.5</ele><time>2026-05-01T05:14:04Z</time></trkpt><trkpt lat="45.641588527438984" lon="9.365166331328977"><ele>215.0</ele><time>2026-05-01T05:14:05Z</time></trkpt><trkpt lat="45.64135421306758" lon="9.3650816503495"><ele>213.5</ele><time>2026-05-01T05:14:06Z</time></trkpt><trkpt lat="45.64112010593391" lon="9.36499770046419"><ele>212.0</ele><time>2026-05-01T05:14:07Z</time></trkpt><trkpt lat="45.640888223686225" lon="9.364912730398682"><ele>212.0</ele><time>2026-05-01T05:14:08Z</time></trkpt><trkpt lat="45.64065484876819" lon="9.364829654271068"><ele>212.0</ele><time>2026-05-01T05:14:09Z</time></trkpt><trkpt lat="45.64042202491653" lon="9.364748978478929"><ele>212.0</ele><time>2026-05-01T05:14:10Z</time></trkpt><trkpt lat="45.6401891808528" lon="9.364665328983124"><ele>212.0</ele><time>2026-05-01T05:14:11Z</time></trkpt><trkpt lat="45.63995940375504" lon="9.364585499510373"><ele>212.0</ele><time>2026-05-01T05:14:12Z</time></trkpt><trkpt lat="45.639724364384435" lon="9.364503876916887"><ele>212.0</ele><time>2026-05-01T05:14:13Z</time></trkpt><trkpt lat="45.639490171067976" lon="9.36442131931148"><ele>211.5</ele><time>2026-05-01T05:14:14Z</time></trkpt><trkpt lat="45.63925619256788" lon="9.364342213294037"><ele>211.0</ele><time>2026-05-01T05:14:15Z</time></trkpt><trkpt lat="45.63902113489242" lon="9.36426658071711"><ele>211.0</ele><time>2026-05-01T05:14:16Z</time></trkpt><trkpt lat="45.638786529919635" lon="9.36419345532945"><ele>211.0</ele><time>2026-05-01T05:14:17Z</time></trkpt><trkpt lat="45.63855088439202" lon="9.36411966727332"><ele>211.5</ele><time>2026-05-01T05:14:18Z</time></trkpt><trkpt lat="45.63831293786235" lon="9.364049947073788"><ele>212.0</ele><time>2026-05-01T05:14:19Z</time></trkpt><trkpt lat="45.63807702754225" lon="9.36397839094356"><ele>212.0</ele><time>2026-05-01T05:14:20Z</time></trkpt><trkpt lat="45.63784000774026" lon="9.363909739202679"><ele>212.0</ele><time>2026-05-01T05:14:21Z</time></trkpt><trkpt lat="45.63760032162711" lon="9.363844489209677"><ele>212.0</ele><time>2026-05-01T05:14:22Z</time></trkpt><trkpt lat="45.6373601731802" lon="9.363781756655817"><ele>212.0</ele><time>2026-05-01T05:14:23Z</time></trkpt><trkpt lat="45.63711815743592" lon="9.3637197411812"><ele>211.5</ele><time>2026-05-01T05:14:24Z</time></trkpt><trkpt lat="45.636876935013184" lon="9.363658956957746"><ele>211.0</ele><time>2026-05-01T05:14:25Z</time></trkpt><trkpt lat="45.63663262909871" lon="9.363600444955713"><ele>211.0</ele><time>2026-05-01T05:14:26Z</time></trkpt><trkpt lat="45.63638888521144" lon="9.363543501498144"><ele>211.0</ele><time>2026-05-01T05:14:27Z</time></trkpt><trkpt lat="45.63614674023588" lon="9.363489353988259"><ele>211.0</ele><time>2026-05-01T05:14:28Z</time></trkpt><trkpt lat="45.63590366441425" lon="9.363432666954889"><ele>211.0</ele><time>2026-05-01T05:14:29Z</time></trkpt><trkpt lat="45.63566190193322" lon="9.363378933160867"><ele>211.0</ele><time>2026-05-01T05:14:30Z</time></trkpt><trkpt lat="45.63541920996746" lon="9.363326979298638"><ele>211.0</ele><time>2026-05-01T05:14:31Z</time></trkpt><trkpt lat="45.635175750806" lon="9.363277382114036"><ele>211.0</ele><time>2026-05-01T05:14:32Z</time></trkpt><trkpt lat="45.63493054223255" lon="9.363231868209875"><ele>211.0</ele><time>2026-05-01T05:14:33Z</time></trkpt><trkpt lat="45.63468691710341" lon="9.363185835003842"><ele>211.0</ele><time>2026-05-01T05:14:34Z</time></trkpt><trkpt lat="45.634442402694425" lon="9.363138399880668"><ele>211.0</ele><time>2026-05-01T05:14:35Z</time></trkpt><trkpt lat="45.63419717028351" lon="9.363090234139037"><ele>211.0</ele><time>2026-05-01T05:14:36Z</time></trkpt><trkpt lat="45.63395086014477" lon="9.363043481434747"><ele>211.0</ele><time>2026-05-01T05:14:37Z</time></trkpt><trkpt lat="45.633703238594315" lon="9.36299680912297"><ele>210.5</ele><time>2026-05-01T05:14:38Z</time></trkpt><trkpt lat="45.633456687351064" lon="9.362948467667707"><ele>210.0</ele><time>2026-05-01T05:14:39Z</time></trkpt><trkpt lat="45.63321153833358" lon="9.362898389497811"><ele>210.0</ele><time>2026-05-01T05:14:40Z</time></trkpt><trkpt lat="45.632963891588304" lon="9.362849880065516"><ele>210.0</ele><time>2026-05-01T05:14:41Z</time></trkpt><trkpt lat="45.632714428476916" lon="9.362800509088762"><ele>210.0</ele><time>2026-05-01T05:14:42Z</time></trkpt><trkpt lat="45.63246570104402" lon="9.362754039224718"><ele>210.0</ele><time>2026-05-01T05:14:43Z</time></trkpt><trkpt lat="45.632219357644004" lon="9.362704362085474"><ele>209.5</ele><time>2026-05-01T05:14:44Z</time></trkpt><trkpt lat="45.63197054041397" lon="9.362657250366814"><ele>209.0</ele><time>2026-05-01T05:14:45Z</time></trkpt><trkpt lat="45.63172115242515" lon="9.362609444116497"><ele>209.0</ele><time>2026-05-01T05:14:46Z</time></trkpt><trkpt lat="45.631472804370965" lon="9.362560373919687"><ele>209.0</ele><time>2026-05-01T05:14:47Z</time></trkpt><trkpt lat="45.63122476851149" lon="9.362509397624493"><ele>209.0</ele><time>2026-05-01T05:14:48Z</time></trkpt><trkpt lat="45.63097427961931" lon="9.36245848585308"><ele>209.0</ele><time>2026-05-01T05:14:49Z</time></trkpt><trkpt lat="45.63072484718242" lon="9.362407147656457"><ele>209.0</ele><time>2026-05-01T05:14:50Z</time></trkpt><trkpt lat="45.63047389110831" lon="9.362355613216202"><ele>209.0</ele><time>2026-05-01T05:14:51Z</time></trkpt><trkpt lat="45.63022176206847" lon="9.362303636429962"><ele>207.5</ele><time>2026-05-01T05:14:52Z</time></trkpt><trkpt lat="45.629967768523464" lon="9.362252329201173"><ele>206.0</ele><time>2026-05-01T05:14:53Z</time></trkpt><trkpt lat="45.629712818185226" lon="9.362202123826215"><ele>207.5</ele><time>2026-05-01T05:14:54Z</time></trkpt><trkpt lat="45.62945805446636" lon="9.362153652317978"><ele>209.0</ele><time>2026-05-01T05:14:55Z</time></trkpt><trkpt lat="45.6292016794626" lon="9.362103266417462"><ele>209.0</ele><time>2026-05-01T05:14:56Z</time></trkpt><trkpt lat="45.62894253989022" lon="9.362051590328422"><ele>209.0</ele><time>2026-05-01T05:14:57Z</time></trkpt><trkpt lat="45.628683940149486" lon="9.36200020763342"><ele>208.5</ele><time>2026-05-01T05:14:58Z</time></trkpt><trkpt lat="45.62842488868548" lon="9.361949527398144"><ele>208.0</ele><time>2026-05-01T05:14:59Z</time></trkpt><trkpt lat="45.62816546193352" lon="9.36189823830576"><ele>208.0</ele><time>2026-05-01T05:15:00Z</time></trkpt><trkpt lat="45.627904710304236" lon="9.361846127467244"><ele>208.0</ele><time>2026-05-01T05:15:01Z</time></trkpt><trkpt lat="45.62764157381824" lon="9.361793069775944"><ele>207.0</ele><time>2026-05-01T05:15:02Z</time></trkpt><trkpt lat="45.627378172774044" lon="9.36173973633709"><ele>206.0</ele><time>2026-05-01T05:15:03Z</time></trkpt><trkpt lat="45.627113593733576" lon="9.361687159798485"><ele>204.5</ele><time>2026-05-01T05:15:04Z</time></trkpt><trkpt lat="45.62684718996406" lon="9.361633428925048"><ele>203.0</ele><time>2026-05-01T05:15:05Z</time></trkpt><trkpt lat="45.62658005699903" lon="9.361579594031864"><ele>203.0</ele><time>2026-05-01T05:15:06Z</time></trkpt><trkpt lat="45.62631361386633" lon="9.361526508314853"><ele>203.0</ele><time>2026-05-01T05:15:07Z</time></trkpt><trkpt lat="45.62604664905274" lon="9.361472572376075"><ele>203.0</ele><time>2026-05-01T05:15:08Z</time></trkpt><trkpt lat="45.625779285825466" lon="9.3614203604096"><ele>203.0</ele><time>2026-05-01T05:15:09Z</time></trkpt><trkpt lat="45.6255109014025" lon="9.361365922017661"><ele>202.0</ele><time>2026-05-01T05:15:10Z</time></trkpt><trkpt lat="45.62524358501152" lon="9.361312366177486"><ele>201.0</ele><time>2026-05-01T05:15:11Z</time></trkpt><trkpt lat="45.62497527721742" lon="9.361258358141932"><ele>201.0</ele><time>2026-05-01T05:15:12Z</time></trkpt><trkpt lat="45.624708671210094" lon="9.36120616104775"><ele>201.0</ele><time>2026-05-01T05:15:13Z</time></trkpt><trkpt lat="45.624440242853034" lon="9.361151679906074"><ele>200.0</ele><time>2026-05-01T05:15:14Z</time></trkpt><trkpt lat="45.624170590386235" lon="9.361097611870902"><ele>199.0</ele><time>2026-05-01T05:15:15Z</time></trkpt><trkpt lat="45.62390212380827" lon="9.361043467640792"><ele>199.0</ele><time>2026-05-01T05:15:16Z</time></trkpt><trkpt lat="45.623634414017374" lon="9.360988801020529"><ele>199.0</ele><time>2026-05-01T05:15:17Z</time></trkpt><trkpt lat="45.62336858963513" lon="9.360935646816966"><ele>199.0</ele><time>2026-05-01T05:15:18Z</time></trkpt><trkpt lat="45.623102498397714" lon="9.360882487607476"><ele>199.0</ele><time>2026-05-01T05:15:19Z</time></trkpt><trkpt lat="45.62283725980566" lon="9.360830425971328"><ele>197.5</ele><time>2026-05-01T05:15:20Z</time></trkpt><trkpt lat="45.622572140877466" lon="9.360778593090894"><ele>196.0</ele><time>2026-05-01T05:15:21Z</time></trkpt><trkpt lat="45.62230733469862" lon="9.360728196046765"><ele>196.0</ele><time>2026-05-01T05:15:22Z</time></trkpt><trkpt lat="45.62204289505458" lon="9.360676152810354"><ele>196.0</ele><time>2026-05-01T05:15:23Z</time></trkpt><trkpt lat="45.62177759857107" lon="9.360625451358523"><ele>196.5</ele><time>2026-05-01T05:15:24Z</time></trkpt><trkpt lat="45.62151078749234" lon="9.360572179320714"><ele>197.0</ele><time>2026-05-01T05:15:25Z</time></trkpt><trkpt lat="45.621243773662336" lon="9.360519122949508"><ele>195.5</ele><time>2026-05-01T05:15:25.999Z</time></trkpt><trkpt lat="45.62097674083084" lon="9.360465018827906"><ele>194.0</ele><time>2026-05-01T05:15:26.999Z</time></trkpt><trkpt lat="45.62070895840225" lon="9.360410464161086"><ele>194.0</ele><time>2026-05-01T05:15:27.999Z</time></trkpt><trkpt lat="45.62044084630413" lon="9.360356540182908"><ele>194.0</ele><time>2026-05-01T05:15:28.999Z</time></trkpt><trkpt lat="45.6201712068724" lon="9.360302951360584"><ele>192.5</ele><time>2026-05-01T05:15:29.999Z</time></trkpt><trkpt lat="45.61990080451793" lon="9.360247612606031"><ele>191.0</ele><time>2026-05-01T05:15:30.999Z</time></trkpt><trkpt lat="45.61963087691471" lon="9.360195686599122"><ele>191.5</ele><time>2026-05-01T05:15:31.999Z</time></trkpt><trkpt lat="45.619360226138134" lon="9.36014298725647"><ele>192.0</ele><time>2026-05-01T05:15:32.999Z</time></trkpt><trkpt lat="45.61909041810402" lon="9.360089313967064"><ele>192.0</ele><time>2026-05-01T05:15:33.999Z</time></trkpt><trkpt lat="45.61882273573507" lon="9.360042915179378"><ele>192.0</ele><time>2026-05-01T05:15:34.999Z</time></trkpt><trkpt lat="45.61855365387123" lon="9.359999458279741"><ele>193.0</ele><time>2026-05-01T05:15:35.999Z</time></trkpt><trkpt lat="45.61828712862468" lon="9.359958688529357"><ele>194.0</ele><time>2026-05-01T05:15:36.999Z</time></trkpt><trkpt lat="45.618022647606296" lon="9.359919421619638"><ele>195.5</ele><time>2026-05-01T05:15:37.999Z</time></trkpt><trkpt lat="45.617760193220846" lon="9.359882413022557"><ele>197.0</ele><time>2026-05-01T05:15:38.999Z</time></trkpt><trkpt lat="45.61750018361083" lon="9.359845795590315"><ele>197.0</ele><time>2026-05-01T05:15:39.999Z</time></trkpt><trkpt lat="45.61722137207913" lon="9.359810038907442"><ele>197.0</ele><time>2026-05-01T05:15:41.074Z</time></trkpt><trkpt lat="45.616961680437136" lon="9.359779785988227"><ele>194.5</ele><time>2026-05-01T05:15:42.074Z</time></trkpt><trkpt lat="45.61670230719176" lon="9.359752017965256"><ele>192.0</ele><time>2026-05-01T05:15:43.074Z</time></trkpt><trkpt lat="45.61096311497184" lon="9.359926977735348"><ele>190.0</ele><time>2026-05-01T05:16:04.999Z</time></trkpt><trkpt lat="45.61084550288281" lon="9.360026340804401"><ele>188.0</ele><time>2026-05-01T05:16:05.999Z</time></trkpt><trkpt lat="45.61056731330943" lon="9.360113452421341"><ele>186.0</ele><time>2026-05-01T05:16:06.999Z</time></trkpt><trkpt lat="45.61032022704035" lon="9.36020174292092"><ele>184.5</ele><time>2026-05-01T05:16:07.999Z</time></trkpt><trkpt lat="45.610068672766694" lon="9.360296530536923"><ele>183.0</ele><time>2026-05-01T05:16:08.999Z</time></trkpt><trkpt lat="45.60981686807018" lon="9.360402058947946"><ele>183.0</ele><time>2026-05-01T05:16:09.999Z</time></trkpt><trkpt lat="45.609568415179425" lon="9.36049802422084"><ele>183.0</ele><time>2026-05-01T05:16:11Z</time></trkpt><trkpt lat="45.60932426681163" lon="9.36059570296431"><ele>184.0</ele><time>2026-05-01T05:16:12Z</time></trkpt><trkpt lat="45.609078851163694" lon="9.360700108460133"><ele>185.0</ele><time>2026-05-01T05:16:13Z</time></trkpt><trkpt lat="45.60883450924545" lon="9.360803048611334"><ele>185.0</ele><time>2026-05-01T05:16:14Z</time></trkpt><trkpt lat="45.60859323245794" lon="9.360906957560132"><ele>185.0</ele><time>2026-05-01T05:16:15Z</time></trkpt><trkpt lat="45.60835272804582" lon="9.361009995720462"><ele>185.0</ele><time>2026-05-01T05:16:16Z</time></trkpt><trkpt lat="45.6081123758695" lon="9.36111031054322"><ele>185.0</ele><time>2026-05-01T05:16:17Z</time></trkpt><trkpt lat="45.607870956673025" lon="9.361209039468468"><ele>185.5</ele><time>2026-05-01T05:16:18Z</time></trkpt><trkpt lat="45.60762766180659" lon="9.361305177240949"><ele>186.0</ele><time>2026-05-01T05:16:19Z</time></trkpt><trkpt lat="45.60737485545882" lon="9.361418731747401"><ele>185.0</ele><time>2026-05-01T05:16:20Z</time></trkpt><trkpt lat="45.60713340805013" lon="9.361514088197127"><ele>184.0</ele><time>2026-05-01T05:16:21Z</time></trkpt><trkpt lat="45.606890317573644" lon="9.361615911986009"><ele>183.0</ele><time>2026-05-01T05:16:22Z</time></trkpt><trkpt lat="45.60664827854561" lon="9.361712636842888"><ele>182.0</ele><time>2026-05-01T05:16:23Z</time></trkpt><trkpt lat="45.60640869103394" lon="9.361811734470594"><ele>182.0</ele><time>2026-05-01T05:16:24Z</time></trkpt><trkpt lat="45.6061695349607" lon="9.36191007722229"><ele>182.0</ele><time>2026-05-01T05:16:25Z</time></trkpt><trkpt lat="45.60592988231513" lon="9.362007135904253"><ele>184.0</ele><time>2026-05-01T05:16:26Z</time></trkpt><trkpt lat="45.6056897892804" lon="9.362104753812432"><ele>186.0</ele><time>2026-05-01T05:16:27Z</time></trkpt><trkpt lat="45.605449613642215" lon="9.362202524838738"><ele>184.5</ele><time>2026-05-01T05:16:28Z</time></trkpt><trkpt lat="45.6052079799097" lon="9.362303227866098"><ele>183.0</ele><time>2026-05-01T05:16:29Z</time></trkpt><trkpt lat="45.604967755945566" lon="9.36240618593794"><ele>183.0</ele><time>2026-05-01T05:16:30Z</time></trkpt><trkpt lat="45.60472760189827" lon="9.362507357036716"><ele>183.0</ele><time>2026-05-01T05:16:31Z</time></trkpt><trkpt lat="45.6044848750132" lon="9.362606682244124"><ele>181.0</ele><time>2026-05-01T05:16:32Z</time></trkpt><trkpt lat="45.60424102890156" lon="9.362706535001653"><ele>179.0</ele><time>2026-05-01T05:16:33Z</time></trkpt><trkpt lat="45.603997439292435" lon="9.362806892514834"><ele>179.0</ele><time>2026-05-01T05:16:34Z</time></trkpt><trkpt lat="45.60375338632917" lon="9.362909558754893"><ele>179.0</ele><time>2026-05-01T05:16:35Z</time></trkpt><trkpt lat="45.60350891981936" lon="9.363011233384578"><ele>179.5</ele><time>2026-05-01T05:16:36Z</time></trkpt><trkpt lat="45.60326273629864" lon="9.363113855336204"><ele>180.0</ele><time>2026-05-01T05:16:37Z</time></trkpt><trkpt lat="45.60301482295546" lon="9.363219042393908"><ele>179.5</ele><time>2026-05-01T05:16:38Z</time></trkpt><trkpt lat="45.602769658430795" lon="9.363316242601638"><ele>179.0</ele><time>2026-05-01T05:16:39Z</time></trkpt><trkpt lat="45.60252479320872" lon="9.363406028371228"><ele>179.0</ele><time>2026-05-01T05:16:40Z</time></trkpt><trkpt lat="45.60227907667357" lon="9.363490011361122"><ele>179.0</ele><time>2026-05-01T05:16:41Z</time></trkpt><trkpt lat="45.60203489714865" lon="9.363561952247348"><ele>178.5</ele><time>2026-05-01T05:16:42Z</time></trkpt><trkpt lat="45.601789677426574" lon="9.363617398981104"><ele>178.0</ele><time>2026-05-01T05:16:43Z</time></trkpt><trkpt lat="45.60154407792266" lon="9.363652262776718"><ele>178.0</ele><time>2026-05-01T05:16:44Z</time></trkpt><trkpt lat="45.601295856566885" lon="9.363675769486862"><ele>178.0</ele><time>2026-05-01T05:16:45Z</time></trkpt><trkpt lat="45.60104689763567" lon="9.363685211270921"><ele>180.0</ele><time>2026-05-01T05:16:46Z</time></trkpt><trkpt lat="45.60080043307936" lon="9.363678643086248"><ele>182.0</ele><time>2026-05-01T05:16:47Z</time></trkpt><trkpt lat="45.6005549329651" lon="9.363653995213959"><ele>183.5</ele><time>2026-05-01T05:16:48Z</time></trkpt><trkpt lat="45.600308211856046" lon="9.363608779689127"><ele>185.0</ele><time>2026-05-01T05:16:49Z</time></trkpt><trkpt lat="45.600062742046276" lon="9.363547232999345"><ele>185.0</ele><time>2026-05-01T05:16:50Z</time></trkpt><trkpt lat="45.59981881211562" lon="9.363475381761766"><ele>185.0</ele><time>2026-05-01T05:16:51Z</time></trkpt><trkpt lat="45.5995761730528" lon="9.363393792685892"><ele>185.0</ele><time>2026-05-01T05:16:52Z</time></trkpt><trkpt lat="45.59933427635766" lon="9.363303661272965"><ele>185.0</ele><time>2026-05-01T05:16:53Z</time></trkpt><trkpt lat="45.59909293027048" lon="9.363203744543515"><ele>185.0</ele><time>2026-05-01T05:16:54Z</time></trkpt><trkpt lat="45.59885269697726" lon="9.363096981344013"><ele>185.0</ele><time>2026-05-01T05:16:55Z</time></trkpt><trkpt lat="45.59861237876105" lon="9.36298999195669"><ele>183.5</ele><time>2026-05-01T05:16:56Z</time></trkpt><trkpt lat="45.59837208911146" lon="9.362883920347459"><ele>182.0</ele><time>2026-05-01T05:16:57Z</time></trkpt><trkpt lat="45.59813062068804" lon="9.362778851108626"><ele>182.0</ele><time>2026-05-01T05:16:58Z</time></trkpt><trkpt lat="45.59788940625928" lon="9.362673438630106"><ele>182.0</ele><time>2026-05-01T05:16:59Z</time></trkpt><trkpt lat="45.597648065195784" lon="9.362568634958409"><ele>182.0</ele><time>2026-05-01T05:17:00Z</time></trkpt><trkpt lat="45.59740718561071" lon="9.36246578613462"><ele>182.0</ele><time>2026-05-01T05:17:01Z</time></trkpt><trkpt lat="45.59716782232437" lon="9.362366043194289"><ele>181.5</ele><time>2026-05-01T05:17:02Z</time></trkpt><trkpt lat="45.59692822065021" lon="9.362273076378164"><ele>181.0</ele><time>2026-05-01T05:17:03Z</time></trkpt><trkpt lat="45.596689384461456" lon="9.362178715925321"><ele>181.0</ele><time>2026-05-01T05:17:04Z</time></trkpt><trkpt lat="45.59644811044874" lon="9.362075556468413"><ele>181.0</ele><time>2026-05-01T05:17:05Z</time></trkpt><trkpt lat="45.59621158957881" lon="9.361959292174548"><ele>180.0</ele><time>2026-05-01T05:17:06Z</time></trkpt><trkpt lat="45.59597870035735" lon="9.361827219394575"><ele>179.0</ele><time>2026-05-01T05:17:07Z</time></trkpt><trkpt lat="45.595745608224135" lon="9.361680022342737"><ele>179.0</ele><time>2026-05-01T05:17:08Z</time></trkpt><trkpt lat="45.595514830146065" lon="9.361519252457589"><ele>179.0</ele><time>2026-05-01T05:17:09Z</time></trkpt><trkpt lat="45.59528140275055" lon="9.361348490311917"><ele>177.5</ele><time>2026-05-01T05:17:10Z</time></trkpt><trkpt lat="45.59504824712846" lon="9.361166147185006"><ele>176.0</ele><time>2026-05-01T05:17:11Z</time></trkpt><trkpt lat="45.59481754689916" lon="9.36097478455001"><ele>176.0</ele><time>2026-05-01T05:17:12Z</time></trkpt><trkpt lat="45.59458994901956" lon="9.360772738115523"><ele>176.0</ele><time>2026-05-01T05:17:13Z</time></trkpt><trkpt lat="45.59436964844661" lon="9.360553422206292"><ele>176.5</ele><time>2026-05-01T05:17:14Z</time></trkpt><trkpt lat="45.59415419456301" lon="9.360323088935303"><ele>177.0</ele><time>2026-05-01T05:17:15Z</time></trkpt><trkpt lat="45.59394339824221" lon="9.36008131503816"><ele>177.0</ele><time>2026-05-01T05:17:16Z</time></trkpt><trkpt lat="45.593737768045166" lon="9.359834295859303"><ele>177.0</ele><time>2026-05-01T05:17:17Z</time></trkpt><trkpt lat="45.59353561202999" lon="9.359581465370082"><ele>175.5</ele><time>2026-05-01T05:17:18Z</time></trkpt><trkpt lat="45.59333594143785" lon="9.359322449557315"><ele>174.0</ele><time>2026-05-01T05:17:19Z</time></trkpt><trkpt lat="45.59313917205157" lon="9.359060816717067"><ele>174.5</ele><time>2026-05-01T05:17:20Z</time></trkpt><trkpt lat="45.5929444504327" lon="9.358801283304905"><ele>175.0</ele><time>2026-05-01T05:17:21Z</time></trkpt><trkpt lat="45.59274917094969" lon="9.358541646942546"><ele>175.0</ele><time>2026-05-01T05:17:22Z</time></trkpt><trkpt lat="45.59255365077585" lon="9.358282355585253"><ele>175.0</ele><time>2026-05-01T05:17:23Z</time></trkpt><trkpt lat="45.59235914125898" lon="9.358023297451359"><ele>175.0</ele><time>2026-05-01T05:17:24Z</time></trkpt><trkpt lat="45.59216578756115" lon="9.35776401051784"><ele>175.0</ele><time>2026-05-01T05:17:25Z</time></trkpt><trkpt lat="45.59197311298289" lon="9.357502940784066"><ele>175.5</ele><time>2026-05-01T05:17:26Z</time></trkpt><trkpt lat="45.59178213949949" lon="9.357240998514056"><ele>176.0</ele><time>2026-05-01T05:17:27Z</time></trkpt><trkpt lat="45.591589311764665" lon="9.356981006922098"><ele>175.0</ele><time>2026-05-01T05:17:28Z</time></trkpt><trkpt lat="45.59139361855011" lon="9.3567262243048"><ele>174.0</ele><time>2026-05-01T05:17:29Z</time></trkpt><trkpt lat="45.59119726705959" lon="9.356469486626722"><ele>173.0</ele><time>2026-05-01T05:17:30Z</time></trkpt><trkpt lat="45.59100053538728" lon="9.35621178546913"><ele>172.0</ele><time>2026-05-01T05:17:31Z</time></trkpt><trkpt lat="45.59080491117526" lon="9.355952337344606"><ele>172.0</ele><time>2026-05-01T05:17:32Z</time></trkpt><trkpt lat="45.590609650374695" lon="9.355689910747016"><ele>172.0</ele><time>2026-05-01T05:17:33Z</time></trkpt><trkpt lat="45.59041505963201" lon="9.355426575360468"><ele>171.5</ele><time>2026-05-01T05:17:34Z</time></trkpt><trkpt lat="45.59022042558672" lon="9.355163089918415"><ele>171.0</ele><time>2026-05-01T05:17:34.999Z</time></trkpt><trkpt lat="45.59002410782993" lon="9.354898309325124"><ele>172.0</ele><time>2026-05-01T05:17:35.999Z</time></trkpt><trkpt lat="45.58982719696502" lon="9.354633724648108"><ele>173.0</ele><time>2026-05-01T05:17:36.999Z</time></trkpt><trkpt lat="45.5896288311204" lon="9.354371463867208"><ele>173.0</ele><time>2026-05-01T05:17:37.999Z</time></trkpt><trkpt lat="45.589432188856634" lon="9.354108020662931"><ele>173.0</ele><time>2026-05-01T05:17:38.999Z</time></trkpt><trkpt lat="45.5892335406514" lon="9.353843272494547"><ele>173.0</ele><time>2026-05-01T05:17:39.999Z</time></trkpt><trkpt lat="45.58903574880828" lon="9.353580596669673"><ele>173.0</ele><time>2026-05-01T05:17:40.999Z</time></trkpt><trkpt lat="45.58883812369333" lon="9.353319289411905"><ele>172.5</ele><time>2026-05-01T05:17:41.999Z</time></trkpt><trkpt lat="45.58864034877286" lon="9.353057347173731"><ele>172.0</ele><time>2026-05-01T05:17:42.999Z</time></trkpt><trkpt lat="45.58844191711201" lon="9.352794130716427"><ele>172.0</ele><time>2026-05-01T05:17:43.999Z</time></trkpt><trkpt lat="45.58824339561368" lon="9.352533248518466"><ele>172.0</ele><time>2026-05-01T05:17:44.999Z</time></trkpt><trkpt lat="45.58804661746064" lon="9.352272395209958"><ele>171.5</ele><time>2026-05-01T05:17:45.999Z</time></trkpt><trkpt lat="45.58784959154024" lon="9.352009563046574"><ele>171.0</ele><time>2026-05-01T05:17:46.999Z</time></trkpt><trkpt lat="45.58765146712223" lon="9.35174791321542"><ele>171.0</ele><time>2026-05-01T05:17:47.999Z</time></trkpt><trkpt lat="45.58745544440634" lon="9.351485093557553"><ele>171.0</ele><time>2026-05-01T05:17:48.999Z</time></trkpt><trkpt lat="45.587258840770964" lon="9.351222615425375"><ele>171.0</ele><time>2026-05-01T05:17:49.999Z</time></trkpt><trkpt lat="45.587062242837064" lon="9.35096314300057"><ele>171.0</ele><time>2026-05-01T05:17:50.999Z</time></trkpt><trkpt lat="45.58686678537841" lon="9.350704135969144"><ele>169.5</ele><time>2026-05-01T05:17:51.999Z</time></trkpt><trkpt lat="45.58667219642968" lon="9.350442196318474"><ele>168.0</ele><time>2026-05-01T05:17:52.999Z</time></trkpt><trkpt lat="45.586477705064695" lon="9.350179569372154"><ele>168.0</ele><time>2026-05-01T05:17:53.999Z</time></trkpt><trkpt lat="45.58628367020706" lon="9.349918746345551"><ele>168.0</ele><time>2026-05-01T05:17:54.999Z</time></trkpt><trkpt lat="45.58608956248038" lon="9.349659852665653"><ele>168.5</ele><time>2026-05-01T05:17:55.999Z</time></trkpt><trkpt lat="45.58589668845474" lon="9.349402784912101"><ele>169.0</ele><time>2026-05-01T05:17:56.999Z</time></trkpt><trkpt lat="45.58570352408397" lon="9.349145010374555"><ele>169.0</ele><time>2026-05-01T05:17:57.999Z</time></trkpt><trkpt lat="45.5855101399466" lon="9.34888709367568"><ele>169.0</ele><time>2026-05-01T05:17:58.999Z</time></trkpt><trkpt lat="45.585316081990804" lon="9.348627697925972"><ele>168.5</ele><time>2026-05-01T05:17:59.999Z</time></trkpt><trkpt lat="45.58512297935174" lon="9.348368444134683"><ele>168.0</ele><time>2026-05-01T05:18:00.999Z</time></trkpt><trkpt lat="45.58493115333621" lon="9.348109694038973"><ele>167.0</ele><time>2026-05-01T05:18:01.999Z</time></trkpt><trkpt lat="45.58473812182652" lon="9.347850318950478"><ele>166.0</ele><time>2026-05-01T05:18:02.999Z</time></trkpt><trkpt lat="45.58454419067321" lon="9.34759285559872"><ele>166.5</ele><time>2026-05-01T05:18:03.999Z</time></trkpt><trkpt lat="45.58434906849822" lon="9.347333590940918"><ele>167.0</ele><time>2026-05-01T05:18:04.999Z</time></trkpt><trkpt lat="45.584153802470325" lon="9.347076024085887"><ele>167.0</ele><time>2026-05-01T05:18:05.999Z</time></trkpt><trkpt lat="45.58395535236197" lon="9.346821393890371"><ele>167.0</ele><time>2026-05-01T05:18:06.999Z</time></trkpt><trkpt lat="45.58375318964786" lon="9.346570240580832"><ele>166.5</ele><time>2026-05-01T05:18:07.999Z</time></trkpt><trkpt lat="45.583546584454204" lon="9.346326932997371"><ele>166.0</ele><time>2026-05-01T05:18:08.999Z</time></trkpt><trkpt lat="45.583337212039474" lon="9.34609061457027"><ele>166.0</ele><time>2026-05-01T05:18:09.999Z</time></trkpt><trkpt lat="45.58312266896742" lon="9.345860513131392"><ele>166.0</ele><time>2026-05-01T05:18:10.999Z</time></trkpt><trkpt lat="45.58290658851024" lon="9.345635077817125"><ele>165.0</ele><time>2026-05-01T05:18:11.999Z</time></trkpt><trkpt lat="45.58268795017788" lon="9.34541256569336"><ele>164.0</ele><time>2026-05-01T05:18:12.999Z</time></trkpt><trkpt lat="45.58246457889414" lon="9.345195507209565"><ele>164.0</ele><time>2026-05-01T05:18:13.999Z</time></trkpt><trkpt lat="45.58223914350412" lon="9.34498554956304"><ele>164.0</ele><time>2026-05-01T05:18:14.999Z</time></trkpt><trkpt lat="45.582011415645155" lon="9.344780890788185"><ele>164.0</ele><time>2026-05-01T05:18:16Z</time></trkpt><trkpt lat="45.58177978108875" lon="9.344582441338453"><ele>164.0</ele><time>2026-05-01T05:18:17Z</time></trkpt><trkpt lat="45.58154334176005" lon="9.344395887833528"><ele>164.0</ele><time>2026-05-01T05:18:18Z</time></trkpt><trkpt lat="45.58130585274908" lon="9.344218839929443"><ele>164.0</ele><time>2026-05-01T05:18:19Z</time></trkpt><trkpt lat="45.58106417880981" lon="9.34404436413929"><ele>164.0</ele><time>2026-05-01T05:18:20Z</time></trkpt><trkpt lat="45.58082141377307" lon="9.34387571859656"><ele>164.0</ele><time>2026-05-01T05:18:21Z</time></trkpt><trkpt lat="45.580577430757714" lon="9.34371411846645"><ele>165.0</ele><time>2026-05-01T05:18:22Z</time></trkpt><trkpt lat="45.58032928696396" lon="9.343559117370825"><ele>166.0</ele><time>2026-05-01T05:18:23Z</time></trkpt><trkpt lat="45.580080882479876" lon="9.343411517284666"><ele>166.0</ele><time>2026-05-01T05:18:24Z</time></trkpt><trkpt lat="45.579829821551115" lon="9.343272401271335"><ele>166.0</ele><time>2026-05-01T05:18:25Z</time></trkpt><trkpt lat="45.57957498029295" lon="9.343137535529799"><ele>163.5</ele><time>2026-05-01T05:18:26Z</time></trkpt><trkpt lat="45.57932030209264" lon="9.34301086605539"><ele>161.0</ele><time>2026-05-01T05:18:27Z</time></trkpt><trkpt lat="45.57906380451412" lon="9.342889699553128"><ele>161.0</ele><time>2026-05-01T05:18:28Z</time></trkpt><trkpt lat="45.57880855419092" lon="9.342773622009751"><ele>161.0</ele><time>2026-05-01T05:18:29Z</time></trkpt><trkpt lat="45.57854937924164" lon="9.342657409515907"><ele>162.0</ele><time>2026-05-01T05:18:30Z</time></trkpt><trkpt lat="45.57829042232887" lon="9.342543664002402"><ele>163.0</ele><time>2026-05-01T05:18:31Z</time></trkpt><trkpt lat="45.578032222088325" lon="9.342429562220532"><ele>163.5</ele><time>2026-05-01T05:18:32Z</time></trkpt><trkpt lat="45.577775028404105" lon="9.342316032832574"><ele>164.0</ele><time>2026-05-01T05:18:33Z</time></trkpt><trkpt lat="45.577516798970315" lon="9.342200417240804"><ele>164.0</ele><time>2026-05-01T05:18:34Z</time></trkpt><trkpt lat="45.57725770314475" lon="9.34208430913309"><ele>164.0</ele><time>2026-05-01T05:18:35Z</time></trkpt><trkpt lat="45.577000639934404" lon="9.341969966455794"><ele>164.0</ele><time>2026-05-01T05:18:36Z</time></trkpt><trkpt lat="45.57674541944583" lon="9.341856259435538"><ele>164.0</ele><time>2026-05-01T05:18:37Z</time></trkpt><trkpt lat="45.57649237884203" lon="9.341743137145091"><ele>164.0</ele><time>2026-05-01T05:18:38Z</time></trkpt><trkpt lat="45.5762423299122" lon="9.341629873687376"><ele>164.0</ele><time>2026-05-01T05:18:39Z</time></trkpt><trkpt lat="45.575996567977676" lon="9.341516557923491"><ele>163.0</ele><time>2026-05-01T05:18:40Z</time></trkpt><trkpt lat="45.57575593065126" lon="9.341399692140168"><ele>162.0</ele><time>2026-05-01T05:18:41Z</time></trkpt><trkpt lat="45.575516610767416" lon="9.341279724507297"><ele>161.0</ele><time>2026-05-01T05:18:42Z</time></trkpt><trkpt lat="45.57528428495083" lon="9.341157703632627"><ele>160.0</ele><time>2026-05-01T05:18:43Z</time></trkpt><trkpt lat="45.575058089317366" lon="9.341034039944773"><ele>160.0</ele><time>2026-05-01T05:18:44Z</time></trkpt><trkpt lat="45.57484513518995" lon="9.340914019397982"><ele>160.0</ele><time>2026-05-01T05:18:45Z</time></trkpt><trkpt lat="45.574644838293196" lon="9.340802793913518"><ele>160.0</ele><time>2026-05-01T05:18:46Z</time></trkpt><trkpt lat="45.57445217443129" lon="9.340696193649903"><ele>160.0</ele><time>2026-05-01T05:18:47Z</time></trkpt><trkpt lat="45.574271142702884" lon="9.340595257909273"><ele>160.0</ele><time>2026-05-01T05:18:48Z</time></trkpt><trkpt lat="45.574108728095176" lon="9.340503236515755"><ele>160.0</ele><time>2026-05-01T05:18:49Z</time></trkpt><trkpt lat="45.57395930425429" lon="9.340417182863355"><ele>160.5</ele><time>2026-05-01T05:18:50Z</time></trkpt><trkpt lat="45.57383116657551" lon="9.34033263823908"><ele>161.0</ele><time>2026-05-01T05:18:51Z</time></trkpt><trkpt lat="45.57372508384315" lon="9.340236101408614"><ele>161.5</ele><time>2026-05-01T05:18:52Z</time></trkpt><trkpt lat="45.57365844402885" lon="9.34011034160565"><ele>162.0</ele><time>2026-05-01T05:18:53Z</time></trkpt><trkpt lat="45.573634513141" lon="9.339959902931279"><ele>162.0</ele><time>2026-05-01T05:18:54Z</time></trkpt><trkpt lat="45.57364612245186" lon="9.339806605348853"><ele>162.0</ele><time>2026-05-01T05:18:55Z</time></trkpt><trkpt lat="45.57367644003367" lon="9.33965595095398"><ele>162.0</ele><time>2026-05-01T05:18:56Z</time></trkpt><trkpt lat="45.57375693991058" lon="9.339526082940507"><ele>162.0</ele><time>2026-05-01T05:18:57Z</time></trkpt><trkpt lat="45.57388245032877" lon="9.339501478252005"><ele>162.0</ele><time>2026-05-01T05:18:58Z</time></trkpt><trkpt lat="45.573993407060904" lon="9.339499949701333"><ele>162.0</ele><time>2026-05-01T05:18:59Z</time></trkpt><trkpt lat="45.57409901531319" lon="9.339550465588882"><ele>162.0</ele><time>2026-05-01T05:19:00Z</time></trkpt><trkpt lat="45.57419516108502" lon="9.339640238477173"><ele>162.0</ele><time>2026-05-01T05:19:01Z</time></trkpt><trkpt lat="45.57428435084931" lon="9.339749581611006"><ele>162.0</ele><time>2026-05-01T05:19:02Z</time></trkpt><trkpt lat="45.574370685172376" lon="9.339864830525647"><ele>162.0</ele><time>2026-05-01T05:19:03Z</time></trkpt><trkpt lat="45.57445902859946" lon="9.339980163317616"><ele>162.0</ele><time>2026-05-01T05:19:04Z</time></trkpt><trkpt lat="45.57455220478285" lon="9.340088581641192"><ele>162.0</ele><time>2026-05-01T05:19:05Z</time></trkpt><trkpt lat="45.57464817780508" lon="9.340189857226008"><ele>162.0</ele><time>2026-05-01T05:19:06Z</time></trkpt><trkpt lat="45.574741758608035" lon="9.340292151919003"><ele>162.0</ele><time>2026-05-01T05:19:07Z</time></trkpt><trkpt lat="45.574822118376055" lon="9.34039917663223"><ele>162.0</ele><time>2026-05-01T05:19:08Z</time></trkpt><trkpt lat="45.57487864927502" lon="9.340522970755739"><ele>162.0</ele><time>2026-05-01T05:19:09Z</time></trkpt><trkpt lat="45.57490806053855" lon="9.340657641616636"><ele>162.0</ele><time>2026-05-01T05:19:10Z</time></trkpt><trkpt lat="45.574892804264735" lon="9.340808251932895"><ele>161.5</ele><time>2026-05-01T05:19:11Z</time></trkpt><trkpt lat="45.574857009047484" lon="9.340965585508266"><ele>161.0</ele><time>2026-05-01T05:19:12Z</time></trkpt><trkpt lat="45.57480800481552" lon="9.341127572926556"><ele>160.5</ele><time>2026-05-01T05:19:13Z</time></trkpt><trkpt lat="45.574760474569665" lon="9.341294228391899"><ele>160.0</ele><time>2026-05-01T05:19:14Z</time></trkpt><trkpt lat="45.57471241630273" lon="9.341462547447826"><ele>159.75</ele><time>2026-05-01T05:19:15Z</time></trkpt><trkpt lat="45.574662081427206" lon="9.34165278379622"><ele>159.5</ele><time>2026-05-01T05:19:16Z</time></trkpt><trkpt lat="45.574592681512364" lon="9.341842725952517"><ele>159.25</ele><time>2026-05-01T05:19:17Z</time></trkpt><trkpt lat="45.57451681940102" lon="9.342032309900238"><ele>159.0</ele><time>2026-05-01T05:19:18Z</time></trkpt><trkpt lat="45.57442577901558" lon="9.342212071000407"><ele>158.66666666666666</ele><time>2026-05-01T05:19:19Z</time></trkpt><trkpt lat="45.5743168203596" lon="9.342380928775883"><ele>158.33333333333331</ele><time>2026-05-01T05:19:20Z</time></trkpt><trkpt lat="45.574189247810594" lon="9.342529791339935"><ele>158.0</ele><time>2026-05-01T05:19:21Z</time></trkpt><trkpt lat="45.57405141837132" lon="9.34266648456584"><ele>158.0</ele><time>2026-05-01T05:19:22Z</time></trkpt><trkpt lat="45.57391538485951" lon="9.342794849530906"><ele>158.0</ele><time>2026-05-01T05:19:23Z</time></trkpt><trkpt lat="45.573779332320505" lon="9.342943209537616"><ele>158.0</ele><time>2026-05-01T05:19:24Z</time></trkpt><trkpt lat="45.57365208704669" lon="9.343095635157594"><ele>158.66666666666666</ele><time>2026-05-01T05:19:25Z</time></trkpt><trkpt lat="45.57352795797903" lon="9.343263344899281"><ele>159.33333333333334</ele><time>2026-05-01T05:19:26Z</time></trkpt><trkpt lat="45.573404245986616" lon="9.343433617825262"><ele>160.0</ele><time>2026-05-01T05:19:27Z</time></trkpt><trkpt lat="45.57327946563699" lon="9.343599574963388"><ele>160.0</ele><time>2026-05-01T05:19:28Z</time></trkpt><trkpt lat="45.57315383287811" lon="9.343758041180552"><ele>160.0</ele><time>2026-05-01T05:19:29Z</time></trkpt><trkpt lat="45.57302495771291" lon="9.343914139178338"><ele>160.0</ele><time>2026-05-01T05:19:30Z</time></trkpt><trkpt lat="45.572887030144294" lon="9.34406119895103"><ele>159.33333333333334</ele><time>2026-05-01T05:19:31Z</time></trkpt><trkpt lat="45.57274069750765" lon="9.344200776076388"><ele>158.66666666666666</ele><time>2026-05-01T05:19:32Z</time></trkpt><trkpt lat="45.57259384857585" lon="9.344337201664192"><ele>158.0</ele><time>2026-05-01T05:19:33Z</time></trkpt><trkpt lat="45.57244543171073" lon="9.344464183383453"><ele>158.0</ele><time>2026-05-01T05:19:34Z</time></trkpt><trkpt lat="45.572304856621955" lon="9.344600684574687"><ele>158.0</ele><time>2026-05-01T05:19:35Z</time></trkpt><trkpt lat="45.57216007451536" lon="9.344731140855394"><ele>158.0</ele><time>2026-05-01T05:19:36Z</time></trkpt><trkpt lat="45.57201583934732" lon="9.344858695024339"><ele>159.33333333333331</ele><time>2026-05-01T05:19:37Z</time></trkpt><trkpt lat="45.57187412214783" lon="9.344981897803894"><ele>160.66666666666666</ele><time>2026-05-01T05:19:38Z</time></trkpt><trkpt lat="45.57173424770204" lon="9.345105629802035"><ele>162.0</ele><time>2026-05-01T05:19:39Z</time></trkpt><trkpt lat="45.57159864042163" lon="9.345216778448687"><ele>162.0</ele><time>2026-05-01T05:19:40Z</time></trkpt><trkpt lat="45.571453760408374" lon="9.3453195106033"><ele>162.0</ele><time>2026-05-01T05:19:41Z</time></trkpt><trkpt lat="45.57130675567728" lon="9.34541026796034"><ele>162.0</ele><time>2026-05-01T05:19:42Z</time></trkpt><trkpt lat="45.571153847062654" lon="9.345485899696582"><ele>161.0</ele><time>2026-05-01T05:19:43Z</time></trkpt><trkpt lat="45.571002074302434" lon="9.345563996017342"><ele>160.0</ele><time>2026-05-01T05:19:43.999Z</time></trkpt><trkpt lat="45.570848273567876" lon="9.345631601728801"><ele>159.0</ele><time>2026-05-01T05:19:44.999Z</time></trkpt><trkpt lat="45.57069175947318" lon="9.345695513945984"><ele>159.0</ele><time>2026-05-01T05:19:45.999Z</time></trkpt><trkpt lat="45.570536675264385" lon="9.345748171727774"><ele>159.0</ele><time>2026-05-01T05:19:46.999Z</time></trkpt><trkpt lat="45.570381913048706" lon="9.345798568151785"><ele>159.0</ele><time>2026-05-01T05:19:47.999Z</time></trkpt><trkpt lat="45.57022006916446" lon="9.34583736843784"><ele>159.0</ele><time>2026-05-01T05:19:48.999Z</time></trkpt><trkpt lat="45.57006193977789" lon="9.34587817594063"><ele>159.0</ele><time>2026-05-01T05:19:49.999Z</time></trkpt><trkpt lat="45.56990529380068" lon="9.345922297899753"><ele>159.0</ele><time>2026-05-01T05:19:50.999Z</time></trkpt><trkpt lat="45.569747245366756" lon="9.345973188543663"><ele>159.0</ele><time>2026-05-01T05:19:51.999Z</time></trkpt><trkpt lat="45.5695891713746" lon="9.34602867373835"><ele>159.0</ele><time>2026-05-01T05:19:52.999Z</time></trkpt><trkpt lat="45.56942418963679" lon="9.346084099110223"><ele>159.0</ele><time>2026-05-01T05:19:53.999Z</time></trkpt><trkpt lat="45.56925878982539" lon="9.34614797369812"><ele>159.33333333333334</ele><time>2026-05-01T05:19:54.999Z</time></trkpt><trkpt lat="45.56908783265919" lon="9.346221763930298"><ele>159.66666666666669</ele><time>2026-05-01T05:19:55.999Z</time></trkpt><trkpt lat="45.56891702328846" lon="9.346307005215873"><ele>160.0</ele><time>2026-05-01T05:19:56.999Z</time></trkpt><trkpt lat="45.56874611042084" lon="9.346401647339494"><ele>160.66666666666669</ele><time>2026-05-01T05:19:57.999Z</time></trkpt><trkpt lat="45.56857594991283" lon="9.346498065697942"><ele>161.33333333333334</ele><time>2026-05-01T05:19:58.999Z</time></trkpt><trkpt lat="45.56840120709809" lon="9.346587700477036"><ele>162.0</ele><time>2026-05-01T05:19:59.999Z</time></trkpt><trkpt lat="45.568228691885146" lon="9.34666566708901"><ele>162.0</ele><time>2026-05-01T05:20:00.999Z</time></trkpt><trkpt lat="45.56806186705182" lon="9.346733076643108"><ele>162.0</ele><time>2026-05-01T05:20:01.999Z</time></trkpt><trkpt lat="45.5679025754034" lon="9.346783254353477"><ele>162.0</ele><time>2026-05-01T05:20:02.999Z</time></trkpt><trkpt lat="45.567752154899146" lon="9.34681775213963"><ele>161.5</ele><time>2026-05-01T05:20:03.999Z</time></trkpt><trkpt lat="45.56760775982606" lon="9.346852334432588"><ele>161.0</ele><time>2026-05-01T05:20:04.999Z</time></trkpt><trkpt lat="45.567471930781394" lon="9.34689385488142"><ele>160.5</ele><time>2026-05-01T05:20:05.999Z</time></trkpt><trkpt lat="45.56733242139338" lon="9.346928950389236"><ele>160.0</ele><time>2026-05-01T05:20:06.999Z</time></trkpt><trkpt lat="45.56718815091951" lon="9.346960031783546"><ele>160.0</ele><time>2026-05-01T05:20:07.999Z</time></trkpt><trkpt lat="45.56704122883842" lon="9.346973143989999"><ele>160.0</ele><time>2026-05-01T05:20:08.999Z</time></trkpt><trkpt lat="45.566889167389334" lon="9.346975048967954"><ele>160.0</ele><time>2026-05-01T05:20:09.999Z</time></trkpt><trkpt lat="45.566734174318206" lon="9.346962785919384"><ele>159.66666666666669</ele><time>2026-05-01T05:20:10.999Z</time></trkpt><trkpt lat="45.56657718705691" lon="9.346943321970487"><ele>159.33333333333334</ele><time>2026-05-01T05:20:11.999Z</time></trkpt><trkpt lat="45.56641649736774" lon="9.346921560034842"><ele>159.0</ele><time>2026-05-01T05:20:12.999Z</time></trkpt><trkpt lat="45.56625462128835" lon="9.34688910078057"><ele>158.0</ele><time>2026-05-01T05:20:13.999Z</time></trkpt><trkpt lat="45.566099609235174" lon="9.346847567506089"><ele>157.0</ele><time>2026-05-01T05:20:14.999Z</time></trkpt><trkpt lat="45.56595067806596" lon="9.346799407350735"><ele>156.0</ele><time>2026-05-01T05:20:15.999Z</time></trkpt><trkpt lat="45.56581278025323" lon="9.346757035862243"><ele>156.0</ele><time>2026-05-01T05:20:16.999Z</time></trkpt><trkpt lat="45.56568797081326" lon="9.346719638308805"><ele>156.0</ele><time>2026-05-01T05:20:17.999Z</time></trkpt><trkpt lat="45.56557277095275" lon="9.34668814549192"><ele>156.0</ele><time>2026-05-01T05:20:18.999Z</time></trkpt><trkpt lat="45.565478015159506" lon="9.34666039492333"><ele>156.0</ele><time>2026-05-01T05:20:19.999Z</time></trkpt><trkpt lat="45.56538524604213" lon="9.346625632621437"><ele>156.0</ele><time>2026-05-01T05:20:20.999Z</time></trkpt><trkpt lat="45.565300103978856" lon="9.346576138826"><ele>155.75</ele><time>2026-05-01T05:20:22Z</time></trkpt><trkpt lat="45.56520531067418" lon="9.346502476880753"><ele>155.5</ele><time>2026-05-01T05:20:23Z</time></trkpt><trkpt lat="45.56510223061524" lon="9.346400738125858"><ele>155.25</ele><time>2026-05-01T05:20:24Z</time></trkpt><trkpt lat="45.564990273238884" lon="9.346284921923319"><ele>155.0</ele><time>2026-05-01T05:20:25Z</time></trkpt><trkpt lat="45.56487586654105" lon="9.346150795203007"><ele>155.66666666666666</ele><time>2026-05-01T05:20:26Z</time></trkpt><trkpt lat="45.564763494049735" lon="9.346002527314509"><ele>156.33333333333334</ele><time>2026-05-01T05:20:27Z</time></trkpt><trkpt lat="45.56465659850173" lon="9.345832496369587"><ele>157.0</ele><time>2026-05-01T05:20:28Z</time></trkpt><trkpt lat="45.56453908135133" lon="9.34565957652321"><ele>156.0</ele><time>2026-05-01T05:20:29Z</time></trkpt><trkpt lat="45.564458964536804" lon="9.345435590220115"><ele>155.0</ele><time>2026-05-01T05:20:30Z</time></trkpt><trkpt lat="45.564369603646455" lon="9.34522837822408"><ele>154.0</ele><time>2026-05-01T05:20:31Z</time></trkpt><trkpt lat="45.56427961611196" lon="9.34502135821137"><ele>154.0</ele><time>2026-05-01T05:20:32Z</time></trkpt><trkpt lat="45.564187728486" lon="9.344811867792519"><ele>154.0</ele><time>2026-05-01T05:20:33Z</time></trkpt><trkpt lat="45.56409454153912" lon="9.344599222637678"><ele>154.0</ele><time>2026-05-01T05:20:34Z</time></trkpt><trkpt lat="45.56399925420741" lon="9.344381114857072"><ele>153.33333333333334</ele><time>2026-05-01T05:20:35Z</time></trkpt><trkpt lat="45.563900174551" lon="9.34416148363964"><ele>152.66666666666666</ele><time>2026-05-01T05:20:36Z</time></trkpt><trkpt lat="45.5638045484693" lon="9.343941426653597"><ele>152.0</ele><time>2026-05-01T05:20:37Z</time></trkpt><trkpt lat="45.56370627964692" lon="9.343721968325545"><ele>153.66666666666666</ele><time>2026-05-01T05:20:38Z</time></trkpt><trkpt lat="45.5636098557196" lon="9.343511423761761"><ele>155.33333333333334</ele><time>2026-05-01T05:20:39Z</time></trkpt><trkpt lat="45.563515067143705" lon="9.343312462153646"><ele>157.0</ele><time>2026-05-01T05:20:40Z</time></trkpt><trkpt lat="45.563436546061794" lon="9.34313439697359"><ele>157.0</ele><time>2026-05-01T05:20:41Z</time></trkpt><trkpt lat="45.563371052295274" lon="9.342953137796009"><ele>157.0</ele><time>2026-05-01T05:20:42Z</time></trkpt><trkpt lat="45.563339930325384" lon="9.34276650059859"><ele>157.0</ele><time>2026-05-01T05:20:43Z</time></trkpt><trkpt lat="45.563362836092864" lon="9.342582045633417"><ele>157.0</ele><time>2026-05-01T05:20:44Z</time></trkpt><trkpt lat="45.563322258891944" lon="9.342410850256902"><ele>157.0</ele><time>2026-05-01T05:20:45Z</time></trkpt><trkpt lat="45.56323924744873" lon="9.342271106942723"><ele>157.0</ele><time>2026-05-01T05:20:46Z</time></trkpt><trkpt lat="45.56311765898479" lon="9.3421571436076"><ele>157.0</ele><time>2026-05-01T05:20:47Z</time></trkpt><trkpt lat="45.56301099985699" lon="9.342013055151684"><ele>157.0</ele><time>2026-05-01T05:20:48Z</time></trkpt><trkpt lat="45.56292991929" lon="9.341818875535967"><ele>156.0</ele><time>2026-05-01T05:20:49Z</time></trkpt><trkpt lat="45.562851360868734" lon="9.34161529010057"><ele>155.0</ele><time>2026-05-01T05:20:50Z</time></trkpt><trkpt lat="45.56276371230956" lon="9.341408065405142"><ele>154.0</ele><time>2026-05-01T05:20:51Z</time></trkpt><trkpt lat="45.56266891641061" lon="9.341197378936219"><ele>154.0</ele><time>2026-05-01T05:20:52Z</time></trkpt><trkpt lat="45.5625709050187" lon="9.340980813138518"><ele>154.0</ele><time>2026-05-01T05:20:53Z</time></trkpt><trkpt lat="45.562471405141565" lon="9.340759633368805"><ele>154.0</ele><time>2026-05-01T05:20:54Z</time></trkpt><trkpt lat="45.562370023426276" lon="9.340533075305999"><ele>154.0</ele><time>2026-05-01T05:20:55Z</time></trkpt><trkpt lat="45.562269399081416" lon="9.340304884312117"><ele>154.0</ele><time>2026-05-01T05:20:56Z</time></trkpt><trkpt lat="45.56217087829267" lon="9.340085175779716"><ele>154.0</ele><time>2026-05-01T05:20:57Z</time></trkpt><trkpt lat="45.56207071037522" lon="9.339881536838543"><ele>154.33333333333334</ele><time>2026-05-01T05:20:58Z</time></trkpt><trkpt lat="45.56197054468721" lon="9.339697203268948"><ele>154.66666666666666</ele><time>2026-05-01T05:20:59Z</time></trkpt><trkpt lat="45.56187161581804" lon="9.339527734210082"><ele>155.0</ele><time>2026-05-01T05:21:00Z</time></trkpt><trkpt lat="45.561772718068" lon="9.33936522867347"><ele>155.0</ele><time>2026-05-01T05:21:01Z</time></trkpt><trkpt lat="45.56166851137027" lon="9.339205259403235"><ele>155.0</ele><time>2026-05-01T05:21:02Z</time></trkpt><trkpt lat="45.561559965026966" lon="9.339050349774467"><ele>155.0</ele><time>2026-05-01T05:21:03Z</time></trkpt><trkpt lat="45.561447171581015" lon="9.338902730453068"><ele>155.0</ele><time>2026-05-01T05:21:04Z</time></trkpt><trkpt lat="45.561329582250494" lon="9.33876326642155"><ele>155.0</ele><time>2026-05-01T05:21:05Z</time></trkpt><trkpt lat="45.561213036704224" lon="9.338625674599879"><ele>155.0</ele><time>2026-05-01T05:21:06Z</time></trkpt><trkpt lat="45.561092747618915" lon="9.338493566516915"><ele>154.33333333333331</ele><time>2026-05-01T05:21:07Z</time></trkpt><trkpt lat="45.56096718216916" lon="9.33836033460975"><ele>153.66666666666666</ele><time>2026-05-01T05:21:08Z</time></trkpt><trkpt lat="45.56083880322945" lon="9.338228959349909"><ele>153.0</ele><time>2026-05-01T05:21:09Z</time></trkpt><trkpt lat="45.56070829689763" lon="9.338099154439167"><ele>153.0</ele><time>2026-05-01T05:21:10Z</time></trkpt><trkpt lat="45.560578993815426" lon="9.337973339649706"><ele>153.0</ele><time>2026-05-01T05:21:11Z</time></trkpt><trkpt lat="45.560451743455765" lon="9.337847598186254"><ele>153.0</ele><time>2026-05-01T05:21:12Z</time></trkpt><trkpt lat="45.56032304800522" lon="9.33771757263481"><ele>153.0</ele><time>2026-05-01T05:21:13Z</time></trkpt><trkpt lat="45.56019158303805" lon="9.33758175330778"><ele>153.0</ele><time>2026-05-01T05:21:14Z</time></trkpt><trkpt lat="45.56005270411782" lon="9.337442921377306"><ele>153.0</ele><time>2026-05-01T05:21:15Z</time></trkpt><trkpt lat="45.559910655500424" lon="9.337304092943778"><ele>153.0</ele><time>2026-05-01T05:21:16Z</time></trkpt><trkpt lat="45.559765277678636" lon="9.337157589825877"><ele>153.0</ele><time>2026-05-01T05:21:17Z</time></trkpt><trkpt lat="45.5596166581509" lon="9.337007825717306"><ele>153.0</ele><time>2026-05-01T05:21:18Z</time></trkpt><trkpt lat="45.55946283922266" lon="9.336855513251832"><ele>152.33333333333334</ele><time>2026-05-01T05:21:19Z</time></trkpt><trkpt lat="45.5592990564088" lon="9.336698979999193"><ele>151.66666666666669</ele><time>2026-05-01T05:21:20Z</time></trkpt><trkpt lat="45.55913995575693" lon="9.336537676848508"><ele>151.0</ele><time>2026-05-01T05:21:21Z</time></trkpt><trkpt lat="45.5589778726489" lon="9.336371800543608"><ele>151.0</ele><time>2026-05-01T05:21:22Z</time></trkpt><trkpt lat="45.55881574362768" lon="9.336203800628368"><ele>151.0</ele><time>2026-05-01T05:21:23Z</time></trkpt><trkpt lat="45.558652485159946" lon="9.336037419574138"><ele>151.0</ele><time>2026-05-01T05:21:24Z</time></trkpt><trkpt lat="45.558487883605004" lon="9.335870083751686"><ele>151.33333333333334</ele><time>2026-05-01T05:21:25Z</time></trkpt><trkpt lat="45.558333988841596" lon="9.335684194230554"><ele>151.66666666666666</ele><time>2026-05-01T05:21:26Z</time></trkpt><trkpt lat="45.55817052440787" lon="9.33551434844161"><ele>152.0</ele><time>2026-05-01T05:21:27Z</time></trkpt><trkpt lat="45.557999582092826" lon="9.335358716123874"><ele>151.33333333333331</ele><time>2026-05-01T05:21:28Z</time></trkpt><trkpt lat="45.557838680839424" lon="9.335184213810432"><ele>150.66666666666666</ele><time>2026-05-01T05:21:29Z</time></trkpt><trkpt lat="45.55768096333862" lon="9.335010695348327"><ele>150.0</ele><time>2026-05-01T05:21:30Z</time></trkpt><trkpt lat="45.557519857130785" lon="9.334833842142862"><ele>150.0</ele><time>2026-05-01T05:21:31Z</time></trkpt><trkpt lat="45.55735834830297" lon="9.334663014847727"><ele>150.0</ele><time>2026-05-01T05:21:32Z</time></trkpt><trkpt lat="45.55719331444513" lon="9.334496563183516"><ele>150.0</ele><time>2026-05-01T05:21:33Z</time></trkpt><trkpt lat="45.55703217433139" lon="9.334337008788397"><ele>150.0</ele><time>2026-05-01T05:21:34Z</time></trkpt><trkpt lat="45.55686170199812" lon="9.334173334939532"><ele>150.0</ele><time>2026-05-01T05:21:35Z</time></trkpt><trkpt lat="45.556695226207076" lon="9.33401667606564"><ele>150.0</ele><time>2026-05-01T05:21:36Z</time></trkpt><trkpt lat="45.556529848286225" lon="9.333875325331471"><ele>150.0</ele><time>2026-05-01T05:21:37Z</time></trkpt><trkpt lat="45.556355351186156" lon="9.333735817443369"><ele>150.0</ele><time>2026-05-01T05:21:38Z</time></trkpt><trkpt lat="45.5561810415806" lon="9.333604861102792"><ele>150.0</ele><time>2026-05-01T05:21:38.999Z</time></trkpt><trkpt lat="45.55600293359598" lon="9.333480200712414"><ele>149.33333333333334</ele><time>2026-05-01T05:21:39.999Z</time></trkpt><trkpt lat="45.55582141854736" lon="9.333368915669876"><ele>148.66666666666669</ele><time>2026-05-01T05:21:40.999Z</time></trkpt><trkpt lat="45.555637286184925" lon="9.333261355678857"><ele>148.0</ele><time>2026-05-01T05:21:41.999Z</time></trkpt><trkpt lat="45.55545323422411" lon="9.333151017996578"><ele>146.66666666666669</ele><time>2026-05-01T05:21:42.999Z</time></trkpt><trkpt lat="45.55527488869603" lon="9.333039773393502"><ele>145.33333333333334</ele><time>2026-05-01T05:21:43.999Z</time></trkpt><trkpt lat="45.55510618045027" lon="9.332937334125981"><ele>144.0</ele><time>2026-05-01T05:21:44.999Z</time></trkpt><trkpt lat="45.55494365355357" lon="9.332857131409469"><ele>144.0</ele><time>2026-05-01T05:21:45.999Z</time></trkpt><trkpt lat="45.554781673543275" lon="9.332812047037356"><ele>144.0</ele><time>2026-05-01T05:21:46.999Z</time></trkpt><trkpt lat="45.55462547207199" lon="9.332807239593599"><ele>144.0</ele><time>2026-05-01T05:21:47.999Z</time></trkpt><trkpt lat="45.55447348031497" lon="9.332822414107019"><ele>145.0</ele><time>2026-05-01T05:21:48.999Z</time></trkpt><trkpt lat="45.554327903306955" lon="9.332835391995252"><ele>146.0</ele><time>2026-05-01T05:21:49.999Z</time></trkpt><trkpt lat="45.55419387979956" lon="9.332848009964351"><ele>147.0</ele><time>2026-05-01T05:21:50.999Z</time></trkpt><trkpt lat="45.554070934648244" lon="9.332860043326443"><ele>148.0</ele><time>2026-05-01T05:21:51.999Z</time></trkpt><trkpt lat="45.553971507232426" lon="9.332867232957723"><ele>148.0</ele><time>2026-05-01T05:21:52.999Z</time></trkpt><trkpt lat="45.55387920084251" lon="9.3328538821235"><ele>148.0</ele><time>2026-05-01T05:21:53.999Z</time></trkpt><trkpt lat="45.55379668353614" lon="9.332804420236211"><ele>148.0</ele><time>2026-05-01T05:21:54.999Z</time></trkpt><trkpt lat="45.55371670838591" lon="9.332758143396916"><ele>148.0</ele><time>2026-05-01T05:21:55.999Z</time></trkpt><trkpt lat="45.5536519687813" lon="9.332626676637354"><ele>148.0</ele><time>2026-05-01T05:21:56.999Z</time></trkpt><trkpt lat="45.5535502326194" lon="9.332618762416141"><ele>148.20000000000002</ele><time>2026-05-01T05:21:57.999Z</time></trkpt><trkpt lat="45.55345547301239" lon="9.33267829131884"><ele>148.4</ele><time>2026-05-01T05:21:58.999Z</time></trkpt><trkpt lat="45.55337724299096" lon="9.33277358633938"><ele>148.60000000000002</ele><time>2026-05-01T05:21:59.999Z</time></trkpt><trkpt lat="45.553288389413616" lon="9.332854115430097"><ele>148.8</ele><time>2026-05-01T05:22:00.999Z</time></trkpt><trkpt lat="45.553178630149766" lon="9.332902640424646"><ele>149.0</ele><time>2026-05-01T05:22:01.999Z</time></trkpt><trkpt lat="45.55306601957431" lon="9.332937615158132"><ele>149.0</ele><time>2026-05-01T05:22:02.999Z</time></trkpt><trkpt lat="45.55294508426724" lon="9.332990307937074"><ele>149.0</ele><time>2026-05-01T05:22:03.999Z</time></trkpt><trkpt lat="45.55282561781724" lon="9.333064072049185"><ele>149.0</ele><time>2026-05-01T05:22:04.999Z</time></trkpt><trkpt lat="45.552698573893665" lon="9.333135034011386"><ele>149.0</ele><time>2026-05-01T05:22:05.999Z</time></trkpt><trkpt lat="45.55256200745794" lon="9.333185999271821"><ele>149.0</ele><time>2026-05-01T05:22:06.999Z</time></trkpt><trkpt lat="45.55241849560481" lon="9.333213215394375"><ele>149.0</ele><time>2026-05-01T05:22:07.999Z</time></trkpt><trkpt lat="45.55226838648878" lon="9.333227652186778"><ele>149.0</ele><time>2026-05-01T05:22:08.999Z</time></trkpt><trkpt lat="45.55211293080981" lon="9.333242769530466"><ele>149.0</ele><time>2026-05-01T05:22:09.999Z</time></trkpt><trkpt lat="45.55195209570616" lon="9.333259413975485"><ele>149.0</ele><time>2026-05-01T05:22:10.999Z</time></trkpt><trkpt lat="45.55178910500342" lon="9.33327802616166"><ele>149.0</ele><time>2026-05-01T05:22:11.999Z</time></trkpt><trkpt lat="45.55162196237381" lon="9.333296320474112"><ele>149.0</ele><time>2026-05-01T05:22:12.999Z</time></trkpt><trkpt lat="45.55144674191804" lon="9.3333122117542"><ele>149.0</ele><time>2026-05-01T05:22:13.999Z</time></trkpt><trkpt lat="45.551283807763866" lon="9.333335101859362"><ele>149.0</ele><time>2026-05-01T05:22:14.999Z</time></trkpt><trkpt lat="45.55111055087752" lon="9.333356458502395"><ele>148.33333333333331</ele><time>2026-05-01T05:22:15.999Z</time></trkpt><trkpt lat="45.55093939819229" lon="9.333371014716299"><ele>147.66666666666666</ele><time>2026-05-01T05:22:16.999Z</time></trkpt><trkpt lat="45.55076319805845" lon="9.33338642437017"><ele>147.0</ele><time>2026-05-01T05:22:17.999Z</time></trkpt><trkpt lat="45.55058480904685" lon="9.333403079266757"><ele>147.0</ele><time>2026-05-01T05:22:18.999Z</time></trkpt><trkpt lat="45.550407900801645" lon="9.33342040492101"><ele>147.0</ele><time>2026-05-01T05:22:19.999Z</time></trkpt><trkpt lat="45.55023465585078" lon="9.333442919770585"><ele>147.0</ele><time>2026-05-01T05:22:20.999Z</time></trkpt><trkpt lat="45.55005985010259" lon="9.333460981743032"><ele>146.33333333333334</ele><time>2026-05-01T05:22:21.999Z</time></trkpt><trkpt lat="45.54988707143845" lon="9.333481089876257"><ele>145.66666666666669</ele><time>2026-05-01T05:22:22.999Z</time></trkpt><trkpt lat="45.5497228822583" lon="9.333497859774049"><ele>145.0</ele><time>2026-05-01T05:22:23.999Z</time></trkpt><trkpt lat="45.549564638840835" lon="9.333536665199398"><ele>144.75</ele><time>2026-05-01T05:22:24.999Z</time></trkpt><trkpt lat="45.54940810493493" lon="9.333556153499538"><ele>144.5</ele><time>2026-05-01T05:22:25.999Z</time></trkpt><trkpt lat="45.54925974031287" lon="9.333488166246505"><ele>144.25</ele><time>2026-05-01T05:22:26.999Z</time></trkpt><trkpt lat="45.54912358514595" lon="9.333501489632626"><ele>144.0</ele><time>2026-05-01T05:22:28Z</time></trkpt><trkpt lat="45.54899555561112" lon="9.333503385025724"><ele>144.0</ele><time>2026-05-01T05:22:29Z</time></trkpt><trkpt lat="45.548869244725495" lon="9.33348918539882"><ele>144.0</ele><time>2026-05-01T05:22:30Z</time></trkpt><trkpt lat="45.54874887408853" lon="9.333430847029677"><ele>144.0</ele><time>2026-05-01T05:22:31Z</time></trkpt><trkpt lat="45.54866048335086" lon="9.333301332906993"><ele>144.0</ele><time>2026-05-01T05:22:32Z</time></trkpt><trkpt lat="45.54859628772637" lon="9.333122473595969"><ele>144.75</ele><time>2026-05-01T05:22:33Z</time></trkpt><trkpt lat="45.548554586494404" lon="9.332932045102691"><ele>145.5</ele><time>2026-05-01T05:22:34Z</time></trkpt><trkpt lat="45.54853746047417" lon="9.33272873382585"><ele>146.25</ele><time>2026-05-01T05:22:35Z</time></trkpt><trkpt lat="45.54853040795875" lon="9.332526170826021"><ele>147.0</ele><time>2026-05-01T05:22:36Z</time></trkpt><trkpt lat="45.54853017729093" lon="9.332318337097451"><ele>147.33333333333334</ele><time>2026-05-01T05:22:37Z</time></trkpt><trkpt lat="45.54853541660074" lon="9.332108164199111"><ele>147.66666666666669</ele><time>2026-05-01T05:22:38Z</time></trkpt><trkpt lat="45.54852120296793" lon="9.331894590945517"><ele>148.0</ele><time>2026-05-01T05:22:39Z</time></trkpt><trkpt lat="45.54850650994261" lon="9.33167658598286"><ele>148.0</ele><time>2026-05-01T05:22:40Z</time></trkpt><trkpt lat="45.548493897054605" lon="9.331457549551898"><ele>148.0</ele><time>2026-05-01T05:22:41Z</time></trkpt><trkpt lat="45.548483063407076" lon="9.33123565577927"><ele>148.0</ele><time>2026-05-01T05:22:42Z</time></trkpt><trkpt lat="45.548474161644116" lon="9.33101512906426"><ele>147.0</ele><time>2026-05-01T05:22:43Z</time></trkpt><trkpt lat="45.54846456429677" lon="9.330808170470808"><ele>146.0</ele><time>2026-05-01T05:22:44Z</time></trkpt><trkpt lat="45.54845266872512" lon="9.330617741030682"><ele>145.0</ele><time>2026-05-01T05:22:45Z</time></trkpt><trkpt lat="45.54844114787915" lon="9.330437627032216"><ele>144.0</ele><time>2026-05-01T05:22:46Z</time></trkpt><trkpt lat="45.54843236354194" lon="9.330274660624099"><ele>144.0</ele><time>2026-05-01T05:22:47Z</time></trkpt><trkpt lat="45.54842693111052" lon="9.330133086876275"><ele>144.0</ele><time>2026-05-01T05:22:48Z</time></trkpt><trkpt lat="45.54842333636969" lon="9.330006996701426"><ele>144.0</ele><time>2026-05-01T05:22:49Z</time></trkpt><trkpt lat="45.54842551592741" lon="9.32989327456471"><ele>144.0</ele><time>2026-05-01T05:22:50Z</time></trkpt><trkpt lat="45.548446550506426" lon="9.329798292196768"><ele>144.0</ele><time>2026-05-01T05:22:51Z</time></trkpt><trkpt lat="45.54849518690919" lon="9.329708410715057"><ele>144.0</ele><time>2026-05-01T05:22:52Z</time></trkpt><trkpt lat="45.54855841737858" lon="9.329615135001843"><ele>144.33333333333334</ele><time>2026-05-01T05:22:53Z</time></trkpt><trkpt lat="45.548619239667936" lon="9.329525116971313"><ele>144.66666666666666</ele><time>2026-05-01T05:22:54Z</time></trkpt><trkpt lat="45.548667157818116" lon="9.329427835554041"><ele>145.0</ele><time>2026-05-01T05:22:55Z</time></trkpt><trkpt lat="45.5486923898084" lon="9.329312255611843"><ele>145.33333333333331</ele><time>2026-05-01T05:22:56Z</time></trkpt><trkpt lat="45.54869416116554" lon="9.329181500931632"><ele>145.66666666666666</ele><time>2026-05-01T05:22:57Z</time></trkpt><trkpt lat="45.54867013885837" lon="9.329047848235128"><ele>146.0</ele><time>2026-05-01T05:22:58Z</time></trkpt><trkpt lat="45.54862239591975" lon="9.328924998202435"><ele>145.8</ele><time>2026-05-01T05:22:59Z</time></trkpt><trkpt lat="45.548559854220215" lon="9.328814574219093"><ele>145.6</ele><time>2026-05-01T05:23:00Z</time></trkpt><trkpt lat="45.54846021931261" lon="9.328762697132877"><ele>145.4</ele><time>2026-05-01T05:23:01Z</time></trkpt><trkpt lat="45.548361254290306" lon="9.328739855420169"><ele>145.2</ele><time>2026-05-01T05:23:02Z</time></trkpt><trkpt lat="45.5482625818351" lon="9.328760480889054"><ele>145.0</ele><time>2026-05-01T05:23:03Z</time></trkpt><trkpt lat="45.548169440022875" lon="9.32880543393868"><ele>145.0</ele><time>2026-05-01T05:23:04Z</time></trkpt><trkpt lat="45.548078727077005" lon="9.328859114127965"><ele>145.0</ele><time>2026-05-01T05:23:05Z</time></trkpt><trkpt lat="45.54803357170853" lon="9.32899626837753"><ele>145.0</ele><time>2026-05-01T05:23:06Z</time></trkpt><trkpt lat="45.5479897554901" lon="9.32910996464268"><ele>145.0</ele><time>2026-05-01T05:23:07Z</time></trkpt><trkpt lat="45.54795331357953" lon="9.329217831825595"><ele>145.0</ele><time>2026-05-01T05:23:08Z</time></trkpt><trkpt lat="45.547905550202856" lon="9.329292397380279"><ele>144.66666666666669</ele><time>2026-05-01T05:23:09Z</time></trkpt><trkpt lat="45.547843738562264" lon="9.329335918035767"><ele>144.33333333333334</ele><time>2026-05-01T05:23:10Z</time></trkpt><trkpt lat="45.54776662307616" lon="9.329348392434916"><ele>144.0</ele><time>2026-05-01T05:23:11Z</time></trkpt><trkpt lat="45.54768874800453" lon="9.329326014005233"><ele>143.66666666666666</ele><time>2026-05-01T05:23:12Z</time></trkpt><trkpt lat="45.54762498631011" lon="9.329262348707497"><ele>143.33333333333331</ele><time>2026-05-01T05:23:13Z</time></trkpt><trkpt lat="45.54759525374243" lon="9.329146423900372"><ele>143.0</ele><time>2026-05-01T05:23:14Z</time></trkpt><trkpt lat="45.54759389138785" lon="9.32901835331726"><ele>143.0</ele><time>2026-05-01T05:23:15Z</time></trkpt><trkpt lat="45.547607128934764" lon="9.328895207785026"><ele>143.0</ele><time>2026-05-01T05:23:16Z</time></trkpt><trkpt lat="45.54761614357412" lon="9.32877008514101"><ele>143.0</ele><time>2026-05-01T05:23:17Z</time></trkpt><trkpt lat="45.547646984433015" lon="9.328655224247349"><ele>143.0</ele><time>2026-05-01T05:23:18Z</time></trkpt><trkpt lat="45.54760580358375" lon="9.328514536455714"><ele>143.0</ele><time>2026-05-01T05:23:19Z</time></trkpt><trkpt lat="45.54757682423667" lon="9.32839939673729"><ele>142.8</ele><time>2026-05-01T05:23:20Z</time></trkpt><trkpt lat="45.54751233324402" lon="9.32831901384589"><ele>142.60000000000002</ele><time>2026-05-01T05:23:21Z</time></trkpt><trkpt lat="45.54742171110139" lon="9.328293325514636"><ele>142.39999999999998</ele><time>2026-05-01T05:23:22Z</time></trkpt><trkpt lat="45.547318888320845" lon="9.328304429932702"><ele>142.2</ele><time>2026-05-01T05:23:23Z</time></trkpt><trkpt lat="45.5472189592663" lon="9.3283323497451"><ele>142.0</ele><time>2026-05-01T05:23:24Z</time></trkpt><trkpt lat="45.54711153100844" lon="9.328370335857556"><ele>141.79999999999998</ele><time>2026-05-01T05:23:25Z</time></trkpt><trkpt lat="45.54697817577989" lon="9.328384701216548"><ele>141.6</ele><time>2026-05-01T05:23:27Z</time></trkpt><trkpt lat="45.54689909951116" lon="9.328396885626583"><ele>141.39999999999998</ele><time>2026-05-01T05:23:29Z</time></trkpt><trkpt lat="45.54690053232796" lon="9.328596158530067"><ele>141.2</ele><time>2026-05-01T05:23:30Z</time></trkpt><trkpt lat="45.546916015575334" lon="9.32870909555028"><ele>141.0</ele><time>2026-05-01T05:23:31Z</time></trkpt><trkpt lat="45.54691881607989" lon="9.328864433070294"><ele>141.5</ele><time>2026-05-01T05:23:31.999Z</time></trkpt><trkpt lat="45.546930450798456" lon="9.329034062142762"><ele>142.0</ele><time>2026-05-01T05:23:32.999Z</time></trkpt><trkpt lat="45.546946517072286" lon="9.329252747012879"><ele>142.5</ele><time>2026-05-01T05:23:33.999Z</time></trkpt><trkpt lat="45.54696083427371" lon="9.32945901178535"><ele>143.0</ele><time>2026-05-01T05:23:34.999Z</time></trkpt><trkpt lat="45.54697678126523" lon="9.329673887614101"><ele>143.0</ele><time>2026-05-01T05:23:35.999Z</time></trkpt><trkpt lat="45.54700527140407" lon="9.329865454464006"><ele>143.0</ele><time>2026-05-01T05:23:36.999Z</time></trkpt><trkpt lat="45.54699736582498" lon="9.330040480452698"><ele>143.0</ele><time>2026-05-01T05:23:37.999Z</time></trkpt><trkpt lat="45.547005267011095" lon="9.330206741163536"><ele>143.0</ele><time>2026-05-01T05:23:38.999Z</time></trkpt><trkpt lat="45.547021006251576" lon="9.330390126013281"><ele>143.0</ele><time>2026-05-01T05:23:39.999Z</time></trkpt><trkpt lat="45.547032603828335" lon="9.330561237501216"><ele>143.0</ele><time>2026-05-01T05:23:40.999Z</time></trkpt><trkpt lat="45.54704265274291" lon="9.330711845171248"><ele>143.0</ele><time>2026-05-01T05:23:41.999Z</time></trkpt><trkpt lat="45.54705657373667" lon="9.330881810772414"><ele>143.0</ele><time>2026-05-01T05:23:42.999Z</time></trkpt><trkpt lat="45.5470750136575" lon="9.331062730953553"><ele>142.8</ele><time>2026-05-01T05:23:43.999Z</time></trkpt><trkpt lat="45.54709090581548" lon="9.33122772126817"><ele>142.60000000000002</ele><time>2026-05-01T05:23:44.999Z</time></trkpt><trkpt lat="45.547095002609495" lon="9.331367081565343"><ele>142.39999999999998</ele><time>2026-05-01T05:23:45.999Z</time></trkpt><trkpt lat="45.54710668323436" lon="9.331475663312972"><ele>142.2</ele><time>2026-05-01T05:23:46.999Z</time></trkpt><trkpt lat="45.547114483680375" lon="9.331594306640948"><ele>142.0</ele><time>2026-05-01T05:23:47.999Z</time></trkpt><trkpt lat="45.547158624751084" lon="9.331729073284293"><ele>142.0</ele><time>2026-05-01T05:23:48.999Z</time></trkpt><trkpt lat="45.54718735990293" lon="9.33185909429335"><ele>142.0</ele><time>2026-05-01T05:23:49.999Z</time></trkpt><trkpt lat="45.547212290569064" lon="9.331994613739639"><ele>142.0</ele><time>2026-05-01T05:23:50.999Z</time></trkpt><trkpt lat="45.54727057510113" lon="9.332099673517918"><ele>142.0</ele><time>2026-05-01T05:23:51.999Z</time></trkpt><trkpt lat="45.54735963291406" lon="9.332178374386356"><ele>142.0</ele><time>2026-05-01T05:23:52.999Z</time></trkpt><trkpt lat="45.547477911392974" lon="9.332205797684061"><ele>142.25</ele><time>2026-05-01T05:23:53.999Z</time></trkpt><trkpt lat="45.547596125773396" lon="9.332223711824716"><ele>142.5</ele><time>2026-05-01T05:23:54.999Z</time></trkpt><trkpt lat="45.547708301465406" lon="9.332242880887096"><ele>142.75</ele><time>2026-05-01T05:23:55.999Z</time></trkpt><trkpt lat="45.54781694015453" lon="9.332267290361436"><ele>143.0</ele><time>2026-05-01T05:23:56.999Z</time></trkpt><trkpt lat="45.547929948475215" lon="9.33230046357995"><ele>143.8</ele><time>2026-05-01T05:23:57.999Z</time></trkpt><trkpt lat="45.548037178177566" lon="9.332326676995953"><ele>144.60000000000002</ele><time>2026-05-01T05:23:58.999Z</time></trkpt><trkpt lat="45.54813398459504" lon="9.332330391398047"><ele>145.39999999999998</ele><time>2026-05-01T05:23:59.999Z</time></trkpt><trkpt lat="45.54821012791129" lon="9.332265988191393"><ele>146.2</ele><time>2026-05-01T05:24:00.999Z</time></trkpt><trkpt lat="45.54825767064407" lon="9.332168168207756"><ele>147.0</ele><time>2026-05-01T05:24:01.999Z</time></trkpt><trkpt lat="45.54823851000243" lon="9.332045607957685"><ele>147.14285714285714</ele><time>2026-05-01T05:24:02.999Z</time></trkpt><trkpt lat="45.54825071672565" lon="9.331948536079748"><ele>147.28571428571428</ele><time>2026-05-01T05:24:03.999Z</time></trkpt><trkpt lat="45.54823225287481" lon="9.33185147065496"><ele>147.42857142857144</ele><time>2026-05-01T05:24:04.999Z</time></trkpt><trkpt lat="45.54818058097283" lon="9.331752487105044"><ele>147.57142857142856</ele><time>2026-05-01T05:24:05.999Z</time></trkpt><trkpt lat="45.54817981864793" lon="9.331652416700592"><ele>147.71428571428572</ele><time>2026-05-01T05:24:06.999Z</time></trkpt><trkpt lat="45.548154527869194" lon="9.331559475925873"><ele>147.85714285714286</ele><time>2026-05-01T05:24:07.999Z</time></trkpt><trkpt lat="45.548151988767565" lon="9.331464319148743"><ele>148.0</ele><time>2026-05-01T05:24:08.999Z</time></trkpt><trkpt lat="45.54813850232035" lon="9.331324924384523"><ele>147.16666666666669</ele><time>2026-05-01T05:24:10.999Z</time></trkpt><trkpt lat="45.54810227555866" lon="9.331216441872813"><ele>146.33333333333334</ele><time>2026-05-01T05:24:13.999Z</time></trkpt><trkpt lat="45.548043051182226" lon="9.331154766112995"><ele>145.5</ele><time>2026-05-01T05:32:16.999Z</time></trkpt><trkpt lat="45.54801196628716" lon="9.331050084418424"><ele>144.66666666666666</ele><time>2026-05-01T05:32:18.999Z</time></trkpt><trkpt lat="45.54799472062885" lon="9.330922435623231"><ele>143.83333333333331</ele><time>2026-05-01T05:32:20.999Z</time></trkpt><trkpt lat="45.547980229175565" lon="9.33078802746644"><ele>143.0</ele><time>2026-05-01T05:32:22.999Z</time></trkpt><trkpt lat="45.547975980761905" lon="9.330635036630321"><ele>143.20000000000002</ele><time>2026-05-01T05:32:24.999Z</time></trkpt><trkpt lat="45.547971505938605" lon="9.330470107294094"><ele>143.4</ele><time>2026-05-01T05:32:26.999Z</time></trkpt><trkpt lat="45.54794257000635" lon="9.330382163761119"><ele>143.60000000000002</ele><time>2026-05-01T05:32:27.999Z</time></trkpt><trkpt lat="45.54789123117498" lon="9.330288846985043"><ele>143.8</ele><time>2026-05-01T05:32:28.999Z</time></trkpt><trkpt lat="45.54782450324497" lon="9.330175515665395"><ele>144.0</ele><time>2026-05-01T05:32:29.999Z</time></trkpt><trkpt lat="45.54777284452138" lon="9.330064645418716"><ele>143.8</ele><time>2026-05-01T05:32:30.999Z</time></trkpt><trkpt lat="45.54773441454632" lon="9.329948170392413"><ele>143.60000000000002</ele><time>2026-05-01T05:32:31.999Z</time></trkpt><trkpt lat="45.54770348248978" lon="9.32984974779451"><ele>143.4</ele><time>2026-05-01T05:32:32.999Z</time></trkpt><trkpt lat="45.54764148212298" lon="9.329760263083772"><ele>143.20000000000002</ele><time>2026-05-01T05:32:33.999Z</time></trkpt><trkpt lat="45.54762415677688" lon="9.32964418017423"><ele>143.0</ele><time>2026-05-01T05:32:34.999Z</time></trkpt><trkpt lat="45.5477357924857" lon="9.329499838685738"><ele>143.0</ele><time>2026-05-01T05:32:36.999Z</time></trkpt><trkpt lat="45.54780822201338" lon="9.329460229937128"><ele>143.0</ele><time>2026-05-01T05:32:37.999Z</time></trkpt><trkpt lat="45.54788832752807" lon="9.329459106488475"><ele>143.0</ele><time>2026-05-01T05:32:38.999Z</time></trkpt><trkpt lat="45.54796350700317" lon="9.329493154844458"><ele>143.0</ele><time>2026-05-01T05:32:39.999Z</time></trkpt><trkpt lat="45.54803411783414" lon="9.329558449914805"><ele>143.0</ele><time>2026-05-01T05:32:40.999Z</time></trkpt><trkpt lat="45.54810700886747" lon="9.329632168041048"><ele>143.0</ele><time>2026-05-01T05:32:41.999Z</time></trkpt><trkpt lat="45.548186433077674" lon="9.329694834474687"><ele>143.20000000000002</ele><time>2026-05-01T05:32:42.999Z</time></trkpt><trkpt lat="45.548278857289446" lon="9.329734594320328"><ele>143.4</ele><time>2026-05-01T05:32:43.999Z</time></trkpt><trkpt lat="45.54837693863549" lon="9.329743611491436"><ele>143.60000000000002</ele><time>2026-05-01T05:32:44.999Z</time></trkpt><trkpt lat="45.54847314764187" lon="9.329712142901254"><ele>143.8</ele><time>2026-05-01T05:32:45.999Z</time></trkpt><trkpt lat="45.54855695678121" lon="9.329637507938344"><ele>144.0</ele><time>2026-05-01T05:32:46.999Z</time></trkpt><trkpt lat="45.548628596063175" lon="9.329530637293546"><ele>144.2</ele><time>2026-05-01T05:32:47.999Z</time></trkpt><trkpt lat="45.54867728182752" lon="9.329401242006574"><ele>144.4</ele><time>2026-05-01T05:32:48.999Z</time></trkpt><trkpt lat="45.54869020017171" lon="9.329262488393326"><ele>144.6</ele><time>2026-05-01T05:32:49.999Z</time></trkpt><trkpt lat="45.54867391306209" lon="9.329123009270434"><ele>144.8</ele><time>2026-05-01T05:32:50.999Z</time></trkpt><trkpt lat="45.54863105920003" lon="9.32899173183435"><ele>145.0</ele><time>2026-05-01T05:32:51.999Z</time></trkpt><trkpt lat="45.54858214279762" lon="9.328857823430402"><ele>145.0</ele><time>2026-05-01T05:32:52.999Z</time></trkpt><trkpt lat="45.5484838629832" lon="9.328773343936078"><ele>145.0</ele><time>2026-05-01T05:32:53.999Z</time></trkpt><trkpt lat="45.548378823277304" lon="9.32872845056695"><ele>145.0</ele><time>2026-05-01T05:32:54.999Z</time></trkpt><trkpt lat="45.54827413868513" lon="9.328717330916795"><ele>145.0</ele><time>2026-05-01T05:32:56Z</time></trkpt><trkpt lat="45.54818706896877" lon="9.328728870074274"><ele>145.0</ele><time>2026-05-01T05:32:57.001Z</time></trkpt><trkpt lat="45.548105549812654" lon="9.328589469164429"><ele>145.0</ele><time>2026-05-01T05:32:58.001Z</time></trkpt><trkpt lat="45.54804635435955" lon="9.32847818433107"><ele>145.0</ele><time>2026-05-01T05:32:59.001Z</time></trkpt><trkpt lat="45.548024887759766" lon="9.328341172896614"><ele>145.0</ele><time>2026-05-01T05:33:00.001Z</time></trkpt><trkpt lat="45.54803673162379" lon="9.32819439594168"><ele>145.0</ele><time>2026-05-01T05:33:01.001Z</time></trkpt><trkpt lat="45.54806808221051" lon="9.328037864588536"><ele>145.0</ele><time>2026-05-01T05:33:02.001Z</time></trkpt><trkpt lat="45.54810316046666" lon="9.327873899447354"><ele>144.5</ele><time>2026-05-01T05:33:03.001Z</time></trkpt><trkpt lat="45.54812730822664" lon="9.327693642075376"><ele>144.0</ele><time>2026-05-01T05:33:04.001Z</time></trkpt><trkpt lat="45.54813398183834" lon="9.327502351777298"><ele>143.5</ele><time>2026-05-01T05:33:05.001Z</time></trkpt><trkpt lat="45.548127109945526" lon="9.327306224369988"><ele>143.0</ele><time>2026-05-01T05:33:06.001Z</time></trkpt><trkpt lat="45.54810838348968" lon="9.327114690635696"><ele>142.33333333333331</ele><time>2026-05-01T05:33:07.001Z</time></trkpt><trkpt lat="45.548081829074576" lon="9.32692990229231"><ele>141.66666666666666</ele><time>2026-05-01T05:33:08.001Z</time></trkpt><trkpt lat="45.54804969697495" lon="9.32675029281752"><ele>141.0</ele><time>2026-05-01T05:33:09.001Z</time></trkpt><trkpt lat="45.54803002638512" lon="9.32645685757035"><ele>141.66666666666666</ele><time>2026-05-01T05:33:10.001Z</time></trkpt><trkpt lat="45.548017009940175" lon="9.326226314509015"><ele>142.33333333333331</ele><time>2026-05-01T05:33:11.001Z</time></trkpt><trkpt lat="45.5480244421881" lon="9.325996235939959"><ele>143.0</ele><time>2026-05-01T05:33:12.001Z</time></trkpt><trkpt lat="45.5480485607326" lon="9.32576651566077"><ele>143.66666666666666</ele><time>2026-05-01T05:33:13.001Z</time></trkpt><trkpt lat="45.54808336639249" lon="9.325537450410422"><ele>144.33333333333334</ele><time>2026-05-01T05:33:14.001Z</time></trkpt><trkpt lat="45.54811970729517" lon="9.32530542919212"><ele>145.0</ele><time>2026-05-01T05:33:15.001Z</time></trkpt><trkpt lat="45.54815518056453" lon="9.325073409887294"><ele>145.0</ele><time>2026-05-01T05:33:16.001Z</time></trkpt><trkpt lat="45.5481929988931" lon="9.324846504083597"><ele>145.0</ele><time>2026-05-01T05:33:17.001Z</time></trkpt><trkpt lat="45.54822559850562" lon="9.324629402779843"><ele>145.0</ele><time>2026-05-01T05:33:18.001Z</time></trkpt><trkpt lat="45.54824849637667" lon="9.324413488511611"><ele>145.0</ele><time>2026-05-01T05:33:19.001Z</time></trkpt><trkpt lat="45.54825903375848" lon="9.324192977858269"><ele>145.0</ele><time>2026-05-01T05:33:20.001Z</time></trkpt><trkpt lat="45.54825343197627" lon="9.323966735688295"><ele>145.0</ele><time>2026-05-01T05:33:21.001Z</time></trkpt><trkpt lat="45.54822416121764" lon="9.323745457355631"><ele>145.0</ele><time>2026-05-01T05:33:22.001Z</time></trkpt><trkpt lat="45.54818243679149" lon="9.323530318218399"><ele>145.0</ele><time>2026-05-01T05:33:23.001Z</time></trkpt><trkpt lat="45.54813405112931" lon="9.323319188992071"><ele>145.0</ele><time>2026-05-01T05:33:24.001Z</time></trkpt><trkpt lat="45.54808630002199" lon="9.32311685775604"><ele>144.25</ele><time>2026-05-01T05:33:25Z</time></trkpt><trkpt lat="45.54805012723784" lon="9.322918026883057"><ele>143.5</ele><time>2026-05-01T05:33:26Z</time></trkpt><trkpt lat="45.548027186714236" lon="9.322723310194998"><ele>142.75</ele><time>2026-05-01T05:33:27Z</time></trkpt><trkpt lat="45.548013289733916" lon="9.32254105092213"><ele>142.0</ele><time>2026-05-01T05:33:28Z</time></trkpt><trkpt lat="45.54800021964018" lon="9.32237326430177"><ele>141.79999999999998</ele><time>2026-05-01T05:33:29Z</time></trkpt><trkpt lat="45.54797847204492" lon="9.322220865094712"><ele>141.6</ele><time>2026-05-01T05:33:30Z</time></trkpt><trkpt lat="45.54793927153904" lon="9.322090227974249"><ele>141.39999999999998</ele><time>2026-05-01T05:33:31Z</time></trkpt><trkpt lat="45.547895531110264" lon="9.321971682768716"><ele>141.2</ele><time>2026-05-01T05:33:32Z</time></trkpt><trkpt lat="45.54779717426924" lon="9.321952287715645"><ele>141.0</ele><time>2026-05-01T05:33:33Z</time></trkpt><trkpt lat="45.54771821459765" lon="9.321972380545597"><ele>141.0</ele><time>2026-05-01T05:33:34Z</time></trkpt><trkpt lat="45.54767152678464" lon="9.322065483450544"><ele>141.0</ele><time>2026-05-01T05:33:35Z</time></trkpt><trkpt lat="45.547581122623626" lon="9.322116016036786"><ele>141.0</ele><time>2026-05-01T05:33:36Z</time></trkpt><trkpt lat="45.54751737375153" lon="9.322210634318022"><ele>141.0</ele><time>2026-05-01T05:33:37Z</time></trkpt><trkpt lat="45.547443602848375" lon="9.322308163101942"><ele>141.0</ele><time>2026-05-01T05:33:38Z</time></trkpt><trkpt lat="45.54736683689855" lon="9.3224147752275"><ele>141.25</ele><time>2026-05-01T05:33:39Z</time></trkpt><trkpt lat="45.547287944451405" lon="9.322532508210037"><ele>141.5</ele><time>2026-05-01T05:33:40Z</time></trkpt><trkpt lat="45.54720881053501" lon="9.322653596522171"><ele>141.75</ele><time>2026-05-01T05:33:41Z</time></trkpt><trkpt lat="45.54712561922673" lon="9.32276715198075"><ele>142.0</ele><time>2026-05-01T05:33:42Z</time></trkpt><trkpt lat="45.54702720494618" lon="9.322857958564924"><ele>142.25</ele><time>2026-05-01T05:33:43Z</time></trkpt><trkpt lat="45.54690865744119" lon="9.322914797716319"><ele>142.5</ele><time>2026-05-01T05:33:44Z</time></trkpt><trkpt lat="45.546777578783534" lon="9.322926391154997"><ele>142.75</ele><time>2026-05-01T05:33:45Z</time></trkpt><trkpt lat="45.54664496483519" lon="9.322886471966653"><ele>143.0</ele><time>2026-05-01T05:33:46Z</time></trkpt><trkpt lat="45.54652504496575" lon="9.32278820740331"><ele>143.0</ele><time>2026-05-01T05:33:47Z</time></trkpt><trkpt lat="45.54642224926897" lon="9.3226427247338"><ele>143.0</ele><time>2026-05-01T05:33:48Z</time></trkpt><trkpt lat="45.5463294075631" lon="9.322462486695022"><ele>143.0</ele><time>2026-05-01T05:33:49Z</time></trkpt><trkpt lat="45.54623532819975" lon="9.322266118635955"><ele>142.33333333333331</ele><time>2026-05-01T05:33:50Z</time></trkpt><trkpt lat="45.54613262029386" lon="9.322058967348989"><ele>141.66666666666666</ele><time>2026-05-01T05:33:51Z</time></trkpt><trkpt lat="45.54602396157596" lon="9.32184387314119"><ele>141.0</ele><time>2026-05-01T05:33:52Z</time></trkpt><trkpt lat="45.54591967469439" lon="9.32162569681925"><ele>140.66666666666666</ele><time>2026-05-01T05:33:53Z</time></trkpt><trkpt lat="45.54581471158865" lon="9.321385431276424"><ele>140.33333333333331</ele><time>2026-05-01T05:33:54Z</time></trkpt><trkpt lat="45.54570984913434" lon="9.321135178304521"><ele>140.0</ele><time>2026-05-01T05:33:55Z</time></trkpt><trkpt lat="45.54560383013613" lon="9.320867481183825"><ele>140.0</ele><time>2026-05-01T05:33:56Z</time></trkpt><trkpt lat="45.545493495358336" lon="9.320587232267536"><ele>140.0</ele><time>2026-05-01T05:33:57Z</time></trkpt><trkpt lat="45.545420504243175" lon="9.32038736815023"><ele>140.0</ele><time>2026-05-01T05:33:58Z</time></trkpt><trkpt lat="45.54531714397966" lon="9.320114447506748"><ele>140.33333333333331</ele><time>2026-05-01T05:33:59Z</time></trkpt><trkpt lat="45.545209091898535" lon="9.319850450739755"><ele>140.66666666666666</ele><time>2026-05-01T05:34:00Z</time></trkpt><trkpt lat="45.54509124192967" lon="9.319584908536955"><ele>141.0</ele><time>2026-05-01T05:34:01Z</time></trkpt><trkpt lat="45.544965218612504" lon="9.319312826791643"><ele>141.0</ele><time>2026-05-01T05:34:02Z</time></trkpt><trkpt lat="45.54482858426176" lon="9.319051163592304"><ele>141.0</ele><time>2026-05-01T05:34:03Z</time></trkpt><trkpt lat="45.544674588955594" lon="9.318800243283116"><ele>140.5</ele><time>2026-05-01T05:34:04Z</time></trkpt><trkpt lat="45.544512131815395" lon="9.318548768573674"><ele>140.0</ele><time>2026-05-01T05:34:05Z</time></trkpt><trkpt lat="45.54434497906793" lon="9.318303718329524"><ele>140.0</ele><time>2026-05-01T05:34:06Z</time></trkpt><trkpt lat="45.5441687901869" lon="9.31806344637066"><ele>140.0</ele><time>2026-05-01T05:34:07Z</time></trkpt><trkpt lat="45.5439821453836" lon="9.31783962304125"><ele>140.0</ele><time>2026-05-01T05:34:08Z</time></trkpt><trkpt lat="45.543780910335244" lon="9.317631991049053"><ele>140.0</ele><time>2026-05-01T05:34:09Z</time></trkpt><trkpt lat="45.5435712845856" lon="9.317441064590334"><ele>140.0</ele><time>2026-05-01T05:34:10Z</time></trkpt><trkpt lat="45.54335174857092" lon="9.317270033580838"><ele>140.0</ele><time>2026-05-01T05:34:11Z</time></trkpt><trkpt lat="45.54312848643629" lon="9.317111328955646"><ele>140.0</ele><time>2026-05-01T05:34:12Z</time></trkpt><trkpt lat="45.54290175236522" lon="9.316951457396021"><ele>140.0</ele><time>2026-05-01T05:34:13Z</time></trkpt><trkpt lat="45.54267461475764" lon="9.316800511768452"><ele>140.0</ele><time>2026-05-01T05:34:14Z</time></trkpt><trkpt lat="45.5424435784637" lon="9.31665141863285"><ele>140.0</ele><time>2026-05-01T05:34:15Z</time></trkpt><trkpt lat="45.54221215625816" lon="9.316499662607058"><ele>138.5</ele><time>2026-05-01T05:34:16Z</time></trkpt><trkpt lat="45.54198069891713" lon="9.316349052448166"><ele>137.0</ele><time>2026-05-01T05:34:17Z</time></trkpt><trkpt lat="45.54175578327587" lon="9.31619222885661"><ele>137.0</ele><time>2026-05-01T05:34:18Z</time></trkpt><trkpt lat="45.54152826919446" lon="9.316024324530256"><ele>137.0</ele><time>2026-05-01T05:34:19Z</time></trkpt><trkpt lat="45.54131472763984" lon="9.315837161243342"><ele>136.5</ele><time>2026-05-01T05:34:20Z</time></trkpt><trkpt lat="45.54109843393538" lon="9.315649363178636"><ele>136.0</ele><time>2026-05-01T05:34:21Z</time></trkpt><trkpt lat="45.540887740759274" lon="9.315452262103095"><ele>137.0</ele><time>2026-05-01T05:34:22Z</time></trkpt><trkpt lat="45.54068273749495" lon="9.315240969855498"><ele>138.0</ele><time>2026-05-01T05:34:23Z</time></trkpt><trkpt lat="45.54048811122354" lon="9.315004515307454"><ele>137.0</ele><time>2026-05-01T05:34:24Z</time></trkpt><trkpt lat="45.5403074799124" lon="9.314755538032665"><ele>136.0</ele><time>2026-05-01T05:34:25Z</time></trkpt><trkpt lat="45.54013223510246" lon="9.314492240690308"><ele>135.5</ele><time>2026-05-01T05:34:26Z</time></trkpt><trkpt lat="45.53996712123403" lon="9.314218495872032"><ele>135.0</ele><time>2026-05-01T05:34:27Z</time></trkpt><trkpt lat="45.539814631934306" lon="9.313930718161092"><ele>135.5</ele><time>2026-05-01T05:34:28Z</time></trkpt><trkpt lat="45.53967714834215" lon="9.313629735097438"><ele>136.0</ele><time>2026-05-01T05:34:29Z</time></trkpt><trkpt lat="45.539554017199194" lon="9.313318199415809"><ele>135.5</ele><time>2026-05-01T05:34:30Z</time></trkpt><trkpt lat="45.53944099840145" lon="9.312997106380113"><ele>135.0</ele><time>2026-05-01T05:34:31Z</time></trkpt><trkpt lat="45.53933528581063" lon="9.312668985196877"><ele>135.0</ele><time>2026-05-01T05:34:32Z</time></trkpt><trkpt lat="45.53922879068545" lon="9.312343485533754"><ele>135.0</ele><time>2026-05-01T05:34:33Z</time></trkpt><trkpt lat="45.53911769008442" lon="9.312031488585486"><ele>135.0</ele><time>2026-05-01T05:34:34Z</time></trkpt><trkpt lat="45.539123238784576" lon="9.311631980951029"><ele>135.0</ele><time>2026-05-01T05:34:35Z</time></trkpt><trkpt lat="45.53907436082952" lon="9.311280184745842"><ele>135.0</ele><time>2026-05-01T05:34:36Z</time></trkpt><trkpt lat="45.5390344314644" lon="9.31092516447206"><ele>135.0</ele><time>2026-05-01T05:34:37Z</time></trkpt><trkpt lat="45.53899923441298" lon="9.310571811620882"><ele>136.0</ele><time>2026-05-01T05:34:38Z</time></trkpt><trkpt lat="45.53895988227225" lon="9.31021413286544"><ele>137.0</ele><time>2026-05-01T05:34:39Z</time></trkpt><trkpt lat="45.5389211682974" lon="9.309855122158012"><ele>137.0</ele><time>2026-05-01T05:34:40Z</time></trkpt><trkpt lat="45.53888142616338" lon="9.309498432140824"><ele>137.0</ele><time>2026-05-01T05:34:41Z</time></trkpt><trkpt lat="45.53884063433033" lon="9.309141021853037"><ele>137.5</ele><time>2026-05-01T05:34:42Z</time></trkpt><trkpt lat="45.53880384770748" lon="9.308782642530339"><ele>138.0</ele><time>2026-05-01T05:34:43Z</time></trkpt><trkpt lat="45.53876653533974" lon="9.30842345433552"><ele>137.5</ele><time>2026-05-01T05:34:44Z</time></trkpt><trkpt lat="45.53872888317724" lon="9.308061958268624"><ele>137.0</ele><time>2026-05-01T05:34:45Z</time></trkpt><trkpt lat="45.53868817387134" lon="9.307700616228066"><ele>137.0</ele><time>2026-05-01T05:34:46Z</time></trkpt><trkpt lat="45.538648411166854" lon="9.307337685571836"><ele>137.0</ele><time>2026-05-01T05:34:47Z</time></trkpt><trkpt lat="45.53860629261795" lon="9.306975540473543"><ele>135.0</ele><time>2026-05-01T05:34:48Z</time></trkpt><trkpt lat="45.538568168123554" lon="9.3066104740921"><ele>133.0</ele><time>2026-05-01T05:34:49Z</time></trkpt><trkpt lat="45.538528009758636" lon="9.306246449961055"><ele>133.0</ele><time>2026-05-01T05:34:50Z</time></trkpt><trkpt lat="45.53849018969713" lon="9.30588500754332"><ele>133.0</ele><time>2026-05-01T05:34:51Z</time></trkpt><trkpt lat="45.53845078388086" lon="9.30552067539077"><ele>134.0</ele><time>2026-05-01T05:34:52Z</time></trkpt><trkpt lat="45.53841368519829" lon="9.305159311054654"><ele>135.0</ele><time>2026-05-01T05:34:53Z</time></trkpt><trkpt lat="45.538373152245725" lon="9.304793785975894"><ele>134.5</ele><time>2026-05-01T05:34:54Z</time></trkpt><trkpt lat="45.53833111851749" lon="9.304430297367967"><ele>134.0</ele><time>2026-05-01T05:34:55Z</time></trkpt><trkpt lat="45.53829662731783" lon="9.30406783131369"><ele>133.5</ele><time>2026-05-01T05:34:56Z</time></trkpt><trkpt lat="45.53825588363771" lon="9.30369996646711"><ele>133.0</ele><time>2026-05-01T05:34:57Z</time></trkpt><trkpt lat="45.538215023332995" lon="9.303338357747808"><ele>134.5</ele><time>2026-05-01T05:34:58Z</time></trkpt><trkpt lat="45.53817385464165" lon="9.302973154077025"><ele>136.0</ele><time>2026-05-01T05:34:59Z</time></trkpt><trkpt lat="45.53813358488342" lon="9.302601960485275"><ele>136.5</ele><time>2026-05-01T05:35:00Z</time></trkpt><trkpt lat="45.53809800961128" lon="9.302233310562823"><ele>137.0</ele><time>2026-05-01T05:35:01Z</time></trkpt><trkpt lat="45.53805328616017" lon="9.301859830359705"><ele>137.0</ele><time>2026-05-01T05:35:02Z</time></trkpt><trkpt lat="45.53801517057054" lon="9.301482508781042"><ele>137.0</ele><time>2026-05-01T05:35:03.001Z</time></trkpt><trkpt lat="45.53797143510949" lon="9.301102883477418"><ele>137.0</ele><time>2026-05-01T05:35:04.001Z</time></trkpt><trkpt lat="45.537930863902865" lon="9.300723109625809"><ele>137.0</ele><time>2026-05-01T05:35:05.001Z</time></trkpt><trkpt lat="45.537893846937465" lon="9.300333906148794"><ele>134.5</ele><time>2026-05-01T05:35:06.001Z</time></trkpt><trkpt lat="45.53784826748821" lon="9.299945455687304"><ele>132.0</ele><time>2026-05-01T05:35:07.001Z</time></trkpt><trkpt lat="45.53781066704597" lon="9.299554761432073"><ele>132.0</ele><time>2026-05-01T05:35:08.001Z</time></trkpt><trkpt lat="45.53776485052072" lon="9.299159231986598"><ele>132.0</ele><time>2026-05-01T05:35:09.001Z</time></trkpt><trkpt lat="45.537725285240256" lon="9.298765851952348"><ele>131.5</ele><time>2026-05-01T05:35:10.001Z</time></trkpt><trkpt lat="45.53768355319613" lon="9.29836982020267"><ele>131.0</ele><time>2026-05-01T05:35:11.001Z</time></trkpt><trkpt lat="45.537639839177665" lon="9.297972525724285"><ele>131.0</ele><time>2026-05-01T05:35:12.001Z</time></trkpt><trkpt lat="45.53759372136995" lon="9.297577727470971"><ele>131.0</ele><time>2026-05-01T05:35:13.001Z</time></trkpt><trkpt lat="45.537549462206925" lon="9.297183249501575"><ele>132.0</ele><time>2026-05-01T05:35:14.001Z</time></trkpt><trkpt lat="45.53750575632769" lon="9.296789326089836"><ele>133.0</ele><time>2026-05-01T05:35:15.001Z</time></trkpt><trkpt lat="45.53746286716517" lon="9.296390976354747"><ele>133.5</ele><time>2026-05-01T05:35:16.001Z</time></trkpt><trkpt lat="45.53742069213101" lon="9.295994305601525"><ele>134.0</ele><time>2026-05-01T05:35:17.001Z</time></trkpt><trkpt lat="45.537379988003664" lon="9.295598576214406"><ele>137.0</ele><time>2026-05-01T05:35:18.001Z</time></trkpt><trkpt lat="45.53733507446528" lon="9.295194706960586"><ele>140.0</ele><time>2026-05-01T05:35:19.001Z</time></trkpt><trkpt lat="45.53729744306622" lon="9.29479667055932"><ele>141.0</ele><time>2026-05-01T05:35:20.001Z</time></trkpt><trkpt lat="45.53725309937672" lon="9.294391003885423"><ele>142.0</ele><time>2026-05-01T05:35:21.001Z</time></trkpt><trkpt lat="45.53720918102258" lon="9.293989823885545"><ele>140.5</ele><time>2026-05-01T05:35:22.001Z</time></trkpt><trkpt lat="45.53716479589312" lon="9.29358723141501"><ele>139.0</ele><time>2026-05-01T05:35:23.001Z</time></trkpt><trkpt lat="45.53712008877622" lon="9.293182249267067"><ele>137.5</ele><time>2026-05-01T05:35:24.001Z</time></trkpt><trkpt lat="45.53707580080338" lon="9.292778834487818"><ele>136.0</ele><time>2026-05-01T05:35:25.001Z</time></trkpt><trkpt lat="45.53703059821149" lon="9.292373334888852"><ele>134.0</ele><time>2026-05-01T05:35:26.001Z</time></trkpt><trkpt lat="45.53698544725341" lon="9.291966005395546"><ele>132.0</ele><time>2026-05-01T05:35:27Z</time></trkpt><trkpt lat="45.536939032228005" lon="9.291563761665712"><ele>133.5</ele><time>2026-05-01T05:35:28Z</time></trkpt><trkpt lat="45.53690031157741" lon="9.291152391277082"><ele>135.0</ele><time>2026-05-01T05:35:29Z</time></trkpt><trkpt lat="45.53688240855793" lon="9.29074299009711"><ele>135.0</ele><time>2026-05-01T05:35:30Z</time></trkpt><trkpt lat="45.536897589751284" lon="9.29033536876219"><ele>135.0</ele><time>2026-05-01T05:35:31Z</time></trkpt><trkpt lat="45.536946007201685" lon="9.28992972048327"><ele>135.5</ele><time>2026-05-01T05:35:32Z</time></trkpt><trkpt lat="45.53701776445129" lon="9.289536509698895"><ele>136.0</ele><time>2026-05-01T05:35:33Z</time></trkpt><trkpt lat="45.5371123892715" lon="9.289152668049086"><ele>135.5</ele><time>2026-05-01T05:35:34Z</time></trkpt><trkpt lat="45.537224042971815" lon="9.288776242382339"><ele>135.0</ele><time>2026-05-01T05:35:35Z</time></trkpt><trkpt lat="45.53735469489005" lon="9.288420612817529"><ele>135.5</ele><time>2026-05-01T05:35:36Z</time></trkpt><trkpt lat="45.53749769482835" lon="9.288071099562268"><ele>136.0</ele><time>2026-05-01T05:35:37Z</time></trkpt><trkpt lat="45.53764085926229" lon="9.287724962781644"><ele>136.0</ele><time>2026-05-01T05:35:38Z</time></trkpt><trkpt lat="45.537777201811146" lon="9.287371621807814"><ele>136.0</ele><time>2026-05-01T05:35:39Z</time></trkpt><trkpt lat="45.537895510240624" lon="9.287009381773824"><ele>136.5</ele><time>2026-05-01T05:35:40Z</time></trkpt><trkpt lat="45.5379814020363" lon="9.286632793377324"><ele>137.0</ele><time>2026-05-01T05:35:41Z</time></trkpt><trkpt lat="45.5380383527147" lon="9.286244693842198"><ele>137.0</ele><time>2026-05-01T05:35:42Z</time></trkpt><trkpt lat="45.53806019115225" lon="9.285852460018809"><ele>137.0</ele><time>2026-05-01T05:35:43Z</time></trkpt><trkpt lat="45.53806017799928" lon="9.285461371685384"><ele>137.0</ele><time>2026-05-01T05:35:44Z</time></trkpt><trkpt lat="45.53804167788125" lon="9.285066880832634"><ele>137.0</ele><time>2026-05-01T05:35:45Z</time></trkpt><trkpt lat="45.53799119972882" lon="9.284693314051239"><ele>137.0</ele><time>2026-05-01T05:35:46Z</time></trkpt><trkpt lat="45.537914390464984" lon="9.28433069910538"><ele>137.0</ele><time>2026-05-01T05:35:47Z</time></trkpt><trkpt lat="45.53781320326636" lon="9.28397830550411"><ele>138.0</ele><time>2026-05-01T05:35:48Z</time></trkpt><trkpt lat="45.53768929015147" lon="9.283640268978269"><ele>139.0</ele><time>2026-05-01T05:35:49Z</time></trkpt><trkpt lat="45.53754654762767" lon="9.283319469050328"><ele>139.0</ele><time>2026-05-01T05:35:50Z</time></trkpt><trkpt lat="45.53738701128436" lon="9.283008208925944"><ele>139.0</ele><time>2026-05-01T05:35:51Z</time></trkpt><trkpt lat="45.537216772837304" lon="9.2827067090147"><ele>139.5</ele><time>2026-05-01T05:35:52Z</time></trkpt><trkpt lat="45.53704789219765" lon="9.282402383640925"><ele>140.0</ele><time>2026-05-01T05:35:53Z</time></trkpt><trkpt lat="45.536884696790125" lon="9.282089394818728"><ele>139.0</ele><time>2026-05-01T05:35:54Z</time></trkpt><trkpt lat="45.536720370772834" lon="9.281769619609717"><ele>138.0</ele><time>2026-05-01T05:35:55Z</time></trkpt><trkpt lat="45.53655585853349" lon="9.281446444514886"><ele>138.0</ele><time>2026-05-01T05:35:56Z</time></trkpt><trkpt lat="45.53639205466746" lon="9.281122149955458"><ele>138.0</ele><time>2026-05-01T05:35:57Z</time></trkpt><trkpt lat="45.53622901106246" lon="9.280793903487625"><ele>137.5</ele><time>2026-05-01T05:35:58Z</time></trkpt><trkpt lat="45.53606630015218" lon="9.280463791992668"><ele>137.0</ele><time>2026-05-01T05:35:59Z</time></trkpt><trkpt lat="45.53590272199977" lon="9.28013110654926"><ele>137.0</ele><time>2026-05-01T05:36:00Z</time></trkpt><trkpt lat="45.535740077615635" lon="9.279797426048146"><ele>137.0</ele><time>2026-05-01T05:36:01Z</time></trkpt><trkpt lat="45.5355755945272" lon="9.27946089686738"><ele>137.0</ele><time>2026-05-01T05:36:02Z</time></trkpt><trkpt lat="45.535410482337326" lon="9.279124297292269"><ele>137.0</ele><time>2026-05-01T05:36:03Z</time></trkpt><trkpt lat="45.53524607057154" lon="9.27878553662018"><ele>137.0</ele><time>2026-05-01T05:36:04Z</time></trkpt><trkpt lat="45.535085944498654" lon="9.278447261091683"><ele>137.0</ele><time>2026-05-01T05:36:05Z</time></trkpt><trkpt lat="45.53492541793266" lon="9.27810578149782"><ele>138.0</ele><time>2026-05-01T05:36:06Z</time></trkpt><trkpt lat="45.53476338396728" lon="9.277763727833667"><ele>139.0</ele><time>2026-05-01T05:36:07Z</time></trkpt><trkpt lat="45.534604325973206" lon="9.277420146345925"><ele>137.0</ele><time>2026-05-01T05:36:08Z</time></trkpt><trkpt lat="45.53444584839256" lon="9.277076586342195"><ele>135.0</ele><time>2026-05-01T05:36:09Z</time></trkpt><trkpt lat="45.53428594694519" lon="9.27673474554554"><ele>135.5</ele><time>2026-05-01T05:36:10Z</time></trkpt><trkpt lat="45.53412520589508" lon="9.276391935944256"><ele>136.0</ele><time>2026-05-01T05:36:11Z</time></trkpt><trkpt lat="45.53396547540798" lon="9.276051490047141"><ele>136.0</ele><time>2026-05-01T05:36:12Z</time></trkpt><trkpt lat="45.533807309848015" lon="9.275711840531558"><ele>136.0</ele><time>2026-05-01T05:36:13Z</time></trkpt><trkpt lat="45.53364848457094" lon="9.275370385986985"><ele>136.0</ele><time>2026-05-01T05:36:14Z</time></trkpt><trkpt lat="45.533487931475854" lon="9.275028815546419"><ele>136.0</ele><time>2026-05-01T05:36:15Z</time></trkpt><trkpt lat="45.53332860744932" lon="9.274686550691326"><ele>136.5</ele><time>2026-05-01T05:36:16Z</time></trkpt><trkpt lat="45.53316710989365" lon="9.274346337912728"><ele>137.0</ele><time>2026-05-01T05:36:17Z</time></trkpt><trkpt lat="45.53300367611324" lon="9.274008014370532"><ele>136.5</ele><time>2026-05-01T05:36:18Z</time></trkpt><trkpt lat="45.53283861332209" lon="9.273671647709884"><ele>136.0</ele><time>2026-05-01T05:36:19Z</time></trkpt><trkpt lat="45.532677230073915" lon="9.27333571974102"><ele>135.5</ele><time>2026-05-01T05:36:20Z</time></trkpt><trkpt lat="45.53251413402062" lon="9.272995716048463"><ele>135.0</ele><time>2026-05-01T05:36:21Z</time></trkpt><trkpt lat="45.532349398833304" lon="9.272654563974331"><ele>135.0</ele><time>2026-05-01T05:36:22Z</time></trkpt><trkpt lat="45.532185366743896" lon="9.272318015287082"><ele>135.0</ele><time>2026-05-01T05:36:23Z</time></trkpt><trkpt lat="45.53202352081084" lon="9.271979426520984"><ele>135.0</ele><time>2026-05-01T05:36:24Z</time></trkpt><trkpt lat="45.53185932666896" lon="9.271641408968685"><ele>135.0</ele><time>2026-05-01T05:36:25Z</time></trkpt><trkpt lat="45.53169529917011" lon="9.27130163322626"><ele>135.0</ele><time>2026-05-01T05:36:26Z</time></trkpt><trkpt lat="45.53153135459617" lon="9.270963873888903"><ele>135.0</ele><time>2026-05-01T05:36:27Z</time></trkpt><trkpt lat="45.53136889974783" lon="9.270624971468985"><ele>135.5</ele><time>2026-05-01T05:36:28Z</time></trkpt><trkpt lat="45.531204784099025" lon="9.270287463028382"><ele>136.0</ele><time>2026-05-01T05:36:29Z</time></trkpt><trkpt lat="45.53104284327852" lon="9.269952653274412"><ele>136.5</ele><time>2026-05-01T05:36:30Z</time></trkpt><trkpt lat="45.53087905735382" lon="9.269612571632504"><ele>137.0</ele><time>2026-05-01T05:36:31Z</time></trkpt><trkpt lat="45.530715109693865" lon="9.269276350706225"><ele>137.0</ele><time>2026-05-01T05:36:32Z</time></trkpt><trkpt lat="45.53055053670659" lon="9.26894374233514"><ele>137.0</ele><time>2026-05-01T05:36:33Z</time></trkpt><trkpt lat="45.530381789458794" lon="9.26861483839499"><ele>136.5</ele><time>2026-05-01T05:36:34Z</time></trkpt><trkpt lat="45.530206624558865" lon="9.26829144398646"><ele>136.0</ele><time>2026-05-01T05:36:35Z</time></trkpt><trkpt lat="45.53002304347129" lon="9.267980009141874"><ele>135.0</ele><time>2026-05-01T05:36:36Z</time></trkpt><trkpt lat="45.52982419954558" lon="9.267695456863434"><ele>134.0</ele><time>2026-05-01T05:36:37Z</time></trkpt><trkpt lat="45.52961488443241" lon="9.267429123455498"><ele>134.0</ele><time>2026-05-01T05:36:38Z</time></trkpt><trkpt lat="45.52939445159828" lon="9.267189309096302"><ele>134.0</ele><time>2026-05-01T05:36:39Z</time></trkpt><trkpt lat="45.5291621964098" lon="9.266964292426461"><ele>134.0</ele><time>2026-05-01T05:36:40Z</time></trkpt><trkpt lat="45.52892382696455" lon="9.266757529002106"><ele>134.0</ele><time>2026-05-01T05:36:41Z</time></trkpt><trkpt lat="45.52868134044106" lon="9.266566571499705"><ele>136.5</ele><time>2026-05-01T05:36:42Z</time></trkpt><trkpt lat="45.528438093215605" lon="9.266383991992083"><ele>139.0</ele><time>2026-05-01T05:36:43Z</time></trkpt><trkpt lat="45.528193509200776" lon="9.26619800882613"><ele>139.0</ele><time>2026-05-01T05:36:44Z</time></trkpt><trkpt lat="45.527951267245236" lon="9.26601068010192"><ele>139.0</ele><time>2026-05-01T05:36:45Z</time></trkpt><trkpt lat="45.527711018197515" lon="9.265817748341462"><ele>138.5</ele><time>2026-05-01T05:36:46Z</time></trkpt><trkpt lat="45.52747820688546" lon="9.265612173457543"><ele>138.0</ele><time>2026-05-01T05:36:47Z</time></trkpt><trkpt lat="45.5272560514263" lon="9.265386608670479"><ele>137.5</ele><time>2026-05-01T05:36:48Z</time></trkpt><trkpt lat="45.52704887272079" lon="9.265131599154474"><ele>137.0</ele><time>2026-05-01T05:36:49Z</time></trkpt><trkpt lat="45.52685763092495" lon="9.264852236905856"><ele>137.0</ele><time>2026-05-01T05:36:50Z</time></trkpt><trkpt lat="45.52667924006946" lon="9.26455809894088"><ele>137.0</ele><time>2026-05-01T05:36:51Z</time></trkpt><trkpt lat="45.52651570707549" lon="9.26424634548052"><ele>136.5</ele><time>2026-05-01T05:36:52Z</time></trkpt><trkpt lat="45.52636587051025" lon="9.263918533506484"><ele>136.0</ele><time>2026-05-01T05:36:53Z</time></trkpt><trkpt lat="45.52623485155609" lon="9.263578290666336"><ele>135.5</ele><time>2026-05-01T05:36:54Z</time></trkpt><trkpt lat="45.52611687711207" lon="9.263224485749397"><ele>135.0</ele><time>2026-05-01T05:36:55Z</time></trkpt><trkpt lat="45.52600255813917" lon="9.262867740931368"><ele>134.0</ele><time>2026-05-01T05:36:56Z</time></trkpt><trkpt lat="45.52587211198809" lon="9.262525356063284"><ele>133.0</ele><time>2026-05-01T05:36:57Z</time></trkpt><trkpt lat="45.52571405393014" lon="9.262200942473005"><ele>133.0</ele><time>2026-05-01T05:36:58Z</time></trkpt><trkpt lat="45.52553379922027" lon="9.261901583206052"><ele>133.0</ele><time>2026-05-01T05:36:59Z</time></trkpt><trkpt lat="45.52534115474612" lon="9.261621360088775"><ele>131.0</ele><time>2026-05-01T05:37:00Z</time></trkpt><trkpt lat="45.525132748352036" lon="9.261366137168611"><ele>129.0</ele><time>2026-05-01T05:37:01Z</time></trkpt><trkpt lat="45.52491387191417" lon="9.261133440235742"><ele>129.0</ele><time>2026-05-01T05:37:02Z</time></trkpt><trkpt lat="45.52468527022161" lon="9.260921539838375"><ele>129.0</ele><time>2026-05-01T05:37:03Z</time></trkpt><trkpt lat="45.52444228850176" lon="9.260741870884706"><ele>129.5</ele><time>2026-05-01T05:37:04Z</time></trkpt><trkpt lat="45.52418559295867" lon="9.26060444899127"><ele>130.0</ele><time>2026-05-01T05:37:05Z</time></trkpt><trkpt lat="45.523920717890135" lon="9.260499533502495"><ele>130.0</ele><time>2026-05-01T05:37:06Z</time></trkpt><trkpt lat="45.52364683492554" lon="9.260419359439435"><ele>130.0</ele><time>2026-05-01T05:37:07Z</time></trkpt><trkpt lat="45.52337394573238" lon="9.260377162290116"><ele>130.0</ele><time>2026-05-01T05:37:08Z</time></trkpt><trkpt lat="45.52309639268135" lon="9.260372953986721"><ele>130.0</ele><time>2026-05-01T05:37:09.001Z</time></trkpt><trkpt lat="45.522820548311934" lon="9.260402262776372"><ele>129.0</ele><time>2026-05-01T05:37:10.001Z</time></trkpt><trkpt lat="45.52254690626217" lon="9.260462438546147"><ele>128.0</ele><time>2026-05-01T05:37:11.001Z</time></trkpt><trkpt lat="45.52227500150507" lon="9.260541181907792"><ele>129.5</ele><time>2026-05-01T05:37:12.001Z</time></trkpt><trkpt lat="45.52200398038135" lon="9.260626889172189"><ele>131.0</ele><time>2026-05-01T05:37:13.001Z</time></trkpt><trkpt lat="45.52173570105213" lon="9.260707084964915"><ele>131.0</ele><time>2026-05-01T05:37:14.001Z</time></trkpt><trkpt lat="45.521464113369476" lon="9.26078617739915"><ele>131.0</ele><time>2026-05-01T05:37:15.001Z</time></trkpt><trkpt lat="45.52119080960827" lon="9.260867141422354"><ele>130.0</ele><time>2026-05-01T05:37:16.001Z</time></trkpt><trkpt lat="45.52091790806053" lon="9.260947098506957"><ele>129.0</ele><time>2026-05-01T05:37:17.001Z</time></trkpt><trkpt lat="45.52064472326982" lon="9.261018330048874"><ele>129.5</ele><time>2026-05-01T05:37:18.001Z</time></trkpt><trkpt lat="45.52036682905351" lon="9.261084057462435"><ele>130.0</ele><time>2026-05-01T05:37:19.001Z</time></trkpt><trkpt lat="45.520090100972" lon="9.2611446661335"><ele>130.0</ele><time>2026-05-01T05:37:20.001Z</time></trkpt><trkpt lat="45.519811263193716" lon="9.261200125961572"><ele>130.0</ele><time>2026-05-01T05:37:21.001Z</time></trkpt><trkpt lat="45.51953248569471" lon="9.261248091243074"><ele>128.0</ele><time>2026-05-01T05:37:22.001Z</time></trkpt><trkpt lat="45.51925237594247" lon="9.261293272045119"><ele>126.0</ele><time>2026-05-01T05:37:23.001Z</time></trkpt><trkpt lat="45.51897249649912" lon="9.261339253673846"><ele>126.5</ele><time>2026-05-01T05:37:24Z</time></trkpt><trkpt lat="45.518689451167845" lon="9.261385130855317"><ele>127.0</ele><time>2026-05-01T05:37:25Z</time></trkpt><trkpt lat="45.51840562818178" lon="9.261429674847323"><ele>126.0</ele><time>2026-05-01T05:37:26Z</time></trkpt><trkpt lat="45.518123458683796" lon="9.261471582993076"><ele>125.0</ele><time>2026-05-01T05:37:27Z</time></trkpt><trkpt lat="45.51783624134418" lon="9.261504450845848"><ele>124.0</ele><time>2026-05-01T05:37:28Z</time></trkpt><trkpt lat="45.5175488360029" lon="9.261525804397271"><ele>123.0</ele><time>2026-05-01T05:37:29Z</time></trkpt><trkpt lat="45.517259135828176" lon="9.261539656691808"><ele>124.0</ele><time>2026-05-01T05:37:30Z</time></trkpt><trkpt lat="45.51696814083895" lon="9.261549112034343"><ele>125.0</ele><time>2026-05-01T05:37:31Z</time></trkpt><trkpt lat="45.51667592564297" lon="9.26154973749106"><ele>125.0</ele><time>2026-05-01T05:37:32Z</time></trkpt><trkpt lat="45.51638222089148" lon="9.261537250157694"><ele>125.0</ele><time>2026-05-01T05:37:33Z</time></trkpt><trkpt lat="45.516089406968895" lon="9.261515357373971"><ele>126.5</ele><time>2026-05-01T05:37:34Z</time></trkpt><trkpt lat="45.51579814844433" lon="9.261489684592721"><ele>128.0</ele><time>2026-05-01T05:37:35Z</time></trkpt><trkpt lat="45.51550731206652" lon="9.261458337782726"><ele>126.0</ele><time>2026-05-01T05:37:36Z</time></trkpt><trkpt lat="45.51521824735559" lon="9.261425422389229"><ele>124.0</ele><time>2026-05-01T05:37:37Z</time></trkpt><trkpt lat="45.514932868953196" lon="9.261390628811448"><ele>124.0</ele><time>2026-05-01T05:37:38Z</time></trkpt><trkpt lat="45.51464916015213" lon="9.261355028691872"><ele>124.0</ele><time>2026-05-01T05:37:39Z</time></trkpt><trkpt lat="45.514365708979" lon="9.261325064121037"><ele>126.0</ele><time>2026-05-01T05:37:40Z</time></trkpt><trkpt lat="45.51408511299345" lon="9.261305822495695"><ele>128.0</ele><time>2026-05-01T05:37:41Z</time></trkpt><trkpt lat="45.513800794317625" lon="9.261293581822686"><ele>130.5</ele><time>2026-05-01T05:37:42Z</time></trkpt><trkpt lat="45.5135166144268" lon="9.261292908930889"><ele>133.0</ele><time>2026-05-01T05:37:43Z</time></trkpt><trkpt lat="45.513232126014756" lon="9.261302496630607"><ele>133.0</ele><time>2026-05-01T05:37:44Z</time></trkpt><trkpt lat="45.51294715642569" lon="9.26131948535292"><ele>133.0</ele><time>2026-05-01T05:37:45Z</time></trkpt><trkpt lat="45.512659038644045" lon="9.26133924660959"><ele>131.0</ele><time>2026-05-01T05:37:46Z</time></trkpt><trkpt lat="45.51236869592505" lon="9.261357670088948"><ele>129.0</ele><time>2026-05-01T05:37:47Z</time></trkpt><trkpt lat="45.5120777957954" lon="9.261379011726182"><ele>128.0</ele><time>2026-05-01T05:37:48Z</time></trkpt><trkpt lat="45.51178530236804" lon="9.261406608810292"><ele>127.0</ele><time>2026-05-01T05:37:49Z</time></trkpt><trkpt lat="45.51149338385066" lon="9.261447387571403"><ele>126.0</ele><time>2026-05-01T05:37:50Z</time></trkpt><trkpt lat="45.51120250403063" lon="9.261513480859334"><ele>125.0</ele><time>2026-05-01T05:37:51Z</time></trkpt><trkpt lat="45.5109154714569" lon="9.261607476855994"><ele>125.0</ele><time>2026-05-01T05:37:52Z</time></trkpt><trkpt lat="45.51063068726855" lon="9.261699448969567"><ele>125.0</ele><time>2026-05-01T05:37:53Z</time></trkpt><trkpt lat="45.51034477861771" lon="9.261771774640865"><ele>125.0</ele><time>2026-05-01T05:37:54Z</time></trkpt><trkpt lat="45.510057745699676" lon="9.261806120210624"><ele>125.0</ele><time>2026-05-01T05:37:55Z</time></trkpt><trkpt lat="45.50977070666292" lon="9.261794106751392"><ele>124.5</ele><time>2026-05-01T05:37:56Z</time></trkpt><trkpt lat="45.50948765236262" lon="9.26175504269033"><ele>124.0</ele><time>2026-05-01T05:37:57Z</time></trkpt><trkpt lat="45.50920748066406" lon="9.26167951722303"><ele>124.0</ele><time>2026-05-01T05:37:58Z</time></trkpt><trkpt lat="45.50893294219404" lon="9.261571498477693"><ele>124.0</ele><time>2026-05-01T05:37:59Z</time></trkpt><trkpt lat="45.50866334832664" lon="9.26143459337872"><ele>123.5</ele><time>2026-05-01T05:38:00Z</time></trkpt><trkpt lat="45.508401091461494" lon="9.261265625462524"><ele>123.0</ele><time>2026-05-01T05:38:01Z</time></trkpt><trkpt lat="45.50814348652125" lon="9.261082476816137"><ele>123.5</ele><time>2026-05-01T05:38:02Z</time></trkpt><trkpt lat="45.50789116136757" lon="9.260886447570755"><ele>124.0</ele><time>2026-05-01T05:38:03Z</time></trkpt><trkpt lat="45.507639166653675" lon="9.260682067896255"><ele>124.0</ele><time>2026-05-01T05:38:04Z</time></trkpt><trkpt lat="45.507385647448615" lon="9.26048476524755"><ele>124.0</ele><time>2026-05-01T05:38:05Z</time></trkpt><trkpt lat="45.50713120723921" lon="9.260290907085038"><ele>123.5</ele><time>2026-05-01T05:38:06Z</time></trkpt><trkpt lat="45.50687738502878" lon="9.260095001152557"><ele>123.0</ele><time>2026-05-01T05:38:07Z</time></trkpt><trkpt lat="45.5066228536108" lon="9.259898673166669"><ele>123.0</ele><time>2026-05-01T05:38:08Z</time></trkpt><trkpt lat="45.506370257554046" lon="9.259702733810677"><ele>123.0</ele><time>2026-05-01T05:38:09Z</time></trkpt><trkpt lat="45.50611694453118" lon="9.259505645170067"><ele>122.0</ele><time>2026-05-01T05:38:10Z</time></trkpt><trkpt lat="45.505860458154814" lon="9.259310496587862"><ele>121.0</ele><time>2026-05-01T05:38:11Z</time></trkpt><trkpt lat="45.505602889510584" lon="9.259114704057914"><ele>122.0</ele><time>2026-05-01T05:38:12Z</time></trkpt><trkpt lat="45.50534639214568" lon="9.258918964839744"><ele>123.0</ele><time>2026-05-01T05:38:13Z</time></trkpt><trkpt lat="45.50508955103738" lon="9.258724990391155"><ele>123.0</ele><time>2026-05-01T05:38:14Z</time></trkpt><trkpt lat="45.50483349700257" lon="9.258530676058529"><ele>123.0</ele><time>2026-05-01T05:38:15Z</time></trkpt><trkpt lat="45.50457873635149" lon="9.258334530623442"><ele>123.0</ele><time>2026-05-01T05:38:16Z</time></trkpt><trkpt lat="45.50432499240104" lon="9.258137993373525"><ele>123.0</ele><time>2026-05-01T05:38:17Z</time></trkpt><trkpt lat="45.504071795168706" lon="9.25794290548463"><ele>121.5</ele><time>2026-05-01T05:38:18Z</time></trkpt><trkpt lat="45.50381929452548" lon="9.25774538718951"><ele>120.0</ele><time>2026-05-01T05:38:19Z</time></trkpt><trkpt lat="45.50357098577662" lon="9.25755086545264"><ele>120.0</ele><time>2026-05-01T05:38:20Z</time></trkpt><trkpt lat="45.503325903308465" lon="9.257360513571744"><ele>120.0</ele><time>2026-05-01T05:38:21Z</time></trkpt><trkpt lat="45.50308545584753" lon="9.257173581031653"><ele>120.0</ele><time>2026-05-01T05:38:22Z</time></trkpt><trkpt lat="45.50285117928034" lon="9.256990174854902"><ele>120.0</ele><time>2026-05-01T05:38:23Z</time></trkpt><trkpt lat="45.502616927846866" lon="9.2568121771677"><ele>120.0</ele><time>2026-05-01T05:38:24Z</time></trkpt><trkpt lat="45.5023829669208" lon="9.256632815237754"><ele>120.0</ele><time>2026-05-01T05:38:25Z</time></trkpt><trkpt lat="45.50214947314209" lon="9.256452949100686"><ele>121.0</ele><time>2026-05-01T05:38:26Z</time></trkpt><trkpt lat="45.50191471701804" lon="9.256273389583198"><ele>122.0</ele><time>2026-05-01T05:38:27Z</time></trkpt><trkpt lat="45.501674517649604" lon="9.256103197379996"><ele>122.0</ele><time>2026-05-01T05:38:28Z</time></trkpt><trkpt lat="45.501429602867866" lon="9.255953406919271"><ele>122.0</ele><time>2026-05-01T05:38:29Z</time></trkpt><trkpt lat="45.50118484426292" lon="9.2558294097346"><ele>121.5</ele><time>2026-05-01T05:38:30Z</time></trkpt><trkpt lat="45.50094224704674" lon="9.255728591064129"><ele>121.0</ele><time>2026-05-01T05:38:31Z</time></trkpt><trkpt lat="45.50069607536457" lon="9.255637475971968"><ele>121.0</ele><time>2026-05-01T05:38:32Z</time></trkpt><trkpt lat="45.50044881445134" lon="9.255560492716652"><ele>121.0</ele><time>2026-05-01T05:38:33Z</time></trkpt><trkpt lat="45.50020033125317" lon="9.2554990485464"><ele>121.0</ele><time>2026-05-01T05:38:34Z</time></trkpt><trkpt lat="45.49995068657353" lon="9.255449187555477"><ele>121.0</ele><time>2026-05-01T05:38:35Z</time></trkpt><trkpt lat="45.499699506033764" lon="9.25540746250172"><ele>122.0</ele><time>2026-05-01T05:38:36Z</time></trkpt><trkpt lat="45.49944825862546" lon="9.255367287906852"><ele>123.0</ele><time>2026-05-01T05:38:37Z</time></trkpt><trkpt lat="45.49919373658688" lon="9.25533162098609"><ele>123.0</ele><time>2026-05-01T05:38:38Z</time></trkpt><trkpt lat="45.4989376944659" lon="9.255300161570517"><ele>123.0</ele><time>2026-05-01T05:38:39Z</time></trkpt><trkpt lat="45.498679185910675" lon="9.255268444724237"><ele>124.5</ele><time>2026-05-01T05:38:40Z</time></trkpt><trkpt lat="45.49841668685966" lon="9.255237025836408"><ele>126.0</ele><time>2026-05-01T05:38:41Z</time></trkpt><trkpt lat="45.498150438500225" lon="9.255207047894247"><ele>125.0</ele><time>2026-05-01T05:38:42Z</time></trkpt><trkpt lat="45.49788027904379" lon="9.255174968370195"><ele>124.0</ele><time>2026-05-01T05:38:43Z</time></trkpt><trkpt lat="45.49760900613517" lon="9.255138700692068"><ele>124.0</ele><time>2026-05-01T05:38:44Z</time></trkpt><trkpt lat="45.4973361792674" lon="9.255096715057284"><ele>124.0</ele><time>2026-05-01T05:38:45Z</time></trkpt><trkpt lat="45.497061920649706" lon="9.255047197443679"><ele>121.5</ele><time>2026-05-01T05:38:46Z</time></trkpt><trkpt lat="45.49678722422651" lon="9.254990228726815"><ele>119.0</ele><time>2026-05-01T05:38:47Z</time></trkpt><trkpt lat="45.49651535524947" lon="9.254916637689497"><ele>121.0</ele><time>2026-05-01T05:38:48Z</time></trkpt><trkpt lat="45.49624750393318" lon="9.254818951188248"><ele>123.0</ele><time>2026-05-01T05:38:49Z</time></trkpt><trkpt lat="45.49598132120707" lon="9.25470238654643"><ele>124.0</ele><time>2026-05-01T05:38:50Z</time></trkpt><trkpt lat="45.49572161569846" lon="9.254572857709913"><ele>125.0</ele><time>2026-05-01T05:38:51Z</time></trkpt><trkpt lat="45.49546590768402" lon="9.25442698425633"><ele>122.5</ele><time>2026-05-01T05:38:52Z</time></trkpt><trkpt lat="45.49521390646799" lon="9.254273500149916"><ele>120.0</ele><time>2026-05-01T05:38:53Z</time></trkpt><trkpt lat="45.49496329018901" lon="9.254112702561393"><ele>119.0</ele><time>2026-05-01T05:38:54Z</time></trkpt><trkpt lat="45.49471286249404" lon="9.253954605063276"><ele>118.0</ele><time>2026-05-01T05:38:55Z</time></trkpt><trkpt lat="45.49446148956818" lon="9.253801807521386"><ele>118.0</ele><time>2026-05-01T05:38:56Z</time></trkpt><trkpt lat="45.494211279137566" lon="9.253648075091622"><ele>118.0</ele><time>2026-05-01T05:38:57Z</time></trkpt><trkpt lat="45.49396128313008" lon="9.253485898783504"><ele>119.5</ele><time>2026-05-01T05:38:58Z</time></trkpt><trkpt lat="45.493711309002414" lon="9.2533211330698"><ele>121.0</ele><time>2026-05-01T05:38:59Z</time></trkpt><trkpt lat="45.4934589151176" lon="9.253158689754585"><ele>121.0</ele><time>2026-05-01T05:39:00Z</time></trkpt><trkpt lat="45.493203522029845" lon="9.253000253822455"><ele>121.0</ele><time>2026-05-01T05:39:01Z</time></trkpt><trkpt lat="45.49294597426695" lon="9.252847434511889"><ele>121.0</ele><time>2026-05-01T05:39:02Z</time></trkpt><trkpt lat="45.492682984679824" lon="9.252704466957967"><ele>121.0</ele><time>2026-05-01T05:39:03Z</time></trkpt><trkpt lat="45.49241480995432" lon="9.252574933995895"><ele>121.0</ele><time>2026-05-01T05:39:04Z</time></trkpt><trkpt lat="45.49214397026983" lon="9.252450144043424"><ele>121.0</ele><time>2026-05-01T05:39:05Z</time></trkpt><trkpt lat="45.49187385908412" lon="9.252327685437148"><ele>122.5</ele><time>2026-05-01T05:39:06Z</time></trkpt><trkpt lat="45.491603437181894" lon="9.2522136491591"><ele>124.0</ele><time>2026-05-01T05:39:07Z</time></trkpt><trkpt lat="45.49134004751511" lon="9.252108315783538"><ele>125.0</ele><time>2026-05-01T05:39:08Z</time></trkpt><trkpt lat="45.491085632302585" lon="9.252017638456406"><ele>126.0</ele><time>2026-05-01T05:39:09Z</time></trkpt><trkpt lat="45.49082597736297" lon="9.251939596653637"><ele>126.0</ele><time>2026-05-01T05:39:10Z</time></trkpt><trkpt lat="45.49055774646108" lon="9.251889286542326"><ele>126.0</ele><time>2026-05-01T05:39:11Z</time></trkpt><trkpt lat="45.49027946148123" lon="9.251840260393118"><ele>123.5</ele><time>2026-05-01T05:39:12Z</time></trkpt><trkpt lat="45.48999710314047" lon="9.251790168699607"><ele>121.0</ele><time>2026-05-01T05:39:13Z</time></trkpt><trkpt lat="45.48971210743266" lon="9.251743780609313"><ele>121.0</ele><time>2026-05-01T05:39:14Z</time></trkpt><trkpt lat="45.48942230968656" lon="9.25169519311059"><ele>121.0</ele><time>2026-05-01T05:39:15Z</time></trkpt><trkpt lat="45.489129732064036" lon="9.251635490672776"><ele>121.0</ele><time>2026-05-01T05:39:16Z</time></trkpt><trkpt lat="45.48883439239277" lon="9.251573899450001"><ele>121.0</ele><time>2026-05-01T05:39:17Z</time></trkpt><trkpt lat="45.488538400024666" lon="9.251521679060861"><ele>120.0</ele><time>2026-05-01T05:39:18Z</time></trkpt><trkpt lat="45.48824138460369" lon="9.25147744849115"><ele>119.0</ele><time>2026-05-01T05:39:19Z</time></trkpt><trkpt lat="45.4879444723424" lon="9.251431544069053"><ele>118.0</ele><time>2026-05-01T05:39:20Z</time></trkpt><trkpt lat="45.48764891616234" lon="9.251386013673454"><ele>117.0</ele><time>2026-05-01T05:39:21Z</time></trkpt><trkpt lat="45.48735333309372" lon="9.251339620757307"><ele>116.5</ele><time>2026-05-01T05:39:22Z</time></trkpt><trkpt lat="45.48705649590108" lon="9.251293119593171"><ele>116.0</ele><time>2026-05-01T05:39:23Z</time></trkpt><trkpt lat="45.486760596892985" lon="9.251247802787088"><ele>116.0</ele><time>2026-05-01T05:39:24Z</time></trkpt><trkpt lat="45.486466313175015" lon="9.251204648464347"><ele>116.0</ele><time>2026-05-01T05:39:25Z</time></trkpt><trkpt lat="45.486172526732794" lon="9.25116359239091"><ele>117.0</ele><time>2026-05-01T05:39:26Z</time></trkpt><trkpt lat="45.48587953859091" lon="9.251122709189362"><ele>118.0</ele><time>2026-05-01T05:39:27Z</time></trkpt><trkpt lat="45.48558815912765" lon="9.251079611725153"><ele>118.0</ele><time>2026-05-01T05:39:28Z</time></trkpt><trkpt lat="45.48529859684195" lon="9.25103392348943"><ele>118.0</ele><time>2026-05-01T05:39:29Z</time></trkpt><trkpt lat="45.48500868402328" lon="9.250991339885212"><ele>118.0</ele><time>2026-05-01T05:39:30Z</time></trkpt><trkpt lat="45.484717673747234" lon="9.25096173458238"><ele>118.0</ele><time>2026-05-01T05:39:31Z</time></trkpt><trkpt lat="45.48442715689207" lon="9.250945187557404"><ele>119.0</ele><time>2026-05-01T05:39:32Z</time></trkpt><trkpt lat="45.48413358470003" lon="9.25094168965538"><ele>120.0</ele><time>2026-05-01T05:39:33Z</time></trkpt><trkpt lat="45.483840957698504" lon="9.250953451696972"><ele>119.0</ele><time>2026-05-01T05:39:34Z</time></trkpt><trkpt lat="45.48355008404796" lon="9.25098120832463"><ele>118.0</ele><time>2026-05-01T05:39:35Z</time></trkpt><trkpt lat="45.48326116567597" lon="9.251029004336141"><ele>118.0</ele><time>2026-05-01T05:39:36Z</time></trkpt><trkpt lat="45.48297488263204" lon="9.25109673001491"><ele>118.0</ele><time>2026-05-01T05:39:37Z</time></trkpt><trkpt lat="45.48269157370083" lon="9.251179026607282"><ele>119.0</ele><time>2026-05-01T05:39:38Z</time></trkpt><trkpt lat="45.48241159369076" lon="9.251278806640315"><ele>120.0</ele><time>2026-05-01T05:39:39Z</time></trkpt><trkpt lat="45.482137996493115" lon="9.251395317723924"><ele>120.5</ele><time>2026-05-01T05:39:40Z</time></trkpt><trkpt lat="45.48186595590731" lon="9.251517247408687"><ele>121.0</ele><time>2026-05-01T05:39:41Z</time></trkpt><trkpt lat="45.48159409936938" lon="9.251638525125186"><ele>121.0</ele><time>2026-05-01T05:39:42Z</time></trkpt><trkpt lat="45.48132262846387" lon="9.251760745722406"><ele>121.0</ele><time>2026-05-01T05:39:43Z</time></trkpt><trkpt lat="45.48104861226371" lon="9.251882652704623"><ele>121.0</ele><time>2026-05-01T05:39:44Z</time></trkpt><trkpt lat="45.48077670458578" lon="9.252005338850784"><ele>121.0</ele><time>2026-05-01T05:39:45Z</time></trkpt><trkpt lat="45.48050554357369" lon="9.252130655980267"><ele>119.0</ele><time>2026-05-01T05:39:46Z</time></trkpt><trkpt lat="45.480232785091076" lon="9.252256101680782"><ele>117.0</ele><time>2026-05-01T05:39:47Z</time></trkpt><trkpt lat="45.47996177771469" lon="9.252379216047956"><ele>117.0</ele><time>2026-05-01T05:39:48Z</time></trkpt><trkpt lat="45.47968777590791" lon="9.252504376470013"><ele>117.0</ele><time>2026-05-01T05:39:49Z</time></trkpt><trkpt lat="45.47941446617047" lon="9.252631276780807"><ele>118.0</ele><time>2026-05-01T05:39:50Z</time></trkpt><trkpt lat="45.47914061541294" lon="9.2527597581103"><ele>119.0</ele><time>2026-05-01T05:39:51Z</time></trkpt><trkpt lat="45.478860363113355" lon="9.252888834533072"><ele>118.0</ele><time>2026-05-01T05:39:52Z</time></trkpt><trkpt lat="45.4785972948678" lon="9.253009241099905"><ele>117.0</ele><time>2026-05-01T05:39:53Z</time></trkpt><trkpt lat="45.47832499302603" lon="9.253129197668194"><ele>117.0</ele><time>2026-05-01T05:39:54Z</time></trkpt><trkpt lat="45.47805087840027" lon="9.253251272089642"><ele>117.0</ele><time>2026-05-01T05:39:55Z</time></trkpt><trkpt lat="45.477773129830204" lon="9.25334828258353"><ele>115.5</ele><time>2026-05-01T05:39:56Z</time></trkpt><trkpt lat="45.477493459453456" lon="9.253433449238655"><ele>114.0</ele><time>2026-05-01T05:39:57Z</time></trkpt><trkpt lat="45.47721195968439" lon="9.253497306054324"><ele>115.5</ele><time>2026-05-01T05:39:58Z</time></trkpt><trkpt lat="45.47693055586662" lon="9.25353799158682"><ele>117.0</ele><time>2026-05-01T05:39:59Z</time></trkpt><trkpt lat="45.47664734704288" lon="9.253557896189008"><ele>117.0</ele><time>2026-05-01T05:40:00Z</time></trkpt><trkpt lat="45.47636253721686" lon="9.253557443407496"><ele>117.0</ele><time>2026-05-01T05:40:01Z</time></trkpt><trkpt lat="45.47607662006884" lon="9.253537217920828"><ele>117.0</ele><time>2026-05-01T05:40:02Z</time></trkpt><trkpt lat="45.4757939372672" lon="9.25349813971134"><ele>117.0</ele><time>2026-05-01T05:40:03Z</time></trkpt><trkpt lat="45.47551570402494" lon="9.253439360746798"><ele>118.5</ele><time>2026-05-01T05:40:04Z</time></trkpt><trkpt lat="45.47523747529399" lon="9.253363667954881"><ele>120.0</ele><time>2026-05-01T05:40:05Z</time></trkpt><trkpt lat="45.474960291470836" lon="9.253276166650178"><ele>120.0</ele><time>2026-05-01T05:40:06Z</time></trkpt><trkpt lat="45.47468371055395" lon="9.253182114578813"><ele>120.0</ele><time>2026-05-01T05:40:07Z</time></trkpt><trkpt lat="45.47440722499759" lon="9.253083989439919"><ele>118.5</ele><time>2026-05-01T05:40:08Z</time></trkpt><trkpt lat="45.47413115675657" lon="9.252987501761558"><ele>117.0</ele><time>2026-05-01T05:40:09Z</time></trkpt><trkpt lat="45.473854499863975" lon="9.252896036133508"><ele>118.0</ele><time>2026-05-01T05:40:10Z</time></trkpt><trkpt lat="45.47357576673383" lon="9.252804267295527"><ele>119.0</ele><time>2026-05-01T05:40:11Z</time></trkpt><trkpt lat="45.47329848858667" lon="9.25271072579999"><ele>119.0</ele><time>2026-05-01T05:40:12Z</time></trkpt><trkpt lat="45.47302050334955" lon="9.252618065721554"><ele>119.0</ele><time>2026-05-01T05:40:13Z</time></trkpt><trkpt lat="45.47274146651271" lon="9.252531101319155"><ele>120.0</ele><time>2026-05-01T05:40:14Z</time></trkpt><trkpt lat="45.47245949535524" lon="9.252452919666426"><ele>121.0</ele><time>2026-05-01T05:40:15Z</time></trkpt><trkpt lat="45.47217434029953" lon="9.25238018172172"><ele>119.0</ele><time>2026-05-01T05:40:16Z</time></trkpt><trkpt lat="45.471889537958454" lon="9.252314574269555"><ele>117.0</ele><time>2026-05-01T05:40:17Z</time></trkpt><trkpt lat="45.4716016934199" lon="9.252255425633969"><ele>115.5</ele><time>2026-05-01T05:40:18Z</time></trkpt><trkpt lat="45.47131271650335" lon="9.252199044140745"><ele>114.0</ele><time>2026-05-01T05:40:19Z</time></trkpt><trkpt lat="45.4710214325089" lon="9.252146577364012"><ele>114.0</ele><time>2026-05-01T05:40:20Z</time></trkpt><trkpt lat="45.47072945667742" lon="9.252101710390143"><ele>114.0</ele><time>2026-05-01T05:40:21Z</time></trkpt><trkpt lat="45.47043481154071" lon="9.252066221877643"><ele>114.0</ele><time>2026-05-01T05:40:22Z</time></trkpt><trkpt lat="45.470138729619286" lon="9.252037173119787"><ele>114.0</ele><time>2026-05-01T05:40:23Z</time></trkpt><trkpt lat="45.469842040159214" lon="9.252012893403387"><ele>113.0</ele><time>2026-05-01T05:40:24Z</time></trkpt><trkpt lat="45.469543865067216" lon="9.251993587916864"><ele>112.0</ele><time>2026-05-01T05:40:25Z</time></trkpt><trkpt lat="45.46924530919862" lon="9.251978663639804"><ele>112.0</ele><time>2026-05-01T05:40:26Z</time></trkpt><trkpt lat="45.468948032667285" lon="9.251971163070682"><ele>112.0</ele><time>2026-05-01T05:40:27Z</time></trkpt><trkpt lat="45.46865325157257" lon="9.25197258827093"><ele>113.5</ele><time>2026-05-01T05:40:28Z</time></trkpt><trkpt lat="45.46835691075331" lon="9.251981176379694"><ele>115.0</ele><time>2026-05-01T05:40:29Z</time></trkpt><trkpt lat="45.46806014916507" lon="9.251990693441149"><ele>115.0</ele><time>2026-05-01T05:40:30Z</time></trkpt><trkpt lat="45.46776639492519" lon="9.251995424892627"><ele>115.0</ele><time>2026-05-01T05:40:31Z</time></trkpt><trkpt lat="45.46747480571783" lon="9.251990387324227"><ele>115.0</ele><time>2026-05-01T05:40:32Z</time></trkpt><trkpt lat="45.46718475749599" lon="9.251969997166512"><ele>115.0</ele><time>2026-05-01T05:40:33Z</time></trkpt><trkpt lat="45.466897228371955" lon="9.251927739269837"><ele>115.0</ele><time>2026-05-01T05:40:34Z</time></trkpt><trkpt lat="45.466613193805074" lon="9.251867159977484"><ele>115.0</ele><time>2026-05-01T05:40:35Z</time></trkpt><trkpt lat="45.466330572957155" lon="9.251793803495808"><ele>114.5</ele><time>2026-05-01T05:40:36Z</time></trkpt><trkpt lat="45.46605009695411" lon="9.251701792343013"><ele>114.0</ele><time>2026-05-01T05:40:37Z</time></trkpt><trkpt lat="45.465771144166354" lon="9.2515944341125"><ele>114.0</ele><time>2026-05-01T05:40:38Z</time></trkpt><trkpt lat="45.465494875459896" lon="9.251476769039627"><ele>114.0</ele><time>2026-05-01T05:40:39Z</time></trkpt><trkpt lat="45.46521899428257" lon="9.251351223256854"><ele>113.5</ele><time>2026-05-01T05:40:40Z</time></trkpt><trkpt lat="45.464941838005544" lon="9.251233922648469"><ele>113.0</ele><time>2026-05-01T05:40:41Z</time></trkpt><trkpt lat="45.46466115053947" lon="9.251136966759297"><ele>114.0</ele><time>2026-05-01T05:40:42Z</time></trkpt><trkpt lat="45.46437586468423" lon="9.251059365621888"><ele>115.0</ele><time>2026-05-01T05:40:43Z</time></trkpt><trkpt lat="45.464090428072375" lon="9.251003846632306"><ele>115.0</ele><time>2026-05-01T05:40:44Z</time></trkpt><trkpt lat="45.463805356214166" lon="9.250969514750997"><ele>115.0</ele><time>2026-05-01T05:40:45Z</time></trkpt><trkpt lat="45.463520957455835" lon="9.250955191533773"><ele>115.0</ele><time>2026-05-01T05:40:46Z</time></trkpt><trkpt lat="45.4632358065742" lon="9.250956874822197"><ele>115.0</ele><time>2026-05-01T05:40:47Z</time></trkpt><trkpt lat="45.462950935812906" lon="9.250970781201799"><ele>111.5</ele><time>2026-05-01T05:40:48Z</time></trkpt><trkpt lat="45.462667437932126" lon="9.250994120258772"><ele>108.0</ele><time>2026-05-01T05:40:49Z</time></trkpt><trkpt lat="45.46238502569665" lon="9.251021246981207"><ele>112.0</ele><time>2026-05-01T05:40:50Z</time></trkpt><trkpt lat="45.46210505413062" lon="9.251049833225839"><ele>116.0</ele><time>2026-05-01T05:40:51Z</time></trkpt><trkpt lat="45.46182417669527" lon="9.251079449751234"><ele>116.0</ele><time>2026-05-01T05:40:52Z</time></trkpt><trkpt lat="45.46154185053004" lon="9.251107038311467"><ele>116.0</ele><time>2026-05-01T05:40:53Z</time></trkpt><trkpt lat="45.461260395906514" lon="9.251133909727608"><ele>116.5</ele><time>2026-05-01T05:40:54Z</time></trkpt><trkpt lat="45.46097773311072" lon="9.251159608664208"><ele>117.0</ele><time>2026-05-01T05:40:55Z</time></trkpt><trkpt lat="45.46069431789729" lon="9.251188044225888"><ele>115.0</ele><time>2026-05-01T05:40:56Z</time></trkpt><trkpt lat="45.46041029436967" lon="9.251222126977707"><ele>113.0</ele><time>2026-05-01T05:40:57Z</time></trkpt><trkpt lat="45.46012314028349" lon="9.251256247503795"><ele>113.0</ele><time>2026-05-01T05:40:58Z</time></trkpt><trkpt lat="45.459833806669515" lon="9.251295072723877"><ele>113.0</ele><time>2026-05-01T05:40:59Z</time></trkpt><trkpt lat="45.45954309381331" lon="9.251345678825404"><ele>113.0</ele><time>2026-05-01T05:41:00Z</time></trkpt><trkpt lat="45.45925228944799" lon="9.251410081436429"><ele>113.0</ele><time>2026-05-01T05:41:01Z</time></trkpt><trkpt lat="45.45896256002559" lon="9.251489562431965"><ele>113.5</ele><time>2026-05-01T05:41:02Z</time></trkpt><trkpt lat="45.45867243180582" lon="9.251580754092323"><ele>114.0</ele><time>2026-05-01T05:41:03Z</time></trkpt><trkpt lat="45.458385255640636" lon="9.251682075198628"><ele>114.0</ele><time>2026-05-01T05:41:04Z</time></trkpt><trkpt lat="45.45810033738066" lon="9.251793278766266"><ele>114.0</ele><time>2026-05-01T05:41:05Z</time></trkpt><trkpt lat="45.45781664634605" lon="9.25191513167896"><ele>112.5</ele><time>2026-05-01T05:41:06Z</time></trkpt><trkpt lat="45.457537230669324" lon="9.252044389513042"><ele>111.0</ele><time>2026-05-01T05:41:07Z</time></trkpt><trkpt lat="45.4572646251189" lon="9.252186542296041"><ele>111.5</ele><time>2026-05-01T05:41:08Z</time></trkpt><trkpt lat="45.4569986849533" lon="9.252342785241632"><ele>112.0</ele><time>2026-05-01T05:41:09Z</time></trkpt><trkpt lat="45.45673995874682" lon="9.25250907619988"><ele>112.0</ele><time>2026-05-01T05:41:10Z</time></trkpt><trkpt lat="45.45648976729513" lon="9.252685653985775"><ele>112.0</ele><time>2026-05-01T05:41:11Z</time></trkpt><trkpt lat="45.456251765734116" lon="9.252871611795864"><ele>111.5</ele><time>2026-05-01T05:41:12Z</time></trkpt><trkpt lat="45.45602874950431" lon="9.253060257350972"><ele>111.0</ele><time>2026-05-01T05:41:13Z</time></trkpt><trkpt lat="45.45581591831726" lon="9.253241918813885"><ele>111.0</ele><time>2026-05-01T05:41:14Z</time></trkpt><trkpt lat="45.455613004774364" lon="9.2534149924994"><ele>111.0</ele><time>2026-05-01T05:41:14.999Z</time></trkpt><trkpt lat="45.455409037396485" lon="9.253590146954103"><ele>110.5</ele><time>2026-05-01T05:41:15.999Z</time></trkpt><trkpt lat="45.45520242452708" lon="9.253778697625943"><ele>110.0</ele><time>2026-05-01T05:41:16.999Z</time></trkpt><trkpt lat="45.45498997539548" lon="9.253967257099571"><ele>109.5</ele><time>2026-05-01T05:41:17.999Z</time></trkpt><trkpt lat="45.45477142567987" lon="9.254151543879736"><ele>109.0</ele><time>2026-05-01T05:41:18.999Z</time></trkpt><trkpt lat="45.45454886231579" lon="9.254336778014181"><ele>109.0</ele><time>2026-05-01T05:41:19.999Z</time></trkpt><trkpt lat="45.454322210723504" lon="9.25452618623554"><ele>109.0</ele><time>2026-05-01T05:41:21Z</time></trkpt><trkpt lat="45.45409298835851" lon="9.254714674711648"><ele>109.5</ele><time>2026-05-01T05:41:22Z</time></trkpt><trkpt lat="45.453862258818106" lon="9.254906635386087"><ele>110.0</ele><time>2026-05-01T05:41:23Z</time></trkpt><trkpt lat="45.453631927312415" lon="9.255102892442295"><ele>110.0</ele><time>2026-05-01T05:41:24Z</time></trkpt><trkpt lat="45.45339886812025" lon="9.255302224688956"><ele>110.0</ele><time>2026-05-01T05:41:25Z</time></trkpt><trkpt lat="45.45316222447508" lon="9.255499402698053"><ele>110.0</ele><time>2026-05-01T05:41:26Z</time></trkpt><trkpt lat="45.45292380511138" lon="9.2556980709539"><ele>110.0</ele><time>2026-05-01T05:41:27Z</time></trkpt><trkpt lat="45.45268356000413" lon="9.255899582924648"><ele>110.0</ele><time>2026-05-01T05:41:28Z</time></trkpt><trkpt lat="45.45244206160175" lon="9.256102797329891"><ele>110.0</ele><time>2026-05-01T05:41:29Z</time></trkpt><trkpt lat="45.45220053058011" lon="9.256305473940827"><ele>110.5</ele><time>2026-05-01T05:41:30Z</time></trkpt><trkpt lat="45.451956690512695" lon="9.256506776341439"><ele>111.0</ele><time>2026-05-01T05:41:31Z</time></trkpt><trkpt lat="45.45171171785742" lon="9.25670749807872"><ele>111.0</ele><time>2026-05-01T05:41:32Z</time></trkpt><trkpt lat="45.45146629854389" lon="9.256905603352715"><ele>111.0</ele><time>2026-05-01T05:41:33Z</time></trkpt><trkpt lat="45.451218471413846" lon="9.257098122106557"><ele>111.5</ele><time>2026-05-01T05:41:34Z</time></trkpt><trkpt lat="45.450964972824785" lon="9.257284787810377"><ele>112.0</ele><time>2026-05-01T05:41:35Z</time></trkpt><trkpt lat="45.45071264794915" lon="9.257469173337888"><ele>112.5</ele><time>2026-05-01T05:41:36Z</time></trkpt><trkpt lat="45.45045505907531" lon="9.25764841705066"><ele>113.0</ele><time>2026-05-01T05:41:37Z</time></trkpt><trkpt lat="45.450196475998254" lon="9.257823017673847"><ele>113.0</ele><time>2026-05-01T05:41:38Z</time></trkpt><trkpt lat="45.449935828963056" lon="9.257985250157176"><ele>113.0</ele><time>2026-05-01T05:41:39Z</time></trkpt><trkpt lat="45.44967409851507" lon="9.258133551912309"><ele>111.0</ele><time>2026-05-01T05:41:40Z</time></trkpt><trkpt lat="45.44940721698484" lon="9.258264127673925"><ele>109.0</ele><time>2026-05-01T05:41:41Z</time></trkpt><trkpt lat="45.44913843350412" lon="9.258374996487355"><ele>109.0</ele><time>2026-05-01T05:41:42Z</time></trkpt><trkpt lat="45.44886767932472" lon="9.258468788280314"><ele>109.0</ele><time>2026-05-01T05:41:43Z</time></trkpt><trkpt lat="45.44859511984519" lon="9.25854920951686"><ele>108.0</ele><time>2026-05-01T05:41:44Z</time></trkpt><trkpt lat="45.448320660245265" lon="9.258611668578562"><ele>107.0</ele><time>2026-05-01T05:41:45Z</time></trkpt><trkpt lat="45.448044584076534" lon="9.258656993494284"><ele>105.5</ele><time>2026-05-01T05:41:46Z</time></trkpt><trkpt lat="45.447766491447226" lon="9.258678317036514"><ele>104.0</ele><time>2026-05-01T05:41:47Z</time></trkpt><trkpt lat="45.447487784927986" lon="9.25866982025846"><ele>104.0</ele><time>2026-05-01T05:41:48Z</time></trkpt><trkpt lat="45.44721207895662" lon="9.258652295004966"><ele>104.0</ele><time>2026-05-01T05:41:49Z</time></trkpt><trkpt lat="45.44693563996107" lon="9.258618842370819"><ele>107.5</ele><time>2026-05-01T05:41:50Z</time></trkpt><trkpt lat="45.4466599946978" lon="9.258571038834187"><ele>111.0</ele><time>2026-05-01T05:41:51Z</time></trkpt><trkpt lat="45.44638700807305" lon="9.25850947407265"><ele>106.0</ele><time>2026-05-01T05:41:52Z</time></trkpt><trkpt lat="45.446112835613995" lon="9.258437902481038"><ele>101.0</ele><time>2026-05-01T05:41:53Z</time></trkpt><trkpt lat="45.44583951788515" lon="9.258361202352347"><ele>101.0</ele><time>2026-05-01T05:41:54Z</time></trkpt><trkpt lat="45.44556426080851" lon="9.258282052475563"><ele>101.0</ele><time>2026-05-01T05:41:55Z</time></trkpt><trkpt lat="45.44529050270711" lon="9.258205746976124"><ele>98.0</ele><time>2026-05-01T05:41:56Z</time></trkpt><trkpt lat="45.44501683646929" lon="9.258130664242357"><ele>95.0</ele><time>2026-05-01T05:41:57Z</time></trkpt><trkpt lat="45.444744577707624" lon="9.25805657163357"><ele>94.5</ele><time>2026-05-01T05:41:58Z</time></trkpt><trkpt lat="45.44447088069902" lon="9.25798095226489"><ele>94.0</ele><time>2026-05-01T05:41:59Z</time></trkpt><trkpt lat="45.44419588566881" lon="9.257904003069156"><ele>94.0</ele><time>2026-05-01T05:42:00Z</time></trkpt><trkpt lat="45.4439208538068" lon="9.257826011813515"><ele>94.0</ele><time>2026-05-01T05:42:01Z</time></trkpt><trkpt lat="45.44364570144905" lon="9.257747625802219"><ele>95.5</ele><time>2026-05-01T05:42:02Z</time></trkpt><trkpt lat="45.44337159885764" lon="9.257669810342074"><ele>97.0</ele><time>2026-05-01T05:42:03Z</time></trkpt><trkpt lat="45.44309651224963" lon="9.257591163822736"><ele>100.5</ele><time>2026-05-01T05:42:04Z</time></trkpt><trkpt lat="45.442820930406796" lon="9.257511347309928"><ele>104.0</ele><time>2026-05-01T05:42:05Z</time></trkpt><trkpt lat="45.442544605409694" lon="9.257432344318262"><ele>104.0</ele><time>2026-05-01T05:42:06Z</time></trkpt><trkpt lat="45.44226814275678" lon="9.257353808064487"><ele>104.0</ele><time>2026-05-01T05:42:07Z</time></trkpt><trkpt lat="45.44199412183804" lon="9.257276616014877"><ele>104.0</ele><time>2026-05-01T05:42:08Z</time></trkpt><trkpt lat="45.441714740945706" lon="9.257197547691103"><ele>104.0</ele><time>2026-05-01T05:42:09Z</time></trkpt><trkpt lat="45.44143706283526" lon="9.257119919535862"><ele>104.0</ele><time>2026-05-01T05:42:10Z</time></trkpt><trkpt lat="45.441160180731146" lon="9.257041527388651"><ele>104.0</ele><time>2026-05-01T05:42:11Z</time></trkpt><trkpt lat="45.44088253174189" lon="9.256962322745007"><ele>104.0</ele><time>2026-05-01T05:42:12Z</time></trkpt><trkpt lat="45.440604719807084" lon="9.256883935137575"><ele>104.0</ele><time>2026-05-01T05:42:13Z</time></trkpt><trkpt lat="45.440326972686684" lon="9.25680580756473"><ele>104.5</ele><time>2026-05-01T05:42:14Z</time></trkpt><trkpt lat="45.440048990240015" lon="9.256724773474529"><ele>105.0</ele><time>2026-05-01T05:42:15Z</time></trkpt><trkpt lat="45.439771533069795" lon="9.256643154914997"><ele>104.5</ele><time>2026-05-01T05:42:16Z</time></trkpt><trkpt lat="45.43949344274996" lon="9.256564482784144"><ele>104.0</ele><time>2026-05-01T05:42:17Z</time></trkpt><trkpt lat="45.43921654369334" lon="9.256489076679605"><ele>104.5</ele><time>2026-05-01T05:42:18Z</time></trkpt><trkpt lat="45.43893827985786" lon="9.256411101519802"><ele>105.0</ele><time>2026-05-01T05:42:19Z</time></trkpt><trkpt lat="45.43866121413096" lon="9.256332935867395"><ele>105.0</ele><time>2026-05-01T05:42:20Z</time></trkpt><trkpt lat="45.438384751712064" lon="9.256253920087445"><ele>105.0</ele><time>2026-05-01T05:42:21Z</time></trkpt><trkpt lat="45.438108634624804" lon="9.256175409547957"><ele>106.5</ele><time>2026-05-01T05:42:22Z</time></trkpt><trkpt lat="45.437832702131324" lon="9.25609661777556"><ele>108.0</ele><time>2026-05-01T05:42:23Z</time></trkpt><trkpt lat="45.43755857261046" lon="9.256016484892582"><ele>108.0</ele><time>2026-05-01T05:42:24Z</time></trkpt><trkpt lat="45.437284483812356" lon="9.255933249655568"><ele>108.0</ele><time>2026-05-01T05:42:25Z</time></trkpt><trkpt lat="45.43701060969874" lon="9.25584513510295"><ele>107.0</ele><time>2026-05-01T05:42:26Z</time></trkpt><trkpt lat="45.43673804221077" lon="9.255754718440018"><ele>106.0</ele><time>2026-05-01T05:42:27Z</time></trkpt><trkpt lat="45.436463468137234" lon="9.255657903247874"><ele>104.5</ele><time>2026-05-01T05:42:28Z</time></trkpt><trkpt lat="45.43619133704193" lon="9.25555284498987"><ele>103.0</ele><time>2026-05-01T05:42:29Z</time></trkpt><trkpt lat="45.43592337607429" lon="9.255433715321601"><ele>103.0</ele><time>2026-05-01T05:42:30Z</time></trkpt><trkpt lat="45.435655268476246" lon="9.255305194883135"><ele>103.0</ele><time>2026-05-01T05:42:31Z</time></trkpt><trkpt lat="45.43538753452922" lon="9.25516522850199"><ele>104.5</ele><time>2026-05-01T05:42:32Z</time></trkpt><trkpt lat="45.43512151005259" lon="9.2550146174574"><ele>106.0</ele><time>2026-05-01T05:42:33Z</time></trkpt><trkpt lat="45.434862892084794" lon="9.254856342972804"><ele>106.5</ele><time>2026-05-01T05:42:34Z</time></trkpt><trkpt lat="45.434601583056924" lon="9.25469184983378"><ele>107.0</ele><time>2026-05-01T05:42:35Z</time></trkpt><trkpt lat="45.434344893531694" lon="9.2545184877594"><ele>107.0</ele><time>2026-05-01T05:42:36Z</time></trkpt><trkpt lat="45.43409222597569" lon="9.254336519195725"><ele>107.0</ele><time>2026-05-01T05:42:37Z</time></trkpt><trkpt lat="45.43384234745536" lon="9.254143446341423"><ele>107.0</ele><time>2026-05-01T05:42:38Z</time></trkpt><trkpt lat="45.433593189350596" lon="9.25394200610347"><ele>107.0</ele><time>2026-05-01T05:42:39Z</time></trkpt><trkpt lat="45.43334300365135" lon="9.25373647928118"><ele>107.0</ele><time>2026-05-01T05:42:40Z</time></trkpt><trkpt lat="45.4330953089676" lon="9.253523452663067"><ele>107.0</ele><time>2026-05-01T05:42:41Z</time></trkpt><trkpt lat="45.432853280022655" lon="9.25330140896705"><ele>104.5</ele><time>2026-05-01T05:42:42Z</time></trkpt><trkpt lat="45.432614948831024" lon="9.253066990235919"><ele>102.0</ele><time>2026-05-01T05:42:43Z</time></trkpt><trkpt lat="45.43238101750097" lon="9.252822882406788"><ele>102.0</ele><time>2026-05-01T05:42:44Z</time></trkpt><trkpt lat="45.43215524935576" lon="9.252567290067974"><ele>102.0</ele><time>2026-05-01T05:42:45Z</time></trkpt><trkpt lat="45.431936173533316" lon="9.252302321663882"><ele>103.5</ele><time>2026-05-01T05:42:46Z</time></trkpt><trkpt lat="45.431721931898736" lon="9.252029246201257"><ele>105.0</ele><time>2026-05-01T05:42:47Z</time></trkpt><trkpt lat="45.43151278235279" lon="9.251746110580667"><ele>105.5</ele><time>2026-05-01T05:42:48Z</time></trkpt><trkpt lat="45.43130725925531" lon="9.25145642114151"><ele>106.0</ele><time>2026-05-01T05:42:49Z</time></trkpt><trkpt lat="45.43110522807996" lon="9.251165478959505"><ele>106.0</ele><time>2026-05-01T05:42:50Z</time></trkpt><trkpt lat="45.430907145178004" lon="9.250871241324464"><ele>106.0</ele><time>2026-05-01T05:42:51Z</time></trkpt><trkpt lat="45.430708628928706" lon="9.250577873846732"><ele>106.5</ele><time>2026-05-01T05:42:52Z</time></trkpt><trkpt lat="45.43050929972228" lon="9.250284250646235"><ele>107.0</ele><time>2026-05-01T05:42:53Z</time></trkpt><trkpt lat="45.43031460449344" lon="9.249989495066803"><ele>107.0</ele><time>2026-05-01T05:42:54Z</time></trkpt><trkpt lat="45.43012602901031" lon="9.249690335846877"><ele>107.0</ele><time>2026-05-01T05:42:55Z</time></trkpt><trkpt lat="45.429941820529635" lon="9.249387985148347"><ele>107.0</ele><time>2026-05-01T05:42:56Z</time></trkpt><trkpt lat="45.42975724145764" lon="9.249081718703792"><ele>107.0</ele><time>2026-05-01T05:42:57Z</time></trkpt><trkpt lat="45.42957115876564" lon="9.248777843241848"><ele>108.5</ele><time>2026-05-01T05:42:58Z</time></trkpt><trkpt lat="45.429385197202485" lon="9.248475945204284"><ele>110.0</ele><time>2026-05-01T05:42:59Z</time></trkpt><trkpt lat="45.42919883416003" lon="9.24817097372713"><ele>109.0</ele><time>2026-05-01T05:43:00Z</time></trkpt><trkpt lat="45.429010867552705" lon="9.247866791703402"><ele>108.0</ele><time>2026-05-01T05:43:01Z</time></trkpt><trkpt lat="45.42882017382767" lon="9.247565821822604"><ele>110.0</ele><time>2026-05-01T05:43:02Z</time></trkpt><trkpt lat="45.42862044978583" lon="9.247279547848763"><ele>112.0</ele><time>2026-05-01T05:43:03Z</time></trkpt><trkpt lat="45.42841241446294" lon="9.247006466699952"><ele>112.0</ele><time>2026-05-01T05:43:04Z</time></trkpt><trkpt lat="45.42819430209813" lon="9.246748749025972"><ele>112.0</ele><time>2026-05-01T05:43:05Z</time></trkpt><trkpt lat="45.42796337282088" lon="9.246520197097306"><ele>108.0</ele><time>2026-05-01T05:43:06Z</time></trkpt><trkpt lat="45.4277248231745" lon="9.246309750132765"><ele>104.0</ele><time>2026-05-01T05:43:07Z</time></trkpt><trkpt lat="45.42747915932121" lon="9.246119165062654"><ele>104.0</ele><time>2026-05-01T05:43:08Z</time></trkpt><trkpt lat="45.427227663680526" lon="9.245949102786495"><ele>104.0</ele><time>2026-05-01T05:43:09Z</time></trkpt><trkpt lat="45.42696820548579" lon="9.245797115812342"><ele>102.5</ele><time>2026-05-01T05:43:10Z</time></trkpt><trkpt lat="45.426704256162424" lon="9.245664490349762"><ele>101.0</ele><time>2026-05-01T05:43:11Z</time></trkpt><trkpt lat="45.426435667451905" lon="9.245551655594873"><ele>103.0</ele><time>2026-05-01T05:43:11.999Z</time></trkpt><trkpt lat="45.426163301810305" lon="9.245467909397687"><ele>105.0</ele><time>2026-05-01T05:43:12.999Z</time></trkpt><trkpt lat="45.42588862889153" lon="9.245408660463244"><ele>105.0</ele><time>2026-05-01T05:43:13.999Z</time></trkpt><trkpt lat="45.425612624680156" lon="9.24537514476663"><ele>105.0</ele><time>2026-05-01T05:43:14.999Z</time></trkpt><trkpt lat="45.42533857541581" lon="9.245365526235016"><ele>104.5</ele><time>2026-05-01T05:43:15.999Z</time></trkpt><trkpt lat="45.42506248890882" lon="9.245379631168207"><ele>104.0</ele><time>2026-05-01T05:43:16.999Z</time></trkpt><trkpt lat="45.424787603208195" lon="9.24540874867213"><ele>104.0</ele><time>2026-05-01T05:43:17.999Z</time></trkpt><trkpt lat="45.424513388374734" lon="9.245442685607232"><ele>104.0</ele><time>2026-05-01T05:43:18.999Z</time></trkpt><trkpt lat="45.424240645093306" lon="9.24548074204082"><ele>104.0</ele><time>2026-05-01T05:43:19.999Z</time></trkpt><trkpt lat="45.42396954595754" lon="9.245516080111035"><ele>104.0</ele><time>2026-05-01T05:43:20.999Z</time></trkpt><trkpt lat="45.42370271774182" lon="9.245544052837152"><ele>104.5</ele><time>2026-05-01T05:43:21.999Z</time></trkpt><trkpt lat="45.42343463898982" lon="9.245573572112773"><ele>105.0</ele><time>2026-05-01T05:43:22.999Z</time></trkpt><trkpt lat="45.42316962711017" lon="9.245608270136106"><ele>105.0</ele><time>2026-05-01T05:43:23.999Z</time></trkpt><trkpt lat="45.42290674721481" lon="9.245642203847757"><ele>105.0</ele><time>2026-05-01T05:43:24.999Z</time></trkpt><trkpt lat="45.422641923077784" lon="9.24568130151736"><ele>105.0</ele><time>2026-05-01T05:43:26Z</time></trkpt><trkpt lat="45.42237562181636" lon="9.245721132874984"><ele>105.0</ele><time>2026-05-01T05:43:27Z</time></trkpt><trkpt lat="45.422110713605456" lon="9.245757825554241"><ele>106.0</ele><time>2026-05-01T05:43:28Z</time></trkpt><trkpt lat="45.42184226134974" lon="9.245790876882186"><ele>107.0</ele><time>2026-05-01T05:43:29Z</time></trkpt><trkpt lat="45.42156993577677" lon="9.245823426392429"><ele>107.0</ele><time>2026-05-01T05:43:30Z</time></trkpt><trkpt lat="45.42129533145584" lon="9.245860773884322"><ele>107.0</ele><time>2026-05-01T05:43:31Z</time></trkpt><trkpt lat="45.421020620030376" lon="9.245901144653548"><ele>107.0</ele><time>2026-05-01T05:43:32Z</time></trkpt><trkpt lat="45.4207433685773" lon="9.245944379089545"><ele>107.0</ele><time>2026-05-01T05:43:33Z</time></trkpt><trkpt lat="45.42046516094126" lon="9.245991210467631"><ele>106.0</ele><time>2026-05-01T05:43:34Z</time></trkpt><trkpt lat="45.42018577075281" lon="9.246053762949408"><ele>105.0</ele><time>2026-05-01T05:43:35Z</time></trkpt><trkpt lat="45.4199095257276" lon="9.24613394482901"><ele>104.0</ele><time>2026-05-01T05:43:36Z</time></trkpt><trkpt lat="45.41963725953583" lon="9.24623478956012"><ele>103.0</ele><time>2026-05-01T05:43:37Z</time></trkpt><trkpt lat="45.41936549125497" lon="9.246360126293267"><ele>104.0</ele><time>2026-05-01T05:43:38Z</time></trkpt><trkpt lat="45.41909736961171" lon="9.246510581324268"><ele>105.0</ele><time>2026-05-01T05:43:39Z</time></trkpt><trkpt lat="45.4188369901676" lon="9.24668038824428"><ele>103.0</ele><time>2026-05-01T05:43:40Z</time></trkpt><trkpt lat="45.41858263214837" lon="9.246865260745176"><ele>101.0</ele><time>2026-05-01T05:43:41Z</time></trkpt><trkpt lat="45.418335142159144" lon="9.247066084543937"><ele>101.0</ele><time>2026-05-01T05:43:42Z</time></trkpt><trkpt lat="45.41809758409174" lon="9.247287165182456"><ele>101.0</ele><time>2026-05-01T05:43:43Z</time></trkpt><trkpt lat="45.41786644323717" lon="9.247520228623772"><ele>100.5</ele><time>2026-05-01T05:43:44Z</time></trkpt><trkpt lat="45.41764490492108" lon="9.247767533566059"><ele>100.0</ele><time>2026-05-01T05:43:45Z</time></trkpt><trkpt lat="45.41742854805424" lon="9.248025259005338"><ele>99.0</ele><time>2026-05-01T05:43:46Z</time></trkpt><trkpt lat="45.41722079951396" lon="9.248294550169096"><ele>98.0</ele><time>2026-05-01T05:43:47Z</time></trkpt><trkpt lat="45.41702017409689" lon="9.248573070315857"><ele>100.0</ele><time>2026-05-01T05:43:48Z</time></trkpt><trkpt lat="45.416825542924315" lon="9.248857216444858"><ele>102.0</ele><time>2026-05-01T05:43:49Z</time></trkpt><trkpt lat="45.416631871102" lon="9.249146209861783"><ele>102.0</ele><time>2026-05-01T05:43:50Z</time></trkpt><trkpt lat="45.41643972464831" lon="9.249436331235957"><ele>102.0</ele><time>2026-05-01T05:43:51Z</time></trkpt><trkpt lat="45.4162466872808" lon="9.24972642142636"><ele>102.5</ele><time>2026-05-01T05:43:52Z</time></trkpt><trkpt lat="45.41605172679082" lon="9.250019522263118"><ele>103.0</ele><time>2026-05-01T05:43:53Z</time></trkpt><trkpt lat="45.41585984120031" lon="9.250308831109265"><ele>103.0</ele><time>2026-05-01T05:43:54Z</time></trkpt><trkpt lat="45.41566932024806" lon="9.250597491481969"><ele>103.0</ele><time>2026-05-01T05:43:55Z</time></trkpt><trkpt lat="45.415477774245154" lon="9.250887161360813"><ele>101.0</ele><time>2026-05-01T05:43:56Z</time></trkpt><trkpt lat="45.4152851215333" lon="9.251171425314816"><ele>99.0</ele><time>2026-05-01T05:43:57Z</time></trkpt><trkpt lat="45.41509123556021" lon="9.251454753126295"><ele>99.0</ele><time>2026-05-01T05:43:58Z</time></trkpt><trkpt lat="45.41489706028016" lon="9.251741284682225"><ele>99.0</ele><time>2026-05-01T05:43:59Z</time></trkpt><trkpt lat="45.41470364782627" lon="9.252027161944193"><ele>102.5</ele><time>2026-05-01T05:44:00Z</time></trkpt><trkpt lat="45.41450883239887" lon="9.252314191119655"><ele>106.0</ele><time>2026-05-01T05:44:01Z</time></trkpt><trkpt lat="45.414306645863256" lon="9.25259267716103"><ele>106.0</ele><time>2026-05-01T05:44:02Z</time></trkpt><trkpt lat="45.41409776195098" lon="9.25286532246699"><ele>106.0</ele><time>2026-05-01T05:44:03Z</time></trkpt><trkpt lat="45.413891438547346" lon="9.253139959555876"><ele>104.5</ele><time>2026-05-01T05:44:04Z</time></trkpt><trkpt lat="45.41368551485286" lon="9.253412307970637"><ele>103.0</ele><time>2026-05-01T05:44:05Z</time></trkpt><trkpt lat="45.41348020753529" lon="9.253685088355764"><ele>102.0</ele><time>2026-05-01T05:44:06Z</time></trkpt><trkpt lat="45.4132772392497" lon="9.253956258243514"><ele>101.0</ele><time>2026-05-01T05:44:07Z</time></trkpt><trkpt lat="45.41307212972217" lon="9.254226332716728"><ele>99.5</ele><time>2026-05-01T05:44:08Z</time></trkpt><trkpt lat="45.412869170147566" lon="9.254495169412879"><ele>98.0</ele><time>2026-05-01T05:44:09Z</time></trkpt><trkpt lat="45.412660772639846" lon="9.254760123532803"><ele>99.0</ele><time>2026-05-01T05:44:10Z</time></trkpt><trkpt lat="45.41245277373705" lon="9.25502721862734"><ele>100.0</ele><time>2026-05-01T05:44:11Z</time></trkpt><trkpt lat="45.41224330566265" lon="9.255293561842795"><ele>100.0</ele><time>2026-05-01T05:44:12Z</time></trkpt><trkpt lat="45.41203219237609" lon="9.2555607596868"><ele>100.0</ele><time>2026-05-01T05:44:13Z</time></trkpt><trkpt lat="45.41182095495115" lon="9.25582928160379"><ele>100.0</ele><time>2026-05-01T05:44:14Z</time></trkpt><trkpt lat="45.41160817107057" lon="9.256099012854392"><ele>100.0</ele><time>2026-05-01T05:44:15Z</time></trkpt><trkpt lat="45.41139592625954" lon="9.256368378145584"><ele>99.5</ele><time>2026-05-01T05:44:16Z</time></trkpt><trkpt lat="45.41118626614044" lon="9.256638972122083"><ele>99.0</ele><time>2026-05-01T05:44:17Z</time></trkpt><trkpt lat="45.410974575070405" lon="9.256908064161278"><ele>99.0</ele><time>2026-05-01T05:44:18Z</time></trkpt><trkpt lat="45.410759247320534" lon="9.257177720772058"><ele>99.0</ele><time>2026-05-01T05:44:19Z</time></trkpt><trkpt lat="45.41054338512971" lon="9.25744303663729"><ele>99.5</ele><time>2026-05-01T05:44:20Z</time></trkpt><trkpt lat="45.410329029209514" lon="9.257702489155777"><ele>100.0</ele><time>2026-05-01T05:44:21Z</time></trkpt><trkpt lat="45.41011573426364" lon="9.25796010965695"><ele>101.0</ele><time>2026-05-01T05:44:22Z</time></trkpt><trkpt lat="45.409906363141495" lon="9.258220032425182"><ele>102.0</ele><time>2026-05-01T05:44:23Z</time></trkpt><trkpt lat="45.40969856188104" lon="9.258477461677055"><ele>100.0</ele><time>2026-05-01T05:44:24Z</time></trkpt><trkpt lat="45.40949124217276" lon="9.258732985762657"><ele>98.0</ele><time>2026-05-01T05:44:25Z</time></trkpt><trkpt lat="45.409288114513586" lon="9.258989568852007"><ele>98.0</ele><time>2026-05-01T05:44:26Z</time></trkpt><trkpt lat="45.40908532244494" lon="9.259245439181234"><ele>98.0</ele><time>2026-05-01T05:44:27Z</time></trkpt><trkpt lat="45.408880015802886" lon="9.259501698982143"><ele>98.0</ele><time>2026-05-01T05:44:28Z</time></trkpt><trkpt lat="45.4086704389191" lon="9.259754041875384"><ele>98.0</ele><time>2026-05-01T05:44:29Z</time></trkpt><trkpt lat="45.4084542143884" lon="9.259996798991496"><ele>98.0</ele><time>2026-05-01T05:44:30Z</time></trkpt><trkpt lat="45.408230850237175" lon="9.260223491531395"><ele>98.0</ele><time>2026-05-01T05:44:31Z</time></trkpt><trkpt lat="45.40800284242032" lon="9.260430853657327"><ele>98.0</ele><time>2026-05-01T05:44:32Z</time></trkpt><trkpt lat="45.40776847374323" lon="9.260616726307727"><ele>98.0</ele><time>2026-05-01T05:44:33Z</time></trkpt><trkpt lat="45.40752697110835" lon="9.260776755740665"><ele>98.0</ele><time>2026-05-01T05:44:34Z</time></trkpt><trkpt lat="45.40727927929199" lon="9.26091596988103"><ele>98.0</ele><time>2026-05-01T05:44:35Z</time></trkpt><trkpt lat="45.40702527191892" lon="9.26103247275418"><ele>98.5</ele><time>2026-05-01T05:44:36Z</time></trkpt><trkpt lat="45.40676612252112" lon="9.261125832875685"><ele>99.0</ele><time>2026-05-01T05:44:37Z</time></trkpt><trkpt lat="45.40650200959094" lon="9.261201276479788"><ele>99.5</ele><time>2026-05-01T05:44:38Z</time></trkpt><trkpt lat="45.406236377442156" lon="9.261244390987864"><ele>100.0</ele><time>2026-05-01T05:44:39Z</time></trkpt><trkpt lat="45.40596831141488" lon="9.261264368726911"><ele>100.0</ele><time>2026-05-01T05:44:40Z</time></trkpt><trkpt lat="45.405703690141564" lon="9.261252904074194"><ele>100.0</ele><time>2026-05-01T05:44:41Z</time></trkpt><trkpt lat="45.40543844228389" lon="9.261235643221655"><ele>99.0</ele><time>2026-05-01T05:44:42Z</time></trkpt><trkpt lat="45.405170314282394" lon="9.261210065035907"><ele>98.0</ele><time>2026-05-01T05:44:43Z</time></trkpt><trkpt lat="45.404901551277625" lon="9.26117744986391"><ele>98.5</ele><time>2026-05-01T05:44:44Z</time></trkpt><trkpt lat="45.404632750477646" lon="9.261145989390306"><ele>99.0</ele><time>2026-05-01T05:44:45Z</time></trkpt><trkpt lat="45.404362266634045" lon="9.261117338963247"><ele>99.0</ele><time>2026-05-01T05:44:46Z</time></trkpt><trkpt lat="45.40409037294963" lon="9.261092069450376"><ele>99.0</ele><time>2026-05-01T05:44:47Z</time></trkpt><trkpt lat="45.40381659810317" lon="9.261063623157836"><ele>99.5</ele><time>2026-05-01T05:44:48Z</time></trkpt><trkpt lat="45.403542310283534" lon="9.261035173012141"><ele>100.0</ele><time>2026-05-01T05:44:49Z</time></trkpt><trkpt lat="45.40326625428464" lon="9.261005399536701"><ele>99.5</ele><time>2026-05-01T05:44:50Z</time></trkpt><trkpt lat="45.40299092502502" lon="9.260974667921861"><ele>99.0</ele><time>2026-05-01T05:44:51Z</time></trkpt><trkpt lat="45.402714815622495" lon="9.260944359092257"><ele>99.0</ele><time>2026-05-01T05:44:52Z</time></trkpt><trkpt lat="45.40243944628874" lon="9.260914897339124"><ele>99.0</ele><time>2026-05-01T05:44:53Z</time></trkpt><trkpt lat="45.40216273859168" lon="9.26088370137159"><ele>99.0</ele><time>2026-05-01T05:44:54Z</time></trkpt><trkpt lat="45.401886502194145" lon="9.260854873556788"><ele>99.0</ele><time>2026-05-01T05:44:55Z</time></trkpt><trkpt lat="45.40161313733353" lon="9.260826382837276"><ele>99.0</ele><time>2026-05-01T05:44:56Z</time></trkpt><trkpt lat="45.401339965954605" lon="9.26080030432612"><ele>99.0</ele><time>2026-05-01T05:44:57Z</time></trkpt><trkpt lat="45.40106511569879" lon="9.26077912993559"><ele>98.5</ele><time>2026-05-01T05:44:58Z</time></trkpt><trkpt lat="45.40078909054062" lon="9.260760865342203"><ele>98.0</ele><time>2026-05-01T05:44:59Z</time></trkpt><trkpt lat="45.40051342635426" lon="9.260741755379026"><ele>98.0</ele><time>2026-05-01T05:45:00Z</time></trkpt><trkpt lat="45.400238890491764" lon="9.26071851387284"><ele>98.0</ele><time>2026-05-01T05:45:01Z</time></trkpt><trkpt lat="45.3999659805508" lon="9.260692808119853"><ele>98.0</ele><time>2026-05-01T05:45:02Z</time></trkpt><trkpt lat="45.39969217716261" lon="9.260663047478674"><ele>98.0</ele><time>2026-05-01T05:45:03Z</time></trkpt><trkpt lat="45.399419308574195" lon="9.260631918001593"><ele>99.0</ele><time>2026-05-01T05:45:04Z</time></trkpt><trkpt lat="45.39914635171641" lon="9.260599440935248"><ele>100.0</ele><time>2026-05-01T05:45:05Z</time></trkpt><trkpt lat="45.398872804363165" lon="9.26056824030568"><ele>100.5</ele><time>2026-05-01T05:45:06Z</time></trkpt><trkpt lat="45.39859988099851" lon="9.260539373416346"><ele>101.0</ele><time>2026-05-01T05:45:06.999Z</time></trkpt><trkpt lat="45.39832725560014" lon="9.260514170396826"><ele>101.0</ele><time>2026-05-01T05:45:07.999Z</time></trkpt><trkpt lat="45.39805258180004" lon="9.260491855027185"><ele>101.0</ele><time>2026-05-01T05:45:08.999Z</time></trkpt><trkpt lat="45.39777472753199" lon="9.260470034458047"><ele>101.0</ele><time>2026-05-01T05:45:09.999Z</time></trkpt><trkpt lat="45.39749724867291" lon="9.260448529589116"><ele>101.0</ele><time>2026-05-01T05:45:10.999Z</time></trkpt><trkpt lat="45.39722261982081" lon="9.260425258592036"><ele>100.5</ele><time>2026-05-01T05:45:11.999Z</time></trkpt><trkpt lat="45.396948488573905" lon="9.26039701260124"><ele>100.0</ele><time>2026-05-01T05:45:12.999Z</time></trkpt><trkpt lat="45.396675612384605" lon="9.260368360522392"><ele>100.0</ele><time>2026-05-01T05:45:13.999Z</time></trkpt><trkpt lat="45.39640057746672" lon="9.260339979864828"><ele>100.0</ele><time>2026-05-01T05:45:14.999Z</time></trkpt><trkpt lat="45.39612689722786" lon="9.260315474167063"><ele>100.0</ele><time>2026-05-01T05:45:15.999Z</time></trkpt><trkpt lat="45.39585497132839" lon="9.26029742592654"><ele>100.0</ele><time>2026-05-01T05:45:16.999Z</time></trkpt><trkpt lat="45.39558152319296" lon="9.260287530507668"><ele>100.0</ele><time>2026-05-01T05:45:17.999Z</time></trkpt><trkpt lat="45.39530624144785" lon="9.260286456710151"><ele>100.0</ele><time>2026-05-01T05:45:18.999Z</time></trkpt><trkpt lat="45.39503075502405" lon="9.260294832115314"><ele>100.0</ele><time>2026-05-01T05:45:19.999Z</time></trkpt><trkpt lat="45.394755193595614" lon="9.260311994188621"><ele>100.0</ele><time>2026-05-01T05:45:20.999Z</time></trkpt><trkpt lat="45.39447893679464" lon="9.260337192678016"><ele>101.0</ele><time>2026-05-01T05:45:21.999Z</time></trkpt><trkpt lat="45.394204933940784" lon="9.260371230682772"><ele>102.0</ele><time>2026-05-01T05:45:22.999Z</time></trkpt><trkpt lat="45.39393296144812" lon="9.26041238445729"><ele>101.5</ele><time>2026-05-01T05:45:23.999Z</time></trkpt><trkpt lat="45.393662834971536" lon="9.260460957634818"><ele>101.0</ele><time>2026-05-01T05:45:24.999Z</time></trkpt><trkpt lat="45.393392316337525" lon="9.26052076645923"><ele>101.0</ele><time>2026-05-01T05:45:25.999Z</time></trkpt><trkpt lat="45.393124069316016" lon="9.260592303568309"><ele>101.0</ele><time>2026-05-01T05:45:26.999Z</time></trkpt><trkpt lat="45.39285725351006" lon="9.260673981924269"><ele>101.0</ele><time>2026-05-01T05:45:27.999Z</time></trkpt><trkpt lat="45.392590752712856" lon="9.26077018529892"><ele>101.0</ele><time>2026-05-01T05:45:28.999Z</time></trkpt><trkpt lat="45.392324683109116" lon="9.260876988436694"><ele>99.5</ele><time>2026-05-01T05:45:29.999Z</time></trkpt><trkpt lat="45.39206056430347" lon="9.260995560783616"><ele>98.0</ele><time>2026-05-01T05:45:30.999Z</time></trkpt><trkpt lat="45.39179844755701" lon="9.261123937826946"><ele>98.0</ele><time>2026-05-01T05:45:32Z</time></trkpt><trkpt lat="45.39154147196177" lon="9.261263969614337"><ele>98.0</ele><time>2026-05-01T05:45:33Z</time></trkpt><trkpt lat="45.39128096422223" lon="9.261411318569635"><ele>98.5</ele><time>2026-05-01T05:45:34Z</time></trkpt><trkpt lat="45.39102252486764" lon="9.261569311033986"><ele>99.0</ele><time>2026-05-01T05:45:35Z</time></trkpt><trkpt lat="45.39076569423022" lon="9.261733169675338"><ele>99.0</ele><time>2026-05-01T05:45:36Z</time></trkpt><trkpt lat="45.39051171822023" lon="9.26190870635515"><ele>99.0</ele><time>2026-05-01T05:45:37Z</time></trkpt><trkpt lat="45.39025920341895" lon="9.262091886201144"><ele>97.5</ele><time>2026-05-01T05:45:38Z</time></trkpt><trkpt lat="45.39001177952919" lon="9.262287078308306"><ele>96.0</ele><time>2026-05-01T05:45:39Z</time></trkpt><trkpt lat="45.38977099061103" lon="9.26249236056828"><ele>96.5</ele><time>2026-05-01T05:45:40Z</time></trkpt><trkpt lat="45.38953112747523" lon="9.262705265935137"><ele>97.0</ele><time>2026-05-01T05:45:41Z</time></trkpt><trkpt lat="45.3892945795257" lon="9.262927002847963"><ele>96.5</ele><time>2026-05-01T05:45:42Z</time></trkpt><trkpt lat="45.38906369991755" lon="9.263158104814826"><ele>96.0</ele><time>2026-05-01T05:45:43Z</time></trkpt><trkpt lat="45.3888364780864" lon="9.26339816755854"><ele>97.0</ele><time>2026-05-01T05:45:44Z</time></trkpt><trkpt lat="45.38861391283189" lon="9.263645953808789"><ele>98.0</ele><time>2026-05-01T05:45:45Z</time></trkpt><trkpt lat="45.38839302923303" lon="9.263898709171606"><ele>98.5</ele><time>2026-05-01T05:45:46Z</time></trkpt><trkpt lat="45.388174955964985" lon="9.264155955602034"><ele>99.0</ele><time>2026-05-01T05:45:47Z</time></trkpt><trkpt lat="45.387956186596675" lon="9.264412666966983"><ele>99.0</ele><time>2026-05-01T05:45:48Z</time></trkpt><trkpt lat="45.387737149697045" lon="9.264666668420249"><ele>99.0</ele><time>2026-05-01T05:45:49Z</time></trkpt><trkpt lat="45.387515143809345" lon="9.264915072515972"><ele>98.5</ele><time>2026-05-01T05:45:50Z</time></trkpt><trkpt lat="45.38729158645339" lon="9.265157115123769"><ele>98.0</ele><time>2026-05-01T05:45:51Z</time></trkpt><trkpt lat="45.387070355037864" lon="9.26540674214556"><ele>97.5</ele><time>2026-05-01T05:45:52Z</time></trkpt><trkpt lat="45.38685264836262" lon="9.265660892209976"><ele>97.0</ele><time>2026-05-01T05:45:53Z</time></trkpt><trkpt lat="45.3866352897802" lon="9.26591318314947"><ele>97.0</ele><time>2026-05-01T05:45:54Z</time></trkpt><trkpt lat="45.386418174264094" lon="9.266167755797891"><ele>97.0</ele><time>2026-05-01T05:45:55Z</time></trkpt><trkpt lat="45.386200994348606" lon="9.26642145552788"><ele>97.0</ele><time>2026-05-01T05:45:56Z</time></trkpt><trkpt lat="45.38598296527854" lon="9.266676150413515"><ele>97.0</ele><time>2026-05-01T05:45:57Z</time></trkpt><trkpt lat="45.38576439410599" lon="9.266928650201448"><ele>97.0</ele><time>2026-05-01T05:45:58Z</time></trkpt><trkpt lat="45.38554687120746" lon="9.267182303580437"><ele>97.0</ele><time>2026-05-01T05:45:59Z</time></trkpt><trkpt lat="45.38533032635719" lon="9.267435294697037"><ele>97.0</ele><time>2026-05-01T05:46:00Z</time></trkpt><trkpt lat="45.38511454526775" lon="9.267690963027615"><ele>97.0</ele><time>2026-05-01T05:46:01Z</time></trkpt><trkpt lat="45.38489872510915" lon="9.267945555203033"><ele>97.0</ele><time>2026-05-01T05:46:02Z</time></trkpt><trkpt lat="45.384682650646084" lon="9.268197588850557"><ele>97.0</ele><time>2026-05-01T05:46:03Z</time></trkpt><trkpt lat="45.38446538196629" lon="9.268449493924267"><ele>97.5</ele><time>2026-05-01T05:46:04Z</time></trkpt><trkpt lat="45.38424805132989" lon="9.268702405238082"><ele>98.0</ele><time>2026-05-01T05:46:05Z</time></trkpt><trkpt lat="45.38403225139936" lon="9.268961130268874"><ele>97.5</ele><time>2026-05-01T05:46:06Z</time></trkpt><trkpt lat="45.3838172383648" lon="9.269216626580283"><ele>97.0</ele><time>2026-05-01T05:46:07Z</time></trkpt><trkpt lat="45.3835993815294" lon="9.269470522132728"><ele>97.0</ele><time>2026-05-01T05:46:08Z</time></trkpt><trkpt lat="45.38338293546301" lon="9.269726385762487"><ele>97.0</ele><time>2026-05-01T05:46:09Z</time></trkpt><trkpt lat="45.38316316840311" lon="9.269985070121722"><ele>95.5</ele><time>2026-05-01T05:46:10Z</time></trkpt><trkpt lat="45.382942886393565" lon="9.270242083578838"><ele>94.0</ele><time>2026-05-01T05:46:11Z</time></trkpt><trkpt lat="45.38272333918729" lon="9.27050031734423"><ele>94.0</ele><time>2026-05-01T05:46:12Z</time></trkpt><trkpt lat="45.382503818631086" lon="9.270757935710645"><ele>94.0</ele><time>2026-05-01T05:46:13Z</time></trkpt><trkpt lat="45.382285050819654" lon="9.271015159773812"><ele>95.0</ele><time>2026-05-01T05:46:14Z</time></trkpt><trkpt lat="45.38206557502738" lon="9.271271859362296"><ele>96.0</ele><time>2026-05-01T05:46:15Z</time></trkpt><trkpt lat="45.38184685291538" lon="9.271527457064302"><ele>96.0</ele><time>2026-05-01T05:46:16Z</time></trkpt><trkpt lat="45.38162808649142" lon="9.271783899957327"><ele>96.0</ele><time>2026-05-01T05:46:17Z</time></trkpt><trkpt lat="45.38140878469687" lon="9.272038248341065"><ele>96.0</ele><time>2026-05-01T05:46:18Z</time></trkpt><trkpt lat="45.38119203308701" lon="9.272294563344582"><ele>96.0</ele><time>2026-05-01T05:46:19Z</time></trkpt><trkpt lat="45.38097682053846" lon="9.272554000014928"><ele>96.0</ele><time>2026-05-01T05:46:20Z</time></trkpt><trkpt lat="45.38076233134999" lon="9.272811580423678"><ele>96.0</ele><time>2026-05-01T05:46:21Z</time></trkpt><trkpt lat="45.380545235515505" lon="9.273066448949242"><ele>96.5</ele><time>2026-05-01T05:46:22Z</time></trkpt><trkpt lat="45.38032792934263" lon="9.273323590450241"><ele>97.0</ele><time>2026-05-01T05:46:23Z</time></trkpt><trkpt lat="45.38011091307682" lon="9.273579048274996"><ele>97.0</ele><time>2026-05-01T05:46:24Z</time></trkpt><trkpt lat="45.37989443687457" lon="9.273832963304898"><ele>97.0</ele><time>2026-05-01T05:46:25Z</time></trkpt><trkpt lat="45.37967803776923" lon="9.274088514641448"><ele>97.0</ele><time>2026-05-01T05:46:26Z</time></trkpt><trkpt lat="45.3794648415983" lon="9.274348897995328"><ele>97.0</ele><time>2026-05-01T05:46:27Z</time></trkpt><trkpt lat="45.37925590910616" lon="9.274615522938616"><ele>96.5</ele><time>2026-05-01T05:46:28Z</time></trkpt><trkpt lat="45.37904702245144" lon="9.274882223329572"><ele>96.0</ele><time>2026-05-01T05:46:29Z</time></trkpt><trkpt lat="45.378834254245895" lon="9.275150926919174"><ele>96.0</ele><time>2026-05-01T05:46:30Z</time></trkpt><trkpt lat="45.37861900275173" lon="9.275418959463329"><ele>96.0</ele><time>2026-05-01T05:46:31Z</time></trkpt><trkpt lat="45.37840031613336" lon="9.275679174111808"><ele>96.0</ele><time>2026-05-01T05:46:32Z</time></trkpt><trkpt lat="45.37817957350113" lon="9.275940017507972"><ele>96.0</ele><time>2026-05-01T05:46:33Z</time></trkpt><trkpt lat="45.3779580048089" lon="9.27620008246076"><ele>96.0</ele><time>2026-05-01T05:46:34Z</time></trkpt><trkpt lat="45.37773873301974" lon="9.2764597365966"><ele>96.0</ele><time>2026-05-01T05:46:35Z</time></trkpt><trkpt lat="45.3775184455004" lon="9.276719957945812"><ele>96.0</ele><time>2026-05-01T05:46:36Z</time></trkpt><trkpt lat="45.377294280403845" lon="9.276981110100754"><ele>96.0</ele><time>2026-05-01T05:46:37Z</time></trkpt><trkpt lat="45.37706797682957" lon="9.277239379179898"><ele>96.0</ele><time>2026-05-01T05:46:38Z</time></trkpt><trkpt lat="45.37683849702941" lon="9.277499310937353"><ele>96.0</ele><time>2026-05-01T05:46:39Z</time></trkpt><trkpt lat="45.376606796994515" lon="9.277760015173103"><ele>96.0</ele><time>2026-05-01T05:46:40Z</time></trkpt><trkpt lat="45.37637513880394" lon="9.278019414334317"><ele>96.0</ele><time>2026-05-01T05:46:41Z</time></trkpt><trkpt lat="45.37614455301965" lon="9.278281014391844"><ele>95.0</ele><time>2026-05-01T05:46:42Z</time></trkpt><trkpt lat="45.37591550537841" lon="9.278544302553993"><ele>94.0</ele><time>2026-05-01T05:46:43Z</time></trkpt><trkpt lat="45.37568857981218" lon="9.278810894457019"><ele>94.5</ele><time>2026-05-01T05:46:44Z</time></trkpt><trkpt lat="45.375461263453616" lon="9.279079547407724"><ele>95.0</ele><time>2026-05-01T05:46:45Z</time></trkpt><trkpt lat="45.37523358893809" lon="9.279347284358359"><ele>95.0</ele><time>2026-05-01T05:46:46Z</time></trkpt><trkpt lat="45.37500594541293" lon="9.279615173761053"><ele>95.0</ele><time>2026-05-01T05:46:47Z</time></trkpt><trkpt lat="45.374776264339275" lon="9.279880954326352"><ele>95.0</ele><time>2026-05-01T05:46:48Z</time></trkpt><trkpt lat="45.37454851220745" lon="9.280147853707158"><ele>95.0</ele><time>2026-05-01T05:46:49Z</time></trkpt><trkpt lat="45.374320545773166" lon="9.280414056707595"><ele>94.0</ele><time>2026-05-01T05:46:50Z</time></trkpt><trkpt lat="45.374090637100196" lon="9.280681220600327"><ele>93.0</ele><time>2026-05-01T05:46:51Z</time></trkpt><trkpt lat="45.37386223266095" lon="9.280949082647489"><ele>93.0</ele><time>2026-05-01T05:46:52Z</time></trkpt><trkpt lat="45.373634484627054" lon="9.2812137877093"><ele>93.0</ele><time>2026-05-01T05:46:53Z</time></trkpt><trkpt lat="45.373407530796335" lon="9.281481314542315"><ele>93.0</ele><time>2026-05-01T05:46:54Z</time></trkpt><trkpt lat="45.37318164712621" lon="9.281748036066508"><ele>93.0</ele><time>2026-05-01T05:46:55Z</time></trkpt><trkpt lat="45.372955206939324" lon="9.282015678892867"><ele>93.0</ele><time>2026-05-01T05:46:56Z</time></trkpt><trkpt lat="45.37272816963508" lon="9.28228111163151"><ele>93.0</ele><time>2026-05-01T05:46:57Z</time></trkpt><trkpt lat="45.37250307029036" lon="9.282543226691756"><ele>93.0</ele><time>2026-05-01T05:46:58Z</time></trkpt><trkpt lat="45.3722787995885" lon="9.282804018517298"><ele>93.0</ele><time>2026-05-01T05:46:59Z</time></trkpt><trkpt lat="45.37205389033614" lon="9.283062879695022"><ele>93.5</ele><time>2026-05-01T05:47:00Z</time></trkpt><trkpt lat="45.37182946266023" lon="9.283317896677758"><ele>94.0</ele><time>2026-05-01T05:47:01Z</time></trkpt><trkpt lat="45.37160182919866" lon="9.28357345971946"><ele>94.0</ele><time>2026-05-01T05:47:02Z</time></trkpt><trkpt lat="45.37137387142483" lon="9.283828968235994"><ele>94.0</ele><time>2026-05-01T05:47:03Z</time></trkpt><trkpt lat="45.37114626844326" lon="9.284087761130195"><ele>93.5</ele><time>2026-05-01T05:47:04Z</time></trkpt><trkpt lat="45.370919776860966" lon="9.284347684861064"><ele>93.0</ele><time>2026-05-01T05:47:05Z</time></trkpt><trkpt lat="45.37069356214144" lon="9.284611569683634"><ele>93.0</ele><time>2026-05-01T05:47:06Z</time></trkpt><trkpt lat="45.3704674377807" lon="9.284875617991423"><ele>93.0</ele><time>2026-05-01T05:47:06.999Z</time></trkpt><trkpt lat="45.370241977799516" lon="9.285140533401158"><ele>93.0</ele><time>2026-05-01T05:47:07.999Z</time></trkpt><trkpt lat="45.37001586450437" lon="9.285405626295908"><ele>93.0</ele><time>2026-05-01T05:47:08.999Z</time></trkpt><trkpt lat="45.36979103574793" lon="9.285670472910828"><ele>93.5</ele><time>2026-05-01T05:47:09.999Z</time></trkpt><trkpt lat="45.36956641437921" lon="9.285935758006632"><ele>94.0</ele><time>2026-05-01T05:47:10.999Z</time></trkpt><trkpt lat="45.36934116814955" lon="9.286203346261825"><ele>93.5</ele><time>2026-05-01T05:47:11.999Z</time></trkpt><trkpt lat="45.36911305993739" lon="9.286469357873058"><ele>93.0</ele><time>2026-05-01T05:47:12.999Z</time></trkpt><trkpt lat="45.36888674004829" lon="9.28673709640349"><ele>93.0</ele><time>2026-05-01T05:47:13.999Z</time></trkpt><trkpt lat="45.368656942794246" lon="9.287003217694597"><ele>93.0</ele><time>2026-05-01T05:47:14.999Z</time></trkpt><trkpt lat="45.368429921773284" lon="9.287269396863623"><ele>93.0</ele><time>2026-05-01T05:47:15.999Z</time></trkpt><trkpt lat="45.36820341923398" lon="9.287534542590791"><ele>93.0</ele><time>2026-05-01T05:47:16.999Z</time></trkpt><trkpt lat="45.36797741080304" lon="9.287799759029852"><ele>92.5</ele><time>2026-05-01T05:47:17.999Z</time></trkpt><trkpt lat="45.36775282930307" lon="9.288064711452533"><ele>92.0</ele><time>2026-05-01T05:47:18.999Z</time></trkpt><trkpt lat="45.36752706865234" lon="9.28832880626172"><ele>92.0</ele><time>2026-05-01T05:47:19.999Z</time></trkpt><trkpt lat="45.36730182662041" lon="9.28859284759137"><ele>92.0</ele><time>2026-05-01T05:47:20.999Z</time></trkpt><trkpt lat="45.36707593962201" lon="9.288852730755947"><ele>92.0</ele><time>2026-05-01T05:47:21.999Z</time></trkpt><trkpt lat="45.36685251604589" lon="9.289113688531623"><ele>92.0</ele><time>2026-05-01T05:47:22.999Z</time></trkpt><trkpt lat="45.366631236959016" lon="9.289376046017377"><ele>92.0</ele><time>2026-05-01T05:47:23.999Z</time></trkpt><trkpt lat="45.366410587235805" lon="9.289639296600571"><ele>92.0</ele><time>2026-05-01T05:47:24.999Z</time></trkpt><trkpt lat="45.36619144284226" lon="9.289902476040673"><ele>92.5</ele><time>2026-05-01T05:47:25.999Z</time></trkpt><trkpt lat="45.365974876344865" lon="9.290168939302747"><ele>93.0</ele><time>2026-05-01T05:47:26.999Z</time></trkpt><trkpt lat="45.36575621045246" lon="9.290433849859667"><ele>93.0</ele><time>2026-05-01T05:47:27.999Z</time></trkpt><trkpt lat="45.36553876080832" lon="9.29069681063017"><ele>93.0</ele><time>2026-05-01T05:47:28.999Z</time></trkpt><trkpt lat="45.365322691061124" lon="9.290958930218647"><ele>93.0</ele><time>2026-05-01T05:47:29.999Z</time></trkpt><trkpt lat="45.36510379972597" lon="9.291222028903142"><ele>93.0</ele><time>2026-05-01T05:47:30.999Z</time></trkpt><trkpt lat="45.364883009377294" lon="9.291485668606802"><ele>93.0</ele><time>2026-05-01T05:47:31.999Z</time></trkpt><trkpt lat="45.36466200539539" lon="9.2917479399994"><ele>93.0</ele><time>2026-05-01T05:47:32.999Z</time></trkpt><trkpt lat="45.364440167127796" lon="9.29200900159165"><ele>92.0</ele><time>2026-05-01T05:47:33.999Z</time></trkpt><trkpt lat="45.36421676668137" lon="9.292270042923917"><ele>91.0</ele><time>2026-05-01T05:47:34.999Z</time></trkpt><trkpt lat="45.36399278498272" lon="9.292534821989243"><ele>91.5</ele><time>2026-05-01T05:47:35.999Z</time></trkpt><trkpt lat="45.363768001666145" lon="9.292800473251823"><ele>92.0</ele><time>2026-05-01T05:47:36.999Z</time></trkpt><trkpt lat="45.36354297224166" lon="9.29306539847262"><ele>92.0</ele><time>2026-05-01T05:47:38Z</time></trkpt><trkpt lat="45.36331875764384" lon="9.293332768855365"><ele>92.0</ele><time>2026-05-01T05:47:39Z</time></trkpt><trkpt lat="45.36309166981994" lon="9.29359792044357"><ele>91.5</ele><time>2026-05-01T05:47:40Z</time></trkpt><trkpt lat="45.3628620492598" lon="9.293865707148854"><ele>91.0</ele><time>2026-05-01T05:47:41Z</time></trkpt><trkpt lat="45.362634044130125" lon="9.294134708812482"><ele>91.0</ele><time>2026-05-01T05:47:42Z</time></trkpt><trkpt lat="45.362405527498545" lon="9.294404639938453"><ele>91.0</ele><time>2026-05-01T05:47:43Z</time></trkpt><trkpt lat="45.362176677522015" lon="9.29467113317827"><ele>91.0</ele><time>2026-05-01T05:47:44Z</time></trkpt><trkpt lat="45.361947986997244" lon="9.294939319113922"><ele>91.0</ele><time>2026-05-01T05:47:45Z</time></trkpt><trkpt lat="45.36171998992885" lon="9.295204525373597"><ele>91.0</ele><time>2026-05-01T05:47:46Z</time></trkpt><trkpt lat="45.36149454535872" lon="9.295470122824252"><ele>91.0</ele><time>2026-05-01T05:47:47Z</time></trkpt><trkpt lat="45.3612706249243" lon="9.295733899262352"><ele>91.0</ele><time>2026-05-01T05:47:48Z</time></trkpt><trkpt lat="45.36104764424957" lon="9.29599680044428"><ele>91.0</ele><time>2026-05-01T05:47:49Z</time></trkpt><trkpt lat="45.360826613138364" lon="9.29625784179554"><ele>91.0</ele><time>2026-05-01T05:47:50Z</time></trkpt><trkpt lat="45.36060526004759" lon="9.29651785733574"><ele>91.0</ele><time>2026-05-01T05:47:51Z</time></trkpt><trkpt lat="45.360385768769895" lon="9.296773877426968"><ele>91.0</ele><time>2026-05-01T05:47:52Z</time></trkpt><trkpt lat="45.360167583950734" lon="9.297030560607778"><ele>91.0</ele><time>2026-05-01T05:47:53Z</time></trkpt><trkpt lat="45.359948623186796" lon="9.29728498821436"><ele>91.0</ele><time>2026-05-01T05:47:54Z</time></trkpt><trkpt lat="45.35972998446613" lon="9.297538575344246"><ele>91.0</ele><time>2026-05-01T05:47:55Z</time></trkpt><trkpt lat="45.35951276120672" lon="9.29779393445542"><ele>91.0</ele><time>2026-05-01T05:47:56Z</time></trkpt><trkpt lat="45.359295271959795" lon="9.298048197663764"><ele>91.0</ele><time>2026-05-01T05:47:57Z</time></trkpt><trkpt lat="45.35907878265727" lon="9.298301391015814"><ele>91.5</ele><time>2026-05-01T05:47:58Z</time></trkpt><trkpt lat="45.35886141834923" lon="9.298558548601076"><ele>92.0</ele><time>2026-05-01T05:47:59Z</time></trkpt><trkpt lat="45.3586436693209" lon="9.298819297183705"><ele>93.0</ele><time>2026-05-01T05:48:00Z</time></trkpt><trkpt lat="45.35842532801492" lon="9.299079305249036"><ele>94.0</ele><time>2026-05-01T05:48:01Z</time></trkpt><trkpt lat="45.358205742933876" lon="9.299339401114963"><ele>94.0</ele><time>2026-05-01T05:48:02Z</time></trkpt><trkpt lat="45.357982697356974" lon="9.299595866201571"><ele>94.0</ele><time>2026-05-01T05:48:03Z</time></trkpt><trkpt lat="45.3577610629241" lon="9.299853368296576"><ele>94.0</ele><time>2026-05-01T05:48:04Z</time></trkpt><trkpt lat="45.35754088304858" lon="9.300111510092867"><ele>94.0</ele><time>2026-05-01T05:48:05Z</time></trkpt><trkpt lat="45.35732297989019" lon="9.300367097569865"><ele>92.5</ele><time>2026-05-01T05:48:06Z</time></trkpt><trkpt lat="45.357106180481296" lon="9.300618823560315"><ele>91.0</ele><time>2026-05-01T05:48:07Z</time></trkpt><trkpt lat="45.35689070512139" lon="9.300870663998216"><ele>91.0</ele><time>2026-05-01T05:48:08Z</time></trkpt><trkpt lat="45.35667572555702" lon="9.301119352786744"><ele>91.0</ele><time>2026-05-01T05:48:09Z</time></trkpt><trkpt lat="45.35646208150941" lon="9.30136671214712"><ele>91.5</ele><time>2026-05-01T05:48:10Z</time></trkpt><trkpt lat="45.35624747398478" lon="9.301613216202593"><ele>92.0</ele><time>2026-05-01T05:48:11Z</time></trkpt><trkpt lat="45.35603351338274" lon="9.301859170839284"><ele>92.0</ele><time>2026-05-01T05:48:12Z</time></trkpt><trkpt lat="45.35582012347317" lon="9.302107704764925"><ele>92.0</ele><time>2026-05-01T05:48:13Z</time></trkpt><trkpt lat="45.35560827226008" lon="9.302356641310272"><ele>92.0</ele><time>2026-05-01T05:48:14Z</time></trkpt><trkpt lat="45.35539745409903" lon="9.302606039185617"><ele>92.0</ele><time>2026-05-01T05:48:15Z</time></trkpt><trkpt lat="45.355187431425" lon="9.302856013049718"><ele>91.5</ele><time>2026-05-01T05:48:16Z</time></trkpt><trkpt lat="45.35497766019742" lon="9.30310541122215"><ele>91.0</ele><time>2026-05-01T05:48:17Z</time></trkpt><trkpt lat="45.35476948180646" lon="9.30335136765057"><ele>90.0</ele><time>2026-05-01T05:48:18Z</time></trkpt><trkpt lat="45.35455995037836" lon="9.303595766643559"><ele>89.0</ele><time>2026-05-01T05:48:19Z</time></trkpt><trkpt lat="45.35435067805549" lon="9.303840501529303"><ele>88.5</ele><time>2026-05-01T05:48:20Z</time></trkpt><trkpt lat="45.35414264236077" lon="9.304083194035629"><ele>88.0</ele><time>2026-05-01T05:48:21Z</time></trkpt><trkpt lat="45.35393678381714" lon="9.304325594101169"><ele>89.0</ele><time>2026-05-01T05:48:22Z</time></trkpt><trkpt lat="45.353730028519735" lon="9.304566155657493"><ele>90.0</ele><time>2026-05-01T05:48:23Z</time></trkpt><trkpt lat="45.35352043523026" lon="9.304802797501274"><ele>90.5</ele><time>2026-05-01T05:48:24Z</time></trkpt><trkpt lat="45.35331243917013" lon="9.3050388081965"><ele>91.0</ele><time>2026-05-01T05:48:25Z</time></trkpt><trkpt lat="45.3531074825505" lon="9.305274821380776"><ele>91.0</ele><time>2026-05-01T05:48:26Z</time></trkpt><trkpt lat="45.352904521910844" lon="9.305511034711476"><ele>91.0</ele><time>2026-05-01T05:48:27Z</time></trkpt><trkpt lat="45.3527103341926" lon="9.305741268698931"><ele>91.0</ele><time>2026-05-01T05:48:28Z</time></trkpt><trkpt lat="45.352524003584676" lon="9.305953749698665"><ele>91.0</ele><time>2026-05-01T05:48:29Z</time></trkpt><trkpt lat="45.352345252433096" lon="9.306160924670557"><ele>90.5</ele><time>2026-05-01T05:48:30Z</time></trkpt><trkpt lat="45.35216482457085" lon="9.306365964424534"><ele>90.0</ele><time>2026-05-01T05:48:31Z</time></trkpt><trkpt lat="45.35198955367449" lon="9.306576843698512"><ele>90.0</ele><time>2026-05-01T05:48:32Z</time></trkpt><trkpt lat="45.35180949430674" lon="9.306779289308354"><ele>90.0</ele><time>2026-05-01T05:48:33Z</time></trkpt><trkpt lat="45.351626706908306" lon="9.306986876032376"><ele>90.0</ele><time>2026-05-01T05:48:34Z</time></trkpt><trkpt lat="45.35144122230487" lon="9.307195831200453"><ele>90.0</ele><time>2026-05-01T05:48:35Z</time></trkpt><trkpt lat="45.351256327013985" lon="9.3074011075002"><ele>90.0</ele><time>2026-05-01T05:48:36Z</time></trkpt><trkpt lat="45.3510721832177" lon="9.307601125185872"><ele>90.0</ele><time>2026-05-01T05:48:37Z</time></trkpt><trkpt lat="45.35088830310061" lon="9.307796141029012"><ele>90.0</ele><time>2026-05-01T05:48:38Z</time></trkpt><trkpt lat="45.35070189856221" lon="9.307978426866914"><ele>90.0</ele><time>2026-05-01T05:48:39Z</time></trkpt><trkpt lat="45.35052133088008" lon="9.308137864559523"><ele>90.0</ele><time>2026-05-01T05:48:40Z</time></trkpt><trkpt lat="45.35034003146164" lon="9.308275951849435"><ele>89.66666666666667</ele><time>2026-05-01T05:48:41Z</time></trkpt><trkpt lat="45.35016625692329" lon="9.30838004057427"><ele>89.33333333333334</ele><time>2026-05-01T05:48:42Z</time></trkpt><trkpt lat="45.34999409869785" lon="9.308478607615639"><ele>89.0</ele><time>2026-05-01T05:48:43Z</time></trkpt><trkpt lat="45.34983587278943" lon="9.308589025685944"><ele>89.25</ele><time>2026-05-01T05:48:44Z</time></trkpt><trkpt lat="45.34969186139746" lon="9.308708813651036"><ele>89.5</ele><time>2026-05-01T05:48:45Z</time></trkpt><trkpt lat="45.349568830969226" lon="9.308815529670689"><ele>89.75</ele><time>2026-05-01T05:48:46Z</time></trkpt><trkpt lat="45.34947147908588" lon="9.308901631370874"><ele>90.0</ele><time>2026-05-01T05:48:47Z</time></trkpt><trkpt lat="45.34939797550533" lon="9.308969780182041"><ele>90.4</ele><time>2026-05-01T05:48:48Z</time></trkpt><trkpt lat="45.34934172289844" lon="9.309028549029362"><ele>90.8</ele><time>2026-05-01T05:48:49Z</time></trkpt><trkpt lat="45.34925643749257" lon="9.30912069514198"><ele>91.19999999999999</ele><time>2026-05-01T05:48:51Z</time></trkpt><trkpt lat="45.34916182557794" lon="9.309222084779472"><ele>91.6</ele><time>2026-05-01T05:48:53Z</time></trkpt><trkpt lat="45.34907206834865" lon="9.30931944180212"><ele>92.0</ele><time>2026-05-01T05:48:55Z</time></trkpt><trkpt lat="45.34896665556412" lon="9.309441439552334"><ele>92.0</ele><time>2026-05-01T05:48:57Z</time></trkpt><trkpt lat="45.348902063457" lon="9.309524373828886"><ele>92.0</ele><time>2026-05-01T05:48:58Z</time></trkpt><trkpt lat="45.34882658314562" lon="9.309610601980733"><ele>92.0</ele><time>2026-05-01T05:48:59Z</time></trkpt><trkpt lat="45.34874127143669" lon="9.309703835058757"><ele>92.0</ele><time>2026-05-01T05:49:00Z</time></trkpt><trkpt lat="45.34864365673385" lon="9.309811249080948"><ele>92.0</ele><time>2026-05-01T05:49:01Z</time></trkpt><trkpt lat="45.34853677507324" lon="9.309940103635508"><ele>91.66666666666667</ele><time>2026-05-01T05:49:02Z</time></trkpt><trkpt lat="45.348427453447705" lon="9.310099904600088"><ele>91.33333333333333</ele><time>2026-05-01T05:49:03Z</time></trkpt><trkpt lat="45.3483157065908" lon="9.310295637936814"><ele>91.0</ele><time>2026-05-01T05:49:04Z</time></trkpt><trkpt lat="45.34820535852063" lon="9.31050246858806"><ele>90.33333333333333</ele><time>2026-05-01T05:49:05Z</time></trkpt><trkpt lat="45.34809024759601" lon="9.310715420919944"><ele>89.66666666666667</ele><time>2026-05-01T05:49:06Z</time></trkpt><trkpt lat="45.34796875163482" lon="9.31094126232803"><ele>89.0</ele><time>2026-05-01T05:49:06.999Z</time></trkpt><trkpt lat="45.34784256292714" lon="9.311171113161006"><ele>89.0</ele><time>2026-05-01T05:49:07.999Z</time></trkpt><trkpt lat="45.347703473081985" lon="9.311408399428606"><ele>89.0</ele><time>2026-05-01T05:49:08.999Z</time></trkpt><trkpt lat="45.3475520947338" lon="9.311644434698335"><ele>89.0</ele><time>2026-05-01T05:49:09.999Z</time></trkpt><trkpt lat="45.34739723793897" lon="9.311870422129761"><ele>89.0</ele><time>2026-05-01T05:49:10.999Z</time></trkpt><trkpt lat="45.34723772779619" lon="9.312093093324144"><ele>89.0</ele><time>2026-05-01T05:49:11.999Z</time></trkpt><trkpt lat="45.34707078065693" lon="9.312312581664225"><ele>90.5</ele><time>2026-05-01T05:49:12.999Z</time></trkpt><trkpt lat="45.34689760635271" lon="9.312528570317841"><ele>92.0</ele><time>2026-05-01T05:49:13.999Z</time></trkpt><trkpt lat="45.3467237359014" lon="9.312747743105808"><ele>92.0</ele><time>2026-05-01T05:49:14.999Z</time></trkpt><trkpt lat="45.346546195372305" lon="9.312967742723249"><ele>92.0</ele><time>2026-05-01T05:49:15.999Z</time></trkpt><trkpt lat="45.34636043049182" lon="9.31318685362864"><ele>90.5</ele><time>2026-05-01T05:49:16.999Z</time></trkpt><trkpt lat="45.346175128390726" lon="9.31340456091522"><ele>89.0</ele><time>2026-05-01T05:49:17.999Z</time></trkpt><trkpt lat="45.34598684566253" lon="9.313623022864169"><ele>89.0</ele><time>2026-05-01T05:49:18.999Z</time></trkpt><trkpt lat="45.34579449767872" lon="9.313847677178893"><ele>89.0</ele><time>2026-05-01T05:49:19.999Z</time></trkpt><trkpt lat="45.34560130594827" lon="9.314077054208706"><ele>89.0</ele><time>2026-05-01T05:49:20.999Z</time></trkpt><trkpt lat="45.345405323320804" lon="9.314310151326708"><ele>89.0</ele><time>2026-05-01T05:49:21.999Z</time></trkpt><trkpt lat="45.3452053660533" lon="9.314543452015515"><ele>89.5</ele><time>2026-05-01T05:49:22.999Z</time></trkpt><trkpt lat="45.34500126239598" lon="9.314782470459479"><ele>90.0</ele><time>2026-05-01T05:49:23.999Z</time></trkpt><trkpt lat="45.34479739643331" lon="9.31502298403627"><ele>89.5</ele><time>2026-05-01T05:49:24.999Z</time></trkpt><trkpt lat="45.34459424921853" lon="9.315267813292337"><ele>89.0</ele><time>2026-05-01T05:49:25.999Z</time></trkpt><trkpt lat="45.34439358330881" lon="9.315522322486817"><ele>89.0</ele><time>2026-05-01T05:49:26.999Z</time></trkpt><trkpt lat="45.34419646459151" lon="9.315781868298162"><ele>89.0</ele><time>2026-05-01T05:49:27.999Z</time></trkpt><trkpt lat="45.34400042505228" lon="9.316045607529295"><ele>89.0</ele><time>2026-05-01T05:49:28.999Z</time></trkpt><trkpt lat="45.3438075496737" lon="9.31631502988303"><ele>89.0</ele><time>2026-05-01T05:49:29.999Z</time></trkpt><trkpt lat="45.34361570694323" lon="9.316591644023713"><ele>89.0</ele><time>2026-05-01T05:49:30.999Z</time></trkpt><trkpt lat="45.34342819111325" lon="9.316873456669223"><ele>89.0</ele><time>2026-05-01T05:49:31.999Z</time></trkpt><trkpt lat="45.34324207362731" lon="9.31716048436259"><ele>89.0</ele><time>2026-05-01T05:49:32.999Z</time></trkpt><trkpt lat="45.343058298721964" lon="9.31744691444184"><ele>89.0</ele><time>2026-05-01T05:49:33.999Z</time></trkpt><trkpt lat="45.34287793169666" lon="9.317739336621552"><ele>90.0</ele><time>2026-05-01T05:49:34.999Z</time></trkpt><trkpt lat="45.34269940201954" lon="9.318036606229821"><ele>91.0</ele><time>2026-05-01T05:49:35.999Z</time></trkpt><trkpt lat="45.342522267241684" lon="9.31833941248626"><ele>91.0</ele><time>2026-05-01T05:49:36.999Z</time></trkpt><trkpt lat="45.342347280154165" lon="9.318642085981333"><ele>91.0</ele><time>2026-05-01T05:49:37.999Z</time></trkpt><trkpt lat="45.34217495426136" lon="9.318947912476526"><ele>90.0</ele><time>2026-05-01T05:49:38.999Z</time></trkpt><trkpt lat="45.34200664179156" lon="9.319255255776962"><ele>89.0</ele><time>2026-05-01T05:49:39.999Z</time></trkpt><trkpt lat="45.34183946019458" lon="9.319567979174872"><ele>89.0</ele><time>2026-05-01T05:49:40.999Z</time></trkpt><trkpt lat="45.34167525391378" lon="9.319880917613215"><ele>89.0</ele><time>2026-05-01T05:49:41.999Z</time></trkpt><trkpt lat="45.341512974615114" lon="9.320199077645881"><ele>89.0</ele><time>2026-05-01T05:49:42.999Z</time></trkpt><trkpt lat="45.34135351182297" lon="9.320519695482199"><ele>89.0</ele><time>2026-05-01T05:49:44Z</time></trkpt><trkpt lat="45.34119679381233" lon="9.320841476580187"><ele>89.5</ele><time>2026-05-01T05:49:45Z</time></trkpt><trkpt lat="45.341043782315445" lon="9.321168841630131"><ele>90.0</ele><time>2026-05-01T05:49:46Z</time></trkpt><trkpt lat="45.34089286567181" lon="9.321502707154375"><ele>90.0</ele><time>2026-05-01T05:49:47Z</time></trkpt><trkpt lat="45.34074368545069" lon="9.321843387632834"><ele>90.0</ele><time>2026-05-01T05:49:48Z</time></trkpt><trkpt lat="45.3405955873268" lon="9.322189896578614"><ele>89.0</ele><time>2026-05-01T05:49:49Z</time></trkpt><trkpt lat="45.34044947933178" lon="9.322535119728988"><ele>88.0</ele><time>2026-05-01T05:49:50Z</time></trkpt><trkpt lat="45.34030868125511" lon="9.322886649017237"><ele>88.0</ele><time>2026-05-01T05:49:51Z</time></trkpt><trkpt lat="45.340167149830094" lon="9.32324751504801"><ele>88.0</ele><time>2026-05-01T05:49:52Z</time></trkpt><trkpt lat="45.34002874501195" lon="9.323609439078849"><ele>88.5</ele><time>2026-05-01T05:49:53Z</time></trkpt><trkpt lat="45.33989529833217" lon="9.323971998866064"><ele>89.0</ele><time>2026-05-01T05:49:54Z</time></trkpt><trkpt lat="45.339764232171746" lon="9.324338748599821"><ele>88.5</ele><time>2026-05-01T05:49:55Z</time></trkpt><trkpt lat="45.33963647659731" lon="9.324708279423719"><ele>88.0</ele><time>2026-05-01T05:49:56Z</time></trkpt><trkpt lat="45.339513466130335" lon="9.325079790055565"><ele>88.0</ele><time>2026-05-01T05:49:57Z</time></trkpt><trkpt lat="45.33939453355524" lon="9.325457501748687"><ele>88.0</ele><time>2026-05-01T05:49:58Z</time></trkpt><trkpt lat="45.33927877913708" lon="9.32583616087208"><ele>88.0</ele><time>2026-05-01T05:49:59Z</time></trkpt><trkpt lat="45.33916642535138" lon="9.32621658951652"><ele>88.0</ele><time>2026-05-01T05:50:00Z</time></trkpt><trkpt lat="45.33905679537854" lon="9.326597547090373"><ele>87.0</ele><time>2026-05-01T05:50:01Z</time></trkpt><trkpt lat="45.3389519563263" lon="9.326983127119448"><ele>86.0</ele><time>2026-05-01T05:50:02Z</time></trkpt><trkpt lat="45.338850356664324" lon="9.327370127381643"><ele>86.0</ele><time>2026-05-01T05:50:03Z</time></trkpt><trkpt lat="45.33875331228276" lon="9.327758903410825"><ele>86.0</ele><time>2026-05-01T05:50:04Z</time></trkpt><trkpt lat="45.33865901317402" lon="9.328150348691421"><ele>86.0</ele><time>2026-05-01T05:50:05Z</time></trkpt><trkpt lat="45.338568907807044" lon="9.32854492539297"><ele>86.0</ele><time>2026-05-01T05:50:06Z</time></trkpt><trkpt lat="45.33848289166261" lon="9.328940874671394"><ele>86.5</ele><time>2026-05-01T05:50:07Z</time></trkpt><trkpt lat="45.338401012108186" lon="9.329340051376793"><ele>87.0</ele><time>2026-05-01T05:50:08Z</time></trkpt><trkpt lat="45.33832092626317" lon="9.329737660562134"><ele>87.0</ele><time>2026-05-01T05:50:09Z</time></trkpt><trkpt lat="45.33824304468126" lon="9.330135587208222"><ele>87.0</ele><time>2026-05-01T05:50:10Z</time></trkpt><trkpt lat="45.33817012835383" lon="9.330540091130153"><ele>87.0</ele><time>2026-05-01T05:50:11Z</time></trkpt><trkpt lat="45.33810189963743" lon="9.330946304762154"><ele>87.0</ele><time>2026-05-01T05:50:12Z</time></trkpt><trkpt lat="45.33803398423664" lon="9.331357584347918"><ele>86.5</ele><time>2026-05-01T05:50:13Z</time></trkpt><trkpt lat="45.33797029806926" lon="9.33176946656862"><ele>86.0</ele><time>2026-05-01T05:50:14Z</time></trkpt><trkpt lat="45.337907087667986" lon="9.332182387301803"><ele>84.5</ele><time>2026-05-01T05:50:15Z</time></trkpt><trkpt lat="45.33784300061093" lon="9.332595817998438"><ele>83.0</ele><time>2026-05-01T05:50:16Z</time></trkpt><trkpt lat="45.337779793253596" lon="9.333008741296112"><ele>83.5</ele><time>2026-05-01T05:50:17Z</time></trkpt><trkpt lat="45.3377211650374" lon="9.333419654344048"><ele>84.0</ele><time>2026-05-01T05:50:18Z</time></trkpt><trkpt lat="45.337668108430876" lon="9.333832530784283"><ele>84.0</ele><time>2026-05-01T05:50:19Z</time></trkpt><trkpt lat="45.33761580599828" lon="9.334245481657025"><ele>84.0</ele><time>2026-05-01T05:50:20Z</time></trkpt><trkpt lat="45.337559454800214" lon="9.334660464530822"><ele>83.5</ele><time>2026-05-01T05:50:21Z</time></trkpt><trkpt lat="45.33749903493101" lon="9.335073229337576"><ele>83.0</ele><time>2026-05-01T05:50:22Z</time></trkpt><trkpt lat="45.33743638943362" lon="9.33548446715298"><ele>83.5</ele><time>2026-05-01T05:50:23Z</time></trkpt><trkpt lat="45.33737454420802" lon="9.335896797437622"><ele>84.0</ele><time>2026-05-01T05:50:24Z</time></trkpt><trkpt lat="45.33731231732099" lon="9.336305689456637"><ele>84.0</ele><time>2026-05-01T05:50:25Z</time></trkpt><trkpt lat="45.33725030521817" lon="9.336716498880131"><ele>84.0</ele><time>2026-05-01T05:50:26Z</time></trkpt><trkpt lat="45.33718536113094" lon="9.337126760199057"><ele>84.0</ele><time>2026-05-01T05:50:27Z</time></trkpt><trkpt lat="45.33711914565752" lon="9.337533690314292"><ele>84.0</ele><time>2026-05-01T05:50:28Z</time></trkpt><trkpt lat="45.33705505412296" lon="9.33793696833615"><ele>83.0</ele><time>2026-05-01T05:50:29Z</time></trkpt><trkpt lat="45.33699187969781" lon="9.338338243385664"><ele>82.0</ele><time>2026-05-01T05:50:30Z</time></trkpt><trkpt lat="45.336928319440894" lon="9.338737709876504"><ele>80.5</ele><time>2026-05-01T05:50:31Z</time></trkpt><trkpt lat="45.33686532609256" lon="9.339136099305264"><ele>79.0</ele><time>2026-05-01T05:50:32Z</time></trkpt><trkpt lat="45.33680471664135" lon="9.339533805047314"><ele>77.0</ele><time>2026-05-01T05:50:33Z</time></trkpt><trkpt lat="45.336744508133165" lon="9.33993157758595"><ele>75.0</ele><time>2026-05-01T05:50:34Z</time></trkpt><trkpt lat="45.33668341613164" lon="9.340329617296105"><ele>74.0</ele><time>2026-05-01T05:50:35Z</time></trkpt><trkpt lat="45.33662341856025" lon="9.340724332001928"><ele>73.0</ele><time>2026-05-01T05:50:36Z</time></trkpt><trkpt lat="45.33656503286299" lon="9.341118687695014"><ele>74.5</ele><time>2026-05-01T05:50:37Z</time></trkpt><trkpt lat="45.336506864652286" lon="9.341511442009558"><ele>76.0</ele><time>2026-05-01T05:50:38Z</time></trkpt><trkpt lat="45.33644793194327" lon="9.341901038338763"><ele>76.5</ele><time>2026-05-01T05:50:39Z</time></trkpt><trkpt lat="45.33638780992691" lon="9.342289807237927"><ele>77.0</ele><time>2026-05-01T05:50:40Z</time></trkpt><trkpt lat="45.336329679445036" lon="9.342676029456163"><ele>76.0</ele><time>2026-05-01T05:50:41Z</time></trkpt><trkpt lat="45.33627295107607" lon="9.34305936427389"><ele>75.0</ele><time>2026-05-01T05:50:42Z</time></trkpt><trkpt lat="45.336216649221555" lon="9.343441992854578"><ele>75.0</ele><time>2026-05-01T05:50:43Z</time></trkpt><trkpt lat="45.33616330264164" lon="9.343825793835267"><ele>75.0</ele><time>2026-05-01T05:50:44Z</time></trkpt><trkpt lat="45.33611216241843" lon="9.344211894215965"><ele>76.5</ele><time>2026-05-01T05:50:45Z</time></trkpt><trkpt lat="45.33605946073787" lon="9.34459803483107"><ele>78.0</ele><time>2026-05-01T05:50:46Z</time></trkpt><trkpt lat="45.336006838347444" lon="9.344982828186916"><ele>78.5</ele><time>2026-05-01T05:50:47Z</time></trkpt><trkpt lat="45.3359511210874" lon="9.345366924726388"><ele>79.0</ele><time>2026-05-01T05:50:48Z</time></trkpt><trkpt lat="45.33589553197147" lon="9.345754032509385"><ele>79.0</ele><time>2026-05-01T05:50:49Z</time></trkpt><trkpt lat="45.335839415927644" lon="9.34613854627661"><ele>79.0</ele><time>2026-05-01T05:50:50Z</time></trkpt><trkpt lat="45.33578248282362" lon="9.346519472651547"><ele>79.0</ele><time>2026-05-01T05:50:51Z</time></trkpt><trkpt lat="45.335725413196776" lon="9.34689856298514"><ele>79.0</ele><time>2026-05-01T05:50:52Z</time></trkpt><trkpt lat="45.335669093360856" lon="9.34727559955987"><ele>79.5</ele><time>2026-05-01T05:50:53Z</time></trkpt><trkpt lat="45.33561068672" lon="9.347647793970978"><ele>80.0</ele><time>2026-05-01T05:50:54Z</time></trkpt><trkpt lat="45.335551828428635" lon="9.348019414720284"><ele>80.0</ele><time>2026-05-01T05:50:55Z</time></trkpt><trkpt lat="45.33548994761823" lon="9.348391490318807"><ele>80.0</ele><time>2026-05-01T05:50:56Z</time></trkpt><trkpt lat="45.33542402349742" lon="9.348760905131178"><ele>79.5</ele><time>2026-05-01T05:50:57Z</time></trkpt><trkpt lat="45.33535520139326" lon="9.349125610583801"><ele>79.0</ele><time>2026-05-01T05:50:58Z</time></trkpt><trkpt lat="45.33528503882065" lon="9.349491296462627"><ele>79.5</ele><time>2026-05-01T05:50:59Z</time></trkpt><trkpt lat="45.335211775070995" lon="9.349856939819388"><ele>80.0</ele><time>2026-05-01T05:51:00Z</time></trkpt><trkpt lat="45.33513393387553" lon="9.350219232341031"><ele>80.5</ele><time>2026-05-01T05:51:01Z</time></trkpt><trkpt lat="45.3350552199889" lon="9.350582316054389"><ele>81.0</ele><time>2026-05-01T05:51:02Z</time></trkpt><trkpt lat="45.334973642737246" lon="9.350942547465467"><ele>81.0</ele><time>2026-05-01T05:51:03Z</time></trkpt><trkpt lat="45.33488731159668" lon="9.351302242428028"><ele>81.0</ele><time>2026-05-01T05:51:04Z</time></trkpt><trkpt lat="45.334799531804585" lon="9.351660825556669"><ele>80.0</ele><time>2026-05-01T05:51:05Z</time></trkpt><trkpt lat="45.33470929204013" lon="9.352018515740836"><ele>79.0</ele><time>2026-05-01T05:51:05.999Z</time></trkpt><trkpt lat="45.33461561344644" lon="9.352374221524224"><ele>79.0</ele><time>2026-05-01T05:51:06.999Z</time></trkpt><trkpt lat="45.33451828100691" lon="9.35272835349426"><ele>79.0</ele><time>2026-05-01T05:51:07.999Z</time></trkpt><trkpt lat="45.334417464108014" lon="9.353080617002245"><ele>79.5</ele><time>2026-05-01T05:51:08.999Z</time></trkpt><trkpt lat="45.33431363560884" lon="9.35343439597803"><ele>80.0</ele><time>2026-05-01T05:51:09.999Z</time></trkpt><trkpt lat="45.33420630338233" lon="9.353786771923081"><ele>80.5</ele><time>2026-05-01T05:51:10.999Z</time></trkpt><trkpt lat="45.33409311415612" lon="9.354137798043547"><ele>81.0</ele><time>2026-05-01T05:51:11.999Z</time></trkpt><trkpt lat="45.33397558317419" lon="9.354490341423054"><ele>80.5</ele><time>2026-05-01T05:51:12.999Z</time></trkpt><trkpt lat="45.333852877394015" lon="9.354842800690134"><ele>80.0</ele><time>2026-05-01T05:51:13.999Z</time></trkpt><trkpt lat="45.33372494584747" lon="9.35519500957987"><ele>79.5</ele><time>2026-05-01T05:51:14.999Z</time></trkpt><trkpt lat="45.33359587670337" lon="9.355546406438222"><ele>79.0</ele><time>2026-05-01T05:51:15.999Z</time></trkpt><trkpt lat="45.33346491537285" lon="9.355895451089188"><ele>79.0</ele><time>2026-05-01T05:51:16.999Z</time></trkpt><trkpt lat="45.333326415793124" lon="9.35624859123444"><ele>79.0</ele><time>2026-05-01T05:51:17.999Z</time></trkpt><trkpt lat="45.33318427146275" lon="9.356602939057089"><ele>80.0</ele><time>2026-05-01T05:51:18.999Z</time></trkpt><trkpt lat="45.33304091792395" lon="9.3569585375803"><ele>81.0</ele><time>2026-05-01T05:51:19.999Z</time></trkpt><trkpt lat="45.33289322396573" lon="9.357312869377587"><ele>81.5</ele><time>2026-05-01T05:51:20.999Z</time></trkpt><trkpt lat="45.332741844516164" lon="9.35766524478326"><ele>82.0</ele><time>2026-05-01T05:51:21.999Z</time></trkpt><trkpt lat="45.33258695840386" lon="9.358016792901752"><ele>83.5</ele><time>2026-05-01T05:51:22.999Z</time></trkpt><trkpt lat="45.332426283703235" lon="9.358364417130774"><ele>85.0</ele><time>2026-05-01T05:51:23.999Z</time></trkpt><trkpt lat="45.33226567508427" lon="9.3587114018748"><ele>84.5</ele><time>2026-05-01T05:51:24.999Z</time></trkpt><trkpt lat="45.3320975349719" lon="9.35905427271841"><ele>84.0</ele><time>2026-05-01T05:51:25.999Z</time></trkpt><trkpt lat="45.33193015556012" lon="9.359391268572423"><ele>83.5</ele><time>2026-05-01T05:51:26.999Z</time></trkpt><trkpt lat="45.33176111271956" lon="9.35972430637566"><ele>83.0</ele><time>2026-05-01T05:51:27.999Z</time></trkpt><trkpt lat="45.33158996413497" lon="9.360052306732971"><ele>83.0</ele><time>2026-05-01T05:51:28.999Z</time></trkpt><trkpt lat="45.33141619741405" lon="9.360379211814262"><ele>83.0</ele><time>2026-05-01T05:51:29.999Z</time></trkpt><trkpt lat="45.331238816660495" lon="9.360703287957948"><ele>84.5</ele><time>2026-05-01T05:51:30.999Z</time></trkpt><trkpt lat="45.331057987850265" lon="9.361024279592227"><ele>86.0</ele><time>2026-05-01T05:51:31.999Z</time></trkpt><trkpt lat="45.330874045448795" lon="9.361342853436183"><ele>86.0</ele><time>2026-05-01T05:51:32.999Z</time></trkpt><trkpt lat="45.33068598858539" lon="9.361654775402004"><ele>86.0</ele><time>2026-05-01T05:51:33.999Z</time></trkpt><trkpt lat="45.330495258306854" lon="9.361964237461867"><ele>86.0</ele><time>2026-05-01T05:51:34.999Z</time></trkpt><trkpt lat="45.33030051412528" lon="9.36227098964667"><ele>86.0</ele><time>2026-05-01T05:51:35.999Z</time></trkpt><trkpt lat="45.330104409289795" lon="9.362575355591309"><ele>86.0</ele><time>2026-05-01T05:51:36.999Z</time></trkpt><trkpt lat="45.329907834308266" lon="9.362880900397418"><ele>86.0</ele><time>2026-05-01T05:51:37.999Z</time></trkpt><trkpt lat="45.32970712277147" lon="9.363183718616597"><ele>85.5</ele><time>2026-05-01T05:51:38.999Z</time></trkpt><trkpt lat="45.329509704333354" lon="9.363488516914602"><ele>85.0</ele><time>2026-05-01T05:51:39.999Z</time></trkpt><trkpt lat="45.32930988757999" lon="9.363793685676272"><ele>85.0</ele><time>2026-05-01T05:51:40.999Z</time></trkpt><trkpt lat="45.329111586154006" lon="9.36409561673639"><ele>85.0</ele><time>2026-05-01T05:51:41.999Z</time></trkpt><trkpt lat="45.32891267691816" lon="9.364399315168798"><ele>84.0</ele><time>2026-05-01T05:51:42.999Z</time></trkpt><trkpt lat="45.32871177090565" lon="9.364706350712927"><ele>83.0</ele><time>2026-05-01T05:51:43.999Z</time></trkpt><trkpt lat="45.328513618941784" lon="9.365012498456315"><ele>83.0</ele><time>2026-05-01T05:51:44.999Z</time></trkpt><trkpt lat="45.328315221333796" lon="9.365314251684993"><ele>83.0</ele><time>2026-05-01T05:51:45.999Z</time></trkpt><trkpt lat="45.328117379274815" lon="9.365619053920357"><ele>83.0</ele><time>2026-05-01T05:51:46.999Z</time></trkpt><trkpt lat="45.327920686181905" lon="9.365923669136244"><ele>83.0</ele><time>2026-05-01T05:51:47.999Z</time></trkpt><trkpt lat="45.32772180740132" lon="9.366228802004535"><ele>83.0</ele><time>2026-05-01T05:51:48.999Z</time></trkpt><trkpt lat="45.327523560593754" lon="9.366531563569424"><ele>83.0</ele><time>2026-05-01T05:51:50Z</time></trkpt><trkpt lat="45.3273265356266" lon="9.36683544002883"><ele>83.0</ele><time>2026-05-01T05:51:51Z</time></trkpt><trkpt lat="45.327130023817176" lon="9.367138001933364"><ele>83.0</ele><time>2026-05-01T05:51:52Z</time></trkpt><trkpt lat="45.32693259797409" lon="9.367440354371785"><ele>83.0</ele><time>2026-05-01T05:51:53Z</time></trkpt><trkpt lat="45.32673481677349" lon="9.367744567054157"><ele>83.0</ele><time>2026-05-01T05:51:54Z</time></trkpt><trkpt lat="45.326535715748555" lon="9.368050513440224"><ele>83.0</ele><time>2026-05-01T05:51:55Z</time></trkpt><trkpt lat="45.32633637378108" lon="9.368358356860083"><ele>83.0</ele><time>2026-05-01T05:51:56Z</time></trkpt><trkpt lat="45.32613681095699" lon="9.368666721570218"><ele>83.0</ele><time>2026-05-01T05:51:57Z</time></trkpt><trkpt lat="45.32593570167793" lon="9.368973936447347"><ele>83.0</ele><time>2026-05-01T05:51:58Z</time></trkpt><trkpt lat="45.32573215793281" lon="9.36928092450959"><ele>82.5</ele><time>2026-05-01T05:51:59Z</time></trkpt><trkpt lat="45.325529938227604" lon="9.369589516521966"><ele>82.0</ele><time>2026-05-01T05:52:00Z</time></trkpt><trkpt lat="45.325326620989905" lon="9.369901429092723"><ele>82.0</ele><time>2026-05-01T05:52:01Z</time></trkpt><trkpt lat="45.325121860968515" lon="9.370214232738997"><ele>82.0</ele><time>2026-05-01T05:52:02Z</time></trkpt><trkpt lat="45.324918897693934" lon="9.3705276448508"><ele>83.0</ele><time>2026-05-01T05:52:03Z</time></trkpt><trkpt lat="45.32471546982971" lon="9.370841126619885"><ele>84.0</ele><time>2026-05-01T05:52:04Z</time></trkpt><trkpt lat="45.32451372373546" lon="9.371152935287283"><ele>84.5</ele><time>2026-05-01T05:52:05Z</time></trkpt><trkpt lat="45.32431101793508" lon="9.37146632335507"><ele>85.0</ele><time>2026-05-01T05:52:06Z</time></trkpt><trkpt lat="45.3241073716446" lon="9.371784710453433"><ele>85.0</ele><time>2026-05-01T05:52:07Z</time></trkpt><trkpt lat="45.32390316421708" lon="9.372098658396455"><ele>85.0</ele><time>2026-05-01T05:52:08Z</time></trkpt><trkpt lat="45.323700658094985" lon="9.372412605406158"><ele>84.0</ele><time>2026-05-01T05:52:09Z</time></trkpt><trkpt lat="45.3234962997975" lon="9.372727335311613"><ele>83.0</ele><time>2026-05-01T05:52:10Z</time></trkpt><trkpt lat="45.32329113248763" lon="9.373043842327336"><ele>83.0</ele><time>2026-05-01T05:52:11Z</time></trkpt><trkpt lat="45.323085886656386" lon="9.373357379691969"><ele>83.0</ele><time>2026-05-01T05:52:12Z</time></trkpt><trkpt lat="45.32287952317867" lon="9.373672909903904"><ele>83.5</ele><time>2026-05-01T05:52:13Z</time></trkpt><trkpt lat="45.32267235784789" lon="9.373986173543194"><ele>84.0</ele><time>2026-05-01T05:52:14Z</time></trkpt><trkpt lat="45.322465641600296" lon="9.37430110661607"><ele>84.0</ele><time>2026-05-01T05:52:15Z</time></trkpt><trkpt lat="45.32226050962323" lon="9.374617631968894"><ele>84.0</ele><time>2026-05-01T05:52:16Z</time></trkpt><trkpt lat="45.322054090805295" lon="9.374930222475871"><ele>84.0</ele><time>2026-05-01T05:52:17Z</time></trkpt><trkpt lat="45.32184387511094" lon="9.375236456170043"><ele>84.0</ele><time>2026-05-01T05:52:18Z</time></trkpt><trkpt lat="45.321634906014694" lon="9.375544670280435"><ele>84.0</ele><time>2026-05-01T05:52:19Z</time></trkpt><trkpt lat="45.321429156990526" lon="9.375857634788078"><ele>84.0</ele><time>2026-05-01T05:52:20Z</time></trkpt><trkpt lat="45.32122512407516" lon="9.37616803560805"><ele>84.5</ele><time>2026-05-01T05:52:21Z</time></trkpt><trkpt lat="45.321024691752314" lon="9.376479797045272"><ele>85.0</ele><time>2026-05-01T05:52:22Z</time></trkpt><trkpt lat="45.32081943252086" lon="9.376787421357992"><ele>85.0</ele><time>2026-05-01T05:52:23Z</time></trkpt><trkpt lat="45.32061288914464" lon="9.377093700646222"><ele>85.0</ele><time>2026-05-01T05:52:24Z</time></trkpt><trkpt lat="45.32040813508244" lon="9.37739863277216"><ele>85.5</ele><time>2026-05-01T05:52:25Z</time></trkpt><trkpt lat="45.32020616605465" lon="9.377704383295088"><ele>86.0</ele><time>2026-05-01T05:52:26Z</time></trkpt><trkpt lat="45.32000448751891" lon="9.378012310485563"><ele>85.5</ele><time>2026-05-01T05:52:27Z</time></trkpt><trkpt lat="45.319802830631694" lon="9.378320112140706"><ele>85.0</ele><time>2026-05-01T05:52:28Z</time></trkpt><trkpt lat="45.31960057591349" lon="9.37862591655662"><ele>84.5</ele><time>2026-05-01T05:52:29Z</time></trkpt><trkpt lat="45.31939924472726" lon="9.37893078935387"><ele>84.0</ele><time>2026-05-01T05:52:30Z</time></trkpt><trkpt lat="45.31919859756817" lon="9.379236185100144"><ele>84.0</ele><time>2026-05-01T05:52:31Z</time></trkpt><trkpt lat="45.31899853250996" lon="9.379542853861802"><ele>84.0</ele><time>2026-05-01T05:52:32Z</time></trkpt><trkpt lat="45.318801189367875" lon="9.379849927987717"><ele>83.0</ele><time>2026-05-01T05:52:33Z</time></trkpt><trkpt lat="45.318603010431204" lon="9.380157378115918"><ele>82.0</ele><time>2026-05-01T05:52:34Z</time></trkpt><trkpt lat="45.31840313746208" lon="9.380462162493254"><ele>82.0</ele><time>2026-05-01T05:52:35Z</time></trkpt><trkpt lat="45.31820460105168" lon="9.3807643123562"><ele>82.0</ele><time>2026-05-01T05:52:36Z</time></trkpt><trkpt lat="45.31800822218326" lon="9.381066084926362"><ele>82.0</ele><time>2026-05-01T05:52:37Z</time></trkpt><trkpt lat="45.31781201434416" lon="9.381364531791332"><ele>82.0</ele><time>2026-05-01T05:52:38Z</time></trkpt><trkpt lat="45.31761997551744" lon="9.381664552120265"><ele>82.0</ele><time>2026-05-01T05:52:39Z</time></trkpt><trkpt lat="45.31742621851406" lon="9.38196353408832"><ele>82.0</ele><time>2026-05-01T05:52:40Z</time></trkpt><trkpt lat="45.317237158175345" lon="9.382263491974316"><ele>82.0</ele><time>2026-05-01T05:52:41Z</time></trkpt><trkpt lat="45.317047616330306" lon="9.382560039208192"><ele>82.0</ele><time>2026-05-01T05:52:42Z</time></trkpt><trkpt lat="45.31685862810613" lon="9.38285458009876"><ele>82.0</ele><time>2026-05-01T05:52:43Z</time></trkpt><trkpt lat="45.316670917505846" lon="9.383146910179466"><ele>82.0</ele><time>2026-05-01T05:52:44Z</time></trkpt><trkpt lat="45.316485991876036" lon="9.383439026673722"><ele>81.5</ele><time>2026-05-01T05:52:45Z</time></trkpt><trkpt lat="45.31630646329977" lon="9.383728399376418"><ele>81.0</ele><time>2026-05-01T05:52:46Z</time></trkpt><trkpt lat="45.31612984058365" lon="9.384022567356029"><ele>81.0</ele><time>2026-05-01T05:52:47Z</time></trkpt><trkpt lat="45.31594721805665" lon="9.38431376687829"><ele>81.0</ele><time>2026-05-01T05:52:48Z</time></trkpt><trkpt lat="45.31576030636559" lon="9.38460005042146"><ele>81.0</ele><time>2026-05-01T05:52:49Z</time></trkpt><trkpt lat="45.31557342814565" lon="9.384892228130642"><ele>81.0</ele><time>2026-05-01T05:52:50Z</time></trkpt><trkpt lat="45.31538332144187" lon="9.385188986520198"><ele>81.5</ele><time>2026-05-01T05:52:51Z</time></trkpt><trkpt lat="45.31519239322208" lon="9.385485750819848"><ele>82.0</ele><time>2026-05-01T05:52:52Z</time></trkpt><trkpt lat="45.314998564850676" lon="9.385778325101155"><ele>82.5</ele><time>2026-05-01T05:52:53Z</time></trkpt><trkpt lat="45.31480613261482" lon="9.386073872107367"><ele>83.0</ele><time>2026-05-01T05:52:54Z</time></trkpt><trkpt lat="45.31461596444889" lon="9.386370376501597"><ele>83.0</ele><time>2026-05-01T05:52:55Z</time></trkpt><trkpt lat="45.31442453833997" lon="9.386667412561115"><ele>83.0</ele><time>2026-05-01T05:52:56Z</time></trkpt><trkpt lat="45.31423327354109" lon="9.386967831078938"><ele>82.0</ele><time>2026-05-01T05:52:57Z</time></trkpt><trkpt lat="45.31403927375808" lon="9.387260376648124"><ele>81.0</ele><time>2026-05-01T05:52:58Z</time></trkpt><trkpt lat="45.31384807155095" lon="9.387552251572155"><ele>81.0</ele><time>2026-05-01T05:52:59Z</time></trkpt><trkpt lat="45.313659396980256" lon="9.387848797139757"><ele>81.0</ele><time>2026-05-01T05:53:00Z</time></trkpt><trkpt lat="45.31346857044946" lon="9.388144243551844"><ele>81.5</ele><time>2026-05-01T05:53:01Z</time></trkpt><trkpt lat="45.313276337127824" lon="9.388439591883943"><ele>82.0</ele><time>2026-05-01T05:53:02Z</time></trkpt><trkpt lat="45.3130826941211" lon="9.38873348590632"><ele>81.5</ele><time>2026-05-01T05:53:03Z</time></trkpt><trkpt lat="45.31288919190371" lon="9.389030227268838"><ele>81.0</ele><time>2026-05-01T05:53:04Z</time></trkpt><trkpt lat="45.31269420660634" lon="9.389327844835993"><ele>81.0</ele><time>2026-05-01T05:53:05Z</time></trkpt><trkpt lat="45.312500065488535" lon="9.389630595671802"><ele>81.0</ele><time>2026-05-01T05:53:05.999Z</time></trkpt><trkpt lat="45.312301661494374" lon="9.38993655868141"><ele>80.5</ele><time>2026-05-01T05:53:06.999Z</time></trkpt><trkpt lat="45.31210316326466" lon="9.390243639773487"><ele>80.0</ele><time>2026-05-01T05:53:07.999Z</time></trkpt><trkpt lat="45.311901467089626" lon="9.390551590121122"><ele>80.0</ele><time>2026-05-01T05:53:08.999Z</time></trkpt><trkpt lat="45.31169678477185" lon="9.390863070867876"><ele>80.0</ele><time>2026-05-01T05:53:09.999Z</time></trkpt><trkpt lat="45.31149052289508" lon="9.391179339718182"><ele>80.0</ele><time>2026-05-01T05:53:10.999Z</time></trkpt><trkpt lat="45.31128337807147" lon="9.391497944736678"><ele>80.0</ele><time>2026-05-01T05:53:11.999Z</time></trkpt><trkpt lat="45.311070278547426" lon="9.39182428905297"><ele>80.0</ele><time>2026-05-01T05:53:12.999Z</time></trkpt><trkpt lat="45.31085640677816" lon="9.39215232916195"><ele>80.0</ele><time>2026-05-01T05:53:13.999Z</time></trkpt><trkpt lat="45.3106415286289" lon="9.392481632367783"><ele>80.5</ele><time>2026-05-01T05:53:14.999Z</time></trkpt><trkpt lat="45.31042561708118" lon="9.392810048000763"><ele>81.0</ele><time>2026-05-01T05:53:15.999Z</time></trkpt><trkpt lat="45.310210383943165" lon="9.393141372552114"><ele>81.0</ele><time>2026-05-01T05:53:16.999Z</time></trkpt><trkpt lat="45.309996237973216" lon="9.39347221371279"><ele>81.0</ele><time>2026-05-01T05:53:17.999Z</time></trkpt><trkpt lat="45.309781813969096" lon="9.393801744442055"><ele>81.0</ele><time>2026-05-01T05:53:18.999Z</time></trkpt><trkpt lat="45.309567486772075" lon="9.394133746801735"><ele>81.0</ele><time>2026-05-01T05:53:19.999Z</time></trkpt><trkpt lat="45.30935339701742" lon="9.39446396743194"><ele>80.5</ele><time>2026-05-01T05:53:20.999Z</time></trkpt><trkpt lat="45.30913896683806" lon="9.394792448231264"><ele>80.0</ele><time>2026-05-01T05:53:21.999Z</time></trkpt><trkpt lat="45.308922736239055" lon="9.395122389059111"><ele>80.5</ele><time>2026-05-01T05:53:22.999Z</time></trkpt><trkpt lat="45.308704102489955" lon="9.395447261793365"><ele>81.0</ele><time>2026-05-01T05:53:23.999Z</time></trkpt><trkpt lat="45.30848383992303" lon="9.395766149313273"><ele>81.0</ele><time>2026-05-01T05:53:24.999Z</time></trkpt><trkpt lat="45.30825898437838" lon="9.39609175949466"><ele>81.0</ele><time>2026-05-01T05:53:25.999Z</time></trkpt><trkpt lat="45.30804300759134" lon="9.396414928162129"><ele>80.5</ele><time>2026-05-01T05:53:26.999Z</time></trkpt><trkpt lat="45.30782743853718" lon="9.396736573150154"><ele>80.0</ele><time>2026-05-01T05:53:27.999Z</time></trkpt><trkpt lat="45.30761237626974" lon="9.397053649836726"><ele>80.0</ele><time>2026-05-01T05:53:28.999Z</time></trkpt><trkpt lat="45.307395434983974" lon="9.397368012291473"><ele>80.0</ele><time>2026-05-01T05:53:29.999Z</time></trkpt><trkpt lat="45.307178095390455" lon="9.397683062711073"><ele>81.0</ele><time>2026-05-01T05:53:30.999Z</time></trkpt><trkpt lat="45.306962539169675" lon="9.398001724065576"><ele>82.0</ele><time>2026-05-01T05:53:31.999Z</time></trkpt><trkpt lat="45.30675085736799" lon="9.398322109507216"><ele>82.0</ele><time>2026-05-01T05:53:32.999Z</time></trkpt><trkpt lat="45.306539827487946" lon="9.398647743908068"><ele>82.0</ele><time>2026-05-01T05:53:33.999Z</time></trkpt><trkpt lat="45.30633025396382" lon="9.398973105947588"><ele>81.5</ele><time>2026-05-01T05:53:34.999Z</time></trkpt><trkpt lat="45.30611734270482" lon="9.399300476982232"><ele>81.0</ele><time>2026-05-01T05:53:35.999Z</time></trkpt><trkpt lat="45.30590264635084" lon="9.399628632906072"><ele>81.0</ele><time>2026-05-01T05:53:36.999Z</time></trkpt><trkpt lat="45.30568626680672" lon="9.399957287297195"><ele>81.0</ele><time>2026-05-01T05:53:37.999Z</time></trkpt><trkpt lat="45.30547076452516" lon="9.40028507547844"><ele>81.0</ele><time>2026-05-01T05:53:38.999Z</time></trkpt><trkpt lat="45.305255883811185" lon="9.400610932520415"><ele>81.0</ele><time>2026-05-01T05:53:39.999Z</time></trkpt><trkpt lat="45.305040324835005" lon="9.400933960047116"><ele>81.0</ele><time>2026-05-01T05:53:40.999Z</time></trkpt><trkpt lat="45.30482364803042" lon="9.401257190799933"><ele>81.0</ele><time>2026-05-01T05:53:41.999Z</time></trkpt><trkpt lat="45.30460591869486" lon="9.401578771417498"><ele>81.0</ele><time>2026-05-01T05:53:42.999Z</time></trkpt><trkpt lat="45.30438763468064" lon="9.401900196945496"><ele>81.0</ele><time>2026-05-01T05:53:43.999Z</time></trkpt><trkpt lat="45.30416894369703" lon="9.402221957650772"><ele>81.0</ele><time>2026-05-01T05:53:44.999Z</time></trkpt><trkpt lat="45.30394977320299" lon="9.402542892365796"><ele>81.0</ele><time>2026-05-01T05:53:45.999Z</time></trkpt><trkpt lat="45.30372863120749" lon="9.402865363897456"><ele>80.0</ele><time>2026-05-01T05:53:46.999Z</time></trkpt><trkpt lat="45.303506264600635" lon="9.403182533201457"><ele>79.0</ele><time>2026-05-01T05:53:47.999Z</time></trkpt><trkpt lat="45.30328247405123" lon="9.403500573415556"><ele>79.0</ele><time>2026-05-01T05:53:48.999Z</time></trkpt><trkpt lat="45.30305832142748" lon="9.40381891717499"><ele>79.0</ele><time>2026-05-01T05:53:49.999Z</time></trkpt><trkpt lat="45.302831186072964" lon="9.40413755936732"><ele>79.0</ele><time>2026-05-01T05:53:50.999Z</time></trkpt><trkpt lat="45.302603404478354" lon="9.404455549208857"><ele>79.0</ele><time>2026-05-01T05:53:51.999Z</time></trkpt><trkpt lat="45.3023752678862" lon="9.404774372701493"><ele>77.5</ele><time>2026-05-01T05:53:52.999Z</time></trkpt><trkpt lat="45.302145938369215" lon="9.405093868266233"><ele>76.0</ele><time>2026-05-01T05:53:53.999Z</time></trkpt><trkpt lat="45.30191704314459" lon="9.405414559621274"><ele>77.5</ele><time>2026-05-01T05:53:54.999Z</time></trkpt><trkpt lat="45.301690482050844" lon="9.405738058053329"><ele>79.0</ele><time>2026-05-01T05:53:56Z</time></trkpt><trkpt lat="45.301460789763716" lon="9.406058579717635"><ele>79.5</ele><time>2026-05-01T05:53:57Z</time></trkpt><trkpt lat="45.30123214141309" lon="9.406382293806269"><ele>80.0</ele><time>2026-05-01T05:53:58Z</time></trkpt><trkpt lat="45.30100408828162" lon="9.406705112542518"><ele>80.0</ele><time>2026-05-01T05:53:59Z</time></trkpt><trkpt lat="45.30077440509309" lon="9.40702037749613"><ele>80.0</ele><time>2026-05-01T05:54:00Z</time></trkpt><trkpt lat="45.30054679983689" lon="9.407342226006824"><ele>80.0</ele><time>2026-05-01T05:54:01Z</time></trkpt><trkpt lat="45.300316845937814" lon="9.407662418581381"><ele>80.0</ele><time>2026-05-01T05:54:02Z</time></trkpt><trkpt lat="45.30008656728903" lon="9.407981607378542"><ele>80.0</ele><time>2026-05-01T05:54:03Z</time></trkpt><trkpt lat="45.29985858895922" lon="9.408302383527213"><ele>80.0</ele><time>2026-05-01T05:54:04Z</time></trkpt><trkpt lat="45.299630057921" lon="9.408622783942581"><ele>79.0</ele><time>2026-05-01T05:54:05Z</time></trkpt><trkpt lat="45.29939994727829" lon="9.408940926499385"><ele>78.0</ele><time>2026-05-01T05:54:06Z</time></trkpt><trkpt lat="45.2991716137313" lon="9.409260212504185"><ele>78.0</ele><time>2026-05-01T05:54:07Z</time></trkpt><trkpt lat="45.298944211555856" lon="9.40957563519414"><ele>78.0</ele><time>2026-05-01T05:54:08Z</time></trkpt><trkpt lat="45.29871800463342" lon="9.409894034877016"><ele>77.5</ele><time>2026-05-01T05:54:09Z</time></trkpt><trkpt lat="45.29849207311483" lon="9.410210486099901"><ele>77.0</ele><time>2026-05-01T05:54:10Z</time></trkpt><trkpt lat="45.298268102578234" lon="9.410528981845907"><ele>77.0</ele><time>2026-05-01T05:54:11Z</time></trkpt><trkpt lat="45.29804943185842" lon="9.410851099691234"><ele>77.0</ele><time>2026-05-01T05:54:12Z</time></trkpt><trkpt lat="45.29783183958073" lon="9.411175746045963"><ele>77.0</ele><time>2026-05-01T05:54:13Z</time></trkpt><trkpt lat="45.297617474493705" lon="9.41150165479449"><ele>77.0</ele><time>2026-05-01T05:54:14Z</time></trkpt><trkpt lat="45.297402901894436" lon="9.411824940557356"><ele>77.5</ele><time>2026-05-01T05:54:15Z</time></trkpt><trkpt lat="45.29719088874569" lon="9.412155016311063"><ele>78.0</ele><time>2026-05-01T05:54:16Z</time></trkpt><trkpt lat="45.296977633839205" lon="9.412480855779744"><ele>78.0</ele><time>2026-05-01T05:54:17Z</time></trkpt><trkpt lat="45.29676555432022" lon="9.412810666773362"><ele>78.0</ele><time>2026-05-01T05:54:18Z</time></trkpt><trkpt lat="45.29655518553871" lon="9.413141853978335"><ele>77.5</ele><time>2026-05-01T05:54:19Z</time></trkpt><trkpt lat="45.29634484625599" lon="9.413474184194078"><ele>77.0</ele><time>2026-05-01T05:54:20Z</time></trkpt><trkpt lat="45.29613450745119" lon="9.41380438694526"><ele>76.5</ele><time>2026-05-01T05:54:21Z</time></trkpt><trkpt lat="45.29592340833757" lon="9.414137822512686"><ele>76.0</ele><time>2026-05-01T05:54:22Z</time></trkpt><trkpt lat="45.29571344247502" lon="9.414475871360079"><ele>76.0</ele><time>2026-05-01T05:54:23Z</time></trkpt><trkpt lat="45.29550713365963" lon="9.414817094523897"><ele>76.0</ele><time>2026-05-01T05:54:24Z</time></trkpt><trkpt lat="45.29530216107945" lon="9.41516270804467"><ele>76.5</ele><time>2026-05-01T05:54:25Z</time></trkpt><trkpt lat="45.29509925431764" lon="9.41550937905444"><ele>77.0</ele><time>2026-05-01T05:54:26Z</time></trkpt><trkpt lat="45.294895685107385" lon="9.415857931387352"><ele>77.0</ele><time>2026-05-01T05:54:27Z</time></trkpt><trkpt lat="45.294690407743445" lon="9.416203101770309"><ele>77.0</ele><time>2026-05-01T05:54:28Z</time></trkpt><trkpt lat="45.294486505783645" lon="9.416551102205766"><ele>77.0</ele><time>2026-05-01T05:54:29Z</time></trkpt><trkpt lat="45.29428205339911" lon="9.416900361066022"><ele>77.0</ele><time>2026-05-01T05:54:30Z</time></trkpt><trkpt lat="45.294078016130534" lon="9.417247801054144"><ele>77.0</ele><time>2026-05-01T05:54:31Z</time></trkpt><trkpt lat="45.29387624474713" lon="9.417594244558215"><ele>77.0</ele><time>2026-05-01T05:54:32Z</time></trkpt><trkpt lat="45.29367475075415" lon="9.417942063886695"><ele>76.0</ele><time>2026-05-01T05:54:33Z</time></trkpt><trkpt lat="45.29347499171038" lon="9.418289985473288"><ele>75.0</ele><time>2026-05-01T05:54:34Z</time></trkpt><trkpt lat="45.29327459778963" lon="9.418635849622756"><ele>75.0</ele><time>2026-05-01T05:54:35Z</time></trkpt><trkpt lat="45.29307512366944" lon="9.41898030711351"><ele>75.0</ele><time>2026-05-01T05:54:36Z</time></trkpt><trkpt lat="45.2928788761801" lon="9.41932572017667"><ele>75.0</ele><time>2026-05-01T05:54:37Z</time></trkpt><trkpt lat="45.29268383146875" lon="9.419672292497259"><ele>75.0</ele><time>2026-05-01T05:54:38Z</time></trkpt><trkpt lat="45.292489017159085" lon="9.420017403237527"><ele>75.0</ele><time>2026-05-01T05:54:39Z</time></trkpt><trkpt lat="45.2922979200159" lon="9.420358374966044"><ele>75.0</ele><time>2026-05-01T05:54:40Z</time></trkpt><trkpt lat="45.29210755341511" lon="9.42070953222179"><ele>75.5</ele><time>2026-05-01T05:54:41Z</time></trkpt><trkpt lat="45.29191565931829" lon="9.421054529980067"><ele>76.0</ele><time>2026-05-01T05:54:42Z</time></trkpt><trkpt lat="45.29172234197086" lon="9.421397510125693"><ele>76.0</ele><time>2026-05-01T05:54:43Z</time></trkpt><trkpt lat="45.29153128356916" lon="9.421739988184212"><ele>76.0</ele><time>2026-05-01T05:54:44Z</time></trkpt><trkpt lat="45.291342466739835" lon="9.422083848552504"><ele>76.0</ele><time>2026-05-01T05:54:45Z</time></trkpt><trkpt lat="45.29115208098553" lon="9.422418071258265"><ele>76.0</ele><time>2026-05-01T05:54:46Z</time></trkpt><trkpt lat="45.2909611345156" lon="9.422763756911841"><ele>76.0</ele><time>2026-05-01T05:54:47Z</time></trkpt><trkpt lat="45.290771050866674" lon="9.423097110317762"><ele>76.0</ele><time>2026-05-01T05:54:48Z</time></trkpt><trkpt lat="45.29057720338265" lon="9.423433076379993"><ele>76.0</ele><time>2026-05-01T05:54:49Z</time></trkpt><trkpt lat="45.29038238854544" lon="9.423773245375042"><ele>76.0</ele><time>2026-05-01T05:54:50Z</time></trkpt><trkpt lat="45.290193262679814" lon="9.42411943021975"><ele>76.0</ele><time>2026-05-01T05:54:51Z</time></trkpt><trkpt lat="45.289995377860414" lon="9.424468573210023"><ele>76.0</ele><time>2026-05-01T05:54:52Z</time></trkpt><trkpt lat="45.28979282071738" lon="9.42482669943094"><ele>76.0</ele><time>2026-05-01T05:54:53Z</time></trkpt><trkpt lat="45.28964198122603" lon="9.425125249965392"><ele>76.0</ele><time>2026-05-01T05:54:54Z</time></trkpt><trkpt lat="45.289451345581746" lon="9.4254652496654"><ele>76.5</ele><time>2026-05-01T05:54:55Z</time></trkpt><trkpt lat="45.2892592012358" lon="9.425800461087027"><ele>77.0</ele><time>2026-05-01T05:54:56Z</time></trkpt><trkpt lat="45.28906698981194" lon="9.426134334910559"><ele>77.0</ele><time>2026-05-01T05:54:57Z</time></trkpt><trkpt lat="45.28888133301823" lon="9.426476732725861"><ele>77.0</ele><time>2026-05-01T05:54:58Z</time></trkpt><trkpt lat="45.28869492649409" lon="9.42681763507214"><ele>77.0</ele><time>2026-05-01T05:54:59Z</time></trkpt><trkpt lat="45.28850394511235" lon="9.427159196018879"><ele>77.0</ele><time>2026-05-01T05:55:00Z</time></trkpt><trkpt lat="45.288318071485094" lon="9.427499421540078"><ele>77.0</ele><time>2026-05-01T05:55:01Z</time></trkpt><trkpt lat="45.28812654517937" lon="9.427833897059491"><ele>77.0</ele><time>2026-05-01T05:55:02Z</time></trkpt><trkpt lat="45.28793716179917" lon="9.428167135489087"><ele>77.5</ele><time>2026-05-01T05:55:03Z</time></trkpt><trkpt lat="45.28774459132568" lon="9.428500447010952"><ele>78.0</ele><time>2026-05-01T05:55:04Z</time></trkpt><trkpt lat="45.287550013980685" lon="9.428829662523988"><ele>77.5</ele><time>2026-05-01T05:55:05Z</time></trkpt><trkpt lat="45.28735681021659" lon="9.429152433937192"><ele>77.0</ele><time>2026-05-01T05:55:06Z</time></trkpt><trkpt lat="45.28716443469162" lon="9.429481597918539"><ele>77.0</ele><time>2026-05-01T05:55:07Z</time></trkpt><trkpt lat="45.28697454952155" lon="9.429815075027477"><ele>77.0</ele><time>2026-05-01T05:55:08Z</time></trkpt><trkpt lat="45.286790089688274" lon="9.430141804471534"><ele>77.0</ele><time>2026-05-01T05:55:08.999Z</time></trkpt><trkpt lat="45.286603421432716" lon="9.430470117474222"><ele>77.0</ele><time>2026-05-01T05:55:09.999Z</time></trkpt><trkpt lat="45.28641331473511" lon="9.43079952566515"><ele>77.5</ele><time>2026-05-01T05:55:10.999Z</time></trkpt><trkpt lat="45.28622829057675" lon="9.431124452008163"><ele>78.0</ele><time>2026-05-01T05:55:11.999Z</time></trkpt><trkpt lat="45.28604118647696" lon="9.431455659717269"><ele>76.5</ele><time>2026-05-01T05:55:12.999Z</time></trkpt><trkpt lat="45.285854759982584" lon="9.431781339020022"><ele>75.0</ele><time>2026-05-01T05:55:13.999Z</time></trkpt><trkpt lat="45.28566495304925" lon="9.432106618851986"><ele>75.0</ele><time>2026-05-01T05:55:14.999Z</time></trkpt><trkpt lat="45.285474491540484" lon="9.432431003345338"><ele>75.0</ele><time>2026-05-01T05:55:15.999Z</time></trkpt><trkpt lat="45.285275942975005" lon="9.432753130634206"><ele>75.5</ele><time>2026-05-01T05:55:16.999Z</time></trkpt><trkpt lat="45.28508188958938" lon="9.433078475578528"><ele>76.0</ele><time>2026-05-01T05:55:17.999Z</time></trkpt><trkpt lat="45.2848854392065" lon="9.433406113283915"><ele>75.0</ele><time>2026-05-01T05:55:18.999Z</time></trkpt><trkpt lat="45.28468597230826" lon="9.43373511038743"><ele>74.0</ele><time>2026-05-01T05:55:19.999Z</time></trkpt><trkpt lat="45.284487444953314" lon="9.434067410502555"><ele>74.0</ele><time>2026-05-01T05:55:20.999Z</time></trkpt><trkpt lat="45.284288949620844" lon="9.434401397012165"><ele>74.0</ele><time>2026-05-01T05:55:21.999Z</time></trkpt><trkpt lat="45.28409059568571" lon="9.434730476207404"><ele>74.5</ele><time>2026-05-01T05:55:22.999Z</time></trkpt><trkpt lat="45.283889694594855" lon="9.435061721069665"><ele>75.0</ele><time>2026-05-01T05:55:23.999Z</time></trkpt><trkpt lat="45.283689223335784" lon="9.435391060602525"><ele>75.0</ele><time>2026-05-01T05:55:24.999Z</time></trkpt><trkpt lat="45.28349009464045" lon="9.435721848404963"><ele>75.0</ele><time>2026-05-01T05:55:25.999Z</time></trkpt><trkpt lat="45.2832850999036" lon="9.436056379429253"><ele>74.5</ele><time>2026-05-01T05:55:26.999Z</time></trkpt><trkpt lat="45.28308974292501" lon="9.436385695367893"><ele>74.0</ele><time>2026-05-01T05:55:27.999Z</time></trkpt><trkpt lat="45.28288867331322" lon="9.436726221380184"><ele>74.0</ele><time>2026-05-01T05:55:28.999Z</time></trkpt><trkpt lat="45.282685600225044" lon="9.43706083043211"><ele>74.0</ele><time>2026-05-01T05:55:29.999Z</time></trkpt><trkpt lat="45.2824871854557" lon="9.437398593479244"><ele>74.0</ele><time>2026-05-01T05:55:30.999Z</time></trkpt><trkpt lat="45.28228373312226" lon="9.437726911019704"><ele>74.0</ele><time>2026-05-01T05:55:31.999Z</time></trkpt><trkpt lat="45.282078479544374" lon="9.438067152912348"><ele>73.5</ele><time>2026-05-01T05:55:32.999Z</time></trkpt><trkpt lat="45.28187271789998" lon="9.43839944309104"><ele>73.0</ele><time>2026-05-01T05:55:33.999Z</time></trkpt><trkpt lat="45.28166498014133" lon="9.438735886993316"><ele>73.0</ele><time>2026-05-01T05:55:34.999Z</time></trkpt><trkpt lat="45.281463434738484" lon="9.439076228373846"><ele>73.0</ele><time>2026-05-01T05:55:35.999Z</time></trkpt><trkpt lat="45.28126264044989" lon="9.43942088164626"><ele>73.0</ele><time>2026-05-01T05:55:36.999Z</time></trkpt><trkpt lat="45.28105898025395" lon="9.439761075301146"><ele>73.0</ele><time>2026-05-01T05:55:37.999Z</time></trkpt><trkpt lat="45.28085499354379" lon="9.440101489311258"><ele>73.0</ele><time>2026-05-01T05:55:38.999Z</time></trkpt><trkpt lat="45.28064638496495" lon="9.44044388089398"><ele>73.0</ele><time>2026-05-01T05:55:39.999Z</time></trkpt><trkpt lat="45.28043828451969" lon="9.440789280146083"><ele>73.0</ele><time>2026-05-01T05:55:40.999Z</time></trkpt><trkpt lat="45.28022770683191" lon="9.44113882320762"><ele>73.0</ele><time>2026-05-01T05:55:41.999Z</time></trkpt><trkpt lat="45.2800205755535" lon="9.441486414890283"><ele>73.0</ele><time>2026-05-01T05:55:42.999Z</time></trkpt><trkpt lat="45.27981141469037" lon="9.441832938100811"><ele>73.0</ele><time>2026-05-01T05:55:43.999Z</time></trkpt><trkpt lat="45.27960493311786" lon="9.442182344846065"><ele>73.0</ele><time>2026-05-01T05:55:44.999Z</time></trkpt><trkpt lat="45.279391678743615" lon="9.442530192085723"><ele>73.0</ele><time>2026-05-01T05:55:45.999Z</time></trkpt><trkpt lat="45.2791829893307" lon="9.442876713978436"><ele>73.0</ele><time>2026-05-01T05:55:46.999Z</time></trkpt><trkpt lat="45.27897425869308" lon="9.443224040862633"><ele>73.0</ele><time>2026-05-01T05:55:47.999Z</time></trkpt><trkpt lat="45.27876198619911" lon="9.44356946707621"><ele>73.5</ele><time>2026-05-01T05:55:48.999Z</time></trkpt><trkpt lat="45.27855042222101" lon="9.443913276989127"><ele>74.0</ele><time>2026-05-01T05:55:49.999Z</time></trkpt><trkpt lat="45.2783405623952" lon="9.444266392022739"><ele>74.0</ele><time>2026-05-01T05:55:50.999Z</time></trkpt><trkpt lat="45.27813339420661" lon="9.444612287112847"><ele>74.0</ele><time>2026-05-01T05:55:51.999Z</time></trkpt><trkpt lat="45.27792553975681" lon="9.444964406023198"><ele>74.0</ele><time>2026-05-01T05:55:52.999Z</time></trkpt><trkpt lat="45.277716912546936" lon="9.445307467706415"><ele>74.0</ele><time>2026-05-01T05:55:53.999Z</time></trkpt><trkpt lat="45.27751021153436" lon="9.445651115172701"><ele>74.0</ele><time>2026-05-01T05:55:54.999Z</time></trkpt><trkpt lat="45.27730571759452" lon="9.445990372858653"><ele>74.0</ele><time>2026-05-01T05:55:55.999Z</time></trkpt><trkpt lat="45.27710249755013" lon="9.44632519347434"><ele>74.0</ele><time>2026-05-01T05:55:56.999Z</time></trkpt><trkpt lat="45.27690314091602" lon="9.446660869406282"><ele>74.0</ele><time>2026-05-01T05:55:57.999Z</time></trkpt><trkpt lat="45.27670515348902" lon="9.447000697512662"><ele>74.0</ele><time>2026-05-01T05:55:58.999Z</time></trkpt><trkpt lat="45.276507304070364" lon="9.447334274830155"><ele>74.0</ele><time>2026-05-01T05:55:59.999Z</time></trkpt><trkpt lat="45.276313014640316" lon="9.447666593956983"><ele>76.0</ele><time>2026-05-01T05:56:00.999Z</time></trkpt><trkpt lat="45.27612397526512" lon="9.448001437998364"><ele>78.0</ele><time>2026-05-01T05:56:02Z</time></trkpt><trkpt lat="45.275931963965114" lon="9.448338817017468"><ele>78.0</ele><time>2026-05-01T05:56:03Z</time></trkpt><trkpt lat="45.27573472700889" lon="9.44867568110244"><ele>78.0</ele><time>2026-05-01T05:56:04Z</time></trkpt><trkpt lat="45.275532190384354" lon="9.449004479195729"><ele>77.5</ele><time>2026-05-01T05:56:05Z</time></trkpt><trkpt lat="45.27532899275278" lon="9.449327854249391"><ele>77.0</ele><time>2026-05-01T05:56:06Z</time></trkpt><trkpt lat="45.27512925126863" lon="9.449646122949323"><ele>77.0</ele><time>2026-05-01T05:56:07Z</time></trkpt><trkpt lat="45.27493052547344" lon="9.449966189829663"><ele>77.0</ele><time>2026-05-01T05:56:08Z</time></trkpt><trkpt lat="45.27472743916178" lon="9.450284560860494"><ele>76.0</ele><time>2026-05-01T05:56:09Z</time></trkpt><trkpt lat="45.27452340138326" lon="9.450606692329192"><ele>75.0</ele><time>2026-05-01T05:56:10Z</time></trkpt><trkpt lat="45.27432201364369" lon="9.450932641660346"><ele>75.0</ele><time>2026-05-01T05:56:11Z</time></trkpt><trkpt lat="45.27412277525506" lon="9.45126231449839"><ele>75.0</ele><time>2026-05-01T05:56:12Z</time></trkpt><trkpt lat="45.273925913293105" lon="9.451600178760549"><ele>74.5</ele><time>2026-05-01T05:56:13Z</time></trkpt><trkpt lat="45.27372428117848" lon="9.451927776547942"><ele>74.0</ele><time>2026-05-01T05:56:14Z</time></trkpt><trkpt lat="45.27352602018655" lon="9.452260060584791"><ele>74.0</ele><time>2026-05-01T05:56:15Z</time></trkpt><trkpt lat="45.273324972831496" lon="9.452584061814216"><ele>74.0</ele><time>2026-05-01T05:56:16Z</time></trkpt><trkpt lat="45.273125657145" lon="9.452912881529059"><ele>74.5</ele><time>2026-05-01T05:56:17Z</time></trkpt><trkpt lat="45.27292260127688" lon="9.453242086898928"><ele>75.0</ele><time>2026-05-01T05:56:18Z</time></trkpt><trkpt lat="45.27271597469922" lon="9.45356130885581"><ele>74.0</ele><time>2026-05-01T05:56:19Z</time></trkpt><trkpt lat="45.27251112288366" lon="9.453886650313509"><ele>73.0</ele><time>2026-05-01T05:56:20Z</time></trkpt><trkpt lat="45.272299562273716" lon="9.454203948909825"><ele>73.5</ele><time>2026-05-01T05:56:21Z</time></trkpt><trkpt lat="45.272086838934264" lon="9.45452749078319"><ele>74.0</ele><time>2026-05-01T05:56:22Z</time></trkpt><trkpt lat="45.271874784785076" lon="9.454852983073284"><ele>74.0</ele><time>2026-05-01T05:56:23Z</time></trkpt><trkpt lat="45.271662813660015" lon="9.45518431826733"><ele>74.0</ele><time>2026-05-01T05:56:24Z</time></trkpt><trkpt lat="45.27144984684784" lon="9.455510994342252"><ele>74.5</ele><time>2026-05-01T05:56:25Z</time></trkpt><trkpt lat="45.27123346468487" lon="9.455835880839022"><ele>75.0</ele><time>2026-05-01T05:56:26Z</time></trkpt><trkpt lat="45.271017189769815" lon="9.456161422114667"><ele>75.0</ele><time>2026-05-01T05:56:27Z</time></trkpt><trkpt lat="45.27079478093877" lon="9.456484289392248"><ele>75.0</ele><time>2026-05-01T05:56:28Z</time></trkpt><trkpt lat="45.27057694079485" lon="9.456804207308114"><ele>75.0</ele><time>2026-05-01T05:56:29Z</time></trkpt><trkpt lat="45.27035762976688" lon="9.457124846178854"><ele>75.0</ele><time>2026-05-01T05:56:30Z</time></trkpt><trkpt lat="45.270142209314145" lon="9.457443685428329"><ele>75.0</ele><time>2026-05-01T05:56:31Z</time></trkpt><trkpt lat="45.26992248843627" lon="9.457759468552275"><ele>75.0</ele><time>2026-05-01T05:56:32Z</time></trkpt><trkpt lat="45.26970403187622" lon="9.458076996593773"><ele>74.0</ele><time>2026-05-01T05:56:33Z</time></trkpt><trkpt lat="45.269479899500084" lon="9.458392153408575"><ele>73.0</ele><time>2026-05-01T05:56:34Z</time></trkpt><trkpt lat="45.26925896524061" lon="9.45870617647209"><ele>72.5</ele><time>2026-05-01T05:56:35Z</time></trkpt><trkpt lat="45.269037310016444" lon="9.459021734985047"><ele>72.0</ele><time>2026-05-01T05:56:36Z</time></trkpt><trkpt lat="45.2688167075502" lon="9.459333282162019"><ele>73.0</ele><time>2026-05-01T05:56:37Z</time></trkpt><trkpt lat="45.268590333566024" lon="9.459640192811221"><ele>74.0</ele><time>2026-05-01T05:56:38Z</time></trkpt><trkpt lat="45.26836624193829" lon="9.459950922134727"><ele>74.0</ele><time>2026-05-01T05:56:39Z</time></trkpt><trkpt lat="45.26814084181648" lon="9.46025685959285"><ele>74.0</ele><time>2026-05-01T05:56:40Z</time></trkpt><trkpt lat="45.26791236373485" lon="9.460564606246162"><ele>73.5</ele><time>2026-05-01T05:56:41Z</time></trkpt><trkpt lat="45.26768287929769" lon="9.46086887633201"><ele>73.0</ele><time>2026-05-01T05:56:42Z</time></trkpt><trkpt lat="45.26745280492161" lon="9.461175267126054"><ele>73.0</ele><time>2026-05-01T05:56:43Z</time></trkpt><trkpt lat="45.26722327273521" lon="9.461480935162196"><ele>73.0</ele><time>2026-05-01T05:56:44Z</time></trkpt><trkpt lat="45.26699127647117" lon="9.461786030987126"><ele>73.0</ele><time>2026-05-01T05:56:45Z</time></trkpt><trkpt lat="45.26676314204682" lon="9.462092932650464"><ele>73.0</ele><time>2026-05-01T05:56:46Z</time></trkpt><trkpt lat="45.266531421976225" lon="9.462395928381724"><ele>73.0</ele><time>2026-05-01T05:56:47Z</time></trkpt><trkpt lat="45.26630010411852" lon="9.462697629787373"><ele>73.0</ele><time>2026-05-01T05:56:48Z</time></trkpt><trkpt lat="45.266066308971034" lon="9.46300086211472"><ele>73.0</ele><time>2026-05-01T05:56:49Z</time></trkpt><trkpt lat="45.26583593449477" lon="9.46330670364587"><ele>73.0</ele><time>2026-05-01T05:56:50Z</time></trkpt><trkpt lat="45.265608224474086" lon="9.463609684360714"><ele>73.0</ele><time>2026-05-01T05:56:51Z</time></trkpt><trkpt lat="45.26537668966436" lon="9.46391161305979"><ele>73.0</ele><time>2026-05-01T05:56:52Z</time></trkpt><trkpt lat="45.26514850548664" lon="9.464217550298512"><ele>73.0</ele><time>2026-05-01T05:56:53Z</time></trkpt><trkpt lat="45.26491742729708" lon="9.464515548206068"><ele>73.0</ele><time>2026-05-01T05:56:54Z</time></trkpt><trkpt lat="45.26468947873796" lon="9.464818363197868"><ele>72.5</ele><time>2026-05-01T05:56:55Z</time></trkpt><trkpt lat="45.264461555754245" lon="9.465119524451822"><ele>72.0</ele><time>2026-05-01T05:56:56Z</time></trkpt><trkpt lat="45.264232521594955" lon="9.46541840474005"><ele>72.0</ele><time>2026-05-01T05:56:57Z</time></trkpt><trkpt lat="45.26400381790415" lon="9.46571398098756"><ele>72.0</ele><time>2026-05-01T05:56:58Z</time></trkpt><trkpt lat="45.263776511809475" lon="9.466013876975998"><ele>73.5</ele><time>2026-05-01T05:56:59Z</time></trkpt><trkpt lat="45.26355120031399" lon="9.466314035545125"><ele>75.0</ele><time>2026-05-01T05:57:00Z</time></trkpt><trkpt lat="45.26332726113243" lon="9.46661422757602"><ele>75.0</ele><time>2026-05-01T05:57:01Z</time></trkpt><trkpt lat="45.26310307956518" lon="9.466913341018948"><ele>75.0</ele><time>2026-05-01T05:57:02Z</time></trkpt><trkpt lat="45.26287735745276" lon="9.467211387975937"><ele>74.0</ele><time>2026-05-01T05:57:03Z</time></trkpt><trkpt lat="45.26265117825544" lon="9.467510545765132"><ele>73.0</ele><time>2026-05-01T05:57:04Z</time></trkpt><trkpt lat="45.26242123584892" lon="9.467799731589778"><ele>73.0</ele><time>2026-05-01T05:57:05Z</time></trkpt><trkpt lat="45.26219363772199" lon="9.468099097248588"><ele>73.0</ele><time>2026-05-01T05:57:06Z</time></trkpt><trkpt lat="45.26196831868511" lon="9.468397887620513"><ele>73.0</ele><time>2026-05-01T05:57:07Z</time></trkpt><trkpt lat="45.26174056201738" lon="9.468697093401525"><ele>73.0</ele><time>2026-05-01T05:57:08Z</time></trkpt><trkpt lat="45.26151426687058" lon="9.468999103494143"><ele>72.5</ele><time>2026-05-01T05:57:09Z</time></trkpt><trkpt lat="45.26128848162762" lon="9.469297994699085"><ele>72.0</ele><time>2026-05-01T05:57:10Z</time></trkpt><trkpt lat="45.26106528462175" lon="9.469599141199152"><ele>71.5</ele><time>2026-05-01T05:57:10.999Z</time></trkpt><trkpt lat="45.26084293806768" lon="9.469905805212406"><ele>71.0</ele><time>2026-05-01T05:57:11.999Z</time></trkpt><trkpt lat="45.26060830178465" lon="9.470205341939828"><ele>71.0</ele><time>2026-05-01T05:57:12.999Z</time></trkpt><trkpt lat="45.260385780472966" lon="9.470505188260846"><ele>71.0</ele><time>2026-05-01T05:57:13.999Z</time></trkpt><trkpt lat="45.26016388845668" lon="9.47080662310503"><ele>71.0</ele><time>2026-05-01T05:57:14.999Z</time></trkpt><trkpt lat="45.25993401217227" lon="9.47110260318835"><ele>71.0</ele><time>2026-05-01T05:57:15.999Z</time></trkpt><trkpt lat="45.259706012733204" lon="9.471397182154435"><ele>70.0</ele><time>2026-05-01T05:57:16.999Z</time></trkpt><trkpt lat="45.25948454237353" lon="9.471695736163962"><ele>69.0</ele><time>2026-05-01T05:57:17.999Z</time></trkpt><trkpt lat="45.25925990167632" lon="9.471989649061337"><ele>69.0</ele><time>2026-05-01T05:57:18.999Z</time></trkpt><trkpt lat="45.25904141512145" lon="9.4722867054687"><ele>69.0</ele><time>2026-05-01T05:57:19.999Z</time></trkpt><trkpt lat="45.258810060573424" lon="9.472577839971331"><ele>69.5</ele><time>2026-05-01T05:57:20.999Z</time></trkpt><trkpt lat="45.258581852197906" lon="9.472870297298936"><ele>70.0</ele><time>2026-05-01T05:57:21.999Z</time></trkpt><trkpt lat="45.25835982800655" lon="9.47316790879682"><ele>70.0</ele><time>2026-05-01T05:57:22.999Z</time></trkpt><trkpt lat="45.25813739919734" lon="9.47346324150663"><ele>70.0</ele><time>2026-05-01T05:57:23.999Z</time></trkpt><trkpt lat="45.25791199929253" lon="9.473764043837615"><ele>70.0</ele><time>2026-05-01T05:57:24.999Z</time></trkpt><trkpt lat="45.257686965062724" lon="9.474064510616014"><ele>70.0</ele><time>2026-05-01T05:57:25.999Z</time></trkpt><trkpt lat="45.2574602778105" lon="9.474357052852918"><ele>69.5</ele><time>2026-05-01T05:57:26.999Z</time></trkpt><trkpt lat="45.25723239498428" lon="9.47464990061272"><ele>69.0</ele><time>2026-05-01T05:57:27.999Z</time></trkpt><trkpt lat="45.25700188441755" lon="9.474938300994118"><ele>69.0</ele><time>2026-05-01T05:57:28.999Z</time></trkpt><trkpt lat="45.256784663775164" lon="9.475236785037875"><ele>69.0</ele><time>2026-05-01T05:57:29.999Z</time></trkpt><trkpt lat="45.25656501374868" lon="9.475531444648855"><ele>70.0</ele><time>2026-05-01T05:57:30.999Z</time></trkpt><trkpt lat="45.256342745126744" lon="9.475825459870226"><ele>71.0</ele><time>2026-05-01T05:57:31.999Z</time></trkpt><trkpt lat="45.25612833609462" lon="9.476116133387809"><ele>70.5</ele><time>2026-05-01T05:57:32.999Z</time></trkpt><trkpt lat="45.255890086263996" lon="9.47642272892987"><ele>70.0</ele><time>2026-05-01T05:57:33.999Z</time></trkpt><trkpt lat="45.25566556318992" lon="9.476723302896414"><ele>70.0</ele><time>2026-05-01T05:57:34.999Z</time></trkpt><trkpt lat="45.25543782307705" lon="9.477020161157174"><ele>70.0</ele><time>2026-05-01T05:57:35.999Z</time></trkpt><trkpt lat="45.25520999113778" lon="9.477313849052912"><ele>70.0</ele><time>2026-05-01T05:57:36.999Z</time></trkpt><trkpt lat="45.25497960005633" lon="9.477612376354159"><ele>70.0</ele><time>2026-05-01T05:57:37.999Z</time></trkpt><trkpt lat="45.25475010568667" lon="9.477910886292934"><ele>71.0</ele><time>2026-05-01T05:57:38.999Z</time></trkpt><trkpt lat="45.254521654674065" lon="9.478210464613804"><ele>72.0</ele><time>2026-05-01T05:57:39.999Z</time></trkpt><trkpt lat="45.25429474039681" lon="9.478516618932316"><ele>72.0</ele><time>2026-05-01T05:57:40.999Z</time></trkpt><trkpt lat="45.25406716560752" lon="9.478819692708509"><ele>72.0</ele><time>2026-05-01T05:57:41.999Z</time></trkpt><trkpt lat="45.253842768265656" lon="9.479124589765618"><ele>71.5</ele><time>2026-05-01T05:57:42.999Z</time></trkpt><trkpt lat="45.253614477304204" lon="9.479442687113316"><ele>71.0</ele><time>2026-05-01T05:57:43.999Z</time></trkpt><trkpt lat="45.25338730381277" lon="9.479751247453907"><ele>71.0</ele><time>2026-05-01T05:57:44.999Z</time></trkpt><trkpt lat="45.253159152946736" lon="9.480060568442658"><ele>71.0</ele><time>2026-05-01T05:57:45.999Z</time></trkpt><trkpt lat="45.25292871781343" lon="9.480366556429955"><ele>71.0</ele><time>2026-05-01T05:57:46.999Z</time></trkpt><trkpt lat="45.252696101601174" lon="9.480673736558407"><ele>71.0</ele><time>2026-05-01T05:57:47.999Z</time></trkpt><trkpt lat="45.252470687349124" lon="9.480975489949625"><ele>71.0</ele><time>2026-05-01T05:57:48.999Z</time></trkpt><trkpt lat="45.25224127319449" lon="9.481267078682546"><ele>71.0</ele><time>2026-05-01T05:57:49.999Z</time></trkpt><trkpt lat="45.25201602334784" lon="9.481561504542437"><ele>71.0</ele><time>2026-05-01T05:57:50.999Z</time></trkpt><trkpt lat="45.251789850276175" lon="9.48185687757336"><ele>71.0</ele><time>2026-05-01T05:57:51.999Z</time></trkpt><trkpt lat="45.251565392645354" lon="9.482146728126384"><ele>70.0</ele><time>2026-05-01T05:57:52.999Z</time></trkpt><trkpt lat="45.25133573793323" lon="9.482433512762338"><ele>69.0</ele><time>2026-05-01T05:57:53.999Z</time></trkpt><trkpt lat="45.25110608884125" lon="9.482714623038792"><ele>70.0</ele><time>2026-05-01T05:57:54.999Z</time></trkpt><trkpt lat="45.25088059550064" lon="9.482990925588304"><ele>71.0</ele><time>2026-05-01T05:57:55.999Z</time></trkpt><trkpt lat="45.250659448969074" lon="9.483278543855688"><ele>70.5</ele><time>2026-05-01T05:57:56.999Z</time></trkpt><trkpt lat="45.25044164913292" lon="9.483572404079192"><ele>70.0</ele><time>2026-05-01T05:57:57.999Z</time></trkpt><trkpt lat="45.250220993684636" lon="9.48386177581162"><ele>70.0</ele><time>2026-05-01T05:57:58.999Z</time></trkpt><trkpt lat="45.24999856268848" lon="9.484154639121764"><ele>70.0</ele><time>2026-05-01T05:57:59.999Z</time></trkpt><trkpt lat="45.24978034324655" lon="9.484444967361144"><ele>69.5</ele><time>2026-05-01T05:58:00.999Z</time></trkpt><trkpt lat="45.24956647734047" lon="9.484741326398886"><ele>69.0</ele><time>2026-05-01T05:58:01.999Z</time></trkpt><trkpt lat="45.24935855044369" lon="9.485039747698725"><ele>69.0</ele><time>2026-05-01T05:58:02.999Z</time></trkpt><trkpt lat="45.2491492149682" lon="9.485331519599336"><ele>69.0</ele><time>2026-05-01T05:58:03.999Z</time></trkpt><trkpt lat="45.248934207727906" lon="9.48562474700761"><ele>69.5</ele><time>2026-05-01T05:58:04.999Z</time></trkpt><trkpt lat="45.24871457195339" lon="9.485917149835108"><ele>70.0</ele><time>2026-05-01T05:58:05.999Z</time></trkpt><trkpt lat="45.248495060932534" lon="9.486203630507623"><ele>69.5</ele><time>2026-05-01T05:58:06.999Z</time></trkpt><trkpt lat="45.24828581781317" lon="9.486495754196143"><ele>69.0</ele><time>2026-05-01T05:58:08Z</time></trkpt><trkpt lat="45.248076719704386" lon="9.48678891425606"><ele>69.5</ele><time>2026-05-01T05:58:09Z</time></trkpt><trkpt lat="45.247861567372425" lon="9.48708544009598"><ele>70.0</ele><time>2026-05-01T05:58:10Z</time></trkpt><trkpt lat="45.24764354248995" lon="9.487376281404778"><ele>70.0</ele><time>2026-05-01T05:58:11Z</time></trkpt><trkpt lat="45.24741890801726" lon="9.487664456483838"><ele>70.0</ele><time>2026-05-01T05:58:12Z</time></trkpt><trkpt lat="45.24719645476157" lon="9.487956705610891"><ele>71.0</ele><time>2026-05-01T05:58:13Z</time></trkpt><trkpt lat="45.24697635439282" lon="9.488244096488414"><ele>72.0</ele><time>2026-05-01T05:58:14Z</time></trkpt><trkpt lat="45.24675454537503" lon="9.488533633075404"><ele>71.5</ele><time>2026-05-01T05:58:15Z</time></trkpt><trkpt lat="45.24653158005532" lon="9.488826593828055"><ele>71.0</ele><time>2026-05-01T05:58:16Z</time></trkpt><trkpt lat="45.2463064006988" lon="9.489119903526621"><ele>71.0</ele><time>2026-05-01T05:58:17Z</time></trkpt><trkpt lat="45.24608435739608" lon="9.489410750735894"><ele>71.0</ele><time>2026-05-01T05:58:18Z</time></trkpt><trkpt lat="45.2458589876997" lon="9.489701358954859"><ele>71.0</ele><time>2026-05-01T05:58:19Z</time></trkpt><trkpt lat="45.245628142248975" lon="9.48998945792545"><ele>71.0</ele><time>2026-05-01T05:58:20Z</time></trkpt><trkpt lat="45.24540034327948" lon="9.490279150066256"><ele>70.0</ele><time>2026-05-01T05:58:21Z</time></trkpt><trkpt lat="45.2451729095451" lon="9.490567889269084"><ele>69.0</ele><time>2026-05-01T05:58:22Z</time></trkpt><trkpt lat="45.24494918701484" lon="9.490857977283158"><ele>69.0</ele><time>2026-05-01T05:58:23Z</time></trkpt><trkpt lat="45.244728091256995" lon="9.491146370931279"><ele>69.0</ele><time>2026-05-01T05:58:24Z</time></trkpt><trkpt lat="45.24450388809089" lon="9.49143957425692"><ele>69.5</ele><time>2026-05-01T05:58:25Z</time></trkpt><trkpt lat="45.244282904214764" lon="9.49173361728043"><ele>70.0</ele><time>2026-05-01T05:58:26Z</time></trkpt><trkpt lat="45.244061173431845" lon="9.49202870661124"><ele>71.0</ele><time>2026-05-01T05:58:27Z</time></trkpt><trkpt lat="45.243844376936735" lon="9.492326645582505"><ele>72.0</ele><time>2026-05-01T05:58:28Z</time></trkpt><trkpt lat="45.2436258070641" lon="9.492620433841239"><ele>72.0</ele><time>2026-05-01T05:58:29Z</time></trkpt><trkpt lat="45.243405209137485" lon="9.492914101069424"><ele>72.0</ele><time>2026-05-01T05:58:30Z</time></trkpt><trkpt lat="45.24318485157362" lon="9.493208001817267"><ele>71.0</ele><time>2026-05-01T05:58:31Z</time></trkpt><trkpt lat="45.2429634354478" lon="9.493498618615039"><ele>70.0</ele><time>2026-05-01T05:58:32Z</time></trkpt><trkpt lat="45.24274116778206" lon="9.49379107528408"><ele>69.5</ele><time>2026-05-01T05:58:33Z</time></trkpt><trkpt lat="45.24252203258001" lon="9.49408188361307"><ele>69.0</ele><time>2026-05-01T05:58:34Z</time></trkpt><trkpt lat="45.24229958955101" lon="9.49437252153193"><ele>69.0</ele><time>2026-05-01T05:58:35Z</time></trkpt><trkpt lat="45.242076284751974" lon="9.494657075740308"><ele>69.0</ele><time>2026-05-01T05:58:36Z</time></trkpt><trkpt lat="45.24184565285159" lon="9.494935623823874"><ele>69.0</ele><time>2026-05-01T05:58:37Z</time></trkpt><trkpt lat="45.2416180876475" lon="9.49521577233605"><ele>69.0</ele><time>2026-05-01T05:58:38Z</time></trkpt><trkpt lat="45.24139382714473" lon="9.49550678455996"><ele>69.0</ele><time>2026-05-01T05:58:39Z</time></trkpt><trkpt lat="45.24117310555905" lon="9.495802985377782"><ele>69.0</ele><time>2026-05-01T05:58:40Z</time></trkpt><trkpt lat="45.24095218735509" lon="9.4960978458351"><ele>69.0</ele><time>2026-05-01T05:58:41Z</time></trkpt><trkpt lat="45.240731409642756" lon="9.49639095759018"><ele>69.0</ele><time>2026-05-01T05:58:42Z</time></trkpt><trkpt lat="45.240505876299" lon="9.49668604455086"><ele>69.0</ele><time>2026-05-01T05:58:43Z</time></trkpt><trkpt lat="45.24028274956415" lon="9.496976404992614"><ele>69.0</ele><time>2026-05-01T05:58:44Z</time></trkpt><trkpt lat="45.240059705458314" lon="9.497265091229677"><ele>69.0</ele><time>2026-05-01T05:58:45Z</time></trkpt><trkpt lat="45.239842778696556" lon="9.497549017160289"><ele>69.0</ele><time>2026-05-01T05:58:46Z</time></trkpt><trkpt lat="45.23962913325254" lon="9.497833646679988"><ele>69.5</ele><time>2026-05-01T05:58:47Z</time></trkpt><trkpt lat="45.23941848947116" lon="9.498115087253192"><ele>70.0</ele><time>2026-05-01T05:58:48Z</time></trkpt><trkpt lat="45.239206406781555" lon="9.498392715296774"><ele>70.0</ele><time>2026-05-01T05:58:49Z</time></trkpt><trkpt lat="45.23899223894192" lon="9.498668749849166"><ele>70.0</ele><time>2026-05-01T05:58:50Z</time></trkpt><trkpt lat="45.238782702296206" lon="9.498947232325246"><ele>70.0</ele><time>2026-05-01T05:58:51Z</time></trkpt><trkpt lat="45.23857379315148" lon="9.499226540239803"><ele>70.0</ele><time>2026-05-01T05:58:52Z</time></trkpt><trkpt lat="45.23836505556756" lon="9.499502549003031"><ele>70.5</ele><time>2026-05-01T05:58:53Z</time></trkpt><trkpt lat="45.23815477646532" lon="9.499779048109225"><ele>71.0</ele><time>2026-05-01T05:58:54Z</time></trkpt><trkpt lat="45.23794540226186" lon="9.500052370283974"><ele>70.5</ele><time>2026-05-01T05:58:55Z</time></trkpt><trkpt lat="45.237734306669076" lon="9.500324615232303"><ele>70.0</ele><time>2026-05-01T05:58:56Z</time></trkpt><trkpt lat="45.23751965774884" lon="9.500592793691252"><ele>69.5</ele><time>2026-05-01T05:58:57Z</time></trkpt><trkpt lat="45.237302249987586" lon="9.500858742079052"><ele>69.0</ele><time>2026-05-01T05:58:58Z</time></trkpt><trkpt lat="45.23708361541719" lon="9.50112540685085"><ele>70.0</ele><time>2026-05-01T05:58:59Z</time></trkpt><trkpt lat="45.23686526419861" lon="9.50139580192648"><ele>71.0</ele><time>2026-05-01T05:59:00Z</time></trkpt><trkpt lat="45.236649085729084" lon="9.50167209043391"><ele>71.0</ele><time>2026-05-01T05:59:01Z</time></trkpt><trkpt lat="45.23643380074951" lon="9.501951107060291"><ele>71.0</ele><time>2026-05-01T05:59:02Z</time></trkpt><trkpt lat="45.236217257017394" lon="9.502233752421658"><ele>71.0</ele><time>2026-05-01T05:59:03Z</time></trkpt><trkpt lat="45.23600051386932" lon="9.502519443639876"><ele>71.0</ele><time>2026-05-01T05:59:04Z</time></trkpt><trkpt lat="45.23578163350083" lon="9.5028098869382"><ele>70.0</ele><time>2026-05-01T05:59:05Z</time></trkpt><trkpt lat="45.23556272709905" lon="9.503101323503323"><ele>69.0</ele><time>2026-05-01T05:59:06Z</time></trkpt><trkpt lat="45.23534176070155" lon="9.503393458128313"><ele>69.0</ele><time>2026-05-01T05:59:07Z</time></trkpt><trkpt lat="45.23511843567612" lon="9.503688841743998"><ele>69.0</ele><time>2026-05-01T05:59:08Z</time></trkpt><trkpt lat="45.2348947727496" lon="9.50398114224811"><ele>68.5</ele><time>2026-05-01T05:59:09Z</time></trkpt><trkpt lat="45.234665811441715" lon="9.5042787162756"><ele>68.0</ele><time>2026-05-01T05:59:10Z</time></trkpt><trkpt lat="45.23444049848707" lon="9.504572705980218"><ele>68.0</ele><time>2026-05-01T05:59:11Z</time></trkpt><trkpt lat="45.234212431668766" lon="9.50487103705356"><ele>68.0</ele><time>2026-05-01T05:59:12Z</time></trkpt><trkpt lat="45.23398453777344" lon="9.505172058772992"><ele>68.0</ele><time>2026-05-01T05:59:13Z</time></trkpt><trkpt lat="45.23375656605328" lon="9.50547404576234"><ele>68.0</ele><time>2026-05-01T05:59:14Z</time></trkpt><trkpt lat="45.23353239082373" lon="9.505768248815931"><ele>68.0</ele><time>2026-05-01T05:59:14.999Z</time></trkpt><trkpt lat="45.233302625691806" lon="9.506066647076265"><ele>68.0</ele><time>2026-05-01T05:59:15.999Z</time></trkpt><trkpt lat="45.23307535107234" lon="9.506362538144668"><ele>68.0</ele><time>2026-05-01T05:59:16.999Z</time></trkpt><trkpt lat="45.232846938173545" lon="9.506664782848846"><ele>68.0</ele><time>2026-05-01T05:59:17.999Z</time></trkpt><trkpt lat="45.232622201898856" lon="9.506963959308324"><ele>68.0</ele><time>2026-05-01T05:59:18.999Z</time></trkpt><trkpt lat="45.23239769321015" lon="9.507263489577275"><ele>68.0</ele><time>2026-05-01T05:59:19.999Z</time></trkpt><trkpt lat="45.232168449799794" lon="9.507563884949539"><ele>68.0</ele><time>2026-05-01T05:59:20.999Z</time></trkpt><trkpt lat="45.23194528430213" lon="9.507859465241578"><ele>68.0</ele><time>2026-05-01T05:59:21.999Z</time></trkpt><trkpt lat="45.231718821288396" lon="9.508159102518876"><ele>67.5</ele><time>2026-05-01T05:59:22.999Z</time></trkpt><trkpt lat="45.23149380134183" lon="9.508457201067468"><ele>67.0</ele><time>2026-05-01T05:59:23.999Z</time></trkpt><trkpt lat="45.23126792712135" lon="9.508756593995507"><ele>67.0</ele><time>2026-05-01T05:59:24.999Z</time></trkpt><trkpt lat="45.23104316215139" lon="9.509053324656294"><ele>67.0</ele><time>2026-05-01T05:59:25.999Z</time></trkpt><trkpt lat="45.230820131483604" lon="9.509347327861072"><ele>67.5</ele><time>2026-05-01T05:59:26.999Z</time></trkpt><trkpt lat="45.23059884863491" lon="9.509639654587083"><ele>68.0</ele><time>2026-05-01T05:59:27.999Z</time></trkpt><trkpt lat="45.230376659587236" lon="9.509931522193236"><ele>68.0</ele><time>2026-05-01T05:59:28.999Z</time></trkpt><trkpt lat="45.230152440046496" lon="9.510222367201637"><ele>68.0</ele><time>2026-05-01T05:59:29.999Z</time></trkpt><trkpt lat="45.229928340520374" lon="9.510512118719301"><ele>67.0</ele><time>2026-05-01T05:59:30.999Z</time></trkpt><trkpt lat="45.2297061666885" lon="9.51080280258089"><ele>66.0</ele><time>2026-05-01T05:59:31.999Z</time></trkpt><trkpt lat="45.22948299476149" lon="9.511095912457986"><ele>67.0</ele><time>2026-05-01T05:59:32.999Z</time></trkpt><trkpt lat="45.22926235895722" lon="9.511386696172874"><ele>68.0</ele><time>2026-05-01T05:59:33.999Z</time></trkpt><trkpt lat="45.229039327715995" lon="9.511678381825666"><ele>68.0</ele><time>2026-05-01T05:59:34.999Z</time></trkpt><trkpt lat="45.22881786924989" lon="9.511968680954537"><ele>68.0</ele><time>2026-05-01T05:59:35.999Z</time></trkpt><trkpt lat="45.22859627649415" lon="9.512261520154611"><ele>68.5</ele><time>2026-05-01T05:59:36.999Z</time></trkpt><trkpt lat="45.228375460539574" lon="9.512555656792527"><ele>69.0</ele><time>2026-05-01T05:59:37.999Z</time></trkpt><trkpt lat="45.22815133829897" lon="9.51284708777808"><ele>67.5</ele><time>2026-05-01T05:59:38.999Z</time></trkpt><trkpt lat="45.22793064266173" lon="9.51314103290117"><ele>66.0</ele><time>2026-05-01T05:59:39.999Z</time></trkpt><trkpt lat="45.227710824981784" lon="9.513434126108416"><ele>66.0</ele><time>2026-05-01T05:59:40.999Z</time></trkpt><trkpt lat="45.22749083204209" lon="9.51372648134367"><ele>66.0</ele><time>2026-05-01T05:59:41.999Z</time></trkpt><trkpt lat="45.227269820687034" lon="9.514019649016584"><ele>66.0</ele><time>2026-05-01T05:59:42.999Z</time></trkpt><trkpt lat="45.22704955414224" lon="9.514307174040562"><ele>66.0</ele><time>2026-05-01T05:59:43.999Z</time></trkpt><trkpt lat="45.22683036946171" lon="9.514596035992554"><ele>66.0</ele><time>2026-05-01T05:59:44.999Z</time></trkpt><trkpt lat="45.22660844437688" lon="9.514884753737187"><ele>66.0</ele><time>2026-05-01T05:59:45.999Z</time></trkpt><trkpt lat="45.2263856978548" lon="9.51517476811511"><ele>66.5</ele><time>2026-05-01T05:59:46.999Z</time></trkpt><trkpt lat="45.226160859289116" lon="9.515473590391316"><ele>67.0</ele><time>2026-05-01T05:59:47.999Z</time></trkpt><trkpt lat="45.225936367545685" lon="9.515767191583341"><ele>67.0</ele><time>2026-05-01T05:59:48.999Z</time></trkpt><trkpt lat="45.22570543240768" lon="9.51606586049286"><ele>67.0</ele><time>2026-05-01T05:59:49.999Z</time></trkpt><trkpt lat="45.22547732617238" lon="9.516364015907033"><ele>66.5</ele><time>2026-05-01T05:59:50.999Z</time></trkpt><trkpt lat="45.22525228601424" lon="9.5166651493601"><ele>66.0</ele><time>2026-05-01T05:59:51.999Z</time></trkpt><trkpt lat="45.22502431227809" lon="9.516962033793364"><ele>65.5</ele><time>2026-05-01T05:59:52.999Z</time></trkpt><trkpt lat="45.22479516366131" lon="9.517266357877647"><ele>65.0</ele><time>2026-05-01T05:59:53.999Z</time></trkpt><trkpt lat="45.2245688432594" lon="9.517560699543147"><ele>65.0</ele><time>2026-05-01T05:59:54.999Z</time></trkpt><trkpt lat="45.22433846424309" lon="9.517866488526524"><ele>65.0</ele><time>2026-05-01T05:59:55.999Z</time></trkpt><trkpt lat="45.22410622783362" lon="9.518168473751617"><ele>66.0</ele><time>2026-05-01T05:59:56.999Z</time></trkpt><trkpt lat="45.223875679667984" lon="9.518463827341852"><ele>67.0</ele><time>2026-05-01T05:59:57.999Z</time></trkpt><trkpt lat="45.223644411460555" lon="9.518764679932248"><ele>67.0</ele><time>2026-05-01T05:59:58.999Z</time></trkpt><trkpt lat="45.22341578337407" lon="9.519069200905202"><ele>67.0</ele><time>2026-05-01T05:59:59.999Z</time></trkpt><trkpt lat="45.223181622260356" lon="9.519374002760282"><ele>66.0</ele><time>2026-05-01T06:00:00.999Z</time></trkpt><trkpt lat="45.22295155080486" lon="9.519681726576126"><ele>65.0</ele><time>2026-05-01T06:00:01.999Z</time></trkpt><trkpt lat="45.22271917206507" lon="9.519989975622225"><ele>65.0</ele><time>2026-05-01T06:00:02.999Z</time></trkpt><trkpt lat="45.222485409084165" lon="9.520292703387451"><ele>65.0</ele><time>2026-05-01T06:00:03.999Z</time></trkpt><trkpt lat="45.22225271657782" lon="9.52059586270716"><ele>66.0</ele><time>2026-05-01T06:00:04.999Z</time></trkpt><trkpt lat="45.222020647565394" lon="9.520902653137297"><ele>67.0</ele><time>2026-05-01T06:00:05.999Z</time></trkpt><trkpt lat="45.22179088075733" lon="9.52121111639479"><ele>67.0</ele><time>2026-05-01T06:00:06.999Z</time></trkpt><trkpt lat="45.22156345596557" lon="9.521513224205256"><ele>67.0</ele><time>2026-05-01T06:00:07.999Z</time></trkpt><trkpt lat="45.22134014968404" lon="9.521810000292263"><ele>66.5</ele><time>2026-05-01T06:00:08.999Z</time></trkpt><trkpt lat="45.22112286216955" lon="9.52209437886399"><ele>66.0</ele><time>2026-05-01T06:00:09.999Z</time></trkpt><trkpt lat="45.22090792115792" lon="9.522380150982176"><ele>66.0</ele><time>2026-05-01T06:00:10.999Z</time></trkpt><trkpt lat="45.2206948654899" lon="9.522666102815153"><ele>66.0</ele><time>2026-05-01T06:00:11.999Z</time></trkpt><trkpt lat="45.22048521435777" lon="9.522945935874617"><ele>66.0</ele><time>2026-05-01T06:00:12.999Z</time></trkpt><trkpt lat="45.22027595697257" lon="9.52322518549879"><ele>66.0</ele><time>2026-05-01T06:00:14Z</time></trkpt><trkpt lat="45.22006977922684" lon="9.52350457883317"><ele>65.5</ele><time>2026-05-01T06:00:15Z</time></trkpt><trkpt lat="45.21986415657382" lon="9.52378220553411"><ele>65.0</ele><time>2026-05-01T06:00:16Z</time></trkpt><trkpt lat="45.21966051004028" lon="9.524058564457047"><ele>65.0</ele><time>2026-05-01T06:00:17Z</time></trkpt><trkpt lat="45.21945819311417" lon="9.524334327798723"><ele>65.0</ele><time>2026-05-01T06:00:18Z</time></trkpt><trkpt lat="45.21925467642376" lon="9.52461010472057"><ele>65.0</ele><time>2026-05-01T06:00:19Z</time></trkpt><trkpt lat="45.21904898370508" lon="9.524885317846145"><ele>65.0</ele><time>2026-05-01T06:00:20Z</time></trkpt><trkpt lat="45.218841886332974" lon="9.52516261626561"><ele>65.5</ele><time>2026-05-01T06:00:21Z</time></trkpt><trkpt lat="45.21863372825445" lon="9.525446281006266"><ele>66.0</ele><time>2026-05-01T06:00:22Z</time></trkpt><trkpt lat="45.218426439167466" lon="9.52573103744065"><ele>66.0</ele><time>2026-05-01T06:00:23Z</time></trkpt><trkpt lat="45.21821914359947" lon="9.526016393986335"><ele>66.0</ele><time>2026-05-01T06:00:24Z</time></trkpt><trkpt lat="45.21800802277298" lon="9.526301256475223"><ele>65.5</ele><time>2026-05-01T06:00:25Z</time></trkpt><trkpt lat="45.21779523906608" lon="9.526584592252247"><ele>65.0</ele><time>2026-05-01T06:00:26Z</time></trkpt><trkpt lat="45.217579920228296" lon="9.526868449736217"><ele>65.0</ele><time>2026-05-01T06:00:27Z</time></trkpt><trkpt lat="45.21736268773672" lon="9.527152449926582"><ele>65.0</ele><time>2026-05-01T06:00:28Z</time></trkpt><trkpt lat="45.21714446789136" lon="9.527434849141823"><ele>65.0</ele><time>2026-05-01T06:00:29Z</time></trkpt><trkpt lat="45.21692758662857" lon="9.527718966792003"><ele>65.0</ele><time>2026-05-01T06:00:30Z</time></trkpt><trkpt lat="45.21671005474106" lon="9.528001485849284"><ele>65.0</ele><time>2026-05-01T06:00:31Z</time></trkpt><trkpt lat="45.21649244065775" lon="9.528285984869276"><ele>65.0</ele><time>2026-05-01T06:00:32Z</time></trkpt><trkpt lat="45.21627458992521" lon="9.528573682514835"><ele>66.5</ele><time>2026-05-01T06:00:33Z</time></trkpt><trkpt lat="45.21605431523034" lon="9.528863964982882"><ele>68.0</ele><time>2026-05-01T06:00:34Z</time></trkpt><trkpt lat="45.215832808578185" lon="9.529153343550195"><ele>66.5</ele><time>2026-05-01T06:00:35Z</time></trkpt><trkpt lat="45.21561098095803" lon="9.52944643997478"><ele>65.0</ele><time>2026-05-01T06:00:36Z</time></trkpt><trkpt lat="45.21538829852974" lon="9.529740384406685"><ele>64.5</ele><time>2026-05-01T06:00:37Z</time></trkpt><trkpt lat="45.21516773799024" lon="9.530034822313464"><ele>64.0</ele><time>2026-05-01T06:00:38Z</time></trkpt><trkpt lat="45.214947775017855" lon="9.530328145232623"><ele>64.5</ele><time>2026-05-01T06:00:39Z</time></trkpt><trkpt lat="45.21472465693459" lon="9.530621847842713"><ele>65.0</ele><time>2026-05-01T06:00:40Z</time></trkpt><trkpt lat="45.21449836171795" lon="9.530918510831924"><ele>65.0</ele><time>2026-05-01T06:00:41Z</time></trkpt><trkpt lat="45.21427129401521" lon="9.531213429303643"><ele>65.0</ele><time>2026-05-01T06:00:42Z</time></trkpt><trkpt lat="45.21404597961768" lon="9.531499908254307"><ele>65.0</ele><time>2026-05-01T06:00:43Z</time></trkpt><trkpt lat="45.21382160394791" lon="9.531783220419099"><ele>65.0</ele><time>2026-05-01T06:00:44Z</time></trkpt><trkpt lat="45.2135962738752" lon="9.532064207825991"><ele>64.5</ele><time>2026-05-01T06:00:45Z</time></trkpt><trkpt lat="45.21337218013438" lon="9.532345886099694"><ele>64.0</ele><time>2026-05-01T06:00:46Z</time></trkpt><trkpt lat="45.21315024260059" lon="9.532625638686689"><ele>64.5</ele><time>2026-05-01T06:00:47Z</time></trkpt><trkpt lat="45.212929924282776" lon="9.532905034640565"><ele>65.0</ele><time>2026-05-01T06:00:48Z</time></trkpt><trkpt lat="45.212710531065305" lon="9.533181083140267"><ele>65.0</ele><time>2026-05-01T06:00:49Z</time></trkpt><trkpt lat="45.212492809080985" lon="9.533458795041048"><ele>65.0</ele><time>2026-05-01T06:00:50Z</time></trkpt><trkpt lat="45.21227626417099" lon="9.533738864385725"><ele>65.0</ele><time>2026-05-01T06:00:51Z</time></trkpt><trkpt lat="45.212059482635986" lon="9.534019448047516"><ele>65.0</ele><time>2026-05-01T06:00:52Z</time></trkpt><trkpt lat="45.21184297596641" lon="9.534300234704402"><ele>65.0</ele><time>2026-05-01T06:00:53Z</time></trkpt><trkpt lat="45.211625659860694" lon="9.534579702504116"><ele>65.0</ele><time>2026-05-01T06:00:54Z</time></trkpt><trkpt lat="45.211408249742696" lon="9.534859880433574"><ele>65.5</ele><time>2026-05-01T06:00:55Z</time></trkpt><trkpt lat="45.21119216361672" lon="9.53514164431368"><ele>66.0</ele><time>2026-05-01T06:00:56Z</time></trkpt><trkpt lat="45.21097748454883" lon="9.535425496306095"><ele>65.0</ele><time>2026-05-01T06:00:57Z</time></trkpt><trkpt lat="45.210763195180895" lon="9.535710006073398"><ele>64.0</ele><time>2026-05-01T06:00:58Z</time></trkpt><trkpt lat="45.2105499994396" lon="9.53599354110525"><ele>64.0</ele><time>2026-05-01T06:00:59Z</time></trkpt><trkpt lat="45.2103352735442" lon="9.53627620629901"><ele>64.0</ele><time>2026-05-01T06:01:00Z</time></trkpt><trkpt lat="45.21011952595027" lon="9.536558783959613"><ele>64.0</ele><time>2026-05-01T06:01:01Z</time></trkpt><trkpt lat="45.20990311720353" lon="9.536841970103106"><ele>64.0</ele><time>2026-05-01T06:01:02Z</time></trkpt><trkpt lat="45.20968667484695" lon="9.53712583444549"><ele>64.5</ele><time>2026-05-01T06:01:03Z</time></trkpt><trkpt lat="45.20946823585977" lon="9.53741104433303"><ele>65.0</ele><time>2026-05-01T06:01:04Z</time></trkpt><trkpt lat="45.20925022117261" lon="9.537696771570094"><ele>65.0</ele><time>2026-05-01T06:01:05Z</time></trkpt><trkpt lat="45.20903194817333" lon="9.53798423334906"><ele>65.0</ele><time>2026-05-01T06:01:06Z</time></trkpt><trkpt lat="45.20881384492362" lon="9.538274093217234"><ele>64.5</ele><time>2026-05-01T06:01:07Z</time></trkpt><trkpt lat="45.20859639115352" lon="9.53856454949457"><ele>64.0</ele><time>2026-05-01T06:01:08Z</time></trkpt><trkpt lat="45.20837660028996" lon="9.538856517526364"><ele>63.5</ele><time>2026-05-01T06:01:09Z</time></trkpt><trkpt lat="45.20815614286841" lon="9.53914601764211"><ele>63.0</ele><time>2026-05-01T06:01:10Z</time></trkpt><trkpt lat="45.20793158664493" lon="9.539435313288413"><ele>64.0</ele><time>2026-05-01T06:01:11Z</time></trkpt><trkpt lat="45.207709290924925" lon="9.539725723536026"><ele>65.0</ele><time>2026-05-01T06:01:12Z</time></trkpt><trkpt lat="45.20748736727517" lon="9.54001869166685"><ele>64.0</ele><time>2026-05-01T06:01:13Z</time></trkpt><trkpt lat="45.20726477330866" lon="9.540314827845858"><ele>63.0</ele><time>2026-05-01T06:01:14Z</time></trkpt><trkpt lat="45.20704187366336" lon="9.540614310567877"><ele>63.0</ele><time>2026-05-01T06:01:15Z</time></trkpt><trkpt lat="45.20682105102333" lon="9.54091528144495"><ele>63.0</ele><time>2026-05-01T06:01:16Z</time></trkpt><trkpt lat="45.20659865637704" lon="9.541214187955578"><ele>64.0</ele><time>2026-05-01T06:01:17Z</time></trkpt><trkpt lat="45.206365009887136" lon="9.541515402866843"><ele>65.0</ele><time>2026-05-01T06:01:18Z</time></trkpt><trkpt lat="45.20612242986578" lon="9.541818010060782"><ele>65.0</ele><time>2026-05-01T06:01:19Z</time></trkpt><trkpt lat="45.20593641952185" lon="9.542099345667692"><ele>65.0</ele><time>2026-05-01T06:01:19.999Z</time></trkpt><trkpt lat="45.205718089281" lon="9.542395712521602"><ele>65.0</ele><time>2026-05-01T06:01:20.999Z</time></trkpt><trkpt lat="45.20549341697579" lon="9.542692455134373"><ele>65.0</ele><time>2026-05-01T06:01:21.999Z</time></trkpt><trkpt lat="45.20527038667479" lon="9.54297328957171"><ele>64.0</ele><time>2026-05-01T06:01:22.999Z</time></trkpt><trkpt lat="45.205046320289505" lon="9.543267968054959"><ele>63.0</ele><time>2026-05-01T06:01:23.999Z</time></trkpt><trkpt lat="45.20482212814825" lon="9.543566910946028"><ele>62.5</ele><time>2026-05-01T06:01:24.999Z</time></trkpt><trkpt lat="45.2045997152575" lon="9.543855214224228"><ele>62.0</ele><time>2026-05-01T06:01:25.999Z</time></trkpt><trkpt lat="45.20437473055476" lon="9.54414412617331"><ele>62.0</ele><time>2026-05-01T06:01:26.999Z</time></trkpt><trkpt lat="45.2041442724512" lon="9.544423842231431"><ele>62.0</ele><time>2026-05-01T06:01:27.999Z</time></trkpt><trkpt lat="45.203915208956914" lon="9.54470078194631"><ele>62.5</ele><time>2026-05-01T06:01:28.999Z</time></trkpt><trkpt lat="45.203692374241356" lon="9.544989359701534"><ele>63.0</ele><time>2026-05-01T06:01:29.999Z</time></trkpt><trkpt lat="45.20346550895666" lon="9.54527705073153"><ele>63.5</ele><time>2026-05-01T06:01:30.999Z</time></trkpt><trkpt lat="45.20325027629368" lon="9.545563130937094"><ele>64.0</ele><time>2026-05-01T06:01:31.999Z</time></trkpt><trkpt lat="45.203035538313586" lon="9.545852454254955"><ele>64.0</ele><time>2026-05-01T06:01:32.999Z</time></trkpt><trkpt lat="45.202822248342414" lon="9.546140163059215"><ele>64.0</ele><time>2026-05-01T06:01:33.999Z</time></trkpt><trkpt lat="45.20260865279852" lon="9.54642099305903"><ele>64.0</ele><time>2026-05-01T06:01:34.999Z</time></trkpt><trkpt lat="45.20240349504007" lon="9.546705098220873"><ele>64.0</ele><time>2026-05-01T06:01:35.999Z</time></trkpt><trkpt lat="45.20219011505952" lon="9.546978631637183"><ele>63.0</ele><time>2026-05-01T06:01:36.999Z</time></trkpt><trkpt lat="45.20198099854903" lon="9.54725071134835"><ele>62.0</ele><time>2026-05-01T06:01:37.999Z</time></trkpt><trkpt lat="45.20177176794435" lon="9.547529727631478"><ele>62.0</ele><time>2026-05-01T06:01:38.999Z</time></trkpt><trkpt lat="45.20156006448448" lon="9.54780347531626"><ele>62.0</ele><time>2026-05-01T06:01:39.999Z</time></trkpt><trkpt lat="45.20135102829723" lon="9.548077725731849"><ele>62.5</ele><time>2026-05-01T06:01:40.999Z</time></trkpt><trkpt lat="45.201139687305265" lon="9.548351912352315"><ele>63.0</ele><time>2026-05-01T06:01:41.999Z</time></trkpt><trkpt lat="45.20093110474182" lon="9.54862796461679"><ele>63.0</ele><time>2026-05-01T06:01:42.999Z</time></trkpt><trkpt lat="45.20072017708335" lon="9.548902728767978"><ele>63.0</ele><time>2026-05-01T06:01:43.999Z</time></trkpt><trkpt lat="45.20050517517995" lon="9.549182809074688"><ele>62.5</ele><time>2026-05-01T06:01:44.999Z</time></trkpt><trkpt lat="45.20029336404123" lon="9.54946020775995"><ele>62.0</ele><time>2026-05-01T06:01:45.999Z</time></trkpt><trkpt lat="45.200077536595714" lon="9.549739191895569"><ele>62.0</ele><time>2026-05-01T06:01:46.999Z</time></trkpt><trkpt lat="45.19986814059522" lon="9.550018314348174"><ele>62.0</ele><time>2026-05-01T06:01:47.999Z</time></trkpt><trkpt lat="45.19965863298656" lon="9.550300232094607"><ele>62.0</ele><time>2026-05-01T06:01:48.999Z</time></trkpt><trkpt lat="45.19944447614526" lon="9.550579313320057"><ele>62.0</ele><time>2026-05-01T06:01:49.999Z</time></trkpt><trkpt lat="45.19922988720584" lon="9.550860836884208"><ele>62.0</ele><time>2026-05-01T06:01:50.999Z</time></trkpt><trkpt lat="45.19901967916668" lon="9.551137408146824"><ele>62.0</ele><time>2026-05-01T06:01:51.999Z</time></trkpt><trkpt lat="45.198808186143346" lon="9.551413710178755"><ele>63.5</ele><time>2026-05-01T06:01:52.999Z</time></trkpt><trkpt lat="45.19859569463857" lon="9.551694035739251"><ele>65.0</ele><time>2026-05-01T06:01:53.999Z</time></trkpt><trkpt lat="45.198384135865474" lon="9.5519715480596"><ele>65.0</ele><time>2026-05-01T06:01:54.999Z</time></trkpt><trkpt lat="45.19817169285772" lon="9.552248816519764"><ele>65.0</ele><time>2026-05-01T06:01:55.999Z</time></trkpt><trkpt lat="45.197961713519334" lon="9.552528044401313"><ele>63.5</ele><time>2026-05-01T06:01:56.999Z</time></trkpt><trkpt lat="45.197747248693716" lon="9.552813000817217"><ele>62.0</ele><time>2026-05-01T06:01:57.999Z</time></trkpt><trkpt lat="45.197529384266254" lon="9.553092216678289"><ele>62.0</ele><time>2026-05-01T06:01:58.999Z</time></trkpt><trkpt lat="45.19731222636841" lon="9.553374746788151"><ele>62.0</ele><time>2026-05-01T06:01:59.999Z</time></trkpt><trkpt lat="45.197100694258694" lon="9.55366158888597"><ele>62.5</ele><time>2026-05-01T06:02:00.999Z</time></trkpt><trkpt lat="45.196886527232316" lon="9.553946945405253"><ele>63.0</ele><time>2026-05-01T06:02:01.999Z</time></trkpt><trkpt lat="45.19666917763794" lon="9.554230089482447"><ele>63.0</ele><time>2026-05-01T06:02:02.999Z</time></trkpt><trkpt lat="45.1964526968798" lon="9.55451398075319"><ele>63.0</ele><time>2026-05-01T06:02:03.999Z</time></trkpt><trkpt lat="45.196236213493826" lon="9.554796431028239"><ele>63.0</ele><time>2026-05-01T06:02:04.999Z</time></trkpt><trkpt lat="45.1960200132318" lon="9.555081124659305"><ele>63.0</ele><time>2026-05-01T06:02:05.999Z</time></trkpt><trkpt lat="45.19580335053873" lon="9.555367719167146"><ele>62.0</ele><time>2026-05-01T06:02:06.999Z</time></trkpt><trkpt lat="45.19558571700287" lon="9.55564868894458"><ele>61.0</ele><time>2026-05-01T06:02:07.999Z</time></trkpt><trkpt lat="45.19536808273746" lon="9.555930850229709"><ele>61.5</ele><time>2026-05-01T06:02:08.999Z</time></trkpt><trkpt lat="45.19515932093899" lon="9.556215475340396"><ele>62.0</ele><time>2026-05-01T06:02:09.999Z</time></trkpt><trkpt lat="45.194942896383196" lon="9.55649711850868"><ele>62.5</ele><time>2026-05-01T06:02:10.999Z</time></trkpt><trkpt lat="45.19472504352393" lon="9.5567820880615"><ele>63.0</ele><time>2026-05-01T06:02:11.999Z</time></trkpt><trkpt lat="45.194516266695715" lon="9.557067939854775"><ele>63.0</ele><time>2026-05-01T06:02:12.999Z</time></trkpt><trkpt lat="45.19430562711264" lon="9.557352436495869"><ele>63.0</ele><time>2026-05-01T06:02:13.999Z</time></trkpt><trkpt lat="45.19409225886899" lon="9.55764227695664"><ele>63.0</ele><time>2026-05-01T06:02:14.999Z</time></trkpt><trkpt lat="45.19387843831687" lon="9.55792918141156"><ele>63.0</ele><time>2026-05-01T06:02:15.999Z</time></trkpt><trkpt lat="45.193671657077864" lon="9.558218748234747"><ele>63.0</ele><time>2026-05-01T06:02:16.999Z</time></trkpt><trkpt lat="45.193460981236804" lon="9.558509156972942"><ele>63.0</ele><time>2026-05-01T06:02:17.999Z</time></trkpt><trkpt lat="45.193250218853976" lon="9.558796177748695"><ele>62.5</ele><time>2026-05-01T06:02:18.999Z</time></trkpt><trkpt lat="45.193042501363905" lon="9.5590898855891"><ele>62.0</ele><time>2026-05-01T06:02:20Z</time></trkpt><trkpt lat="45.192831908894895" lon="9.559384512226645"><ele>61.0</ele><time>2026-05-01T06:02:21Z</time></trkpt><trkpt lat="45.192623763533454" lon="9.559677067533553"><ele>60.0</ele><time>2026-05-01T06:02:22Z</time></trkpt><trkpt lat="45.19241425542911" lon="9.55997497133353"><ele>60.5</ele><time>2026-05-01T06:02:23Z</time></trkpt><trkpt lat="45.192207446209075" lon="9.560271254395706"><ele>61.0</ele><time>2026-05-01T06:02:24Z</time></trkpt><trkpt lat="45.19199768430762" lon="9.560568089654305"><ele>61.0</ele><time>2026-05-01T06:02:25Z</time></trkpt><trkpt lat="45.19179389017516" lon="9.560870391251214"><ele>61.0</ele><time>2026-05-01T06:02:26Z</time></trkpt><trkpt lat="45.191591307140484" lon="9.561173764262914"><ele>62.0</ele><time>2026-05-01T06:02:27Z</time></trkpt><trkpt lat="45.191387078252504" lon="9.561473866274689"><ele>63.0</ele><time>2026-05-01T06:02:28Z</time></trkpt><trkpt lat="45.19118443635209" lon="9.56177734022084"><ele>62.5</ele><time>2026-05-01T06:02:29Z</time></trkpt><trkpt lat="45.19098492140628" lon="9.562076255994931"><ele>62.0</ele><time>2026-05-01T06:02:30Z</time></trkpt><trkpt lat="45.19078077147894" lon="9.562379408497259"><ele>62.0</ele><time>2026-05-01T06:02:31Z</time></trkpt><trkpt lat="45.190576873250194" lon="9.56268659756868"><ele>62.0</ele><time>2026-05-01T06:02:32Z</time></trkpt><trkpt lat="45.19037738948034" lon="9.562993210890529"><ele>62.0</ele><time>2026-05-01T06:02:33Z</time></trkpt><trkpt lat="45.19018013477175" lon="9.56329769999716"><ele>62.0</ele><time>2026-05-01T06:02:34Z</time></trkpt><trkpt lat="45.18997926939116" lon="9.56360805012654"><ele>62.0</ele><time>2026-05-01T06:02:35Z</time></trkpt><trkpt lat="45.18978487190464" lon="9.563922591853123"><ele>62.0</ele><time>2026-05-01T06:02:36Z</time></trkpt><trkpt lat="45.18958632618309" lon="9.564234217705383"><ele>62.0</ele><time>2026-05-01T06:02:37Z</time></trkpt><trkpt lat="45.18938910267913" lon="9.564550795637304"><ele>62.0</ele><time>2026-05-01T06:02:38Z</time></trkpt><trkpt lat="45.189201316560414" lon="9.564857304496257"><ele>62.0</ele><time>2026-05-01T06:02:39Z</time></trkpt><trkpt lat="45.18901946140657" lon="9.565155116386341"><ele>62.0</ele><time>2026-05-01T06:02:40Z</time></trkpt><trkpt lat="45.18884547558526" lon="9.565435175894358"><ele>63.0</ele><time>2026-05-01T06:02:41Z</time></trkpt><trkpt lat="45.188680064355815" lon="9.565710553174688"><ele>64.0</ele><time>2026-05-01T06:02:42Z</time></trkpt><trkpt lat="45.18851274721604" lon="9.565994218339766"><ele>63.5</ele><time>2026-05-01T06:02:43Z</time></trkpt><trkpt lat="45.18834160333544" lon="9.566286494887532"><ele>63.0</ele><time>2026-05-01T06:02:44Z</time></trkpt><trkpt lat="45.188160169684345" lon="9.566580907698997"><ele>62.5</ele><time>2026-05-01T06:02:45Z</time></trkpt><trkpt lat="45.1879726990735" lon="9.566871514615789"><ele>62.0</ele><time>2026-05-01T06:02:46Z</time></trkpt><trkpt lat="45.187771909861986" lon="9.567160702309804"><ele>62.0</ele><time>2026-05-01T06:02:47Z</time></trkpt><trkpt lat="45.18756969031616" lon="9.567451788153258"><ele>62.0</ele><time>2026-05-01T06:02:48Z</time></trkpt><trkpt lat="45.18737364943979" lon="9.567753359868709"><ele>62.5</ele><time>2026-05-01T06:02:49Z</time></trkpt><trkpt lat="45.18717981595545" lon="9.568058745354833"><ele>63.0</ele><time>2026-05-01T06:02:50Z</time></trkpt><trkpt lat="45.186986620662786" lon="9.568364951717854"><ele>63.0</ele><time>2026-05-01T06:02:51Z</time></trkpt><trkpt lat="45.186792232523516" lon="9.56866818974434"><ele>63.0</ele><time>2026-05-01T06:02:52Z</time></trkpt><trkpt lat="45.18659713405369" lon="9.568972950408899"><ele>63.0</ele><time>2026-05-01T06:02:53Z</time></trkpt><trkpt lat="45.1864008175601" lon="9.569280389917832"><ele>63.0</ele><time>2026-05-01T06:02:54Z</time></trkpt><trkpt lat="45.18620509245211" lon="9.569587407120828"><ele>63.0</ele><time>2026-05-01T06:02:55Z</time></trkpt><trkpt lat="45.1860103128685" lon="9.569895897430525"><ele>63.0</ele><time>2026-05-01T06:02:56Z</time></trkpt><trkpt lat="45.185813951906" lon="9.570203977046857"><ele>62.5</ele><time>2026-05-01T06:02:57Z</time></trkpt><trkpt lat="45.18561895483248" lon="9.57051099573167"><ele>62.0</ele><time>2026-05-01T06:02:58Z</time></trkpt><trkpt lat="45.1854240450196" lon="9.570814751668387"><ele>62.0</ele><time>2026-05-01T06:02:59Z</time></trkpt><trkpt lat="45.18522774311738" lon="9.571118108628438"><ele>62.0</ele><time>2026-05-01T06:03:00Z</time></trkpt><trkpt lat="45.185030185780725" lon="9.57141948473142"><ele>62.0</ele><time>2026-05-01T06:03:01Z</time></trkpt><trkpt lat="45.184834386953675" lon="9.571721141181424"><ele>62.0</ele><time>2026-05-01T06:03:02Z</time></trkpt><trkpt lat="45.1846406665128" lon="9.572024764379279"><ele>62.0</ele><time>2026-05-01T06:03:03Z</time></trkpt><trkpt lat="45.18444942112883" lon="9.57232853954411"><ele>62.0</ele><time>2026-05-01T06:03:04Z</time></trkpt><trkpt lat="45.18425678167302" lon="9.572627654248318"><ele>62.0</ele><time>2026-05-01T06:03:05Z</time></trkpt><trkpt lat="45.18406544843341" lon="9.572923290100695"><ele>62.0</ele><time>2026-05-01T06:03:06Z</time></trkpt><trkpt lat="45.183870715089846" lon="9.573219002297916"><ele>62.0</ele><time>2026-05-01T06:03:07Z</time></trkpt><trkpt lat="45.18367405524788" lon="9.573513689981546"><ele>62.0</ele><time>2026-05-01T06:03:08Z</time></trkpt><trkpt lat="45.18347943861743" lon="9.573807980720376"><ele>62.0</ele><time>2026-05-01T06:03:09Z</time></trkpt><trkpt lat="45.18328479151682" lon="9.574106040589855"><ele>62.0</ele><time>2026-05-01T06:03:10Z</time></trkpt><trkpt lat="45.18309004018611" lon="9.57440778853925"><ele>62.0</ele><time>2026-05-01T06:03:11Z</time></trkpt><trkpt lat="45.182892813686934" lon="9.574715240913067"><ele>62.0</ele><time>2026-05-01T06:03:12Z</time></trkpt><trkpt lat="45.18269610691279" lon="9.575019820441167"><ele>62.0</ele><time>2026-05-01T06:03:13Z</time></trkpt><trkpt lat="45.182498465495115" lon="9.575325384733237"><ele>62.0</ele><time>2026-05-01T06:03:14Z</time></trkpt><trkpt lat="45.1823006839469" lon="9.575631399950545"><ele>62.0</ele><time>2026-05-01T06:03:15Z</time></trkpt><trkpt lat="45.18210362292091" lon="9.575934678445863"><ele>62.0</ele><time>2026-05-01T06:03:16Z</time></trkpt><trkpt lat="45.18190606684273" lon="9.576245495947582"><ele>62.5</ele><time>2026-05-01T06:03:16.999Z</time></trkpt><trkpt lat="45.181709469695825" lon="9.57656049065514"><ele>63.0</ele><time>2026-05-01T06:03:17.999Z</time></trkpt><trkpt lat="45.18151228221498" lon="9.576872900620813"><ele>63.0</ele><time>2026-05-01T06:03:18.999Z</time></trkpt><trkpt lat="45.18131122492158" lon="9.577185856452008"><ele>63.0</ele><time>2026-05-01T06:03:19.999Z</time></trkpt><trkpt lat="45.18111065340023" lon="9.577498858104866"><ele>63.0</ele><time>2026-05-01T06:03:20.999Z</time></trkpt><trkpt lat="45.18090962081172" lon="9.57781182898929"><ele>63.0</ele><time>2026-05-01T06:03:21.999Z</time></trkpt><trkpt lat="45.18070729858444" lon="9.578127105514662"><ele>62.0</ele><time>2026-05-01T06:03:22.999Z</time></trkpt><trkpt lat="45.180505520176105" lon="9.578444635151797"><ele>61.0</ele><time>2026-05-01T06:03:23.999Z</time></trkpt><trkpt lat="45.1803029789361" lon="9.578757771032103"><ele>63.0</ele><time>2026-05-01T06:03:24.999Z</time></trkpt><trkpt lat="45.180100125817354" lon="9.5790732673273"><ele>65.0</ele><time>2026-05-01T06:03:25.999Z</time></trkpt><trkpt lat="45.179897538323" lon="9.579392446059115"><ele>64.0</ele><time>2026-05-01T06:03:26.999Z</time></trkpt><trkpt lat="45.17969767472356" lon="9.579709542151564"><ele>63.0</ele><time>2026-05-01T06:03:27.999Z</time></trkpt><trkpt lat="45.17949377611032" lon="9.580028992296981"><ele>63.0</ele><time>2026-05-01T06:03:28.999Z</time></trkpt><trkpt lat="45.179289121734705" lon="9.580348474078116"><ele>63.0</ele><time>2026-05-01T06:03:29.999Z</time></trkpt><trkpt lat="45.17908852945887" lon="9.580667654659827"><ele>63.0</ele><time>2026-05-01T06:03:30.999Z</time></trkpt><trkpt lat="45.17888486109429" lon="9.580982374003785"><ele>63.0</ele><time>2026-05-01T06:03:31.999Z</time></trkpt><trkpt lat="45.178679597007495" lon="9.581296254785602"><ele>63.0</ele><time>2026-05-01T06:03:32.999Z</time></trkpt><trkpt lat="45.178475978627795" lon="9.581610674142041"><ele>63.0</ele><time>2026-05-01T06:03:33.999Z</time></trkpt><trkpt lat="45.17827458497907" lon="9.58192981281088"><ele>64.5</ele><time>2026-05-01T06:03:34.999Z</time></trkpt><trkpt lat="45.17807117134511" lon="9.582244198246162"><ele>66.0</ele><time>2026-05-01T06:03:35.999Z</time></trkpt><trkpt lat="45.1778669128888" lon="9.582565896514255"><ele>66.0</ele><time>2026-05-01T06:03:36.999Z</time></trkpt><trkpt lat="45.17766545659543" lon="9.582883665502168"><ele>66.0</ele><time>2026-05-01T06:03:37.999Z</time></trkpt><trkpt lat="45.177459859963726" lon="9.583196655919421"><ele>65.0</ele><time>2026-05-01T06:03:38.999Z</time></trkpt><trkpt lat="45.1772555619104" lon="9.583520940295408"><ele>64.0</ele><time>2026-05-01T06:03:39.999Z</time></trkpt><trkpt lat="45.17705607347633" lon="9.583840800726335"><ele>63.5</ele><time>2026-05-01T06:03:40.999Z</time></trkpt><trkpt lat="45.176851483674106" lon="9.584161475416561"><ele>63.0</ele><time>2026-05-01T06:03:41.999Z</time></trkpt><trkpt lat="45.17665220839149" lon="9.5844817250217"><ele>63.5</ele><time>2026-05-01T06:03:42.999Z</time></trkpt><trkpt lat="45.17645255442114" lon="9.584799347771842"><ele>64.0</ele><time>2026-05-01T06:03:43.999Z</time></trkpt><trkpt lat="45.17624573711575" lon="9.585120198058911"><ele>64.0</ele><time>2026-05-01T06:03:44.999Z</time></trkpt><trkpt lat="45.17604320406648" lon="9.585437273992325"><ele>64.0</ele><time>2026-05-01T06:03:45.999Z</time></trkpt><trkpt lat="45.17583870411331" lon="9.585755777571157"><ele>64.0</ele><time>2026-05-01T06:03:46.999Z</time></trkpt><trkpt lat="45.17563191819596" lon="9.58607853893199"><ele>64.0</ele><time>2026-05-01T06:03:47.999Z</time></trkpt><trkpt lat="45.17541966338104" lon="9.586405665433286"><ele>64.0</ele><time>2026-05-01T06:03:48.999Z</time></trkpt><trkpt lat="45.17521954692182" lon="9.586725121171337"><ele>64.0</ele><time>2026-05-01T06:03:49.999Z</time></trkpt><trkpt lat="45.175010741206485" lon="9.587048683206747"><ele>64.0</ele><time>2026-05-01T06:03:50.999Z</time></trkpt><trkpt lat="45.17480552252755" lon="9.587368059941904"><ele>64.0</ele><time>2026-05-01T06:03:51.999Z</time></trkpt><trkpt lat="45.174598191045945" lon="9.587686999621521"><ele>63.0</ele><time>2026-05-01T06:03:52.999Z</time></trkpt><trkpt lat="45.174391666564034" lon="9.588007958722681"><ele>62.0</ele><time>2026-05-01T06:03:53.999Z</time></trkpt><trkpt lat="45.1741861867015" lon="9.588329100054676"><ele>62.5</ele><time>2026-05-01T06:03:54.999Z</time></trkpt><trkpt lat="45.17398384977913" lon="9.58865079939624"><ele>63.0</ele><time>2026-05-01T06:03:55.999Z</time></trkpt><trkpt lat="45.1737783857251" lon="9.588979775334035"><ele>63.5</ele><time>2026-05-01T06:03:56.999Z</time></trkpt><trkpt lat="45.17357448165946" lon="9.589305684473798"><ele>64.0</ele><time>2026-05-01T06:03:57.999Z</time></trkpt><trkpt lat="45.17337407644831" lon="9.58962159843261"><ele>65.0</ele><time>2026-05-01T06:03:58.999Z</time></trkpt><trkpt lat="45.173176729431496" lon="9.589936168883394"><ele>66.0</ele><time>2026-05-01T06:03:59.999Z</time></trkpt><trkpt lat="45.17298296342435" lon="9.590250518510665"><ele>65.5</ele><time>2026-05-01T06:04:00.999Z</time></trkpt><trkpt lat="45.17278875278599" lon="9.590563266470788"><ele>65.0</ele><time>2026-05-01T06:04:01.999Z</time></trkpt><trkpt lat="45.172593158480176" lon="9.59087385181012"><ele>64.5</ele><time>2026-05-01T06:04:02.999Z</time></trkpt><trkpt lat="45.17239451360461" lon="9.591178625281888"><ele>64.0</ele><time>2026-05-01T06:04:03.999Z</time></trkpt><trkpt lat="45.17219174308338" lon="9.591477335576682"><ele>64.0</ele><time>2026-05-01T06:04:04.999Z</time></trkpt><trkpt lat="45.1719896559866" lon="9.591773735118304"><ele>64.0</ele><time>2026-05-01T06:04:05.999Z</time></trkpt><trkpt lat="45.171790291933405" lon="9.592074084124837"><ele>63.5</ele><time>2026-05-01T06:04:06.999Z</time></trkpt><trkpt lat="45.17159382553925" lon="9.592382547576204"><ele>63.0</ele><time>2026-05-01T06:04:07.999Z</time></trkpt><trkpt lat="45.17139933612076" lon="9.59269169588582"><ele>64.5</ele><time>2026-05-01T06:04:08.999Z</time></trkpt><trkpt lat="45.1712048264109" lon="9.593000836410466"><ele>66.0</ele><time>2026-05-01T06:04:09.999Z</time></trkpt><trkpt lat="45.17101072062364" lon="9.593306949124234"><ele>66.0</ele><time>2026-05-01T06:04:10.999Z</time></trkpt><trkpt lat="45.170817220025064" lon="9.593612701255093"><ele>66.0</ele><time>2026-05-01T06:04:11.999Z</time></trkpt><trkpt lat="45.170624236237586" lon="9.593919474182977"><ele>66.5</ele><time>2026-05-01T06:04:12.999Z</time></trkpt><trkpt lat="45.17043219597957" lon="9.594223436092484"><ele>67.0</ele><time>2026-05-01T06:04:13.999Z</time></trkpt><trkpt lat="45.170241557839766" lon="9.594528445429162"><ele>67.0</ele><time>2026-05-01T06:04:14.999Z</time></trkpt><trkpt lat="45.170050011818184" lon="9.59483173865337"><ele>67.0</ele><time>2026-05-01T06:04:15.999Z</time></trkpt><trkpt lat="45.16985754556119" lon="9.595132495868294"><ele>65.0</ele><time>2026-05-01T06:04:16.999Z</time></trkpt><trkpt lat="45.169665335383065" lon="9.595437774691526"><ele>63.0</ele><time>2026-05-01T06:04:17.999Z</time></trkpt><trkpt lat="45.16947283074064" lon="9.595745639100366"><ele>63.0</ele><time>2026-05-01T06:04:18.999Z</time></trkpt><trkpt lat="45.169280692157365" lon="9.596055380741605"><ele>63.0</ele><time>2026-05-01T06:04:19.999Z</time></trkpt><trkpt lat="45.16908775465788" lon="9.596363188050603"><ele>62.5</ele><time>2026-05-01T06:04:20.999Z</time></trkpt><trkpt lat="45.168893590424375" lon="9.596668574661841"><ele>62.0</ele><time>2026-05-01T06:04:21.999Z</time></trkpt><trkpt lat="45.168697501297764" lon="9.596973782220607"><ele>61.5</ele><time>2026-05-01T06:04:22.999Z</time></trkpt><trkpt lat="45.16850028652551" lon="9.597279479861298"><ele>61.0</ele><time>2026-05-01T06:04:23.999Z</time></trkpt><trkpt lat="45.16830234292468" lon="9.597589423165596"><ele>60.5</ele><time>2026-05-01T06:04:24.999Z</time></trkpt><trkpt lat="45.16810530968937" lon="9.597901851346657"><ele>60.0</ele><time>2026-05-01T06:04:26Z</time></trkpt><trkpt lat="45.167908051563" lon="9.598210362518735"><ele>60.0</ele><time>2026-05-01T06:04:27Z</time></trkpt><trkpt lat="45.16771228232254" lon="9.598517682775263"><ele>60.0</ele><time>2026-05-01T06:04:28Z</time></trkpt><trkpt lat="45.16751757254608" lon="9.598823394914207"><ele>60.5</ele><time>2026-05-01T06:04:29Z</time></trkpt><trkpt lat="45.167321539920614" lon="9.5991269906752"><ele>61.0</ele><time>2026-05-01T06:04:30Z</time></trkpt><trkpt lat="45.16712537974166" lon="9.59942798144086"><ele>61.5</ele><time>2026-05-01T06:04:31Z</time></trkpt><trkpt lat="45.16692634588953" lon="9.599731233409976"><ele>62.0</ele><time>2026-05-01T06:04:32Z</time></trkpt><trkpt lat="45.16672526792002" lon="9.6000326744024"><ele>62.0</ele><time>2026-05-01T06:04:33Z</time></trkpt><trkpt lat="45.16652116715131" lon="9.600331744662126"><ele>62.0</ele><time>2026-05-01T06:04:34Z</time></trkpt><trkpt lat="45.16631628898286" lon="9.600629039839376"><ele>62.0</ele><time>2026-05-01T06:04:35Z</time></trkpt><trkpt lat="45.16610979056664" lon="9.600926037074316"><ele>62.0</ele><time>2026-05-01T06:04:36Z</time></trkpt><trkpt lat="45.16590213054469" lon="9.6012210563838"><ele>61.5</ele><time>2026-05-01T06:04:37Z</time></trkpt><trkpt lat="45.16569609379533" lon="9.60151883710729"><ele>61.0</ele><time>2026-05-01T06:04:38Z</time></trkpt><trkpt lat="45.16548869363317" lon="9.601817344525344"><ele>60.5</ele><time>2026-05-01T06:04:39Z</time></trkpt><trkpt lat="45.16528250990745" lon="9.602110897596361"><ele>60.0</ele><time>2026-05-01T06:04:40Z</time></trkpt><trkpt lat="45.165075762877485" lon="9.602403409795713"><ele>60.0</ele><time>2026-05-01T06:04:41Z</time></trkpt><trkpt lat="45.16486677461655" lon="9.602696200093547"><ele>60.0</ele><time>2026-05-01T06:04:42Z</time></trkpt><trkpt lat="45.164657134921995" lon="9.602989624850057"><ele>60.5</ele><time>2026-05-01T06:04:43Z</time></trkpt><trkpt lat="45.164449119489085" lon="9.603280520622018"><ele>61.0</ele><time>2026-05-01T06:04:44Z</time></trkpt><trkpt lat="45.164242124252375" lon="9.60357156970949"><ele>61.0</ele><time>2026-05-01T06:04:45Z</time></trkpt><trkpt lat="45.164036071705645" lon="9.603860480411702"><ele>61.0</ele><time>2026-05-01T06:04:46Z</time></trkpt><trkpt lat="45.16383186664025" lon="9.604144914125255"><ele>63.0</ele><time>2026-05-01T06:04:47Z</time></trkpt><trkpt lat="45.16362700604032" lon="9.60443112527333"><ele>65.0</ele><time>2026-05-01T06:04:48Z</time></trkpt><trkpt lat="45.163421113672335" lon="9.604716108964613"><ele>65.0</ele><time>2026-05-01T06:04:49Z</time></trkpt><trkpt lat="45.163216326969405" lon="9.604999020331572"><ele>65.0</ele><time>2026-05-01T06:04:50Z</time></trkpt><trkpt lat="45.16301233916593" lon="9.605280616933333"><ele>63.0</ele><time>2026-05-01T06:04:51Z</time></trkpt><trkpt lat="45.16280603091937" lon="9.605564978742878"><ele>61.0</ele><time>2026-05-01T06:04:52Z</time></trkpt><trkpt lat="45.16260044924459" lon="9.60585070386775"><ele>61.0</ele><time>2026-05-01T06:04:53Z</time></trkpt><trkpt lat="45.1623974124987" lon="9.606139654072136"><ele>61.0</ele><time>2026-05-01T06:04:54Z</time></trkpt><trkpt lat="45.162194712834754" lon="9.606432021207661"><ele>61.5</ele><time>2026-05-01T06:04:55Z</time></trkpt><trkpt lat="45.16199842623131" lon="9.606724323767331"><ele>62.0</ele><time>2026-05-01T06:04:56Z</time></trkpt><trkpt lat="45.16180480568968" lon="9.607016535169562"><ele>62.0</ele><time>2026-05-01T06:04:57Z</time></trkpt><trkpt lat="45.161615059903" lon="9.607308959286712"><ele>62.0</ele><time>2026-05-01T06:04:58Z</time></trkpt><trkpt lat="45.16142343248936" lon="9.607606400156"><ele>62.0</ele><time>2026-05-01T06:04:59Z</time></trkpt><trkpt lat="45.16122715910235" lon="9.607900888489473"><ele>62.0</ele><time>2026-05-01T06:05:00Z</time></trkpt><trkpt lat="45.16102584786437" lon="9.608193847217136"><ele>62.0</ele><time>2026-05-01T06:05:01Z</time></trkpt><trkpt lat="45.16082166708448" lon="9.608483708896419"><ele>62.0</ele><time>2026-05-01T06:05:02Z</time></trkpt><trkpt lat="45.16061417195631" lon="9.60877541791668"><ele>62.0</ele><time>2026-05-01T06:05:03Z</time></trkpt><trkpt lat="45.16040455954772" lon="9.609068281197041"><ele>62.0</ele><time>2026-05-01T06:05:04Z</time></trkpt><trkpt lat="45.16019422041838" lon="9.609358348179429"><ele>61.5</ele><time>2026-05-01T06:05:05Z</time></trkpt><trkpt lat="45.159983233798805" lon="9.609649684160903"><ele>61.0</ele><time>2026-05-01T06:05:06Z</time></trkpt><trkpt lat="45.159771932143656" lon="9.609943195784552"><ele>61.0</ele><time>2026-05-01T06:05:07Z</time></trkpt><trkpt lat="45.15956366283289" lon="9.610237765566952"><ele>61.0</ele><time>2026-05-01T06:05:08Z</time></trkpt><trkpt lat="45.15935654708016" lon="9.610531851014292"><ele>61.0</ele><time>2026-05-01T06:05:09Z</time></trkpt><trkpt lat="45.1591477367398" lon="9.610827476972313"><ele>61.0</ele><time>2026-05-01T06:05:10Z</time></trkpt><trkpt lat="45.15893760103705" lon="9.61111844969925"><ele>60.5</ele><time>2026-05-01T06:05:11Z</time></trkpt><trkpt lat="45.15872582036917" lon="9.611412419871055"><ele>60.0</ele><time>2026-05-01T06:05:12Z</time></trkpt><trkpt lat="45.1585133920095" lon="9.611707512568492"><ele>60.0</ele><time>2026-05-01T06:05:12.999Z</time></trkpt><trkpt lat="45.158299748859086" lon="9.612005092263319"><ele>60.0</ele><time>2026-05-01T06:05:13.999Z</time></trkpt><trkpt lat="45.15808632455429" lon="9.612302523890422"><ele>60.0</ele><time>2026-05-01T06:05:14.999Z</time></trkpt><trkpt lat="45.15787243162494" lon="9.612598833081798"><ele>60.0</ele><time>2026-05-01T06:05:15.999Z</time></trkpt><trkpt lat="45.15766005385839" lon="9.612894695736143"><ele>60.0</ele><time>2026-05-01T06:05:16.999Z</time></trkpt><trkpt lat="45.15744829940834" lon="9.613192341948158"><ele>60.0</ele><time>2026-05-01T06:05:17.999Z</time></trkpt><trkpt lat="45.15723549093247" lon="9.613488932136113"><ele>59.5</ele><time>2026-05-01T06:05:18.999Z</time></trkpt><trkpt lat="45.1570229777406" lon="9.613782151787678"><ele>59.0</ele><time>2026-05-01T06:05:19.999Z</time></trkpt><trkpt lat="45.156811557393866" lon="9.61407403189144"><ele>59.0</ele><time>2026-05-01T06:05:20.999Z</time></trkpt><trkpt lat="45.156601285502106" lon="9.61436485592402"><ele>59.0</ele><time>2026-05-01T06:05:21.999Z</time></trkpt><trkpt lat="45.156392141014166" lon="9.614655108363953"><ele>60.0</ele><time>2026-05-01T06:05:22.999Z</time></trkpt><trkpt lat="45.156185065445825" lon="9.614944241021128"><ele>61.0</ele><time>2026-05-01T06:05:23.999Z</time></trkpt><trkpt lat="45.15598003810156" lon="9.615234834058853"><ele>60.5</ele><time>2026-05-01T06:05:24.999Z</time></trkpt><trkpt lat="45.155774708950524" lon="9.615524585437578"><ele>60.0</ele><time>2026-05-01T06:05:25.999Z</time></trkpt><trkpt lat="45.155571078145705" lon="9.615810889569982"><ele>59.5</ele><time>2026-05-01T06:05:26.999Z</time></trkpt><trkpt lat="45.15536820896535" lon="9.616096974288315"><ele>59.0</ele><time>2026-05-01T06:05:27.999Z</time></trkpt><trkpt lat="45.15516428544449" lon="9.616381369878093"><ele>59.0</ele><time>2026-05-01T06:05:28.999Z</time></trkpt><trkpt lat="45.15495827930484" lon="9.616666045655666"><ele>59.0</ele><time>2026-05-01T06:05:29.999Z</time></trkpt><trkpt lat="45.154753863782126" lon="9.616949225500887"><ele>59.0</ele><time>2026-05-01T06:05:30.999Z</time></trkpt><trkpt lat="45.1545502656848" lon="9.617232418782356"><ele>59.0</ele><time>2026-05-01T06:05:31.999Z</time></trkpt><trkpt lat="45.15434717470189" lon="9.617516585103802"><ele>59.0</ele><time>2026-05-01T06:05:32.999Z</time></trkpt><trkpt lat="45.15414357651875" lon="9.617801647577295"><ele>59.0</ele><time>2026-05-01T06:05:33.999Z</time></trkpt><trkpt lat="45.153938937549505" lon="9.6180863009482"><ele>59.5</ele><time>2026-05-01T06:05:34.999Z</time></trkpt><trkpt lat="45.15373512002492" lon="9.618373356316967"><ele>60.0</ele><time>2026-05-01T06:05:35.999Z</time></trkpt><trkpt lat="45.15353183649014" lon="9.61866242732878"><ele>60.0</ele><time>2026-05-01T06:05:36.999Z</time></trkpt><trkpt lat="45.15332716760569" lon="9.61895290427402"><ele>60.0</ele><time>2026-05-01T06:05:37.999Z</time></trkpt><trkpt lat="45.15312075525135" lon="9.619242892723172"><ele>60.0</ele><time>2026-05-01T06:05:38.999Z</time></trkpt><trkpt lat="45.152910692498665" lon="9.619536264167515"><ele>60.0</ele><time>2026-05-01T06:05:39.999Z</time></trkpt><trkpt lat="45.15269752243189" lon="9.619829846692234"><ele>60.0</ele><time>2026-05-01T06:05:40.999Z</time></trkpt><trkpt lat="45.152485573946976" lon="9.620123146055496"><ele>60.0</ele><time>2026-05-01T06:05:41.999Z</time></trkpt><trkpt lat="45.15227392166164" lon="9.620420667111057"><ele>60.0</ele><time>2026-05-01T06:05:42.999Z</time></trkpt><trkpt lat="45.15206041596179" lon="9.620719586908107"><ele>60.0</ele><time>2026-05-01T06:05:43.999Z</time></trkpt><trkpt lat="45.15184652264161" lon="9.621020098742854"><ele>59.5</ele><time>2026-05-01T06:05:44.999Z</time></trkpt><trkpt lat="45.151632850111824" lon="9.621318691623454"><ele>59.0</ele><time>2026-05-01T06:05:45.999Z</time></trkpt><trkpt lat="45.15141793856967" lon="9.621616329827713"><ele>59.0</ele><time>2026-05-01T06:05:46.999Z</time></trkpt><trkpt lat="45.151202184011545" lon="9.621913835848376"><ele>59.0</ele><time>2026-05-01T06:05:47.999Z</time></trkpt><trkpt lat="45.15098811168421" lon="9.622210411084923"><ele>59.0</ele><time>2026-05-01T06:05:48.999Z</time></trkpt><trkpt lat="45.150775052130285" lon="9.622507617032278"><ele>59.0</ele><time>2026-05-01T06:05:49.999Z</time></trkpt><trkpt lat="45.15056291480645" lon="9.622804656413981"><ele>59.0</ele><time>2026-05-01T06:05:50.999Z</time></trkpt><trkpt lat="45.15034810513072" lon="9.62309789890533"><ele>59.0</ele><time>2026-05-01T06:05:51.999Z</time></trkpt><trkpt lat="45.15013322782935" lon="9.623388224700314"><ele>59.0</ele><time>2026-05-01T06:05:52.999Z</time></trkpt><trkpt lat="45.14991978082262" lon="9.62367875052765"><ele>59.0</ele><time>2026-05-01T06:05:53.999Z</time></trkpt><trkpt lat="45.14970588471065" lon="9.623970730388239"><ele>59.0</ele><time>2026-05-01T06:05:54.999Z</time></trkpt><trkpt lat="45.14949227162303" lon="9.624265847407438"><ele>59.0</ele><time>2026-05-01T06:05:55.999Z</time></trkpt><trkpt lat="45.14927783436127" lon="9.624561192836415"><ele>59.0</ele><time>2026-05-01T06:05:56.999Z</time></trkpt><trkpt lat="45.14906478054693" lon="9.624854616350701"><ele>59.0</ele><time>2026-05-01T06:05:57.999Z</time></trkpt><trkpt lat="45.14885030739732" lon="9.62515145186926"><ele>60.0</ele><time>2026-05-01T06:05:58.999Z</time></trkpt><trkpt lat="45.14863672619055" lon="9.62544668795606"><ele>61.0</ele><time>2026-05-01T06:05:59.999Z</time></trkpt><trkpt lat="45.148420921767624" lon="9.625744865574946"><ele>59.5</ele><time>2026-05-01T06:06:00.999Z</time></trkpt><trkpt lat="45.14820569121767" lon="9.626041019648376"><ele>58.0</ele><time>2026-05-01T06:06:01.999Z</time></trkpt><trkpt lat="45.147993277200314" lon="9.626340093891422"><ele>58.0</ele><time>2026-05-01T06:06:02.999Z</time></trkpt><trkpt lat="45.14778180925621" lon="9.626642876079657"><ele>58.0</ele><time>2026-05-01T06:06:03.999Z</time></trkpt><trkpt lat="45.14756821653672" lon="9.626943426212414"><ele>57.0</ele><time>2026-05-01T06:06:04.999Z</time></trkpt><trkpt lat="45.14735392381114" lon="9.627242271688875"><ele>56.0</ele><time>2026-05-01T06:06:05.999Z</time></trkpt><trkpt lat="45.14713900798917" lon="9.627540279955488"><ele>56.0</ele><time>2026-05-01T06:06:06.999Z</time></trkpt><trkpt lat="45.1469224089437" lon="9.627838721138275"><ele>56.0</ele><time>2026-05-01T06:06:07.999Z</time></trkpt><trkpt lat="45.14670661445245" lon="9.628138290751089"><ele>56.0</ele><time>2026-05-01T06:06:08.999Z</time></trkpt><trkpt lat="45.14649034863123" lon="9.628443050985858"><ele>56.0</ele><time>2026-05-01T06:06:09.999Z</time></trkpt><trkpt lat="45.1462742425587" lon="9.628744182013772"><ele>56.5</ele><time>2026-05-01T06:06:10.999Z</time></trkpt><trkpt lat="45.146058237878115" lon="9.629044919763846"><ele>57.0</ele><time>2026-05-01T06:06:11.999Z</time></trkpt><trkpt lat="45.145843375736256" lon="9.629344799938696"><ele>56.5</ele><time>2026-05-01T06:06:12.999Z</time></trkpt><trkpt lat="45.14564100287655" lon="9.62965139255901"><ele>56.0</ele><time>2026-05-01T06:06:13.999Z</time></trkpt><trkpt lat="45.145424401096236" lon="9.629957405695219"><ele>56.0</ele><time>2026-05-01T06:06:14.999Z</time></trkpt><trkpt lat="45.14521001482985" lon="9.630263317631107"><ele>56.0</ele><time>2026-05-01T06:06:15.999Z</time></trkpt><trkpt lat="45.14499096550835" lon="9.630569375161794"><ele>56.0</ele><time>2026-05-01T06:06:16.999Z</time></trkpt><trkpt lat="45.14476869893971" lon="9.63087979178591"><ele>56.0</ele><time>2026-05-01T06:06:17.999Z</time></trkpt><trkpt lat="45.14454809568576" lon="9.631195912448332"><ele>56.0</ele><time>2026-05-01T06:06:18.999Z</time></trkpt><trkpt lat="45.1443228687833" lon="9.631506393087392"><ele>56.0</ele><time>2026-05-01T06:06:19.999Z</time></trkpt><trkpt lat="45.14409446792786" lon="9.631810387764762"><ele>56.5</ele><time>2026-05-01T06:06:20.999Z</time></trkpt><trkpt lat="45.143864516786856" lon="9.632119586230742"><ele>57.0</ele><time>2026-05-01T06:06:21.999Z</time></trkpt><trkpt lat="45.14363768591642" lon="9.632427954942244"><ele>57.0</ele><time>2026-05-01T06:06:22.999Z</time></trkpt><trkpt lat="45.1434120052254" lon="9.63273823182279"><ele>57.0</ele><time>2026-05-01T06:06:23.999Z</time></trkpt><trkpt lat="45.14319296142465" lon="9.633050806245269"><ele>56.5</ele><time>2026-05-01T06:06:24.999Z</time></trkpt><trkpt lat="45.14296923095371" lon="9.63336636226308"><ele>56.0</ele><time>2026-05-01T06:06:25.999Z</time></trkpt><trkpt lat="45.14275058081741" lon="9.63368186539049"><ele>55.5</ele><time>2026-05-01T06:06:26.999Z</time></trkpt><trkpt lat="45.142526710414096" lon="9.633999379032304"><ele>55.0</ele><time>2026-05-01T06:06:27.999Z</time></trkpt><trkpt lat="45.14229750923253" lon="9.634311819837693"><ele>53.0</ele><time>2026-05-01T06:06:28.999Z</time></trkpt><trkpt lat="45.142076984603314" lon="9.634620374087916"><ele>51.0</ele><time>2026-05-01T06:06:29.999Z</time></trkpt><trkpt lat="45.141860618165545" lon="9.634938983768203"><ele>51.0</ele><time>2026-05-01T06:06:30.999Z</time></trkpt><trkpt lat="45.14163481887938" lon="9.635249777313899"><ele>51.0</ele><time>2026-05-01T06:06:32Z</time></trkpt><trkpt lat="45.14141539709425" lon="9.635573945364419"><ele>50.0</ele><time>2026-05-01T06:06:33Z</time></trkpt><trkpt lat="45.14120211792734" lon="9.635900184776398"><ele>49.0</ele><time>2026-05-01T06:06:34Z</time></trkpt><trkpt lat="45.140999748790776" lon="9.6362359513814"><ele>49.0</ele><time>2026-05-01T06:06:35Z</time></trkpt><trkpt lat="45.14080553928524" lon="9.636583438348069"><ele>49.0</ele><time>2026-05-01T06:06:36Z</time></trkpt><trkpt lat="45.140625884652756" lon="9.636916037590982"><ele>48.5</ele><time>2026-05-01T06:06:37Z</time></trkpt><trkpt lat="45.14043648706672" lon="9.637255955880379"><ele>48.0</ele><time>2026-05-01T06:06:38Z</time></trkpt><trkpt lat="45.140254110795425" lon="9.637601715113604"><ele>48.5</ele><time>2026-05-01T06:06:39Z</time></trkpt><trkpt lat="45.14007942151922" lon="9.637948189807531"><ele>49.0</ele><time>2026-05-01T06:06:40Z</time></trkpt><trkpt lat="45.139906390186475" lon="9.638296585255803"><ele>48.5</ele><time>2026-05-01T06:06:41Z</time></trkpt><trkpt lat="45.13973097939158" lon="9.638637911757735"><ele>48.0</ele><time>2026-05-01T06:06:42Z</time></trkpt><trkpt lat="45.139556136462026" lon="9.638981181204661"><ele>48.0</ele><time>2026-05-01T06:06:43Z</time></trkpt><trkpt lat="45.13938059649095" lon="9.639321662745964"><ele>48.0</ele><time>2026-05-01T06:06:44Z</time></trkpt><trkpt lat="45.139206360680426" lon="9.639658571631072"><ele>48.0</ele><time>2026-05-01T06:06:45Z</time></trkpt><trkpt lat="45.13903272600555" lon="9.639994214605192"><ele>48.0</ele><time>2026-05-01T06:06:46Z</time></trkpt><trkpt lat="45.13886359559572" lon="9.640333109173149"><ele>48.5</ele><time>2026-05-01T06:06:47Z</time></trkpt><trkpt lat="45.13869823400249" lon="9.640678098534197"><ele>49.0</ele><time>2026-05-01T06:06:48Z</time></trkpt><trkpt lat="45.138529064625445" lon="9.64101385233435"><ele>49.5</ele><time>2026-05-01T06:06:49Z</time></trkpt><trkpt lat="45.138355365876464" lon="9.64134763379346"><ele>50.0</ele><time>2026-05-01T06:06:50Z</time></trkpt><trkpt lat="45.13817839464827" lon="9.641677285376701"><ele>50.5</ele><time>2026-05-01T06:06:51Z</time></trkpt><trkpt lat="45.13799989304366" lon="9.642000839077474"><ele>51.0</ele><time>2026-05-01T06:06:52Z</time></trkpt><trkpt lat="45.13782161902518" lon="9.64232782546081"><ele>51.0</ele><time>2026-05-01T06:06:53Z</time></trkpt><trkpt lat="45.13764701009989" lon="9.642654615131077"><ele>51.0</ele><time>2026-05-01T06:06:54Z</time></trkpt><trkpt lat="45.13747339167244" lon="9.642988832713794"><ele>50.0</ele><time>2026-05-01T06:06:55Z</time></trkpt><trkpt lat="45.137298781925885" lon="9.643317079820457"><ele>49.0</ele><time>2026-05-01T06:06:56Z</time></trkpt><trkpt lat="45.137122887152316" lon="9.643647239336147"><ele>48.5</ele><time>2026-05-01T06:06:57Z</time></trkpt><trkpt lat="45.13694645716291" lon="9.64397867385099"><ele>48.0</ele><time>2026-05-01T06:06:58Z</time></trkpt><trkpt lat="45.136772641996544" lon="9.644309845648229"><ele>48.0</ele><time>2026-05-01T06:06:59Z</time></trkpt><trkpt lat="45.136600033983996" lon="9.644644109654926"><ele>48.0</ele><time>2026-05-01T06:07:00Z</time></trkpt><trkpt lat="45.13642719012025" lon="9.644980624879615"><ele>47.0</ele><time>2026-05-01T06:07:01Z</time></trkpt><trkpt lat="45.13625416442755" lon="9.645313691342723"><ele>46.0</ele><time>2026-05-01T06:07:02Z</time></trkpt><trkpt lat="45.13608140982544" lon="9.645647247072526"><ele>46.0</ele><time>2026-05-01T06:07:03Z</time></trkpt><trkpt lat="45.135911076798216" lon="9.645979198598438"><ele>46.0</ele><time>2026-05-01T06:07:04Z</time></trkpt><trkpt lat="45.13574219072257" lon="9.646312735241553"><ele>47.0</ele><time>2026-05-01T06:07:05Z</time></trkpt><trkpt lat="45.13557391226655" lon="9.646642240017286"><ele>48.0</ele><time>2026-05-01T06:07:06Z</time></trkpt><trkpt lat="45.13540655910394" lon="9.646965661279555"><ele>48.0</ele><time>2026-05-01T06:07:07Z</time></trkpt><trkpt lat="45.13524173459347" lon="9.647288134222357"><ele>48.0</ele><time>2026-05-01T06:07:08Z</time></trkpt><trkpt lat="45.13507692815447" lon="9.647612278837771"><ele>47.5</ele><time>2026-05-01T06:07:09Z</time></trkpt><trkpt lat="45.134911211184104" lon="9.647935238725031"><ele>47.0</ele><time>2026-05-01T06:07:09.999Z</time></trkpt><trkpt lat="45.13474893885801" lon="9.648245340645829"><ele>47.0</ele><time>2026-05-01T06:07:10.999Z</time></trkpt><trkpt lat="45.13459354531736" lon="9.64854513047913"><ele>47.0</ele><time>2026-05-01T06:07:11.999Z</time></trkpt><trkpt lat="45.13445058862199" lon="9.648824038795963"><ele>47.0</ele><time>2026-05-01T06:07:12.999Z</time></trkpt><trkpt lat="45.13431637285792" lon="9.64908856721526"><ele>47.0</ele><time>2026-05-01T06:07:13.999Z</time></trkpt><trkpt lat="45.13418785944592" lon="9.649340395994335"><ele>47.0</ele><time>2026-05-01T06:07:14.999Z</time></trkpt><trkpt lat="45.13406661345325" lon="9.64957707349654"><ele>47.0</ele><time>2026-05-01T06:07:15.999Z</time></trkpt><trkpt lat="45.133948551514024" lon="9.649808716566556"><ele>47.0</ele><time>2026-05-01T06:07:16.999Z</time></trkpt><trkpt lat="45.13382943729824" lon="9.650045018917563"><ele>47.0</ele><time>2026-05-01T06:07:17.999Z</time></trkpt><trkpt lat="45.1337073689825" lon="9.650287500484472"><ele>46.666666666666664</ele><time>2026-05-01T06:07:18.999Z</time></trkpt><trkpt lat="45.13358242002111" lon="9.650532596234576"><ele>46.333333333333336</ele><time>2026-05-01T06:07:19.999Z</time></trkpt><trkpt lat="45.13345465381798" lon="9.650784080951384"><ele>46.0</ele><time>2026-05-01T06:07:20.999Z</time></trkpt><trkpt lat="45.133323881963044" lon="9.651039781790121"><ele>46.5</ele><time>2026-05-01T06:07:21.999Z</time></trkpt><trkpt lat="45.13319181965428" lon="9.651300909339513"><ele>47.0</ele><time>2026-05-01T06:07:22.999Z</time></trkpt><trkpt lat="45.133058358553846" lon="9.651565939097951"><ele>47.0</ele><time>2026-05-01T06:07:23.999Z</time></trkpt><trkpt lat="45.13292003021883" lon="9.651839128866646"><ele>47.0</ele><time>2026-05-01T06:07:24.999Z</time></trkpt><trkpt lat="45.13278244726447" lon="9.652111120163552"><ele>47.5</ele><time>2026-05-01T06:07:25.999Z</time></trkpt><trkpt lat="45.13264557871547" lon="9.652382028924967"><ele>48.0</ele><time>2026-05-01T06:07:26.999Z</time></trkpt><trkpt lat="45.13250926633687" lon="9.65265016545758"><ele>48.0</ele><time>2026-05-01T06:07:27.999Z</time></trkpt><trkpt lat="45.13237391452882" lon="9.652917042990566"><ele>48.0</ele><time>2026-05-01T06:07:28.999Z</time></trkpt><trkpt lat="45.13223879937315" lon="9.653181994201347"><ele>48.0</ele><time>2026-05-01T06:07:29.999Z</time></trkpt><trkpt lat="45.13210261040621" lon="9.653447333013794"><ele>48.0</ele><time>2026-05-01T06:07:30.999Z</time></trkpt><trkpt lat="45.1319648973859" lon="9.653709327881625"><ele>48.0</ele><time>2026-05-01T06:07:31.999Z</time></trkpt><trkpt lat="45.131828163296895" lon="9.653970328423233"><ele>48.0</ele><time>2026-05-01T06:07:32.999Z</time></trkpt><trkpt lat="45.131693323087134" lon="9.654232094617404"><ele>47.5</ele><time>2026-05-01T06:07:33.999Z</time></trkpt><trkpt lat="45.13155939562355" lon="9.65450554737435"><ele>47.0</ele><time>2026-05-01T06:07:34.999Z</time></trkpt><trkpt lat="45.131428087365684" lon="9.65479073611877"><ele>47.0</ele><time>2026-05-01T06:07:35.999Z</time></trkpt><trkpt lat="45.13129370541039" lon="9.655080225365902"><ele>47.0</ele><time>2026-05-01T06:07:36.999Z</time></trkpt><trkpt lat="45.13115456398044" lon="9.655369572397206"><ele>47.0</ele><time>2026-05-01T06:07:37.999Z</time></trkpt><trkpt lat="45.13101259006038" lon="9.655651452803184"><ele>47.0</ele><time>2026-05-01T06:07:38.999Z</time></trkpt><trkpt lat="45.130872034941994" lon="9.655931427493135"><ele>46.5</ele><time>2026-05-01T06:07:39.999Z</time></trkpt><trkpt lat="45.130732465214166" lon="9.65622333489391"><ele>46.0</ele><time>2026-05-01T06:07:40.999Z</time></trkpt><trkpt lat="45.13059291617745" lon="9.656519289057515"><ele>48.0</ele><time>2026-05-01T06:07:41.999Z</time></trkpt><trkpt lat="45.13044756504107" lon="9.656817987963965"><ele>50.0</ele><time>2026-05-01T06:07:42.999Z</time></trkpt><trkpt lat="45.130292589633555" lon="9.657120086805715"><ele>50.0</ele><time>2026-05-01T06:07:43.999Z</time></trkpt><trkpt lat="45.13013467411412" lon="9.657425445808576"><ele>50.0</ele><time>2026-05-01T06:07:44.999Z</time></trkpt><trkpt lat="45.129974772265854" lon="9.65773133216573"><ele>48.5</ele><time>2026-05-01T06:07:45.999Z</time></trkpt><trkpt lat="45.129816704084405" lon="9.658040943812587"><ele>47.0</ele><time>2026-05-01T06:07:46.999Z</time></trkpt><trkpt lat="45.12965979581779" lon="9.658346362592523"><ele>47.0</ele><time>2026-05-01T06:07:47.999Z</time></trkpt><trkpt lat="45.12950018098898" lon="9.658655201437345"><ele>47.0</ele><time>2026-05-01T06:07:48.999Z</time></trkpt><trkpt lat="45.12934023104416" lon="9.658966312163368"><ele>47.0</ele><time>2026-05-01T06:07:49.999Z</time></trkpt><trkpt lat="45.12918083663072" lon="9.659277644309398"><ele>47.0</ele><time>2026-05-01T06:07:50.999Z</time></trkpt><trkpt lat="45.12902003097288" lon="9.659591249994696"><ele>46.5</ele><time>2026-05-01T06:07:51.999Z</time></trkpt><trkpt lat="45.12885542315958" lon="9.659901569985887"><ele>46.0</ele><time>2026-05-01T06:07:52.999Z</time></trkpt><trkpt lat="45.12868658183247" lon="9.66021151117252"><ele>47.0</ele><time>2026-05-01T06:07:53.999Z</time></trkpt><trkpt lat="45.128517299817275" lon="9.660516377677865"><ele>48.0</ele><time>2026-05-01T06:07:54.999Z</time></trkpt><trkpt lat="45.12834521671799" lon="9.660824516167015"><ele>47.5</ele><time>2026-05-01T06:07:55.999Z</time></trkpt><trkpt lat="45.128174275201125" lon="9.661129513993835"><ele>47.0</ele><time>2026-05-01T06:07:56.999Z</time></trkpt><trkpt lat="45.12800293147986" lon="9.66143531932006"><ele>47.0</ele><time>2026-05-01T06:07:57.999Z</time></trkpt><trkpt lat="45.12782744953243" lon="9.661741807113149"><ele>47.0</ele><time>2026-05-01T06:07:58.999Z</time></trkpt><trkpt lat="45.127651922155096" lon="9.662050207303075"><ele>47.5</ele><time>2026-05-01T06:07:59.999Z</time></trkpt><trkpt lat="45.127474415576565" lon="9.66235592728985"><ele>48.0</ele><time>2026-05-01T06:08:00.999Z</time></trkpt><trkpt lat="45.12729421518014" lon="9.662660562012627"><ele>47.5</ele><time>2026-05-01T06:08:01.999Z</time></trkpt><trkpt lat="45.127109334749335" lon="9.662963898047677"><ele>47.0</ele><time>2026-05-01T06:08:02.999Z</time></trkpt><trkpt lat="45.126925966668445" lon="9.663263964454762"><ele>47.0</ele><time>2026-05-01T06:08:03.999Z</time></trkpt><trkpt lat="45.12673629360552" lon="9.663562107527673"><ele>47.0</ele><time>2026-05-01T06:08:04.999Z</time></trkpt><trkpt lat="45.12654913759281" lon="9.663861761215266"><ele>47.0</ele><time>2026-05-01T06:08:05.999Z</time></trkpt><trkpt lat="45.12636462663498" lon="9.66415727190674"><ele>47.0</ele><time>2026-05-01T06:08:06.999Z</time></trkpt><trkpt lat="45.12617430382622" lon="9.66445627429317"><ele>47.0</ele><time>2026-05-01T06:08:07.999Z</time></trkpt><trkpt lat="45.12598153418508" lon="9.664753854549115"><ele>47.0</ele><time>2026-05-01T06:08:08.999Z</time></trkpt><trkpt lat="45.1257877245743" lon="9.665052685270792"><ele>47.0</ele><time>2026-05-01T06:08:09.999Z</time></trkpt><trkpt lat="45.1255922323227" lon="9.665351609934879"><ele>47.0</ele><time>2026-05-01T06:08:10.999Z</time></trkpt><trkpt lat="45.125395706736875" lon="9.66564367439712"><ele>47.0</ele><time>2026-05-01T06:08:11.999Z</time></trkpt><trkpt lat="45.1251927044941" lon="9.665926427663152"><ele>47.0</ele><time>2026-05-01T06:08:12.999Z</time></trkpt><trkpt lat="45.12498677604844" lon="9.666208297383276"><ele>46.5</ele><time>2026-05-01T06:08:13.999Z</time></trkpt><trkpt lat="45.124782359286364" lon="9.66649002362492"><ele>46.0</ele><time>2026-05-01T06:08:14.999Z</time></trkpt><trkpt lat="45.12458001149453" lon="9.666774209944935"><ele>45.0</ele><time>2026-05-01T06:08:15.999Z</time></trkpt><trkpt lat="45.1243791140287" lon="9.667059600111664"><ele>44.0</ele><time>2026-05-01T06:08:16.999Z</time></trkpt><trkpt lat="45.12417788561747" lon="9.667344988652587"><ele>44.5</ele><time>2026-05-01T06:08:17.999Z</time></trkpt><trkpt lat="45.12397525460855" lon="9.667634831002522"><ele>45.0</ele><time>2026-05-01T06:08:18.999Z</time></trkpt><trkpt lat="45.123773618564506" lon="9.66792504126494"><ele>45.0</ele><time>2026-05-01T06:08:19.999Z</time></trkpt><trkpt lat="45.12357304779208" lon="9.668214878118489"><ele>45.0</ele><time>2026-05-01T06:08:20.999Z</time></trkpt><trkpt lat="45.12337048375237" lon="9.66850781315172"><ele>44.5</ele><time>2026-05-01T06:08:21.999Z</time></trkpt><trkpt lat="45.12317023478721" lon="9.668799699705076"><ele>44.0</ele><time>2026-05-01T06:08:22.999Z</time></trkpt><trkpt lat="45.122968106060235" lon="9.669095453475531"><ele>44.0</ele><time>2026-05-01T06:08:23.999Z</time></trkpt><trkpt lat="45.122767675968625" lon="9.669386433077063"><ele>44.0</ele><time>2026-05-01T06:08:24.999Z</time></trkpt><trkpt lat="45.12256578808864" lon="9.669680078233489"><ele>44.5</ele><time>2026-05-01T06:08:25.999Z</time></trkpt><trkpt lat="45.1223636432721" lon="9.669972530637104"><ele>45.0</ele><time>2026-05-01T06:08:26.999Z</time></trkpt><trkpt lat="45.12215970244282" lon="9.67026453369384"><ele>45.0</ele><time>2026-05-01T06:08:27.999Z</time></trkpt><trkpt lat="45.12195586123549" lon="9.67055778276627"><ele>45.0</ele><time>2026-05-01T06:08:28.999Z</time></trkpt><trkpt lat="45.12175258778801" lon="9.67085168334487"><ele>45.5</ele><time>2026-05-01T06:08:29.999Z</time></trkpt><trkpt lat="45.12154699021314" lon="9.671148552568805"><ele>46.0</ele><time>2026-05-01T06:08:30.999Z</time></trkpt><trkpt lat="45.12134323380431" lon="9.671442430757063"><ele>46.0</ele><time>2026-05-01T06:08:31.999Z</time></trkpt><trkpt lat="45.12114320759308" lon="9.67173826571941"><ele>46.0</ele><time>2026-05-01T06:08:32.999Z</time></trkpt><trkpt lat="45.12093761931242" lon="9.672032407525228"><ele>46.0</ele><time>2026-05-01T06:08:33.999Z</time></trkpt><trkpt lat="45.12073507231233" lon="9.672326080095976"><ele>46.0</ele><time>2026-05-01T06:08:34.999Z</time></trkpt><trkpt lat="45.12053201568191" lon="9.672617140270116"><ele>46.5</ele><time>2026-05-01T06:08:35.999Z</time></trkpt><trkpt lat="45.12032958544917" lon="9.672908167634947"><ele>47.0</ele><time>2026-05-01T06:08:36.999Z</time></trkpt><trkpt lat="45.12012636708515" lon="9.673197844908124"><ele>47.0</ele><time>2026-05-01T06:08:38Z</time></trkpt><trkpt lat="45.11992213266363" lon="9.673486753036036"><ele>47.0</ele><time>2026-05-01T06:08:39Z</time></trkpt><trkpt lat="45.11971873229479" lon="9.673776762416125"><ele>45.5</ele><time>2026-05-01T06:08:40Z</time></trkpt><trkpt lat="45.119517954772014" lon="9.674066462449247"><ele>44.0</ele><time>2026-05-01T06:08:41Z</time></trkpt><trkpt lat="45.119318486680875" lon="9.674356885251072"><ele>43.5</ele><time>2026-05-01T06:08:42Z</time></trkpt><trkpt lat="45.11911814304251" lon="9.674650418910211"><ele>43.0</ele><time>2026-05-01T06:08:43Z</time></trkpt><trkpt lat="45.118918851848214" lon="9.674939393161736"><ele>44.0</ele><time>2026-05-01T06:08:44Z</time></trkpt><trkpt lat="45.11872163031308" lon="9.675229257055205"><ele>45.0</ele><time>2026-05-01T06:08:45Z</time></trkpt><trkpt lat="45.118524988299605" lon="9.675517331024482"><ele>45.0</ele><time>2026-05-01T06:08:46Z</time></trkpt><trkpt lat="45.11832885017948" lon="9.675800677805546"><ele>45.0</ele><time>2026-05-01T06:08:47Z</time></trkpt><trkpt lat="45.118134594955706" lon="9.676082687062475"><ele>46.0</ele><time>2026-05-01T06:08:48Z</time></trkpt><trkpt lat="45.11793915578294" lon="9.676363886886907"><ele>47.0</ele><time>2026-05-01T06:08:49Z</time></trkpt><trkpt lat="45.11774324432916" lon="9.676643478791194"><ele>47.0</ele><time>2026-05-01T06:08:50Z</time></trkpt><trkpt lat="45.11754773857758" lon="9.676918213933341"><ele>47.0</ele><time>2026-05-01T06:08:51Z</time></trkpt><trkpt lat="45.11735485781141" lon="9.677192744160756"><ele>45.5</ele><time>2026-05-01T06:08:52Z</time></trkpt><trkpt lat="45.11716460187286" lon="9.677468801902561"><ele>44.0</ele><time>2026-05-01T06:08:53Z</time></trkpt><trkpt lat="45.11697390448831" lon="9.677743537983652"><ele>44.0</ele><time>2026-05-01T06:08:54Z</time></trkpt><trkpt lat="45.11678363494324" lon="9.678017544006265"><ele>44.0</ele><time>2026-05-01T06:08:55Z</time></trkpt><trkpt lat="45.11659478334865" lon="9.678293748701511"><ele>44.5</ele><time>2026-05-01T06:08:56Z</time></trkpt><trkpt lat="45.11640495927333" lon="9.678569819337625"><ele>45.0</ele><time>2026-05-01T06:08:57Z</time></trkpt><trkpt lat="45.1162138291087" lon="9.678845676141671"><ele>45.0</ele><time>2026-05-01T06:08:58Z</time></trkpt><trkpt lat="45.11602086958779" lon="9.679124985047102"><ele>45.0</ele><time>2026-05-01T06:08:59Z</time></trkpt><trkpt lat="45.115829213233404" lon="9.679402665459236"><ele>45.0</ele><time>2026-05-01T06:09:00Z</time></trkpt><trkpt lat="45.11563901970236" lon="9.679678586545617"><ele>45.0</ele><time>2026-05-01T06:09:01Z</time></trkpt><trkpt lat="45.1154495562904" lon="9.67995432431321"><ele>45.0</ele><time>2026-05-01T06:09:02Z</time></trkpt><trkpt lat="45.11526059104409" lon="9.680232838060068"><ele>45.0</ele><time>2026-05-01T06:09:03Z</time></trkpt><trkpt lat="45.11507372752869" lon="9.68051304926002"><ele>44.0</ele><time>2026-05-01T06:09:04Z</time></trkpt><trkpt lat="45.114886456338986" lon="9.68079563707856"><ele>43.0</ele><time>2026-05-01T06:09:05Z</time></trkpt><trkpt lat="45.114698226796854" lon="9.681079944170643"><ele>43.0</ele><time>2026-05-01T06:09:06Z</time></trkpt><trkpt lat="45.11450653482183" lon="9.681364227220435"><ele>43.0</ele><time>2026-05-01T06:09:07Z</time></trkpt><trkpt lat="45.1143126273957" lon="9.68164586769114"><ele>43.0</ele><time>2026-05-01T06:09:08Z</time></trkpt><trkpt lat="45.11411760011806" lon="9.681927851337884"><ele>43.0</ele><time>2026-05-01T06:09:09Z</time></trkpt><trkpt lat="45.11392395804551" lon="9.68220586650422"><ele>43.5</ele><time>2026-05-01T06:09:10Z</time></trkpt><trkpt lat="45.11373336933134" lon="9.682479431612379"><ele>44.0</ele><time>2026-05-01T06:09:11Z</time></trkpt><trkpt lat="45.11354755720244" lon="9.682742685162431"><ele>43.5</ele><time>2026-05-01T06:09:11.999Z</time></trkpt><trkpt lat="45.11337047314964" lon="9.682992272077701"><ele>43.0</ele><time>2026-05-01T06:09:12.999Z</time></trkpt><trkpt lat="45.113200498312004" lon="9.683235294135216"><ele>43.0</ele><time>2026-05-01T06:09:13.999Z</time></trkpt><trkpt lat="45.113030651809545" lon="9.683480736439227"><ele>43.0</ele><time>2026-05-01T06:09:14.999Z</time></trkpt><trkpt lat="45.11286184525508" lon="9.683724879340499"><ele>44.0</ele><time>2026-05-01T06:09:15.999Z</time></trkpt><trkpt lat="45.112693266270284" lon="9.683967891911815"><ele>45.0</ele><time>2026-05-01T06:09:16.999Z</time></trkpt><trkpt lat="45.112523563204356" lon="9.684208928094192"><ele>45.5</ele><time>2026-05-01T06:09:17.999Z</time></trkpt><trkpt lat="45.11235959780066" lon="9.684439540758099"><ele>46.0</ele><time>2026-05-01T06:09:18.999Z</time></trkpt><trkpt lat="45.11220241258824" lon="9.68465827226052"><ele>46.0</ele><time>2026-05-01T06:09:19.999Z</time></trkpt><trkpt lat="45.11203575515554" lon="9.684863297627533"><ele>46.0</ele><time>2026-05-01T06:09:20.999Z</time></trkpt><trkpt lat="45.11188649875282" lon="9.685052124719016"><ele>46.0</ele><time>2026-05-01T06:09:21.999Z</time></trkpt><trkpt lat="45.11175375579204" lon="9.685230842907844"><ele>45.66666666666667</ele><time>2026-05-01T06:09:22.999Z</time></trkpt><trkpt lat="45.11163996962271" lon="9.685397345681775"><ele>45.333333333333336</ele><time>2026-05-01T06:09:23.999Z</time></trkpt><trkpt lat="45.111518950663616" lon="9.685553494979558"><ele>45.0</ele><time>2026-05-01T06:09:24.999Z</time></trkpt><trkpt lat="45.111397895831786" lon="9.685703268576859"><ele>45.666666666666664</ele><time>2026-05-01T06:09:25.999Z</time></trkpt><trkpt lat="45.111272288292746" lon="9.68586013877015"><ele>46.33333333333333</ele><time>2026-05-01T06:09:26.999Z</time></trkpt><trkpt lat="45.11114358980769" lon="9.686026282136451"><ele>47.0</ele><time>2026-05-01T06:09:27.999Z</time></trkpt><trkpt lat="45.11100442097625" lon="9.686189069737488"><ele>47.0</ele><time>2026-05-01T06:09:28.999Z</time></trkpt><trkpt lat="45.110873865147944" lon="9.686369052247999"><ele>47.0</ele><time>2026-05-01T06:09:29.999Z</time></trkpt><trkpt lat="45.11073720700647" lon="9.686550301632968"><ele>47.0</ele><time>2026-05-01T06:09:30.999Z</time></trkpt><trkpt lat="45.11059166587397" lon="9.686735600320022"><ele>47.0</ele><time>2026-05-01T06:09:31.999Z</time></trkpt><trkpt lat="45.11044696425665" lon="9.68691909878059"><ele>47.0</ele><time>2026-05-01T06:09:32.999Z</time></trkpt><trkpt lat="45.1102889991302" lon="9.687104741607484"><ele>47.0</ele><time>2026-05-01T06:09:33.999Z</time></trkpt><trkpt lat="45.110128542524535" lon="9.68730313343251"><ele>47.0</ele><time>2026-05-01T06:09:34.999Z</time></trkpt><trkpt lat="45.10996786456485" lon="9.687496066168807"><ele>47.0</ele><time>2026-05-01T06:09:35.999Z</time></trkpt><trkpt lat="45.10981112015251" lon="9.687700978619294"><ele>47.0</ele><time>2026-05-01T06:09:36.999Z</time></trkpt><trkpt lat="45.10965530140351" lon="9.687904345295184"><ele>46.666666666666664</ele><time>2026-05-01T06:09:37.999Z</time></trkpt><trkpt lat="45.109491133171666" lon="9.688104863063888"><ele>46.333333333333336</ele><time>2026-05-01T06:09:38.999Z</time></trkpt><trkpt lat="45.109329391718376" lon="9.688320499455406"><ele>46.0</ele><time>2026-05-01T06:09:39.999Z</time></trkpt><trkpt lat="45.10916221268004" lon="9.68852500648639"><ele>47.0</ele><time>2026-05-01T06:09:40.999Z</time></trkpt><trkpt lat="45.10898571302736" lon="9.688729932679356"><ele>48.0</ele><time>2026-05-01T06:09:41.999Z</time></trkpt><trkpt lat="45.10881142538269" lon="9.68893511067896"><ele>48.0</ele><time>2026-05-01T06:09:42.999Z</time></trkpt><trkpt lat="45.1086196749652" lon="9.6891347425933"><ele>48.0</ele><time>2026-05-01T06:09:43.999Z</time></trkpt><trkpt lat="45.10844576489952" lon="9.689330458886612"><ele>48.5</ele><time>2026-05-01T06:09:44.999Z</time></trkpt><trkpt lat="45.108267643965476" lon="9.68952845472963"><ele>49.0</ele><time>2026-05-01T06:09:45.999Z</time></trkpt><trkpt lat="45.10808413603889" lon="9.689725520962273"><ele>48.0</ele><time>2026-05-01T06:09:46.999Z</time></trkpt><trkpt lat="45.10789764645837" lon="9.689927063666062"><ele>47.0</ele><time>2026-05-01T06:09:47.999Z</time></trkpt><trkpt lat="45.10770808373173" lon="9.69012792483795"><ele>46.5</ele><time>2026-05-01T06:09:48.999Z</time></trkpt><trkpt lat="45.10751928562972" lon="9.690331520423118"><ele>46.0</ele><time>2026-05-01T06:09:49.999Z</time></trkpt><trkpt lat="45.10732967545524" lon="9.69053231990351"><ele>46.0</ele><time>2026-05-01T06:09:50.999Z</time></trkpt><trkpt lat="45.10714051470577" lon="9.690735160056716"><ele>46.0</ele><time>2026-05-01T06:09:51.999Z</time></trkpt><trkpt lat="45.106951555007015" lon="9.690939745129592"><ele>47.0</ele><time>2026-05-01T06:09:52.999Z</time></trkpt><trkpt lat="45.106760879317946" lon="9.691144409691024"><ele>48.0</ele><time>2026-05-01T06:09:53.999Z</time></trkpt><trkpt lat="45.10657211769758" lon="9.691347370636851"><ele>48.0</ele><time>2026-05-01T06:09:54.999Z</time></trkpt><trkpt lat="45.10638112260462" lon="9.69155089839348"><ele>48.0</ele><time>2026-05-01T06:09:55.999Z</time></trkpt><trkpt lat="45.10619205309553" lon="9.691751863631588"><ele>48.0</ele><time>2026-05-01T06:09:56.999Z</time></trkpt><trkpt lat="45.10599924424445" lon="9.69196053934655"><ele>48.0</ele><time>2026-05-01T06:09:57.999Z</time></trkpt><trkpt lat="45.10580492666284" lon="9.692175108036077"><ele>46.5</ele><time>2026-05-01T06:09:58.999Z</time></trkpt><trkpt lat="45.10560279229634" lon="9.692392607602862"><ele>45.0</ele><time>2026-05-01T06:09:59.999Z</time></trkpt><trkpt lat="45.10539854140127" lon="9.692611098484125"><ele>45.0</ele><time>2026-05-01T06:10:00.999Z</time></trkpt><trkpt lat="45.10518923926103" lon="9.692837356734712"><ele>45.0</ele><time>2026-05-01T06:10:01.999Z</time></trkpt><trkpt lat="45.10497583798493" lon="9.693070019443478"><ele>45.0</ele><time>2026-05-01T06:10:02.999Z</time></trkpt><trkpt lat="45.10475799324275" lon="9.693304899318862"><ele>45.0</ele><time>2026-05-01T06:10:03.999Z</time></trkpt><trkpt lat="45.10453718749068" lon="9.693542349252835"><ele>45.5</ele><time>2026-05-01T06:10:04.999Z</time></trkpt><trkpt lat="45.10431577461462" lon="9.69378195662238"><ele>46.0</ele><time>2026-05-01T06:10:05.999Z</time></trkpt><trkpt lat="45.10408995317304" lon="9.694026033950836"><ele>46.0</ele><time>2026-05-01T06:10:06.999Z</time></trkpt><trkpt lat="45.10385873286803" lon="9.694273606500737"><ele>46.0</ele><time>2026-05-01T06:10:07.999Z</time></trkpt><trkpt lat="45.103623513266214" lon="9.69452388920919"><ele>45.5</ele><time>2026-05-01T06:10:08.999Z</time></trkpt><trkpt lat="45.10338455052975" lon="9.694772121224588"><ele>45.0</ele><time>2026-05-01T06:10:09.999Z</time></trkpt><trkpt lat="45.10314377752224" lon="9.695016034592115"><ele>45.0</ele><time>2026-05-01T06:10:10.999Z</time></trkpt><trkpt lat="45.102900632810645" lon="9.695261024598238"><ele>45.0</ele><time>2026-05-01T06:10:11.999Z</time></trkpt><trkpt lat="45.10265909550583" lon="9.69550798823859"><ele>45.0</ele><time>2026-05-01T06:10:12.999Z</time></trkpt><trkpt lat="45.10242049039802" lon="9.69575808669499"><ele>45.0</ele><time>2026-05-01T06:10:13.999Z</time></trkpt><trkpt lat="45.102184287227544" lon="9.696011863769137"><ele>44.5</ele><time>2026-05-01T06:10:14.999Z</time></trkpt><trkpt lat="45.101950420051956" lon="9.696267466713545"><ele>44.0</ele><time>2026-05-01T06:10:15.999Z</time></trkpt><trkpt lat="45.101712683931794" lon="9.696522597620115"><ele>45.0</ele><time>2026-05-01T06:10:16.999Z</time></trkpt><trkpt lat="45.10147798272747" lon="9.696771479993393"><ele>46.0</ele><time>2026-05-01T06:10:17.999Z</time></trkpt><trkpt lat="45.10124430563347" lon="9.697018867192154"><ele>46.0</ele><time>2026-05-01T06:10:18.999Z</time></trkpt><trkpt lat="45.10101098718692" lon="9.697260505394638"><ele>46.0</ele><time>2026-05-01T06:10:19.999Z</time></trkpt><trkpt lat="45.100779995002746" lon="9.697493675545932"><ele>47.0</ele><time>2026-05-01T06:10:20.999Z</time></trkpt><trkpt lat="45.10055187015094" lon="9.697732903502333"><ele>48.0</ele><time>2026-05-01T06:10:21.999Z</time></trkpt><trkpt lat="45.10032792065667" lon="9.697965196699382"><ele>48.0</ele><time>2026-05-01T06:10:22.999Z</time></trkpt><trkpt lat="45.10011017600293" lon="9.698194127813641"><ele>48.0</ele><time>2026-05-01T06:10:23.999Z</time></trkpt><trkpt lat="45.099899894661526" lon="9.698414697071843"><ele>46.5</ele><time>2026-05-01T06:10:24.999Z</time></trkpt><trkpt lat="45.09969770196468" lon="9.698626683073742"><ele>45.0</ele><time>2026-05-01T06:10:25.999Z</time></trkpt><trkpt lat="45.099510476276286" lon="9.69881980704839"><ele>45.0</ele><time>2026-05-01T06:10:26.999Z</time></trkpt><trkpt lat="45.09933278472234" lon="9.6990058957412"><ele>45.0</ele><time>2026-05-01T06:10:27.999Z</time></trkpt><trkpt lat="45.09916088802136" lon="9.699188084120973"><ele>45.0</ele><time>2026-05-01T06:10:28.999Z</time></trkpt><trkpt lat="45.09900400053392" lon="9.699358044768145"><ele>44.333333333333336</ele><time>2026-05-01T06:10:29.999Z</time></trkpt><trkpt lat="45.09885335844805" lon="9.699521760670532"><ele>43.66666666666667</ele><time>2026-05-01T06:10:30.999Z</time></trkpt><trkpt lat="45.09870905471668" lon="9.699678756128046"><ele>43.0</ele><time>2026-05-01T06:10:31.999Z</time></trkpt><trkpt lat="45.09856326717635" lon="9.699837342472923"><ele>43.0</ele><time>2026-05-01T06:10:32.999Z</time></trkpt><trkpt lat="45.09841507319419" lon="9.699996022349254"><ele>43.0</ele><time>2026-05-01T06:10:33.999Z</time></trkpt><trkpt lat="45.09826746307261" lon="9.70015627504075"><ele>43.0</ele><time>2026-05-01T06:10:34.999Z</time></trkpt><trkpt lat="45.09812416793124" lon="9.70031044383023"><ele>43.0</ele><time>2026-05-01T06:10:35.999Z</time></trkpt><trkpt lat="45.09798119714945" lon="9.700462224637107"><ele>43.0</ele><time>2026-05-01T06:10:36.999Z</time></trkpt><trkpt lat="45.09783662015635" lon="9.700618278709543"><ele>43.0</ele><time>2026-05-01T06:10:37.999Z</time></trkpt><trkpt lat="45.09769055419421" lon="9.700773075744362"><ele>43.0</ele><time>2026-05-01T06:10:38.999Z</time></trkpt><trkpt lat="45.09754409267233" lon="9.700932779527257"><ele>43.0</ele><time>2026-05-01T06:10:39.999Z</time></trkpt><trkpt lat="45.09739631859593" lon="9.701094248779079"><ele>43.0</ele><time>2026-05-01T06:10:40.999Z</time></trkpt><trkpt lat="45.09724570996384" lon="9.701253868763523"><ele>43.66666666666667</ele><time>2026-05-01T06:10:41.999Z</time></trkpt><trkpt lat="45.0970935912985" lon="9.701412693848106"><ele>44.333333333333336</ele><time>2026-05-01T06:10:42.999Z</time></trkpt><trkpt lat="45.0969429698302" lon="9.70156435360184"><ele>45.0</ele><time>2026-05-01T06:10:44Z</time></trkpt><trkpt lat="45.09679126610852" lon="9.701715435331588"><ele>45.0</ele><time>2026-05-01T06:10:45Z</time></trkpt><trkpt lat="45.096639439678285" lon="9.701867593350553"><ele>45.0</ele><time>2026-05-01T06:10:46Z</time></trkpt><trkpt lat="45.096489174846745" lon="9.702024684838934"><ele>45.0</ele><time>2026-05-01T06:10:47Z</time></trkpt><trkpt lat="45.09634593324999" lon="9.702181553849647"><ele>44.666666666666664</ele><time>2026-05-01T06:10:48Z</time></trkpt><trkpt lat="45.09620708810963" lon="9.70233683973383"><ele>44.33333333333333</ele><time>2026-05-01T06:10:49Z</time></trkpt><trkpt lat="45.09607655613617" lon="9.702482422402424"><ele>44.0</ele><time>2026-05-01T06:10:50Z</time></trkpt><trkpt lat="45.09595033695678" lon="9.702623787252797"><ele>44.0</ele><time>2026-05-01T06:10:51Z</time></trkpt><trkpt lat="45.09582448099686" lon="9.702756198768522"><ele>44.0</ele><time>2026-05-01T06:10:52Z</time></trkpt><trkpt lat="45.0957040780098" lon="9.70288169215537"><ele>44.0</ele><time>2026-05-01T06:10:53Z</time></trkpt><trkpt lat="45.0955870197357" lon="9.703010000450163"><ele>44.0</ele><time>2026-05-01T06:10:54Z</time></trkpt><trkpt lat="45.09547217214394" lon="9.703133220377191"><ele>44.0</ele><time>2026-05-01T06:10:55Z</time></trkpt><trkpt lat="45.09536079927897" lon="9.703252811705699"><ele>44.0</ele><time>2026-05-01T06:10:56Z</time></trkpt><trkpt lat="45.09525246705694" lon="9.703367910304893"><ele>44.0</ele><time>2026-05-01T06:10:57Z</time></trkpt><trkpt lat="45.09514415702052" lon="9.703484203164814"><ele>44.25</ele><time>2026-05-01T06:10:58Z</time></trkpt><trkpt lat="45.09503708299152" lon="9.703604030765725"><ele>44.5</ele><time>2026-05-01T06:10:59Z</time></trkpt><trkpt lat="45.094926291848815" lon="9.703721905671385"><ele>44.75</ele><time>2026-05-01T06:11:00Z</time></trkpt><trkpt lat="45.09481717846449" lon="9.703837739493189"><ele>45.0</ele><time>2026-05-01T06:11:01Z</time></trkpt><trkpt lat="45.09471359342924" lon="9.703948812308356"><ele>45.25</ele><time>2026-05-01T06:11:02Z</time></trkpt><trkpt lat="45.09461491099617" lon="9.70405773120104"><ele>45.5</ele><time>2026-05-01T06:11:03Z</time></trkpt><trkpt lat="45.094519617685364" lon="9.704157657207"><ele>45.75</ele><time>2026-05-01T06:11:04Z</time></trkpt><trkpt lat="45.09442656378001" lon="9.704255509882108"><ele>46.0</ele><time>2026-05-01T06:11:05Z</time></trkpt><trkpt lat="45.09433458997494" lon="9.704352516299076"><ele>45.599999999999994</ele><time>2026-05-01T06:11:06Z</time></trkpt><trkpt lat="45.094242544907885" lon="9.70444754222079"><ele>45.2</ele><time>2026-05-01T06:11:07Z</time></trkpt><trkpt lat="45.09415439373036" lon="9.704539314667537"><ele>44.8</ele><time>2026-05-01T06:11:08Z</time></trkpt><trkpt lat="45.09407356611788" lon="9.704629940395193"><ele>44.400000000000006</ele><time>2026-05-01T06:11:09Z</time></trkpt><trkpt lat="45.09398847730416" lon="9.704724016724969"><ele>44.0</ele><time>2026-05-01T06:11:10Z</time></trkpt><trkpt lat="45.09390175562035" lon="9.704816569181647"><ele>44.0</ele><time>2026-05-01T06:11:11Z</time></trkpt><trkpt lat="45.0938174412137" lon="9.704907074342348"><ele>44.0</ele><time>2026-05-01T06:11:12Z</time></trkpt><trkpt lat="45.0937363997093" lon="9.704996239749963"><ele>44.0</ele><time>2026-05-01T06:11:13Z</time></trkpt><trkpt lat="45.09365843605514" lon="9.705081852751432"><ele>44.0</ele><time>2026-05-01T06:11:14Z</time></trkpt><trkpt lat="45.09357770001101" lon="9.705165561341145"><ele>44.0</ele><time>2026-05-01T06:11:14.999Z</time></trkpt><trkpt lat="45.093494895699" lon="9.70525558395539"><ele>44.0</ele><time>2026-05-01T06:11:15.999Z</time></trkpt><trkpt lat="45.09340993955722" lon="9.705350611113529"><ele>44.0</ele><time>2026-05-01T06:11:16.999Z</time></trkpt><trkpt lat="45.093319543862535" lon="9.705446863251066"><ele>44.0</ele><time>2026-05-01T06:11:17.999Z</time></trkpt><trkpt lat="45.09322537270169" lon="9.705549545127639"><ele>44.0</ele><time>2026-05-01T06:11:18.999Z</time></trkpt><trkpt lat="45.09312566094805" lon="9.705655809751416"><ele>44.0</ele><time>2026-05-01T06:11:19.999Z</time></trkpt><trkpt lat="45.093024118415855" lon="9.705764963077051"><ele>44.0</ele><time>2026-05-01T06:11:20.999Z</time></trkpt><trkpt lat="45.09291978994897" lon="9.705876345075493"><ele>44.0</ele><time>2026-05-01T06:11:21.999Z</time></trkpt><trkpt lat="45.092810365435874" lon="9.705991372000245"><ele>44.0</ele><time>2026-05-01T06:11:22.999Z</time></trkpt><trkpt lat="45.092698574857245" lon="9.706108320794662"><ele>44.0</ele><time>2026-05-01T06:11:23.999Z</time></trkpt><trkpt lat="45.09258353368121" lon="9.706232330481402"><ele>44.0</ele><time>2026-05-01T06:11:24.999Z</time></trkpt><trkpt lat="45.092468588670144" lon="9.706363923591441"><ele>44.0</ele><time>2026-05-01T06:11:25.999Z</time></trkpt><trkpt lat="45.092350505702825" lon="9.70649958767117"><ele>44.0</ele><time>2026-05-01T06:11:26.999Z</time></trkpt><trkpt lat="45.092229717378565" lon="9.70664161940328"><ele>44.666666666666664</ele><time>2026-05-01T06:11:27.999Z</time></trkpt><trkpt lat="45.092102255581224" lon="9.706784244408986"><ele>45.333333333333336</ele><time>2026-05-01T06:11:28.999Z</time></trkpt><trkpt lat="45.09197054752258" lon="9.706930700089423"><ele>46.0</ele><time>2026-05-01T06:11:29.999Z</time></trkpt><trkpt lat="45.091835113783944" lon="9.70707844090712"><ele>46.0</ele><time>2026-05-01T06:11:30.999Z</time></trkpt><trkpt lat="45.091699658403726" lon="9.707233510439716"><ele>46.0</ele><time>2026-05-01T06:11:31.999Z</time></trkpt><trkpt lat="45.09156472326667" lon="9.707386810144733"><ele>46.0</ele><time>2026-05-01T06:11:32.999Z</time></trkpt><trkpt lat="45.091416457772205" lon="9.707542652842132"><ele>46.0</ele><time>2026-05-01T06:11:33.999Z</time></trkpt><trkpt lat="45.09127233712906" lon="9.707691443105539"><ele>46.0</ele><time>2026-05-01T06:11:34.999Z</time></trkpt><trkpt lat="45.09112225652081" lon="9.707845432130542"><ele>46.0</ele><time>2026-05-01T06:11:35.999Z</time></trkpt><trkpt lat="45.09097116739092" lon="9.707998084070029"><ele>45.0</ele><time>2026-05-01T06:11:36.999Z</time></trkpt><trkpt lat="45.09082006036045" lon="9.708152913147623"><ele>44.0</ele><time>2026-05-01T06:11:37.999Z</time></trkpt><trkpt lat="45.0906687174061" lon="9.708310344770533"><ele>43.0</ele><time>2026-05-01T06:11:38.999Z</time></trkpt><trkpt lat="45.09051955804062" lon="9.708468082952479"><ele>42.66666666666667</ele><time>2026-05-01T06:11:39.999Z</time></trkpt><trkpt lat="45.09037414127345" lon="9.708624657496195"><ele>42.333333333333336</ele><time>2026-05-01T06:11:40.999Z</time></trkpt><trkpt lat="45.09023572139644" lon="9.708773119877186"><ele>42.0</ele><time>2026-05-01T06:11:41.999Z</time></trkpt><trkpt lat="45.09010048634547" lon="9.708919343711708"><ele>42.0</ele><time>2026-05-01T06:11:42.999Z</time></trkpt><trkpt lat="45.08996440102288" lon="9.70906671559761"><ele>42.0</ele><time>2026-05-01T06:11:43.999Z</time></trkpt><trkpt lat="45.08982513825561" lon="9.709223129363595"><ele>42.0</ele><time>2026-05-01T06:11:44.999Z</time></trkpt><trkpt lat="45.08968522829021" lon="9.709387628419632"><ele>43.0</ele><time>2026-05-01T06:11:45.999Z</time></trkpt><trkpt lat="45.08953786768509" lon="9.709562483188348"><ele>44.0</ele><time>2026-05-01T06:11:46.999Z</time></trkpt><trkpt lat="45.08938611017564" lon="9.709740827553725"><ele>45.0</ele><time>2026-05-01T06:11:47.999Z</time></trkpt><trkpt lat="45.089230474639855" lon="9.70992189083564"><ele>45.333333333333336</ele><time>2026-05-01T06:11:48.999Z</time></trkpt><trkpt lat="45.0890740189995" lon="9.710103522140846"><ele>45.66666666666667</ele><time>2026-05-01T06:11:49.999Z</time></trkpt><trkpt lat="45.08891439016414" lon="9.710283172914135"><ele>46.0</ele><time>2026-05-01T06:11:50.999Z</time></trkpt><trkpt lat="45.08875009962402" lon="9.710464050233679"><ele>46.0</ele><time>2026-05-01T06:11:51.999Z</time></trkpt><trkpt lat="45.088582361801556" lon="9.710646979991605"><ele>46.0</ele><time>2026-05-01T06:11:52.999Z</time></trkpt><trkpt lat="45.088410560081954" lon="9.710829049189163"><ele>46.0</ele><time>2026-05-01T06:11:53.999Z</time></trkpt><trkpt lat="45.08824051592626" lon="9.711012656671468"><ele>46.0</ele><time>2026-05-01T06:11:54.999Z</time></trkpt><trkpt lat="45.08807913972432" lon="9.711194149816398"><ele>46.0</ele><time>2026-05-01T06:11:55.999Z</time></trkpt><trkpt lat="45.08791023774452" lon="9.71137434214411"><ele>46.0</ele><time>2026-05-01T06:11:56.999Z</time></trkpt><trkpt lat="45.0877394780288" lon="9.711555089087412"><ele>46.0</ele><time>2026-05-01T06:11:57.999Z</time></trkpt><trkpt lat="45.08756839559136" lon="9.711737219593239"><ele>46.0</ele><time>2026-05-01T06:11:58.999Z</time></trkpt><trkpt lat="45.08739342115009" lon="9.711921499738686"><ele>46.0</ele><time>2026-05-01T06:11:59.999Z</time></trkpt><trkpt lat="45.08721903710292" lon="9.712108355256259"><ele>46.0</ele><time>2026-05-01T06:12:00.999Z</time></trkpt><trkpt lat="45.087043639144554" lon="9.712295754977527"><ele>46.0</ele><time>2026-05-01T06:12:01.999Z</time></trkpt><trkpt lat="45.086866342934236" lon="9.712486601034769"><ele>46.0</ele><time>2026-05-01T06:12:02.999Z</time></trkpt><trkpt lat="45.086687032972414" lon="9.712680275640686"><ele>46.333333333333336</ele><time>2026-05-01T06:12:03.999Z</time></trkpt><trkpt lat="45.086513360911994" lon="9.712871074084076"><ele>46.666666666666664</ele><time>2026-05-01T06:12:04.999Z</time></trkpt><trkpt lat="45.086336865173955" lon="9.713070581728724"><ele>47.0</ele><time>2026-05-01T06:12:05.999Z</time></trkpt><trkpt lat="45.08614846113467" lon="9.713273255407797"><ele>47.0</ele><time>2026-05-01T06:12:06.999Z</time></trkpt><trkpt lat="45.085953873472725" lon="9.713479260444963"><ele>47.0</ele><time>2026-05-01T06:12:07.999Z</time></trkpt><trkpt lat="45.08575717172178" lon="9.713687529478221"><ele>47.0</ele><time>2026-05-01T06:12:08.999Z</time></trkpt><trkpt lat="45.085559992400306" lon="9.71390388455378"><ele>47.0</ele><time>2026-05-01T06:12:09.999Z</time></trkpt><trkpt lat="45.08536769544785" lon="9.714124794510047"><ele>47.0</ele><time>2026-05-01T06:12:10.999Z</time></trkpt><trkpt lat="45.085169358134756" lon="9.714345718556268"><ele>47.0</ele><time>2026-05-01T06:12:11.999Z</time></trkpt><trkpt lat="45.08496575981162" lon="9.714571295504049"><ele>47.0</ele><time>2026-05-01T06:12:12.999Z</time></trkpt><trkpt lat="45.08476296823015" lon="9.714797400317538"><ele>47.0</ele><time>2026-05-01T06:12:13.999Z</time></trkpt><trkpt lat="45.08455497361393" lon="9.71501811291596"><ele>47.5</ele><time>2026-05-01T06:12:14.999Z</time></trkpt><trkpt lat="45.08434747732021" lon="9.715247685345666"><ele>48.0</ele><time>2026-05-01T06:12:15.999Z</time></trkpt><trkpt lat="45.0841345758245" lon="9.715468360137669"><ele>48.0</ele><time>2026-05-01T06:12:16.999Z</time></trkpt><trkpt lat="45.083918220791716" lon="9.715693591196432"><ele>48.0</ele><time>2026-05-01T06:12:17.999Z</time></trkpt><trkpt lat="45.08370505494016" lon="9.715918407107639"><ele>50.0</ele><time>2026-05-01T06:12:18.999Z</time></trkpt><trkpt lat="45.083491705408896" lon="9.716142949692514"><ele>52.0</ele><time>2026-05-01T06:12:19.999Z</time></trkpt><trkpt lat="45.083275652782156" lon="9.716371594301604"><ele>50.5</ele><time>2026-05-01T06:12:20.999Z</time></trkpt><trkpt lat="45.08306344685066" lon="9.716596069993443"><ele>49.0</ele><time>2026-05-01T06:12:21.999Z</time></trkpt><trkpt lat="45.08284773028342" lon="9.716824085863328"><ele>49.0</ele><time>2026-05-01T06:12:22.999Z</time></trkpt><trkpt lat="45.08263399125965" lon="9.717053991389971"><ele>49.0</ele><time>2026-05-01T06:12:23.999Z</time></trkpt><trkpt lat="45.082420261981355" lon="9.717281660279872"><ele>49.0</ele><time>2026-05-01T06:12:24.999Z</time></trkpt><trkpt lat="45.08220056431399" lon="9.717510434719582"><ele>49.0</ele><time>2026-05-01T06:12:25.999Z</time></trkpt><trkpt lat="45.08199125722818" lon="9.717744291964017"><ele>49.0</ele><time>2026-05-01T06:12:26.999Z</time></trkpt><trkpt lat="45.081774240750086" lon="9.717975492574164"><ele>49.0</ele><time>2026-05-01T06:12:27.999Z</time></trkpt><trkpt lat="45.08156067276126" lon="9.718204503923772"><ele>48.0</ele><time>2026-05-01T06:12:28.999Z</time></trkpt><trkpt lat="45.08134722440006" lon="9.71842965852967"><ele>47.0</ele><time>2026-05-01T06:12:29.999Z</time></trkpt><trkpt lat="45.0811335741749" lon="9.71865561329529"><ele>47.0</ele><time>2026-05-01T06:12:30.999Z</time></trkpt><trkpt lat="45.08091871940567" lon="9.718879457541393"><ele>47.0</ele><time>2026-05-01T06:12:31.999Z</time></trkpt><trkpt lat="45.08070343898377" lon="9.719103733165225"><ele>47.0</ele><time>2026-05-01T06:12:32.999Z</time></trkpt><trkpt lat="45.080491765248176" lon="9.719329829124437"><ele>47.0</ele><time>2026-05-01T06:12:33.999Z</time></trkpt><trkpt lat="45.08027845857554" lon="9.71955869554679"><ele>47.0</ele><time>2026-05-01T06:12:34.999Z</time></trkpt><trkpt lat="45.08006246674647" lon="9.719787634194414"><ele>47.0</ele><time>2026-05-01T06:12:35.999Z</time></trkpt><trkpt lat="45.07984564905572" lon="9.720008072600143"><ele>46.5</ele><time>2026-05-01T06:12:36.999Z</time></trkpt><trkpt lat="45.07962117733797" lon="9.720223253100226"><ele>46.0</ele><time>2026-05-01T06:12:37.999Z</time></trkpt><trkpt lat="45.07940387247041" lon="9.720435558154977"><ele>46.0</ele><time>2026-05-01T06:12:38.999Z</time></trkpt><trkpt lat="45.07918989078114" lon="9.72065933256742"><ele>46.0</ele><time>2026-05-01T06:12:39.999Z</time></trkpt><trkpt lat="45.078981163539794" lon="9.720889753085034"><ele>46.5</ele><time>2026-05-01T06:12:40.999Z</time></trkpt><trkpt lat="45.078763654902076" lon="9.72111997746318"><ele>47.0</ele><time>2026-05-01T06:12:41.999Z</time></trkpt><trkpt lat="45.07854940914539" lon="9.721333497282343"><ele>47.0</ele><time>2026-05-01T06:12:42.999Z</time></trkpt><trkpt lat="45.07833344089345" lon="9.721560902453207"><ele>47.0</ele><time>2026-05-01T06:12:43.999Z</time></trkpt><trkpt lat="45.07812016333769" lon="9.721787833448397"><ele>47.0</ele><time>2026-05-01T06:12:44.999Z</time></trkpt><trkpt lat="45.07790457235757" lon="9.72200577467121"><ele>47.0</ele><time>2026-05-01T06:12:45.999Z</time></trkpt><trkpt lat="45.077688080929754" lon="9.722223187593778"><ele>47.0</ele><time>2026-05-01T06:12:46.999Z</time></trkpt><trkpt lat="45.07746722068547" lon="9.722447234439292"><ele>47.0</ele><time>2026-05-01T06:12:47.999Z</time></trkpt><trkpt lat="45.07724657199586" lon="9.722667986048203"><ele>46.5</ele><time>2026-05-01T06:12:48.999Z</time></trkpt><trkpt lat="45.07702667001979" lon="9.722882867124042"><ele>46.0</ele><time>2026-05-01T06:12:50Z</time></trkpt><trkpt lat="45.07680598014501" lon="9.723099718725678"><ele>45.5</ele><time>2026-05-01T06:12:51Z</time></trkpt><trkpt lat="45.07658463401768" lon="9.723320261450416"><ele>45.0</ele><time>2026-05-01T06:12:52Z</time></trkpt><trkpt lat="45.07636188584948" lon="9.723533272578493"><ele>46.0</ele><time>2026-05-01T06:12:53Z</time></trkpt><trkpt lat="45.07614074535697" lon="9.723746486838277"><ele>47.0</ele><time>2026-05-01T06:12:54Z</time></trkpt><trkpt lat="45.07592414382796" lon="9.723966850243926"><ele>46.5</ele><time>2026-05-01T06:12:55Z</time></trkpt><trkpt lat="45.07570528305369" lon="9.724187945672844"><ele>46.0</ele><time>2026-05-01T06:12:56Z</time></trkpt><trkpt lat="45.075480676259524" lon="9.724404175878487"><ele>47.0</ele><time>2026-05-01T06:12:57Z</time></trkpt><trkpt lat="45.07526782143803" lon="9.724613795293495"><ele>48.0</ele><time>2026-05-01T06:12:58Z</time></trkpt><trkpt lat="45.07507288295233" lon="9.7248023336182"><ele>47.0</ele><time>2026-05-01T06:12:59Z</time></trkpt><trkpt lat="45.07488097967758" lon="9.724980947068884"><ele>46.0</ele><time>2026-05-01T06:13:00Z</time></trkpt><trkpt lat="45.07469918169556" lon="9.725159589907935"><ele>47.0</ele><time>2026-05-01T06:13:01Z</time></trkpt><trkpt lat="45.074521158705835" lon="9.725337916753524"><ele>48.0</ele><time>2026-05-01T06:13:02Z</time></trkpt><trkpt lat="45.07433809396751" lon="9.725518918812218"><ele>49.0</ele><time>2026-05-01T06:13:03Z</time></trkpt><trkpt lat="45.074145380467044" lon="9.725709506538104"><ele>48.0</ele><time>2026-05-01T06:13:04Z</time></trkpt><trkpt lat="45.07395153987601" lon="9.725909829119233"><ele>47.0</ele><time>2026-05-01T06:13:05Z</time></trkpt><trkpt lat="45.073757501068265" lon="9.72611133077271"><ele>47.0</ele><time>2026-05-01T06:13:06Z</time></trkpt><trkpt lat="45.07356549802027" lon="9.726316855127616"><ele>47.0</ele><time>2026-05-01T06:13:07Z</time></trkpt><trkpt lat="45.07336915801125" lon="9.726516367023255"><ele>46.0</ele><time>2026-05-01T06:13:08Z</time></trkpt><trkpt lat="45.073178253568884" lon="9.726712568574895"><ele>45.0</ele><time>2026-05-01T06:13:09Z</time></trkpt><trkpt lat="45.0729884911281" lon="9.726903324866614"><ele>47.0</ele><time>2026-05-01T06:13:10Z</time></trkpt><trkpt lat="45.07279878095661" lon="9.727101832901251"><ele>49.0</ele><time>2026-05-01T06:13:11Z</time></trkpt><trkpt lat="45.072609668038695" lon="9.727303130398747"><ele>47.5</ele><time>2026-05-01T06:13:12Z</time></trkpt><trkpt lat="45.07241774828406" lon="9.727509166958152"><ele>46.0</ele><time>2026-05-01T06:13:13Z</time></trkpt><trkpt lat="45.07222526727942" lon="9.727714928877603"><ele>48.0</ele><time>2026-05-01T06:13:14Z</time></trkpt><trkpt lat="45.072027186314564" lon="9.727922123039926"><ele>50.0</ele><time>2026-05-01T06:13:15Z</time></trkpt><trkpt lat="45.07182703722162" lon="9.728129117110992"><ele>50.0</ele><time>2026-05-01T06:13:16Z</time></trkpt><trkpt lat="45.07162405897748" lon="9.728339440740973"><ele>50.0</ele><time>2026-05-01T06:13:17Z</time></trkpt><trkpt lat="45.07141741126728" lon="9.728560326534952"><ele>49.5</ele><time>2026-05-01T06:13:17.999Z</time></trkpt><trkpt lat="45.07120554759745" lon="9.728784185430403"><ele>49.0</ele><time>2026-05-01T06:13:18.999Z</time></trkpt><trkpt lat="45.07098611922422" lon="9.72901378994676"><ele>48.0</ele><time>2026-05-01T06:13:19.999Z</time></trkpt><trkpt lat="45.07076546355143" lon="9.729242396210001"><ele>47.0</ele><time>2026-05-01T06:13:20.999Z</time></trkpt><trkpt lat="45.07054240427183" lon="9.729468319281732"><ele>47.0</ele><time>2026-05-01T06:13:21.999Z</time></trkpt><trkpt lat="45.07031770711048" lon="9.729691477320968"><ele>47.0</ele><time>2026-05-01T06:13:22.999Z</time></trkpt><trkpt lat="45.07009355954083" lon="9.729914144199055"><ele>46.5</ele><time>2026-05-01T06:13:23.999Z</time></trkpt><trkpt lat="45.06986723739801" lon="9.730138757528364"><ele>46.0</ele><time>2026-05-01T06:13:24.999Z</time></trkpt><trkpt lat="45.06964320659637" lon="9.73036126328873"><ele>47.0</ele><time>2026-05-01T06:13:25.999Z</time></trkpt><trkpt lat="45.06941793402237" lon="9.730586479860944"><ele>48.0</ele><time>2026-05-01T06:13:26.999Z</time></trkpt><trkpt lat="45.06919369762631" lon="9.730815233418262"><ele>48.0</ele><time>2026-05-01T06:13:27.999Z</time></trkpt><trkpt lat="45.06896928310674" lon="9.731052413621978"><ele>48.0</ele><time>2026-05-01T06:13:28.999Z</time></trkpt><trkpt lat="45.06874239942089" lon="9.731285664636872"><ele>48.0</ele><time>2026-05-01T06:13:29.999Z</time></trkpt><trkpt lat="45.068511490566024" lon="9.731518357082585"><ele>48.0</ele><time>2026-05-01T06:13:30.999Z</time></trkpt><trkpt lat="45.06827815294649" lon="9.731756661523047"><ele>49.5</ele><time>2026-05-01T06:13:31.999Z</time></trkpt><trkpt lat="45.068040090647074" lon="9.73199729781781"><ele>51.0</ele><time>2026-05-01T06:13:32.999Z</time></trkpt><trkpt lat="45.06780018683521" lon="9.73223564623781"><ele>51.0</ele><time>2026-05-01T06:13:33.999Z</time></trkpt><trkpt lat="45.06755747536949" lon="9.732474058716981"><ele>51.0</ele><time>2026-05-01T06:13:34.999Z</time></trkpt><trkpt lat="45.0673128663763" lon="9.732713163382972"><ele>47.0</ele><time>2026-05-01T06:13:35.999Z</time></trkpt><trkpt lat="45.06706673451677" lon="9.732957298046575"><ele>43.0</ele><time>2026-05-01T06:13:36.999Z</time></trkpt><trkpt lat="45.06682180554683" lon="9.733196940316141"><ele>42.5</ele><time>2026-05-01T06:13:37.999Z</time></trkpt><trkpt lat="45.06657978614123" lon="9.733434785754753"><ele>42.0</ele><time>2026-05-01T06:13:38.999Z</time></trkpt><trkpt lat="45.06633943892384" lon="9.733673546600725"><ele>41.5</ele><time>2026-05-01T06:13:39.999Z</time></trkpt><trkpt lat="45.06609785077154" lon="9.733912292074407"><ele>41.0</ele><time>2026-05-01T06:13:40.999Z</time></trkpt><trkpt lat="45.065854414000626" lon="9.73415159579826"><ele>41.0</ele><time>2026-05-01T06:13:41.999Z</time></trkpt><trkpt lat="45.06560805041797" lon="9.734394970369005"><ele>41.0</ele><time>2026-05-01T06:13:42.999Z</time></trkpt><trkpt lat="45.06535798044867" lon="9.734640919308616"><ele>41.0</ele><time>2026-05-01T06:13:43.999Z</time></trkpt><trkpt lat="45.06510635367081" lon="9.734889073372036"><ele>41.0</ele><time>2026-05-01T06:13:44.999Z</time></trkpt><trkpt lat="45.06485407910741" lon="9.7351362565601"><ele>44.5</ele><time>2026-05-01T06:13:45.999Z</time></trkpt><trkpt lat="45.06459844762043" lon="9.73538784052391"><ele>48.0</ele><time>2026-05-01T06:13:46.999Z</time></trkpt><trkpt lat="45.06433983028906" lon="9.73564510865314"><ele>47.5</ele><time>2026-05-01T06:13:47.999Z</time></trkpt><trkpt lat="45.06407863899229" lon="9.735905612472955"><ele>47.0</ele><time>2026-05-01T06:13:48.999Z</time></trkpt><trkpt lat="45.06381645141113" lon="9.73616669445259"><ele>48.0</ele><time>2026-05-01T06:13:49.999Z</time></trkpt><trkpt lat="45.063553859400635" lon="9.736428760264484"><ele>49.0</ele><time>2026-05-01T06:13:50.999Z</time></trkpt><trkpt lat="45.06329270267576" lon="9.736688955234703"><ele>50.5</ele><time>2026-05-01T06:13:51.999Z</time></trkpt><trkpt lat="45.06302890448489" lon="9.736948202305479"><ele>52.0</ele><time>2026-05-01T06:13:52.999Z</time></trkpt><trkpt lat="45.062764921531105" lon="9.737205936842258"><ele>52.0</ele><time>2026-05-01T06:13:53.999Z</time></trkpt><trkpt lat="45.062501102853815" lon="9.73746427192679"><ele>52.0</ele><time>2026-05-01T06:13:54.999Z</time></trkpt><trkpt lat="45.062237801117334" lon="9.737723773774754"><ele>53.5</ele><time>2026-05-01T06:13:55.999Z</time></trkpt><trkpt lat="45.06197813381367" lon="9.737981688032406"><ele>55.0</ele><time>2026-05-01T06:13:56.999Z</time></trkpt><trkpt lat="45.061732437683716" lon="9.738216438092882"><ele>54.0</ele><time>2026-05-01T06:13:57.999Z</time></trkpt><trkpt lat="45.06152603745792" lon="9.738416260467863"><ele>53.0</ele><time>2026-05-01T06:13:58.999Z</time></trkpt><trkpt lat="45.061373149711535" lon="9.738562839162867"><ele>52.0</ele><time>2026-05-01T06:13:59.999Z</time></trkpt><trkpt lat="45.06124756516995" lon="9.738683852142772"><ele>52.0</ele><time>2026-05-01T06:14:00.999Z</time></trkpt><trkpt lat="45.06113621655456" lon="9.738790020262945"><ele>52.0</ele><time>2026-05-01T06:14:01.999Z</time></trkpt><trkpt lat="45.061038198895154" lon="9.738883830863731"><ele>52.0</ele><time>2026-05-01T06:14:02.999Z</time></trkpt><trkpt lat="45.0609584463176" lon="9.738956799588161"><ele>52.0</ele><time>2026-05-01T06:14:03.999Z</time></trkpt><trkpt lat="45.06088586527686" lon="9.739013798920954"><ele>52.0</ele><time>2026-05-01T06:14:04.999Z</time></trkpt><trkpt lat="45.06079376846577" lon="9.739082777904851"><ele>50.75</ele><time>2026-05-01T06:14:05.999Z</time></trkpt><trkpt lat="45.06068748991635" lon="9.739177412518794"><ele>49.5</ele><time>2026-05-01T06:14:06.999Z</time></trkpt><trkpt lat="45.06057882722886" lon="9.739281473551808"><ele>48.25</ele><time>2026-05-01T06:14:07.999Z</time></trkpt><trkpt lat="45.06046604576529" lon="9.739387607576615"><ele>47.0</ele><time>2026-05-01T06:14:08.999Z</time></trkpt><trkpt lat="45.060348798365204" lon="9.739494410417821"><ele>47.0</ele><time>2026-05-01T06:14:09.999Z</time></trkpt><trkpt lat="45.060226781060884" lon="9.739603641572568"><ele>47.0</ele><time>2026-05-01T06:14:10.999Z</time></trkpt><trkpt lat="45.060104257196805" lon="9.73971560580097"><ele>47.0</ele><time>2026-05-01T06:14:11.999Z</time></trkpt><trkpt lat="45.05998414650182" lon="9.739828426108323"><ele>47.0</ele><time>2026-05-01T06:14:12.999Z</time></trkpt><trkpt lat="45.05986483384694" lon="9.739942606115768"><ele>46.666666666666664</ele><time>2026-05-01T06:14:13.999Z</time></trkpt><trkpt lat="45.059740639762296" lon="9.740054403702947"><ele>46.333333333333336</ele><time>2026-05-01T06:14:14.999Z</time></trkpt><trkpt lat="45.0596084107129" lon="9.740152611691943"><ele>46.0</ele><time>2026-05-01T06:14:15.999Z</time></trkpt><trkpt lat="45.05946948270446" lon="9.740250874419804"><ele>46.0</ele><time>2026-05-01T06:14:16.999Z</time></trkpt><trkpt lat="45.059341785901694" lon="9.740357851660939"><ele>46.0</ele><time>2026-05-01T06:14:17.999Z</time></trkpt><trkpt lat="45.05921957329437" lon="9.740469004425096"><ele>46.0</ele><time>2026-05-01T06:14:18.999Z</time></trkpt><trkpt lat="45.059089520691266" lon="9.740571168614824"><ele>46.0</ele><time>2026-05-01T06:14:19.999Z</time></trkpt><trkpt lat="45.05894639171658" lon="9.740698642160286"><ele>46.0</ele><time>2026-05-01T06:14:20.999Z</time></trkpt><trkpt lat="45.05879693082186" lon="9.740845966104832"><ele>46.0</ele><time>2026-05-01T06:14:21.999Z</time></trkpt><trkpt lat="45.05864685150575" lon="9.740989494299404"><ele>46.0</ele><time>2026-05-01T06:14:22.999Z</time></trkpt><trkpt lat="45.05849780835222" lon="9.741134670859525"><ele>46.0</ele><time>2026-05-01T06:14:23.999Z</time></trkpt><trkpt lat="45.05834604367031" lon="9.741281533504585"><ele>46.0</ele><time>2026-05-01T06:14:24.999Z</time></trkpt><trkpt lat="45.05819180676368" lon="9.741430233282113"><ele>46.0</ele><time>2026-05-01T06:14:25.999Z</time></trkpt><trkpt lat="45.05803611430594" lon="9.74158430250946"><ele>45.66666666666667</ele><time>2026-05-01T06:14:26.999Z</time></trkpt><trkpt lat="45.05787754760888" lon="9.741740479131026"><ele>45.333333333333336</ele><time>2026-05-01T06:14:27.999Z</time></trkpt><trkpt lat="45.05771783666136" lon="9.74189944977323"><ele>45.0</ele><time>2026-05-01T06:14:28.999Z</time></trkpt><trkpt lat="45.0575567932495" lon="9.742063330970264"><ele>44.666666666666664</ele><time>2026-05-01T06:14:29.999Z</time></trkpt><trkpt lat="45.0573948860763" lon="9.742224778424172"><ele>44.33333333333333</ele><time>2026-05-01T06:14:30.999Z</time></trkpt><trkpt lat="45.05723073324712" lon="9.742382553231066"><ele>44.0</ele><time>2026-05-01T06:14:31.999Z</time></trkpt><trkpt lat="45.057071928809336" lon="9.742540563937817"><ele>44.0</ele><time>2026-05-01T06:14:32.999Z</time></trkpt><trkpt lat="45.05690745551268" lon="9.742713574754726"><ele>44.0</ele><time>2026-05-01T06:14:33.999Z</time></trkpt><trkpt lat="45.056736116710894" lon="9.742882549747431"><ele>44.0</ele><time>2026-05-01T06:14:34.999Z</time></trkpt><trkpt lat="45.05656459879348" lon="9.743046048476712"><ele>44.0</ele><time>2026-05-01T06:14:35.999Z</time></trkpt><trkpt lat="45.056393325161416" lon="9.74321480080793"><ele>44.0</ele><time>2026-05-01T06:14:36.999Z</time></trkpt><trkpt lat="45.056222734341446" lon="9.743381516459593"><ele>44.0</ele><time>2026-05-01T06:14:37.999Z</time></trkpt><trkpt lat="45.056053221627465" lon="9.743553213654948"><ele>44.666666666666664</ele><time>2026-05-01T06:14:38.999Z</time></trkpt><trkpt lat="45.055879767328854" lon="9.743724138670844"><ele>45.333333333333336</ele><time>2026-05-01T06:14:39.999Z</time></trkpt><trkpt lat="45.05570745589846" lon="9.743892347830638"><ele>46.0</ele><time>2026-05-01T06:14:40.999Z</time></trkpt><trkpt lat="45.05553374749595" lon="9.74406168591898"><ele>46.0</ele><time>2026-05-01T06:14:41.999Z</time></trkpt><trkpt lat="45.05536032867739" lon="9.744234855984521"><ele>46.0</ele><time>2026-05-01T06:14:42.999Z</time></trkpt><trkpt lat="45.055184401171665" lon="9.744409290515433"><ele>46.0</ele><time>2026-05-01T06:14:43.999Z</time></trkpt><trkpt lat="45.055006409378954" lon="9.744585052757973"><ele>46.333333333333336</ele><time>2026-05-01T06:14:44.999Z</time></trkpt><trkpt lat="45.05482976684985" lon="9.744768701490198"><ele>46.666666666666664</ele><time>2026-05-01T06:14:45.999Z</time></trkpt><trkpt lat="45.05465213924941" lon="9.744953314956753"><ele>47.0</ele><time>2026-05-01T06:14:46.999Z</time></trkpt><trkpt lat="45.054473354699" lon="9.745130525239883"><ele>46.666666666666664</ele><time>2026-05-01T06:14:47.999Z</time></trkpt><trkpt lat="45.05429967442605" lon="9.745309598882914"><ele>46.333333333333336</ele><time>2026-05-01T06:14:48.999Z</time></trkpt><trkpt lat="45.05412775745771" lon="9.745484578431725"><ele>46.0</ele><time>2026-05-01T06:14:49.999Z</time></trkpt><trkpt lat="45.05395360755718" lon="9.74566188844428"><ele>46.0</ele><time>2026-05-01T06:14:50.999Z</time></trkpt><trkpt lat="45.053778660332384" lon="9.745838333295529"><ele>46.0</ele><time>2026-05-01T06:14:51.999Z</time></trkpt><trkpt lat="45.0536003871475" lon="9.746019462854164"><ele>46.0</ele><time>2026-05-01T06:14:52.999Z</time></trkpt><trkpt lat="45.053418451778896" lon="9.746202125994328"><ele>47.0</ele><time>2026-05-01T06:14:53.999Z</time></trkpt><trkpt lat="45.05323680109574" lon="9.746383442730426"><ele>48.0</ele><time>2026-05-01T06:14:54.999Z</time></trkpt><trkpt lat="45.053052825072626" lon="9.746564981270968"><ele>49.0</ele><time>2026-05-01T06:14:56Z</time></trkpt><trkpt lat="45.05286929468182" lon="9.746746037993956"><ele>48.666666666666664</ele><time>2026-05-01T06:14:57Z</time></trkpt><trkpt lat="45.052684676965036" lon="9.74692854408652"><ele>48.33333333333333</ele><time>2026-05-01T06:14:58Z</time></trkpt><trkpt lat="45.0525020076654" lon="9.747110606115315"><ele>48.0</ele><time>2026-05-01T06:14:59Z</time></trkpt><trkpt lat="45.05232465087216" lon="9.74728501603034"><ele>47.666666666666664</ele><time>2026-05-01T06:15:00Z</time></trkpt><trkpt lat="45.05214847808272" lon="9.74745904592954"><ele>47.33333333333333</ele><time>2026-05-01T06:15:01Z</time></trkpt><trkpt lat="45.051970976055316" lon="9.747631815549106"><ele>47.0</ele><time>2026-05-01T06:15:02Z</time></trkpt><trkpt lat="45.05179691354404" lon="9.74780157411844"><ele>47.0</ele><time>2026-05-01T06:15:03Z</time></trkpt><trkpt lat="45.05163294017933" lon="9.747966304331209"><ele>47.0</ele><time>2026-05-01T06:15:04Z</time></trkpt><trkpt lat="45.05147649681978" lon="9.748126727027357"><ele>47.0</ele><time>2026-05-01T06:15:05Z</time></trkpt><trkpt lat="45.051317008411694" lon="9.748285435210283"><ele>47.0</ele><time>2026-05-01T06:15:06Z</time></trkpt><trkpt lat="45.05114664809951" lon="9.748448674487667"><ele>47.0</ele><time>2026-05-01T06:15:07Z</time></trkpt><trkpt lat="45.050984691572" lon="9.748612464463111"><ele>47.0</ele><time>2026-05-01T06:15:08Z</time></trkpt><trkpt lat="45.05082061055555" lon="9.748769516526526"><ele>46.33333333333333</ele><time>2026-05-01T06:15:09Z</time></trkpt><trkpt lat="45.05066196828662" lon="9.748924642432305"><ele>45.666666666666664</ele><time>2026-05-01T06:15:10Z</time></trkpt><trkpt lat="45.05049955791882" lon="9.74907457791093"><ele>45.0</ele><time>2026-05-01T06:15:11Z</time></trkpt><trkpt lat="45.05034564116097" lon="9.749228182789064"><ele>45.333333333333336</ele><time>2026-05-01T06:15:12Z</time></trkpt><trkpt lat="45.050188822699646" lon="9.74938227099411"><ele>45.66666666666667</ele><time>2026-05-01T06:15:13Z</time></trkpt><trkpt lat="45.05003619734527" lon="9.749538953539934"><ele>46.0</ele><time>2026-05-01T06:15:14Z</time></trkpt><trkpt lat="45.04989132913218" lon="9.749685677849445"><ele>45.0</ele><time>2026-05-01T06:15:15Z</time></trkpt><trkpt lat="45.0497532294316" lon="9.749823176967338"><ele>44.0</ele><time>2026-05-01T06:15:16Z</time></trkpt><trkpt lat="45.04961625689935" lon="9.749951792259175"><ele>43.0</ele><time>2026-05-01T06:15:17Z</time></trkpt><trkpt lat="45.04948203948097" lon="9.750064732513538"><ele>43.0</ele><time>2026-05-01T06:15:18Z</time></trkpt><trkpt lat="45.04934914330118" lon="9.750178569734574"><ele>43.0</ele><time>2026-05-01T06:15:19Z</time></trkpt><trkpt lat="45.04921562407522" lon="9.75030563019879"><ele>43.0</ele><time>2026-05-01T06:15:20Z</time></trkpt><trkpt lat="45.04908560196851" lon="9.750435542107391"><ele>43.5</ele><time>2026-05-01T06:15:21Z</time></trkpt><trkpt lat="45.04896958909232" lon="9.750562865815775"><ele>44.0</ele><time>2026-05-01T06:15:21.999Z</time></trkpt><trkpt lat="45.04885955512708" lon="9.750674092779219"><ele>44.5</ele><time>2026-05-01T06:15:22.999Z</time></trkpt><trkpt lat="45.04876697984116" lon="9.750772499063384"><ele>45.0</ele><time>2026-05-01T06:15:23.999Z</time></trkpt><trkpt lat="45.04867900469267" lon="9.750854592771656"><ele>45.0</ele><time>2026-05-01T06:15:24.999Z</time></trkpt><trkpt lat="45.048598141290455" lon="9.750938105865744"><ele>45.0</ele><time>2026-05-01T06:15:25.999Z</time></trkpt><trkpt lat="45.04852336534646" lon="9.751018636752367"><ele>45.0</ele><time>2026-05-01T06:15:26.999Z</time></trkpt><trkpt lat="45.04845263598967" lon="9.751093338269264"><ele>45.0</ele><time>2026-05-01T06:15:27.999Z</time></trkpt><trkpt lat="45.04837665598565" lon="9.751170792023252"><ele>45.0</ele><time>2026-05-01T06:15:28.999Z</time></trkpt><trkpt lat="45.04830110855395" lon="9.751252177791356"><ele>45.14285714285714</ele><time>2026-05-01T06:15:29.999Z</time></trkpt><trkpt lat="45.04822981969703" lon="9.751327690146507"><ele>45.28571428571429</ele><time>2026-05-01T06:15:30.999Z</time></trkpt><trkpt lat="45.04816667822199" lon="9.751392417672784"><ele>45.42857142857143</ele><time>2026-05-01T06:15:31.999Z</time></trkpt><trkpt lat="45.04811030488518" lon="9.75145136872412"><ele>45.57142857142857</ele><time>2026-05-01T06:15:32.999Z</time></trkpt><trkpt lat="45.04805664746664" lon="9.751506805316845"><ele>45.71428571428571</ele><time>2026-05-01T06:15:33.999Z</time></trkpt><trkpt lat="45.04800077160919" lon="9.751560699628355"><ele>45.85714285714286</ele><time>2026-05-01T06:15:34.999Z</time></trkpt><trkpt lat="45.047937188164866" lon="9.751617180443114"><ele>46.0</ele><time>2026-05-01T06:15:35.999Z</time></trkpt><trkpt lat="45.04787425245947" lon="9.751675646494922"><ele>46.0</ele><time>2026-05-01T06:15:36.999Z</time></trkpt><trkpt lat="45.04781136974776" lon="9.75173907327264"><ele>46.0</ele><time>2026-05-01T06:15:37.999Z</time></trkpt><trkpt lat="45.04774477154955" lon="9.75180353143307"><ele>46.0</ele><time>2026-05-01T06:15:38.999Z</time></trkpt><trkpt lat="45.0476792919793" lon="9.751868209478037"><ele>46.0</ele><time>2026-05-01T06:15:39.999Z</time></trkpt><trkpt lat="45.047618905925845" lon="9.751924979822503"><ele>46.0</ele><time>2026-05-01T06:15:40.999Z</time></trkpt><trkpt lat="45.04755718371614" lon="9.751981640593968"><ele>46.0</ele><time>2026-05-01T06:15:41.999Z</time></trkpt><trkpt lat="45.04749456592386" lon="9.752034679794676"><ele>45.75</ele><time>2026-05-01T06:15:42.999Z</time></trkpt><trkpt lat="45.04743621846672" lon="9.752080098005422"><ele>45.5</ele><time>2026-05-01T06:15:43.999Z</time></trkpt><trkpt lat="45.0472988082968" lon="9.75219480106815"><ele>45.25</ele><time>2026-05-01T06:15:45.999Z</time></trkpt><trkpt lat="45.047186922295694" lon="9.752293928775057"><ele>45.0</ele><time>2026-05-01T06:15:46.999Z</time></trkpt><trkpt lat="45.047076162516035" lon="9.752406667452059"><ele>45.0</ele><time>2026-05-01T06:15:47.999Z</time></trkpt><trkpt lat="45.046941149591625" lon="9.752542979142204"><ele>45.0</ele><time>2026-05-01T06:15:48.999Z</time></trkpt><trkpt lat="45.04679304280691" lon="9.752689744703618"><ele>45.0</ele><time>2026-05-01T06:15:49.999Z</time></trkpt><trkpt lat="45.04664209344647" lon="9.752835924577749"><ele>44.666666666666664</ele><time>2026-05-01T06:15:50.999Z</time></trkpt><trkpt lat="45.046484683041385" lon="9.752989133842473"><ele>44.33333333333333</ele><time>2026-05-01T06:15:51.999Z</time></trkpt><trkpt lat="45.04631888493983" lon="9.753156585272556"><ele>44.0</ele><time>2026-05-01T06:15:52.999Z</time></trkpt><trkpt lat="45.04614789372119" lon="9.75332606858334"><ele>44.0</ele><time>2026-05-01T06:15:53.999Z</time></trkpt><trkpt lat="45.045978608574856" lon="9.753494305857364"><ele>44.0</ele><time>2026-05-01T06:15:54.999Z</time></trkpt><trkpt lat="45.04580354879229" lon="9.753666194854498"><ele>44.0</ele><time>2026-05-01T06:15:55.999Z</time></trkpt><trkpt lat="45.04563031760355" lon="9.753834735776392"><ele>44.33333333333333</ele><time>2026-05-01T06:15:56.999Z</time></trkpt><trkpt lat="45.04545344532177" lon="9.754009176806495"><ele>44.666666666666664</ele><time>2026-05-01T06:15:57.999Z</time></trkpt><trkpt lat="45.04527829553875" lon="9.75418733107221"><ele>45.0</ele><time>2026-05-01T06:15:58.999Z</time></trkpt><trkpt lat="45.045103441899805" lon="9.754363769553866"><ele>45.333333333333336</ele><time>2026-05-01T06:15:59.999Z</time></trkpt><trkpt lat="45.04492849034722" lon="9.754537222922675"><ele>45.66666666666667</ele><time>2026-05-01T06:16:00.999Z</time></trkpt><trkpt lat="45.04475250606133" lon="9.75470736215567"><ele>46.0</ele><time>2026-05-01T06:16:01.999Z</time></trkpt><trkpt lat="45.04458004714832" lon="9.754875748563475"><ele>46.0</ele><time>2026-05-01T06:16:02.999Z</time></trkpt><trkpt lat="45.044409054457525" lon="9.755044215439224"><ele>46.0</ele><time>2026-05-01T06:16:03.999Z</time></trkpt><trkpt lat="45.04424012209918" lon="9.755213853544232"><ele>46.0</ele><time>2026-05-01T06:16:04.999Z</time></trkpt><trkpt lat="45.04407305395396" lon="9.75538388126397"><ele>45.66666666666667</ele><time>2026-05-01T06:16:05.999Z</time></trkpt><trkpt lat="45.043905282441635" lon="9.755551840915171"><ele>45.333333333333336</ele><time>2026-05-01T06:16:06.999Z</time></trkpt><trkpt lat="45.04373505489454" lon="9.755717806166695"><ele>45.0</ele><time>2026-05-01T06:16:07.999Z</time></trkpt><trkpt lat="45.04356894739591" lon="9.755879145153285"><ele>45.0</ele><time>2026-05-01T06:16:08.999Z</time></trkpt><trkpt lat="45.043402923642574" lon="9.75604142479663"><ele>45.0</ele><time>2026-05-01T06:16:09.999Z</time></trkpt><trkpt lat="45.04324127817599" lon="9.756201912802286"><ele>45.0</ele><time>2026-05-01T06:16:10.999Z</time></trkpt><trkpt lat="45.04307260970719" lon="9.756367418850523"><ele>44.333333333333336</ele><time>2026-05-01T06:16:11.999Z</time></trkpt><trkpt lat="45.04291088045028" lon="9.75652503626481"><ele>43.66666666666667</ele><time>2026-05-01T06:16:12.999Z</time></trkpt><trkpt lat="45.04274129825663" lon="9.756690000615668"><ele>43.0</ele><time>2026-05-01T06:16:13.999Z</time></trkpt><trkpt lat="45.04257050256519" lon="9.75685783637571"><ele>43.333333333333336</ele><time>2026-05-01T06:16:14.999Z</time></trkpt><trkpt lat="45.04239661050212" lon="9.757026229756512"><ele>43.666666666666664</ele><time>2026-05-01T06:16:15.999Z</time></trkpt><trkpt lat="45.04222146917921" lon="9.757196738061358"><ele>44.0</ele><time>2026-05-01T06:16:16.999Z</time></trkpt><trkpt lat="45.04204380754327" lon="9.757372169565274"><ele>44.0</ele><time>2026-05-01T06:16:17.999Z</time></trkpt><trkpt lat="45.041863707416994" lon="9.757549861685263"><ele>44.0</ele><time>2026-05-01T06:16:18.999Z</time></trkpt><trkpt lat="45.04168144072376" lon="9.757734304276454"><ele>44.0</ele><time>2026-05-01T06:16:19.999Z</time></trkpt><trkpt lat="45.04149887731492" lon="9.757921311797825"><ele>44.33333333333333</ele><time>2026-05-01T06:16:20.999Z</time></trkpt><trkpt lat="45.04131757224577" lon="9.758105575970914"><ele>44.666666666666664</ele><time>2026-05-01T06:16:21.999Z</time></trkpt><trkpt lat="45.041133229940996" lon="9.758288011491558"><ele>45.0</ele><time>2026-05-01T06:16:22.999Z</time></trkpt><trkpt lat="45.040946923860176" lon="9.758467717125436"><ele>45.5</ele><time>2026-05-01T06:16:23.999Z</time></trkpt><trkpt lat="45.04076106425849" lon="9.758651011554038"><ele>46.0</ele><time>2026-05-01T06:16:24.999Z</time></trkpt><trkpt lat="45.04057304742474" lon="9.758837798973493"><ele>46.0</ele><time>2026-05-01T06:16:25.999Z</time></trkpt><trkpt lat="45.04038763182087" lon="9.7590305090891"><ele>46.0</ele><time>2026-05-01T06:16:26.999Z</time></trkpt><trkpt lat="45.04020305593174" lon="9.75922430092009"><ele>45.5</ele><time>2026-05-01T06:16:27.999Z</time></trkpt><trkpt lat="45.04001665656031" lon="9.759414517265926"><ele>45.0</ele><time>2026-05-01T06:16:28.999Z</time></trkpt><trkpt lat="45.03982952815417" lon="9.759602807297153"><ele>47.0</ele><time>2026-05-01T06:16:29.999Z</time></trkpt><trkpt lat="45.039639037593794" lon="9.759791694603294"><ele>49.0</ele><time>2026-05-01T06:16:30.999Z</time></trkpt><trkpt lat="45.0394488876298" lon="9.759978983586052"><ele>49.0</ele><time>2026-05-01T06:16:31.999Z</time></trkpt><trkpt lat="45.0392564914221" lon="9.760171332830902"><ele>49.0</ele><time>2026-05-01T06:16:32.999Z</time></trkpt><trkpt lat="45.039065367662126" lon="9.760362888318372"><ele>49.0</ele><time>2026-05-01T06:16:33.999Z</time></trkpt><trkpt lat="45.03887533950455" lon="9.760552420924812"><ele>49.0</ele><time>2026-05-01T06:16:34.999Z</time></trkpt><trkpt lat="45.03868464865327" lon="9.760741326628546"><ele>49.0</ele><time>2026-05-01T06:16:35.999Z</time></trkpt><trkpt lat="45.038499613478166" lon="9.760934578123518"><ele>49.0</ele><time>2026-05-01T06:16:36.999Z</time></trkpt><trkpt lat="45.038314182027115" lon="9.761121070090576"><ele>49.33333333333333</ele><time>2026-05-01T06:16:37.999Z</time></trkpt><trkpt lat="45.038138267476015" lon="9.76130161487213"><ele>49.66666666666667</ele><time>2026-05-01T06:16:38.999Z</time></trkpt><trkpt lat="45.03796747623742" lon="9.761477144340091"><ele>50.0</ele><time>2026-05-01T06:16:39.999Z</time></trkpt><trkpt lat="45.03779809180935" lon="9.76164891986888"><ele>50.0</ele><time>2026-05-01T06:16:40.999Z</time></trkpt><trkpt lat="45.03763223866675" lon="9.761820206076425"><ele>50.0</ele><time>2026-05-01T06:16:41.999Z</time></trkpt><trkpt lat="45.037468815499324" lon="9.761983039419748"><ele>50.0</ele><time>2026-05-01T06:16:42.999Z</time></trkpt><trkpt lat="45.037305201709856" lon="9.76214647919956"><ele>50.0</ele><time>2026-05-01T06:16:43.999Z</time></trkpt><trkpt lat="45.037145691582566" lon="9.762309093955269"><ele>50.0</ele><time>2026-05-01T06:16:44.999Z</time></trkpt><trkpt lat="45.036989580931426" lon="9.762466490247217"><ele>50.0</ele><time>2026-05-01T06:16:45.999Z</time></trkpt><trkpt lat="45.03682999657859" lon="9.762625422600305"><ele>50.333333333333336</ele><time>2026-05-01T06:16:46.999Z</time></trkpt><trkpt lat="45.03666884206766" lon="9.762783020192728"><ele>50.66666666666667</ele><time>2026-05-01T06:16:47.999Z</time></trkpt><trkpt lat="45.03650427061079" lon="9.762945167298476"><ele>51.0</ele><time>2026-05-01T06:16:48.999Z</time></trkpt><trkpt lat="45.03633645740634" lon="9.763112919020303"><ele>51.0</ele><time>2026-05-01T06:16:49.999Z</time></trkpt><trkpt lat="45.03617134585769" lon="9.763272909775603"><ele>51.0</ele><time>2026-05-01T06:16:50.999Z</time></trkpt><trkpt lat="45.035998904357115" lon="9.763438901050245"><ele>51.0</ele><time>2026-05-01T06:16:51.999Z</time></trkpt><trkpt lat="45.035817387130415" lon="9.763597671968464"><ele>52.0</ele><time>2026-05-01T06:16:52.999Z</time></trkpt><trkpt lat="45.0356249473946" lon="9.76375852568457"><ele>53.0</ele><time>2026-05-01T06:16:53.999Z</time></trkpt><trkpt lat="45.03542802918664" lon="9.763939640709214"><ele>53.0</ele><time>2026-05-01T06:16:54.999Z</time></trkpt><trkpt lat="45.03523113069333" lon="9.764133131949055"><ele>53.0</ele><time>2026-05-01T06:16:56Z</time></trkpt><trkpt lat="45.035035158085705" lon="9.764331604052742"><ele>53.5</ele><time>2026-05-01T06:16:57Z</time></trkpt><trkpt lat="45.03484055043941" lon="9.764527312240086"><ele>54.0</ele><time>2026-05-01T06:16:58Z</time></trkpt><trkpt lat="45.03464477166609" lon="9.764721480825665"><ele>54.0</ele><time>2026-05-01T06:16:59Z</time></trkpt><trkpt lat="45.03444860213461" lon="9.764913354440607"><ele>54.0</ele><time>2026-05-01T06:17:00Z</time></trkpt><trkpt lat="45.03425364057137" lon="9.765101423734587"><ele>54.5</ele><time>2026-05-01T06:17:01Z</time></trkpt><trkpt lat="45.03406303738146" lon="9.765284344625563"><ele>55.0</ele><time>2026-05-01T06:17:02.001Z</time></trkpt><trkpt lat="45.03388289949243" lon="9.765463732599004"><ele>55.0</ele><time>2026-05-01T06:17:03.001Z</time></trkpt><trkpt lat="45.03370956808298" lon="9.765634026619379"><ele>55.0</ele><time>2026-05-01T06:17:04.001Z</time></trkpt><trkpt lat="45.03354845362445" lon="9.765794534425456"><ele>55.0</ele><time>2026-05-01T06:17:05.001Z</time></trkpt><trkpt lat="45.03339886296908" lon="9.765943358762325"><ele>54.33333333333333</ele><time>2026-05-01T06:17:06.001Z</time></trkpt><trkpt lat="45.033252825300224" lon="9.766086023001167"><ele>53.66666666666667</ele><time>2026-05-01T06:17:07.001Z</time></trkpt><trkpt lat="45.03311369682205" lon="9.76621579642126"><ele>53.0</ele><time>2026-05-01T06:17:08.001Z</time></trkpt><trkpt lat="45.03297999674754" lon="9.766337667027408"><ele>53.0</ele><time>2026-05-01T06:17:09.001Z</time></trkpt><trkpt lat="45.032852274983675" lon="9.7664587890076"><ele>53.0</ele><time>2026-05-01T06:17:10.001Z</time></trkpt><trkpt lat="45.03271663058971" lon="9.766589953745154"><ele>53.0</ele><time>2026-05-01T06:17:11.001Z</time></trkpt><trkpt lat="45.03257723988461" lon="9.766724437273341"><ele>53.0</ele><time>2026-05-01T06:17:12.001Z</time></trkpt><trkpt lat="45.03243765481485" lon="9.766863227883453"><ele>53.0</ele><time>2026-05-01T06:17:13.001Z</time></trkpt><trkpt lat="45.03229903465412" lon="9.767003127001097"><ele>53.0</ele><time>2026-05-01T06:17:14.001Z</time></trkpt><trkpt lat="45.0321565647891" lon="9.767141622096563"><ele>53.0</ele><time>2026-05-01T06:17:15.001Z</time></trkpt><trkpt lat="45.03201563659532" lon="9.767283069287203"><ele>53.0</ele><time>2026-05-01T06:17:16.001Z</time></trkpt><trkpt lat="45.03188215659605" lon="9.767418011387166"><ele>53.0</ele><time>2026-05-01T06:17:17.001Z</time></trkpt><trkpt lat="45.031754718849086" lon="9.767540789283624"><ele>53.25</ele><time>2026-05-01T06:17:18.001Z</time></trkpt><trkpt lat="45.03163544526635" lon="9.767659688813135"><ele>53.5</ele><time>2026-05-01T06:17:19.001Z</time></trkpt><trkpt lat="45.031514346802204" lon="9.767775417149393"><ele>53.75</ele><time>2026-05-01T06:17:20.001Z</time></trkpt><trkpt lat="45.031396420612325" lon="9.76788897689078"><ele>54.0</ele><time>2026-05-01T06:17:21.001Z</time></trkpt><trkpt lat="45.03128722723584" lon="9.767996257769337"><ele>54.0</ele><time>2026-05-01T06:17:22.001Z</time></trkpt><trkpt lat="45.03118281509858" lon="9.768100934829608"><ele>54.0</ele><time>2026-05-01T06:17:23.001Z</time></trkpt><trkpt lat="45.031069290774134" lon="9.768209647273103"><ele>54.0</ele><time>2026-05-01T06:17:24.001Z</time></trkpt><trkpt lat="45.03094909201376" lon="9.768325303262541"><ele>54.0</ele><time>2026-05-01T06:17:25Z</time></trkpt><trkpt lat="45.030827210580995" lon="9.76844686374376"><ele>54.0</ele><time>2026-05-01T06:17:26Z</time></trkpt><trkpt lat="45.03070467219121" lon="9.76857027450617"><ele>54.0</ele><time>2026-05-01T06:17:27Z</time></trkpt><trkpt lat="45.03057956034074" lon="9.768693905301035"><ele>54.0</ele><time>2026-05-01T06:17:28Z</time></trkpt><trkpt lat="45.03045466779514" lon="9.768816561734052"><ele>54.0</ele><time>2026-05-01T06:17:29Z</time></trkpt><trkpt lat="45.03032840774942" lon="9.768941540913861"><ele>54.0</ele><time>2026-05-01T06:17:30Z</time></trkpt><trkpt lat="45.0302046235133" lon="9.769065549491058"><ele>54.0</ele><time>2026-05-01T06:17:31Z</time></trkpt><trkpt lat="45.03008176712766" lon="9.769186011088497"><ele>54.0</ele><time>2026-05-01T06:17:32Z</time></trkpt><trkpt lat="45.02996128583438" lon="9.76930133191329"><ele>54.0</ele><time>2026-05-01T06:17:33Z</time></trkpt><trkpt lat="45.029843048654975" lon="9.769419394443583"><ele>54.0</ele><time>2026-05-01T06:17:34Z</time></trkpt><trkpt lat="45.02972407418262" lon="9.769535892339336"><ele>54.0</ele><time>2026-05-01T06:17:35Z</time></trkpt><trkpt lat="45.02960682444519" lon="9.769652059256893"><ele>54.0</ele><time>2026-05-01T06:17:36Z</time></trkpt><trkpt lat="45.029490900637306" lon="9.769769381695738"><ele>54.0</ele><time>2026-05-01T06:17:37Z</time></trkpt><trkpt lat="45.029377492879085" lon="9.769877118396277"><ele>54.0</ele><time>2026-05-01T06:17:38Z</time></trkpt><trkpt lat="45.029275734529584" lon="9.769975860865923"><ele>54.0</ele><time>2026-05-01T06:17:39Z</time></trkpt><trkpt lat="45.02917922741247" lon="9.770071137597316"><ele>54.0</ele><time>2026-05-01T06:17:40Z</time></trkpt><trkpt lat="45.02908440650668" lon="9.770167729463592"><ele>54.0</ele><time>2026-05-01T06:17:41Z</time></trkpt><trkpt lat="45.0289819600787" lon="9.77026690495238"><ele>54.0</ele><time>2026-05-01T06:17:42Z</time></trkpt><trkpt lat="45.028878711761145" lon="9.770365823340448"><ele>54.0</ele><time>2026-05-01T06:17:43Z</time></trkpt><trkpt lat="45.02877398931435" lon="9.770469842235878"><ele>54.25</ele><time>2026-05-01T06:17:44Z</time></trkpt><trkpt lat="45.02866996827599" lon="9.770579458026011"><ele>54.5</ele><time>2026-05-01T06:17:45Z</time></trkpt><trkpt lat="45.02856063777441" lon="9.770691132045659"><ele>54.75</ele><time>2026-05-01T06:17:46Z</time></trkpt><trkpt lat="45.02844569458739" lon="9.770804237929562"><ele>55.0</ele><time>2026-05-01T06:17:47Z</time></trkpt><trkpt lat="45.028326596902204" lon="9.770918785600669"><ele>54.5</ele><time>2026-05-01T06:17:48Z</time></trkpt><trkpt lat="45.028205544994194" lon="9.771035892707197"><ele>54.0</ele><time>2026-05-01T06:17:49Z</time></trkpt><trkpt lat="45.028087909954095" lon="9.771150771966731"><ele>53.5</ele><time>2026-05-01T06:17:50Z</time></trkpt><trkpt lat="45.027973646790464" lon="9.771266155717097"><ele>53.0</ele><time>2026-05-01T06:17:51Z</time></trkpt><trkpt lat="45.02786170821425" lon="9.771376961358953"><ele>53.0</ele><time>2026-05-01T06:17:52Z</time></trkpt><trkpt lat="45.027749311145875" lon="9.771487110411623"><ele>53.0</ele><time>2026-05-01T06:17:53Z</time></trkpt><trkpt lat="45.02763305961534" lon="9.771601182132194"><ele>53.0</ele><time>2026-05-01T06:17:54Z</time></trkpt><trkpt lat="45.02751482418354" lon="9.771715978001952"><ele>53.0</ele><time>2026-05-01T06:17:55Z</time></trkpt><trkpt lat="45.02739571852709" lon="9.771833319645943"><ele>53.25</ele><time>2026-05-01T06:17:56Z</time></trkpt><trkpt lat="45.02727778050432" lon="9.77194987842055"><ele>53.5</ele><time>2026-05-01T06:17:57Z</time></trkpt><trkpt lat="45.027161040367695" lon="9.772064513709273"><ele>53.75</ele><time>2026-05-01T06:17:58Z</time></trkpt><trkpt lat="45.027044429001045" lon="9.772178516897812"><ele>54.0</ele><time>2026-05-01T06:17:59Z</time></trkpt><trkpt lat="45.02693030821854" lon="9.772292094901893"><ele>54.0</ele><time>2026-05-01T06:18:00Z</time></trkpt><trkpt lat="45.02681941396765" lon="9.772403576953469"><ele>54.0</ele><time>2026-05-01T06:18:01Z</time></trkpt><trkpt lat="45.02670977759159" lon="9.772510648581076"><ele>54.0</ele><time>2026-05-01T06:18:02Z</time></trkpt><trkpt lat="45.02660249993268" lon="9.772611820196264"><ele>54.0</ele><time>2026-05-01T06:18:03Z</time></trkpt><trkpt lat="45.026500963078206" lon="9.772709617459165"><ele>53.6</ele><time>2026-05-01T06:18:04Z</time></trkpt><trkpt lat="45.026405982655255" lon="9.77280445553359"><ele>53.2</ele><time>2026-05-01T06:18:05Z</time></trkpt><trkpt lat="45.02631885258483" lon="9.772892727635284"><ele>52.800000000000004</ele><time>2026-05-01T06:18:06Z</time></trkpt><trkpt lat="45.026238087618694" lon="9.77297621306975"><ele>52.400000000000006</ele><time>2026-05-01T06:18:07Z</time></trkpt><trkpt lat="45.026166930240144" lon="9.773042678313736"><ele>52.0</ele><time>2026-05-01T06:18:08Z</time></trkpt><trkpt lat="45.02609919295923" lon="9.773099616272217"><ele>52.0</ele><time>2026-05-01T06:18:09Z</time></trkpt><trkpt lat="45.02603551092046" lon="9.773157160245018"><ele>52.0</ele><time>2026-05-01T06:18:10Z</time></trkpt><trkpt lat="45.0259687699358" lon="9.773223068928925"><ele>52.0</ele><time>2026-05-01T06:18:11Z</time></trkpt><trkpt lat="45.025896201612916" lon="9.773308810638367"><ele>52.0</ele><time>2026-05-01T06:18:12Z</time></trkpt><trkpt lat="45.02581078487039" lon="9.773400292539248"><ele>52.0</ele><time>2026-05-01T06:18:13Z</time></trkpt><trkpt lat="45.02571115129388" lon="9.77349358915089"><ele>52.75</ele><time>2026-05-01T06:18:14Z</time></trkpt><trkpt lat="45.025607894911694" lon="9.773593290471748"><ele>53.5</ele><time>2026-05-01T06:18:15Z</time></trkpt><trkpt lat="45.025497954963974" lon="9.773699737273505"><ele>54.25</ele><time>2026-05-01T06:18:16Z</time></trkpt><trkpt lat="45.02538669961085" lon="9.773808815726746"><ele>55.0</ele><time>2026-05-01T06:18:17Z</time></trkpt><trkpt lat="45.02527315532391" lon="9.773921728507823"><ele>55.0</ele><time>2026-05-01T06:18:18Z</time></trkpt><trkpt lat="45.02515955985951" lon="9.774036261467385"><ele>55.0</ele><time>2026-05-01T06:18:19Z</time></trkpt><trkpt lat="45.025044075909584" lon="9.774149207710177"><ele>55.0</ele><time>2026-05-01T06:18:20Z</time></trkpt><trkpt lat="45.024929600879965" lon="9.774264345825875"><ele>55.0</ele><time>2026-05-01T06:18:21Z</time></trkpt><trkpt lat="45.0248153274578" lon="9.77437954893689"><ele>55.0</ele><time>2026-05-01T06:18:22Z</time></trkpt><trkpt lat="45.02470178220862" lon="9.774491625365512"><ele>55.0</ele><time>2026-05-01T06:18:23Z</time></trkpt><trkpt lat="45.02458697345393" lon="9.774603649497424"><ele>55.0</ele><time>2026-05-01T06:18:24Z</time></trkpt><trkpt lat="45.0244721799045" lon="9.774717135844067"><ele>55.0</ele><time>2026-05-01T06:18:25Z</time></trkpt><trkpt lat="45.024355374562646" lon="9.774832093866035"><ele>55.0</ele><time>2026-05-01T06:18:26Z</time></trkpt><trkpt lat="45.02423762406599" lon="9.774944160180926"><ele>55.0</ele><time>2026-05-01T06:18:27Z</time></trkpt><trkpt lat="45.0241211925429" lon="9.775056228202779"><ele>55.0</ele><time>2026-05-01T06:18:28Z</time></trkpt><trkpt lat="45.02400500163028" lon="9.775170963475608"><ele>55.0</ele><time>2026-05-01T06:18:29Z</time></trkpt><trkpt lat="45.02388691240569" lon="9.775288478831285"><ele>54.666666666666664</ele><time>2026-05-01T06:18:30Z</time></trkpt><trkpt lat="45.023764003767766" lon="9.775411502643554"><ele>54.33333333333333</ele><time>2026-05-01T06:18:31Z</time></trkpt><trkpt lat="45.0236358420335" lon="9.775540458382759"><ele>54.0</ele><time>2026-05-01T06:18:32Z</time></trkpt><trkpt lat="45.02350232264162" lon="9.775673565932928"><ele>54.0</ele><time>2026-05-01T06:18:33Z</time></trkpt><trkpt lat="45.02336568772438" lon="9.775809281567534"><ele>54.0</ele><time>2026-05-01T06:18:34Z</time></trkpt><trkpt lat="45.02322929906737" lon="9.775941800619316"><ele>54.0</ele><time>2026-05-01T06:18:35Z</time></trkpt><trkpt lat="45.023095813503566" lon="9.776072305205654"><ele>55.0</ele><time>2026-05-01T06:18:36Z</time></trkpt><trkpt lat="45.02296653637452" lon="9.776199440332782"><ele>56.0</ele><time>2026-05-01T06:18:37Z</time></trkpt><trkpt lat="45.02284157236345" lon="9.776324206844862"><ele>57.0</ele><time>2026-05-01T06:18:38Z</time></trkpt><trkpt lat="45.022718369281186" lon="9.776446941917118"><ele>57.0</ele><time>2026-05-01T06:18:39Z</time></trkpt><trkpt lat="45.0225939387162" lon="9.77656878281465"><ele>57.0</ele><time>2026-05-01T06:18:40Z</time></trkpt><trkpt lat="45.02246994942748" lon="9.776689943915468"><ele>57.0</ele><time>2026-05-01T06:18:41Z</time></trkpt><trkpt lat="45.02234742789387" lon="9.77680956989527"><ele>57.0</ele><time>2026-05-01T06:18:42Z</time></trkpt><trkpt lat="45.02222679674496" lon="9.776928485185431"><ele>57.0</ele><time>2026-05-01T06:18:43Z</time></trkpt><trkpt lat="45.02210707481433" lon="9.77704698242045"><ele>57.0</ele><time>2026-05-01T06:18:44Z</time></trkpt><trkpt lat="45.02198684913823" lon="9.777165935386618"><ele>57.0</ele><time>2026-05-01T06:18:45Z</time></trkpt><trkpt lat="45.02186800141653" lon="9.777284128749137"><ele>57.0</ele><time>2026-05-01T06:18:46Z</time></trkpt><trkpt lat="45.021749259626006" lon="9.777399363040603"><ele>57.0</ele><time>2026-05-01T06:18:47Z</time></trkpt><trkpt lat="45.02163195460851" lon="9.777514533004682"><ele>57.0</ele><time>2026-05-01T06:18:48Z</time></trkpt><trkpt lat="45.02151330864477" lon="9.77762993767913"><ele>57.0</ele><time>2026-05-01T06:18:49Z</time></trkpt><trkpt lat="45.02139406464966" lon="9.777746565447353"><ele>57.25</ele><time>2026-05-01T06:18:50Z</time></trkpt><trkpt lat="45.02127360308409" lon="9.777866689966777"><ele>57.5</ele><time>2026-05-01T06:18:51Z</time></trkpt><trkpt lat="45.021152126267026" lon="9.777987585113097"><ele>57.75</ele><time>2026-05-01T06:18:52Z</time></trkpt><trkpt lat="45.02102828429107" lon="9.778110047533167"><ele>58.0</ele><time>2026-05-01T06:18:53Z</time></trkpt><trkpt lat="45.02090182232792" lon="9.778234263406127"><ele>58.33333333333333</ele><time>2026-05-01T06:18:54Z</time></trkpt><trkpt lat="45.02077297084471" lon="9.778361527971176"><ele>58.66666666666667</ele><time>2026-05-01T06:18:55Z</time></trkpt><trkpt lat="45.02064369876803" lon="9.778490103038925"><ele>59.0</ele><time>2026-05-01T06:18:56Z</time></trkpt><trkpt lat="45.02051082844773" lon="9.778622750601016"><ele>59.0</ele><time>2026-05-01T06:18:57Z</time></trkpt><trkpt lat="45.02037868805458" lon="9.778758370019784"><ele>59.0</ele><time>2026-05-01T06:18:58Z</time></trkpt><trkpt lat="45.020257967812135" lon="9.778894000837461"><ele>59.0</ele><time>2026-05-01T06:18:59Z</time></trkpt><trkpt lat="45.02013740266004" lon="9.77904093587767"><ele>59.0</ele><time>2026-05-01T06:19:00Z</time></trkpt><trkpt lat="45.02000504528926" lon="9.779200229441665"><ele>59.0</ele><time>2026-05-01T06:19:01Z</time></trkpt><trkpt lat="45.01986560707665" lon="9.779353757921877"><ele>59.0</ele><time>2026-05-01T06:19:02Z</time></trkpt><trkpt lat="45.019729557120705" lon="9.779493701247805"><ele>58.333333333333336</ele><time>2026-05-01T06:19:03Z</time></trkpt><trkpt lat="45.019585266259156" lon="9.7796255895219"><ele>57.66666666666667</ele><time>2026-05-01T06:19:04Z</time></trkpt><trkpt lat="45.019432266264765" lon="9.7797559591111"><ele>57.0</ele><time>2026-05-01T06:19:05Z</time></trkpt><trkpt lat="45.01927746637322" lon="9.779887726070962"><ele>57.0</ele><time>2026-05-01T06:19:06Z</time></trkpt><trkpt lat="45.01912833132699" lon="9.780030698149858"><ele>57.0</ele><time>2026-05-01T06:19:07Z</time></trkpt><trkpt lat="45.01898567848534" lon="9.780183537591165"><ele>57.0</ele><time>2026-05-01T06:19:08.001Z</time></trkpt><trkpt lat="45.01883848680445" lon="9.780338859187326"><ele>57.0</ele><time>2026-05-01T06:19:09.001Z</time></trkpt><trkpt lat="45.01868922900061" lon="9.780503637194983"><ele>57.0</ele><time>2026-05-01T06:19:10.001Z</time></trkpt><trkpt lat="45.01853426052064" lon="9.780666402928501"><ele>57.0</ele><time>2026-05-01T06:19:11.001Z</time></trkpt><trkpt lat="45.018371597735104" lon="9.780835641082808"><ele>57.0</ele><time>2026-05-01T06:19:12.001Z</time></trkpt><trkpt lat="45.018200100216674" lon="9.781008763818777"><ele>57.0</ele><time>2026-05-01T06:19:13.001Z</time></trkpt><trkpt lat="45.01802437165672" lon="9.781191890643376"><ele>57.0</ele><time>2026-05-01T06:19:14.001Z</time></trkpt><trkpt lat="45.017839943336696" lon="9.781379636171515"><ele>57.0</ele><time>2026-05-01T06:19:15.001Z</time></trkpt><trkpt lat="45.01765775295651" lon="9.78157105297021"><ele>57.0</ele><time>2026-05-01T06:19:16.001Z</time></trkpt><trkpt lat="45.01747411062071" lon="9.78177242368681"><ele>57.0</ele><time>2026-05-01T06:19:17.001Z</time></trkpt><trkpt lat="45.01729177483944" lon="9.781959932781167"><ele>57.0</ele><time>2026-05-01T06:19:18.001Z</time></trkpt><trkpt lat="45.01710282785811" lon="9.782159883936284"><ele>57.0</ele><time>2026-05-01T06:19:19.001Z</time></trkpt><trkpt lat="45.01690897674299" lon="9.782367516214629"><ele>57.0</ele><time>2026-05-01T06:19:20.001Z</time></trkpt><trkpt lat="45.01671158703495" lon="9.782574168438462"><ele>56.0</ele><time>2026-05-01T06:19:21.001Z</time></trkpt><trkpt lat="45.01652534465787" lon="9.782781043065127"><ele>55.0</ele><time>2026-05-01T06:19:22.001Z</time></trkpt><trkpt lat="45.0163340038253" lon="9.782993045967585"><ele>55.0</ele><time>2026-05-01T06:19:23.001Z</time></trkpt><trkpt lat="45.016158528381816" lon="9.783197096068463"><ele>55.0</ele><time>2026-05-01T06:19:24.001Z</time></trkpt><trkpt lat="45.01598682116664" lon="9.783404711396388"><ele>56.33333333333333</ele><time>2026-05-01T06:19:25.001Z</time></trkpt><trkpt lat="45.015814803499616" lon="9.78360610162779"><ele>57.66666666666667</ele><time>2026-05-01T06:19:26.001Z</time></trkpt><trkpt lat="45.01564952490462" lon="9.783803094120895"><ele>59.0</ele><time>2026-05-01T06:19:27Z</time></trkpt><trkpt lat="45.01548638265235" lon="9.784006137084617"><ele>59.0</ele><time>2026-05-01T06:19:28Z</time></trkpt><trkpt lat="45.01531883240289" lon="9.784213343567473"><ele>59.0</ele><time>2026-05-01T06:19:29Z</time></trkpt><trkpt lat="45.01515081373863" lon="9.784420943983529"><ele>59.0</ele><time>2026-05-01T06:19:30Z</time></trkpt><trkpt lat="45.01498128150364" lon="9.784630891640653"><ele>58.5</ele><time>2026-05-01T06:19:31Z</time></trkpt><trkpt lat="45.014809853219276" lon="9.78485047668457"><ele>58.0</ele><time>2026-05-01T06:19:32Z</time></trkpt><trkpt lat="45.01465971123082" lon="9.785077568420084"><ele>58.0</ele><time>2026-05-01T06:19:33Z</time></trkpt><trkpt lat="45.014482184362485" lon="9.785238074287976"><ele>58.0</ele><time>2026-05-01T06:19:34Z</time></trkpt><trkpt lat="45.01431953089981" lon="9.785438631047414"><ele>58.0</ele><time>2026-05-01T06:19:35Z</time></trkpt><trkpt lat="45.014146041778694" lon="9.785640791167161"><ele>57.5</ele><time>2026-05-01T06:19:36Z</time></trkpt><trkpt lat="45.01395826737626" lon="9.785850110186447"><ele>57.0</ele><time>2026-05-01T06:19:37Z</time></trkpt><trkpt lat="45.013767260433255" lon="9.786073058712196"><ele>57.0</ele><time>2026-05-01T06:19:38Z</time></trkpt><trkpt lat="45.01356982778949" lon="9.786307781235475"><ele>57.0</ele><time>2026-05-01T06:19:39Z</time></trkpt><trkpt lat="45.0133708220726" lon="9.786561153341273"><ele>57.5</ele><time>2026-05-01T06:19:40Z</time></trkpt><trkpt lat="45.01317040572018" lon="9.786821494892765"><ele>58.0</ele><time>2026-05-01T06:19:41Z</time></trkpt><trkpt lat="45.01297215100868" lon="9.78708769104139"><ele>58.0</ele><time>2026-05-01T06:19:42Z</time></trkpt><trkpt lat="45.01277470028272" lon="9.787362482581806"><ele>58.0</ele><time>2026-05-01T06:19:43Z</time></trkpt><trkpt lat="45.012576588801004" lon="9.78763950703259"><ele>58.0</ele><time>2026-05-01T06:19:44Z</time></trkpt><trkpt lat="45.01237721298984" lon="9.787922590544483"><ele>58.0</ele><time>2026-05-01T06:19:45Z</time></trkpt><trkpt lat="45.01217941878201" lon="9.788206473515272"><ele>58.0</ele><time>2026-05-01T06:19:46Z</time></trkpt><trkpt lat="45.011982974661734" lon="9.788489757570224"><ele>58.0</ele><time>2026-05-01T06:19:47Z</time></trkpt><trkpt lat="45.0117871729392" lon="9.78877491474863"><ele>58.0</ele><time>2026-05-01T06:19:48Z</time></trkpt><trkpt lat="45.011592314843725" lon="9.78906326679467"><ele>58.0</ele><time>2026-05-01T06:19:49Z</time></trkpt><trkpt lat="45.011398458773186" lon="9.78934983810602"><ele>58.0</ele><time>2026-05-01T06:19:50Z</time></trkpt><trkpt lat="45.01120871336322" lon="9.789634341982653"><ele>58.0</ele><time>2026-05-01T06:19:51Z</time></trkpt><trkpt lat="45.01102137624494" lon="9.789921289776697"><ele>57.0</ele><time>2026-05-01T06:19:52Z</time></trkpt><trkpt lat="45.01083777685319" lon="9.790208443826405"><ele>56.0</ele><time>2026-05-01T06:19:53Z</time></trkpt><trkpt lat="45.01065852017224" lon="9.790496850134156"><ele>58.0</ele><time>2026-05-01T06:19:54Z</time></trkpt><trkpt lat="45.0104839555844" lon="9.790782231265041"><ele>60.0</ele><time>2026-05-01T06:19:55Z</time></trkpt><trkpt lat="45.01030996925144" lon="9.791065137898036"><ele>60.0</ele><time>2026-05-01T06:19:56Z</time></trkpt><trkpt lat="45.01013726624093" lon="9.79134596438186"><ele>60.0</ele><time>2026-05-01T06:19:57Z</time></trkpt><trkpt lat="45.00996657408899" lon="9.791624795231183"><ele>61.0</ele><time>2026-05-01T06:19:58Z</time></trkpt><trkpt lat="45.009802443713966" lon="9.791905556424274"><ele>62.0</ele><time>2026-05-01T06:19:59Z</time></trkpt><trkpt lat="45.00964496462347" lon="9.79218747784371"><ele>62.0</ele><time>2026-05-01T06:20:00Z</time></trkpt><trkpt lat="45.009493721588385" lon="9.79246148552111"><ele>62.0</ele><time>2026-05-01T06:20:01Z</time></trkpt><trkpt lat="45.00934867088217" lon="9.792722466144792"><ele>61.333333333333336</ele><time>2026-05-01T06:20:02Z</time></trkpt><trkpt lat="45.00921352554998" lon="9.792966582538508"><ele>60.66666666666667</ele><time>2026-05-01T06:20:03Z</time></trkpt><trkpt lat="45.009083076482284" lon="9.793207233518148"><ele>60.0</ele><time>2026-05-01T06:20:04Z</time></trkpt><trkpt lat="45.00896268453934" lon="9.793432743252334"><ele>60.0</ele><time>2026-05-01T06:20:05Z</time></trkpt><trkpt lat="45.008848290483165" lon="9.793657937608605"><ele>60.0</ele><time>2026-05-01T06:20:06Z</time></trkpt><trkpt lat="45.00872950010735" lon="9.793888696384597"><ele>60.0</ele><time>2026-05-01T06:20:07Z</time></trkpt><trkpt lat="45.00860912519119" lon="9.79412113625788"><ele>59.66666666666667</ele><time>2026-05-01T06:20:08Z</time></trkpt><trkpt lat="45.008488604671825" lon="9.794342094249936"><ele>59.333333333333336</ele><time>2026-05-01T06:20:09Z</time></trkpt><trkpt lat="45.00836444843171" lon="9.79456380203603"><ele>59.0</ele><time>2026-05-01T06:20:10Z</time></trkpt><trkpt lat="45.008224693514386" lon="9.794801782265006"><ele>59.0</ele><time>2026-05-01T06:20:11Z</time></trkpt><trkpt lat="45.00807787308016" lon="9.795039751672993"><ele>59.0</ele><time>2026-05-01T06:20:12Z</time></trkpt><trkpt lat="45.007929869343144" lon="9.795287983497559"><ele>58.0</ele><time>2026-05-01T06:20:13Z</time></trkpt><trkpt lat="45.00778041775861" lon="9.795564131391805"><ele>57.0</ele><time>2026-05-01T06:20:14Z</time></trkpt><trkpt lat="45.00763748012956" lon="9.79585502983391"><ele>58.0</ele><time>2026-05-01T06:20:15Z</time></trkpt><trkpt lat="45.00749596427356" lon="9.796145512909582"><ele>59.0</ele><time>2026-05-01T06:20:16Z</time></trkpt><trkpt lat="45.00735386427472" lon="9.796435621262596"><ele>60.0</ele><time>2026-05-01T06:20:17Z</time></trkpt><trkpt lat="45.00721253460381" lon="9.79672509991476"><ele>61.0</ele><time>2026-05-01T06:20:18Z</time></trkpt><trkpt lat="45.007069003696564" lon="9.79701655552174"><ele>61.0</ele><time>2026-05-01T06:20:19Z</time></trkpt><trkpt lat="45.00692837533203" lon="9.797307788076433"><ele>61.0</ele><time>2026-05-01T06:20:20Z</time></trkpt><trkpt lat="45.00679185744815" lon="9.797601584560846"><ele>61.0</ele><time>2026-05-01T06:20:21Z</time></trkpt><trkpt lat="45.00665969275137" lon="9.797900309323346"><ele>61.0</ele><time>2026-05-01T06:20:22Z</time></trkpt><trkpt lat="45.0065287567265" lon="9.798200728363625"><ele>61.0</ele><time>2026-05-01T06:20:23Z</time></trkpt><trkpt lat="45.006397100186625" lon="9.798500919001013"><ele>61.0</ele><time>2026-05-01T06:20:24Z</time></trkpt><trkpt lat="45.00626576593327" lon="9.798796450700209"><ele>60.5</ele><time>2026-05-01T06:20:25Z</time></trkpt><trkpt lat="45.006132448696924" lon="9.79909244972356"><ele>60.0</ele><time>2026-05-01T06:20:26Z</time></trkpt><trkpt lat="45.006000993187925" lon="9.799389894528032"><ele>60.0</ele><time>2026-05-01T06:20:27Z</time></trkpt><trkpt lat="45.00587224392644" lon="9.79968600647212"><ele>60.0</ele><time>2026-05-01T06:20:28Z</time></trkpt><trkpt lat="45.005739880548475" lon="9.799981187011792"><ele>61.0</ele><time>2026-05-01T06:20:29Z</time></trkpt><trkpt lat="45.00560611943704" lon="9.800272000875564"><ele>62.0</ele><time>2026-05-01T06:20:30Z</time></trkpt><trkpt lat="45.005473560203995" lon="9.800562140632593"><ele>62.0</ele><time>2026-05-01T06:20:31Z</time></trkpt><trkpt lat="45.0053449378122" lon="9.800857082716206"><ele>62.0</ele><time>2026-05-01T06:20:32Z</time></trkpt><trkpt lat="45.005221229710536" lon="9.801153356601313"><ele>61.0</ele><time>2026-05-01T06:20:33Z</time></trkpt><trkpt lat="45.005101299828034" lon="9.801450027733775"><ele>60.0</ele><time>2026-05-01T06:20:34Z</time></trkpt><trkpt lat="45.004984890899934" lon="9.80175130127911"><ele>59.5</ele><time>2026-05-01T06:20:35Z</time></trkpt><trkpt lat="45.00486825018171" lon="9.802049347239825"><ele>59.0</ele><time>2026-05-01T06:20:36Z</time></trkpt><trkpt lat="45.00475227515608" lon="9.802350340645662"><ele>59.0</ele><time>2026-05-01T06:20:37Z</time></trkpt><trkpt lat="45.004634984239345" lon="9.802654841488854"><ele>59.0</ele><time>2026-05-01T06:20:38Z</time></trkpt><trkpt lat="45.004516668978226" lon="9.802958863507255"><ele>58.0</ele><time>2026-05-01T06:20:39Z</time></trkpt><trkpt lat="45.00439261280876" lon="9.803265413182542"><ele>57.0</ele><time>2026-05-01T06:20:40Z</time></trkpt><trkpt lat="45.004276510314504" lon="9.803571316586732"><ele>56.0</ele><time>2026-05-01T06:20:41Z</time></trkpt><trkpt lat="45.00415744537866" lon="9.803882099237278"><ele>55.0</ele><time>2026-05-01T06:20:42Z</time></trkpt><trkpt lat="45.00403526014764" lon="9.804195219782063"><ele>55.5</ele><time>2026-05-01T06:20:43Z</time></trkpt><trkpt lat="45.00390923540484" lon="9.80450934182213"><ele>56.0</ele><time>2026-05-01T06:20:44Z</time></trkpt><trkpt lat="45.00378691315283" lon="9.804828832371834"><ele>56.0</ele><time>2026-05-01T06:20:45Z</time></trkpt><trkpt lat="45.00366334242136" lon="9.805148395997668"><ele>56.0</ele><time>2026-05-01T06:20:46Z</time></trkpt><trkpt lat="45.003539514123354" lon="9.805470231521301"><ele>55.5</ele><time>2026-05-01T06:20:47Z</time></trkpt><trkpt lat="45.0034145936389" lon="9.805792147190694"><ele>55.0</ele><time>2026-05-01T06:20:48Z</time></trkpt><trkpt lat="45.003290498102416" lon="9.806112756885115"><ele>54.5</ele><time>2026-05-01T06:20:49Z</time></trkpt><trkpt lat="45.003163157357285" lon="9.806435853371479"><ele>54.0</ele><time>2026-05-01T06:20:50Z</time></trkpt><trkpt lat="45.00303553945792" lon="9.806763076101921"><ele>55.0</ele><time>2026-05-01T06:20:51Z</time></trkpt><trkpt lat="45.00290927059458" lon="9.80709026898428"><ele>56.0</ele><time>2026-05-01T06:20:52Z</time></trkpt><trkpt lat="45.002785305986194" lon="9.807419483393508"><ele>57.0</ele><time>2026-05-01T06:20:53Z</time></trkpt><trkpt lat="45.00266059486965" lon="9.807751034313254"><ele>58.0</ele><time>2026-05-01T06:20:54Z</time></trkpt><trkpt lat="45.00253483604705" lon="9.808081603105274"><ele>58.0</ele><time>2026-05-01T06:20:55Z</time></trkpt><trkpt lat="45.00240902739894" lon="9.808412484535605"><ele>58.0</ele><time>2026-05-01T06:20:56Z</time></trkpt><trkpt lat="45.00228036580297" lon="9.808744914818195"><ele>57.0</ele><time>2026-05-01T06:20:57Z</time></trkpt><trkpt lat="45.00215191149824" lon="9.80907739719487"><ele>56.0</ele><time>2026-05-01T06:20:58Z</time></trkpt><trkpt lat="45.002024392553714" lon="9.809408124665094"><ele>55.5</ele><time>2026-05-01T06:20:59Z</time></trkpt><trkpt lat="45.001895344126496" lon="9.80974027354018"><ele>55.0</ele><time>2026-05-01T06:21:00Z</time></trkpt><trkpt lat="45.00176973084557" lon="9.810068892783919"><ele>55.5</ele><time>2026-05-01T06:21:01Z</time></trkpt><trkpt lat="45.00164529468372" lon="9.810400921732834"><ele>56.0</ele><time>2026-05-01T06:21:02Z</time></trkpt><trkpt lat="45.00152077807108" lon="9.810729358639218"><ele>56.0</ele><time>2026-05-01T06:21:03Z</time></trkpt><trkpt lat="45.00139850738779" lon="9.81105652221208"><ele>56.0</ele><time>2026-05-01T06:21:04Z</time></trkpt><trkpt lat="45.001277041202066" lon="9.811384804070848"><ele>56.0</ele><time>2026-05-01T06:21:05Z</time></trkpt><trkpt lat="45.00115244643483" lon="9.811711703466164"><ele>56.0</ele><time>2026-05-01T06:21:06Z</time></trkpt><trkpt lat="45.00102591419676" lon="9.812039695122094"><ele>55.5</ele><time>2026-05-01T06:21:07Z</time></trkpt><trkpt lat="45.00090331768302" lon="9.812363879090576"><ele>55.0</ele><time>2026-05-01T06:21:08Z</time></trkpt><trkpt lat="45.000779435969314" lon="9.812693229981486"><ele>56.0</ele><time>2026-05-01T06:21:09Z</time></trkpt><trkpt lat="45.000655166752644" lon="9.813021793045705"><ele>57.0</ele><time>2026-05-01T06:21:10Z</time></trkpt><trkpt lat="45.00052781702376" lon="9.813349584993466"><ele>57.5</ele><time>2026-05-01T06:21:11Z</time></trkpt><trkpt lat="45.000405311921" lon="9.813675343015424"><ele>58.0</ele><time>2026-05-01T06:21:12Z</time></trkpt><trkpt lat="45.00027701817193" lon="9.813999969810412"><ele>58.0</ele><time>2026-05-01T06:21:13Z</time></trkpt><trkpt lat="45.000151412730084" lon="9.814322182028954"><ele>58.0</ele><time>2026-05-01T06:21:14Z</time></trkpt><trkpt lat="45.000027770772455" lon="9.814642390827647"><ele>58.0</ele><time>2026-05-01T06:21:15Z</time></trkpt><trkpt lat="44.99991044547475" lon="9.814957365841673"><ele>58.0</ele><time>2026-05-01T06:21:16Z</time></trkpt><trkpt lat="44.99979343358859" lon="9.81526959859985"><ele>57.5</ele><time>2026-05-01T06:21:17Z</time></trkpt><trkpt lat="44.99967510121017" lon="9.815583728766628"><ele>57.0</ele><time>2026-05-01T06:21:18Z</time></trkpt><trkpt lat="44.99955913140409" lon="9.815905422336469"><ele>56.5</ele><time>2026-05-01T06:21:19Z</time></trkpt><trkpt lat="44.9994424053393" lon="9.816225325351775"><ele>56.0</ele><time>2026-05-01T06:21:20Z</time></trkpt><trkpt lat="44.99932414969916" lon="9.816541924510188"><ele>57.0</ele><time>2026-05-01T06:21:21Z</time></trkpt><trkpt lat="44.99920720973061" lon="9.81685086615687"><ele>58.0</ele><time>2026-05-01T06:21:22Z</time></trkpt><trkpt lat="44.99909164334911" lon="9.817148037556027"><ele>58.0</ele><time>2026-05-01T06:21:23Z</time></trkpt><trkpt lat="44.998977606429314" lon="9.817439400176736"><ele>58.0</ele><time>2026-05-01T06:21:24Z</time></trkpt><trkpt lat="44.99887176516674" lon="9.817715831148616"><ele>58.0</ele><time>2026-05-01T06:21:25Z</time></trkpt><trkpt lat="44.99876846672571" lon="9.817983318332626"><ele>58.0</ele><time>2026-05-01T06:21:26Z</time></trkpt><trkpt lat="44.99866606052083" lon="9.818249193498326"><ele>58.0</ele><time>2026-05-01T06:21:27Z</time></trkpt><trkpt lat="44.99856006986925" lon="9.818515130402966"><ele>58.0</ele><time>2026-05-01T06:21:28Z</time></trkpt><trkpt lat="44.99845313599235" lon="9.8187849138251"><ele>58.0</ele><time>2026-05-01T06:21:29Z</time></trkpt><trkpt lat="44.99834595422132" lon="9.819062310916015"><ele>58.0</ele><time>2026-05-01T06:21:30Z</time></trkpt><trkpt lat="44.998237837411644" lon="9.819343720062703"><ele>58.5</ele><time>2026-05-01T06:21:31Z</time></trkpt><trkpt lat="44.99812279265103" lon="9.819631377235405"><ele>59.0</ele><time>2026-05-01T06:21:32Z</time></trkpt><trkpt lat="44.99800398479737" lon="9.819923415968969"><ele>58.5</ele><time>2026-05-01T06:21:33Z</time></trkpt><trkpt lat="44.99788725401407" lon="9.820211128139269"><ele>58.0</ele><time>2026-05-01T06:21:34Z</time></trkpt><trkpt lat="44.9977702490106" lon="9.820498531524036"><ele>58.0</ele><time>2026-05-01T06:21:35Z</time></trkpt><trkpt lat="44.99765314501371" lon="9.820785754068455"><ele>58.0</ele><time>2026-05-01T06:21:36Z</time></trkpt><trkpt lat="44.99753555651681" lon="9.821075696710547"><ele>58.5</ele><time>2026-05-01T06:21:37Z</time></trkpt><trkpt lat="44.99742059772324" lon="9.821365418763184"><ele>59.0</ele><time>2026-05-01T06:21:38Z</time></trkpt><trkpt lat="44.99730751523185" lon="9.821651447594057"><ele>58.66666666666667</ele><time>2026-05-01T06:21:39Z</time></trkpt><trkpt lat="44.99719938294546" lon="9.821920465889674"><ele>58.33333333333333</ele><time>2026-05-01T06:21:40Z</time></trkpt><trkpt lat="44.99709161619574" lon="9.822184144498872"><ele>58.0</ele><time>2026-05-01T06:21:41Z</time></trkpt><trkpt lat="44.99698992930467" lon="9.822438921826244"><ele>57.5</ele><time>2026-05-01T06:21:42Z</time></trkpt><trkpt lat="44.99686965858266" lon="9.822735538255461"><ele>57.0</ele><time>2026-05-01T06:21:43Z</time></trkpt><trkpt lat="44.99676117139784" lon="9.823015288450074"><ele>58.0</ele><time>2026-05-01T06:21:44Z</time></trkpt><trkpt lat="44.99664931235449" lon="9.823291467143509"><ele>59.0</ele><time>2026-05-01T06:21:45Z</time></trkpt><trkpt lat="44.99653614909631" lon="9.823565950867284"><ele>59.333333333333336</ele><time>2026-05-01T06:21:46Z</time></trkpt><trkpt lat="44.9964285823101" lon="9.823842125174735"><ele>59.66666666666667</ele><time>2026-05-01T06:21:47Z</time></trkpt><trkpt lat="44.996316791431006" lon="9.824112405184815"><ele>60.0</ele><time>2026-05-01T06:21:48Z</time></trkpt><trkpt lat="44.99620674904266" lon="9.824383875161924"><ele>59.0</ele><time>2026-05-01T06:21:49Z</time></trkpt><trkpt lat="44.996093135917256" lon="9.82464559731752"><ele>58.0</ele><time>2026-05-01T06:21:50Z</time></trkpt><trkpt lat="44.99598899148405" lon="9.824914414528335"><ele>57.0</ele><time>2026-05-01T06:21:51Z</time></trkpt><trkpt lat="44.99588395848734" lon="9.825179098311855"><ele>56.33333333333333</ele><time>2026-05-01T06:21:52Z</time></trkpt><trkpt lat="44.99578243395775" lon="9.82544080212995"><ele>55.666666666666664</ele><time>2026-05-01T06:21:53Z</time></trkpt><trkpt lat="44.99568265750997" lon="9.825699144780568"><ele>55.0</ele><time>2026-05-01T06:21:54Z</time></trkpt><trkpt lat="44.99558455013337" lon="9.825966331060163"><ele>55.0</ele><time>2026-05-01T06:21:55Z</time></trkpt><trkpt lat="44.99548589472023" lon="9.826235331068325"><ele>55.0</ele><time>2026-05-01T06:21:56Z</time></trkpt><trkpt lat="44.995386189525874" lon="9.826492020019424"><ele>55.0</ele><time>2026-05-01T06:21:57Z</time></trkpt><trkpt lat="44.99527253400856" lon="9.826751219606631"><ele>55.666666666666664</ele><time>2026-05-01T06:21:58Z</time></trkpt><trkpt lat="44.99516687904214" lon="9.827028922628978"><ele>56.33333333333333</ele><time>2026-05-01T06:21:59Z</time></trkpt><trkpt lat="44.99506620752306" lon="9.827291486632097"><ele>57.0</ele><time>2026-05-01T06:22:00Z</time></trkpt><trkpt lat="44.994966378048076" lon="9.827559903023989"><ele>57.33333333333333</ele><time>2026-05-01T06:22:01Z</time></trkpt><trkpt lat="44.99486514538918" lon="9.827816824107757"><ele>57.666666666666664</ele><time>2026-05-01T06:22:02Z</time></trkpt><trkpt lat="44.99476697013661" lon="9.828067443627164"><ele>58.0</ele><time>2026-05-01T06:22:03Z</time></trkpt><trkpt lat="44.9946703717757" lon="9.828306039960424"><ele>58.33333333333333</ele><time>2026-05-01T06:22:04Z</time></trkpt><trkpt lat="44.99458366079436" lon="9.82852139994611"><ele>58.66666666666667</ele><time>2026-05-01T06:22:05Z</time></trkpt><trkpt lat="44.994501609380066" lon="9.828734422902402"><ele>59.0</ele><time>2026-05-01T06:22:06Z</time></trkpt><trkpt lat="44.99442284699701" lon="9.828938463518826"><ele>59.0</ele><time>2026-05-01T06:22:07Z</time></trkpt><trkpt lat="44.99434358217886" lon="9.829144493856123"><ele>59.0</ele><time>2026-05-01T06:22:08Z</time></trkpt><trkpt lat="44.99426673916112" lon="9.829346561193544"><ele>59.0</ele><time>2026-05-01T06:22:09Z</time></trkpt><trkpt lat="44.994194569835926" lon="9.829532436710123"><ele>58.75</ele><time>2026-05-01T06:22:10Z</time></trkpt><trkpt lat="44.99413212647538" lon="9.829696340716238"><ele>58.5</ele><time>2026-05-01T06:22:11Z</time></trkpt><trkpt lat="44.99407358452114" lon="9.829850476050131"><ele>58.25</ele><time>2026-05-01T06:22:12Z</time></trkpt><trkpt lat="44.994015387988014" lon="9.83000132789436"><ele>58.0</ele><time>2026-05-01T06:22:13Z</time></trkpt><trkpt lat="44.99395650931837" lon="9.830148896306968"><ele>57.25</ele><time>2026-05-01T06:22:14Z</time></trkpt><trkpt lat="44.99390038574034" lon="9.830285939263876"><ele>56.5</ele><time>2026-05-01T06:22:15Z</time></trkpt><trkpt lat="44.993847855237085" lon="9.830417623530542"><ele>55.75</ele><time>2026-05-01T06:22:16Z</time></trkpt><trkpt lat="44.99378913423638" lon="9.830548850450683"><ele>55.0</ele><time>2026-05-01T06:22:17Z</time></trkpt><trkpt lat="44.99372406629436" lon="9.830694989326744"><ele>55.0</ele><time>2026-05-01T06:22:18Z</time></trkpt><trkpt lat="44.9936527778399" lon="9.830872637670053"><ele>55.0</ele><time>2026-05-01T06:22:19Z</time></trkpt><trkpt lat="44.99358255999222" lon="9.83105862821529"><ele>55.0</ele><time>2026-05-01T06:22:20Z</time></trkpt><trkpt lat="44.99350822170065" lon="9.83124956857624"><ele>55.0</ele><time>2026-05-01T06:22:21Z</time></trkpt><trkpt lat="44.99343373336364" lon="9.831444146338612"><ele>55.666666666666664</ele><time>2026-05-01T06:22:22Z</time></trkpt><trkpt lat="44.993359640856276" lon="9.831637193319764"><ele>56.33333333333333</ele><time>2026-05-01T06:22:23Z</time></trkpt><trkpt lat="44.993284108512555" lon="9.831832248645465"><ele>57.0</ele><time>2026-05-01T06:22:24Z</time></trkpt><trkpt lat="44.99320820449679" lon="9.832027841585667"><ele>57.66666666666667</ele><time>2026-05-01T06:22:25Z</time></trkpt><trkpt lat="44.993132095444956" lon="9.832222841940373"><ele>58.333333333333336</ele><time>2026-05-01T06:22:26Z</time></trkpt><trkpt lat="44.993056520515196" lon="9.832415715243627"><ele>59.0</ele><time>2026-05-01T06:22:27Z</time></trkpt><trkpt lat="44.99298222090421" lon="9.832605139504981"><ele>58.5</ele><time>2026-05-01T06:22:28Z</time></trkpt><trkpt lat="44.992909633237616" lon="9.832791468485716"><ele>58.0</ele><time>2026-05-01T06:22:29Z</time></trkpt><trkpt lat="44.99283833362027" lon="9.832975773864254"><ele>57.5</ele><time>2026-05-01T06:22:30Z</time></trkpt><trkpt lat="44.99276662537158" lon="9.833161204560804"><ele>57.0</ele><time>2026-05-01T06:22:31Z</time></trkpt><trkpt lat="44.99269638316534" lon="9.83334137076229"><ele>57.0</ele><time>2026-05-01T06:22:32Z</time></trkpt><trkpt lat="44.99262629991706" lon="9.833521286995873"><ele>57.0</ele><time>2026-05-01T06:22:33Z</time></trkpt><trkpt lat="44.99255739227824" lon="9.83369980901064"><ele>57.0</ele><time>2026-05-01T06:22:34Z</time></trkpt><trkpt lat="44.9924898009118" lon="9.833873433163689"><ele>57.0</ele><time>2026-05-01T06:22:35Z</time></trkpt><trkpt lat="44.99242352631923" lon="9.834049417073851"><ele>57.0</ele><time>2026-05-01T06:22:36Z</time></trkpt><trkpt lat="44.99235265231672" lon="9.834227715627835"><ele>57.0</ele><time>2026-05-01T06:22:37Z</time></trkpt><trkpt lat="44.9922824737219" lon="9.834413861429347"><ele>57.0</ele><time>2026-05-01T06:22:38Z</time></trkpt><trkpt lat="44.99221127627021" lon="9.834604240080724"><ele>57.0</ele><time>2026-05-01T06:22:39Z</time></trkpt><trkpt lat="44.99213473958021" lon="9.83479658155233"><ele>56.66666666666667</ele><time>2026-05-01T06:22:40Z</time></trkpt><trkpt lat="44.99205847499824" lon="9.834991500333148"><ele>56.333333333333336</ele><time>2026-05-01T06:22:41Z</time></trkpt><trkpt lat="44.99198365952716" lon="9.835191764691455"><ele>56.0</ele><time>2026-05-01T06:22:42Z</time></trkpt><trkpt lat="44.99190441685006" lon="9.83539190441895"><ele>56.0</ele><time>2026-05-01T06:22:43Z</time></trkpt><trkpt lat="44.99182255787998" lon="9.835593787674298"><ele>56.0</ele><time>2026-05-01T06:22:44Z</time></trkpt><trkpt lat="44.991740251384115" lon="9.835798485097529"><ele>56.0</ele><time>2026-05-01T06:22:45Z</time></trkpt><trkpt lat="44.991660459664054" lon="9.836005459368488"><ele>56.66666666666667</ele><time>2026-05-01T06:22:46Z</time></trkpt><trkpt lat="44.99158150729127" lon="9.836216061884953"><ele>57.33333333333333</ele><time>2026-05-01T06:22:47Z</time></trkpt><trkpt lat="44.99149838709796" lon="9.836428376256814"><ele>58.0</ele><time>2026-05-01T06:22:48Z</time></trkpt><trkpt lat="44.99141619697359" lon="9.83663788556354"><ele>57.666666666666664</ele><time>2026-05-01T06:22:49Z</time></trkpt><trkpt lat="44.991333024949455" lon="9.836851074999057"><ele>57.33333333333333</ele><time>2026-05-01T06:22:50Z</time></trkpt><trkpt lat="44.99125080783734" lon="9.83706112399606"><ele>57.0</ele><time>2026-05-01T06:22:51Z</time></trkpt><trkpt lat="44.99116865318208" lon="9.837274721658542"><ele>57.0</ele><time>2026-05-01T06:22:52Z</time></trkpt><trkpt lat="44.991085295707244" lon="9.837489470637317"><ele>57.0</ele><time>2026-05-01T06:22:53Z</time></trkpt><trkpt lat="44.99100296148946" lon="9.837702855399085"><ele>57.0</ele><time>2026-05-01T06:22:54Z</time></trkpt><trkpt lat="44.99092114604511" lon="9.837914670429344"><ele>56.66666666666667</ele><time>2026-05-01T06:22:55Z</time></trkpt><trkpt lat="44.99083984903613" lon="9.83812600432584"><ele>56.333333333333336</ele><time>2026-05-01T06:22:56Z</time></trkpt><trkpt lat="44.9907573440383" lon="9.838338366857384"><ele>56.0</ele><time>2026-05-01T06:22:57Z</time></trkpt><trkpt lat="44.99067338086396" lon="9.838551183963531"><ele>56.0</ele><time>2026-05-01T06:22:58Z</time></trkpt><trkpt lat="44.99059076872015" lon="9.838762170192375"><ele>56.0</ele><time>2026-05-01T06:22:59Z</time></trkpt><trkpt lat="44.990508984938536" lon="9.838973839663641"><ele>56.0</ele><time>2026-05-01T06:23:00Z</time></trkpt><trkpt lat="44.990427699492905" lon="9.83918534983605"><ele>56.333333333333336</ele><time>2026-05-01T06:23:01Z</time></trkpt><trkpt lat="44.990345832896246" lon="9.839394905174482"><ele>56.66666666666667</ele><time>2026-05-01T06:23:02Z</time></trkpt><trkpt lat="44.99026495852739" lon="9.839602539046128"><ele>57.0</ele><time>2026-05-01T06:23:03Z</time></trkpt><trkpt lat="44.990185398693995" lon="9.839808049234724"><ele>57.0</ele><time>2026-05-01T06:23:04Z</time></trkpt><trkpt lat="44.99010592399011" lon="9.840014863557863"><ele>57.0</ele><time>2026-05-01T06:23:05Z</time></trkpt><trkpt lat="44.99002450097793" lon="9.840224390863256"><ele>57.0</ele><time>2026-05-01T06:23:06Z</time></trkpt><trkpt lat="44.98994501083256" lon="9.840427632935793"><ele>57.0</ele><time>2026-05-01T06:23:07Z</time></trkpt><trkpt lat="44.989866450502525" lon="9.84063353470279"><ele>57.0</ele><time>2026-05-01T06:23:08Z</time></trkpt><trkpt lat="44.98978669723856" lon="9.840836612507283"><ele>57.0</ele><time>2026-05-01T06:23:09Z</time></trkpt><trkpt lat="44.98970816721661" lon="9.841040414365771"><ele>57.0</ele><time>2026-05-01T06:23:10Z</time></trkpt><trkpt lat="44.989631075329676" lon="9.841240844807063"><ele>57.0</ele><time>2026-05-01T06:23:11Z</time></trkpt><trkpt lat="44.98955302304011" lon="9.841441465149027"><ele>57.0</ele><time>2026-05-01T06:23:12Z</time></trkpt><trkpt lat="44.989472524800526" lon="9.841642222479726"><ele>56.66666666666667</ele><time>2026-05-01T06:23:13Z</time></trkpt><trkpt lat="44.989392719529484" lon="9.841837820086402"><ele>56.333333333333336</ele><time>2026-05-01T06:23:14Z</time></trkpt><trkpt lat="44.98932148372834" lon="9.842034900119872"><ele>56.0</ele><time>2026-05-01T06:23:15Z</time></trkpt><trkpt lat="44.98924596105812" lon="9.842229703824922"><ele>56.333333333333336</ele><time>2026-05-01T06:23:16Z</time></trkpt><trkpt lat="44.98917026269369" lon="9.84242398007042"><ele>56.66666666666667</ele><time>2026-05-01T06:23:17Z</time></trkpt><trkpt lat="44.98909491154551" lon="9.842618437233662"><ele>57.0</ele><time>2026-05-01T06:23:18Z</time></trkpt><trkpt lat="44.98901904312535" lon="9.842812622040928"><ele>57.33333333333333</ele><time>2026-05-01T06:23:19Z</time></trkpt><trkpt lat="44.988943083715924" lon="9.843007260050678"><ele>57.666666666666664</ele><time>2026-05-01T06:23:20Z</time></trkpt><trkpt lat="44.98886983549876" lon="9.843203323305497"><ele>58.0</ele><time>2026-05-01T06:23:21Z</time></trkpt><trkpt lat="44.98879460656408" lon="9.843400908285972"><ele>57.666666666666664</ele><time>2026-05-01T06:23:22Z</time></trkpt><trkpt lat="44.988717186413126" lon="9.843595825532264"><ele>57.33333333333333</ele><time>2026-05-01T06:23:23Z</time></trkpt><trkpt lat="44.98864057361326" lon="9.843789797605835"><ele>57.0</ele><time>2026-05-01T06:23:24Z</time></trkpt><trkpt lat="44.98856477181659" lon="9.843981342727481"><ele>57.0</ele><time>2026-05-01T06:23:25Z</time></trkpt><trkpt lat="44.988490454145825" lon="9.844169423128223"><ele>57.0</ele><time>2026-05-01T06:23:26Z</time></trkpt><trkpt lat="44.988415597440785" lon="9.84436141253854"><ele>57.0</ele><time>2026-05-01T06:23:27Z</time></trkpt><trkpt lat="44.988342173783636" lon="9.844553057872147"><ele>57.0</ele><time>2026-05-01T06:23:28Z</time></trkpt><trkpt lat="44.98826897383335" lon="9.844745297424247"><ele>57.0</ele><time>2026-05-01T06:23:29Z</time></trkpt><trkpt lat="44.98819417395449" lon="9.84493708859554"><ele>57.0</ele><time>2026-05-01T06:23:30Z</time></trkpt><trkpt lat="44.98811881772431" lon="9.845127575613224"><ele>57.33333333333333</ele><time>2026-05-01T06:23:31Z</time></trkpt><trkpt lat="44.988043608168454" lon="9.845317173769068"><ele>57.666666666666664</ele><time>2026-05-01T06:23:32Z</time></trkpt><trkpt lat="44.98796756339291" lon="9.84551030694954"><ele>58.0</ele><time>2026-05-01T06:23:33Z</time></trkpt><trkpt lat="44.987895024685216" lon="9.845690754224888"><ele>58.0</ele><time>2026-05-01T06:23:34Z</time></trkpt><trkpt lat="44.987847471082134" lon="9.845814832424962"><ele>58.0</ele><time>2026-05-01T06:23:35Z</time></trkpt><trkpt lat="44.9877971109363" lon="9.84593213803419"><ele>58.0</ele><time>2026-05-01T06:23:36Z</time></trkpt><trkpt lat="44.98774405045995" lon="9.846054404958453"><ele>58.0</ele><time>2026-05-01T06:23:37Z</time></trkpt><trkpt lat="44.9876894484726" lon="9.846206411053503"><ele>58.0</ele><time>2026-05-01T06:23:38Z</time></trkpt><trkpt lat="44.987624360956026" lon="9.846368820137773"><ele>57.666666666666664</ele><time>2026-05-01T06:23:39Z</time></trkpt><trkpt lat="44.98755278163899" lon="9.846540361145689"><ele>57.33333333333333</ele><time>2026-05-01T06:23:40Z</time></trkpt><trkpt lat="44.98747510768384" lon="9.846730806060533"><ele>57.0</ele><time>2026-05-01T06:23:41Z</time></trkpt><trkpt lat="44.98739211732388" lon="9.846930850483814"><ele>56.66666666666667</ele><time>2026-05-01T06:23:42Z</time></trkpt><trkpt lat="44.98730346105098" lon="9.84714169853489"><ele>56.333333333333336</ele><time>2026-05-01T06:23:43Z</time></trkpt><trkpt lat="44.98721205142368" lon="9.847360329082944"><ele>56.0</ele><time>2026-05-01T06:23:44Z</time></trkpt><trkpt lat="44.987122437516845" lon="9.84757779381012"><ele>56.0</ele><time>2026-05-01T06:23:45Z</time></trkpt><trkpt lat="44.98703138654486" lon="9.84779678284622"><ele>56.0</ele><time>2026-05-01T06:23:46Z</time></trkpt><trkpt lat="44.98693942653468" lon="9.848018712997176"><ele>56.0</ele><time>2026-05-01T06:23:47Z</time></trkpt><trkpt lat="44.98684658697298" lon="9.848233478290583"><ele>56.0</ele><time>2026-05-01T06:23:48Z</time></trkpt><trkpt lat="44.98675256860802" lon="9.848447294729647"><ele>56.0</ele><time>2026-05-01T06:23:49Z</time></trkpt><trkpt lat="44.98666336459548" lon="9.848660808113397"><ele>56.0</ele><time>2026-05-01T06:23:50Z</time></trkpt><trkpt lat="44.986575400396255" lon="9.84887544036509"><ele>57.66666666666667</ele><time>2026-05-01T06:23:51Z</time></trkpt><trkpt lat="44.98648526755903" lon="9.849087421817815"><ele>59.33333333333333</ele><time>2026-05-01T06:23:52Z</time></trkpt><trkpt lat="44.98639553524619" lon="9.849298503484397"><ele>61.0</ele><time>2026-05-01T06:23:53Z</time></trkpt><trkpt lat="44.986306419917234" lon="9.849512017117828"><ele>61.0</ele><time>2026-05-01T06:23:54Z</time></trkpt><trkpt lat="44.98621632053486" lon="9.849722617171652"><ele>61.0</ele><time>2026-05-01T06:23:55Z</time></trkpt><trkpt lat="44.986127344856705" lon="9.849932433912379"><ele>61.0</ele><time>2026-05-01T06:23:56Z</time></trkpt><trkpt lat="44.986038390322776" lon="9.850140671745656"><ele>60.0</ele><time>2026-05-01T06:23:57Z</time></trkpt><trkpt lat="44.985950012381565" lon="9.85034923305458"><ele>59.0</ele><time>2026-05-01T06:23:58Z</time></trkpt><trkpt lat="44.9858599109388" lon="9.850562042676405"><ele>58.0</ele><time>2026-05-01T06:23:59Z</time></trkpt><trkpt lat="44.98577199470235" lon="9.850771768230464"><ele>57.33333333333333</ele><time>2026-05-01T06:24:00Z</time></trkpt><trkpt lat="44.98568080024569" lon="9.850984065854105"><ele>56.66666666666667</ele><time>2026-05-01T06:24:01Z</time></trkpt><trkpt lat="44.98558914700639" lon="9.851196610244665"><ele>56.0</ele><time>2026-05-01T06:24:02Z</time></trkpt><trkpt lat="44.98549687162035" lon="9.851413050830296"><ele>56.0</ele><time>2026-05-01T06:24:03Z</time></trkpt><trkpt lat="44.98540591031253" lon="9.851626199888921"><ele>56.0</ele><time>2026-05-01T06:24:04Z</time></trkpt><trkpt lat="44.98531305407701" lon="9.851840873060608"><ele>56.0</ele><time>2026-05-01T06:24:05Z</time></trkpt><trkpt lat="44.985223451971954" lon="9.852056917910936"><ele>56.0</ele><time>2026-05-01T06:24:06Z</time></trkpt><trkpt lat="44.98513072615656" lon="9.85227074718872"><ele>56.0</ele><time>2026-05-01T06:24:07Z</time></trkpt><trkpt lat="44.98504149631715" lon="9.852483237800644"><ele>56.0</ele><time>2026-05-01T06:24:08Z</time></trkpt><trkpt lat="44.98495131470528" lon="9.852695438439618"><ele>56.333333333333336</ele><time>2026-05-01T06:24:09Z</time></trkpt><trkpt lat="44.98486248671083" lon="9.852904532581194"><ele>56.66666666666667</ele><time>2026-05-01T06:24:10Z</time></trkpt><trkpt lat="44.98477483046534" lon="9.853116026872215"><ele>57.0</ele><time>2026-05-01T06:24:11Z</time></trkpt><trkpt lat="44.98468726371745" lon="9.853323782608141"><ele>56.66666666666667</ele><time>2026-05-01T06:24:12Z</time></trkpt><trkpt lat="44.98459936336127" lon="9.853529627394082"><ele>56.333333333333336</ele><time>2026-05-01T06:24:13Z</time></trkpt><trkpt lat="44.98451047500594" lon="9.853734221545338"><ele>56.0</ele><time>2026-05-01T06:24:14Z</time></trkpt><trkpt lat="44.98442351770016" lon="9.853931216438292"><ele>56.0</ele><time>2026-05-01T06:24:15Z</time></trkpt><trkpt lat="44.98433544002045" lon="9.854146637803431"><ele>56.0</ele><time>2026-05-01T06:24:16Z</time></trkpt><trkpt lat="44.98425178552977" lon="9.854342472135755"><ele>56.0</ele><time>2026-05-01T06:24:17Z</time></trkpt><trkpt lat="44.9841670283322" lon="9.85453924487936"><ele>56.66666666666667</ele><time>2026-05-01T06:24:18Z</time></trkpt><trkpt lat="44.98407791512697" lon="9.85474260400403"><ele>57.33333333333333</ele><time>2026-05-01T06:24:19Z</time></trkpt><trkpt lat="44.98398902747163" lon="9.854945744451705"><ele>58.0</ele><time>2026-05-01T06:24:20Z</time></trkpt><trkpt lat="44.983904116458085" lon="9.85515018738153"><ele>58.33333333333333</ele><time>2026-05-01T06:24:21Z</time></trkpt><trkpt lat="44.98382019447594" lon="9.855349879632763"><ele>58.66666666666667</ele><time>2026-05-01T06:24:22Z</time></trkpt><trkpt lat="44.98373026185103" lon="9.855549164507256"><ele>59.0</ele><time>2026-05-01T06:24:23Z</time></trkpt><trkpt lat="44.98364679392863" lon="9.855750099215173"><ele>59.0</ele><time>2026-05-01T06:24:24Z</time></trkpt><trkpt lat="44.98356379631036" lon="9.855952613157202"><ele>59.0</ele><time>2026-05-01T06:24:25Z</time></trkpt><trkpt lat="44.98348000346172" lon="9.856158690042108"><ele>59.0</ele><time>2026-05-01T06:24:26Z</time></trkpt><trkpt lat="44.98338975480438" lon="9.856375427177984"><ele>58.333333333333336</ele><time>2026-05-01T06:24:27Z</time></trkpt><trkpt lat="44.98330237887778" lon="9.856586734617208"><ele>57.66666666666667</ele><time>2026-05-01T06:24:28Z</time></trkpt><trkpt lat="44.98321073848798" lon="9.856798689780202"><ele>57.0</ele><time>2026-05-01T06:24:29Z</time></trkpt><trkpt lat="44.98311631611284" lon="9.857014855815434"><ele>57.0</ele><time>2026-05-01T06:24:30Z</time></trkpt><trkpt lat="44.983022075852574" lon="9.85723428040898"><ele>57.0</ele><time>2026-05-01T06:24:31Z</time></trkpt><trkpt lat="44.982925545929376" lon="9.857454790986926"><ele>57.0</ele><time>2026-05-01T06:24:32Z</time></trkpt><trkpt lat="44.982829348851475" lon="9.857682125491394"><ele>57.0</ele><time>2026-05-01T06:24:33Z</time></trkpt><trkpt lat="44.98273479940807" lon="9.857915363388507"><ele>57.0</ele><time>2026-05-01T06:24:34Z</time></trkpt><trkpt lat="44.98263689602598" lon="9.858144731378372"><ele>57.0</ele><time>2026-05-01T06:24:35Z</time></trkpt><trkpt lat="44.98253966036159" lon="9.85837110076583"><ele>57.0</ele><time>2026-05-01T06:24:36Z</time></trkpt><trkpt lat="44.98244178658394" lon="9.858600822679575"><ele>57.0</ele><time>2026-05-01T06:24:37Z</time></trkpt><trkpt lat="44.982337167471144" lon="9.858844425331988"><ele>57.0</ele><time>2026-05-01T06:24:38Z</time></trkpt><trkpt lat="44.98223332420567" lon="9.859085599200107"><ele>56.66666666666667</ele><time>2026-05-01T06:24:39Z</time></trkpt><trkpt lat="44.9821219206072" lon="9.859342779380269"><ele>56.333333333333336</ele><time>2026-05-01T06:24:40Z</time></trkpt><trkpt lat="44.98201241064077" lon="9.859600546859895"><ele>56.0</ele><time>2026-05-01T06:24:41Z</time></trkpt><trkpt lat="44.98190170740013" lon="9.859865536152542"><ele>56.0</ele><time>2026-05-01T06:24:42Z</time></trkpt><trkpt lat="44.98178569045491" lon="9.860141241723072"><ele>56.0</ele><time>2026-05-01T06:24:43Z</time></trkpt><trkpt lat="44.981671473495396" lon="9.86041906612571"><ele>56.0</ele><time>2026-05-01T06:24:44Z</time></trkpt><trkpt lat="44.9815560218829" lon="9.860700940719969"><ele>56.0</ele><time>2026-05-01T06:24:45Z</time></trkpt><trkpt lat="44.98143904817941" lon="9.860986148570055"><ele>56.0</ele><time>2026-05-01T06:24:46Z</time></trkpt><trkpt lat="44.98132244453092" lon="9.861270542479675"><ele>56.0</ele><time>2026-05-01T06:24:47Z</time></trkpt><trkpt lat="44.98120566219341" lon="9.861554599098664"><ele>56.0</ele><time>2026-05-01T06:24:48Z</time></trkpt><trkpt lat="44.9810883576647" lon="9.861836374721634"><ele>56.0</ele><time>2026-05-01T06:24:49Z</time></trkpt><trkpt lat="44.980969655281996" lon="9.86211613351738"><ele>56.0</ele><time>2026-05-01T06:24:50Z</time></trkpt><trkpt lat="44.98085086464164" lon="9.862393961117974"><ele>56.0</ele><time>2026-05-01T06:24:51Z</time></trkpt><trkpt lat="44.98073126327075" lon="9.862674963565434"><ele>55.0</ele><time>2026-05-01T06:24:52Z</time></trkpt><trkpt lat="44.98061087059627" lon="9.86295942295595"><ele>54.0</ele><time>2026-05-01T06:24:53Z</time></trkpt><trkpt lat="44.98049124236028" lon="9.863246755265763"><ele>56.0</ele><time>2026-05-01T06:24:54Z</time></trkpt><trkpt lat="44.980366984542854" lon="9.863540202734395"><ele>58.0</ele><time>2026-05-01T06:24:55Z</time></trkpt><trkpt lat="44.98024439078132" lon="9.863836657239856"><ele>58.0</ele><time>2026-05-01T06:24:56Z</time></trkpt><trkpt lat="44.98011934478099" lon="9.864133805734532"><ele>58.0</ele><time>2026-05-01T06:24:57Z</time></trkpt><trkpt lat="44.97999381060582" lon="9.864430718695953"><ele>57.5</ele><time>2026-05-01T06:24:58Z</time></trkpt><trkpt lat="44.979865152389145" lon="9.864730219604711"><ele>57.0</ele><time>2026-05-01T06:24:59Z</time></trkpt><trkpt lat="44.97973696093025" lon="9.865029374125783"><ele>57.0</ele><time>2026-05-01T06:25:00Z</time></trkpt><trkpt lat="44.97960717862517" lon="9.86532950843832"><ele>57.0</ele><time>2026-05-01T06:25:01Z</time></trkpt><trkpt lat="44.979480057612015" lon="9.8656315829602"><ele>57.0</ele><time>2026-05-01T06:25:02Z</time></trkpt><trkpt lat="44.979354151649396" lon="9.86593536113393"><ele>57.0</ele><time>2026-05-01T06:25:03Z</time></trkpt><trkpt lat="44.97922289508504" lon="9.866246187332433"><ele>56.5</ele><time>2026-05-01T06:25:04Z</time></trkpt><trkpt lat="44.979089216627706" lon="9.866563692737852"><ele>56.0</ele><time>2026-05-01T06:25:05Z</time></trkpt><trkpt lat="44.978951310472006" lon="9.866886606613583"><ele>56.0</ele><time>2026-05-01T06:25:06Z</time></trkpt><trkpt lat="44.97881288480239" lon="9.867215344426352"><ele>56.0</ele><time>2026-05-01T06:25:07Z</time></trkpt><trkpt lat="44.97867840234465" lon="9.867547169882469"><ele>54.5</ele><time>2026-05-01T06:25:08Z</time></trkpt><trkpt lat="44.978542727731536" lon="9.86788259329674"><ele>53.0</ele><time>2026-05-01T06:25:09Z</time></trkpt><trkpt lat="44.978406100146145" lon="9.86821860352654"><ele>54.0</ele><time>2026-05-01T06:25:10Z</time></trkpt><trkpt lat="44.97827079532644" lon="9.868550085190233"><ele>55.0</ele><time>2026-05-01T06:25:11Z</time></trkpt><trkpt lat="44.97813016669668" lon="9.868882903776012"><ele>55.0</ele><time>2026-05-01T06:25:12Z</time></trkpt><trkpt lat="44.97799029526311" lon="9.869212112870763"><ele>55.0</ele><time>2026-05-01T06:25:13Z</time></trkpt><trkpt lat="44.97784895401529" lon="9.869542220695378"><ele>54.5</ele><time>2026-05-01T06:25:14Z</time></trkpt><trkpt lat="44.97770927822204" lon="9.86986939899235"><ele>54.0</ele><time>2026-05-01T06:25:15Z</time></trkpt><trkpt lat="44.977566865208125" lon="9.8702017111758"><ele>55.0</ele><time>2026-05-01T06:25:16Z</time></trkpt><trkpt lat="44.977424071313386" lon="9.870535398391667"><ele>56.0</ele><time>2026-05-01T06:25:17Z</time></trkpt><trkpt lat="44.97728183730582" lon="9.870871368597092"><ele>57.0</ele><time>2026-05-01T06:25:18Z</time></trkpt><trkpt lat="44.97714035599665" lon="9.871208570816187"><ele>58.0</ele><time>2026-05-01T06:25:19Z</time></trkpt><trkpt lat="44.97699992722149" lon="9.871546769387727"><ele>57.5</ele><time>2026-05-01T06:25:20Z</time></trkpt><trkpt lat="44.97686017049347" lon="9.871884167601594"><ele>57.0</ele><time>2026-05-01T06:25:21Z</time></trkpt><trkpt lat="44.97672419356591" lon="9.872219596981369"><ele>58.0</ele><time>2026-05-01T06:25:22Z</time></trkpt><trkpt lat="44.9765897225737" lon="9.872558200611508"><ele>59.0</ele><time>2026-05-01T06:25:23Z</time></trkpt><trkpt lat="44.97645612181621" lon="9.872893781230108"><ele>59.0</ele><time>2026-05-01T06:25:24Z</time></trkpt><trkpt lat="44.9763218014648" lon="9.873226453006646"><ele>59.0</ele><time>2026-05-01T06:25:25Z</time></trkpt><trkpt lat="44.97618399086098" lon="9.873558359980724"><ele>57.5</ele><time>2026-05-01T06:25:26Z</time></trkpt><trkpt lat="44.9760430184492" lon="9.873883704116055"><ele>56.0</ele><time>2026-05-01T06:25:27Z</time></trkpt><trkpt lat="44.9759018154179" lon="9.874207278542459"><ele>57.5</ele><time>2026-05-01T06:25:28Z</time></trkpt><trkpt lat="44.975763894753726" lon="9.874528175602853"><ele>59.0</ele><time>2026-05-01T06:25:29Z</time></trkpt><trkpt lat="44.97562623723066" lon="9.874850120689471"><ele>58.5</ele><time>2026-05-01T06:25:30Z</time></trkpt><trkpt lat="44.97549058589415" lon="9.875171828671569"><ele>58.0</ele><time>2026-05-01T06:25:31Z</time></trkpt><trkpt lat="44.97535602019469" lon="9.875489011541042"><ele>58.0</ele><time>2026-05-01T06:25:32Z</time></trkpt><trkpt lat="44.97521874199464" lon="9.87581098490317"><ele>58.0</ele><time>2026-05-01T06:25:33Z</time></trkpt><trkpt lat="44.975081028673884" lon="9.87613194141305"><ele>58.0</ele><time>2026-05-01T06:25:34Z</time></trkpt><trkpt lat="44.97494275116529" lon="9.876452729199281"><ele>58.0</ele><time>2026-05-01T06:25:35Z</time></trkpt><trkpt lat="44.974803953658956" lon="9.876774982801413"><ele>57.5</ele><time>2026-05-01T06:25:36Z</time></trkpt><trkpt lat="44.97466558680519" lon="9.877099434152377"><ele>57.0</ele><time>2026-05-01T06:25:37Z</time></trkpt><trkpt lat="44.97452722851198" lon="9.877426986910578"><ele>57.0</ele><time>2026-05-01T06:25:38Z</time></trkpt><trkpt lat="44.97438724847994" lon="9.87776429324844"><ele>57.0</ele><time>2026-05-01T06:25:39Z</time></trkpt><trkpt lat="44.97424737757255" lon="9.878100749794818"><ele>57.0</ele><time>2026-05-01T06:25:40Z</time></trkpt><trkpt lat="44.97410472026977" lon="9.87843727319519"><ele>57.0</ele><time>2026-05-01T06:25:41Z</time></trkpt><trkpt lat="44.97396031500776" lon="9.878773079327585"><ele>57.0</ele><time>2026-05-01T06:25:42Z</time></trkpt><trkpt lat="44.97381707783286" lon="9.879105878907932"><ele>57.0</ele><time>2026-05-01T06:25:43Z</time></trkpt><trkpt lat="44.973676262901684" lon="9.879430682772064"><ele>56.5</ele><time>2026-05-01T06:25:44Z</time></trkpt><trkpt lat="44.97353552329196" lon="9.879756419820254"><ele>56.0</ele><time>2026-05-01T06:25:45Z</time></trkpt><trkpt lat="44.97339568303337" lon="9.880079290951205"><ele>55.5</ele><time>2026-05-01T06:25:46Z</time></trkpt><trkpt lat="44.973254822640904" lon="9.880396378374693"><ele>55.0</ele><time>2026-05-01T06:25:47Z</time></trkpt><trkpt lat="44.97311361069366" lon="9.880711465110023"><ele>55.5</ele><time>2026-05-01T06:25:48Z</time></trkpt><trkpt lat="44.97297476317745" lon="9.881026324317823"><ele>56.0</ele><time>2026-05-01T06:25:49Z</time></trkpt><trkpt lat="44.97283902966503" lon="9.881339816179274"><ele>56.0</ele><time>2026-05-01T06:25:50Z</time></trkpt><trkpt lat="44.97270339242141" lon="9.881650288762083"><ele>56.0</ele><time>2026-05-01T06:25:51Z</time></trkpt><trkpt lat="44.97256821531118" lon="9.881958858609407"><ele>56.5</ele><time>2026-05-01T06:25:52Z</time></trkpt><trkpt lat="44.97243488999854" lon="9.882267977265137"><ele>57.0</ele><time>2026-05-01T06:25:53Z</time></trkpt><trkpt lat="44.97230565154251" lon="9.882571192772168"><ele>57.0</ele><time>2026-05-01T06:25:54Z</time></trkpt><trkpt lat="44.97218160411841" lon="9.88287702014198"><ele>57.0</ele><time>2026-05-01T06:25:55Z</time></trkpt><trkpt lat="44.97205639729357" lon="9.883180028822514"><ele>56.5</ele><time>2026-05-01T06:25:56Z</time></trkpt><trkpt lat="44.97193464943474" lon="9.883477183589275"><ele>56.0</ele><time>2026-05-01T06:25:57Z</time></trkpt><trkpt lat="44.97181581263645" lon="9.88377504781072"><ele>56.0</ele><time>2026-05-01T06:25:58Z</time></trkpt><trkpt lat="44.97169707160333" lon="9.884071226636676"><ele>56.0</ele><time>2026-05-01T06:25:59Z</time></trkpt><trkpt lat="44.97157793096118" lon="9.884363843461628"><ele>55.5</ele><time>2026-05-01T06:26:00Z</time></trkpt><trkpt lat="44.97145726459702" lon="9.884657068842746"><ele>55.0</ele><time>2026-05-01T06:26:01Z</time></trkpt><trkpt lat="44.97133436759373" lon="9.884947143784006"><ele>56.5</ele><time>2026-05-01T06:26:02Z</time></trkpt><trkpt lat="44.97121076632103" lon="9.885234263658383"><ele>58.0</ele><time>2026-05-01T06:26:03Z</time></trkpt><trkpt lat="44.971087017397835" lon="9.885525665797818"><ele>58.0</ele><time>2026-05-01T06:26:04Z</time></trkpt><trkpt lat="44.970961212745095" lon="9.885816382112532"><ele>58.0</ele><time>2026-05-01T06:26:05Z</time></trkpt><trkpt lat="44.97083762233575" lon="9.886105472136116"><ele>57.5</ele><time>2026-05-01T06:26:06Z</time></trkpt><trkpt lat="44.97071349820757" lon="9.886398071205747"><ele>57.0</ele><time>2026-05-01T06:26:07Z</time></trkpt><trkpt lat="44.97058806024111" lon="9.886690211417339"><ele>57.5</ele><time>2026-05-01T06:26:08Z</time></trkpt><trkpt lat="44.97046326657413" lon="9.88698101370754"><ele>58.0</ele><time>2026-05-01T06:26:09Z</time></trkpt><trkpt lat="44.97033616520434" lon="9.887272223410848"><ele>58.0</ele><time>2026-05-01T06:26:10Z</time></trkpt><trkpt lat="44.97021005261882" lon="9.887562833644456"><ele>58.0</ele><time>2026-05-01T06:26:11Z</time></trkpt><trkpt lat="44.97008384143692" lon="9.887850520641516"><ele>57.5</ele><time>2026-05-01T06:26:12Z</time></trkpt><trkpt lat="44.96995393249828" lon="9.888139357703565"><ele>57.0</ele><time>2026-05-01T06:26:13Z</time></trkpt><trkpt lat="44.9698202707845" lon="9.88842839867973"><ele>56.5</ele><time>2026-05-01T06:26:14Z</time></trkpt><trkpt lat="44.96968475959413" lon="9.88872153554003"><ele>56.0</ele><time>2026-05-01T06:26:15Z</time></trkpt><trkpt lat="44.96955025089896" lon="9.889016298128478"><ele>56.0</ele><time>2026-05-01T06:26:16Z</time></trkpt><trkpt lat="44.96941436229403" lon="9.889316170651595"><ele>56.0</ele><time>2026-05-01T06:26:17Z</time></trkpt><trkpt lat="44.96927858751271" lon="9.889615868412626"><ele>57.0</ele><time>2026-05-01T06:26:18Z</time></trkpt><trkpt lat="44.969145665079694" lon="9.889921216903888"><ele>58.0</ele><time>2026-05-01T06:26:19Z</time></trkpt><trkpt lat="44.969012384832894" lon="9.890231720237317"><ele>59.5</ele><time>2026-05-01T06:26:20Z</time></trkpt><trkpt lat="44.96887485479296" lon="9.890556796845035"><ele>61.0</ele><time>2026-05-01T06:26:21Z</time></trkpt><trkpt lat="44.968733409592645" lon="9.890885479355136"><ele>60.0</ele><time>2026-05-01T06:26:22Z</time></trkpt><trkpt lat="44.96858800667116" lon="9.891226333867502"><ele>59.0</ele><time>2026-05-01T06:26:23Z</time></trkpt><trkpt lat="44.96844155767147" lon="9.891571567011392"><ele>58.0</ele><time>2026-05-01T06:26:24Z</time></trkpt><trkpt lat="44.96829659109561" lon="9.891915812447795"><ele>57.0</ele><time>2026-05-01T06:26:25Z</time></trkpt><trkpt lat="44.96815083975766" lon="9.89225773434709"><ele>56.5</ele><time>2026-05-01T06:26:26Z</time></trkpt><trkpt lat="44.96800554146982" lon="9.89259822497913"><ele>56.0</ele><time>2026-05-01T06:26:27Z</time></trkpt><trkpt lat="44.9678630694918" lon="9.892929697532534"><ele>56.0</ele><time>2026-05-01T06:26:28Z</time></trkpt><trkpt lat="44.96772341196822" lon="9.893256520175019"><ele>56.0</ele><time>2026-05-01T06:26:29Z</time></trkpt><trkpt lat="44.96758634489145" lon="9.893580043026416"><ele>57.5</ele><time>2026-05-01T06:26:30Z</time></trkpt><trkpt lat="44.96745284734068" lon="9.893894874251686"><ele>59.0</ele><time>2026-05-01T06:26:31Z</time></trkpt><trkpt lat="44.96732224628658" lon="9.894202838380917"><ele>59.0</ele><time>2026-05-01T06:26:32Z</time></trkpt><trkpt lat="44.96719355820314" lon="9.89450685732147"><ele>59.0</ele><time>2026-05-01T06:26:33Z</time></trkpt><trkpt lat="44.96706700866947" lon="9.894799424896659"><ele>59.0</ele><time>2026-05-01T06:26:34Z</time></trkpt><trkpt lat="44.96694219748262" lon="9.895090136403187"><ele>59.0</ele><time>2026-05-01T06:26:35Z</time></trkpt><trkpt lat="44.966820031766204" lon="9.895377902911422"><ele>59.0</ele><time>2026-05-01T06:26:36Z</time></trkpt><trkpt lat="44.96669854218269" lon="9.895661633897515"><ele>59.0</ele><time>2026-05-01T06:26:37Z</time></trkpt><trkpt lat="44.96658166563227" lon="9.895939570119856"><ele>58.333333333333336</ele><time>2026-05-01T06:26:38Z</time></trkpt><trkpt lat="44.96646996469155" lon="9.896205193326391"><ele>57.66666666666667</ele><time>2026-05-01T06:26:39Z</time></trkpt><trkpt lat="44.966360329757876" lon="9.896473815027345"><ele>57.0</ele><time>2026-05-01T06:26:40Z</time></trkpt><trkpt lat="44.966249348409626" lon="9.896757700138501"><ele>57.0</ele><time>2026-05-01T06:26:41Z</time></trkpt><trkpt lat="44.9661366655293" lon="9.897043186773127"><ele>57.0</ele><time>2026-05-01T06:26:42Z</time></trkpt><trkpt lat="44.96601275670225" lon="9.897345758896982"><ele>57.5</ele><time>2026-05-01T06:26:43Z</time></trkpt><trkpt lat="44.96588299152901" lon="9.897651178657247"><ele>58.0</ele><time>2026-05-01T06:26:44Z</time></trkpt><trkpt lat="44.965750249435125" lon="9.897958452411277"><ele>58.0</ele><time>2026-05-01T06:26:45Z</time></trkpt><trkpt lat="44.965617283893174" lon="9.898267331473255"><ele>58.0</ele><time>2026-05-01T06:26:46Z</time></trkpt><trkpt lat="44.96548488481151" lon="9.898577695960574"><ele>58.5</ele><time>2026-05-01T06:26:47Z</time></trkpt><trkpt lat="44.96535225369684" lon="9.898886357446495"><ele>59.0</ele><time>2026-05-01T06:26:48Z</time></trkpt><trkpt lat="44.965219541117975" lon="9.899189450812724"><ele>59.5</ele><time>2026-05-01T06:26:49Z</time></trkpt><trkpt lat="44.96508757120541" lon="9.89948277659882"><ele>60.0</ele><time>2026-05-01T06:26:50Z</time></trkpt><trkpt lat="44.96496044663228" lon="9.89976233734615"><ele>60.0</ele><time>2026-05-01T06:26:51Z</time></trkpt><trkpt lat="44.96483740242075" lon="9.900035077567598"><ele>60.0</ele><time>2026-05-01T06:26:52Z</time></trkpt><trkpt lat="44.964717095503126" lon="9.900301863833079"><ele>60.33333333333333</ele><time>2026-05-01T06:26:53Z</time></trkpt><trkpt lat="44.96460103045644" lon="9.900566172713372"><ele>60.666666666666664</ele><time>2026-05-01T06:26:54Z</time></trkpt><trkpt lat="44.96448729053824" lon="9.900827365961993"><ele>61.0</ele><time>2026-05-01T06:26:55Z</time></trkpt><trkpt lat="44.96437545979828" lon="9.901082056724034"><ele>61.0</ele><time>2026-05-01T06:26:56Z</time></trkpt><trkpt lat="44.96425830582839" lon="9.901319995580437"><ele>61.0</ele><time>2026-05-01T06:26:57Z</time></trkpt><trkpt lat="44.96414122989861" lon="9.901542715241886"><ele>61.0</ele><time>2026-05-01T06:26:58Z</time></trkpt><trkpt lat="44.96402582461476" lon="9.901770039348168"><ele>60.666666666666664</ele><time>2026-05-01T06:26:59Z</time></trkpt><trkpt lat="44.96391052766023" lon="9.901992949543075"><ele>60.33333333333333</ele><time>2026-05-01T06:27:00Z</time></trkpt><trkpt lat="44.96380964446416" lon="9.902211376798165"><ele>60.0</ele><time>2026-05-01T06:27:01Z</time></trkpt><trkpt lat="44.96372235294107" lon="9.902412088245638"><ele>60.0</ele><time>2026-05-01T06:27:02Z</time></trkpt><trkpt lat="44.963638860645446" lon="9.902606786978914"><ele>60.0</ele><time>2026-05-01T06:27:03Z</time></trkpt><trkpt lat="44.96355914978378" lon="9.90278512424418"><ele>60.0</ele><time>2026-05-01T06:27:04Z</time></trkpt><trkpt lat="44.96348394456069" lon="9.902952011756783"><ele>60.0</ele><time>2026-05-01T06:27:05Z</time></trkpt><trkpt lat="44.96340890155244" lon="9.903123013759807"><ele>60.0</ele><time>2026-05-01T06:27:06Z</time></trkpt><trkpt lat="44.9633418151332" lon="9.903290595473091"><ele>60.0</ele><time>2026-05-01T06:27:07Z</time></trkpt><trkpt lat="44.9632710942658" lon="9.903452307883562"><ele>60.0</ele><time>2026-05-01T06:27:08Z</time></trkpt><trkpt lat="44.96319599209973" lon="9.903602762261979"><ele>60.2</ele><time>2026-05-01T06:27:09Z</time></trkpt><trkpt lat="44.963105731402166" lon="9.903729954934196"><ele>60.4</ele><time>2026-05-01T06:27:10Z</time></trkpt><trkpt lat="44.96302080889876" lon="9.903841664973216"><ele>60.599999999999994</ele><time>2026-05-01T06:27:11Z</time></trkpt><trkpt lat="44.9629352764146" lon="9.903925059415238"><ele>60.8</ele><time>2026-05-01T06:27:12Z</time></trkpt><trkpt lat="44.96285355081162" lon="9.90398495855804"><ele>61.0</ele><time>2026-05-01T06:27:13Z</time></trkpt><trkpt lat="44.96278145245209" lon="9.904036886541942"><ele>60.99999999999999</ele><time>2026-05-01T06:27:14Z</time></trkpt><trkpt lat="44.96267559773473" lon="9.904094850990923"><ele>61.0</ele><time>2026-05-01T06:27:16Z</time></trkpt><trkpt lat="44.962603179595895" lon="9.904130957595942"><ele>61.0</ele><time>2026-05-01T06:27:19Z</time></trkpt><trkpt lat="44.96252992061755" lon="9.904177432059583"><ele>61.0</ele><time>2026-05-01T06:27:22Z</time></trkpt><trkpt lat="44.962542384048426" lon="9.90429010629039"><ele>60.99999999999999</ele><time>2026-05-01T06:27:23Z</time></trkpt><trkpt lat="44.96249976861466" lon="9.904356910617903"><ele>61.0</ele><time>2026-05-01T06:27:25Z</time></trkpt><trkpt lat="44.96246190847988" lon="9.904435378199882"><ele>61.428571428571416</ele><time>2026-05-01T06:27:27Z</time></trkpt><trkpt lat="44.96250575548723" lon="9.90454617484608"><ele>61.857142857142854</ele><time>2026-05-01T06:27:27.999Z</time></trkpt><trkpt lat="44.962486752235336" lon="9.90463502543884"><ele>62.28571428571428</ele><time>2026-05-01T06:27:33Z</time></trkpt><trkpt lat="44.962459234318125" lon="9.904737476603303"><ele>62.71428571428571</ele><time>2026-05-01T06:27:36Z</time></trkpt><trkpt lat="44.96243303496853" lon="9.904831821661094"><ele>63.14285714285714</ele><time>2026-05-01T06:27:38Z</time></trkpt><trkpt lat="44.9623985033866" lon="9.90493390863549"><ele>63.57142857142857</ele><time>2026-05-01T06:27:41Z</time></trkpt><trkpt lat="44.962369846893544" lon="9.905014945768132"><ele>64.0</ele><time>2026-05-01T06:27:43Z</time></trkpt><trkpt lat="44.962330034550824" lon="9.905129843496509"><ele>64.0</ele><time>2026-05-01T06:27:46Z</time></trkpt><trkpt lat="44.96228267740123" lon="9.90521270959384"><ele>63.99999999999999</ele><time>2026-05-01T06:27:49Z</time></trkpt><trkpt lat="44.96229792936415" lon="9.905308567128488"><ele>64.0</ele><time>2026-05-01T06:27:51Z</time></trkpt><trkpt lat="44.96228465522441" lon="9.905425299587819"><ele>64.0</ele><time>2026-05-01T06:27:54Z</time></trkpt><trkpt lat="44.962354297326044" lon="9.905383023029692"><ele>63.99999999999999</ele><time>2026-05-01T06:31:23Z</time></trkpt><trkpt lat="44.96242866377107" lon="9.905363384032963"><ele>64.0</ele><time>2026-05-01T06:31:29Z</time></trkpt><trkpt lat="44.9624935749723" lon="9.905357387605122"><ele>64.0</ele><time>2026-05-01T06:31:44Z</time></trkpt><trkpt lat="44.96250164431085" lon="9.905264736224076"><ele>63.99999999999999</ele><time>2026-05-01T06:32:08Z</time></trkpt><trkpt lat="44.96248813240319" lon="9.905175697655801"><ele>64.0</ele><time>2026-05-01T06:32:16Z</time></trkpt><trkpt lat="44.96260159466217" lon="9.905110443453347"><ele>64.0</ele><time>2026-05-01T06:35:52Z</time></trkpt><trkpt lat="44.96255053381475" lon="9.905276223981478"><ele>64.0</ele><time>2026-05-01T06:42:25Z</time></trkpt><trkpt lat="44.962492653344185" lon="9.90531917509538"><ele>63.99999999999999</ele><time>2026-05-01T06:47:38.999Z</time></trkpt><trkpt lat="44.96244263446388" lon="9.905386610002774"><ele>64.0</ele><time>2026-05-01T06:47:46.999Z</time></trkpt><trkpt lat="44.962376333090255" lon="9.905409628873826"><ele>63.99999999999999</ele><time>2026-05-01T06:47:52.999Z</time></trkpt><trkpt lat="44.962321722608394" lon="9.905454299739537"><ele>64.0</ele><time>2026-05-01T06:47:57.999Z</time></trkpt><trkpt lat="44.96225873815045" lon="9.905466712289876"><ele>64.0</ele><time>2026-05-01T06:48:02.999Z</time></trkpt><trkpt lat="44.962333328696396" lon="9.90548391181355"><ele>64.0</ele><time>2026-05-01T06:55:44.999Z</time></trkpt><trkpt lat="44.96225802537029" lon="9.90557598134817"><ele>63.99999999999999</ele><time>2026-05-01T07:01:36Z</time></trkpt><trkpt lat="44.9622198419023" lon="9.905753550025766"><ele>64.0</ele><time>2026-05-01T07:01:38Z</time></trkpt><trkpt lat="44.96217970384426" lon="9.905851744501296"><ele>63.49999999999999</ele><time>2026-05-01T07:01:39Z</time></trkpt><trkpt lat="44.96214146914856" lon="9.905944925729367"><ele>63.0</ele><time>2026-05-01T07:01:40Z</time></trkpt><trkpt lat="44.962104943769546" lon="9.906039662583126"><ele>62.5</ele><time>2026-05-01T07:01:41Z</time></trkpt><trkpt lat="44.96206608982715" lon="9.906133915352552"><ele>62.0</ele><time>2026-05-01T07:01:42Z</time></trkpt><trkpt lat="44.9620268776822" lon="9.90622340238785"><ele>61.49999999999999</ele><time>2026-05-01T07:01:43Z</time></trkpt><trkpt lat="44.96198746189206" lon="9.906298918524817"><ele>61.0</ele><time>2026-05-01T07:01:44Z</time></trkpt><trkpt lat="44.96190604824031" lon="9.906354110479393"><ele>60.99999999999999</ele><time>2026-05-01T07:01:46Z</time></trkpt><trkpt lat="44.961834761769836" lon="9.906311959499993"><ele>61.0</ele><time>2026-05-01T07:01:48Z</time></trkpt><trkpt lat="44.96179535791536" lon="9.906208688891512"><ele>61.0</ele><time>2026-05-01T07:01:50Z</time></trkpt><trkpt lat="44.96173639816149" lon="9.906158940229785"><ele>61.0</ele><time>2026-05-01T07:01:52Z</time></trkpt><trkpt lat="44.961653465860145" lon="9.906231989758862"><ele>60.99999999999999</ele><time>2026-05-01T07:01:55Z</time></trkpt><trkpt lat="44.961660423432185" lon="9.90634082273866"><ele>61.0</ele><time>2026-05-01T07:01:56Z</time></trkpt><trkpt lat="44.96168810019225" lon="9.906455238390738"><ele>60.99999999999999</ele><time>2026-05-01T07:01:57Z</time></trkpt><trkpt lat="44.9617064476368" lon="9.906578013181077"><ele>61.0</ele><time>2026-05-01T07:01:58Z</time></trkpt><trkpt lat="44.96172240267883" lon="9.90670694457303"><ele>61.0</ele><time>2026-05-01T07:01:59Z</time></trkpt><trkpt lat="44.961733066297754" lon="9.906831821299152"><ele>61.0</ele><time>2026-05-01T07:02:00Z</time></trkpt><trkpt lat="44.96173810559777" lon="9.90695096599341"><ele>60.99999999999999</ele><time>2026-05-01T07:02:01Z</time></trkpt><trkpt lat="44.96173771686373" lon="9.907066073426982"><ele>61.0</ele><time>2026-05-01T07:02:02Z</time></trkpt><trkpt lat="44.96172534911859" lon="9.907177419541823"><ele>60.99999999999999</ele><time>2026-05-01T07:02:03Z</time></trkpt><trkpt lat="44.9616993349953" lon="9.907278129659053"><ele>61.0</ele><time>2026-05-01T07:02:04Z</time></trkpt><trkpt lat="44.96166692269386" lon="9.907382809473454"><ele>61.0</ele><time>2026-05-01T07:02:05Z</time></trkpt><trkpt lat="44.961627761054324" lon="9.907486224955932"><ele>61.0</ele><time>2026-05-01T07:02:06Z</time></trkpt><trkpt lat="44.96158508224258" lon="9.907590619696505"><ele>60.99999999999999</ele><time>2026-05-01T07:02:07Z</time></trkpt><trkpt lat="44.961540907989374" lon="9.90769716015821"><ele>61.0</ele><time>2026-05-01T07:02:08Z</time></trkpt><trkpt lat="44.96149420708165" lon="9.907806012186139"><ele>61.4</ele><time>2026-05-01T07:02:09Z</time></trkpt><trkpt lat="44.96144762931664" lon="9.907917803239537"><ele>61.8</ele><time>2026-05-01T07:02:10Z</time></trkpt><trkpt lat="44.961400820528944" lon="9.908024975957979"><ele>62.199999999999996</ele><time>2026-05-01T07:02:11Z</time></trkpt><trkpt lat="44.96135100897871" lon="9.90813296077672"><ele>62.599999999999994</ele><time>2026-05-01T07:02:12Z</time></trkpt><trkpt lat="44.9613029877678" lon="9.908247970692857"><ele>63.0</ele><time>2026-05-01T07:02:13Z</time></trkpt><trkpt lat="44.961254276771164" lon="9.908362410944598"><ele>63.0</ele><time>2026-05-01T07:02:14Z</time></trkpt><trkpt lat="44.961205502556965" lon="9.908476911416033"><ele>63.0</ele><time>2026-05-01T07:02:15Z</time></trkpt><trkpt lat="44.961153457365505" lon="9.908605750463723"><ele>63.0</ele><time>2026-05-01T07:02:16Z</time></trkpt><trkpt lat="44.961092232017805" lon="9.908750535206114"><ele>63.0</ele><time>2026-05-01T07:02:17Z</time></trkpt><trkpt lat="44.96103067905968" lon="9.908892810631938"><ele>63.0</ele><time>2026-05-01T07:02:18Z</time></trkpt><trkpt lat="44.96096798454942" lon="9.909038004188073"><ele>63.0</ele><time>2026-05-01T07:02:19Z</time></trkpt><trkpt lat="44.9609048952956" lon="9.909188631457763"><ele>63.0</ele><time>2026-05-01T07:02:20Z</time></trkpt><trkpt lat="44.960842306850786" lon="9.909327910591834"><ele>63.0</ele><time>2026-05-01T07:02:21Z</time></trkpt><trkpt lat="44.960785766410034" lon="9.909455038585943"><ele>63.0</ele><time>2026-05-01T07:02:22Z</time></trkpt><trkpt lat="44.960736284464815" lon="9.909570763160962"><ele>63.0</ele><time>2026-05-01T07:02:23Z</time></trkpt><trkpt lat="44.960692236837524" lon="9.90967711933065"><ele>62.599999999999994</ele><time>2026-05-01T07:02:24Z</time></trkpt><trkpt lat="44.96064834185593" lon="9.909780886963752"><ele>62.199999999999996</ele><time>2026-05-01T07:02:25Z</time></trkpt><trkpt lat="44.960594236832875" lon="9.909913490896246"><ele>61.8</ele><time>2026-05-01T07:02:26Z</time></trkpt><trkpt lat="44.96053451576118" lon="9.910050789781852"><ele>61.4</ele><time>2026-05-01T07:02:27Z</time></trkpt><trkpt lat="44.960477633022315" lon="9.910182310712637"><ele>61.0</ele><time>2026-05-01T07:02:28Z</time></trkpt><trkpt lat="44.96042841874798" lon="9.910299357217351"><ele>60.99999999999999</ele><time>2026-05-01T07:02:29Z</time></trkpt><trkpt lat="44.96038341961367" lon="9.910403396844398"><ele>61.0</ele><time>2026-05-01T07:02:30Z</time></trkpt><trkpt lat="44.96034239873637" lon="9.910499951592175"><ele>61.0</ele><time>2026-05-01T07:02:31Z</time></trkpt><trkpt lat="44.960306420666384" lon="9.910589936626254"><ele>61.0</ele><time>2026-05-01T07:02:32Z</time></trkpt><trkpt lat="44.96027426802851" lon="9.910673251061903"><ele>60.99999999999999</ele><time>2026-05-01T07:02:33Z</time></trkpt><trkpt lat="44.96021214252062" lon="9.910825742665361"><ele>61.0</ele><time>2026-05-01T07:02:35Z</time></trkpt><trkpt lat="44.960172594467736" lon="9.91090360242096"><ele>60.599999999999994</ele><time>2026-05-01T07:02:36Z</time></trkpt><trkpt lat="44.960114177962" lon="9.910978282958158"><ele>60.199999999999996</ele><time>2026-05-01T07:02:37Z</time></trkpt><trkpt lat="44.960079484542696" lon="9.91109616545192"><ele>59.800000000000004</ele><time>2026-05-01T07:02:38Z</time></trkpt><trkpt lat="44.960011740006394" lon="9.911221754442778"><ele>59.400000000000006</ele><time>2026-05-01T07:02:39Z</time></trkpt><trkpt lat="44.95995082811784" lon="9.911366495986835"><ele>59.0</ele><time>2026-05-01T07:02:40Z</time></trkpt><trkpt lat="44.959885106396634" lon="9.911518609099497"><ele>59.0</ele><time>2026-05-01T07:02:41Z</time></trkpt><trkpt lat="44.95982081646533" lon="9.911678224586531"><ele>59.0</ele><time>2026-05-01T07:02:42Z</time></trkpt><trkpt lat="44.95975702407118" lon="9.91183653944477"><ele>59.0</ele><time>2026-05-01T07:02:43Z</time></trkpt><trkpt lat="44.95970138996421" lon="9.911984644102535"><ele>59.0</ele><time>2026-05-01T07:02:44Z</time></trkpt><trkpt lat="44.95964490284938" lon="9.91213107668673"><ele>58.25</ele><time>2026-05-01T07:02:45Z</time></trkpt><trkpt lat="44.95958560616998" lon="9.912278222117159"><ele>57.5</ele><time>2026-05-01T07:02:46Z</time></trkpt><trkpt lat="44.959528724251186" lon="9.912424456081101"><ele>56.75</ele><time>2026-05-01T07:02:47Z</time></trkpt><trkpt lat="44.959472045381695" lon="9.9125686348853"><ele>56.0</ele><time>2026-05-01T07:02:48Z</time></trkpt><trkpt lat="44.959413803518665" lon="9.912706225931453"><ele>56.0</ele><time>2026-05-01T07:02:49Z</time></trkpt><trkpt lat="44.95936308549356" lon="9.912832077523863"><ele>55.99999999999999</ele><time>2026-05-01T07:02:50Z</time></trkpt><trkpt lat="44.95932108075748" lon="9.912946918349295"><ele>55.99999999999999</ele><time>2026-05-01T07:02:51Z</time></trkpt><trkpt lat="44.95927715358512" lon="9.913047933162886"><ele>56.0</ele><time>2026-05-01T07:02:52Z</time></trkpt><trkpt lat="44.959227588383875" lon="9.91314774557372"><ele>56.0</ele><time>2026-05-01T07:02:53Z</time></trkpt><trkpt lat="44.95917632977864" lon="9.913266886232085"><ele>57.199999999999996</ele><time>2026-05-01T07:02:54Z</time></trkpt><trkpt lat="44.95911227464212" lon="9.913393705607183"><ele>58.39999999999999</ele><time>2026-05-01T07:02:54.999Z</time></trkpt><trkpt lat="44.95905408134789" lon="9.913529904037036"><ele>59.6</ele><time>2026-05-01T07:02:55.999Z</time></trkpt><trkpt lat="44.95899521662709" lon="9.913664532395925"><ele>60.8</ele><time>2026-05-01T07:02:56.999Z</time></trkpt><trkpt lat="44.958936489937244" lon="9.91379550174456"><ele>62.0</ele><time>2026-05-01T07:02:57.999Z</time></trkpt><trkpt lat="44.95888033038997" lon="9.913925362980955"><ele>62.0</ele><time>2026-05-01T07:02:58.999Z</time></trkpt><trkpt lat="44.95882920004234" lon="9.914048933210523"><ele>62.0</ele><time>2026-05-01T07:02:59.999Z</time></trkpt><trkpt lat="44.9587791215426" lon="9.914162806963587"><ele>62.0</ele><time>2026-05-01T07:03:00.999Z</time></trkpt><trkpt lat="44.95873004168373" lon="9.914276557418631"><ele>62.0</ele><time>2026-05-01T07:03:01.999Z</time></trkpt><trkpt lat="44.95868489275643" lon="9.914388249496715"><ele>62.0</ele><time>2026-05-01T07:03:02.999Z</time></trkpt><trkpt lat="44.958643749930275" lon="9.914490101267859"><ele>61.833333333333336</ele><time>2026-05-01T07:03:03.999Z</time></trkpt><trkpt lat="44.958602621472004" lon="9.914587769425268"><ele>61.66666666666667</ele><time>2026-05-01T07:03:04.999Z</time></trkpt><trkpt lat="44.95856240059836" lon="9.914683806660214"><ele>61.5</ele><time>2026-05-01T07:03:05.999Z</time></trkpt><trkpt lat="44.95852255407418" lon="9.914775497286778"><ele>61.33333333333333</ele><time>2026-05-01T07:03:06.999Z</time></trkpt><trkpt lat="44.95848377854698" lon="9.91487213824039"><ele>61.166666666666664</ele><time>2026-05-01T07:03:07.999Z</time></trkpt><trkpt lat="44.958443967410716" lon="9.914971548284525"><ele>61.0</ele><time>2026-05-01T07:03:08.999Z</time></trkpt><trkpt lat="44.95840388859857" lon="9.915067494401105"><ele>60.85714285714285</ele><time>2026-05-01T07:03:10.001Z</time></trkpt><trkpt lat="44.958366041290446" lon="9.915158523074782"><ele>60.71428571428571</ele><time>2026-05-01T07:03:11.001Z</time></trkpt><trkpt lat="44.95833031480778" lon="9.915243486614918"><ele>60.57142857142857</ele><time>2026-05-01T07:03:12.001Z</time></trkpt><trkpt lat="44.95829627052007" lon="9.915326525753454"><ele>60.42857142857142</ele><time>2026-05-01T07:03:13.001Z</time></trkpt><trkpt lat="44.95826151910897" lon="9.915411216687565"><ele>60.28571428571428</ele><time>2026-05-01T07:03:14.001Z</time></trkpt><trkpt lat="44.95822570449277" lon="9.915495618321104"><ele>60.142857142857146</ele><time>2026-05-01T07:03:15.001Z</time></trkpt><trkpt lat="44.958182190355444" lon="9.915591648212239"><ele>60.0</ele><time>2026-05-01T07:03:16.001Z</time></trkpt><trkpt lat="44.95813088648692" lon="9.915696642076908"><ele>60.0</ele><time>2026-05-01T07:03:17.001Z</time></trkpt><trkpt lat="44.95807550520598" lon="9.915808391849048"><ele>60.0</ele><time>2026-05-01T07:03:18.001Z</time></trkpt><trkpt lat="44.95801743355838" lon="9.915926907581435"><ele>60.0</ele><time>2026-05-01T07:03:19.001Z</time></trkpt><trkpt lat="44.957993370687454" lon="9.916019574831942"><ele>60.0</ele><time>2026-05-01T07:03:21.001Z</time></trkpt><trkpt lat="44.957935455562215" lon="9.916150190401298"><ele>60.0</ele><time>2026-05-01T07:03:23.001Z</time></trkpt><trkpt lat="44.95787639516611" lon="9.916274634631364"><ele>59.8</ele><time>2026-05-01T07:03:25.001Z</time></trkpt><trkpt lat="44.957815834924446" lon="9.916410621288337"><ele>59.6</ele><time>2026-05-01T07:03:27Z</time></trkpt><trkpt lat="44.957759483594316" lon="9.916539487397099"><ele>59.400000000000006</ele><time>2026-05-01T07:03:29Z</time></trkpt><trkpt lat="44.957711537884066" lon="9.91666012961023"><ele>59.2</ele><time>2026-05-01T07:03:31Z</time></trkpt><trkpt lat="44.957654445124795" lon="9.916771774895508"><ele>59.0</ele><time>2026-05-01T07:03:33Z</time></trkpt><trkpt lat="44.95761550827876" lon="9.916879831997523"><ele>59.00000000000001</ele><time>2026-05-01T07:03:35Z</time></trkpt><trkpt lat="44.957570618312516" lon="9.916978905680462"><ele>59.0</ele><time>2026-05-01T07:03:37Z</time></trkpt><trkpt lat="44.957529027662794" lon="9.91709128131007"><ele>59.0</ele><time>2026-05-01T07:03:39Z</time></trkpt><trkpt lat="44.95749319682889" lon="9.917178896411604"><ele>59.0</ele><time>2026-05-01T07:03:41Z</time></trkpt><trkpt lat="44.957453054710655" lon="9.917260384433987"><ele>59.00000000000001</ele><time>2026-05-01T07:03:44Z</time></trkpt><trkpt lat="44.95740282782617" lon="9.917384865257402"><ele>59.0</ele><time>2026-05-01T07:03:46Z</time></trkpt><trkpt lat="44.95733650376989" lon="9.917540326784609"><ele>59.71428571428571</ele><time>2026-05-01T07:03:48Z</time></trkpt><trkpt lat="44.95730313006827" lon="9.917622967341252"><ele>60.42857142857143</ele><time>2026-05-01T07:03:49Z</time></trkpt><trkpt lat="44.957271756676064" lon="9.9177041754614"><ele>61.14285714285714</ele><time>2026-05-01T07:03:50Z</time></trkpt><trkpt lat="44.95723427023062" lon="9.917789710165344"><ele>61.857142857142854</ele><time>2026-05-01T07:03:51Z</time></trkpt><trkpt lat="44.95719632969247" lon="9.917880701118017"><ele>62.57142857142857</ele><time>2026-05-01T07:03:52Z</time></trkpt><trkpt lat="44.957156275238425" lon="9.917973943743425"><ele>63.285714285714285</ele><time>2026-05-01T07:03:53Z</time></trkpt><trkpt lat="44.957112432097425" lon="9.918067177674274"><ele>64.0</ele><time>2026-05-01T07:03:54Z</time></trkpt><trkpt lat="44.95707571412974" lon="9.91814882436698"><ele>64.0</ele><time>2026-05-01T07:03:55Z</time></trkpt><trkpt lat="44.95704298171148" lon="9.918228987358127"><ele>63.99999999999999</ele><time>2026-05-01T07:03:56Z</time></trkpt><trkpt lat="44.95700877585162" lon="9.918313466456848"><ele>64.0</ele><time>2026-05-01T07:03:57Z</time></trkpt><trkpt lat="44.95697316746506" lon="9.91839701429706"><ele>64.0</ele><time>2026-05-01T07:03:58Z</time></trkpt><trkpt lat="44.95693857149502" lon="9.918472245554428"><ele>63.99999999999999</ele><time>2026-05-01T07:03:59Z</time></trkpt><trkpt lat="44.956879732545254" lon="9.91861352057208"><ele>64.0</ele><time>2026-05-01T07:04:01Z</time></trkpt><trkpt lat="44.95684764691317" lon="9.918693138224944"><ele>64.0</ele><time>2026-05-01T07:04:02Z</time></trkpt><trkpt lat="44.95678574730223" lon="9.918843549778302"><ele>64.2</ele><time>2026-05-01T07:04:04Z</time></trkpt><trkpt lat="44.95674971383387" lon="9.918931961934616"><ele>64.4</ele><time>2026-05-01T07:04:05Z</time></trkpt><trkpt lat="44.95670751087263" lon="9.919034790654091"><ele>64.6</ele><time>2026-05-01T07:04:06Z</time></trkpt><trkpt lat="44.9566591368917" lon="9.919147848408366"><ele>64.8</ele><time>2026-05-01T07:04:07Z</time></trkpt><trkpt lat="44.956609476272476" lon="9.91927209755468"><ele>65.0</ele><time>2026-05-01T07:04:08Z</time></trkpt><trkpt lat="44.956559850188306" lon="9.919403437147832"><ele>64.5</ele><time>2026-05-01T07:04:09Z</time></trkpt><trkpt lat="44.956497617633524" lon="9.919547357761497"><ele>64.0</ele><time>2026-05-01T07:04:10Z</time></trkpt><trkpt lat="44.95642899429041" lon="9.919702030079998"><ele>63.5</ele><time>2026-05-01T07:04:11Z</time></trkpt><trkpt lat="44.95635375320152" lon="9.919872563773211"><ele>63.0</ele><time>2026-05-01T07:04:12Z</time></trkpt><trkpt lat="44.956277433196576" lon="9.92005325974343"><ele>62.66666666666667</ele><time>2026-05-01T07:04:13Z</time></trkpt><trkpt lat="44.9561963928482" lon="9.920248175742918"><ele>62.333333333333336</ele><time>2026-05-01T07:04:14Z</time></trkpt><trkpt lat="44.956102864020686" lon="9.920459942997656"><ele>62.0</ele><time>2026-05-01T07:04:15Z</time></trkpt><trkpt lat="44.956005232610785" lon="9.92068391711591"><ele>62.66666666666667</ele><time>2026-05-01T07:04:16Z</time></trkpt><trkpt lat="44.95590772828726" lon="9.920910762996197"><ele>63.33333333333333</ele><time>2026-05-01T07:04:17Z</time></trkpt><trkpt lat="44.95582362593694" lon="9.921138736273129"><ele>64.0</ele><time>2026-05-01T07:04:18Z</time></trkpt><trkpt lat="44.95574803476682" lon="9.921372195835172"><ele>64.33333333333333</ele><time>2026-05-01T07:04:19Z</time></trkpt><trkpt lat="44.955670406788684" lon="9.92160752769426"><ele>64.66666666666667</ele><time>2026-05-01T07:04:20Z</time></trkpt><trkpt lat="44.95558433176036" lon="9.9218434433063"><ele>65.0</ele><time>2026-05-01T07:04:21Z</time></trkpt><trkpt lat="44.955491125479874" lon="9.922081521850716"><ele>65.0</ele><time>2026-05-01T07:04:22Z</time></trkpt><trkpt lat="44.95539041736256" lon="9.922316979657174"><ele>65.0</ele><time>2026-05-01T07:04:23Z</time></trkpt><trkpt lat="44.955291746326594" lon="9.922558858852861"><ele>65.0</ele><time>2026-05-01T07:04:24Z</time></trkpt><trkpt lat="44.95519339876213" lon="9.922809563781462"><ele>64.66666666666667</ele><time>2026-05-01T07:04:25Z</time></trkpt><trkpt lat="44.955091010792465" lon="9.923058570181198"><ele>64.33333333333333</ele><time>2026-05-01T07:04:26Z</time></trkpt><trkpt lat="44.95498655569628" lon="9.923302147339665"><ele>64.0</ele><time>2026-05-01T07:04:27Z</time></trkpt><trkpt lat="44.95487942539629" lon="9.923550836599023"><ele>63.666666666666664</ele><time>2026-05-01T07:04:28Z</time></trkpt><trkpt lat="44.95477247689484" lon="9.923795942112331"><ele>63.33333333333333</ele><time>2026-05-01T07:04:29Z</time></trkpt><trkpt lat="44.95466840539976" lon="9.924037616998046"><ele>63.0</ele><time>2026-05-01T07:04:30Z</time></trkpt><trkpt lat="44.95456944424017" lon="9.924274763089205"><ele>62.33333333333333</ele><time>2026-05-01T07:04:31Z</time></trkpt><trkpt lat="44.95446810198014" lon="9.92451614400353"><ele>61.666666666666664</ele><time>2026-05-01T07:04:32Z</time></trkpt><trkpt lat="44.954362059427346" lon="9.924763329370244"><ele>61.0</ele><time>2026-05-01T07:04:33Z</time></trkpt><trkpt lat="44.95426245179341" lon="9.924998905930899"><ele>61.0</ele><time>2026-05-01T07:04:34Z</time></trkpt><trkpt lat="44.954159190417755" lon="9.925243718818956"><ele>61.0</ele><time>2026-05-01T07:04:35Z</time></trkpt><trkpt lat="44.95405640304139" lon="9.925484815006916"><ele>61.0</ele><time>2026-05-01T07:04:36Z</time></trkpt><trkpt lat="44.95395575368408" lon="9.925719762168942"><ele>60.666666666666664</ele><time>2026-05-01T07:04:37Z</time></trkpt><trkpt lat="44.95385350986739" lon="9.925953936219418"><ele>60.33333333333333</ele><time>2026-05-01T07:04:38Z</time></trkpt><trkpt lat="44.95375485392505" lon="9.926194129053686"><ele>60.0</ele><time>2026-05-01T07:04:39Z</time></trkpt><trkpt lat="44.95365475551983" lon="9.926432247595757"><ele>60.0</ele><time>2026-05-01T07:04:40Z</time></trkpt><trkpt lat="44.953553830565866" lon="9.92666967480629"><ele>60.0</ele><time>2026-05-01T07:04:41Z</time></trkpt><trkpt lat="44.95345174604622" lon="9.926909775316028"><ele>60.0</ele><time>2026-05-01T07:04:42Z</time></trkpt><trkpt lat="44.95334712749382" lon="9.927150096764997"><ele>60.33333333333333</ele><time>2026-05-01T07:04:43Z</time></trkpt><trkpt lat="44.95324225524" lon="9.927392127741902"><ele>60.666666666666664</ele><time>2026-05-01T07:04:44Z</time></trkpt><trkpt lat="44.95313621419821" lon="9.927641090381027"><ele>61.0</ele><time>2026-05-01T07:04:45Z</time></trkpt><trkpt lat="44.9530299029797" lon="9.927894802291522"><ele>60.666666666666664</ele><time>2026-05-01T07:04:46Z</time></trkpt><trkpt lat="44.95292067226524" lon="9.928148500337988"><ele>60.33333333333333</ele><time>2026-05-01T07:04:47Z</time></trkpt><trkpt lat="44.95281075162666" lon="9.928405864434605"><ele>60.0</ele><time>2026-05-01T07:04:48Z</time></trkpt><trkpt lat="44.952699494537285" lon="9.92867066733327"><ele>60.0</ele><time>2026-05-01T07:04:49Z</time></trkpt><trkpt lat="44.95258479503337" lon="9.928937905841687"><ele>60.0</ele><time>2026-05-01T07:04:50Z</time></trkpt><trkpt lat="44.95246857662369" lon="9.929209502909137"><ele>60.0</ele><time>2026-05-01T07:04:51Z</time></trkpt><trkpt lat="44.95235125395936" lon="9.92948213315027"><ele>60.0</ele><time>2026-05-01T07:04:52Z</time></trkpt><trkpt lat="44.95223475715685" lon="9.929755296661616"><ele>60.0</ele><time>2026-05-01T07:04:53Z</time></trkpt><trkpt lat="44.952117081309595" lon="9.93002766151108"><ele>59.66666666666667</ele><time>2026-05-01T07:04:54Z</time></trkpt><trkpt lat="44.952003071598554" lon="9.930298280298665"><ele>59.333333333333336</ele><time>2026-05-01T07:04:54.999Z</time></trkpt><trkpt lat="44.95189068848912" lon="9.93056395350506"><ele>59.0</ele><time>2026-05-01T07:04:55.999Z</time></trkpt><trkpt lat="44.95177627862497" lon="9.93083077368811"><ele>57.66666666666667</ele><time>2026-05-01T07:04:56.999Z</time></trkpt><trkpt lat="44.951661892057395" lon="9.93110006061977"><ele>56.33333333333333</ele><time>2026-05-01T07:04:57.999Z</time></trkpt><trkpt lat="44.9515470784159" lon="9.931369428055598"><ele>55.0</ele><time>2026-05-01T07:04:58.999Z</time></trkpt><trkpt lat="44.95143100017364" lon="9.931639114192345"><ele>55.0</ele><time>2026-05-01T07:04:59.999Z</time></trkpt><trkpt lat="44.95131544513707" lon="9.931911088496502"><ele>55.0</ele><time>2026-05-01T07:05:00.999Z</time></trkpt><trkpt lat="44.9511996859472" lon="9.932183644842102"><ele>55.0</ele><time>2026-05-01T07:05:01.999Z</time></trkpt><trkpt lat="44.95108110549302" lon="9.932463340342272"><ele>55.5</ele><time>2026-05-01T07:05:02.999Z</time></trkpt><trkpt lat="44.9509641721605" lon="9.93273962763018"><ele>56.0</ele><time>2026-05-01T07:05:03.999Z</time></trkpt><trkpt lat="44.95084870869846" lon="9.933013646620369"><ele>57.0</ele><time>2026-05-01T07:05:04.999Z</time></trkpt><trkpt lat="44.950732990622214" lon="9.933291749810168"><ele>58.0</ele><time>2026-05-01T07:05:05.999Z</time></trkpt><trkpt lat="44.95061608949925" lon="9.933568650352884"><ele>58.0</ele><time>2026-05-01T07:05:06.999Z</time></trkpt><trkpt lat="44.950499755788826" lon="9.933843846641137"><ele>58.0</ele><time>2026-05-01T07:05:07.999Z</time></trkpt><trkpt lat="44.95038220188141" lon="9.934116760393792"><ele>58.0</ele><time>2026-05-01T07:05:08.999Z</time></trkpt><trkpt lat="44.95026355172259" lon="9.934389379532323"><ele>58.0</ele><time>2026-05-01T07:05:09.999Z</time></trkpt><trkpt lat="44.95014370484772" lon="9.934665779053883"><ele>58.5</ele><time>2026-05-01T07:05:10.999Z</time></trkpt><trkpt lat="44.950024481262545" lon="9.934945902307481"><ele>59.0</ele><time>2026-05-01T07:05:11.999Z</time></trkpt><trkpt lat="44.94990368353418" lon="9.935228372425565"><ele>57.5</ele><time>2026-05-01T07:05:12.999Z</time></trkpt><trkpt lat="44.94978245321393" lon="9.935513892181412"><ele>56.0</ele><time>2026-05-01T07:05:13.999Z</time></trkpt><trkpt lat="44.94965938808305" lon="9.935804102908294"><ele>56.0</ele><time>2026-05-01T07:05:14.999Z</time></trkpt><trkpt lat="44.94953558851549" lon="9.936094516304351"><ele>56.0</ele><time>2026-05-01T07:05:16Z</time></trkpt><trkpt lat="44.94941065692541" lon="9.936388782288065"><ele>56.0</ele><time>2026-05-01T07:05:17Z</time></trkpt><trkpt lat="44.94928434599277" lon="9.936684171733972"><ele>56.0</ele><time>2026-05-01T07:05:18Z</time></trkpt><trkpt lat="44.949157061472036" lon="9.93698063271926"><ele>57.0</ele><time>2026-05-01T07:05:19Z</time></trkpt><trkpt lat="44.949029088477346" lon="9.937276647233887"><ele>58.0</ele><time>2026-05-01T07:05:20Z</time></trkpt><trkpt lat="44.94890082574705" lon="9.937579661512313"><ele>58.0</ele><time>2026-05-01T07:05:21Z</time></trkpt><trkpt lat="44.9487739457468" lon="9.937880877488915"><ele>58.0</ele><time>2026-05-01T07:05:22Z</time></trkpt><trkpt lat="44.948646696932364" lon="9.938180439422462"><ele>58.5</ele><time>2026-05-01T07:05:23Z</time></trkpt><trkpt lat="44.94851812658625" lon="9.938480978086048"><ele>59.0</ele><time>2026-05-01T07:05:24Z</time></trkpt><trkpt lat="44.94839072904704" lon="9.93877785514874"><ele>58.5</ele><time>2026-05-01T07:05:25Z</time></trkpt><trkpt lat="44.9482604364182" lon="9.939082535402708"><ele>58.0</ele><time>2026-05-01T07:05:26Z</time></trkpt><trkpt lat="44.94813188674957" lon="9.93938582321166"><ele>58.0</ele><time>2026-05-01T07:05:27Z</time></trkpt><trkpt lat="44.94800191197363" lon="9.93969158636331"><ele>58.0</ele><time>2026-05-01T07:05:28Z</time></trkpt><trkpt lat="44.94786929373529" lon="9.940001974861701"><ele>57.0</ele><time>2026-05-01T07:05:29Z</time></trkpt><trkpt lat="44.947734903848804" lon="9.94031232364398"><ele>56.0</ele><time>2026-05-01T07:05:30Z</time></trkpt><trkpt lat="44.94760045037169" lon="9.940625393894727"><ele>56.0</ele><time>2026-05-01T07:05:31Z</time></trkpt><trkpt lat="44.94746680947367" lon="9.940941463687775"><ele>56.0</ele><time>2026-05-01T07:05:32Z</time></trkpt><trkpt lat="44.94733339704788" lon="9.941257292406169"><ele>56.0</ele><time>2026-05-01T07:05:33Z</time></trkpt><trkpt lat="44.94719831987874" lon="9.941571749373407"><ele>56.0</ele><time>2026-05-01T07:05:34Z</time></trkpt><trkpt lat="44.94706234437624" lon="9.941890961363967"><ele>54.5</ele><time>2026-05-01T07:05:35Z</time></trkpt><trkpt lat="44.946926326249596" lon="9.942209962756834"><ele>53.0</ele><time>2026-05-01T07:05:36Z</time></trkpt><trkpt lat="44.94678992959332" lon="9.942529752657"><ele>55.0</ele><time>2026-05-01T07:05:37Z</time></trkpt><trkpt lat="44.94665245811936" lon="9.942850358216429"><ele>57.0</ele><time>2026-05-01T07:05:38Z</time></trkpt><trkpt lat="44.946515463311215" lon="9.943173616351627"><ele>55.0</ele><time>2026-05-01T07:05:39Z</time></trkpt><trkpt lat="44.94637673269787" lon="9.943498033373768"><ele>53.0</ele><time>2026-05-01T07:05:40Z</time></trkpt><trkpt lat="44.94623943048892" lon="9.943821149383457"><ele>53.0</ele><time>2026-05-01T07:05:41Z</time></trkpt><trkpt lat="44.94610061555567" lon="9.944150500151594"><ele>53.0</ele><time>2026-05-01T07:05:42Z</time></trkpt><trkpt lat="44.94595551166241" lon="9.944492584407401"><ele>53.0</ele><time>2026-05-01T07:05:43Z</time></trkpt><trkpt lat="44.94580604614645" lon="9.944843495843696"><ele>53.0</ele><time>2026-05-01T07:05:44Z</time></trkpt><trkpt lat="44.94565327826364" lon="9.945203369360755"><ele>53.0</ele><time>2026-05-01T07:05:45Z</time></trkpt><trkpt lat="44.945497185994775" lon="9.94556335898983"><ele>53.0</ele><time>2026-05-01T07:05:46Z</time></trkpt><trkpt lat="44.94533907142376" lon="9.945929443163406"><ele>53.5</ele><time>2026-05-01T07:05:47Z</time></trkpt><trkpt lat="44.94518141933802" lon="9.946295884953235"><ele>54.0</ele><time>2026-05-01T07:05:48Z</time></trkpt><trkpt lat="44.945026396240515" lon="9.946666767290157"><ele>54.5</ele><time>2026-05-01T07:05:49Z</time></trkpt><trkpt lat="44.94486834121134" lon="9.94704140215646"><ele>55.0</ele><time>2026-05-01T07:05:50Z</time></trkpt><trkpt lat="44.94471220237507" lon="9.947407005925013"><ele>55.0</ele><time>2026-05-01T07:05:51Z</time></trkpt><trkpt lat="44.944549048198056" lon="9.94777664688715"><ele>55.0</ele><time>2026-05-01T07:05:52Z</time></trkpt><trkpt lat="44.94438847399694" lon="9.94813511207953"><ele>54.5</ele><time>2026-05-01T07:05:53Z</time></trkpt><trkpt lat="44.94422271616195" lon="9.94849710391782"><ele>54.0</ele><time>2026-05-01T07:05:54Z</time></trkpt><trkpt lat="44.94405547269596" lon="9.948859735526293"><ele>53.0</ele><time>2026-05-01T07:05:55Z</time></trkpt><trkpt lat="44.94388245390782" lon="9.949223356834237"><ele>52.0</ele><time>2026-05-01T07:05:56Z</time></trkpt><trkpt lat="44.94372193007074" lon="9.949580081079594"><ele>52.0</ele><time>2026-05-01T07:05:57Z</time></trkpt><trkpt lat="44.94356160709254" lon="9.949943466809268"><ele>52.0</ele><time>2026-05-01T07:05:58Z</time></trkpt><trkpt lat="44.9434012001292" lon="9.950310517444075"><ele>52.0</ele><time>2026-05-01T07:05:59Z</time></trkpt><trkpt lat="44.9432443734082" lon="9.950669022523696"><ele>52.0</ele><time>2026-05-01T07:06:00Z</time></trkpt><trkpt lat="44.94308917078354" lon="9.951030821512807"><ele>52.0</ele><time>2026-05-01T07:06:01Z</time></trkpt><trkpt lat="44.94293505644507" lon="9.9513968853936"><ele>52.0</ele><time>2026-05-01T07:06:02Z</time></trkpt><trkpt lat="44.942779494743895" lon="9.951766109685144"><ele>52.0</ele><time>2026-05-01T07:06:03Z</time></trkpt><trkpt lat="44.942622198593675" lon="9.952126132533476"><ele>52.0</ele><time>2026-05-01T07:06:04Z</time></trkpt><trkpt lat="44.9424651199769" lon="9.952492532803392"><ele>53.0</ele><time>2026-05-01T07:06:05Z</time></trkpt><trkpt lat="44.94230598725119" lon="9.952865739072108"><ele>54.0</ele><time>2026-05-01T07:06:06Z</time></trkpt><trkpt lat="44.94214500901913" lon="9.953235967860692"><ele>53.0</ele><time>2026-05-01T07:06:07Z</time></trkpt><trkpt lat="44.94198291497576" lon="9.953602175706793"><ele>52.0</ele><time>2026-05-01T07:06:08Z</time></trkpt><trkpt lat="44.941826502979765" lon="9.953972268223131"><ele>51.5</ele><time>2026-05-01T07:06:09Z</time></trkpt><trkpt lat="44.94166997721787" lon="9.954339228588442"><ele>51.0</ele><time>2026-05-01T07:06:10Z</time></trkpt><trkpt lat="44.941514238166974" lon="9.954713886322766"><ele>51.5</ele><time>2026-05-01T07:06:11Z</time></trkpt><trkpt lat="44.94135625954079" lon="9.955083218133172"><ele>52.0</ele><time>2026-05-01T07:06:12Z</time></trkpt><trkpt lat="44.9411973116748" lon="9.955452305501023"><ele>52.0</ele><time>2026-05-01T07:06:13Z</time></trkpt><trkpt lat="44.94103909270783" lon="9.955819345133504"><ele>52.0</ele><time>2026-05-01T07:06:14Z</time></trkpt><trkpt lat="44.940884637788855" lon="9.95618284747845"><ele>52.0</ele><time>2026-05-01T07:06:15Z</time></trkpt><trkpt lat="44.94073216734748" lon="9.956543172985995"><ele>52.0</ele><time>2026-05-01T07:06:16Z</time></trkpt><trkpt lat="44.94057974689297" lon="9.95690763026543"><ele>51.5</ele><time>2026-05-01T07:06:17Z</time></trkpt><trkpt lat="44.940425638966566" lon="9.957268395373706"><ele>51.0</ele><time>2026-05-01T07:06:18Z</time></trkpt><trkpt lat="44.94027256788642" lon="9.957625898471541"><ele>51.0</ele><time>2026-05-01T07:06:19Z</time></trkpt><trkpt lat="44.94012066498906" lon="9.957983560237247"><ele>51.0</ele><time>2026-05-01T07:06:20Z</time></trkpt><trkpt lat="44.939967655684185" lon="9.958338998217537"><ele>52.5</ele><time>2026-05-01T07:06:21Z</time></trkpt><trkpt lat="44.93981154639226" lon="9.958698231606284"><ele>54.0</ele><time>2026-05-01T07:06:22Z</time></trkpt><trkpt lat="44.93965465403021" lon="9.959053793671929"><ele>52.5</ele><time>2026-05-01T07:06:23Z</time></trkpt><trkpt lat="44.93949621394062" lon="9.95940553369838"><ele>51.0</ele><time>2026-05-01T07:06:24Z</time></trkpt><trkpt lat="44.93933656675579" lon="9.959760179431498"><ele>51.0</ele><time>2026-05-01T07:06:25Z</time></trkpt><trkpt lat="44.93917516024175" lon="9.96010529728512"><ele>51.0</ele><time>2026-05-01T07:06:26Z</time></trkpt><trkpt lat="44.939015989114644" lon="9.960448902844895"><ele>51.0</ele><time>2026-05-01T07:06:27Z</time></trkpt><trkpt lat="44.938855897756255" lon="9.960790793170558"><ele>51.0</ele><time>2026-05-01T07:06:28Z</time></trkpt><trkpt lat="44.93869626350661" lon="9.961129069277465"><ele>49.5</ele><time>2026-05-01T07:06:29Z</time></trkpt><trkpt lat="44.93853643172181" lon="9.961462273149856"><ele>48.0</ele><time>2026-05-01T07:06:30Z</time></trkpt><trkpt lat="44.938377406112856" lon="9.961791605249875"><ele>48.0</ele><time>2026-05-01T07:06:31Z</time></trkpt><trkpt lat="44.93822140216502" lon="9.962120906356523"><ele>48.0</ele><time>2026-05-01T07:06:32Z</time></trkpt><trkpt lat="44.93806361492889" lon="9.962445062754725"><ele>48.5</ele><time>2026-05-01T07:06:33Z</time></trkpt><trkpt lat="44.93790828414269" lon="9.962761910161143"><ele>49.0</ele><time>2026-05-01T07:06:34Z</time></trkpt><trkpt lat="44.937754147200955" lon="9.963076590236081"><ele>49.5</ele><time>2026-05-01T07:06:35Z</time></trkpt><trkpt lat="44.937600948137785" lon="9.963390325508346"><ele>50.0</ele><time>2026-05-01T07:06:36Z</time></trkpt><trkpt lat="44.937450714448545" lon="9.963698437459321"><ele>50.0</ele><time>2026-05-01T07:06:37Z</time></trkpt><trkpt lat="44.93730242651996" lon="9.964006131905862"><ele>50.0</ele><time>2026-05-01T07:06:38Z</time></trkpt><trkpt lat="44.93715365602134" lon="9.964310829975394"><ele>50.5</ele><time>2026-05-01T07:06:39Z</time></trkpt><trkpt lat="44.93700655273942" lon="9.964608261118315"><ele>51.0</ele><time>2026-05-01T07:06:40Z</time></trkpt><trkpt lat="44.93686108221555" lon="9.96490508069223"><ele>49.5</ele><time>2026-05-01T07:06:41Z</time></trkpt><trkpt lat="44.93671454384411" lon="9.965203032343414"><ele>48.0</ele><time>2026-05-01T07:06:42Z</time></trkpt><trkpt lat="44.93656843957558" lon="9.965496024693834"><ele>48.0</ele><time>2026-05-01T07:06:43Z</time></trkpt><trkpt lat="44.93642347966185" lon="9.9657945613079"><ele>48.0</ele><time>2026-05-01T07:06:44Z</time></trkpt><trkpt lat="44.93627695910827" lon="9.966095242263318"><ele>47.5</ele><time>2026-05-01T07:06:45Z</time></trkpt><trkpt lat="44.936130681594676" lon="9.966397685846664"><ele>47.0</ele><time>2026-05-01T07:06:46Z</time></trkpt><trkpt lat="44.9359825414339" lon="9.966701236206163"><ele>47.5</ele><time>2026-05-01T07:06:47Z</time></trkpt><trkpt lat="44.93583262882182" lon="9.967006694886756"><ele>48.0</ele><time>2026-05-01T07:06:48Z</time></trkpt><trkpt lat="44.935680272427646" lon="9.967310671993593"><ele>47.5</ele><time>2026-05-01T07:06:49Z</time></trkpt><trkpt lat="44.93552776600752" lon="9.967619149226548"><ele>47.0</ele><time>2026-05-01T07:06:50Z</time></trkpt><trkpt lat="44.9353745498524" lon="9.967930741009148"><ele>47.0</ele><time>2026-05-01T07:06:51Z</time></trkpt><trkpt lat="44.93522177833262" lon="9.968246891278676"><ele>47.0</ele><time>2026-05-01T07:06:52Z</time></trkpt><trkpt lat="44.935068999331556" lon="9.968563685211258"><ele>46.5</ele><time>2026-05-01T07:06:53Z</time></trkpt><trkpt lat="44.93491371410312" lon="9.968880190251054"><ele>46.0</ele><time>2026-05-01T07:06:53.999Z</time></trkpt><trkpt lat="44.9347571853074" lon="9.969199286627731"><ele>46.0</ele><time>2026-05-01T07:06:54.999Z</time></trkpt><trkpt lat="44.93460162698753" lon="9.969518340083402"><ele>46.0</ele><time>2026-05-01T07:06:55.999Z</time></trkpt><trkpt lat="44.9344458093787" lon="9.969838325204734"><ele>45.5</ele><time>2026-05-01T07:06:56.999Z</time></trkpt><trkpt lat="44.93429011967015" lon="9.970159092131793"><ele>45.0</ele><time>2026-05-01T07:06:57.999Z</time></trkpt><trkpt lat="44.93413392804676" lon="9.970482043736988"><ele>45.5</ele><time>2026-05-01T07:06:58.999Z</time></trkpt><trkpt lat="44.93397655992542" lon="9.970805924746516"><ele>46.0</ele><time>2026-05-01T07:06:59.999Z</time></trkpt><trkpt lat="44.93381792200307" lon="9.971130024510327"><ele>46.0</ele><time>2026-05-01T07:07:00.999Z</time></trkpt><trkpt lat="44.933658498884405" lon="9.971457238437855"><ele>46.0</ele><time>2026-05-01T07:07:01.999Z</time></trkpt><trkpt lat="44.933498763290196" lon="9.971784232986657"><ele>46.5</ele><time>2026-05-01T07:07:02.999Z</time></trkpt><trkpt lat="44.93333891704135" lon="9.972115980731592"><ele>47.0</ele><time>2026-05-01T07:07:03.999Z</time></trkpt><trkpt lat="44.93317818235764" lon="9.972444049757103"><ele>47.5</ele><time>2026-05-01T07:07:04.999Z</time></trkpt><trkpt lat="44.93301688524688" lon="9.972775088038226"><ele>48.0</ele><time>2026-05-01T07:07:05.999Z</time></trkpt><trkpt lat="44.93285852056256" lon="9.973103187646283"><ele>49.5</ele><time>2026-05-01T07:07:06.999Z</time></trkpt><trkpt lat="44.93269925373232" lon="9.973429078877501"><ele>51.0</ele><time>2026-05-01T07:07:07.999Z</time></trkpt><trkpt lat="44.932540943128295" lon="9.973755774187342"><ele>51.0</ele><time>2026-05-01T07:07:08.999Z</time></trkpt><trkpt lat="44.93238323706188" lon="9.974084700746374"><ele>51.0</ele><time>2026-05-01T07:07:09.999Z</time></trkpt><trkpt lat="44.93222562955183" lon="9.974411527417619"><ele>50.0</ele><time>2026-05-01T07:07:10.999Z</time></trkpt><trkpt lat="44.932066459440904" lon="9.974736489001188"><ele>49.0</ele><time>2026-05-01T07:07:11.999Z</time></trkpt><trkpt lat="44.93190782051224" lon="9.975064078740933"><ele>49.0</ele><time>2026-05-01T07:07:12.999Z</time></trkpt><trkpt lat="44.931748028347386" lon="9.97538764043651"><ele>49.0</ele><time>2026-05-01T07:07:13.999Z</time></trkpt><trkpt lat="44.931588175154765" lon="9.97571053122144"><ele>49.0</ele><time>2026-05-01T07:07:14.999Z</time></trkpt><trkpt lat="44.93143040722237" lon="9.976033127271243"><ele>49.0</ele><time>2026-05-01T07:07:15.999Z</time></trkpt><trkpt lat="44.93127246745001" lon="9.976360152079293"><ele>49.0</ele><time>2026-05-01T07:07:16.999Z</time></trkpt><trkpt lat="44.93111373207269" lon="9.976688457246684"><ele>49.0</ele><time>2026-05-01T07:07:17.999Z</time></trkpt><trkpt lat="44.930955855008975" lon="9.97701564412589"><ele>49.5</ele><time>2026-05-01T07:07:18.999Z</time></trkpt><trkpt lat="44.93079673661341" lon="9.977342510217861"><ele>50.0</ele><time>2026-05-01T07:07:19.999Z</time></trkpt><trkpt lat="44.93063743389307" lon="9.977670241910374"><ele>50.0</ele><time>2026-05-01T07:07:20.999Z</time></trkpt><trkpt lat="44.9304796770578" lon="9.978000284794991"><ele>50.0</ele><time>2026-05-01T07:07:22Z</time></trkpt><trkpt lat="44.93032149937559" lon="9.978330434194795"><ele>49.5</ele><time>2026-05-01T07:07:23Z</time></trkpt><trkpt lat="44.93016311845013" lon="9.978653074980915"><ele>49.0</ele><time>2026-05-01T07:07:24Z</time></trkpt><trkpt lat="44.93001129923623" lon="9.978963849468487"><ele>50.0</ele><time>2026-05-01T07:07:25Z</time></trkpt><trkpt lat="44.92986855508141" lon="9.979274709461237"><ele>51.0</ele><time>2026-05-01T07:07:26Z</time></trkpt><trkpt lat="44.929727618362826" lon="9.979581286873882"><ele>51.0</ele><time>2026-05-01T07:07:27Z</time></trkpt><trkpt lat="44.92958653842793" lon="9.979886557755238"><ele>51.0</ele><time>2026-05-01T07:07:28Z</time></trkpt><trkpt lat="44.9294458978506" lon="9.980191378354899"><ele>50.5</ele><time>2026-05-01T07:07:29Z</time></trkpt><trkpt lat="44.929300810230444" lon="9.980493421001649"><ele>50.0</ele><time>2026-05-01T07:07:30Z</time></trkpt><trkpt lat="44.92915479804195" lon="9.9807933564531"><ele>49.5</ele><time>2026-05-01T07:07:31Z</time></trkpt><trkpt lat="44.92900920379976" lon="9.981090398800813"><ele>49.0</ele><time>2026-05-01T07:07:32Z</time></trkpt><trkpt lat="44.928862652221284" lon="9.9813854541562"><ele>49.0</ele><time>2026-05-01T07:07:33Z</time></trkpt><trkpt lat="44.92871706292848" lon="9.981684095849129"><ele>49.0</ele><time>2026-05-01T07:07:34Z</time></trkpt><trkpt lat="44.92857177313337" lon="9.981983840605956"><ele>49.0</ele><time>2026-05-01T07:07:35Z</time></trkpt><trkpt lat="44.92842717966031" lon="9.982281777639749"><ele>49.0</ele><time>2026-05-01T07:07:36Z</time></trkpt><trkpt lat="44.928282406676956" lon="9.982580470811342"><ele>48.5</ele><time>2026-05-01T07:07:37Z</time></trkpt><trkpt lat="44.92813551294552" lon="9.98288240821664"><ele>48.0</ele><time>2026-05-01T07:07:38Z</time></trkpt><trkpt lat="44.9279857998449" lon="9.983181157515"><ele>48.5</ele><time>2026-05-01T07:07:39Z</time></trkpt><trkpt lat="44.927832951207215" lon="9.983480271728041"><ele>49.0</ele><time>2026-05-01T07:07:40Z</time></trkpt><trkpt lat="44.92767969621769" lon="9.983779591799673"><ele>49.0</ele><time>2026-05-01T07:07:41Z</time></trkpt><trkpt lat="44.927527729230476" lon="9.984078997319553"><ele>49.0</ele><time>2026-05-01T07:07:42Z</time></trkpt><trkpt lat="44.92737631794729" lon="9.98438200203751"><ele>49.0</ele><time>2026-05-01T07:07:43Z</time></trkpt><trkpt lat="44.92722492083577" lon="9.984687162680704"><ele>49.0</ele><time>2026-05-01T07:07:44Z</time></trkpt><trkpt lat="44.927074756296015" lon="9.98499249148087"><ele>49.0</ele><time>2026-05-01T07:07:45Z</time></trkpt><trkpt lat="44.92692431024041" lon="9.985297491262498"><ele>49.0</ele><time>2026-05-01T07:07:46Z</time></trkpt><trkpt lat="44.92677461023804" lon="9.98560098440402"><ele>48.5</ele><time>2026-05-01T07:07:47Z</time></trkpt><trkpt lat="44.926625335182734" lon="9.985904552805522"><ele>48.0</ele><time>2026-05-01T07:07:48Z</time></trkpt><trkpt lat="44.92647584035567" lon="9.98620936300815"><ele>48.0</ele><time>2026-05-01T07:07:49Z</time></trkpt><trkpt lat="44.926325579942635" lon="9.98651402067822"><ele>48.0</ele><time>2026-05-01T07:07:50Z</time></trkpt><trkpt lat="44.926176265781656" lon="9.986819150594194"><ele>48.5</ele><time>2026-05-01T07:07:51Z</time></trkpt><trkpt lat="44.9260269584582" lon="9.987125558421582"><ele>49.0</ele><time>2026-05-01T07:07:52Z</time></trkpt><trkpt lat="44.92587777780268" lon="9.987433018872004"><ele>50.0</ele><time>2026-05-01T07:07:53Z</time></trkpt><trkpt lat="44.925728886066004" lon="9.987738821741198"><ele>51.0</ele><time>2026-05-01T07:07:54Z</time></trkpt><trkpt lat="44.925579503705144" lon="9.98804497430715"><ele>52.0</ele><time>2026-05-01T07:07:55Z</time></trkpt><trkpt lat="44.92542896945911" lon="9.988351806110698"><ele>53.0</ele><time>2026-05-01T07:07:56Z</time></trkpt><trkpt lat="44.92527925985151" lon="9.988661076616665"><ele>53.0</ele><time>2026-05-01T07:07:57Z</time></trkpt><trkpt lat="44.92512887979247" lon="9.988972608052027"><ele>53.0</ele><time>2026-05-01T07:07:58Z</time></trkpt><trkpt lat="44.924978112525665" lon="9.989284632134993"><ele>51.0</ele><time>2026-05-01T07:07:59Z</time></trkpt><trkpt lat="44.92482552762043" lon="9.98960136987152"><ele>49.0</ele><time>2026-05-01T07:08:00Z</time></trkpt><trkpt lat="44.92467257541659" lon="9.989916412643066"><ele>50.0</ele><time>2026-05-01T07:08:01Z</time></trkpt><trkpt lat="44.92451905634274" lon="9.990234153249189"><ele>51.0</ele><time>2026-05-01T07:08:02Z</time></trkpt><trkpt lat="44.92436301647913" lon="9.990554440423406"><ele>51.0</ele><time>2026-05-01T07:08:03Z</time></trkpt><trkpt lat="44.92420830382075" lon="9.990875940486877"><ele>51.0</ele><time>2026-05-01T07:08:04Z</time></trkpt><trkpt lat="44.924055234067666" lon="9.991199324738353"><ele>51.0</ele><time>2026-05-01T07:08:05Z</time></trkpt><trkpt lat="44.923902767243156" lon="9.991521457296257"><ele>51.0</ele><time>2026-05-01T07:08:06Z</time></trkpt><trkpt lat="44.92375316598124" lon="9.991843625896628"><ele>51.0</ele><time>2026-05-01T07:08:07Z</time></trkpt><trkpt lat="44.923604038783225" lon="9.992165435246147"><ele>51.0</ele><time>2026-05-01T07:08:08Z</time></trkpt><trkpt lat="44.92345918255105" lon="9.992488147647524"><ele>51.0</ele><time>2026-05-01T07:08:09Z</time></trkpt><trkpt lat="44.92331477624293" lon="9.992814976507011"><ele>51.0</ele><time>2026-05-01T07:08:10Z</time></trkpt><trkpt lat="44.92316542476977" lon="9.993141719566818"><ele>51.5</ele><time>2026-05-01T07:08:11Z</time></trkpt><trkpt lat="44.92301333433091" lon="9.993462708813531"><ele>52.0</ele><time>2026-05-01T07:08:12Z</time></trkpt><trkpt lat="44.92285893235445" lon="9.993782733571031"><ele>52.0</ele><time>2026-05-01T07:08:13Z</time></trkpt><trkpt lat="44.922702996578046" lon="9.994100438201064"><ele>52.0</ele><time>2026-05-01T07:08:14Z</time></trkpt><trkpt lat="44.92254674437394" lon="9.994418698897334"><ele>53.0</ele><time>2026-05-01T07:08:15Z</time></trkpt><trkpt lat="44.92238904734631" lon="9.994738190058126"><ele>54.0</ele><time>2026-05-01T07:08:16Z</time></trkpt><trkpt lat="44.92222971245589" lon="9.995060332731898"><ele>54.0</ele><time>2026-05-01T07:08:17Z</time></trkpt><trkpt lat="44.92207080987774" lon="9.995382356718093"><ele>54.0</ele><time>2026-05-01T07:08:18Z</time></trkpt><trkpt lat="44.92191085039053" lon="9.995708813229296"><ele>54.5</ele><time>2026-05-01T07:08:19Z</time></trkpt><trkpt lat="44.921751065265916" lon="9.996037823775033"><ele>55.0</ele><time>2026-05-01T07:08:20Z</time></trkpt><trkpt lat="44.92159218564343" lon="9.996368917840108"><ele>53.5</ele><time>2026-05-01T07:08:21Z</time></trkpt><trkpt lat="44.92143428562221" lon="9.99670029399279"><ele>52.0</ele><time>2026-05-01T07:08:22Z</time></trkpt><trkpt lat="44.921274156670655" lon="9.997030859411284"><ele>52.0</ele><time>2026-05-01T07:08:23Z</time></trkpt><trkpt lat="44.92111344399298" lon="9.997359695670182"><ele>52.0</ele><time>2026-05-01T07:08:24Z</time></trkpt><trkpt lat="44.92095310505037" lon="9.997688978573485"><ele>52.5</ele><time>2026-05-01T07:08:25Z</time></trkpt><trkpt lat="44.92079453406407" lon="9.99801564196938"><ele>53.0</ele><time>2026-05-01T07:08:26Z</time></trkpt><trkpt lat="44.92063489847044" lon="9.998343132208637"><ele>53.0</ele><time>2026-05-01T07:08:27Z</time></trkpt><trkpt lat="44.92047430078479" lon="9.998671126850729"><ele>53.0</ele><time>2026-05-01T07:08:28Z</time></trkpt><trkpt lat="44.92031281918466" lon="9.998999071842977"><ele>53.0</ele><time>2026-05-01T07:08:29Z</time></trkpt><trkpt lat="44.92015047147061" lon="9.99933196368916"><ele>53.0</ele><time>2026-05-01T07:08:30Z</time></trkpt><trkpt lat="44.91998689985485" lon="9.999664689682005"><ele>54.5</ele><time>2026-05-01T07:08:31Z</time></trkpt><trkpt lat="44.91982334449648" lon="9.999999776581094"><ele>56.0</ele><time>2026-05-01T07:08:32Z</time></trkpt><trkpt lat="44.91965988579101" lon="10.00033875306947"><ele>56.0</ele><time>2026-05-01T07:08:33Z</time></trkpt><trkpt lat="44.91949376916959" lon="10.000677039676027"><ele>56.0</ele><time>2026-05-01T07:08:34Z</time></trkpt><trkpt lat="44.91932677053873" lon="10.001015335483531"><ele>54.0</ele><time>2026-05-01T07:08:35Z</time></trkpt><trkpt lat="44.919160062236706" lon="10.001354039340724"><ele>52.0</ele><time>2026-05-01T07:08:36Z</time></trkpt><trkpt lat="44.91899339261065" lon="10.001693893343264"><ele>52.0</ele><time>2026-05-01T07:08:37Z</time></trkpt><trkpt lat="44.91882685806586" lon="10.002034486550507"><ele>52.0</ele><time>2026-05-01T07:08:38Z</time></trkpt><trkpt lat="44.91866059431294" lon="10.002374850837722"><ele>52.0</ele><time>2026-05-01T07:08:39Z</time></trkpt><trkpt lat="44.91849547452275" lon="10.002712293436687"><ele>52.0</ele><time>2026-05-01T07:08:40Z</time></trkpt><trkpt lat="44.918329226147584" lon="10.003048455207587"><ele>52.5</ele><time>2026-05-01T07:08:41Z</time></trkpt><trkpt lat="44.91816248561449" lon="10.003386308630116"><ele>53.0</ele><time>2026-05-01T07:08:42Z</time></trkpt><trkpt lat="44.91799796340993" lon="10.003726262365607"><ele>53.0</ele><time>2026-05-01T07:08:43Z</time></trkpt><trkpt lat="44.91783365667116" lon="10.004067302583652"><ele>53.0</ele><time>2026-05-01T07:08:44Z</time></trkpt><trkpt lat="44.91766920508497" lon="10.004409667097535"><ele>54.0</ele><time>2026-05-01T07:08:45Z</time></trkpt><trkpt lat="44.91750591228141" lon="10.004745559000298"><ele>55.0</ele><time>2026-05-01T07:08:45.999Z</time></trkpt><trkpt lat="44.917343581328375" lon="10.005080860547185"><ele>55.0</ele><time>2026-05-01T07:08:46.999Z</time></trkpt><trkpt lat="44.91718195466589" lon="10.005412372790872"><ele>55.0</ele><time>2026-05-01T07:08:47.999Z</time></trkpt><trkpt lat="44.91701979402675" lon="10.005740565483924"><ele>55.5</ele><time>2026-05-01T07:08:48.999Z</time></trkpt><trkpt lat="44.916858133245064" lon="10.006068331408212"><ele>56.0</ele><time>2026-05-01T07:08:49.999Z</time></trkpt><trkpt lat="44.91669628001167" lon="10.0063988743143"><ele>56.0</ele><time>2026-05-01T07:08:50.999Z</time></trkpt><trkpt lat="44.9165341778426" lon="10.006730982537192"><ele>56.0</ele><time>2026-05-01T07:08:51.999Z</time></trkpt><trkpt lat="44.916374875986776" lon="10.007059406793495"><ele>56.0</ele><time>2026-05-01T07:08:52.999Z</time></trkpt><trkpt lat="44.916217139264425" lon="10.007386032902463"><ele>56.0</ele><time>2026-05-01T07:08:53.999Z</time></trkpt><trkpt lat="44.91606150842997" lon="10.00770838887519"><ele>55.5</ele><time>2026-05-01T07:08:54.999Z</time></trkpt><trkpt lat="44.91591037192634" lon="10.00802067142742"><ele>55.0</ele><time>2026-05-01T07:08:55.999Z</time></trkpt><trkpt lat="44.915763434205715" lon="10.008320126251322"><ele>55.0</ele><time>2026-05-01T07:08:56.999Z</time></trkpt><trkpt lat="44.915618621406516" lon="10.00862117973197"><ele>55.0</ele><time>2026-05-01T07:08:57.999Z</time></trkpt><trkpt lat="44.91547326918033" lon="10.008921883074763"><ele>54.5</ele><time>2026-05-01T07:08:58.999Z</time></trkpt><trkpt lat="44.91532508523541" lon="10.009225221388231"><ele>54.0</ele><time>2026-05-01T07:08:59.999Z</time></trkpt><trkpt lat="44.915174722101234" lon="10.009532265368454"><ele>54.0</ele><time>2026-05-01T07:09:00.999Z</time></trkpt><trkpt lat="44.915023112844146" lon="10.009842230120181"><ele>54.0</ele><time>2026-05-01T07:09:01.999Z</time></trkpt><trkpt lat="44.914869490322076" lon="10.010154953263726"><ele>54.0</ele><time>2026-05-01T07:09:02.999Z</time></trkpt><trkpt lat="44.91471495023983" lon="10.01047258118661"><ele>54.0</ele><time>2026-05-01T07:09:03.999Z</time></trkpt><trkpt lat="44.91455972831882" lon="10.010792566901467"><ele>54.5</ele><time>2026-05-01T07:09:04.999Z</time></trkpt><trkpt lat="44.91440246488165" lon="10.011113422337298"><ele>55.0</ele><time>2026-05-01T07:09:05.999Z</time></trkpt><trkpt lat="44.91424559472243" lon="10.011431875819191"><ele>56.0</ele><time>2026-05-01T07:09:06.999Z</time></trkpt><trkpt lat="44.9140911258966" lon="10.011750987394226"><ele>57.0</ele><time>2026-05-01T07:09:07.999Z</time></trkpt><trkpt lat="44.91393824627565" lon="10.01207128860918"><ele>57.0</ele><time>2026-05-01T07:09:08.999Z</time></trkpt><trkpt lat="44.91378486437496" lon="10.01238843067699"><ele>57.0</ele><time>2026-05-01T07:09:09.999Z</time></trkpt><trkpt lat="44.913630809029826" lon="10.012706137001903"><ele>56.5</ele><time>2026-05-01T07:09:10.999Z</time></trkpt><trkpt lat="44.91347674182151" lon="10.013022491434407"><ele>56.0</ele><time>2026-05-01T07:09:11.999Z</time></trkpt><trkpt lat="44.91332203518411" lon="10.013338549202679"><ele>56.0</ele><time>2026-05-01T07:09:12.999Z</time></trkpt><trkpt lat="44.91316785397844" lon="10.01365329287416"><ele>56.0</ele><time>2026-05-01T07:09:13.999Z</time></trkpt><trkpt lat="44.91301244296454" lon="10.013971364607452"><ele>55.0</ele><time>2026-05-01T07:09:14.999Z</time></trkpt><trkpt lat="44.912860841144074" lon="10.014279084579828"><ele>54.0</ele><time>2026-05-01T07:09:15.999Z</time></trkpt><trkpt lat="44.91271796245523" lon="10.014569476109711"><ele>54.0</ele><time>2026-05-01T07:09:16.999Z</time></trkpt><trkpt lat="44.912575529435095" lon="10.014860220481877"><ele>54.0</ele><time>2026-05-01T07:09:17.999Z</time></trkpt><trkpt lat="44.91243843547999" lon="10.015141218086828"><ele>55.0</ele><time>2026-05-01T07:09:18.999Z</time></trkpt><trkpt lat="44.9123013024596" lon="10.015420079214733"><ele>56.0</ele><time>2026-05-01T07:09:19.999Z</time></trkpt><trkpt lat="44.91216383281671" lon="10.015697136725109"><ele>55.5</ele><time>2026-05-01T07:09:20.999Z</time></trkpt><trkpt lat="44.91203047200456" lon="10.015967951915002"><ele>55.0</ele><time>2026-05-01T07:09:21.999Z</time></trkpt><trkpt lat="44.911896505206" lon="10.016236795330062"><ele>55.0</ele><time>2026-05-01T07:09:22.999Z</time></trkpt><trkpt lat="44.91175414012897" lon="10.016512540189375"><ele>55.0</ele><time>2026-05-01T07:09:23.999Z</time></trkpt><trkpt lat="44.911602052178914" lon="10.016799308756166"><ele>55.5</ele><time>2026-05-01T07:09:24.999Z</time></trkpt><trkpt lat="44.91144285223791" lon="10.01709613198974"><ele>56.0</ele><time>2026-05-01T07:09:25.999Z</time></trkpt><trkpt lat="44.911276876841264" lon="10.017409160367764"><ele>55.0</ele><time>2026-05-01T07:09:26.999Z</time></trkpt><trkpt lat="44.911109147658856" lon="10.01773316938614"><ele>54.0</ele><time>2026-05-01T07:09:28Z</time></trkpt><trkpt lat="44.910942430346246" lon="10.018068084263113"><ele>56.0</ele><time>2026-05-01T07:09:29Z</time></trkpt><trkpt lat="44.91077608219487" lon="10.018407020388127"><ele>58.0</ele><time>2026-05-01T07:09:30Z</time></trkpt><trkpt lat="44.910611722897464" lon="10.018745333325047"><ele>58.0</ele><time>2026-05-01T07:09:31Z</time></trkpt><trkpt lat="44.91044554721924" lon="10.01908692130783"><ele>58.0</ele><time>2026-05-01T07:09:32Z</time></trkpt><trkpt lat="44.91027879553428" lon="10.019428108066327"><ele>57.5</ele><time>2026-05-01T07:09:33Z</time></trkpt><trkpt lat="44.91010954565972" lon="10.019770674399998"><ele>57.0</ele><time>2026-05-01T07:09:34Z</time></trkpt><trkpt lat="44.90994117386147" lon="10.020111481735633"><ele>57.0</ele><time>2026-05-01T07:09:35Z</time></trkpt><trkpt lat="44.90977480908982" lon="10.020452844979214"><ele>57.0</ele><time>2026-05-01T07:09:36Z</time></trkpt><trkpt lat="44.909607510408705" lon="10.020793197433118"><ele>56.5</ele><time>2026-05-01T07:09:37Z</time></trkpt><trkpt lat="44.909441474690546" lon="10.021131517361162"><ele>56.0</ele><time>2026-05-01T07:09:38Z</time></trkpt><trkpt lat="44.909282674397794" lon="10.021466094671407"><ele>56.5</ele><time>2026-05-01T07:09:39Z</time></trkpt><trkpt lat="44.909133720511036" lon="10.02179710038182"><ele>57.0</ele><time>2026-05-01T07:09:40Z</time></trkpt><trkpt lat="44.908989067051415" lon="10.022120572679087"><ele>57.0</ele><time>2026-05-01T07:09:41Z</time></trkpt><trkpt lat="44.90884489041408" lon="10.022438033077966"><ele>57.0</ele><time>2026-05-01T07:09:42Z</time></trkpt><trkpt lat="44.908697638317875" lon="10.022747542869704"><ele>57.5</ele><time>2026-05-01T07:09:43Z</time></trkpt><trkpt lat="44.90854940795038" lon="10.023047232650933"><ele>58.0</ele><time>2026-05-01T07:09:44Z</time></trkpt><trkpt lat="44.90840274605817" lon="10.02334531484428"><ele>57.0</ele><time>2026-05-01T07:09:45Z</time></trkpt><trkpt lat="44.90825693249577" lon="10.023644294010609"><ele>56.0</ele><time>2026-05-01T07:09:46Z</time></trkpt><trkpt lat="44.90811110820535" lon="10.023945479322453"><ele>55.5</ele><time>2026-05-01T07:09:47Z</time></trkpt><trkpt lat="44.90796279521982" lon="10.024248008773752"><ele>55.0</ele><time>2026-05-01T07:09:48Z</time></trkpt><trkpt lat="44.90782571933425" lon="10.024564537009022"><ele>55.0</ele><time>2026-05-01T07:09:49Z</time></trkpt><trkpt lat="44.907681426233424" lon="10.024882957903843"><ele>55.0</ele><time>2026-05-01T07:09:50Z</time></trkpt><trkpt lat="44.907533485397515" lon="10.025194912833253"><ele>55.0</ele><time>2026-05-01T07:09:51Z</time></trkpt><trkpt lat="44.90738615558785" lon="10.02550013899833"><ele>55.0</ele><time>2026-05-01T07:09:52Z</time></trkpt><trkpt lat="44.90724307487997" lon="10.02579636298634"><ele>56.0</ele><time>2026-05-01T07:09:53Z</time></trkpt><trkpt lat="44.907098172611455" lon="10.026093114471898"><ele>57.0</ele><time>2026-05-01T07:09:54Z</time></trkpt><trkpt lat="44.90695340838567" lon="10.026388243871455"><ele>56.5</ele><time>2026-05-01T07:09:55Z</time></trkpt><trkpt lat="44.90680926938941" lon="10.026680458508855"><ele>56.0</ele><time>2026-05-01T07:09:56Z</time></trkpt><trkpt lat="44.906663790226624" lon="10.026972031248729"><ele>56.5</ele><time>2026-05-01T07:09:57Z</time></trkpt><trkpt lat="44.906517362610586" lon="10.027265022186072"><ele>57.0</ele><time>2026-05-01T07:09:58Z</time></trkpt><trkpt lat="44.90636861632294" lon="10.027555314042424"><ele>57.0</ele><time>2026-05-01T07:09:59Z</time></trkpt><trkpt lat="44.906217854953624" lon="10.027846363520075"><ele>57.0</ele><time>2026-05-01T07:10:00Z</time></trkpt><trkpt lat="44.90606759568873" lon="10.028141937851546"><ele>57.0</ele><time>2026-05-01T07:10:01Z</time></trkpt><trkpt lat="44.90591785769621" lon="10.028438379931055"><ele>57.0</ele><time>2026-05-01T07:10:02Z</time></trkpt><trkpt lat="44.90577076460211" lon="10.028738227099673"><ele>57.0</ele><time>2026-05-01T07:10:03Z</time></trkpt><trkpt lat="44.90562473738711" lon="10.029039181188393"><ele>57.0</ele><time>2026-05-01T07:10:04Z</time></trkpt><trkpt lat="44.905476368151426" lon="10.02934007893957"><ele>55.5</ele><time>2026-05-01T07:10:05Z</time></trkpt><trkpt lat="44.90532899004365" lon="10.029641223200972"><ele>54.0</ele><time>2026-05-01T07:10:06Z</time></trkpt><trkpt lat="44.905180202681656" lon="10.029943565717144"><ele>54.5</ele><time>2026-05-01T07:10:07Z</time></trkpt><trkpt lat="44.90502828595811" lon="10.030249036198105"><ele>55.0</ele><time>2026-05-01T07:10:08Z</time></trkpt><trkpt lat="44.90487681479447" lon="10.030559985948747"><ele>55.5</ele><time>2026-05-01T07:10:09Z</time></trkpt><trkpt lat="44.904727188758756" lon="10.030876451018312"><ele>56.0</ele><time>2026-05-01T07:10:10Z</time></trkpt><trkpt lat="44.90457319334209" lon="10.03119366717594"><ele>56.0</ele><time>2026-05-01T07:10:11Z</time></trkpt><trkpt lat="44.904418845063205" lon="10.031506901871564"><ele>56.0</ele><time>2026-05-01T07:10:12Z</time></trkpt><trkpt lat="44.904265336249864" lon="10.031816426596553"><ele>56.5</ele><time>2026-05-01T07:10:13Z</time></trkpt><trkpt lat="44.90410905638413" lon="10.032126765999015"><ele>57.0</ele><time>2026-05-01T07:10:14Z</time></trkpt><trkpt lat="44.903948848079025" lon="10.032434441743789"><ele>56.5</ele><time>2026-05-01T07:10:15Z</time></trkpt><trkpt lat="44.9037842504803" lon="10.032745486567231"><ele>56.0</ele><time>2026-05-01T07:10:16Z</time></trkpt><trkpt lat="44.903618483459276" lon="10.033069029667065"><ele>56.5</ele><time>2026-05-01T07:10:17Z</time></trkpt><trkpt lat="44.90345474804445" lon="10.03339769496442"><ele>57.0</ele><time>2026-05-01T07:10:18Z</time></trkpt><trkpt lat="44.90329249216532" lon="10.033729498964979"><ele>57.0</ele><time>2026-05-01T07:10:19Z</time></trkpt><trkpt lat="44.90312780630396" lon="10.034067940110424"><ele>57.0</ele><time>2026-05-01T07:10:20Z</time></trkpt><trkpt lat="44.9029622026183" lon="10.034406236678679"><ele>57.0</ele><time>2026-05-01T07:10:21Z</time></trkpt><trkpt lat="44.90279584646466" lon="10.034746583820262"><ele>57.0</ele><time>2026-05-01T07:10:22Z</time></trkpt><trkpt lat="44.90262971715586" lon="10.035088052535245"><ele>57.0</ele><time>2026-05-01T07:10:23Z</time></trkpt><trkpt lat="44.902463766925486" lon="10.035431268323807"><ele>57.0</ele><time>2026-05-01T07:10:24Z</time></trkpt><trkpt lat="44.90229782714503" lon="10.035776070865849"><ele>56.5</ele><time>2026-05-01T07:10:25Z</time></trkpt><trkpt lat="44.902129821360695" lon="10.03612258269816"><ele>56.0</ele><time>2026-05-01T07:10:26Z</time></trkpt><trkpt lat="44.90196006985971" lon="10.036467400835633"><ele>56.5</ele><time>2026-05-01T07:10:27Z</time></trkpt><trkpt lat="44.90178828237228" lon="10.036815828523775"><ele>57.0</ele><time>2026-05-01T07:10:28Z</time></trkpt><trkpt lat="44.90161702280329" lon="10.037162978678646"><ele>57.5</ele><time>2026-05-01T07:10:29Z</time></trkpt><trkpt lat="44.90144474556715" lon="10.037511993417747"><ele>58.0</ele><time>2026-05-01T07:10:30Z</time></trkpt><trkpt lat="44.901275235474714" lon="10.037859747617132"><ele>58.0</ele><time>2026-05-01T07:10:31Z</time></trkpt><trkpt lat="44.90110625886572" lon="10.03820930139157"><ele>58.0</ele><time>2026-05-01T07:10:32Z</time></trkpt><trkpt lat="44.90093780644325" lon="10.03855758539151"><ele>59.0</ele><time>2026-05-01T07:10:33Z</time></trkpt><trkpt lat="44.900769038495866" lon="10.038907262316666"><ele>60.0</ele><time>2026-05-01T07:10:34Z</time></trkpt><trkpt lat="44.900600006788245" lon="10.039258873328611"><ele>60.0</ele><time>2026-05-01T07:10:35Z</time></trkpt><trkpt lat="44.90043341268097" lon="10.039605788073604"><ele>60.0</ele><time>2026-05-01T07:10:36Z</time></trkpt><trkpt lat="44.900266839776414" lon="10.03995085805827"><ele>60.5</ele><time>2026-05-01T07:10:36.999Z</time></trkpt><trkpt lat="44.90010002450617" lon="10.04029266984757"><ele>61.0</ele><time>2026-05-01T07:10:37.999Z</time></trkpt><trkpt lat="44.89993320833713" lon="10.040631521484364"><ele>60.5</ele><time>2026-05-01T07:10:38.999Z</time></trkpt><trkpt lat="44.89976489461284" lon="10.040968852583044"><ele>60.0</ele><time>2026-05-01T07:10:39.999Z</time></trkpt><trkpt lat="44.89959817898825" lon="10.041302766118127"><ele>60.0</ele><time>2026-05-01T07:10:40.999Z</time></trkpt><trkpt lat="44.89943253619367" lon="10.04164052168137"><ele>60.0</ele><time>2026-05-01T07:10:41.999Z</time></trkpt><trkpt lat="44.89926786090676" lon="10.041977812051847"><ele>60.0</ele><time>2026-05-01T07:10:42.999Z</time></trkpt><trkpt lat="44.89910348849301" lon="10.042315328914215"><ele>60.0</ele><time>2026-05-01T07:10:43.999Z</time></trkpt><trkpt lat="44.89893991141793" lon="10.042652965963347"><ele>60.5</ele><time>2026-05-01T07:10:44.999Z</time></trkpt><trkpt lat="44.89877600148372" lon="10.042989665012943"><ele>61.0</ele><time>2026-05-01T07:10:45.999Z</time></trkpt><trkpt lat="44.89860961863331" lon="10.043326256250339"><ele>61.0</ele><time>2026-05-01T07:10:46.999Z</time></trkpt><trkpt lat="44.89844465234134" lon="10.043662882867654"><ele>61.0</ele><time>2026-05-01T07:10:47.999Z</time></trkpt><trkpt lat="44.898280337839765" lon="10.043999954771436"><ele>61.0</ele><time>2026-05-01T07:10:48.999Z</time></trkpt><trkpt lat="44.89811629253196" lon="10.044338334563603"><ele>61.0</ele><time>2026-05-01T07:10:49.999Z</time></trkpt><trkpt lat="44.89795176093426" lon="10.044677759386978"><ele>60.5</ele><time>2026-05-01T07:10:50.999Z</time></trkpt><trkpt lat="44.897786425288814" lon="10.04501705441101"><ele>60.0</ele><time>2026-05-01T07:10:51.999Z</time></trkpt><trkpt lat="44.89762160562476" lon="10.0453557671872"><ele>60.0</ele><time>2026-05-01T07:10:52.999Z</time></trkpt><trkpt lat="44.8974571315503" lon="10.045693862533295"><ele>60.0</ele><time>2026-05-01T07:10:53.999Z</time></trkpt><trkpt lat="44.89729346102729" lon="10.046028210028181"><ele>60.0</ele><time>2026-05-01T07:10:54.999Z</time></trkpt><trkpt lat="44.897129811897166" lon="10.04636644880376"><ele>60.0</ele><time>2026-05-01T07:10:55.999Z</time></trkpt><trkpt lat="44.896967446296586" lon="10.046708802602813"><ele>60.0</ele><time>2026-05-01T07:10:56.999Z</time></trkpt><trkpt lat="44.89680945966289" lon="10.047059047171118"><ele>60.0</ele><time>2026-05-01T07:10:57.999Z</time></trkpt><trkpt lat="44.89665804461641" lon="10.047415831965866"><ele>59.5</ele><time>2026-05-01T07:10:58.999Z</time></trkpt><trkpt lat="44.89650933464263" lon="10.047780548491728"><ele>59.0</ele><time>2026-05-01T07:10:59.999Z</time></trkpt><trkpt lat="44.8963625272679" lon="10.04814779123336"><ele>60.5</ele><time>2026-05-01T07:11:00.999Z</time></trkpt><trkpt lat="44.896217653738525" lon="10.048516480246837"><ele>62.0</ele><time>2026-05-01T07:11:01.999Z</time></trkpt><trkpt lat="44.896077321311594" lon="10.048890319713825"><ele>62.0</ele><time>2026-05-01T07:11:02.999Z</time></trkpt><trkpt lat="44.89594145463893" lon="10.049269305279477"><ele>62.0</ele><time>2026-05-01T07:11:03.999Z</time></trkpt><trkpt lat="44.895808141198955" lon="10.049649492048399"><ele>62.0</ele><time>2026-05-01T07:11:04.999Z</time></trkpt><trkpt lat="44.89567761847617" lon="10.050028708232126"><ele>62.0</ele><time>2026-05-01T07:11:05.999Z</time></trkpt><trkpt lat="44.895551654097254" lon="10.050408216262399"><ele>62.0</ele><time>2026-05-01T07:11:06.999Z</time></trkpt><trkpt lat="44.89543202161979" lon="10.050790178781787"><ele>62.0</ele><time>2026-05-01T07:11:07.999Z</time></trkpt><trkpt lat="44.89531785544409" lon="10.051172537440403"><ele>61.5</ele><time>2026-05-01T07:11:08.999Z</time></trkpt><trkpt lat="44.89520971339491" lon="10.051553706535346"><ele>61.0</ele><time>2026-05-01T07:11:09.999Z</time></trkpt><trkpt lat="44.89510703159576" lon="10.051935155249785"><ele>60.0</ele><time>2026-05-01T07:11:10.999Z</time></trkpt><trkpt lat="44.89501071449637" lon="10.052317277063976"><ele>59.0</ele><time>2026-05-01T07:11:11.999Z</time></trkpt><trkpt lat="44.89492176295083" lon="10.052702082089338"><ele>59.0</ele><time>2026-05-01T07:11:12.999Z</time></trkpt><trkpt lat="44.89483972705291" lon="10.053088877333439"><ele>59.0</ele><time>2026-05-01T07:11:13.999Z</time></trkpt><trkpt lat="44.89476113253804" lon="10.053478051478452"><ele>59.0</ele><time>2026-05-01T07:11:14.999Z</time></trkpt><trkpt lat="44.89468803234203" lon="10.053865451915524"><ele>59.0</ele><time>2026-05-01T07:11:15.999Z</time></trkpt><trkpt lat="44.89461849617162" lon="10.054254661556058"><ele>59.5</ele><time>2026-05-01T07:11:16.999Z</time></trkpt><trkpt lat="44.89454942192219" lon="10.054647424245701"><ele>60.0</ele><time>2026-05-01T07:11:17.999Z</time></trkpt><trkpt lat="44.89448059145656" lon="10.055037875037778"><ele>60.0</ele><time>2026-05-01T07:11:18.999Z</time></trkpt><trkpt lat="44.894413822861495" lon="10.055429965808553"><ele>60.0</ele><time>2026-05-01T07:11:19.999Z</time></trkpt><trkpt lat="44.89435096100024" lon="10.055820328663902"><ele>60.0</ele><time>2026-05-01T07:11:20.999Z</time></trkpt><trkpt lat="44.89429165839704" lon="10.056208877352107"><ele>60.0</ele><time>2026-05-01T07:11:21.999Z</time></trkpt><trkpt lat="44.894234135592605" lon="10.056592922702459"><ele>61.0</ele><time>2026-05-01T07:11:22.999Z</time></trkpt><trkpt lat="44.89417749504949" lon="10.056972427206231"><ele>62.0</ele><time>2026-05-01T07:11:23.999Z</time></trkpt><trkpt lat="44.894121174799714" lon="10.057348214542943"><ele>61.0</ele><time>2026-05-01T07:11:24.999Z</time></trkpt><trkpt lat="44.894064952896784" lon="10.057721068204433"><ele>60.0</ele><time>2026-05-01T07:11:25.999Z</time></trkpt><trkpt lat="44.89400850139333" lon="10.05809458387452"><ele>59.0</ele><time>2026-05-01T07:11:26.999Z</time></trkpt><trkpt lat="44.89395211402483" lon="10.058467414146934"><ele>58.0</ele><time>2026-05-01T07:11:27.999Z</time></trkpt><trkpt lat="44.89389451110322" lon="10.058843753285982"><ele>57.5</ele><time>2026-05-01T07:11:28.999Z</time></trkpt><trkpt lat="44.89383688408896" lon="10.059219886241186"><ele>57.0</ele><time>2026-05-01T07:11:29.999Z</time></trkpt><trkpt lat="44.89377961042709" lon="10.059594957855543"><ele>57.0</ele><time>2026-05-01T07:11:30.999Z</time></trkpt><trkpt lat="44.89372189695536" lon="10.059969843879863"><ele>57.0</ele><time>2026-05-01T07:11:31.999Z</time></trkpt><trkpt lat="44.893664343136344" lon="10.06034736830527"><ele>57.0</ele><time>2026-05-01T07:11:32.999Z</time></trkpt><trkpt lat="44.89360518716749" lon="10.060728335166472"><ele>57.0</ele><time>2026-05-01T07:11:34Z</time></trkpt><trkpt lat="44.893547006502345" lon="10.061110262860982"><ele>58.0</ele><time>2026-05-01T07:11:35Z</time></trkpt><trkpt lat="44.893489397850324" lon="10.061495805673646"><ele>59.0</ele><time>2026-05-01T07:11:36Z</time></trkpt><trkpt lat="44.89343295717514" lon="10.061880347847449"><ele>59.0</ele><time>2026-05-01T07:11:37Z</time></trkpt><trkpt lat="44.89337499972469" lon="10.0622678142798"><ele>59.0</ele><time>2026-05-01T07:11:38Z</time></trkpt><trkpt lat="44.89331620043484" lon="10.062655539128912"><ele>59.0</ele><time>2026-05-01T07:11:39Z</time></trkpt><trkpt lat="44.893256347417875" lon="10.063048104159446"><ele>59.0</ele><time>2026-05-01T07:11:40Z</time></trkpt><trkpt lat="44.893197524179016" lon="10.063446975557767"><ele>59.0</ele><time>2026-05-01T07:11:41Z</time></trkpt><trkpt lat="44.893139007141244" lon="10.063843637255623"><ele>59.0</ele><time>2026-05-01T07:11:42Z</time></trkpt><trkpt lat="44.89307994573063" lon="10.064241573048703"><ele>59.0</ele><time>2026-05-01T07:11:43Z</time></trkpt><trkpt lat="44.89301906372517" lon="10.064640703786553"><ele>59.0</ele><time>2026-05-01T07:11:44Z</time></trkpt><trkpt lat="44.89295738126772" lon="10.06504034032126"><ele>59.0</ele><time>2026-05-01T07:11:45Z</time></trkpt><trkpt lat="44.89289649151262" lon="10.065441404822144"><ele>59.0</ele><time>2026-05-01T07:11:46Z</time></trkpt><trkpt lat="44.892834582246984" lon="10.065842073642953"><ele>59.5</ele><time>2026-05-01T07:11:47Z</time></trkpt><trkpt lat="44.892773689375716" lon="10.06624278661078"><ele>60.0</ele><time>2026-05-01T07:11:48Z</time></trkpt><trkpt lat="44.892711441831906" lon="10.066642961463604"><ele>60.5</ele><time>2026-05-01T07:11:49Z</time></trkpt><trkpt lat="44.892649301897166" lon="10.067043739888753"><ele>61.0</ele><time>2026-05-01T07:11:50Z</time></trkpt><trkpt lat="44.89258698725105" lon="10.067446518023209"><ele>61.0</ele><time>2026-05-01T07:11:51Z</time></trkpt><trkpt lat="44.892525514962195" lon="10.06784829144581"><ele>61.0</ele><time>2026-05-01T07:11:52Z</time></trkpt><trkpt lat="44.892464883230616" lon="10.06824994414078"><ele>60.0</ele><time>2026-05-01T07:11:53Z</time></trkpt><trkpt lat="44.89240565162104" lon="10.068649603839017"><ele>59.0</ele><time>2026-05-01T07:11:54Z</time></trkpt><trkpt lat="44.8923469959229" lon="10.069048436207309"><ele>58.0</ele><time>2026-05-01T07:11:55Z</time></trkpt><trkpt lat="44.892286430379215" lon="10.069447563219288"><ele>57.0</ele><time>2026-05-01T07:11:56Z</time></trkpt><trkpt lat="44.892225004385615" lon="10.069842868893408"><ele>58.0</ele><time>2026-05-01T07:11:57Z</time></trkpt><trkpt lat="44.89216331951616" lon="10.070237963149566"><ele>59.0</ele><time>2026-05-01T07:11:58Z</time></trkpt><trkpt lat="44.892102341869276" lon="10.07063351734597"><ele>58.5</ele><time>2026-05-01T07:11:59Z</time></trkpt><trkpt lat="44.89204315099194" lon="10.071026931405301"><ele>58.0</ele><time>2026-05-01T07:12:00Z</time></trkpt><trkpt lat="44.89198037625032" lon="10.071420777424695"><ele>57.5</ele><time>2026-05-01T07:12:01Z</time></trkpt><trkpt lat="44.89191050299025" lon="10.071812669628887"><ele>57.0</ele><time>2026-05-01T07:12:02Z</time></trkpt><trkpt lat="44.89184429929396" lon="10.072200929203163"><ele>56.5</ele><time>2026-05-01T07:12:03Z</time></trkpt><trkpt lat="44.8917821616293" lon="10.072593334672325"><ele>56.0</ele><time>2026-05-01T07:12:04Z</time></trkpt><trkpt lat="44.89172056304749" lon="10.072983821098195"><ele>56.0</ele><time>2026-05-01T07:12:05Z</time></trkpt><trkpt lat="44.89166063433075" lon="10.073373260764244"><ele>56.0</ele><time>2026-05-01T07:12:06Z</time></trkpt><trkpt lat="44.8916007224998" lon="10.073760697804024"><ele>56.5</ele><time>2026-05-01T07:12:07Z</time></trkpt><trkpt lat="44.89154073113329" lon="10.074152241620444"><ele>57.0</ele><time>2026-05-01T07:12:08Z</time></trkpt><trkpt lat="44.891486036891315" lon="10.074549568741304"><ele>57.0</ele><time>2026-05-01T07:12:09Z</time></trkpt><trkpt lat="44.89143555017574" lon="10.074948266011166"><ele>57.0</ele><time>2026-05-01T07:12:10Z</time></trkpt><trkpt lat="44.891384220150286" lon="10.075345821924522"><ele>57.0</ele><time>2026-05-01T07:12:11Z</time></trkpt><trkpt lat="44.891328783248355" lon="10.075743745591542"><ele>57.0</ele><time>2026-05-01T07:12:12Z</time></trkpt><trkpt lat="44.89126978744836" lon="10.076140594816145"><ele>57.0</ele><time>2026-05-01T07:12:13Z</time></trkpt><trkpt lat="44.891206135072096" lon="10.076534228723007"><ele>57.0</ele><time>2026-05-01T07:12:14Z</time></trkpt><trkpt lat="44.89113867005668" lon="10.076926851623083"><ele>57.5</ele><time>2026-05-01T07:12:15Z</time></trkpt><trkpt lat="44.89107041580633" lon="10.077319400048447"><ele>58.0</ele><time>2026-05-01T07:12:16Z</time></trkpt><trkpt lat="44.89100570852984" lon="10.077711357537936"><ele>58.0</ele><time>2026-05-01T07:12:17Z</time></trkpt><trkpt lat="44.8909438806209" lon="10.078101879019222"><ele>58.0</ele><time>2026-05-01T07:12:18Z</time></trkpt><trkpt lat="44.89088369520724" lon="10.078492758129741"><ele>56.5</ele><time>2026-05-01T07:12:19Z</time></trkpt><trkpt lat="44.89082509019991" lon="10.078881429073418"><ele>55.0</ele><time>2026-05-01T07:12:20Z</time></trkpt><trkpt lat="44.89076802992256" lon="10.079271229347867"><ele>55.0</ele><time>2026-05-01T07:12:21Z</time></trkpt><trkpt lat="44.89070912290417" lon="10.07965885280505"><ele>55.0</ele><time>2026-05-01T07:12:22Z</time></trkpt><trkpt lat="44.89064929426005" lon="10.080045645020178"><ele>55.5</ele><time>2026-05-01T07:12:23Z</time></trkpt><trkpt lat="44.890589791745114" lon="10.080434381384869"><ele>56.0</ele><time>2026-05-01T07:12:24Z</time></trkpt><trkpt lat="44.89052947408624" lon="10.080820939270119"><ele>56.5</ele><time>2026-05-01T07:12:25Z</time></trkpt><trkpt lat="44.89046867218259" lon="10.08120958836307"><ele>57.0</ele><time>2026-05-01T07:12:26Z</time></trkpt><trkpt lat="44.89040967299475" lon="10.081598459418045"><ele>56.5</ele><time>2026-05-01T07:12:27Z</time></trkpt><trkpt lat="44.89035149652047" lon="10.081989412218736"><ele>56.0</ele><time>2026-05-01T07:12:28Z</time></trkpt><trkpt lat="44.89029380518122" lon="10.082381649567889"><ele>56.0</ele><time>2026-05-01T07:12:29Z</time></trkpt><trkpt lat="44.89023623364768" lon="10.082776851574113"><ele>56.0</ele><time>2026-05-01T07:12:30Z</time></trkpt><trkpt lat="44.890176463624016" lon="10.083169394013002"><ele>57.0</ele><time>2026-05-01T07:12:31Z</time></trkpt><trkpt lat="44.89011437506456" lon="10.083561535928055"><ele>58.0</ele><time>2026-05-01T07:12:32Z</time></trkpt><trkpt lat="44.890050143942695" lon="10.083956121383752"><ele>58.0</ele><time>2026-05-01T07:12:33Z</time></trkpt><trkpt lat="44.889989226821285" lon="10.084350323648902"><ele>58.0</ele><time>2026-05-01T07:12:34Z</time></trkpt><trkpt lat="44.88992988333138" lon="10.084744731977525"><ele>58.0</ele><time>2026-05-01T07:12:35Z</time></trkpt><trkpt lat="44.889872596928456" lon="10.085138128241717"><ele>58.0</ele><time>2026-05-01T07:12:36Z</time></trkpt><trkpt lat="44.889814897886964" lon="10.085531843895593"><ele>57.0</ele><time>2026-05-01T07:12:37Z</time></trkpt><trkpt lat="44.88975698820892" lon="10.085925685822374"><ele>56.0</ele><time>2026-05-01T07:12:38Z</time></trkpt><trkpt lat="44.88969703022325" lon="10.086325218447318"><ele>57.0</ele><time>2026-05-01T07:12:38.999Z</time></trkpt><trkpt lat="44.88963614289097" lon="10.086722384589274"><ele>58.0</ele><time>2026-05-01T07:12:39.999Z</time></trkpt><trkpt lat="44.8895744850142" lon="10.08711950127572"><ele>58.0</ele><time>2026-05-01T07:12:40.999Z</time></trkpt><trkpt lat="44.88951455952284" lon="10.087515551423973"><ele>58.0</ele><time>2026-05-01T07:12:41.999Z</time></trkpt><trkpt lat="44.88945450046537" lon="10.087914149867029"><ele>58.0</ele><time>2026-05-01T07:12:42.999Z</time></trkpt><trkpt lat="44.8893940629405" lon="10.088315484984031"><ele>58.0</ele><time>2026-05-01T07:12:43.999Z</time></trkpt><trkpt lat="44.889331763315376" lon="10.088717137499273"><ele>58.5</ele><time>2026-05-01T07:12:44.999Z</time></trkpt><trkpt lat="44.88926991510416" lon="10.089115826903061"><ele>59.0</ele><time>2026-05-01T07:12:45.999Z</time></trkpt><trkpt lat="44.889209089553795" lon="10.089521629164961"><ele>59.0</ele><time>2026-05-01T07:12:46.999Z</time></trkpt><trkpt lat="44.889148372713905" lon="10.089921344660452"><ele>59.0</ele><time>2026-05-01T07:12:47.999Z</time></trkpt><trkpt lat="44.88908704902362" lon="10.090317991885959"><ele>58.0</ele><time>2026-05-01T07:12:48.999Z</time></trkpt><trkpt lat="44.88902755937685" lon="10.090713055973211"><ele>57.0</ele><time>2026-05-01T07:12:49.999Z</time></trkpt><trkpt lat="44.88897005374598" lon="10.091107669887244"><ele>57.0</ele><time>2026-05-01T07:12:50.999Z</time></trkpt><trkpt lat="44.8889113925852" lon="10.091500208891077"><ele>57.0</ele><time>2026-05-01T07:12:51.999Z</time></trkpt><trkpt lat="44.88885350643267" lon="10.091892325935078"><ele>56.5</ele><time>2026-05-01T07:12:52.999Z</time></trkpt><trkpt lat="44.88879601961679" lon="10.092278530087357"><ele>56.0</ele><time>2026-05-01T07:12:53.999Z</time></trkpt><trkpt lat="44.88873762928867" lon="10.092661112397678"><ele>56.0</ele><time>2026-05-01T07:12:54.999Z</time></trkpt><trkpt lat="44.888677062482685" lon="10.093041764226836"><ele>56.0</ele><time>2026-05-01T07:12:55.999Z</time></trkpt><trkpt lat="44.888618675942546" lon="10.093422330365115"><ele>56.0</ele><time>2026-05-01T07:12:56.999Z</time></trkpt><trkpt lat="44.88856089288603" lon="10.093802685150157"><ele>56.0</ele><time>2026-05-01T07:12:57.999Z</time></trkpt><trkpt lat="44.88850366111401" lon="10.094182182726966"><ele>56.0</ele><time>2026-05-01T07:12:58.999Z</time></trkpt><trkpt lat="44.888445224815584" lon="10.094562198114403"><ele>56.0</ele><time>2026-05-01T07:12:59.999Z</time></trkpt><trkpt lat="44.88838809493657" lon="10.094942518504983"><ele>56.0</ele><time>2026-05-01T07:13:00.999Z</time></trkpt><trkpt lat="44.88832892664032" lon="10.095323043279654"><ele>56.0</ele><time>2026-05-01T07:13:01.999Z</time></trkpt><trkpt lat="44.888269668772544" lon="10.095702735511223"><ele>55.0</ele><time>2026-05-01T07:13:02.999Z</time></trkpt><trkpt lat="44.88820946957603" lon="10.09608397552294"><ele>54.0</ele><time>2026-05-01T07:13:03.999Z</time></trkpt><trkpt lat="44.88814996471651" lon="10.09646523556665"><ele>54.5</ele><time>2026-05-01T07:13:04.999Z</time></trkpt><trkpt lat="44.88809168087649" lon="10.096846888697224"><ele>55.0</ele><time>2026-05-01T07:13:05.999Z</time></trkpt><trkpt lat="44.88803223765734" lon="10.09722928285497"><ele>55.0</ele><time>2026-05-01T07:13:06.999Z</time></trkpt><trkpt lat="44.88797124579464" lon="10.097609442248752"><ele>55.0</ele><time>2026-05-01T07:13:07.999Z</time></trkpt><trkpt lat="44.8879058795225" lon="10.097988436861996"><ele>55.0</ele><time>2026-05-01T07:13:08.999Z</time></trkpt><trkpt lat="44.887838183180904" lon="10.098366587474045"><ele>55.0</ele><time>2026-05-01T07:13:09.999Z</time></trkpt><trkpt lat="44.88777383154961" lon="10.098746297349049"><ele>55.5</ele><time>2026-05-01T07:13:10.999Z</time></trkpt><trkpt lat="44.88771143004911" lon="10.099125653321789"><ele>56.0</ele><time>2026-05-01T07:13:11.999Z</time></trkpt><trkpt lat="44.887649420348694" lon="10.099508727815683"><ele>56.0</ele><time>2026-05-01T07:13:12.999Z</time></trkpt><trkpt lat="44.8875899202324" lon="10.099890549266219"><ele>56.0</ele><time>2026-05-01T07:13:13.999Z</time></trkpt><trkpt lat="44.88753291103994" lon="10.100272772081151"><ele>55.5</ele><time>2026-05-01T07:13:14.999Z</time></trkpt><trkpt lat="44.88747757730966" lon="10.10065215871458"><ele>55.0</ele><time>2026-05-01T07:13:15.999Z</time></trkpt><trkpt lat="44.88742027437604" lon="10.10103227699468"><ele>56.0</ele><time>2026-05-01T07:13:16.999Z</time></trkpt><trkpt lat="44.887362003190105" lon="10.101416164326169"><ele>57.0</ele><time>2026-05-01T07:13:17.999Z</time></trkpt><trkpt lat="44.887303685693304" lon="10.101800592121164"><ele>57.5</ele><time>2026-05-01T07:13:18.999Z</time></trkpt><trkpt lat="44.88724407225857" lon="10.102184008701578"><ele>58.0</ele><time>2026-05-01T07:13:19.999Z</time></trkpt><trkpt lat="44.88718353758876" lon="10.102570181794842"><ele>58.0</ele><time>2026-05-01T07:13:20.999Z</time></trkpt><trkpt lat="44.88712229830113" lon="10.10295912414871"><ele>58.0</ele><time>2026-05-01T07:13:21.999Z</time></trkpt><trkpt lat="44.88706259975381" lon="10.103347935090799"><ele>57.5</ele><time>2026-05-01T07:13:22.999Z</time></trkpt><trkpt lat="44.88700420659466" lon="10.1037331252743"><ele>57.0</ele><time>2026-05-01T07:13:23.999Z</time></trkpt><trkpt lat="44.88694674101634" lon="10.104121666758763"><ele>56.5</ele><time>2026-05-01T07:13:24.999Z</time></trkpt><trkpt lat="44.88689013528496" lon="10.104511417247421"><ele>56.0</ele><time>2026-05-01T07:13:25.999Z</time></trkpt><trkpt lat="44.886833338799086" lon="10.104904410173257"><ele>55.5</ele><time>2026-05-01T07:13:26.999Z</time></trkpt><trkpt lat="44.88677604502134" lon="10.105296979579242"><ele>55.0</ele><time>2026-05-01T07:13:27.999Z</time></trkpt><trkpt lat="44.88671718772061" lon="10.10569206567554"><ele>55.0</ele><time>2026-05-01T07:13:28.999Z</time></trkpt><trkpt lat="44.88665829759657" lon="10.106085234423018"><ele>55.0</ele><time>2026-05-01T07:13:29.999Z</time></trkpt><trkpt lat="44.88659956358408" lon="10.106482096438695"><ele>54.0</ele><time>2026-05-01T07:13:30.999Z</time></trkpt><trkpt lat="44.88654045710457" lon="10.106876890244212"><ele>53.0</ele><time>2026-05-01T07:13:31.999Z</time></trkpt><trkpt lat="44.886479663571386" lon="10.10727135305641"><ele>53.5</ele><time>2026-05-01T07:13:32.999Z</time></trkpt><trkpt lat="44.88641395142094" lon="10.107674273041827"><ele>54.0</ele><time>2026-05-01T07:13:33.999Z</time></trkpt><trkpt lat="44.886345709262734" lon="10.108083747129768"><ele>54.5</ele><time>2026-05-01T07:13:34.999Z</time></trkpt><trkpt lat="44.88627382796698" lon="10.108484935826723"><ele>55.0</ele><time>2026-05-01T07:13:35.999Z</time></trkpt><trkpt lat="44.8862023818526" lon="10.108898817121505"><ele>54.5</ele><time>2026-05-01T07:13:36.999Z</time></trkpt><trkpt lat="44.88613092849716" lon="10.109317545516832"><ele>54.0</ele><time>2026-05-01T07:13:37.999Z</time></trkpt><trkpt lat="44.886059475846245" lon="10.109738758260468"><ele>54.0</ele><time>2026-05-01T07:13:38.999Z</time></trkpt><trkpt lat="44.8859864738066" lon="10.110159216060302"><ele>54.0</ele><time>2026-05-01T07:13:40Z</time></trkpt><trkpt lat="44.88593322609642" lon="10.110583743447368"><ele>55.0</ele><time>2026-05-01T07:13:41Z</time></trkpt><trkpt lat="44.885912202584734" lon="10.110850377439707"><ele>56.0</ele><time>2026-05-01T07:13:42Z</time></trkpt><trkpt lat="44.8858738414619" lon="10.111220642727233"><ele>55.0</ele><time>2026-05-01T07:13:43Z</time></trkpt><trkpt lat="44.885826846434185" lon="10.111601932879573"><ele>54.0</ele><time>2026-05-01T07:13:44Z</time></trkpt><trkpt lat="44.88577265773966" lon="10.111991577453278"><ele>54.0</ele><time>2026-05-01T07:13:45Z</time></trkpt><trkpt lat="44.88571507309166" lon="10.11237959707228"><ele>54.0</ele><time>2026-05-01T07:13:46Z</time></trkpt><trkpt lat="44.88565878086215" lon="10.112768624983527"><ele>54.0</ele><time>2026-05-01T07:13:47Z</time></trkpt><trkpt lat="44.88559978905282" lon="10.113158650211714"><ele>54.0</ele><time>2026-05-01T07:13:48Z</time></trkpt><trkpt lat="44.88554086395216" lon="10.113552011338108"><ele>54.0</ele><time>2026-05-01T07:13:49Z</time></trkpt><trkpt lat="44.88548200559132" lon="10.113941774267238"><ele>54.0</ele><time>2026-05-01T07:13:50Z</time></trkpt><trkpt lat="44.885422273118316" lon="10.114333196316343"><ele>54.0</ele><time>2026-05-01T07:13:51Z</time></trkpt><trkpt lat="44.88535803266298" lon="10.114731250052994"><ele>54.0</ele><time>2026-05-01T07:13:52Z</time></trkpt><trkpt lat="44.8852909094325" lon="10.115130264667352"><ele>54.0</ele><time>2026-05-01T07:13:53Z</time></trkpt><trkpt lat="44.88522283888804" lon="10.115527976333016"><ele>54.0</ele><time>2026-05-01T07:13:54Z</time></trkpt><trkpt lat="44.885156311102484" lon="10.115927310937533"><ele>54.0</ele><time>2026-05-01T07:13:55Z</time></trkpt><trkpt lat="44.8850929483573" lon="10.11632873430118"><ele>54.0</ele><time>2026-05-01T07:13:56Z</time></trkpt><trkpt lat="44.88503034323422" lon="10.116731063274592"><ele>54.0</ele><time>2026-05-01T07:13:57Z</time></trkpt><trkpt lat="44.88496661876735" lon="10.117138590247674"><ele>54.0</ele><time>2026-05-01T07:13:58Z</time></trkpt><trkpt lat="44.8849048275995" lon="10.117546073185666"><ele>54.0</ele><time>2026-05-01T07:13:59Z</time></trkpt><trkpt lat="44.88484298476681" lon="10.117953269697225"><ele>54.0</ele><time>2026-05-01T07:14:00Z</time></trkpt><trkpt lat="44.88478097656159" lon="10.11836260131155"><ele>54.0</ele><time>2026-05-01T07:14:01Z</time></trkpt><trkpt lat="44.88471908234224" lon="10.118772220363612"><ele>54.0</ele><time>2026-05-01T07:14:02Z</time></trkpt><trkpt lat="44.884657456504385" lon="10.119181318006301"><ele>54.0</ele><time>2026-05-01T07:14:03Z</time></trkpt><trkpt lat="44.88459637491347" lon="10.119591520123084"><ele>54.0</ele><time>2026-05-01T07:14:04Z</time></trkpt><trkpt lat="44.884534670613846" lon="10.120001882042917"><ele>54.0</ele><time>2026-05-01T07:14:05Z</time></trkpt><trkpt lat="44.88447147388533" lon="10.120410644934532"><ele>54.0</ele><time>2026-05-01T07:14:06Z</time></trkpt><trkpt lat="44.88440838808781" lon="10.12081773834943"><ele>53.5</ele><time>2026-05-01T07:14:07Z</time></trkpt><trkpt lat="44.884346294080494" lon="10.12122246818067"><ele>53.0</ele><time>2026-05-01T07:14:08Z</time></trkpt><trkpt lat="44.88428503155929" lon="10.121627938978818"><ele>53.5</ele><time>2026-05-01T07:14:09Z</time></trkpt><trkpt lat="44.88422565946601" lon="10.122034594719416"><ele>54.0</ele><time>2026-05-01T07:14:10Z</time></trkpt><trkpt lat="44.88416696522036" lon="10.12244162833765"><ele>54.0</ele><time>2026-05-01T07:14:11Z</time></trkpt><trkpt lat="44.88410601712055" lon="10.122844086293146"><ele>54.0</ele><time>2026-05-01T07:14:12Z</time></trkpt><trkpt lat="44.88404518455385" lon="10.123246975010716"><ele>53.0</ele><time>2026-05-01T07:14:13Z</time></trkpt><trkpt lat="44.88398315217007" lon="10.123649171957428"><ele>52.0</ele><time>2026-05-01T07:14:14Z</time></trkpt><trkpt lat="44.883920828354164" lon="10.124047156045137"><ele>52.5</ele><time>2026-05-01T07:14:15Z</time></trkpt><trkpt lat="44.883859430496834" lon="10.124447237447082"><ele>53.0</ele><time>2026-05-01T07:14:16Z</time></trkpt><trkpt lat="44.883798266836614" lon="10.124845172853968"><ele>53.0</ele><time>2026-05-01T07:14:17Z</time></trkpt><trkpt lat="44.88373775344482" lon="10.125243159182899"><ele>53.0</ele><time>2026-05-01T07:14:18Z</time></trkpt><trkpt lat="44.88367890443273" lon="10.1256357459064"><ele>52.5</ele><time>2026-05-01T07:14:19Z</time></trkpt><trkpt lat="44.883619685662225" lon="10.12603063667823"><ele>52.0</ele><time>2026-05-01T07:14:20Z</time></trkpt><trkpt lat="44.88356092014362" lon="10.126423914157884"><ele>52.0</ele><time>2026-05-01T07:14:21Z</time></trkpt><trkpt lat="44.883502963718534" lon="10.126813405509639"><ele>52.0</ele><time>2026-05-01T07:14:22Z</time></trkpt><trkpt lat="44.88344502044312" lon="10.127207416515782"><ele>52.5</ele><time>2026-05-01T07:14:23Z</time></trkpt><trkpt lat="44.883389367980264" lon="10.127601819315386"><ele>53.0</ele><time>2026-05-01T07:14:24Z</time></trkpt><trkpt lat="44.8833356999542" lon="10.127995132448685"><ele>52.0</ele><time>2026-05-01T07:14:25Z</time></trkpt><trkpt lat="44.88328190227663" lon="10.128390082513908"><ele>51.0</ele><time>2026-05-01T07:14:26Z</time></trkpt><trkpt lat="44.88322632159999" lon="10.128783113563875"><ele>50.5</ele><time>2026-05-01T07:14:27Z</time></trkpt><trkpt lat="44.88316918908907" lon="10.129176301596283"><ele>50.0</ele><time>2026-05-01T07:14:28Z</time></trkpt><trkpt lat="44.883109925885314" lon="10.129572945494775"><ele>49.0</ele><time>2026-05-01T07:14:28.999Z</time></trkpt><trkpt lat="44.88304953188481" lon="10.129968821678276"><ele>48.0</ele><time>2026-05-01T07:14:29.999Z</time></trkpt><trkpt lat="44.882988254856464" lon="10.130362935596672"><ele>48.5</ele><time>2026-05-01T07:14:30.999Z</time></trkpt><trkpt lat="44.88292673962865" lon="10.130760705300103"><ele>49.0</ele><time>2026-05-01T07:14:31.999Z</time></trkpt><trkpt lat="44.88286492647652" lon="10.131158352683665"><ele>49.5</ele><time>2026-05-01T07:14:32.999Z</time></trkpt><trkpt lat="44.882803696960906" lon="10.131559692599568"><ele>50.0</ele><time>2026-05-01T07:14:33.999Z</time></trkpt><trkpt lat="44.88274294197122" lon="10.131961219117414"><ele>50.0</ele><time>2026-05-01T07:14:34.999Z</time></trkpt><trkpt lat="44.88268065075124" lon="10.132364705016647"><ele>50.0</ele><time>2026-05-01T07:14:35.999Z</time></trkpt><trkpt lat="44.88261757518908" lon="10.132771406400177"><ele>50.0</ele><time>2026-05-01T07:14:36.999Z</time></trkpt><trkpt lat="44.88255385051176" lon="10.133180872670877"><ele>50.0</ele><time>2026-05-01T07:14:37.999Z</time></trkpt><trkpt lat="44.88249057452603" lon="10.133590153887452"><ele>50.0</ele><time>2026-05-01T07:14:38.999Z</time></trkpt><trkpt lat="44.88242772099437" lon="10.134001970120455"><ele>50.0</ele><time>2026-05-01T07:14:39.999Z</time></trkpt><trkpt lat="44.882364993864435" lon="10.134416197593403"><ele>50.0</ele><time>2026-05-01T07:14:40.999Z</time></trkpt><trkpt lat="44.88230401348694" lon="10.134829267730606"><ele>50.0</ele><time>2026-05-01T07:14:41.999Z</time></trkpt><trkpt lat="44.88224192932044" lon="10.135242097886843"><ele>50.0</ele><time>2026-05-01T07:14:42.999Z</time></trkpt><trkpt lat="44.882178486300425" lon="10.135655818469116"><ele>50.0</ele><time>2026-05-01T07:14:43.999Z</time></trkpt><trkpt lat="44.88211499086887" lon="10.13606957621403"><ele>50.0</ele><time>2026-05-01T07:14:44.999Z</time></trkpt><trkpt lat="44.88205078377826" lon="10.136481857515417"><ele>50.0</ele><time>2026-05-01T07:14:45.999Z</time></trkpt><trkpt lat="44.881982141757994" lon="10.136893332262614"><ele>50.0</ele><time>2026-05-01T07:14:46.999Z</time></trkpt><trkpt lat="44.881911972428576" lon="10.137302484273276"><ele>50.0</ele><time>2026-05-01T07:14:47.999Z</time></trkpt><trkpt lat="44.8818445488939" lon="10.13771333075785"><ele>49.5</ele><time>2026-05-01T07:14:48.999Z</time></trkpt><trkpt lat="44.88177943509214" lon="10.138124723963312"><ele>49.0</ele><time>2026-05-01T07:14:49.999Z</time></trkpt><trkpt lat="44.88171577600105" lon="10.138532874712253"><ele>49.0</ele><time>2026-05-01T07:14:50.999Z</time></trkpt><trkpt lat="44.881653249496196" lon="10.138938527347094"><ele>49.0</ele><time>2026-05-01T07:14:51.999Z</time></trkpt><trkpt lat="44.88159051148193" lon="10.139348843563749"><ele>49.0</ele><time>2026-05-01T07:14:52.999Z</time></trkpt><trkpt lat="44.881528025005196" lon="10.139755841877237"><ele>49.0</ele><time>2026-05-01T07:14:53.999Z</time></trkpt><trkpt lat="44.88146417699852" lon="10.140166387939182"><ele>49.5</ele><time>2026-05-01T07:14:54.999Z</time></trkpt><trkpt lat="44.88140335345151" lon="10.140570345644823"><ele>50.0</ele><time>2026-05-01T07:14:55.999Z</time></trkpt><trkpt lat="44.88134395426191" lon="10.140973224319492"><ele>50.0</ele><time>2026-05-01T07:14:56.999Z</time></trkpt><trkpt lat="44.88128760678843" lon="10.141380045620389"><ele>50.0</ele><time>2026-05-01T07:14:57.999Z</time></trkpt><trkpt lat="44.881234828643414" lon="10.14178741798915"><ele>50.0</ele><time>2026-05-01T07:14:58.999Z</time></trkpt><trkpt lat="44.88118015662718" lon="10.14219184485078"><ele>50.0</ele><time>2026-05-01T07:14:59.999Z</time></trkpt><trkpt lat="44.88112202865719" lon="10.142596324012146"><ele>49.5</ele><time>2026-05-01T07:15:00.999Z</time></trkpt><trkpt lat="44.881060209819644" lon="10.143002662103846"><ele>49.0</ele><time>2026-05-01T07:15:01.999Z</time></trkpt><trkpt lat="44.880995174589714" lon="10.143408847217806"><ele>48.5</ele><time>2026-05-01T07:15:02.999Z</time></trkpt><trkpt lat="44.880929898221574" lon="10.143816031421926"><ele>48.0</ele><time>2026-05-01T07:15:03.999Z</time></trkpt><trkpt lat="44.880864705285354" lon="10.144226042685538"><ele>48.0</ele><time>2026-05-01T07:15:04.999Z</time></trkpt><trkpt lat="44.88079918545642" lon="10.144634885223228"><ele>48.0</ele><time>2026-05-01T07:15:05.999Z</time></trkpt><trkpt lat="44.88072927244247" lon="10.145040642139755"><ele>48.0</ele><time>2026-05-01T07:15:06.999Z</time></trkpt><trkpt lat="44.88065367393742" lon="10.145448240426337"><ele>48.0</ele><time>2026-05-01T07:15:07.999Z</time></trkpt><trkpt lat="44.880579392452276" lon="10.14585562507371"><ele>48.0</ele><time>2026-05-01T07:15:08.999Z</time></trkpt><trkpt lat="44.88050632593459" lon="10.14626627854356"><ele>48.0</ele><time>2026-05-01T07:15:09.999Z</time></trkpt><trkpt lat="44.880435380010056" lon="10.146676534648257"><ele>48.0</ele><time>2026-05-01T07:15:10.999Z</time></trkpt><trkpt lat="44.88036590229797" lon="10.147090501837907"><ele>48.0</ele><time>2026-05-01T07:15:11.999Z</time></trkpt><trkpt lat="44.880295092939065" lon="10.147502726802825"><ele>48.0</ele><time>2026-05-01T07:15:12.999Z</time></trkpt><trkpt lat="44.88022624685305" lon="10.14791414981242"><ele>48.0</ele><time>2026-05-01T07:15:13.999Z</time></trkpt><trkpt lat="44.88015868397421" lon="10.148329937160101"><ele>49.0</ele><time>2026-05-01T07:15:14.999Z</time></trkpt><trkpt lat="44.880090609191846" lon="10.148744206930472"><ele>50.0</ele><time>2026-05-01T07:15:15.999Z</time></trkpt><trkpt lat="44.880022017227624" lon="10.14916295855582"><ele>48.0</ele><time>2026-05-01T07:15:16.999Z</time></trkpt><trkpt lat="44.87995373094258" lon="10.149581138068276"><ele>46.0</ele><time>2026-05-01T07:15:17.999Z</time></trkpt><trkpt lat="44.879885458718576" lon="10.149995990295052"><ele>46.0</ele><time>2026-05-01T07:15:18.999Z</time></trkpt><trkpt lat="44.879815629219934" lon="10.150410192970877"><ele>46.0</ele><time>2026-05-01T07:15:19.999Z</time></trkpt><trkpt lat="44.879744149362566" lon="10.150827459650468"><ele>46.5</ele><time>2026-05-01T07:15:20.999Z</time></trkpt><trkpt lat="44.87967334387015" lon="10.15124354950256"><ele>47.0</ele><time>2026-05-01T07:15:21.999Z</time></trkpt><trkpt lat="44.879602149553655" lon="10.151656933744295"><ele>47.0</ele><time>2026-05-01T07:15:22.999Z</time></trkpt><trkpt lat="44.87953083162428" lon="10.152069753980056"><ele>47.0</ele><time>2026-05-01T07:15:23.999Z</time></trkpt><trkpt lat="44.879460290971906" lon="10.152483103838827"><ele>46.5</ele><time>2026-05-01T07:15:24.999Z</time></trkpt><trkpt lat="44.87939106637034" lon="10.15289822271914"><ele>46.0</ele><time>2026-05-01T07:15:25.999Z</time></trkpt><trkpt lat="44.879322215603025" lon="10.15331330687903"><ele>46.0</ele><time>2026-05-01T07:15:26.999Z</time></trkpt><trkpt lat="44.879253228834386" lon="10.153728837197999"><ele>46.0</ele><time>2026-05-01T07:15:27.999Z</time></trkpt><trkpt lat="44.87918384359177" lon="10.154146657942553"><ele>46.0</ele><time>2026-05-01T07:15:28.999Z</time></trkpt><trkpt lat="44.87911413807448" lon="10.154562897073266"><ele>46.0</ele><time>2026-05-01T07:15:29.999Z</time></trkpt><trkpt lat="44.87904575392937" lon="10.154977471290946"><ele>46.0</ele><time>2026-05-01T07:15:30.999Z</time></trkpt><trkpt lat="44.878977818033874" lon="10.15539182730521"><ele>46.0</ele><time>2026-05-01T07:15:31.999Z</time></trkpt><trkpt lat="44.87891146069072" lon="10.155814290436878"><ele>46.0</ele><time>2026-05-01T07:15:32.999Z</time></trkpt><trkpt lat="44.87884890782077" lon="10.156231630045783"><ele>46.0</ele><time>2026-05-01T07:15:33.999Z</time></trkpt><trkpt lat="44.87878345805873" lon="10.156648876346624"><ele>46.0</ele><time>2026-05-01T07:15:34.999Z</time></trkpt><trkpt lat="44.878714626961965" lon="10.157067509075022"><ele>46.0</ele><time>2026-05-01T07:15:35.999Z</time></trkpt><trkpt lat="44.87864437212405" lon="10.157484439837615"><ele>46.0</ele><time>2026-05-01T07:15:36.999Z</time></trkpt><trkpt lat="44.878574878816515" lon="10.157898952845676"><ele>46.0</ele><time>2026-05-01T07:15:37.999Z</time></trkpt><trkpt lat="44.87850498510384" lon="10.158311162211458"><ele>46.5</ele><time>2026-05-01T07:15:38.999Z</time></trkpt><trkpt lat="44.87843477600119" lon="10.158720178122099"><ele>47.0</ele><time>2026-05-01T07:15:39.999Z</time></trkpt><trkpt lat="44.8783667241273" lon="10.159123506580261"><ele>47.0</ele><time>2026-05-01T07:15:40.999Z</time></trkpt><trkpt lat="44.8782989464391" lon="10.159526487155262"><ele>47.0</ele><time>2026-05-01T07:15:41.999Z</time></trkpt><trkpt lat="44.878231432762085" lon="10.159925034365251"><ele>47.0</ele><time>2026-05-01T07:15:42.999Z</time></trkpt><trkpt lat="44.87816199927571" lon="10.160327329828414"><ele>47.0</ele><time>2026-05-01T07:15:43.999Z</time></trkpt><trkpt lat="44.87809240917113" lon="10.160727702681957"><ele>47.0</ele><time>2026-05-01T07:15:44.999Z</time></trkpt><trkpt lat="44.87802555136525" lon="10.161127945369516"><ele>47.0</ele><time>2026-05-01T07:15:46Z</time></trkpt><trkpt lat="44.877958805516066" lon="10.161523581961161"><ele>46.5</ele><time>2026-05-01T07:15:47Z</time></trkpt><trkpt lat="44.87789369939319" lon="10.161919230624283"><ele>46.0</ele><time>2026-05-01T07:15:48Z</time></trkpt><trkpt lat="44.877828915134316" lon="10.162314551228071"><ele>47.0</ele><time>2026-05-01T07:15:49Z</time></trkpt><trkpt lat="44.87776210155438" lon="10.162708356739296"><ele>48.0</ele><time>2026-05-01T07:15:50Z</time></trkpt><trkpt lat="44.87769665294696" lon="10.163098472804933"><ele>48.0</ele><time>2026-05-01T07:15:51Z</time></trkpt><trkpt lat="44.877631478611974" lon="10.163487493430694"><ele>48.0</ele><time>2026-05-01T07:15:52Z</time></trkpt><trkpt lat="44.87756697682248" lon="10.163871397808284"><ele>47.0</ele><time>2026-05-01T07:15:53Z</time></trkpt><trkpt lat="44.87750145967194" lon="10.164256428296959"><ele>46.0</ele><time>2026-05-01T07:15:54Z</time></trkpt><trkpt lat="44.87743525598344" lon="10.16464160742796"><ele>46.0</ele><time>2026-05-01T07:15:55Z</time></trkpt><trkpt lat="44.87736748660105" lon="10.165027996084605"><ele>46.0</ele><time>2026-05-01T07:15:56Z</time></trkpt><trkpt lat="44.877295555275104" lon="10.16541385871997"><ele>46.0</ele><time>2026-05-01T07:15:57Z</time></trkpt><trkpt lat="44.87722044274101" lon="10.165801023158465"><ele>46.0</ele><time>2026-05-01T07:15:58Z</time></trkpt><trkpt lat="44.87714706218858" lon="10.166185843918573"><ele>46.0</ele><time>2026-05-01T07:15:59Z</time></trkpt><trkpt lat="44.877075596915375" lon="10.166571810837109"><ele>46.0</ele><time>2026-05-01T07:16:00Z</time></trkpt><trkpt lat="44.87700832228835" lon="10.16695754964783"><ele>46.0</ele><time>2026-05-01T07:16:01Z</time></trkpt><trkpt lat="44.876941706432554" lon="10.167343330560744"><ele>46.0</ele><time>2026-05-01T07:16:02Z</time></trkpt><trkpt lat="44.876874575117526" lon="10.16773150104942"><ele>46.5</ele><time>2026-05-01T07:16:03Z</time></trkpt><trkpt lat="44.87680859153708" lon="10.168122054533"><ele>47.0</ele><time>2026-05-01T07:16:04Z</time></trkpt><trkpt lat="44.876742283818814" lon="10.168516008026295"><ele>47.5</ele><time>2026-05-01T07:16:05Z</time></trkpt><trkpt lat="44.876674606925874" lon="10.168907536814066"><ele>48.0</ele><time>2026-05-01T07:16:06Z</time></trkpt><trkpt lat="44.87660479849079" lon="10.169301897885795"><ele>48.5</ele><time>2026-05-01T07:16:07Z</time></trkpt><trkpt lat="44.876537788914064" lon="10.169695831870158"><ele>49.0</ele><time>2026-05-01T07:16:08Z</time></trkpt><trkpt lat="44.87647263352671" lon="10.170091266639611"><ele>49.0</ele><time>2026-05-01T07:16:09Z</time></trkpt><trkpt lat="44.876409510829596" lon="10.170484223894498"><ele>49.0</ele><time>2026-05-01T07:16:10Z</time></trkpt><trkpt lat="44.87634564273478" lon="10.170877847836222"><ele>48.0</ele><time>2026-05-01T07:16:11Z</time></trkpt><trkpt lat="44.87628018643418" lon="10.171274750455835"><ele>47.0</ele><time>2026-05-01T07:16:12Z</time></trkpt><trkpt lat="44.87621339087264" lon="10.17167345907455"><ele>47.0</ele><time>2026-05-01T07:16:13Z</time></trkpt><trkpt lat="44.876145062655475" lon="10.172074416213398"><ele>47.0</ele><time>2026-05-01T07:16:14Z</time></trkpt><trkpt lat="44.87607755560272" lon="10.172475271845492"><ele>47.5</ele><time>2026-05-01T07:16:15Z</time></trkpt><trkpt lat="44.8760102048494" lon="10.172875286084212"><ele>48.0</ele><time>2026-05-01T07:16:16Z</time></trkpt><trkpt lat="44.87594329770203" lon="10.173274976187134"><ele>46.5</ele><time>2026-05-01T07:16:17Z</time></trkpt><trkpt lat="44.875875881070144" lon="10.173675563664931"><ele>45.0</ele><time>2026-05-01T07:16:18Z</time></trkpt><trkpt lat="44.87580774908068" lon="10.174075708682013"><ele>45.0</ele><time>2026-05-01T07:16:19Z</time></trkpt><trkpt lat="44.875739246430356" lon="10.174477426064641"><ele>45.0</ele><time>2026-05-01T07:16:20Z</time></trkpt><trkpt lat="44.8756727819216" lon="10.174877290043725"><ele>45.0</ele><time>2026-05-01T07:16:21Z</time></trkpt><trkpt lat="44.875607197386024" lon="10.17527912148611"><ele>45.0</ele><time>2026-05-01T07:16:22Z</time></trkpt><trkpt lat="44.875541534917005" lon="10.175681283133915"><ele>45.5</ele><time>2026-05-01T07:16:23Z</time></trkpt><trkpt lat="44.87547379715408" lon="10.176083949139713"><ele>46.0</ele><time>2026-05-01T07:16:24Z</time></trkpt><trkpt lat="44.875404636698505" lon="10.176488100776846"><ele>45.0</ele><time>2026-05-01T07:16:25Z</time></trkpt><trkpt lat="44.87533474099125" lon="10.176890522230767"><ele>44.0</ele><time>2026-05-01T07:16:26Z</time></trkpt><trkpt lat="44.87526429527296" lon="10.177293955704124"><ele>44.0</ele><time>2026-05-01T07:16:27Z</time></trkpt><trkpt lat="44.875195359079044" lon="10.177698576897372"><ele>44.0</ele><time>2026-05-01T07:16:28Z</time></trkpt><trkpt lat="44.87512700232911" lon="10.178099254698246"><ele>43.5</ele><time>2026-05-01T07:16:29Z</time></trkpt><trkpt lat="44.875057850099346" lon="10.178502024610857"><ele>43.0</ele><time>2026-05-01T07:16:30Z</time></trkpt><trkpt lat="44.87498984681406" lon="10.178902886468007"><ele>43.0</ele><time>2026-05-01T07:16:31Z</time></trkpt><trkpt lat="44.87492131321953" lon="10.179304638786457"><ele>43.0</ele><time>2026-05-01T07:16:32Z</time></trkpt><trkpt lat="44.8748535863921" lon="10.179702878757736"><ele>43.5</ele><time>2026-05-01T07:16:33Z</time></trkpt><trkpt lat="44.87478621453515" lon="10.180103459577463"><ele>44.0</ele><time>2026-05-01T07:16:34Z</time></trkpt><trkpt lat="44.874719286445924" lon="10.18050245364564"><ele>43.5</ele><time>2026-05-01T07:16:35Z</time></trkpt><trkpt lat="44.87465184023939" lon="10.180902852531908"><ele>43.0</ele><time>2026-05-01T07:16:36Z</time></trkpt><trkpt lat="44.87458260492953" lon="10.181301077630682"><ele>44.0</ele><time>2026-05-01T07:16:37Z</time></trkpt><trkpt lat="44.874512588394964" lon="10.181697509522975"><ele>45.0</ele><time>2026-05-01T07:16:38Z</time></trkpt><trkpt lat="44.874445066253195" lon="10.182097712413734"><ele>44.0</ele><time>2026-05-01T07:16:39Z</time></trkpt><trkpt lat="44.874380550658664" lon="10.182494016618751"><ele>43.0</ele><time>2026-05-01T07:16:40Z</time></trkpt><trkpt lat="44.87431490141983" lon="10.182891074630598"><ele>43.5</ele><time>2026-05-01T07:16:41Z</time></trkpt><trkpt lat="44.87424922424518" lon="10.183286648176217"><ele>44.0</ele><time>2026-05-01T07:16:42Z</time></trkpt><trkpt lat="44.87418193574051" lon="10.183680900320867"><ele>44.0</ele><time>2026-05-01T07:16:43Z</time></trkpt><trkpt lat="44.87411302850301" lon="10.184076383197311"><ele>44.0</ele><time>2026-05-01T07:16:43.999Z</time></trkpt><trkpt lat="44.874046882397295" lon="10.184470235289439"><ele>43.0</ele><time>2026-05-01T07:16:44.999Z</time></trkpt><trkpt lat="44.87398295377608" lon="10.184861461284624"><ele>42.0</ele><time>2026-05-01T07:16:45.999Z</time></trkpt><trkpt lat="44.87391742369096" lon="10.185251995983894"><ele>42.0</ele><time>2026-05-01T07:16:46.999Z</time></trkpt><trkpt lat="44.87385219412011" lon="10.185638884953622"><ele>42.0</ele><time>2026-05-01T07:16:47.999Z</time></trkpt><trkpt lat="44.8737864383173" lon="10.18602683358452"><ele>42.5</ele><time>2026-05-01T07:16:48.999Z</time></trkpt><trkpt lat="44.87372075780514" lon="10.186416002197898"><ele>43.0</ele><time>2026-05-01T07:16:49.999Z</time></trkpt><trkpt lat="44.87365624875303" lon="10.186805806114766"><ele>43.5</ele><time>2026-05-01T07:16:50.999Z</time></trkpt><trkpt lat="44.873590060515596" lon="10.187195805265885"><ele>44.0</ele><time>2026-05-01T07:16:51.999Z</time></trkpt><trkpt lat="44.873523183946034" lon="10.187583375720314"><ele>44.0</ele><time>2026-05-01T07:16:52.999Z</time></trkpt><trkpt lat="44.87345472590974" lon="10.187974844096432"><ele>44.0</ele><time>2026-05-01T07:16:53.999Z</time></trkpt><trkpt lat="44.873386683910326" lon="10.188369103043485"><ele>43.0</ele><time>2026-05-01T07:16:54.999Z</time></trkpt><trkpt lat="44.8733190003422" lon="10.18876459458545"><ele>42.0</ele><time>2026-05-01T07:16:55.999Z</time></trkpt><trkpt lat="44.87325191522241" lon="10.18915787825515"><ele>42.0</ele><time>2026-05-01T07:16:56.999Z</time></trkpt><trkpt lat="44.873185599629785" lon="10.189551188528924"><ele>42.0</ele><time>2026-05-01T07:16:57.999Z</time></trkpt><trkpt lat="44.873120015597664" lon="10.189941939283532"><ele>43.0</ele><time>2026-05-01T07:16:58.999Z</time></trkpt><trkpt lat="44.8730538204821" lon="10.190330916019988"><ele>44.0</ele><time>2026-05-01T07:16:59.999Z</time></trkpt><trkpt lat="44.87298914935763" lon="10.190717256104817"><ele>44.0</ele><time>2026-05-01T07:17:00.999Z</time></trkpt><trkpt lat="44.87292799869237" lon="10.191086965571552"><ele>44.0</ele><time>2026-05-01T07:17:01.999Z</time></trkpt><trkpt lat="44.87286963122637" lon="10.191436207469465"><ele>43.5</ele><time>2026-05-01T07:17:02.999Z</time></trkpt><trkpt lat="44.872812362089405" lon="10.191770949762333"><ele>43.0</ele><time>2026-05-01T07:17:03.999Z</time></trkpt><trkpt lat="44.872755653636766" lon="10.192097465528684"><ele>42.5</ele><time>2026-05-01T07:17:04.999Z</time></trkpt><trkpt lat="44.87269915144871" lon="10.192417161453493"><ele>42.0</ele><time>2026-05-01T07:17:05.999Z</time></trkpt><trkpt lat="44.87264372949271" lon="10.192731809005707"><ele>43.0</ele><time>2026-05-01T07:17:06.999Z</time></trkpt><trkpt lat="44.87258939826721" lon="10.19304448900839"><ele>44.0</ele><time>2026-05-01T07:17:07.999Z</time></trkpt><trkpt lat="44.87253654448076" lon="10.19335680308345"><ele>44.5</ele><time>2026-05-01T07:17:08.999Z</time></trkpt><trkpt lat="44.87246072955276" lon="10.193699271693808"><ele>45.0</ele><time>2026-05-01T07:17:09.999Z</time></trkpt><trkpt lat="44.87238567819866" lon="10.194081826710269"><ele>45.0</ele><time>2026-05-01T07:17:10.999Z</time></trkpt><trkpt lat="44.872317225342606" lon="10.194488389385198"><ele>45.0</ele><time>2026-05-01T07:17:11.999Z</time></trkpt><trkpt lat="44.872326781718584" lon="10.19460766326589"><ele>45.0</ele><time>2026-05-01T07:17:12.999Z</time></trkpt><trkpt lat="44.87227477040361" lon="10.194929600828628"><ele>44.5</ele><time>2026-05-01T07:17:13.999Z</time></trkpt><trkpt lat="44.872218542625525" lon="10.195246795874121"><ele>44.0</ele><time>2026-05-01T07:17:14.999Z</time></trkpt><trkpt lat="44.87216213382948" lon="10.195571413656085"><ele>43.5</ele><time>2026-05-01T07:17:15.999Z</time></trkpt><trkpt lat="44.872113227538165" lon="10.195892246428"><ele>43.0</ele><time>2026-05-01T07:17:16.999Z</time></trkpt><trkpt lat="44.872062935201434" lon="10.196208255264294"><ele>43.5</ele><time>2026-05-01T07:17:17.999Z</time></trkpt><trkpt lat="44.87200808172375" lon="10.196534087071637"><ele>44.0</ele><time>2026-05-01T07:17:18.999Z</time></trkpt><trkpt lat="44.871956086570606" lon="10.196860599009428"><ele>44.0</ele><time>2026-05-01T07:17:19.999Z</time></trkpt><trkpt lat="44.871898002463524" lon="10.1971807324132"><ele>44.0</ele><time>2026-05-01T07:17:20.999Z</time></trkpt><trkpt lat="44.8718415292798" lon="10.197503236984303"><ele>44.0</ele><time>2026-05-01T07:17:21.999Z</time></trkpt><trkpt lat="44.87178888772211" lon="10.197826239307837"><ele>44.0</ele><time>2026-05-01T07:17:22.999Z</time></trkpt><trkpt lat="44.871733166511675" lon="10.19814985065592"><ele>44.0</ele><time>2026-05-01T07:17:23.999Z</time></trkpt><trkpt lat="44.871675982896704" lon="10.198477010304646"><ele>44.0</ele><time>2026-05-01T07:17:24.999Z</time></trkpt><trkpt lat="44.87162418325623" lon="10.19880062590637"><ele>44.5</ele><time>2026-05-01T07:17:25.999Z</time></trkpt><trkpt lat="44.871567609638674" lon="10.199128962190969"><ele>45.0</ele><time>2026-05-01T07:17:26.999Z</time></trkpt><trkpt lat="44.87151282294744" lon="10.199460626015076"><ele>45.0</ele><time>2026-05-01T07:17:27.999Z</time></trkpt><trkpt lat="44.8714621773777" lon="10.199795435676162"><ele>45.0</ele><time>2026-05-01T07:17:28.999Z</time></trkpt><trkpt lat="44.87140962261994" lon="10.200141699053875"><ele>45.0</ele><time>2026-05-01T07:17:29.999Z</time></trkpt><trkpt lat="44.871357831731636" lon="10.200498725790984"><ele>45.0</ele><time>2026-05-01T07:17:30.999Z</time></trkpt><trkpt lat="44.871302145225144" lon="10.200865502104115"><ele>45.0</ele><time>2026-05-01T07:17:31.999Z</time></trkpt><trkpt lat="44.871242106941814" lon="10.201223215023722"><ele>45.0</ele><time>2026-05-01T07:17:32.999Z</time></trkpt><trkpt lat="44.87118330945837" lon="10.201581702971525"><ele>44.5</ele><time>2026-05-01T07:17:33.999Z</time></trkpt><trkpt lat="44.87111833320044" lon="10.201933623707582"><ele>44.0</ele><time>2026-05-01T07:17:34.999Z</time></trkpt><trkpt lat="44.87106313153763" lon="10.202295111744318"><ele>44.5</ele><time>2026-05-01T07:17:35.999Z</time></trkpt><trkpt lat="44.87100845616906" lon="10.202662231234909"><ele>45.0</ele><time>2026-05-01T07:17:36.999Z</time></trkpt><trkpt lat="44.87095190120217" lon="10.203041100315277"><ele>44.5</ele><time>2026-05-01T07:17:37.999Z</time></trkpt><trkpt lat="44.870892188176256" lon="10.203424498394767"><ele>44.0</ele><time>2026-05-01T07:17:38.999Z</time></trkpt><trkpt lat="44.87083151126316" lon="10.203813413598798"><ele>44.0</ele><time>2026-05-01T07:17:39.999Z</time></trkpt><trkpt lat="44.87076596684551" lon="10.20420406096931"><ele>44.0</ele><time>2026-05-01T07:17:40.999Z</time></trkpt><trkpt lat="44.870696134527314" lon="10.204598070755926"><ele>43.5</ele><time>2026-05-01T07:17:41.999Z</time></trkpt><trkpt lat="44.87063099068001" lon="10.204990859525413"><ele>43.0</ele><time>2026-05-01T07:17:42.999Z</time></trkpt><trkpt lat="44.870565771051176" lon="10.205386068538932"><ele>43.0</ele><time>2026-05-01T07:17:43.999Z</time></trkpt><trkpt lat="44.87049787710537" lon="10.205780121451358"><ele>43.0</ele><time>2026-05-01T07:17:44.999Z</time></trkpt><trkpt lat="44.87042456610463" lon="10.20617449216713"><ele>44.5</ele><time>2026-05-01T07:17:45.999Z</time></trkpt><trkpt lat="44.870347557193284" lon="10.20656875855899"><ele>46.0</ele><time>2026-05-01T07:17:46.999Z</time></trkpt><trkpt lat="44.870272061214806" lon="10.206964392197051"><ele>45.5</ele><time>2026-05-01T07:17:47.999Z</time></trkpt><trkpt lat="44.87020076167273" lon="10.20736304309517"><ele>45.0</ele><time>2026-05-01T07:17:48.999Z</time></trkpt><trkpt lat="44.870130106019495" lon="10.20776283161599"><ele>45.0</ele><time>2026-05-01T07:17:49.999Z</time></trkpt><trkpt lat="44.870064927995166" lon="10.208163854570454"><ele>45.0</ele><time>2026-05-01T07:17:50.999Z</time></trkpt><trkpt lat="44.869997039570386" lon="10.20856299298465"><ele>45.0</ele><time>2026-05-01T07:17:52Z</time></trkpt><trkpt lat="44.8699299495987" lon="10.208965251255515"><ele>45.0</ele><time>2026-05-01T07:17:53Z</time></trkpt><trkpt lat="44.869862019928505" lon="10.209365849652775"><ele>45.0</ele><time>2026-05-01T07:17:54Z</time></trkpt><trkpt lat="44.869793812381474" lon="10.20976847459358"><ele>45.0</ele><time>2026-05-01T07:17:55Z</time></trkpt><trkpt lat="44.869723521168794" lon="10.210173681156276"><ele>45.0</ele><time>2026-05-01T07:17:56Z</time></trkpt><trkpt lat="44.86965348803967" lon="10.210582242897384"><ele>45.0</ele><time>2026-05-01T07:17:57Z</time></trkpt><trkpt lat="44.86958162923169" lon="10.210987760283091"><ele>45.0</ele><time>2026-05-01T07:17:58Z</time></trkpt><trkpt lat="44.86951195924686" lon="10.211391515643157"><ele>45.0</ele><time>2026-05-01T07:17:59Z</time></trkpt><trkpt lat="44.86944375156353" lon="10.211800925022429"><ele>45.0</ele><time>2026-05-01T07:18:00Z</time></trkpt><trkpt lat="44.86937604126816" lon="10.21221013798795"><ele>45.0</ele><time>2026-05-01T07:18:01Z</time></trkpt><trkpt lat="44.86930977308985" lon="10.212614622183642"><ele>44.5</ele><time>2026-05-01T07:18:02Z</time></trkpt><trkpt lat="44.86923953092214" lon="10.213022355397987"><ele>44.0</ele><time>2026-05-01T07:18:03Z</time></trkpt><trkpt lat="44.86916891292626" lon="10.213427072306937"><ele>45.0</ele><time>2026-05-01T07:18:04Z</time></trkpt><trkpt lat="44.8690987474456" lon="10.213837887084509"><ele>46.0</ele><time>2026-05-01T07:18:05Z</time></trkpt><trkpt lat="44.86903071128878" lon="10.214247234814719"><ele>46.0</ele><time>2026-05-01T07:18:06Z</time></trkpt><trkpt lat="44.868962617253736" lon="10.214656710725047"><ele>46.0</ele><time>2026-05-01T07:18:07Z</time></trkpt><trkpt lat="44.8688933199787" lon="10.215063662570012"><ele>45.0</ele><time>2026-05-01T07:18:08Z</time></trkpt><trkpt lat="44.86882421319005" lon="10.21547656383075"><ele>44.0</ele><time>2026-05-01T07:18:09Z</time></trkpt><trkpt lat="44.86875450221111" lon="10.21588514254718"><ele>43.5</ele><time>2026-05-01T07:18:10Z</time></trkpt><trkpt lat="44.868684988108406" lon="10.216297664044037"><ele>43.0</ele><time>2026-05-01T07:18:11Z</time></trkpt><trkpt lat="44.868613527034086" lon="10.216709859631765"><ele>43.0</ele><time>2026-05-01T07:18:12Z</time></trkpt><trkpt lat="44.86854280346244" lon="10.217121110152224"><ele>43.0</ele><time>2026-05-01T07:18:13Z</time></trkpt><trkpt lat="44.86847134858783" lon="10.217531312630939"><ele>43.0</ele><time>2026-05-01T07:18:14Z</time></trkpt><trkpt lat="44.86840044801031" lon="10.217946258230775"><ele>43.0</ele><time>2026-05-01T07:18:15Z</time></trkpt><trkpt lat="44.86832851886996" lon="10.218356442577157"><ele>43.0</ele><time>2026-05-01T07:18:16Z</time></trkpt><trkpt lat="44.868254461029544" lon="10.218768928169727"><ele>43.0</ele><time>2026-05-01T07:18:17Z</time></trkpt><trkpt lat="44.86817714335023" lon="10.219178927830791"><ele>43.0</ele><time>2026-05-01T07:18:18Z</time></trkpt><trkpt lat="44.86810369213163" lon="10.219588629408847"><ele>43.0</ele><time>2026-05-01T07:18:19Z</time></trkpt><trkpt lat="44.86803154370094" lon="10.219998159565012"><ele>43.5</ele><time>2026-05-01T07:18:20Z</time></trkpt><trkpt lat="44.86795927984" lon="10.220409076219518"><ele>44.0</ele><time>2026-05-01T07:18:21Z</time></trkpt><trkpt lat="44.867886686862256" lon="10.220818718382276"><ele>44.0</ele><time>2026-05-01T07:18:22Z</time></trkpt><trkpt lat="44.86781414370028" lon="10.221231743402775"><ele>44.0</ele><time>2026-05-01T07:18:23Z</time></trkpt><trkpt lat="44.86773873262651" lon="10.221645082892469"><ele>43.5</ele><time>2026-05-01T07:18:24Z</time></trkpt><trkpt lat="44.86766090530593" lon="10.222056481659703"><ele>43.0</ele><time>2026-05-01T07:18:25Z</time></trkpt><trkpt lat="44.86758148705534" lon="10.222465823958213"><ele>43.0</ele><time>2026-05-01T07:18:26Z</time></trkpt><trkpt lat="44.86749990002557" lon="10.222871960063571"><ele>43.0</ele><time>2026-05-01T07:18:27Z</time></trkpt><trkpt lat="44.86741700506879" lon="10.22328054010272"><ele>43.0</ele><time>2026-05-01T07:18:28Z</time></trkpt><trkpt lat="44.86733352300273" lon="10.223690530561383"><ele>43.0</ele><time>2026-05-01T07:18:29Z</time></trkpt><trkpt lat="44.867248671179524" lon="10.224101207966479"><ele>43.0</ele><time>2026-05-01T07:18:30Z</time></trkpt><trkpt lat="44.8671655104351" lon="10.22450996684603"><ele>43.0</ele><time>2026-05-01T07:18:31Z</time></trkpt><trkpt lat="44.8670787031508" lon="10.224919840644366"><ele>43.0</ele><time>2026-05-01T07:18:32Z</time></trkpt><trkpt lat="44.8669903657207" lon="10.225329799525808"><ele>43.0</ele><time>2026-05-01T07:18:33Z</time></trkpt><trkpt lat="44.86690065358383" lon="10.225744009895251"><ele>44.0</ele><time>2026-05-01T07:18:34Z</time></trkpt><trkpt lat="44.86680933939746" lon="10.226153407917261"><ele>45.0</ele><time>2026-05-01T07:18:35Z</time></trkpt><trkpt lat="44.86671685355218" lon="10.22656089450884"><ele>45.0</ele><time>2026-05-01T07:18:36Z</time></trkpt><trkpt lat="44.866623033388684" lon="10.226967319325347"><ele>45.0</ele><time>2026-05-01T07:18:37Z</time></trkpt><trkpt lat="44.86652612657857" lon="10.22737845396588"><ele>45.0</ele><time>2026-05-01T07:18:38Z</time></trkpt><trkpt lat="44.866428323574794" lon="10.227784631249868"><ele>45.0</ele><time>2026-05-01T07:18:39Z</time></trkpt><trkpt lat="44.86633380576675" lon="10.228192423303897"><ele>45.0</ele><time>2026-05-01T07:18:40Z</time></trkpt><trkpt lat="44.86624068120202" lon="10.228591881595415"><ele>45.0</ele><time>2026-05-01T07:18:41Z</time></trkpt><trkpt lat="44.86614647217556" lon="10.228992205631677"><ele>44.0</ele><time>2026-05-01T07:18:42Z</time></trkpt><trkpt lat="44.8660485709678" lon="10.22939747981049"><ele>43.0</ele><time>2026-05-01T07:18:43Z</time></trkpt><trkpt lat="44.86594773605267" lon="10.229801889625136"><ele>43.5</ele><time>2026-05-01T07:18:44Z</time></trkpt><trkpt lat="44.86584803751458" lon="10.230206914394483"><ele>44.0</ele><time>2026-05-01T07:18:45Z</time></trkpt><trkpt lat="44.86574787233448" lon="10.23061484416659"><ele>43.5</ele><time>2026-05-01T07:18:46Z</time></trkpt><trkpt lat="44.86565014803504" lon="10.23102020055865"><ele>43.0</ele><time>2026-05-01T07:18:47Z</time></trkpt><trkpt lat="44.86555441308001" lon="10.231422631556255"><ele>42.5</ele><time>2026-05-01T07:18:48Z</time></trkpt><trkpt lat="44.86546068811549" lon="10.23182392657533"><ele>42.0</ele><time>2026-05-01T07:18:48.999Z</time></trkpt><trkpt lat="44.86536537572941" lon="10.232225836852242"><ele>43.0</ele><time>2026-05-01T07:18:49.999Z</time></trkpt><trkpt lat="44.8652726489259" lon="10.232623457302632"><ele>44.0</ele><time>2026-05-01T07:18:50.999Z</time></trkpt><trkpt lat="44.865179161118235" lon="10.233023207022887"><ele>43.5</ele><time>2026-05-01T07:18:51.999Z</time></trkpt><trkpt lat="44.865086679420536" lon="10.233424466688422"><ele>43.0</ele><time>2026-05-01T07:18:52.999Z</time></trkpt><trkpt lat="44.864995323905454" lon="10.233822008903804"><ele>43.5</ele><time>2026-05-01T07:18:53.999Z</time></trkpt><trkpt lat="44.86490628094278" lon="10.234223957645865"><ele>44.0</ele><time>2026-05-01T07:18:54.999Z</time></trkpt><trkpt lat="44.86481788515838" lon="10.234625423637524"><ele>44.5</ele><time>2026-05-01T07:18:55.999Z</time></trkpt><trkpt lat="44.86472853180197" lon="10.235027730645658"><ele>45.0</ele><time>2026-05-01T07:18:56.999Z</time></trkpt><trkpt lat="44.86463699400356" lon="10.235432624126442"><ele>46.0</ele><time>2026-05-01T07:18:57.999Z</time></trkpt><trkpt lat="44.864543862262764" lon="10.235839485399067"><ele>47.0</ele><time>2026-05-01T07:18:58.999Z</time></trkpt><trkpt lat="44.864447130695446" lon="10.236244577865664"><ele>46.0</ele><time>2026-05-01T07:18:59.999Z</time></trkpt><trkpt lat="44.86434645068545" lon="10.236648176785035"><ele>45.0</ele><time>2026-05-01T07:19:00.999Z</time></trkpt><trkpt lat="44.864251645890405" lon="10.237055331476375"><ele>45.5</ele><time>2026-05-01T07:19:01.999Z</time></trkpt><trkpt lat="44.86415482101632" lon="10.237459638568161"><ele>46.0</ele><time>2026-05-01T07:19:02.999Z</time></trkpt><trkpt lat="44.86405694808772" lon="10.237864542084237"><ele>45.5</ele><time>2026-05-01T07:19:03.999Z</time></trkpt><trkpt lat="44.863959695895005" lon="10.238273577651828"><ele>45.0</ele><time>2026-05-01T07:19:04.999Z</time></trkpt><trkpt lat="44.86386169855451" lon="10.238684383968934"><ele>45.0</ele><time>2026-05-01T07:19:05.999Z</time></trkpt><trkpt lat="44.86376191410814" lon="10.239101292851245"><ele>45.0</ele><time>2026-05-01T07:19:06.999Z</time></trkpt><trkpt lat="44.863663751424845" lon="10.239514361085641"><ele>45.0</ele><time>2026-05-01T07:19:07.999Z</time></trkpt><trkpt lat="44.86356534159567" lon="10.239922313040656"><ele>45.0</ele><time>2026-05-01T07:19:08.999Z</time></trkpt><trkpt lat="44.86346559180101" lon="10.240342854577703"><ele>43.5</ele><time>2026-05-01T07:19:09.999Z</time></trkpt><trkpt lat="44.86337009702809" lon="10.240750405906649"><ele>42.0</ele><time>2026-05-01T07:19:10.999Z</time></trkpt><trkpt lat="44.86327208606866" lon="10.24116346880174"><ele>41.5</ele><time>2026-05-01T07:19:11.999Z</time></trkpt><trkpt lat="44.86317281647959" lon="10.241575539941984"><ele>41.0</ele><time>2026-05-01T07:19:12.999Z</time></trkpt><trkpt lat="44.86307329269262" lon="10.241987256395884"><ele>41.0</ele><time>2026-05-01T07:19:13.999Z</time></trkpt><trkpt lat="44.86297941905021" lon="10.242390512649715"><ele>41.0</ele><time>2026-05-01T07:19:14.999Z</time></trkpt><trkpt lat="44.86288233663563" lon="10.242796224503307"><ele>40.5</ele><time>2026-05-01T07:19:15.999Z</time></trkpt><trkpt lat="44.86279049301018" lon="10.243189905991471"><ele>40.0</ele><time>2026-05-01T07:19:16.999Z</time></trkpt><trkpt lat="44.86269817890491" lon="10.243578510005962"><ele>39.5</ele><time>2026-05-01T07:19:17.999Z</time></trkpt><trkpt lat="44.86260818627424" lon="10.24396145826184"><ele>39.0</ele><time>2026-05-01T07:19:18.999Z</time></trkpt><trkpt lat="44.862518351412845" lon="10.244341451003967"><ele>40.5</ele><time>2026-05-01T07:19:19.999Z</time></trkpt><trkpt lat="44.86242953104035" lon="10.244719538747505"><ele>42.0</ele><time>2026-05-01T07:19:20.999Z</time></trkpt><trkpt lat="44.8623366179154" lon="10.245095984863218"><ele>43.0</ele><time>2026-05-01T07:19:21.999Z</time></trkpt><trkpt lat="44.86224010887692" lon="10.245464834249931"><ele>44.0</ele><time>2026-05-01T07:19:22.999Z</time></trkpt><trkpt lat="44.862141806638725" lon="10.245832637710855"><ele>44.0</ele><time>2026-05-01T07:19:23.999Z</time></trkpt><trkpt lat="44.86204618955048" lon="10.246203996980961"><ele>44.0</ele><time>2026-05-01T07:19:24.999Z</time></trkpt><trkpt lat="44.86195207135725" lon="10.246579681002615"><ele>44.0</ele><time>2026-05-01T07:19:25.999Z</time></trkpt><trkpt lat="44.86185327325054" lon="10.24694751956723"><ele>44.0</ele><time>2026-05-01T07:19:26.999Z</time></trkpt><trkpt lat="44.861750253373955" lon="10.247310070935846"><ele>44.5</ele><time>2026-05-01T07:19:27.999Z</time></trkpt><trkpt lat="44.861654624901796" lon="10.247676219215952"><ele>45.0</ele><time>2026-05-01T07:19:28.999Z</time></trkpt><trkpt lat="44.86156240237125" lon="10.248044952134205"><ele>45.0</ele><time>2026-05-01T07:19:29.999Z</time></trkpt><trkpt lat="44.861473485748206" lon="10.248411698063267"><ele>45.0</ele><time>2026-05-01T07:19:30.999Z</time></trkpt><trkpt lat="44.86138432027975" lon="10.248777147859435"><ele>45.0</ele><time>2026-05-01T07:19:31.999Z</time></trkpt><trkpt lat="44.861298388022576" lon="10.249142385978203"><ele>45.0</ele><time>2026-05-01T07:19:32.999Z</time></trkpt><trkpt lat="44.86121318807575" lon="10.249510802375271"><ele>43.5</ele><time>2026-05-01T07:19:33.999Z</time></trkpt><trkpt lat="44.861125596021076" lon="10.249875318687065"><ele>42.0</ele><time>2026-05-01T07:19:34.999Z</time></trkpt><trkpt lat="44.86103694020983" lon="10.25024315480599"><ele>42.0</ele><time>2026-05-01T07:19:35.999Z</time></trkpt><trkpt lat="44.86095005281155" lon="10.250611842969347"><ele>42.0</ele><time>2026-05-01T07:19:36.999Z</time></trkpt><trkpt lat="44.860862630932075" lon="10.250982367127571"><ele>42.0</ele><time>2026-05-01T07:19:37.999Z</time></trkpt><trkpt lat="44.860776354253936" lon="10.251351658599177"><ele>42.0</ele><time>2026-05-01T07:19:38.999Z</time></trkpt><trkpt lat="44.86068790916519" lon="10.25172452646853"><ele>41.5</ele><time>2026-05-01T07:19:39.999Z</time></trkpt><trkpt lat="44.86059834089296" lon="10.252101006681153"><ele>41.0</ele><time>2026-05-01T07:19:40.999Z</time></trkpt><trkpt lat="44.86050798112537" lon="10.252476401284294"><ele>41.0</ele><time>2026-05-01T07:19:41.999Z</time></trkpt><trkpt lat="44.86041876683275" lon="10.252856355606735"><ele>41.0</ele><time>2026-05-01T07:19:42.999Z</time></trkpt><trkpt lat="44.860330316915054" lon="10.25323865489153"><ele>41.0</ele><time>2026-05-01T07:19:43.999Z</time></trkpt><trkpt lat="44.86024660794485" lon="10.253623604989087"><ele>41.0</ele><time>2026-05-01T07:19:44.999Z</time></trkpt><trkpt lat="44.860162714210766" lon="10.254006918400904"><ele>41.0</ele><time>2026-05-01T07:19:45.999Z</time></trkpt><trkpt lat="44.860079055809784" lon="10.254385461097847"><ele>41.0</ele><time>2026-05-01T07:19:46.999Z</time></trkpt><trkpt lat="44.85999454047461" lon="10.254766665334216"><ele>41.5</ele><time>2026-05-01T07:19:47.999Z</time></trkpt><trkpt lat="44.85990900479129" lon="10.255143106586658"><ele>42.0</ele><time>2026-05-01T07:19:48.999Z</time></trkpt><trkpt lat="44.85982083399988" lon="10.25552181547311"><ele>42.0</ele><time>2026-05-01T07:19:49.999Z</time></trkpt><trkpt lat="44.859734314011064" lon="10.255894518745466"><ele>42.0</ele><time>2026-05-01T07:19:50.999Z</time></trkpt><trkpt lat="44.85964500018074" lon="10.25626928151014"><ele>42.0</ele><time>2026-05-01T07:19:51.999Z</time></trkpt><trkpt lat="44.859554268543874" lon="10.256641631298459"><ele>42.0</ele><time>2026-05-01T07:19:52.999Z</time></trkpt><trkpt lat="44.85946026489015" lon="10.257014630012177"><ele>42.0</ele><time>2026-05-01T07:19:53.999Z</time></trkpt><trkpt lat="44.8593616430276" lon="10.257386129574776"><ele>42.0</ele><time>2026-05-01T07:19:54.999Z</time></trkpt><trkpt lat="44.85926229044499" lon="10.257756975224176"><ele>41.0</ele><time>2026-05-01T07:19:55.999Z</time></trkpt><trkpt lat="44.85916519653688" lon="10.258125421273315"><ele>40.0</ele><time>2026-05-01T07:19:56.999Z</time></trkpt><trkpt lat="44.85907162273385" lon="10.258495868683932"><ele>40.0</ele><time>2026-05-01T07:19:58Z</time></trkpt><trkpt lat="44.85898183901105" lon="10.258866629335513"><ele>40.0</ele><time>2026-05-01T07:19:59Z</time></trkpt><trkpt lat="44.85889289379539" lon="10.259239263501527"><ele>40.0</ele><time>2026-05-01T07:20:00Z</time></trkpt><trkpt lat="44.85880271413605" lon="10.259616014860182"><ele>40.0</ele><time>2026-05-01T07:20:01Z</time></trkpt><trkpt lat="44.858711711169406" lon="10.259994798289474"><ele>40.0</ele><time>2026-05-01T07:20:02Z</time></trkpt><trkpt lat="44.858618888068044" lon="10.260372474792268"><ele>40.0</ele><time>2026-05-01T07:20:03Z</time></trkpt><trkpt lat="44.85852608924763" lon="10.26075409741867"><ele>40.5</ele><time>2026-05-01T07:20:04Z</time></trkpt><trkpt lat="44.85843377917388" lon="10.261141058671395"><ele>41.0</ele><time>2026-05-01T07:20:05Z</time></trkpt><trkpt lat="44.85834065151446" lon="10.261530939465358"><ele>41.0</ele><time>2026-05-01T07:20:06Z</time></trkpt><trkpt lat="44.85824834614424" lon="10.261919964893211"><ele>41.0</ele><time>2026-05-01T07:20:07Z</time></trkpt><trkpt lat="44.8581570388392" lon="10.26231295936161"><ele>40.0</ele><time>2026-05-01T07:20:08Z</time></trkpt><trkpt lat="44.8580654022183" lon="10.26270593844635"><ele>39.0</ele><time>2026-05-01T07:20:09Z</time></trkpt><trkpt lat="44.85797340879558" lon="10.2630983788951"><ele>38.5</ele><time>2026-05-01T07:20:10Z</time></trkpt><trkpt lat="44.857879863929476" lon="10.263492502074987"><ele>38.0</ele><time>2026-05-01T07:20:11Z</time></trkpt><trkpt lat="44.85778562140577" lon="10.263885194684987"><ele>38.0</ele><time>2026-05-01T07:20:12Z</time></trkpt><trkpt lat="44.85769130244432" lon="10.264278717446517"><ele>38.0</ele><time>2026-05-01T07:20:13Z</time></trkpt><trkpt lat="44.85759806322083" lon="10.264673154494004"><ele>38.5</ele><time>2026-05-01T07:20:14Z</time></trkpt><trkpt lat="44.85750470458058" lon="10.265067813270392"><ele>39.0</ele><time>2026-05-01T07:20:15Z</time></trkpt><trkpt lat="44.857410327206864" lon="10.265462775003146"><ele>39.5</ele><time>2026-05-01T07:20:16Z</time></trkpt><trkpt lat="44.85731628497475" lon="10.265858882299796"><ele>40.0</ele><time>2026-05-01T07:20:17Z</time></trkpt><trkpt lat="44.85722138378968" lon="10.266252747943911"><ele>39.5</ele><time>2026-05-01T07:20:18Z</time></trkpt><trkpt lat="44.857126708074155" lon="10.266645907287192"><ele>39.0</ele><time>2026-05-01T07:20:19Z</time></trkpt><trkpt lat="44.85703329996247" lon="10.267039650843662"><ele>39.0</ele><time>2026-05-01T07:20:20Z</time></trkpt><trkpt lat="44.856941843161756" lon="10.267432457356998"><ele>39.0</ele><time>2026-05-01T07:20:21Z</time></trkpt><trkpt lat="44.85684972645469" lon="10.26782491112577"><ele>39.5</ele><time>2026-05-01T07:20:22Z</time></trkpt><trkpt lat="44.856761579254496" lon="10.26821327265462"><ele>40.0</ele><time>2026-05-01T07:20:23Z</time></trkpt><trkpt lat="44.856676801811176" lon="10.268597936692915"><ele>39.0</ele><time>2026-05-01T07:20:24Z</time></trkpt><trkpt lat="44.856596051685806" lon="10.26897650921859"><ele>38.0</ele><time>2026-05-01T07:20:25Z</time></trkpt><trkpt lat="44.856515571930565" lon="10.269348325664632"><ele>38.0</ele><time>2026-05-01T07:20:26Z</time></trkpt><trkpt lat="44.85643155803543" lon="10.26971511391443"><ele>38.0</ele><time>2026-05-01T07:20:27Z</time></trkpt><trkpt lat="44.856346050323545" lon="10.270080962882126"><ele>38.5</ele><time>2026-05-01T07:20:28Z</time></trkpt><trkpt lat="44.85625857149463" lon="10.270447806199817"><ele>39.0</ele><time>2026-05-01T07:20:29Z</time></trkpt><trkpt lat="44.856170473692366" lon="10.270815237340068"><ele>39.5</ele><time>2026-05-01T07:20:30Z</time></trkpt><trkpt lat="44.856082809586916" lon="10.27118044900179"><ele>40.0</ele><time>2026-05-01T07:20:31Z</time></trkpt><trkpt lat="44.85599489349038" lon="10.271545016221285"><ele>39.0</ele><time>2026-05-01T07:20:32Z</time></trkpt><trkpt lat="44.85590793557852" lon="10.271913289374357"><ele>38.0</ele><time>2026-05-01T07:20:33Z</time></trkpt><trkpt lat="44.855821439585974" lon="10.272279763729898"><ele>38.0</ele><time>2026-05-01T07:20:34Z</time></trkpt><trkpt lat="44.85573442470467" lon="10.272647434937697"><ele>38.0</ele><time>2026-05-01T07:20:35Z</time></trkpt><trkpt lat="44.855645241700685" lon="10.273014380555809"><ele>39.0</ele><time>2026-05-01T07:20:36Z</time></trkpt><trkpt lat="44.8555542114844" lon="10.273382584349346"><ele>40.0</ele><time>2026-05-01T07:20:37Z</time></trkpt><trkpt lat="44.85546364662716" lon="10.27375062242317"><ele>39.5</ele><time>2026-05-01T07:20:38Z</time></trkpt><trkpt lat="44.85537594793679" lon="10.274115023514469"><ele>39.0</ele><time>2026-05-01T07:20:39Z</time></trkpt><trkpt lat="44.855287676514905" lon="10.27447959455705"><ele>40.0</ele><time>2026-05-01T07:20:40Z</time></trkpt><trkpt lat="44.85519467638964" lon="10.274846120310967"><ele>41.0</ele><time>2026-05-01T07:20:41Z</time></trkpt><trkpt lat="44.855095893382824" lon="10.27521092452717"><ele>41.5</ele><time>2026-05-01T07:20:42Z</time></trkpt><trkpt lat="44.85499964254184" lon="10.275580722031652"><ele>42.0</ele><time>2026-05-01T07:20:43Z</time></trkpt><trkpt lat="44.854906435007024" lon="10.275954315558817"><ele>42.0</ele><time>2026-05-01T07:20:44Z</time></trkpt><trkpt lat="44.85481485893744" lon="10.276329667800708"><ele>42.0</ele><time>2026-05-01T07:20:45Z</time></trkpt><trkpt lat="44.854723542509745" lon="10.276704126491994"><ele>41.0</ele><time>2026-05-01T07:20:46Z</time></trkpt><trkpt lat="44.85463250851087" lon="10.277080080131656"><ele>40.0</ele><time>2026-05-01T07:20:47Z</time></trkpt><trkpt lat="44.854542507669606" lon="10.277456092764893"><ele>39.0</ele><time>2026-05-01T07:20:48Z</time></trkpt><trkpt lat="44.85445281864876" lon="10.277834336285181"><ele>38.0</ele><time>2026-05-01T07:20:49Z</time></trkpt><trkpt lat="44.854361630311224" lon="10.278211685207225"><ele>37.5</ele><time>2026-05-01T07:20:50Z</time></trkpt><trkpt lat="44.85426966934092" lon="10.278588081025191"><ele>37.0</ele><time>2026-05-01T07:20:51Z</time></trkpt><trkpt lat="44.85417855725718" lon="10.278963312186427"><ele>37.0</ele><time>2026-05-01T07:20:52Z</time></trkpt><trkpt lat="44.85408974068549" lon="10.27933993223215"><ele>37.0</ele><time>2026-05-01T07:20:53Z</time></trkpt><trkpt lat="44.854000261079975" lon="10.279717338801126"><ele>36.5</ele><time>2026-05-01T07:20:53.999Z</time></trkpt><trkpt lat="44.85391124467317" lon="10.280094010650943"><ele>36.0</ele><time>2026-05-01T07:20:54.999Z</time></trkpt><trkpt lat="44.85382041740073" lon="10.28047121211091"><ele>36.0</ele><time>2026-05-01T07:20:55.999Z</time></trkpt><trkpt lat="44.85372777003694" lon="10.28084950360838"><ele>36.0</ele><time>2026-05-01T07:20:56.999Z</time></trkpt><trkpt lat="44.85363474733845" lon="10.281226546207673"><ele>36.5</ele><time>2026-05-01T07:20:57.999Z</time></trkpt><trkpt lat="44.85354372869509" lon="10.281603788734948"><ele>37.0</ele><time>2026-05-01T07:20:58.999Z</time></trkpt><trkpt lat="44.853454512879956" lon="10.281982030847125"><ele>37.5</ele><time>2026-05-01T07:20:59.999Z</time></trkpt><trkpt lat="44.853366701268975" lon="10.282359581606185"><ele>38.0</ele><time>2026-05-01T07:21:00.999Z</time></trkpt><trkpt lat="44.85327721667407" lon="10.282739610623675"><ele>37.5</ele><time>2026-05-01T07:21:01.999Z</time></trkpt><trkpt lat="44.85318747718393" lon="10.283118681597005"><ele>37.0</ele><time>2026-05-01T07:21:02.999Z</time></trkpt><trkpt lat="44.85309639824658" lon="10.28349673381817"><ele>37.0</ele><time>2026-05-01T07:21:03.999Z</time></trkpt><trkpt lat="44.853004168343006" lon="10.283875567565149"><ele>37.0</ele><time>2026-05-01T07:21:04.999Z</time></trkpt><trkpt lat="44.8529121207421" lon="10.284255060151388"><ele>37.0</ele><time>2026-05-01T07:21:05.999Z</time></trkpt><trkpt lat="44.8528189013774" lon="10.284636324040312"><ele>37.0</ele><time>2026-05-01T07:21:06.999Z</time></trkpt><trkpt lat="44.85272506285656" lon="10.285019493126166"><ele>37.0</ele><time>2026-05-01T07:21:07.999Z</time></trkpt><trkpt lat="44.85263490755524" lon="10.285393525563501"><ele>37.0</ele><time>2026-05-01T07:21:08.999Z</time></trkpt><trkpt lat="44.85254360099958" lon="10.285770117250312"><ele>35.0</ele><time>2026-05-01T07:21:09.999Z</time></trkpt><trkpt lat="44.852452825083965" lon="10.286144573946116"><ele>33.0</ele><time>2026-05-01T07:21:10.999Z</time></trkpt><trkpt lat="44.85236313011286" lon="10.286518229114396"><ele>33.0</ele><time>2026-05-01T07:21:11.999Z</time></trkpt><trkpt lat="44.85227495924523" lon="10.286890407795497"><ele>33.0</ele><time>2026-05-01T07:21:12.999Z</time></trkpt><trkpt lat="44.85218591418288" lon="10.287261797748096"><ele>33.5</ele><time>2026-05-01T07:21:13.999Z</time></trkpt><trkpt lat="44.85209756712648" lon="10.28763365637989"><ele>34.0</ele><time>2026-05-01T07:21:14.999Z</time></trkpt><trkpt lat="44.85200885648403" lon="10.28800551605409"><ele>34.5</ele><time>2026-05-01T07:21:15.999Z</time></trkpt><trkpt lat="44.85192050834204" lon="10.28837646034921"><ele>35.0</ele><time>2026-05-01T07:21:16.999Z</time></trkpt><trkpt lat="44.85183267842637" lon="10.288748757622935"><ele>36.5</ele><time>2026-05-01T07:21:17.999Z</time></trkpt><trkpt lat="44.85174547853241" lon="10.289118608853956"><ele>38.0</ele><time>2026-05-01T07:21:18.999Z</time></trkpt><trkpt lat="44.85165731889647" lon="10.289488728842844"><ele>37.5</ele><time>2026-05-01T07:21:19.999Z</time></trkpt><trkpt lat="44.85156836710649" lon="10.289859629796194"><ele>37.0</ele><time>2026-05-01T07:21:20.999Z</time></trkpt><trkpt lat="44.85148019737703" lon="10.290230599822749"><ele>36.0</ele><time>2026-05-01T07:21:21.999Z</time></trkpt><trkpt lat="44.851392027583366" lon="10.290600410935651"><ele>35.0</ele><time>2026-05-01T07:21:22.999Z</time></trkpt><trkpt lat="44.851305263747705" lon="10.29096812308358"><ele>35.0</ele><time>2026-05-01T07:21:23.999Z</time></trkpt><trkpt lat="44.851215924726" lon="10.291336723543889"><ele>35.0</ele><time>2026-05-01T07:21:24.999Z</time></trkpt><trkpt lat="44.85112716031008" lon="10.291704205205367"><ele>35.0</ele><time>2026-05-01T07:21:25.999Z</time></trkpt><trkpt lat="44.851038422969594" lon="10.292074521241691"><ele>35.0</ele><time>2026-05-01T07:21:26.999Z</time></trkpt><trkpt lat="44.850949232835305" lon="10.292442723367438"><ele>35.0</ele><time>2026-05-01T07:21:27.999Z</time></trkpt><trkpt lat="44.85085778808816" lon="10.292813433181854"><ele>35.0</ele><time>2026-05-01T07:21:28.999Z</time></trkpt><trkpt lat="44.850768754881194" lon="10.293183874756489"><ele>36.0</ele><time>2026-05-01T07:21:29.999Z</time></trkpt><trkpt lat="44.8506808009676" lon="10.293554031278056"><ele>37.0</ele><time>2026-05-01T07:21:30.999Z</time></trkpt><trkpt lat="44.85059318867657" lon="10.293926046961225"><ele>37.5</ele><time>2026-05-01T07:21:31.999Z</time></trkpt><trkpt lat="44.85050561416579" lon="10.294298886036369"><ele>38.0</ele><time>2026-05-01T07:21:32.999Z</time></trkpt><trkpt lat="44.85041745717668" lon="10.294671307912633"><ele>38.0</ele><time>2026-05-01T07:21:33.999Z</time></trkpt><trkpt lat="44.85032849817091" lon="10.295043028113882"><ele>38.0</ele><time>2026-05-01T07:21:34.999Z</time></trkpt><trkpt lat="44.850237884088145" lon="10.295414764975314"><ele>38.5</ele><time>2026-05-01T07:21:35.999Z</time></trkpt><trkpt lat="44.850147805053844" lon="10.295785648206724"><ele>39.0</ele><time>2026-05-01T07:21:36.999Z</time></trkpt><trkpt lat="44.85005771392584" lon="10.296156410026533"><ele>38.0</ele><time>2026-05-01T07:21:37.999Z</time></trkpt><trkpt lat="44.84996729933619" lon="10.29652946387439"><ele>37.0</ele><time>2026-05-01T07:21:38.999Z</time></trkpt><trkpt lat="44.849877159637124" lon="10.296905461480833"><ele>37.5</ele><time>2026-05-01T07:21:39.999Z</time></trkpt><trkpt lat="44.84978654879264" lon="10.297286203439645"><ele>38.0</ele><time>2026-05-01T07:21:40.999Z</time></trkpt><trkpt lat="44.84969687572653" lon="10.2976658208946"><ele>38.0</ele><time>2026-05-01T07:21:41.999Z</time></trkpt><trkpt lat="44.84960569829982" lon="10.29804937997431"><ele>38.0</ele><time>2026-05-01T07:21:42.999Z</time></trkpt><trkpt lat="44.84951483938906" lon="10.298435667285714"><ele>38.0</ele><time>2026-05-01T07:21:43.999Z</time></trkpt><trkpt lat="44.84942391661075" lon="10.298823084827918"><ele>38.0</ele><time>2026-05-01T07:21:44.999Z</time></trkpt><trkpt lat="44.8493322864849" lon="10.299212143679723"><ele>38.0</ele><time>2026-05-01T07:21:45.999Z</time></trkpt><trkpt lat="44.84923911561432" lon="10.29959988918101"><ele>38.0</ele><time>2026-05-01T07:21:46.999Z</time></trkpt><trkpt lat="44.849145447547734" lon="10.29998650158091"><ele>38.0</ele><time>2026-05-01T07:21:47.999Z</time></trkpt><trkpt lat="44.84905180186857" lon="10.300375856822255"><ele>38.0</ele><time>2026-05-01T07:21:48.999Z</time></trkpt><trkpt lat="44.84895794060631" lon="10.30076693100489"><ele>38.5</ele><time>2026-05-01T07:21:49.999Z</time></trkpt><trkpt lat="44.84886142577536" lon="10.301156446796522"><ele>39.0</ele><time>2026-05-01T07:21:50.999Z</time></trkpt><trkpt lat="44.84876435672229" lon="10.301546438042651"><ele>38.5</ele><time>2026-05-01T07:21:51.999Z</time></trkpt><trkpt lat="44.84866842808171" lon="10.30193670400291"><ele>38.0</ele><time>2026-05-01T07:21:52.999Z</time></trkpt><trkpt lat="44.8485746598114" lon="10.302327779201661"><ele>38.0</ele><time>2026-05-01T07:21:53.999Z</time></trkpt><trkpt lat="44.84848247807674" lon="10.30271758759076"><ele>38.0</ele><time>2026-05-01T07:21:54.999Z</time></trkpt><trkpt lat="44.84839272445506" lon="10.303107223700689"><ele>38.5</ele><time>2026-05-01T07:21:55.999Z</time></trkpt><trkpt lat="44.84830560741136" lon="10.30349692041191"><ele>39.0</ele><time>2026-05-01T07:21:56.999Z</time></trkpt><trkpt lat="44.848217517095996" lon="10.303885745354872"><ele>39.0</ele><time>2026-05-01T07:21:57.999Z</time></trkpt><trkpt lat="44.8481268434852" lon="10.304270448998091"><ele>39.0</ele><time>2026-05-01T07:21:58.999Z</time></trkpt><trkpt lat="44.848033912925814" lon="10.304650948610496"><ele>39.5</ele><time>2026-05-01T07:21:59.999Z</time></trkpt><trkpt lat="44.84793854582346" lon="10.305031759069127"><ele>40.0</ele><time>2026-05-01T07:22:00.999Z</time></trkpt><trkpt lat="44.84784383815982" lon="10.305408634323959"><ele>40.5</ele><time>2026-05-01T07:22:01.999Z</time></trkpt><trkpt lat="44.8477508418042" lon="10.305782396647587"><ele>41.0</ele><time>2026-05-01T07:22:02.999Z</time></trkpt><trkpt lat="44.847661614978726" lon="10.30615561840788"><ele>42.0</ele><time>2026-05-01T07:22:04Z</time></trkpt><trkpt lat="44.84757780933661" lon="10.30652269892894"><ele>43.0</ele><time>2026-05-01T07:22:05Z</time></trkpt><trkpt lat="44.847497961515764" lon="10.306876747876572"><ele>43.0</ele><time>2026-05-01T07:22:06Z</time></trkpt><trkpt lat="44.8474196110642" lon="10.307225530273705"><ele>43.0</ele><time>2026-05-01T07:22:07Z</time></trkpt><trkpt lat="44.847343841079045" lon="10.307568004564953"><ele>42.0</ele><time>2026-05-01T07:22:08Z</time></trkpt><trkpt lat="44.847268067986015" lon="10.307906294588822"><ele>41.0</ele><time>2026-05-01T07:22:09Z</time></trkpt><trkpt lat="44.84719117602433" lon="10.308245011300084"><ele>41.0</ele><time>2026-05-01T07:22:10Z</time></trkpt><trkpt lat="44.847110783906444" lon="10.30858590990955"><ele>41.0</ele><time>2026-05-01T07:22:11Z</time></trkpt><trkpt lat="44.84702864921343" lon="10.308929765203514"><ele>41.5</ele><time>2026-05-01T07:22:12Z</time></trkpt><trkpt lat="44.84694483679929" lon="10.309279311507458"><ele>42.0</ele><time>2026-05-01T07:22:13Z</time></trkpt><trkpt lat="44.84685930831587" lon="10.309632491215677"><ele>42.5</ele><time>2026-05-01T07:22:14Z</time></trkpt><trkpt lat="44.846774518360135" lon="10.309986369612844"><ele>43.0</ele><time>2026-05-01T07:22:15Z</time></trkpt><trkpt lat="44.84668981800133" lon="10.310341778204391"><ele>42.0</ele><time>2026-05-01T07:22:16Z</time></trkpt><trkpt lat="44.84660552131593" lon="10.310698990734654"><ele>41.0</ele><time>2026-05-01T07:22:17Z</time></trkpt><trkpt lat="44.846521850329474" lon="10.311055418438665"><ele>40.5</ele><time>2026-05-01T07:22:18Z</time></trkpt><trkpt lat="44.84643645489976" lon="10.311416964148798"><ele>40.0</ele><time>2026-05-01T07:22:19Z</time></trkpt><trkpt lat="44.84634780792401" lon="10.311782765300839"><ele>40.0</ele><time>2026-05-01T07:22:20Z</time></trkpt><trkpt lat="44.846258698521" lon="10.312152301760678"><ele>40.0</ele><time>2026-05-01T07:22:21Z</time></trkpt><trkpt lat="44.84616941280832" lon="10.312524635850142"><ele>40.5</ele><time>2026-05-01T07:22:22Z</time></trkpt><trkpt lat="44.84607778330081" lon="10.312899614411593"><ele>41.0</ele><time>2026-05-01T07:22:23Z</time></trkpt><trkpt lat="44.84598383373547" lon="10.313275229730845"><ele>41.5</ele><time>2026-05-01T07:22:24Z</time></trkpt><trkpt lat="44.84589202863837" lon="10.313645986793386"><ele>42.0</ele><time>2026-05-01T07:22:25Z</time></trkpt><trkpt lat="44.845802390011286" lon="10.31401971308358"><ele>42.5</ele><time>2026-05-01T07:22:26Z</time></trkpt><trkpt lat="44.84571254019811" lon="10.314391489082235"><ele>43.0</ele><time>2026-05-01T07:22:27Z</time></trkpt><trkpt lat="44.84561622706695" lon="10.3147630179276"><ele>43.0</ele><time>2026-05-01T07:22:28Z</time></trkpt><trkpt lat="44.845513982536076" lon="10.315131368064087"><ele>43.0</ele><time>2026-05-01T07:22:29Z</time></trkpt><trkpt lat="44.84541436129245" lon="10.315504782435415"><ele>42.0</ele><time>2026-05-01T07:22:30Z</time></trkpt><trkpt lat="44.84531897975069" lon="10.315880698726405"><ele>41.0</ele><time>2026-05-01T07:22:31Z</time></trkpt><trkpt lat="44.845226754095584" lon="10.316260824044527"><ele>41.0</ele><time>2026-05-01T07:22:32Z</time></trkpt><trkpt lat="44.84513553707869" lon="10.316642479289092"><ele>41.0</ele><time>2026-05-01T07:22:33Z</time></trkpt><trkpt lat="44.845043856512014" lon="10.317026748089145"><ele>41.5</ele><time>2026-05-01T07:22:34Z</time></trkpt><trkpt lat="44.84495190671504" lon="10.317412221357332"><ele>42.0</ele><time>2026-05-01T07:22:35Z</time></trkpt><trkpt lat="44.84485990658654" lon="10.317797386065111"><ele>40.5</ele><time>2026-05-01T07:22:36Z</time></trkpt><trkpt lat="44.84476759923353" lon="10.318189004721772"><ele>39.0</ele><time>2026-05-01T07:22:37Z</time></trkpt><trkpt lat="44.84467470497652" lon="10.318579783051609"><ele>39.5</ele><time>2026-05-01T07:22:38Z</time></trkpt><trkpt lat="44.84458248364379" lon="10.318971881106838"><ele>40.0</ele><time>2026-05-01T07:22:39Z</time></trkpt><trkpt lat="44.84449090137781" lon="10.319363695146123"><ele>40.0</ele><time>2026-05-01T07:22:40Z</time></trkpt><trkpt lat="44.84439862571721" lon="10.319755392281287"><ele>40.0</ele><time>2026-05-01T07:22:41Z</time></trkpt><trkpt lat="44.84430459432134" lon="10.320145325350694"><ele>39.5</ele><time>2026-05-01T07:22:42Z</time></trkpt><trkpt lat="44.84420879560186" lon="10.32053781795988"><ele>39.0</ele><time>2026-05-01T07:22:43Z</time></trkpt><trkpt lat="44.84411377650998" lon="10.320928079289274"><ele>40.0</ele><time>2026-05-01T07:22:44Z</time></trkpt><trkpt lat="44.84402042348359" lon="10.32131567004259"><ele>41.0</ele><time>2026-05-01T07:22:45Z</time></trkpt><trkpt lat="44.84392750437596" lon="10.32170094271797"><ele>41.0</ele><time>2026-05-01T07:22:46Z</time></trkpt><trkpt lat="44.84383660765954" lon="10.322084112437219"><ele>41.0</ele><time>2026-05-01T07:22:47Z</time></trkpt><trkpt lat="44.843745937977566" lon="10.32246486560022"><ele>41.0</ele><time>2026-05-01T07:22:48Z</time></trkpt><trkpt lat="44.84365521724911" lon="10.32284730000637"><ele>41.0</ele><time>2026-05-01T07:22:49Z</time></trkpt><trkpt lat="44.843563910977586" lon="10.323227741590692"><ele>41.0</ele><time>2026-05-01T07:22:50Z</time></trkpt><trkpt lat="44.843470591381994" lon="10.323606544533844"><ele>41.0</ele><time>2026-05-01T07:22:51Z</time></trkpt><trkpt lat="44.843379673590874" lon="10.323984204229708"><ele>40.0</ele><time>2026-05-01T07:22:52Z</time></trkpt><trkpt lat="44.843289678678346" lon="10.324361159119423"><ele>39.0</ele><time>2026-05-01T07:22:53Z</time></trkpt><trkpt lat="44.84319845063661" lon="10.324732334130928"><ele>39.0</ele><time>2026-05-01T07:22:54Z</time></trkpt><trkpt lat="44.84310702273287" lon="10.32510384938489"><ele>39.0</ele><time>2026-05-01T07:22:55Z</time></trkpt><trkpt lat="44.843017509262104" lon="10.325477085789943"><ele>39.0</ele><time>2026-05-01T07:22:56Z</time></trkpt><trkpt lat="44.84292795875822" lon="10.325851096228025"><ele>39.0</ele><time>2026-05-01T07:22:57Z</time></trkpt><trkpt lat="44.842839659447826" lon="10.326224074645362"><ele>39.0</ele><time>2026-05-01T07:22:58Z</time></trkpt><trkpt lat="44.84275188155849" lon="10.326595226663319"><ele>39.0</ele><time>2026-05-01T07:22:59Z</time></trkpt><trkpt lat="44.84266259123772" lon="10.326965518913841"><ele>40.0</ele><time>2026-05-01T07:23:00Z</time></trkpt><trkpt lat="44.84257082001966" lon="10.327338720775643"><ele>41.0</ele><time>2026-05-01T07:23:01Z</time></trkpt><trkpt lat="44.84247931791283" lon="10.327714850974802"><ele>40.5</ele><time>2026-05-01T07:23:02Z</time></trkpt><trkpt lat="44.842387975360275" lon="10.32809266535835"><ele>40.0</ele><time>2026-05-01T07:23:02.999Z</time></trkpt><trkpt lat="44.84229863538407" lon="10.328466056904942"><ele>40.0</ele><time>2026-05-01T07:23:03.999Z</time></trkpt><trkpt lat="44.84220759180838" lon="10.328843477127284"><ele>40.0</ele><time>2026-05-01T07:23:04.999Z</time></trkpt><trkpt lat="44.84211740169245" lon="10.329219082056113"><ele>39.0</ele><time>2026-05-01T07:23:05.999Z</time></trkpt><trkpt lat="44.84202628368545" lon="10.329596129582523"><ele>38.0</ele><time>2026-05-01T07:23:06.999Z</time></trkpt><trkpt lat="44.841937056158514" lon="10.32997459267937"><ele>37.5</ele><time>2026-05-01T07:23:07.999Z</time></trkpt><trkpt lat="44.84184762781256" lon="10.33035322376432"><ele>37.0</ele><time>2026-05-01T07:23:08.999Z</time></trkpt><trkpt lat="44.84175667456165" lon="10.330732247740075"><ele>37.0</ele><time>2026-05-01T07:23:09.999Z</time></trkpt><trkpt lat="44.84166549437557" lon="10.331116875367576"><ele>37.0</ele><time>2026-05-01T07:23:10.999Z</time></trkpt><trkpt lat="44.84157904168968" lon="10.331501813914365"><ele>36.5</ele><time>2026-05-01T07:23:11.999Z</time></trkpt><trkpt lat="44.84149387314014" lon="10.331888395837737"><ele>36.0</ele><time>2026-05-01T07:23:12.999Z</time></trkpt><trkpt lat="44.841406027181705" lon="10.332276194784244"><ele>37.0</ele><time>2026-05-01T07:23:13.999Z</time></trkpt><trkpt lat="44.84131430087452" lon="10.332668188020639"><ele>38.0</ele><time>2026-05-01T07:23:14.999Z</time></trkpt><trkpt lat="44.84122054455963" lon="10.333063786749555"><ele>39.0</ele><time>2026-05-01T07:23:15.999Z</time></trkpt><trkpt lat="44.84112467489972" lon="10.333464351983864"><ele>40.0</ele><time>2026-05-01T07:23:16.999Z</time></trkpt><trkpt lat="44.84102951182918" lon="10.333866842039143"><ele>38.5</ele><time>2026-05-01T07:23:17.999Z</time></trkpt><trkpt lat="44.84093392473906" lon="10.33427148363857"><ele>37.0</ele><time>2026-05-01T07:23:18.999Z</time></trkpt><trkpt lat="44.84083766462263" lon="10.334674833483533"><ele>37.0</ele><time>2026-05-01T07:23:19.999Z</time></trkpt><trkpt lat="44.84074027229652" lon="10.33507764122368"><ele>37.0</ele><time>2026-05-01T07:23:20.999Z</time></trkpt><trkpt lat="44.84064161072761" lon="10.335481600940868"><ele>37.0</ele><time>2026-05-01T07:23:21.999Z</time></trkpt><trkpt lat="44.84054421732655" lon="10.335884542003235"><ele>37.0</ele><time>2026-05-01T07:23:22.999Z</time></trkpt><trkpt lat="44.84044610572593" lon="10.336287509432243"><ele>37.5</ele><time>2026-05-01T07:23:23.999Z</time></trkpt><trkpt lat="44.840348524600316" lon="10.336690602202024"><ele>38.0</ele><time>2026-05-01T07:23:24.999Z</time></trkpt><trkpt lat="44.84025014476041" lon="10.337093348408256"><ele>38.0</ele><time>2026-05-01T07:23:25.999Z</time></trkpt><trkpt lat="44.840151768045786" lon="10.337493347941562"><ele>38.0</ele><time>2026-05-01T07:23:26.999Z</time></trkpt><trkpt lat="44.84005280698413" lon="10.337895185963232"><ele>38.0</ele><time>2026-05-01T07:23:27.999Z</time></trkpt><trkpt lat="44.839955569791" lon="10.33829830377901"><ele>38.0</ele><time>2026-05-01T07:23:28.999Z</time></trkpt><trkpt lat="44.83986068296773" lon="10.338697093698995"><ele>39.5</ele><time>2026-05-01T07:23:29.999Z</time></trkpt><trkpt lat="44.839766024781454" lon="10.339096118890486"><ele>41.0</ele><time>2026-05-01T07:23:30.999Z</time></trkpt><trkpt lat="44.83967057458756" lon="10.339491932382503"><ele>40.5</ele><time>2026-05-01T07:23:31.999Z</time></trkpt><trkpt lat="44.839575786582536" lon="10.339888869056098"><ele>40.0</ele><time>2026-05-01T07:23:32.999Z</time></trkpt><trkpt lat="44.839482471589754" lon="10.340282768072475"><ele>40.0</ele><time>2026-05-01T07:23:33.999Z</time></trkpt><trkpt lat="44.83938710106057" lon="10.340679387970681"><ele>40.0</ele><time>2026-05-01T07:23:34.999Z</time></trkpt><trkpt lat="44.839294844173715" lon="10.341074871255039"><ele>38.5</ele><time>2026-05-01T07:23:35.999Z</time></trkpt><trkpt lat="44.839197286822824" lon="10.341470063254967"><ele>37.0</ele><time>2026-05-01T07:23:36.999Z</time></trkpt><trkpt lat="44.83910350935196" lon="10.341865294700744"><ele>36.5</ele><time>2026-05-01T07:23:37.999Z</time></trkpt><trkpt lat="44.83900952853783" lon="10.342256961281224"><ele>36.0</ele><time>2026-05-01T07:23:38.999Z</time></trkpt><trkpt lat="44.83891376582916" lon="10.342649758054531"><ele>36.0</ele><time>2026-05-01T07:23:39.999Z</time></trkpt><trkpt lat="44.83881687108627" lon="10.343045273401433"><ele>36.0</ele><time>2026-05-01T07:23:40.999Z</time></trkpt><trkpt lat="44.83872457929755" lon="10.343438508505844"><ele>36.5</ele><time>2026-05-01T07:23:41.999Z</time></trkpt><trkpt lat="44.83863281085585" lon="10.343832141828788"><ele>37.0</ele><time>2026-05-01T07:23:42.999Z</time></trkpt><trkpt lat="44.838540695308815" lon="10.344223832924149"><ele>37.0</ele><time>2026-05-01T07:23:43.999Z</time></trkpt><trkpt lat="44.838450172581126" lon="10.344616253775289"><ele>37.0</ele><time>2026-05-01T07:23:44.999Z</time></trkpt><trkpt lat="44.838356924475285" lon="10.345011360818486"><ele>37.5</ele><time>2026-05-01T07:23:45.999Z</time></trkpt><trkpt lat="44.83826302974107" lon="10.345405727142827"><ele>38.0</ele><time>2026-05-01T07:23:46.999Z</time></trkpt><trkpt lat="44.83816796956406" lon="10.345798525589418"><ele>38.5</ele><time>2026-05-01T07:23:47.999Z</time></trkpt><trkpt lat="44.838076205840935" lon="10.346190780422448"><ele>39.0</ele><time>2026-05-01T07:23:48.999Z</time></trkpt><trkpt lat="44.837988751545076" lon="10.346582179018442"><ele>39.0</ele><time>2026-05-01T07:23:49.999Z</time></trkpt><trkpt lat="44.83790230270022" lon="10.34697060619854"><ele>39.0</ele><time>2026-05-01T07:23:50.999Z</time></trkpt><trkpt lat="44.83781415661068" lon="10.347355504845051"><ele>39.0</ele><time>2026-05-01T07:23:51.999Z</time></trkpt><trkpt lat="44.83772308840908" lon="10.347739599628738"><ele>39.0</ele><time>2026-05-01T07:23:52.999Z</time></trkpt><trkpt lat="44.837629985926554" lon="10.348120721648494"><ele>40.0</ele><time>2026-05-01T07:23:53.999Z</time></trkpt><trkpt lat="44.837535383590236" lon="10.348498810850653"><ele>41.0</ele><time>2026-05-01T07:23:54.999Z</time></trkpt><trkpt lat="44.83743648550415" lon="10.348877507103412"><ele>41.0</ele><time>2026-05-01T07:23:55.999Z</time></trkpt><trkpt lat="44.83733249966214" lon="10.349257548526975"><ele>41.0</ele><time>2026-05-01T07:23:56.999Z</time></trkpt><trkpt lat="44.83722746043032" lon="10.349630776510061"><ele>41.0</ele><time>2026-05-01T07:23:57.999Z</time></trkpt><trkpt lat="44.837119467597255" lon="10.350001276523805"><ele>41.0</ele><time>2026-05-01T07:23:58.999Z</time></trkpt><trkpt lat="44.8370096808142" lon="10.350375795507"><ele>40.0</ele><time>2026-05-01T07:23:59.999Z</time></trkpt><trkpt lat="44.836897976653056" lon="10.35075447540679"><ele>39.0</ele><time>2026-05-01T07:24:00.999Z</time></trkpt><trkpt lat="44.83678484638361" lon="10.351129669038654"><ele>38.5</ele><time>2026-05-01T07:24:01.999Z</time></trkpt><trkpt lat="44.836669499522706" lon="10.35150626109161"><ele>38.0</ele><time>2026-05-01T07:24:02.999Z</time></trkpt><trkpt lat="44.83655240484279" lon="10.351884042779382"><ele>37.0</ele><time>2026-05-01T07:24:03.999Z</time></trkpt><trkpt lat="44.83643557613219" lon="10.35226326557971"><ele>36.0</ele><time>2026-05-01T07:24:04.999Z</time></trkpt><trkpt lat="44.83631792302838" lon="10.352640876290774"><ele>36.0</ele><time>2026-05-01T07:24:05.999Z</time></trkpt><trkpt lat="44.836197174549234" lon="10.353023997511288"><ele>36.0</ele><time>2026-05-01T07:24:06.999Z</time></trkpt><trkpt lat="44.83607578291955" lon="10.353405479167185"><ele>36.0</ele><time>2026-05-01T07:24:07.999Z</time></trkpt><trkpt lat="44.83595431458027" lon="10.353788861918408"><ele>36.0</ele><time>2026-05-01T07:24:08.999Z</time></trkpt><trkpt lat="44.835828197371185" lon="10.35416707966331"><ele>36.0</ele><time>2026-05-01T07:24:10Z</time></trkpt><trkpt lat="44.83569488429758" lon="10.354541496792196"><ele>36.0</ele><time>2026-05-01T07:24:11Z</time></trkpt><trkpt lat="44.83556033324382" lon="10.354911809919466"><ele>36.0</ele><time>2026-05-01T07:24:12Z</time></trkpt><trkpt lat="44.83542554685738" lon="10.35527925252662"><ele>36.0</ele><time>2026-05-01T07:24:13Z</time></trkpt><trkpt lat="44.83528773737736" lon="10.355643759313402"><ele>35.5</ele><time>2026-05-01T07:24:14Z</time></trkpt><trkpt lat="44.83514738053118" lon="10.356000775448098"><ele>35.0</ele><time>2026-05-01T07:24:15Z</time></trkpt><trkpt lat="44.83500464439913" lon="10.356357100124313"><ele>36.0</ele><time>2026-05-01T07:24:16Z</time></trkpt><trkpt lat="44.83486535877688" lon="10.356714941468455"><ele>37.0</ele><time>2026-05-01T07:24:17Z</time></trkpt><trkpt lat="44.83472842728993" lon="10.357073953555503"><ele>36.0</ele><time>2026-05-01T07:24:18Z</time></trkpt><trkpt lat="44.834590889849586" lon="10.357436386713951"><ele>35.0</ele><time>2026-05-01T07:24:19Z</time></trkpt><trkpt lat="44.83445367443388" lon="10.35779905397625"><ele>34.5</ele><time>2026-05-01T07:24:20Z</time></trkpt><trkpt lat="44.83431718639975" lon="10.35816243187642"><ele>34.0</ele><time>2026-05-01T07:24:21Z</time></trkpt><trkpt lat="44.834182637392445" lon="10.35852689418773"><ele>36.0</ele><time>2026-05-01T07:24:22Z</time></trkpt><trkpt lat="44.83404882627253" lon="10.358893561410449"><ele>38.0</ele><time>2026-05-01T07:24:23Z</time></trkpt><trkpt lat="44.833914412019055" lon="10.359261124660392"><ele>38.0</ele><time>2026-05-01T07:24:24Z</time></trkpt><trkpt lat="44.8337804166131" lon="10.359628325962401"><ele>38.0</ele><time>2026-05-01T07:24:25Z</time></trkpt><trkpt lat="44.83364431202195" lon="10.359995105396338"><ele>38.0</ele><time>2026-05-01T07:24:26Z</time></trkpt><trkpt lat="44.83350763988571" lon="10.360361047302943"><ele>38.0</ele><time>2026-05-01T07:24:27Z</time></trkpt><trkpt lat="44.833373011114354" lon="10.360725146576156"><ele>38.0</ele><time>2026-05-01T07:24:28Z</time></trkpt><trkpt lat="44.83323813295017" lon="10.361092031784386"><ele>38.0</ele><time>2026-05-01T07:24:29Z</time></trkpt><trkpt lat="44.833102284886756" lon="10.361454228434297"><ele>36.0</ele><time>2026-05-01T07:24:30Z</time></trkpt><trkpt lat="44.83296802727936" lon="10.361813381651993"><ele>34.0</ele><time>2026-05-01T07:24:31Z</time></trkpt><trkpt lat="44.83283591953349" lon="10.362168980481025"><ele>34.5</ele><time>2026-05-01T07:24:32Z</time></trkpt><trkpt lat="44.832705796039036" lon="10.362524844839207"><ele>35.0</ele><time>2026-05-01T07:24:33Z</time></trkpt><trkpt lat="44.83257643020804" lon="10.36287962984665"><ele>34.5</ele><time>2026-05-01T07:24:34Z</time></trkpt><trkpt lat="44.83244719726769" lon="10.363232058243536"><ele>34.0</ele><time>2026-05-01T07:24:35Z</time></trkpt><trkpt lat="44.832317036214064" lon="10.36358690068505"><ele>34.0</ele><time>2026-05-01T07:24:36Z</time></trkpt><trkpt lat="44.83218567635786" lon="10.363943767187935"><ele>34.0</ele><time>2026-05-01T07:24:37Z</time></trkpt><trkpt lat="44.832052817647046" lon="10.364300512222941"><ele>34.0</ele><time>2026-05-01T07:24:38Z</time></trkpt><trkpt lat="44.83191931616224" lon="10.364660301843545"><ele>34.0</ele><time>2026-05-01T07:24:39Z</time></trkpt><trkpt lat="44.83178530438958" lon="10.365017131212841"><ele>35.0</ele><time>2026-05-01T07:24:40Z</time></trkpt><trkpt lat="44.831654589170306" lon="10.365369649204377"><ele>36.0</ele><time>2026-05-01T07:24:41Z</time></trkpt><trkpt lat="44.83152441406261" lon="10.36572348906823"><ele>35.0</ele><time>2026-05-01T07:24:42Z</time></trkpt><trkpt lat="44.83139221968629" lon="10.366081354523512"><ele>34.0</ele><time>2026-05-01T07:24:43Z</time></trkpt><trkpt lat="44.83125784126444" lon="10.366441285899933"><ele>34.0</ele><time>2026-05-01T07:24:44Z</time></trkpt><trkpt lat="44.831123142040916" lon="10.366803596780132"><ele>34.0</ele><time>2026-05-01T07:24:45Z</time></trkpt><trkpt lat="44.83098810000104" lon="10.367166655087637"><ele>35.0</ele><time>2026-05-01T07:24:46Z</time></trkpt><trkpt lat="44.830853097342306" lon="10.367531309486111"><ele>36.0</ele><time>2026-05-01T07:24:47Z</time></trkpt><trkpt lat="44.8307186719549" lon="10.367898019103237"><ele>37.0</ele><time>2026-05-01T07:24:48Z</time></trkpt><trkpt lat="44.830583129772194" lon="10.368266167781744"><ele>38.0</ele><time>2026-05-01T07:24:49Z</time></trkpt><trkpt lat="44.83044641083603" lon="10.368632752335511"><ele>38.0</ele><time>2026-05-01T07:24:50Z</time></trkpt><trkpt lat="44.83030856360326" lon="10.369003427964016"><ele>38.0</ele><time>2026-05-01T07:24:51Z</time></trkpt><trkpt lat="44.8301713245618" lon="10.369374195786449"><ele>37.0</ele><time>2026-05-01T07:24:52Z</time></trkpt><trkpt lat="44.83003541999823" lon="10.369745833838072"><ele>36.0</ele><time>2026-05-01T07:24:53Z</time></trkpt><trkpt lat="44.82989937882091" lon="10.370118464395041"><ele>36.0</ele><time>2026-05-01T07:24:54Z</time></trkpt><trkpt lat="44.82976198119386" lon="10.370492430837556"><ele>36.0</ele><time>2026-05-01T07:24:55Z</time></trkpt><trkpt lat="44.82962407219085" lon="10.370863553469444"><ele>37.0</ele><time>2026-05-01T07:24:56Z</time></trkpt><trkpt lat="44.82948573436271" lon="10.371233591070817"><ele>38.0</ele><time>2026-05-01T07:24:57Z</time></trkpt><trkpt lat="44.82934782652097" lon="10.371601997420756"><ele>37.5</ele><time>2026-05-01T07:24:58Z</time></trkpt><trkpt lat="44.82920897740604" lon="10.371970752181598"><ele>37.0</ele><time>2026-05-01T07:24:59Z</time></trkpt><trkpt lat="44.82907200445895" lon="10.372334392113062"><ele>36.5</ele><time>2026-05-01T07:25:00Z</time></trkpt><trkpt lat="44.828937473438664" lon="10.372697428382683"><ele>36.0</ele><time>2026-05-01T07:25:01Z</time></trkpt><trkpt lat="44.82880418989889" lon="10.373062161861691"><ele>36.0</ele><time>2026-05-01T07:25:02Z</time></trkpt><trkpt lat="44.82867106871799" lon="10.373426196424234"><ele>36.0</ele><time>2026-05-01T07:25:03Z</time></trkpt><trkpt lat="44.82853769316457" lon="10.373788190031295"><ele>36.5</ele><time>2026-05-01T07:25:04Z</time></trkpt><trkpt lat="44.828405723773564" lon="10.374150219264902"><ele>37.0</ele><time>2026-05-01T07:25:05Z</time></trkpt><trkpt lat="44.8282746084674" lon="10.374506364952493"><ele>37.0</ele><time>2026-05-01T07:25:06Z</time></trkpt><trkpt lat="44.82814311316254" lon="10.374863419626635"><ele>37.0</ele><time>2026-05-01T07:25:06.999Z</time></trkpt><trkpt lat="44.82801192123896" lon="10.37522011208325"><ele>37.0</ele><time>2026-05-01T07:25:07.999Z</time></trkpt><trkpt lat="44.82788334037176" lon="10.375570984719355"><ele>37.0</ele><time>2026-05-01T07:25:08.999Z</time></trkpt><trkpt lat="44.82775340107419" lon="10.375922917853952"><ele>37.5</ele><time>2026-05-01T07:25:09.999Z</time></trkpt><trkpt lat="44.8276214016251" lon="10.376277504470925"><ele>38.0</ele><time>2026-05-01T07:25:10.999Z</time></trkpt><trkpt lat="44.8274887644283" lon="10.376632100197313"><ele>38.0</ele><time>2026-05-01T07:25:11.999Z</time></trkpt><trkpt lat="44.827356112219235" lon="10.376986506337152"><ele>38.0</ele><time>2026-05-01T07:25:12.999Z</time></trkpt><trkpt lat="44.82722527748525" lon="10.377339892599474"><ele>38.0</ele><time>2026-05-01T07:25:13.999Z</time></trkpt><trkpt lat="44.827096453069736" lon="10.377693336478433"><ele>38.0</ele><time>2026-05-01T07:25:14.999Z</time></trkpt><trkpt lat="44.826966200716505" lon="10.378048597035779"><ele>38.0</ele><time>2026-05-01T07:25:15.999Z</time></trkpt><trkpt lat="44.82683377714147" lon="10.378407437327688"><ele>38.0</ele><time>2026-05-01T07:25:16.999Z</time></trkpt><trkpt lat="44.826700488115264" lon="10.37876746528223"><ele>38.5</ele><time>2026-05-01T07:25:17.999Z</time></trkpt><trkpt lat="44.82656757150541" lon="10.379125066616943"><ele>39.0</ele><time>2026-05-01T07:25:18.999Z</time></trkpt><trkpt lat="44.826434314943285" lon="10.37948121663571"><ele>39.5</ele><time>2026-05-01T07:25:19.999Z</time></trkpt><trkpt lat="44.82629951724187" lon="10.379840827394537"><ele>40.0</ele><time>2026-05-01T07:25:20.999Z</time></trkpt><trkpt lat="44.82616615380932" lon="10.380198491100808"><ele>39.5</ele><time>2026-05-01T07:25:21.999Z</time></trkpt><trkpt lat="44.826032695278506" lon="10.380559018181444"><ele>39.0</ele><time>2026-05-01T07:25:22.999Z</time></trkpt><trkpt lat="44.825899214916866" lon="10.380918724225545"><ele>39.0</ele><time>2026-05-01T07:25:23.999Z</time></trkpt><trkpt lat="44.82576556097875" lon="10.38127837913004"><ele>39.0</ele><time>2026-05-01T07:25:24.999Z</time></trkpt><trkpt lat="44.825634313359444" lon="10.38163539461101"><ele>39.0</ele><time>2026-05-01T07:25:25.999Z</time></trkpt><trkpt lat="44.82550782162462" lon="10.381984766920732"><ele>39.0</ele><time>2026-05-01T07:25:26.999Z</time></trkpt><trkpt lat="44.825381412358645" lon="10.38233153482618"><ele>39.0</ele><time>2026-05-01T07:25:27.999Z</time></trkpt><trkpt lat="44.82525490895389" lon="10.382674412614191"><ele>39.0</ele><time>2026-05-01T07:25:28.999Z</time></trkpt><trkpt lat="44.82513401417418" lon="10.383013911977564"><ele>40.0</ele><time>2026-05-01T07:25:29.999Z</time></trkpt><trkpt lat="44.825018678090515" lon="10.383352058098653"><ele>41.0</ele><time>2026-05-01T07:25:30.999Z</time></trkpt><trkpt lat="44.8249003954272" lon="10.383690810395631"><ele>41.0</ele><time>2026-05-01T07:25:31.999Z</time></trkpt><trkpt lat="44.82477985933694" lon="10.384025033369703"><ele>41.0</ele><time>2026-05-01T07:25:32.999Z</time></trkpt><trkpt lat="44.824657061364434" lon="10.3843590688517"><ele>42.0</ele><time>2026-05-01T07:25:33.999Z</time></trkpt><trkpt lat="44.82453266911732" lon="10.384694701175954"><ele>43.0</ele><time>2026-05-01T07:25:34.999Z</time></trkpt><trkpt lat="44.82440664793405" lon="10.385029673386198"><ele>41.5</ele><time>2026-05-01T07:25:35.999Z</time></trkpt><trkpt lat="44.824282387961816" lon="10.385364515984119"><ele>40.0</ele><time>2026-05-01T07:25:36.999Z</time></trkpt><trkpt lat="44.82415803912577" lon="10.385702270234548"><ele>40.0</ele><time>2026-05-01T07:25:37.999Z</time></trkpt><trkpt lat="44.824033667543894" lon="10.386042321885913"><ele>40.0</ele><time>2026-05-01T07:25:38.999Z</time></trkpt><trkpt lat="44.82390981889902" lon="10.386377321540888"><ele>40.0</ele><time>2026-05-01T07:25:39.999Z</time></trkpt><trkpt lat="44.82378282443579" lon="10.386712451321989"><ele>40.0</ele><time>2026-05-01T07:25:40.999Z</time></trkpt><trkpt lat="44.82365320333002" lon="10.387051366238923"><ele>39.0</ele><time>2026-05-01T07:25:41.999Z</time></trkpt><trkpt lat="44.82352117340562" lon="10.387391316067658"><ele>38.0</ele><time>2026-05-01T07:25:42.999Z</time></trkpt><trkpt lat="44.8233844883125" lon="10.387731162042373"><ele>37.0</ele><time>2026-05-01T07:25:43.999Z</time></trkpt><trkpt lat="44.82324412139173" lon="10.388068912700392"><ele>36.0</ele><time>2026-05-01T07:25:44.999Z</time></trkpt><trkpt lat="44.823102347192176" lon="10.388410728066782"><ele>36.0</ele><time>2026-05-01T07:25:45.999Z</time></trkpt><trkpt lat="44.82296022922868" lon="10.38875608118017"><ele>36.0</ele><time>2026-05-01T07:25:46.999Z</time></trkpt><trkpt lat="44.82282206347687" lon="10.389103341239874"><ele>36.0</ele><time>2026-05-01T07:25:47.999Z</time></trkpt><trkpt lat="44.82268663749098" lon="10.389452269192489"><ele>36.0</ele><time>2026-05-01T07:25:48.999Z</time></trkpt><trkpt lat="44.822549725100416" lon="10.389809183746932"><ele>37.0</ele><time>2026-05-01T07:25:49.999Z</time></trkpt><trkpt lat="44.82241518738658" lon="10.390166621960605"><ele>38.0</ele><time>2026-05-01T07:25:50.999Z</time></trkpt><trkpt lat="44.82228467546236" lon="10.390528397460391"><ele>38.0</ele><time>2026-05-01T07:25:51.999Z</time></trkpt><trkpt lat="44.822155922960846" lon="10.390890304440296"><ele>38.0</ele><time>2026-05-01T07:25:52.999Z</time></trkpt><trkpt lat="44.82202117451356" lon="10.391243337937595"><ele>38.5</ele><time>2026-05-01T07:25:53.999Z</time></trkpt><trkpt lat="44.821890001526114" lon="10.391601536117587"><ele>39.0</ele><time>2026-05-01T07:25:54.999Z</time></trkpt><trkpt lat="44.82175796850953" lon="10.391954338663254"><ele>38.5</ele><time>2026-05-01T07:25:55.999Z</time></trkpt><trkpt lat="44.82162743248569" lon="10.392304444224308"><ele>38.0</ele><time>2026-05-01T07:25:56.999Z</time></trkpt><trkpt lat="44.82149842041466" lon="10.392656712683275"><ele>36.5</ele><time>2026-05-01T07:25:57.999Z</time></trkpt><trkpt lat="44.82136949572668" lon="10.393011112644077"><ele>35.0</ele><time>2026-05-01T07:25:58.999Z</time></trkpt><trkpt lat="44.82124270156276" lon="10.393365763746498"><ele>35.0</ele><time>2026-05-01T07:25:59.999Z</time></trkpt><trkpt lat="44.82111749262566" lon="10.3937232709253"><ele>35.0</ele><time>2026-05-01T07:26:00.999Z</time></trkpt><trkpt lat="44.82098935823657" lon="10.394078770908783"><ele>35.0</ele><time>2026-05-01T07:26:01.999Z</time></trkpt><trkpt lat="44.82085915037908" lon="10.394435883466414"><ele>35.0</ele><time>2026-05-01T07:26:02.999Z</time></trkpt><trkpt lat="44.8207273536163" lon="10.394793516902002"><ele>35.0</ele><time>2026-05-01T07:26:03.999Z</time></trkpt><trkpt lat="44.820595484553955" lon="10.395146012844169"><ele>35.0</ele><time>2026-05-01T07:26:04.999Z</time></trkpt><trkpt lat="44.82046348660206" lon="10.395499086114826"><ele>34.5</ele><time>2026-05-01T07:26:05.999Z</time></trkpt><trkpt lat="44.82033220928434" lon="10.39585452184585"><ele>34.0</ele><time>2026-05-01T07:26:06.999Z</time></trkpt><trkpt lat="44.820201271547965" lon="10.396208135141551"><ele>35.0</ele><time>2026-05-01T07:26:07.999Z</time></trkpt><trkpt lat="44.82006952514554" lon="10.396559882751788"><ele>36.0</ele><time>2026-05-01T07:26:08.999Z</time></trkpt><trkpt lat="44.81993760220705" lon="10.396910181750812"><ele>36.0</ele><time>2026-05-01T07:26:09.999Z</time></trkpt><trkpt lat="44.81980681026041" lon="10.397257717881509"><ele>36.0</ele><time>2026-05-01T07:26:10.999Z</time></trkpt><trkpt lat="44.81967592549704" lon="10.397608861034259"><ele>36.0</ele><time>2026-05-01T07:26:11.999Z</time></trkpt><trkpt lat="44.81954554067188" lon="10.397960416943823"><ele>36.0</ele><time>2026-05-01T07:26:12.999Z</time></trkpt><trkpt lat="44.81941504538883" lon="10.398311902933356"><ele>36.0</ele><time>2026-05-01T07:26:13.999Z</time></trkpt><trkpt lat="44.81928543608291" lon="10.398664717126076"><ele>36.0</ele><time>2026-05-01T07:26:15Z</time></trkpt><trkpt lat="44.81915827347401" lon="10.399021257553898"><ele>36.0</ele><time>2026-05-01T07:26:16Z</time></trkpt><trkpt lat="44.81903321246985" lon="10.399379927111893"><ele>36.0</ele><time>2026-05-01T07:26:17Z</time></trkpt><trkpt lat="44.81890912694743" lon="10.39973824329789"><ele>35.5</ele><time>2026-05-01T07:26:18Z</time></trkpt><trkpt lat="44.81878399265732" lon="10.400097034951727"><ele>35.0</ele><time>2026-05-01T07:26:19Z</time></trkpt><trkpt lat="44.81865499770236" lon="10.400455215484095"><ele>35.0</ele><time>2026-05-01T07:26:20Z</time></trkpt><trkpt lat="44.81852554935605" lon="10.400808251204637"><ele>35.0</ele><time>2026-05-01T07:26:21Z</time></trkpt><trkpt lat="44.81839514572012" lon="10.401159083484393"><ele>34.0</ele><time>2026-05-01T07:26:22Z</time></trkpt><trkpt lat="44.81826359583943" lon="10.401513684705241"><ele>33.0</ele><time>2026-05-01T07:26:23Z</time></trkpt><trkpt lat="44.81813377815901" lon="10.40187131991302"><ele>34.5</ele><time>2026-05-01T07:26:24Z</time></trkpt><trkpt lat="44.81800379688575" lon="10.402229354987483"><ele>36.0</ele><time>2026-05-01T07:26:25Z</time></trkpt><trkpt lat="44.81787318471723" lon="10.402585764283224"><ele>36.0</ele><time>2026-05-01T07:26:26Z</time></trkpt><trkpt lat="44.81773920165295" lon="10.402937591358844"><ele>36.0</ele><time>2026-05-01T07:26:27Z</time></trkpt><trkpt lat="44.8176016446619" lon="10.40329125661594"><ele>35.0</ele><time>2026-05-01T07:26:28Z</time></trkpt><trkpt lat="44.817460654419165" lon="10.40363906678671"><ele>34.0</ele><time>2026-05-01T07:26:29Z</time></trkpt><trkpt lat="44.817320876731124" lon="10.403984670823036"><ele>34.0</ele><time>2026-05-01T07:26:30Z</time></trkpt><trkpt lat="44.81718191104434" lon="10.404333876021768"><ele>34.0</ele><time>2026-05-01T07:26:31Z</time></trkpt><trkpt lat="44.817048276601696" lon="10.40468418714333"><ele>33.5</ele><time>2026-05-01T07:26:32Z</time></trkpt><trkpt lat="44.81691775304885" lon="10.405034646743003"><ele>33.0</ele><time>2026-05-01T07:26:33Z</time></trkpt><trkpt lat="44.81678832191701" lon="10.405386006394941"><ele>34.0</ele><time>2026-05-01T07:26:34Z</time></trkpt><trkpt lat="44.816659524408514" lon="10.405738345029564"><ele>35.0</ele><time>2026-05-01T07:26:35Z</time></trkpt><trkpt lat="44.8165315974754" lon="10.406090836430245"><ele>35.0</ele><time>2026-05-01T07:26:36Z</time></trkpt><trkpt lat="44.81640328341954" lon="10.406440653760535"><ele>35.0</ele><time>2026-05-01T07:26:37Z</time></trkpt><trkpt lat="44.81627340762617" lon="10.40679083351512"><ele>35.0</ele><time>2026-05-01T07:26:38Z</time></trkpt><trkpt lat="44.816141542083685" lon="10.407140189336964"><ele>35.0</ele><time>2026-05-01T07:26:39Z</time></trkpt><trkpt lat="44.81600979751652" lon="10.407490970375196"><ele>35.0</ele><time>2026-05-01T07:26:40Z</time></trkpt><trkpt lat="44.81587774155119" lon="10.407841149962119"><ele>35.0</ele><time>2026-05-01T07:26:41Z</time></trkpt><trkpt lat="44.81574422468149" lon="10.408196958386283"><ele>35.0</ele><time>2026-05-01T07:26:42Z</time></trkpt><trkpt lat="44.81561367917814" lon="10.408556741122402"><ele>35.0</ele><time>2026-05-01T07:26:43Z</time></trkpt><trkpt lat="44.81548314594547" lon="10.408913800735247"><ele>35.0</ele><time>2026-05-01T07:26:44Z</time></trkpt><trkpt lat="44.81535086063238" lon="10.40927366800827"><ele>35.0</ele><time>2026-05-01T07:26:45Z</time></trkpt><trkpt lat="44.81521764896299" lon="10.40963482889178"><ele>36.5</ele><time>2026-05-01T07:26:46Z</time></trkpt><trkpt lat="44.81508525614789" lon="10.409998443668819"><ele>38.0</ele><time>2026-05-01T07:26:47Z</time></trkpt><trkpt lat="44.81495034859732" lon="10.410362250028697"><ele>37.5</ele><time>2026-05-01T07:26:48Z</time></trkpt><trkpt lat="44.81481385126958" lon="10.410726923780574"><ele>37.0</ele><time>2026-05-01T07:26:49Z</time></trkpt><trkpt lat="44.81467687502657" lon="10.411090324078407"><ele>36.5</ele><time>2026-05-01T07:26:50Z</time></trkpt><trkpt lat="44.81454145976867" lon="10.411453936246831"><ele>36.0</ele><time>2026-05-01T07:26:51Z</time></trkpt><trkpt lat="44.81440694339563" lon="10.411818486923973"><ele>37.0</ele><time>2026-05-01T07:26:52Z</time></trkpt><trkpt lat="44.81427372021519" lon="10.412182936917672"><ele>38.0</ele><time>2026-05-01T07:26:53Z</time></trkpt><trkpt lat="44.81414034071538" lon="10.412550636429852"><ele>38.0</ele><time>2026-05-01T07:26:54Z</time></trkpt><trkpt lat="44.81400733741498" lon="10.412916926868114"><ele>38.0</ele><time>2026-05-01T07:26:55Z</time></trkpt><trkpt lat="44.81387494957088" lon="10.413279119073932"><ele>38.0</ele><time>2026-05-01T07:26:56Z</time></trkpt><trkpt lat="44.81374352731062" lon="10.41363773008526"><ele>38.0</ele><time>2026-05-01T07:26:57Z</time></trkpt><trkpt lat="44.813613738583626" lon="10.413994065609028"><ele>38.0</ele><time>2026-05-01T07:26:58Z</time></trkpt><trkpt lat="44.813486669224595" lon="10.414342206875169"><ele>38.0</ele><time>2026-05-01T07:26:59Z</time></trkpt><trkpt lat="44.81336356196405" lon="10.41468447115643"><ele>38.0</ele><time>2026-05-01T07:27:00Z</time></trkpt><trkpt lat="44.813243769503046" lon="10.415025351457215"><ele>38.0</ele><time>2026-05-01T07:27:01Z</time></trkpt><trkpt lat="44.81312472898125" lon="10.415366172939832"><ele>38.0</ele><time>2026-05-01T07:27:02Z</time></trkpt><trkpt lat="44.81300530491088" lon="10.41570845277286"><ele>38.0</ele><time>2026-05-01T07:27:03Z</time></trkpt><trkpt lat="44.812881954654216" lon="10.41605135913564"><ele>37.0</ele><time>2026-05-01T07:27:04Z</time></trkpt><trkpt lat="44.81275549920449" lon="10.416395259470466"><ele>36.0</ele><time>2026-05-01T07:27:05Z</time></trkpt><trkpt lat="44.81262771935331" lon="10.416740838965215"><ele>35.5</ele><time>2026-05-01T07:27:06Z</time></trkpt><trkpt lat="44.812499119659506" lon="10.417082417455246"><ele>35.0</ele><time>2026-05-01T07:27:07Z</time></trkpt><trkpt lat="44.81237032743228" lon="10.417422594133106"><ele>35.0</ele><time>2026-05-01T07:27:07.999Z</time></trkpt><trkpt lat="44.81224351970209" lon="10.417761642319928"><ele>35.0</ele><time>2026-05-01T07:27:08.999Z</time></trkpt><trkpt lat="44.81211837494207" lon="10.418097717724127"><ele>35.5</ele><time>2026-05-01T07:27:09.999Z</time></trkpt><trkpt lat="44.81199398089375" lon="10.418433338999442"><ele>36.0</ele><time>2026-05-01T07:27:10.999Z</time></trkpt><trkpt lat="44.81186849543526" lon="10.41877493973423"><ele>36.5</ele><time>2026-05-01T07:27:11.999Z</time></trkpt><trkpt lat="44.81174147528706" lon="10.419121526348876"><ele>37.0</ele><time>2026-05-01T07:27:12.999Z</time></trkpt><trkpt lat="44.81161520206359" lon="10.41946733031161"><ele>37.0</ele><time>2026-05-01T07:27:13.999Z</time></trkpt><trkpt lat="44.81148760431011" lon="10.419806688775095"><ele>37.0</ele><time>2026-05-01T07:27:14.999Z</time></trkpt><trkpt lat="44.81134730262772" lon="10.420144599028388"><ele>37.5</ele><time>2026-05-01T07:27:15.999Z</time></trkpt><trkpt lat="44.81120130343118" lon="10.420495724262343"><ele>38.0</ele><time>2026-05-01T07:27:16.999Z</time></trkpt><trkpt lat="44.8110630905735" lon="10.420857598921316"><ele>37.5</ele><time>2026-05-01T07:27:17.999Z</time></trkpt><trkpt lat="44.81093030398708" lon="10.421223653786232"><ele>37.0</ele><time>2026-05-01T07:27:18.999Z</time></trkpt><trkpt lat="44.810795504779215" lon="10.421590632787042"><ele>36.5</ele><time>2026-05-01T07:27:19.999Z</time></trkpt><trkpt lat="44.81066801864558" lon="10.421960915189286"><ele>36.0</ele><time>2026-05-01T07:27:20.999Z</time></trkpt><trkpt lat="44.81054429870801" lon="10.422335675621532"><ele>35.5</ele><time>2026-05-01T07:27:21.999Z</time></trkpt><trkpt lat="44.81041365033494" lon="10.422699527240994"><ele>35.0</ele><time>2026-05-01T07:27:22.999Z</time></trkpt><trkpt lat="44.810283650100914" lon="10.423055739952613"><ele>34.5</ele><time>2026-05-01T07:27:23.999Z</time></trkpt><trkpt lat="44.810157163387586" lon="10.423408887634535"><ele>34.0</ele><time>2026-05-01T07:27:24.999Z</time></trkpt><trkpt lat="44.8100270482325" lon="10.423760537678561"><ele>34.5</ele><time>2026-05-01T07:27:25.999Z</time></trkpt><trkpt lat="44.80989550030593" lon="10.424112351353983"><ele>35.0</ele><time>2026-05-01T07:27:26.999Z</time></trkpt><trkpt lat="44.80976356540558" lon="10.424462997514121"><ele>35.0</ele><time>2026-05-01T07:27:27.999Z</time></trkpt><trkpt lat="44.8096316548769" lon="10.424816523325598"><ele>35.0</ele><time>2026-05-01T07:27:28.999Z</time></trkpt><trkpt lat="44.809497177605785" lon="10.425172210599314"><ele>36.5</ele><time>2026-05-01T07:27:29.999Z</time></trkpt><trkpt lat="44.80936690909172" lon="10.42553118684341"><ele>38.0</ele><time>2026-05-01T07:27:30.999Z</time></trkpt><trkpt lat="44.80924078626402" lon="10.425896763588016"><ele>38.5</ele><time>2026-05-01T07:27:31.999Z</time></trkpt><trkpt lat="44.809111590759755" lon="10.426263090604214"><ele>39.0</ele><time>2026-05-01T07:27:32.999Z</time></trkpt><trkpt lat="44.80897890449081" lon="10.426629974902953"><ele>39.0</ele><time>2026-05-01T07:27:33.999Z</time></trkpt><trkpt lat="44.80884465128862" lon="10.426995345987665"><ele>39.0</ele><time>2026-05-01T07:27:34.999Z</time></trkpt><trkpt lat="44.80871003933741" lon="10.427357638811548"><ele>38.5</ele><time>2026-05-01T07:27:35.999Z</time></trkpt><trkpt lat="44.80857535160071" lon="10.427717289454694"><ele>38.0</ele><time>2026-05-01T07:27:36.999Z</time></trkpt><trkpt lat="44.80844146938783" lon="10.428073736023801"><ele>38.0</ele><time>2026-05-01T07:27:37.999Z</time></trkpt><trkpt lat="44.80830230927953" lon="10.428427695588303"><ele>38.0</ele><time>2026-05-01T07:27:38.999Z</time></trkpt><trkpt lat="44.80816079945027" lon="10.428777788107617"><ele>37.0</ele><time>2026-05-01T07:27:39.999Z</time></trkpt><trkpt lat="44.80801995566892" lon="10.42913070837716"><ele>36.0</ele><time>2026-05-01T07:27:40.999Z</time></trkpt><trkpt lat="44.807884105363506" lon="10.429484763104867"><ele>36.0</ele><time>2026-05-01T07:27:41.999Z</time></trkpt><trkpt lat="44.80775052484251" lon="10.429839604468565"><ele>36.0</ele><time>2026-05-01T07:27:42.999Z</time></trkpt><trkpt lat="44.807615746034124" lon="10.4301964793855"><ele>37.0</ele><time>2026-05-01T07:27:43.999Z</time></trkpt><trkpt lat="44.80747804513102" lon="10.430548858920641"><ele>38.0</ele><time>2026-05-01T07:27:44.999Z</time></trkpt><trkpt lat="44.807339281153595" lon="10.430904244771114"><ele>38.0</ele><time>2026-05-01T07:27:45.999Z</time></trkpt><trkpt lat="44.80720275740984" lon="10.431258704964758"><ele>38.0</ele><time>2026-05-01T07:27:46.999Z</time></trkpt><trkpt lat="44.80706607060726" lon="10.431613411307035"><ele>38.5</ele><time>2026-05-01T07:27:47.999Z</time></trkpt><trkpt lat="44.80693228063316" lon="10.43197055191135"><ele>39.0</ele><time>2026-05-01T07:27:48.999Z</time></trkpt><trkpt lat="44.80679952056282" lon="10.432325205541394"><ele>39.0</ele><time>2026-05-01T07:27:49.999Z</time></trkpt><trkpt lat="44.80666668424677" lon="10.432680922680891"><ele>39.0</ele><time>2026-05-01T07:27:50.999Z</time></trkpt><trkpt lat="44.80653492170922" lon="10.433037901231046"><ele>38.0</ele><time>2026-05-01T07:27:51.999Z</time></trkpt><trkpt lat="44.80640282882378" lon="10.433394437953893"><ele>37.0</ele><time>2026-05-01T07:27:52.999Z</time></trkpt><trkpt lat="44.806271601761075" lon="10.43374958332285"><ele>37.0</ele><time>2026-05-01T07:27:53.999Z</time></trkpt><trkpt lat="44.806142921527154" lon="10.43410246210592"><ele>37.0</ele><time>2026-05-01T07:27:54.999Z</time></trkpt><trkpt lat="44.806014040942166" lon="10.434454235981327"><ele>38.0</ele><time>2026-05-01T07:27:55.999Z</time></trkpt><trkpt lat="44.80588308333469" lon="10.434806507028236"><ele>39.0</ele><time>2026-05-01T07:27:56.999Z</time></trkpt><trkpt lat="44.805750722832485" lon="10.435159906255818"><ele>39.0</ele><time>2026-05-01T07:27:57.999Z</time></trkpt><trkpt lat="44.80561744359617" lon="10.43551364363005"><ele>39.0</ele><time>2026-05-01T07:27:58.999Z</time></trkpt><trkpt lat="44.805486113893096" lon="10.435868152733326"><ele>39.0</ele><time>2026-05-01T07:27:59.999Z</time></trkpt><trkpt lat="44.8053537619429" lon="10.436226636726133"><ele>39.0</ele><time>2026-05-01T07:28:00.999Z</time></trkpt><trkpt lat="44.80522047958117" lon="10.43658451514415"><ele>38.5</ele><time>2026-05-01T07:28:01.999Z</time></trkpt><trkpt lat="44.805085920931454" lon="10.436946976645412"><ele>38.0</ele><time>2026-05-01T07:28:02.999Z</time></trkpt><trkpt lat="44.80494909975716" lon="10.437309402662708"><ele>38.0</ele><time>2026-05-01T07:28:03.999Z</time></trkpt><trkpt lat="44.804814858134904" lon="10.437672808085674"><ele>38.0</ele><time>2026-05-01T07:28:04.999Z</time></trkpt><trkpt lat="44.80468059381726" lon="10.438037220940242"><ele>38.0</ele><time>2026-05-01T07:28:05.999Z</time></trkpt><trkpt lat="44.80454574371842" lon="10.438401738921192"><ele>38.0</ele><time>2026-05-01T07:28:06.999Z</time></trkpt><trkpt lat="44.804410606968084" lon="10.438764349410162"><ele>38.0</ele><time>2026-05-01T07:28:07.999Z</time></trkpt><trkpt lat="44.80427646676426" lon="10.439125335022315"><ele>38.0</ele><time>2026-05-01T07:28:08.999Z</time></trkpt><trkpt lat="44.80414520520836" lon="10.43948169124992"><ele>39.0</ele><time>2026-05-01T07:28:09.999Z</time></trkpt><trkpt lat="44.804016431700305" lon="10.43982979725381"><ele>40.0</ele><time>2026-05-01T07:28:10.999Z</time></trkpt><trkpt lat="44.803891809944055" lon="10.440168778210257"><ele>39.5</ele><time>2026-05-01T07:28:11.999Z</time></trkpt><trkpt lat="44.803770886785884" lon="10.440500044074861"><ele>39.0</ele><time>2026-05-01T07:28:12.999Z</time></trkpt><trkpt lat="44.80365325925138" lon="10.440828409021611"><ele>39.0</ele><time>2026-05-01T07:28:13.999Z</time></trkpt><trkpt lat="44.8035419003435" lon="10.441155061342009"><ele>39.0</ele><time>2026-05-01T07:28:14.999Z</time></trkpt><trkpt lat="44.803430292034584" lon="10.44147872490486"><ele>37.5</ele><time>2026-05-01T07:28:15.999Z</time></trkpt><trkpt lat="44.803314406133545" lon="10.441803466608906"><ele>36.0</ele><time>2026-05-01T07:28:16.999Z</time></trkpt><trkpt lat="44.803196644371866" lon="10.442122468657823"><ele>36.5</ele><time>2026-05-01T07:28:17.999Z</time></trkpt><trkpt lat="44.80308055125207" lon="10.442441085919278"><ele>37.0</ele><time>2026-05-01T07:28:18.999Z</time></trkpt><trkpt lat="44.80296701034442" lon="10.442771635990985"><ele>36.5</ele><time>2026-05-01T07:28:19.999Z</time></trkpt><trkpt lat="44.80285049179705" lon="10.443107039073784"><ele>36.0</ele><time>2026-05-01T07:28:21Z</time></trkpt><trkpt lat="44.8027319808751" lon="10.44344021534212"><ele>36.0</ele><time>2026-05-01T07:28:22Z</time></trkpt><trkpt lat="44.80261053390045" lon="10.443773819280464"><ele>36.0</ele><time>2026-05-01T07:28:23Z</time></trkpt><trkpt lat="44.80248793059749" lon="10.444110476011131"><ele>36.0</ele><time>2026-05-01T07:28:24Z</time></trkpt><trkpt lat="44.80236406375273" lon="10.444448088938868"><ele>36.0</ele><time>2026-05-01T07:28:25Z</time></trkpt><trkpt lat="44.8022374235427" lon="10.4447888128112"><ele>36.0</ele><time>2026-05-01T07:28:26Z</time></trkpt><trkpt lat="44.80210896033834" lon="10.445131130695069"><ele>36.0</ele><time>2026-05-01T07:28:27Z</time></trkpt><trkpt lat="44.801978687507756" lon="10.445477070079338"><ele>36.0</ele><time>2026-05-01T07:28:28Z</time></trkpt><trkpt lat="44.8018470304974" lon="10.44582670988747"><ele>36.0</ele><time>2026-05-01T07:28:29Z</time></trkpt><trkpt lat="44.80171441710354" lon="10.446178089745596"><ele>37.0</ele><time>2026-05-01T07:28:30Z</time></trkpt><trkpt lat="44.80158087174947" lon="10.446532724257958"><ele>38.0</ele><time>2026-05-01T07:28:31Z</time></trkpt><trkpt lat="44.801447435549036" lon="10.446891868981716"><ele>38.5</ele><time>2026-05-01T07:28:32Z</time></trkpt><trkpt lat="44.80131566654313" lon="10.44725389731075"><ele>39.0</ele><time>2026-05-01T07:28:33Z</time></trkpt><trkpt lat="44.80118218802217" lon="10.447616444749196"><ele>39.0</ele><time>2026-05-01T07:28:34Z</time></trkpt><trkpt lat="44.80104627017783" lon="10.447980825152662"><ele>39.0</ele><time>2026-05-01T07:28:35Z</time></trkpt><trkpt lat="44.80090951839078" lon="10.44834226999159"><ele>39.0</ele><time>2026-05-01T07:28:36Z</time></trkpt><trkpt lat="44.800773485984024" lon="10.448704988065108"><ele>39.0</ele><time>2026-05-01T07:28:37Z</time></trkpt><trkpt lat="44.80063991058188" lon="10.44906936909672"><ele>39.0</ele><time>2026-05-01T07:28:38Z</time></trkpt><trkpt lat="44.80050688296035" lon="10.449430307235577"><ele>39.0</ele><time>2026-05-01T07:28:39Z</time></trkpt><trkpt lat="44.80037328851797" lon="10.449791776085846"><ele>39.0</ele><time>2026-05-01T07:28:40Z</time></trkpt><trkpt lat="44.80023747203258" lon="10.450154406197813"><ele>39.0</ele><time>2026-05-01T07:28:41Z</time></trkpt><trkpt lat="44.80009981013996" lon="10.450517854725293"><ele>39.0</ele><time>2026-05-01T07:28:42Z</time></trkpt><trkpt lat="44.79996251084995" lon="10.450880051118602"><ele>39.0</ele><time>2026-05-01T07:28:43Z</time></trkpt><trkpt lat="44.79982383885096" lon="10.45124448285553"><ele>39.5</ele><time>2026-05-01T07:28:44Z</time></trkpt><trkpt lat="44.79968587688381" lon="10.451605616599075"><ele>40.0</ele><time>2026-05-01T07:28:45Z</time></trkpt><trkpt lat="44.799547505092164" lon="10.451964928561148"><ele>40.5</ele><time>2026-05-01T07:28:46Z</time></trkpt><trkpt lat="44.79940855686246" lon="10.452320320390056"><ele>41.0</ele><time>2026-05-01T07:28:47Z</time></trkpt><trkpt lat="44.79926645962724" lon="10.45267684034972"><ele>40.5</ele><time>2026-05-01T07:28:48Z</time></trkpt><trkpt lat="44.79912192962981" lon="10.453031418445347"><ele>40.0</ele><time>2026-05-01T07:28:49Z</time></trkpt><trkpt lat="44.79897364546967" lon="10.453380460509939"><ele>40.0</ele><time>2026-05-01T07:28:50Z</time></trkpt><trkpt lat="44.79882453818895" lon="10.45372977473515"><ele>40.0</ele><time>2026-05-01T07:28:51Z</time></trkpt><trkpt lat="44.79867879224384" lon="10.454078550349562"><ele>39.5</ele><time>2026-05-01T07:28:52Z</time></trkpt><trkpt lat="44.79853499732293" lon="10.454427169323639"><ele>39.0</ele><time>2026-05-01T07:28:53Z</time></trkpt><trkpt lat="44.7983914499962" lon="10.45477490108519"><ele>39.0</ele><time>2026-05-01T07:28:54Z</time></trkpt><trkpt lat="44.798247076880024" lon="10.455119742007088"><ele>39.0</ele><time>2026-05-01T07:28:55Z</time></trkpt><trkpt lat="44.79810383040082" lon="10.455465750777968"><ele>39.5</ele><time>2026-05-01T07:28:56Z</time></trkpt><trkpt lat="44.79796132772465" lon="10.455806549231475"><ele>40.0</ele><time>2026-05-01T07:28:57Z</time></trkpt><trkpt lat="44.79781945272085" lon="10.456147604838172"><ele>40.0</ele><time>2026-05-01T07:28:58Z</time></trkpt><trkpt lat="44.79767497598435" lon="10.456488328936995"><ele>40.0</ele><time>2026-05-01T07:28:59Z</time></trkpt><trkpt lat="44.79753004298568" lon="10.456828714021519"><ele>41.0</ele><time>2026-05-01T07:29:00Z</time></trkpt><trkpt lat="44.79738375960485" lon="10.457167611134668"><ele>42.0</ele><time>2026-05-01T07:29:01Z</time></trkpt><trkpt lat="44.797237065300195" lon="10.457506114213558"><ele>42.0</ele><time>2026-05-01T07:29:02Z</time></trkpt><trkpt lat="44.79708824260413" lon="10.457845915155433"><ele>42.0</ele><time>2026-05-01T07:29:03Z</time></trkpt><trkpt lat="44.79693720666943" lon="10.45818393924171"><ele>41.5</ele><time>2026-05-01T07:29:04Z</time></trkpt><trkpt lat="44.79678456937933" lon="10.458526324428282"><ele>41.0</ele><time>2026-05-01T07:29:05Z</time></trkpt><trkpt lat="44.7966314778465" lon="10.458868750916743"><ele>40.5</ele><time>2026-05-01T07:29:06Z</time></trkpt><trkpt lat="44.79647808845245" lon="10.459208613959287"><ele>40.0</ele><time>2026-05-01T07:29:06.999Z</time></trkpt><trkpt lat="44.79632468651485" lon="10.459549767387559"><ele>41.0</ele><time>2026-05-01T07:29:07.999Z</time></trkpt><trkpt lat="44.79617237933357" lon="10.459888605085476"><ele>42.0</ele><time>2026-05-01T07:29:08.999Z</time></trkpt><trkpt lat="44.79601995268149" lon="10.460225972425725"><ele>41.5</ele><time>2026-05-01T07:29:09.999Z</time></trkpt><trkpt lat="44.79586608882103" lon="10.460562353605035"><ele>41.0</ele><time>2026-05-01T07:29:10.999Z</time></trkpt><trkpt lat="44.79571112393938" lon="10.460898611839365"><ele>41.0</ele><time>2026-05-01T07:29:11.999Z</time></trkpt><trkpt lat="44.795552358777556" lon="10.46123718434729"><ele>41.0</ele><time>2026-05-01T07:29:12.999Z</time></trkpt><trkpt lat="44.79539394387767" lon="10.461574829128558"><ele>40.0</ele><time>2026-05-01T07:29:13.999Z</time></trkpt><trkpt lat="44.79523515242823" lon="10.461913028149734"><ele>39.0</ele><time>2026-05-01T07:29:14.999Z</time></trkpt><trkpt lat="44.79507959497473" lon="10.462251262130254"><ele>39.0</ele><time>2026-05-01T07:29:15.999Z</time></trkpt><trkpt lat="44.79491812952157" lon="10.462596376958423"><ele>39.0</ele><time>2026-05-01T07:29:16.999Z</time></trkpt><trkpt lat="44.79475393191132" lon="10.462944860375988"><ele>38.0</ele><time>2026-05-01T07:29:17.999Z</time></trkpt><trkpt lat="44.79461533144236" lon="10.463254194802108"><ele>37.0</ele><time>2026-05-01T07:29:18.999Z</time></trkpt><trkpt lat="44.794457641396754" lon="10.463590570969789"><ele>38.5</ele><time>2026-05-01T07:29:19.999Z</time></trkpt><trkpt lat="44.794299172926195" lon="10.463926280760878"><ele>40.0</ele><time>2026-05-01T07:29:20.999Z</time></trkpt><trkpt lat="44.794137681064186" lon="10.464260145979294"><ele>40.0</ele><time>2026-05-01T07:29:21.999Z</time></trkpt><trkpt lat="44.793975696254165" lon="10.464594036466998"><ele>40.0</ele><time>2026-05-01T07:29:22.999Z</time></trkpt><trkpt lat="44.793823924626466" lon="10.464926415467312"><ele>39.5</ele><time>2026-05-01T07:29:23.999Z</time></trkpt><trkpt lat="44.79366525586651" lon="10.465260226609251"><ele>39.0</ele><time>2026-05-01T07:29:24.999Z</time></trkpt><trkpt lat="44.79350321575303" lon="10.465588206553914"><ele>39.0</ele><time>2026-05-01T07:29:25.999Z</time></trkpt><trkpt lat="44.793350619327434" lon="10.465919287218998"><ele>39.0</ele><time>2026-05-01T07:29:26.999Z</time></trkpt><trkpt lat="44.79319516754045" lon="10.466251921854045"><ele>39.0</ele><time>2026-05-01T07:29:27.999Z</time></trkpt><trkpt lat="44.793038671176774" lon="10.46658878057167"><ele>39.0</ele><time>2026-05-01T07:29:28.999Z</time></trkpt><trkpt lat="44.79288447512381" lon="10.466925529721856"><ele>39.0</ele><time>2026-05-01T07:29:29.999Z</time></trkpt><trkpt lat="44.79272957451381" lon="10.467256897383644"><ele>39.0</ele><time>2026-05-01T07:29:30.999Z</time></trkpt><trkpt lat="44.79257807920251" lon="10.467582871138907"><ele>39.0</ele><time>2026-05-01T07:29:31.999Z</time></trkpt><trkpt lat="44.792426129204" lon="10.467907101946045"><ele>39.0</ele><time>2026-05-01T07:29:32.999Z</time></trkpt><trkpt lat="44.7922754308276" lon="10.468231029315609"><ele>39.0</ele><time>2026-05-01T07:29:33.999Z</time></trkpt><trkpt lat="44.79212263030514" lon="10.468549185389612"><ele>39.0</ele><time>2026-05-01T07:29:34.999Z</time></trkpt><trkpt lat="44.79196376126362" lon="10.46886697778302"><ele>40.5</ele><time>2026-05-01T07:29:35.999Z</time></trkpt><trkpt lat="44.791812078887595" lon="10.469184432607166"><ele>42.0</ele><time>2026-05-01T07:29:36.999Z</time></trkpt><trkpt lat="44.79166335142338" lon="10.469498150459279"><ele>41.5</ele><time>2026-05-01T07:29:37.999Z</time></trkpt><trkpt lat="44.79151741280823" lon="10.469814250385138"><ele>41.0</ele><time>2026-05-01T07:29:38.999Z</time></trkpt><trkpt lat="44.791372465920034" lon="10.470127576136482"><ele>41.0</ele><time>2026-05-01T07:29:39.999Z</time></trkpt><trkpt lat="44.79123908362158" lon="10.470415778100406"><ele>41.0</ele><time>2026-05-01T07:29:40.999Z</time></trkpt><trkpt lat="44.791100525336226" lon="10.47071492718247"><ele>42.0</ele><time>2026-05-01T07:29:41.999Z</time></trkpt><trkpt lat="44.79095776149852" lon="10.471014595339852"><ele>43.0</ele><time>2026-05-01T07:29:42.999Z</time></trkpt><trkpt lat="44.79081590505162" lon="10.47130725599996"><ele>43.5</ele><time>2026-05-01T07:29:43.999Z</time></trkpt><trkpt lat="44.79067533091379" lon="10.47159860249462"><ele>44.0</ele><time>2026-05-01T07:29:44.999Z</time></trkpt><trkpt lat="44.79054414848569" lon="10.471911546574432"><ele>43.0</ele><time>2026-05-01T07:29:45.999Z</time></trkpt><trkpt lat="44.790404935737534" lon="10.472237218683155"><ele>42.0</ele><time>2026-05-01T07:29:46.999Z</time></trkpt><trkpt lat="44.79025287899393" lon="10.472559306683904"><ele>42.5</ele><time>2026-05-01T07:29:47.999Z</time></trkpt><trkpt lat="44.79010082362349" lon="10.472887190523238"><ele>43.0</ele><time>2026-05-01T07:29:48.999Z</time></trkpt><trkpt lat="44.78995235668563" lon="10.473213102294146"><ele>42.0</ele><time>2026-05-01T07:29:49.999Z</time></trkpt><trkpt lat="44.78979823846647" lon="10.473533704727974"><ele>41.0</ele><time>2026-05-01T07:29:50.999Z</time></trkpt><trkpt lat="44.7896435362141" lon="10.47386046784465"><ele>40.5</ele><time>2026-05-01T07:29:51.999Z</time></trkpt><trkpt lat="44.78948694076951" lon="10.474182014852174"><ele>40.0</ele><time>2026-05-01T07:29:52.999Z</time></trkpt><trkpt lat="44.78932908398779" lon="10.474502725300376"><ele>41.0</ele><time>2026-05-01T07:29:53.999Z</time></trkpt><trkpt lat="44.78917127188078" lon="10.474824721715212"><ele>42.0</ele><time>2026-05-01T07:29:54.999Z</time></trkpt><trkpt lat="44.78900971098763" lon="10.475145115034154"><ele>41.0</ele><time>2026-05-01T07:29:55.999Z</time></trkpt><trkpt lat="44.788851895671094" lon="10.47546813548283"><ele>40.0</ele><time>2026-05-01T07:29:56.999Z</time></trkpt><trkpt lat="44.7886966173876" lon="10.475795198342658"><ele>40.0</ele><time>2026-05-01T07:29:57.999Z</time></trkpt><trkpt lat="44.788538948240436" lon="10.476123817283378"><ele>40.0</ele><time>2026-05-01T07:29:58.999Z</time></trkpt><trkpt lat="44.788382987876304" lon="10.476454949595585"><ele>39.5</ele><time>2026-05-01T07:29:59.999Z</time></trkpt><trkpt lat="44.78822627017285" lon="10.47679106508751"><ele>39.0</ele><time>2026-05-01T07:30:00.999Z</time></trkpt><trkpt lat="44.78806734804605" lon="10.47712914250857"><ele>39.0</ele><time>2026-05-01T07:30:01.999Z</time></trkpt><trkpt lat="44.78790781962197" lon="10.477468030122942"><ele>39.0</ele><time>2026-05-01T07:30:02.999Z</time></trkpt><trkpt lat="44.787748017097485" lon="10.477804668495486"><ele>39.0</ele><time>2026-05-01T07:30:03.999Z</time></trkpt><trkpt lat="44.787590689505166" lon="10.478143141964326"><ele>39.0</ele><time>2026-05-01T07:30:04.999Z</time></trkpt><trkpt lat="44.787428562499656" lon="10.478471065860045"><ele>39.0</ele><time>2026-05-01T07:30:05.999Z</time></trkpt><trkpt lat="44.78726302764941" lon="10.478800032313956"><ele>39.0</ele><time>2026-05-01T07:30:06.999Z</time></trkpt><trkpt lat="44.787096266818764" lon="10.479129808143634"><ele>39.0</ele><time>2026-05-01T07:30:07.999Z</time></trkpt><trkpt lat="44.78693625984228" lon="10.479460575350474"><ele>39.0</ele><time>2026-05-01T07:30:08.999Z</time></trkpt><trkpt lat="44.78677626161838" lon="10.479797983321934"><ele>40.0</ele><time>2026-05-01T07:30:09.999Z</time></trkpt><trkpt lat="44.78661897372818" lon="10.480131782537958"><ele>41.0</ele><time>2026-05-01T07:30:10.999Z</time></trkpt><trkpt lat="44.7864612082684" lon="10.480466550669039"><ele>41.0</ele><time>2026-05-01T07:30:11.999Z</time></trkpt><trkpt lat="44.786301848282164" lon="10.480802466945802"><ele>41.0</ele><time>2026-05-01T07:30:12.999Z</time></trkpt><trkpt lat="44.78614245757073" lon="10.481133561166896"><ele>40.0</ele><time>2026-05-01T07:30:13.999Z</time></trkpt><trkpt lat="44.78598534546537" lon="10.48146844903899"><ele>39.0</ele><time>2026-05-01T07:30:14.999Z</time></trkpt><trkpt lat="44.785826644337995" lon="10.481801716053653"><ele>39.0</ele><time>2026-05-01T07:30:15.999Z</time></trkpt><trkpt lat="44.78566843747383" lon="10.482125349596398"><ele>39.0</ele><time>2026-05-01T07:30:16.999Z</time></trkpt><trkpt lat="44.785513049058274" lon="10.482461063745227"><ele>39.0</ele><time>2026-05-01T07:30:17.999Z</time></trkpt><trkpt lat="44.78535780741236" lon="10.482796586449439"><ele>39.0</ele><time>2026-05-01T07:30:18.999Z</time></trkpt><trkpt lat="44.78520307363779" lon="10.48313211183245"><ele>39.0</ele><time>2026-05-01T07:30:19.999Z</time></trkpt><trkpt lat="44.78505004132231" lon="10.483459256399733"><ele>39.0</ele><time>2026-05-01T07:30:20.999Z</time></trkpt><trkpt lat="44.78489038255947" lon="10.483780266610959"><ele>39.5</ele><time>2026-05-01T07:30:21.999Z</time></trkpt><trkpt lat="44.78473779557804" lon="10.484111863408884"><ele>40.0</ele><time>2026-05-01T07:30:22.999Z</time></trkpt><trkpt lat="44.78458703011912" lon="10.484446386074984"><ele>40.5</ele><time>2026-05-01T07:30:23.999Z</time></trkpt><trkpt lat="44.784432172865735" lon="10.484769037507416"><ele>41.0</ele><time>2026-05-01T07:30:24.999Z</time></trkpt><trkpt lat="44.784276186799595" lon="10.485091678540527"><ele>41.0</ele><time>2026-05-01T07:30:25.999Z</time></trkpt><trkpt lat="44.78412356327873" lon="10.48541781912486"><ele>41.0</ele><time>2026-05-01T07:30:27Z</time></trkpt><trkpt lat="44.783972378041554" lon="10.485737746077568"><ele>40.5</ele><time>2026-05-01T07:30:28Z</time></trkpt><trkpt lat="44.783820647630165" lon="10.486063512668512"><ele>40.0</ele><time>2026-05-01T07:30:29Z</time></trkpt><trkpt lat="44.78366949559754" lon="10.486381729792024"><ele>40.0</ele><time>2026-05-01T07:30:30Z</time></trkpt><trkpt lat="44.783519078145105" lon="10.486700073632031"><ele>40.0</ele><time>2026-05-01T07:30:31Z</time></trkpt><trkpt lat="44.783372473133454" lon="10.487016825192773"><ele>38.5</ele><time>2026-05-01T07:30:32Z</time></trkpt><trkpt lat="44.78322081766526" lon="10.487332562011149"><ele>37.0</ele><time>2026-05-01T07:30:33Z</time></trkpt><trkpt lat="44.783074478039595" lon="10.487650683377241"><ele>36.5</ele><time>2026-05-01T07:30:34Z</time></trkpt><trkpt lat="44.78292797846047" lon="10.487966099817687"><ele>36.0</ele><time>2026-05-01T07:30:35Z</time></trkpt><trkpt lat="44.78278336570149" lon="10.488275321332551"><ele>37.0</ele><time>2026-05-01T07:30:36Z</time></trkpt><trkpt lat="44.782636796613595" lon="10.488589961861747"><ele>38.0</ele><time>2026-05-01T07:30:37Z</time></trkpt><trkpt lat="44.782493701949164" lon="10.488904150078426"><ele>38.0</ele><time>2026-05-01T07:30:38Z</time></trkpt><trkpt lat="44.78234740169823" lon="10.48921280621871"><ele>38.0</ele><time>2026-05-01T07:30:39Z</time></trkpt><trkpt lat="44.78221011315342" lon="10.489535876777568"><ele>37.5</ele><time>2026-05-01T07:30:40Z</time></trkpt><trkpt lat="44.78205966426164" lon="10.489836264322003"><ele>37.0</ele><time>2026-05-01T07:30:41Z</time></trkpt><trkpt lat="44.78191435863685" lon="10.490158200099597"><ele>38.5</ele><time>2026-05-01T07:30:42Z</time></trkpt><trkpt lat="44.781769110676436" lon="10.490474262594233"><ele>40.0</ele><time>2026-05-01T07:30:43Z</time></trkpt><trkpt lat="44.78161494524818" lon="10.490764829852006"><ele>40.0</ele><time>2026-05-01T07:30:44Z</time></trkpt><trkpt lat="44.78146258480558" lon="10.491081247718148"><ele>40.0</ele><time>2026-05-01T07:30:45Z</time></trkpt><trkpt lat="44.78131536106668" lon="10.491398299340787"><ele>39.0</ele><time>2026-05-01T07:30:46Z</time></trkpt><trkpt lat="44.78116941055045" lon="10.491707406205697"><ele>38.0</ele><time>2026-05-01T07:30:47Z</time></trkpt><trkpt lat="44.78102800970456" lon="10.4920220869983"><ele>38.5</ele><time>2026-05-01T07:30:48Z</time></trkpt><trkpt lat="44.78088021300646" lon="10.492333742607824"><ele>39.0</ele><time>2026-05-01T07:30:49Z</time></trkpt><trkpt lat="44.78073210496423" lon="10.49265064392601"><ele>39.0</ele><time>2026-05-01T07:30:50Z</time></trkpt><trkpt lat="44.78058385788042" lon="10.49296867549589"><ele>39.0</ele><time>2026-05-01T07:30:51Z</time></trkpt><trkpt lat="44.780434980536555" lon="10.49328110857324"><ele>39.0</ele><time>2026-05-01T07:30:52Z</time></trkpt><trkpt lat="44.78028505887983" lon="10.493591615597142"><ele>39.0</ele><time>2026-05-01T07:30:53Z</time></trkpt><trkpt lat="44.780134391065175" lon="10.493902350635395"><ele>38.5</ele><time>2026-05-01T07:30:54Z</time></trkpt><trkpt lat="44.77998553735304" lon="10.494224810991499"><ele>38.0</ele><time>2026-05-01T07:30:55Z</time></trkpt><trkpt lat="44.77983658675641" lon="10.494541841979872"><ele>38.0</ele><time>2026-05-01T07:30:56Z</time></trkpt><trkpt lat="44.779688345373344" lon="10.494851396233189"><ele>38.0</ele><time>2026-05-01T07:30:57Z</time></trkpt><trkpt lat="44.77953808911532" lon="10.49516856154039"><ele>38.0</ele><time>2026-05-01T07:30:58Z</time></trkpt><trkpt lat="44.77938788495744" lon="10.495484972679812"><ele>38.0</ele><time>2026-05-01T07:30:59Z</time></trkpt><trkpt lat="44.77924219439126" lon="10.495812031428803"><ele>38.0</ele><time>2026-05-01T07:31:00Z</time></trkpt><trkpt lat="44.77909000977383" lon="10.496127319415326"><ele>38.0</ele><time>2026-05-01T07:31:01Z</time></trkpt><trkpt lat="44.77894133820114" lon="10.49644158420175"><ele>38.5</ele><time>2026-05-01T07:31:02Z</time></trkpt><trkpt lat="44.77878934888067" lon="10.496761761586324"><ele>39.0</ele><time>2026-05-01T07:31:03Z</time></trkpt><trkpt lat="44.77863718293425" lon="10.497083315657866"><ele>39.5</ele><time>2026-05-01T07:31:04Z</time></trkpt><trkpt lat="44.7784807740883" lon="10.497401101536115"><ele>40.0</ele><time>2026-05-01T07:31:04.999Z</time></trkpt><trkpt lat="44.778327950784124" lon="10.497725147325857"><ele>39.5</ele><time>2026-05-01T07:31:05.999Z</time></trkpt><trkpt lat="44.77817479345229" lon="10.498048157246362"><ele>39.0</ele><time>2026-05-01T07:31:06.999Z</time></trkpt><trkpt lat="44.77802068734227" lon="10.498368964118095"><ele>39.0</ele><time>2026-05-01T07:31:07.999Z</time></trkpt><trkpt lat="44.77786442682885" lon="10.498700142096956"><ele>39.0</ele><time>2026-05-01T07:31:08.999Z</time></trkpt><trkpt lat="44.777711385930196" lon="10.499031057294578"><ele>39.0</ele><time>2026-05-01T07:31:09.999Z</time></trkpt><trkpt lat="44.77756007367034" lon="10.499363849118934"><ele>39.0</ele><time>2026-05-01T07:31:10.999Z</time></trkpt><trkpt lat="44.777405493030756" lon="10.499695096218465"><ele>38.0</ele><time>2026-05-01T07:31:11.999Z</time></trkpt><trkpt lat="44.77724867119248" lon="10.500021909642399"><ele>37.0</ele><time>2026-05-01T07:31:12.999Z</time></trkpt><trkpt lat="44.77709414522421" lon="10.500358613782355"><ele>37.0</ele><time>2026-05-01T07:31:13.999Z</time></trkpt><trkpt lat="44.77693347292994" lon="10.500690119091567"><ele>37.0</ele><time>2026-05-01T07:31:14.999Z</time></trkpt><trkpt lat="44.776773730450216" lon="10.501018255163556"><ele>36.0</ele><time>2026-05-01T07:31:15.999Z</time></trkpt><trkpt lat="44.776615073876975" lon="10.501352104742061"><ele>35.0</ele><time>2026-05-01T07:31:16.999Z</time></trkpt><trkpt lat="44.776457435234" lon="10.501690357611276"><ele>35.0</ele><time>2026-05-01T07:31:17.999Z</time></trkpt><trkpt lat="44.77629905329533" lon="10.502028402187566"><ele>35.0</ele><time>2026-05-01T07:31:18.999Z</time></trkpt><trkpt lat="44.77614335889122" lon="10.502365231685124"><ele>36.0</ele><time>2026-05-01T07:31:19.999Z</time></trkpt><trkpt lat="44.77598444420848" lon="10.502695579643873"><ele>37.0</ele><time>2026-05-01T07:31:20.999Z</time></trkpt><trkpt lat="44.77582474728172" lon="10.503024699921156"><ele>37.5</ele><time>2026-05-01T07:31:21.999Z</time></trkpt><trkpt lat="44.775666580727396" lon="10.503349171962805"><ele>38.0</ele><time>2026-05-01T07:31:22.999Z</time></trkpt><trkpt lat="44.77551213960408" lon="10.50367944333999"><ele>37.5</ele><time>2026-05-01T07:31:23.999Z</time></trkpt><trkpt lat="44.775359948601775" lon="10.50401021338198"><ele>37.0</ele><time>2026-05-01T07:31:24.999Z</time></trkpt><trkpt lat="44.77520808566757" lon="10.50432951083686"><ele>38.5</ele><time>2026-05-01T07:31:25.999Z</time></trkpt><trkpt lat="44.7750593122139" lon="10.504655375401676"><ele>40.0</ele><time>2026-05-01T07:31:26.999Z</time></trkpt><trkpt lat="44.774909088155795" lon="10.504973574210739"><ele>40.0</ele><time>2026-05-01T07:31:27.999Z</time></trkpt><trkpt lat="44.77475352133008" lon="10.505292315225468"><ele>40.0</ele><time>2026-05-01T07:31:28.999Z</time></trkpt><trkpt lat="44.77459902034825" lon="10.505611017992644"><ele>39.0</ele><time>2026-05-01T07:31:29.999Z</time></trkpt><trkpt lat="44.7744426478542" lon="10.505941579580336"><ele>38.0</ele><time>2026-05-01T07:31:30.999Z</time></trkpt><trkpt lat="44.774283873699375" lon="10.506267164696155"><ele>37.5</ele><time>2026-05-01T07:31:31.999Z</time></trkpt><trkpt lat="44.7741255914292" lon="10.506594161594037"><ele>37.0</ele><time>2026-05-01T07:31:32.999Z</time></trkpt><trkpt lat="44.77396639848703" lon="10.506928389460567"><ele>37.0</ele><time>2026-05-01T07:31:33.999Z</time></trkpt><trkpt lat="44.77380842029629" lon="10.507264223213395"><ele>37.0</ele><time>2026-05-01T07:31:34.999Z</time></trkpt><trkpt lat="44.77365174580138" lon="10.50760295060829"><ele>38.0</ele><time>2026-05-01T07:31:35.999Z</time></trkpt><trkpt lat="44.773494958470984" lon="10.507940491859557"><ele>39.0</ele><time>2026-05-01T07:31:36.999Z</time></trkpt><trkpt lat="44.77333800464208" lon="10.50827681808163"><ele>39.0</ele><time>2026-05-01T07:31:37.999Z</time></trkpt><trkpt lat="44.773180033505085" lon="10.508611660914795"><ele>39.0</ele><time>2026-05-01T07:31:38.999Z</time></trkpt><trkpt lat="44.77302102290953" lon="10.508949208298707"><ele>38.5</ele><time>2026-05-01T07:31:39.999Z</time></trkpt><trkpt lat="44.772860681954704" lon="10.509286170260006"><ele>38.0</ele><time>2026-05-01T07:31:40.999Z</time></trkpt><trkpt lat="44.77269927969566" lon="10.509620614938372"><ele>37.5</ele><time>2026-05-01T07:31:41.999Z</time></trkpt><trkpt lat="44.77254077626773" lon="10.50995536647611"><ele>37.0</ele><time>2026-05-01T07:31:42.999Z</time></trkpt><trkpt lat="44.772382989476974" lon="10.510287001716112"><ele>37.5</ele><time>2026-05-01T07:31:43.999Z</time></trkpt><trkpt lat="44.77222804759402" lon="10.510621619074454"><ele>38.0</ele><time>2026-05-01T07:31:44.999Z</time></trkpt><trkpt lat="44.772072317942545" lon="10.510958134811569"><ele>38.0</ele><time>2026-05-01T07:31:45.999Z</time></trkpt><trkpt lat="44.77191665650362" lon="10.511293351863142"><ele>38.0</ele><time>2026-05-01T07:31:46.999Z</time></trkpt><trkpt lat="44.77175590448777" lon="10.511628120667607"><ele>38.0</ele><time>2026-05-01T07:31:47.999Z</time></trkpt><trkpt lat="44.77159398975995" lon="10.511962126564326"><ele>38.0</ele><time>2026-05-01T07:31:48.999Z</time></trkpt><trkpt lat="44.77143238320129" lon="10.512295516986674"><ele>38.0</ele><time>2026-05-01T07:31:49.999Z</time></trkpt><trkpt lat="44.771271580318306" lon="10.51263607621217"><ele>38.0</ele><time>2026-05-01T07:31:50.999Z</time></trkpt><trkpt lat="44.77111217922425" lon="10.512976790440849"><ele>38.5</ele><time>2026-05-01T07:31:51.999Z</time></trkpt><trkpt lat="44.77095478574459" lon="10.513318050858974"><ele>39.0</ele><time>2026-05-01T07:31:52.999Z</time></trkpt><trkpt lat="44.77079699008844" lon="10.513660047056968"><ele>39.5</ele><time>2026-05-01T07:31:53.999Z</time></trkpt><trkpt lat="44.77063588146917" lon="10.51400311914795"><ele>40.0</ele><time>2026-05-01T07:31:54.999Z</time></trkpt><trkpt lat="44.77047517584071" lon="10.514344289145505"><ele>38.5</ele><time>2026-05-01T07:31:55.999Z</time></trkpt><trkpt lat="44.77031170344427" lon="10.514685532989779"><ele>37.0</ele><time>2026-05-01T07:31:56.999Z</time></trkpt><trkpt lat="44.7701491960176" lon="10.515028714778921"><ele>37.0</ele><time>2026-05-01T07:31:57.999Z</time></trkpt><trkpt lat="44.76998655426123" lon="10.515372096872076"><ele>37.0</ele><time>2026-05-01T07:31:58.999Z</time></trkpt><trkpt lat="44.769822936804225" lon="10.515715252006734"><ele>37.0</ele><time>2026-05-01T07:31:59.999Z</time></trkpt><trkpt lat="44.769659445244386" lon="10.516056716804444"><ele>37.0</ele><time>2026-05-01T07:32:00.999Z</time></trkpt><trkpt lat="44.76949760146998" lon="10.516399066389564"><ele>37.5</ele><time>2026-05-01T07:32:01.999Z</time></trkpt><trkpt lat="44.769335813596456" lon="10.516740898993199"><ele>38.0</ele><time>2026-05-01T07:32:02.999Z</time></trkpt><trkpt lat="44.769172443783845" lon="10.517080858735874"><ele>37.0</ele><time>2026-05-01T07:32:03.999Z</time></trkpt><trkpt lat="44.769007381339414" lon="10.517426201217464"><ele>36.0</ele><time>2026-05-01T07:32:04.999Z</time></trkpt><trkpt lat="44.76885032215431" lon="10.517767402719265"><ele>36.0</ele><time>2026-05-01T07:32:05.999Z</time></trkpt><trkpt lat="44.76868957600147" lon="10.518111696440949"><ele>36.0</ele><time>2026-05-01T07:32:06.999Z</time></trkpt><trkpt lat="44.76852047607166" lon="10.518454295189096"><ele>37.0</ele><time>2026-05-01T07:32:07.999Z</time></trkpt><trkpt lat="44.768358925620106" lon="10.518799317435338"><ele>38.0</ele><time>2026-05-01T07:32:08.999Z</time></trkpt><trkpt lat="44.768196804312765" lon="10.519144048849606"><ele>38.0</ele><time>2026-05-01T07:32:09.999Z</time></trkpt><trkpt lat="44.76803017617831" lon="10.519488211610385"><ele>38.0</ele><time>2026-05-01T07:32:10.999Z</time></trkpt><trkpt lat="44.767864016739" lon="10.519839143861148"><ele>38.5</ele><time>2026-05-01T07:32:11.999Z</time></trkpt><trkpt lat="44.7676959496274" lon="10.520190424877685"><ele>39.0</ele><time>2026-05-01T07:32:12.999Z</time></trkpt><trkpt lat="44.76752998201599" lon="10.520543325079224"><ele>36.0</ele><time>2026-05-01T07:32:13.999Z</time></trkpt><trkpt lat="44.76736517726447" lon="10.520891632307714"><ele>33.0</ele><time>2026-05-01T07:32:14.999Z</time></trkpt><trkpt lat="44.7672017368735" lon="10.52124668107474"><ele>33.0</ele><time>2026-05-01T07:32:15.999Z</time></trkpt><trkpt lat="44.76703653421095" lon="10.521599141680465"><ele>33.0</ele><time>2026-05-01T07:32:16.999Z</time></trkpt><trkpt lat="44.766873678368285" lon="10.521953656181806"><ele>32.5</ele><time>2026-05-01T07:32:17.999Z</time></trkpt><trkpt lat="44.766711079524065" lon="10.522303535853023"><ele>32.0</ele><time>2026-05-01T07:32:18.999Z</time></trkpt><trkpt lat="44.76654962790264" lon="10.52266353885762"><ele>31.0</ele><time>2026-05-01T07:32:19.999Z</time></trkpt><trkpt lat="44.76638734081272" lon="10.523018702875733"><ele>30.0</ele><time>2026-05-01T07:32:20.999Z</time></trkpt><trkpt lat="44.766228306799356" lon="10.52336754195003"><ele>30.0</ele><time>2026-05-01T07:32:21.999Z</time></trkpt><trkpt lat="44.76606280512793" lon="10.523716165819499"><ele>30.0</ele><time>2026-05-01T07:32:22.999Z</time></trkpt><trkpt lat="44.76589641446279" lon="10.524060787325862"><ele>30.0</ele><time>2026-05-01T07:32:23.999Z</time></trkpt><trkpt lat="44.7657315348646" lon="10.524410929638172"><ele>30.0</ele><time>2026-05-01T07:32:24.999Z</time></trkpt><trkpt lat="44.76556790204779" lon="10.524756455961509"><ele>30.0</ele><time>2026-05-01T07:32:25.999Z</time></trkpt><trkpt lat="44.76540359947218" lon="10.525101968391164"><ele>30.0</ele><time>2026-05-01T07:32:26.999Z</time></trkpt><trkpt lat="44.76524696820578" lon="10.525449149295172"><ele>31.0</ele><time>2026-05-01T07:32:27.999Z</time></trkpt><trkpt lat="44.76508590964397" lon="10.525793942827592"><ele>32.0</ele><time>2026-05-01T07:32:28.999Z</time></trkpt><trkpt lat="44.764922458756665" lon="10.526129232598363"><ele>32.0</ele><time>2026-05-01T07:32:29.999Z</time></trkpt><trkpt lat="44.764757695000554" lon="10.526464124352854"><ele>32.0</ele><time>2026-05-01T07:32:30.999Z</time></trkpt><trkpt lat="44.76459959471913" lon="10.526798870990962"><ele>32.0</ele><time>2026-05-01T07:32:31.999Z</time></trkpt><trkpt lat="44.764439872049714" lon="10.527138248781931"><ele>32.0</ele><time>2026-05-01T07:32:33Z</time></trkpt><trkpt lat="44.76427028944109" lon="10.52747777959815"><ele>32.0</ele><time>2026-05-01T07:32:34Z</time></trkpt><trkpt lat="44.76411061406808" lon="10.527819087679887"><ele>32.0</ele><time>2026-05-01T07:32:35Z</time></trkpt><trkpt lat="44.763947700505675" lon="10.528159512694732"><ele>32.0</ele><time>2026-05-01T07:32:36Z</time></trkpt><trkpt lat="44.76378381345703" lon="10.528502772247771"><ele>32.0</ele><time>2026-05-01T07:32:37Z</time></trkpt><trkpt lat="44.763621536676716" lon="10.528842932372493"><ele>32.5</ele><time>2026-05-01T07:32:38Z</time></trkpt><trkpt lat="44.76345867383165" lon="10.529190883571518"><ele>33.0</ele><time>2026-05-01T07:32:39Z</time></trkpt><trkpt lat="44.763292549325826" lon="10.5295344913365"><ele>31.5</ele><time>2026-05-01T07:32:40Z</time></trkpt><trkpt lat="44.763123274071276" lon="10.529883379469169"><ele>30.0</ele><time>2026-05-01T07:32:41Z</time></trkpt><trkpt lat="44.7629571635555" lon="10.530234601770813"><ele>29.5</ele><time>2026-05-01T07:32:42Z</time></trkpt><trkpt lat="44.762793622367155" lon="10.530589067072455"><ele>29.0</ele><time>2026-05-01T07:32:43Z</time></trkpt><trkpt lat="44.762626655292266" lon="10.53094738238024"><ele>31.0</ele><time>2026-05-01T07:32:44Z</time></trkpt><trkpt lat="44.762458735996056" lon="10.531306498180774"><ele>33.0</ele><time>2026-05-01T07:32:45Z</time></trkpt><trkpt lat="44.76229061044205" lon="10.531661918947613"><ele>33.0</ele><time>2026-05-01T07:32:46Z</time></trkpt><trkpt lat="44.762122517085885" lon="10.532030920228594"><ele>33.0</ele><time>2026-05-01T07:32:47Z</time></trkpt><trkpt lat="44.76195066934493" lon="10.532386877706564"><ele>33.5</ele><time>2026-05-01T07:32:48Z</time></trkpt><trkpt lat="44.7617812318807" lon="10.532746496692889"><ele>34.0</ele><time>2026-05-01T07:32:49Z</time></trkpt><trkpt lat="44.76160909495475" lon="10.533109958381594"><ele>35.5</ele><time>2026-05-01T07:32:50Z</time></trkpt><trkpt lat="44.76143615348034" lon="10.533472728525371"><ele>37.0</ele><time>2026-05-01T07:32:51Z</time></trkpt><trkpt lat="44.76126115807652" lon="10.5338290586976"><ele>37.0</ele><time>2026-05-01T07:32:52Z</time></trkpt><trkpt lat="44.76109250070577" lon="10.534184128024284"><ele>37.0</ele><time>2026-05-01T07:32:53Z</time></trkpt><trkpt lat="44.7609241282466" lon="10.534542816149187"><ele>36.0</ele><time>2026-05-01T07:32:54Z</time></trkpt><trkpt lat="44.76075651014296" lon="10.534904955553488"><ele>35.0</ele><time>2026-05-01T07:32:55Z</time></trkpt><trkpt lat="44.76058352757729" lon="10.535270336329251"><ele>33.0</ele><time>2026-05-01T07:32:56Z</time></trkpt><trkpt lat="44.760413102056425" lon="10.535616259925533"><ele>31.0</ele><time>2026-05-01T07:32:57Z</time></trkpt><trkpt lat="44.760245914061855" lon="10.535969437408223"><ele>32.5</ele><time>2026-05-01T07:32:58Z</time></trkpt><trkpt lat="44.76007654140517" lon="10.536325673868587"><ele>34.0</ele><time>2026-05-01T07:32:59Z</time></trkpt><trkpt lat="44.75991250472538" lon="10.536680633090151"><ele>34.0</ele><time>2026-05-01T07:33:00Z</time></trkpt><trkpt lat="44.759746062922304" lon="10.537035795840115"><ele>34.0</ele><time>2026-05-01T07:33:01Z</time></trkpt><trkpt lat="44.7595772949014" lon="10.537389961498215"><ele>34.0</ele><time>2026-05-01T07:33:02Z</time></trkpt><trkpt lat="44.75940809502902" lon="10.537742882088972"><ele>34.0</ele><time>2026-05-01T07:33:02.999Z</time></trkpt><trkpt lat="44.7592415140111" lon="10.53809147129927"><ele>34.0</ele><time>2026-05-01T07:33:03.999Z</time></trkpt><trkpt lat="44.75907621368207" lon="10.538439983802656"><ele>34.0</ele><time>2026-05-01T07:33:04.999Z</time></trkpt><trkpt lat="44.75890604298318" lon="10.538787379004027"><ele>32.0</ele><time>2026-05-01T07:33:05.999Z</time></trkpt><trkpt lat="44.75874404208253" lon="10.539136205996392"><ele>30.0</ele><time>2026-05-01T07:33:06.999Z</time></trkpt><trkpt lat="44.758585719818456" lon="10.539485373881751"><ele>30.5</ele><time>2026-05-01T07:33:07.999Z</time></trkpt><trkpt lat="44.758421189356376" lon="10.539832452240304"><ele>31.0</ele><time>2026-05-01T07:33:08.999Z</time></trkpt><trkpt lat="44.75825622166441" lon="10.540178582292947"><ele>30.5</ele><time>2026-05-01T07:33:09.999Z</time></trkpt><trkpt lat="44.75808885509803" lon="10.540520804600325"><ele>30.0</ele><time>2026-05-01T07:33:10.999Z</time></trkpt><trkpt lat="44.75792276756196" lon="10.540866915234673"><ele>30.0</ele><time>2026-05-01T07:33:11.999Z</time></trkpt><trkpt lat="44.75775798966296" lon="10.541210279678184"><ele>30.0</ele><time>2026-05-01T07:33:12.999Z</time></trkpt><trkpt lat="44.75760010370481" lon="10.5415597717397"><ele>32.0</ele><time>2026-05-01T07:33:13.999Z</time></trkpt><trkpt lat="44.75743845501677" lon="10.54190533083339"><ele>34.0</ele><time>2026-05-01T07:33:14.999Z</time></trkpt><trkpt lat="44.75727223576904" lon="10.54224744719921"><ele>34.0</ele><time>2026-05-01T07:33:15.999Z</time></trkpt><trkpt lat="44.757109896744424" lon="10.542587812878242"><ele>34.0</ele><time>2026-05-01T07:33:16.999Z</time></trkpt><trkpt lat="44.75694869299099" lon="10.542928006173687"><ele>34.5</ele><time>2026-05-01T07:33:17.999Z</time></trkpt><trkpt lat="44.75678974061721" lon="10.543262286196823"><ele>35.0</ele><time>2026-05-01T07:33:18.999Z</time></trkpt><trkpt lat="44.75662627688768" lon="10.54359409789277"><ele>34.5</ele><time>2026-05-01T07:33:19.999Z</time></trkpt><trkpt lat="44.75646985332393" lon="10.543935015198034"><ele>34.0</ele><time>2026-05-01T07:33:20.999Z</time></trkpt><trkpt lat="44.75630658194446" lon="10.544276287491973"><ele>33.5</ele><time>2026-05-01T07:33:21.999Z</time></trkpt><trkpt lat="44.75613824768844" lon="10.544614173278932"><ele>33.0</ele><time>2026-05-01T07:33:22.999Z</time></trkpt><trkpt lat="44.75596655502143" lon="10.544944697570806"><ele>33.0</ele><time>2026-05-01T07:33:23.999Z</time></trkpt><trkpt lat="44.75580084515962" lon="10.545288911407605"><ele>33.0</ele><time>2026-05-01T07:33:24.999Z</time></trkpt><trkpt lat="44.755639185201794" lon="10.545628539988114"><ele>33.0</ele><time>2026-05-01T07:33:25.999Z</time></trkpt><trkpt lat="44.75547139536346" lon="10.545967927174026"><ele>33.0</ele><time>2026-05-01T07:33:26.999Z</time></trkpt><trkpt lat="44.75531365451954" lon="10.546305710742406"><ele>32.5</ele><time>2026-05-01T07:33:27.999Z</time></trkpt><trkpt lat="44.75515043885141" lon="10.546651346355508"><ele>32.0</ele><time>2026-05-01T07:33:28.999Z</time></trkpt><trkpt lat="44.75498667929635" lon="10.54698773467664"><ele>32.5</ele><time>2026-05-01T07:33:29.999Z</time></trkpt><trkpt lat="44.754826135509234" lon="10.547327408136514"><ele>33.0</ele><time>2026-05-01T07:33:30.999Z</time></trkpt><trkpt lat="44.75466413195883" lon="10.547665905286403"><ele>33.0</ele><time>2026-05-01T07:33:31.999Z</time></trkpt><trkpt lat="44.754504932682636" lon="10.548003145772736"><ele>33.0</ele><time>2026-05-01T07:33:32.999Z</time></trkpt><trkpt lat="44.7543450868847" lon="10.548344971191721"><ele>33.0</ele><time>2026-05-01T07:33:33.999Z</time></trkpt><trkpt lat="44.75417991984157" lon="10.548682940019066"><ele>33.0</ele><time>2026-05-01T07:33:34.999Z</time></trkpt><trkpt lat="44.75401748319701" lon="10.549023398167206"><ele>33.0</ele><time>2026-05-01T07:33:35.999Z</time></trkpt><trkpt lat="44.75386152986502" lon="10.549366577326097"><ele>33.0</ele><time>2026-05-01T07:33:36.999Z</time></trkpt><trkpt lat="44.75369573881255" lon="10.549706779445465"><ele>33.5</ele><time>2026-05-01T07:33:37.999Z</time></trkpt><trkpt lat="44.75353336779155" lon="10.550050828889992"><ele>34.0</ele><time>2026-05-01T07:33:38.999Z</time></trkpt><trkpt lat="44.75337287885751" lon="10.55039577437866"><ele>34.0</ele><time>2026-05-01T07:33:39.999Z</time></trkpt><trkpt lat="44.75320989933015" lon="10.550746858525617"><ele>34.0</ele><time>2026-05-01T07:33:40.999Z</time></trkpt><trkpt lat="44.75304412636294" lon="10.55109262410831"><ele>33.0</ele><time>2026-05-01T07:33:41.999Z</time></trkpt><trkpt lat="44.752876162733166" lon="10.551442427534793"><ele>32.0</ele><time>2026-05-01T07:33:42.999Z</time></trkpt><trkpt lat="44.752711223643686" lon="10.551775417114532"><ele>32.5</ele><time>2026-05-01T07:33:43.999Z</time></trkpt><trkpt lat="44.75254945958358" lon="10.552116351390001"><ele>33.0</ele><time>2026-05-01T07:33:44.999Z</time></trkpt><trkpt lat="44.752393227606944" lon="10.552453781379391"><ele>33.0</ele><time>2026-05-01T07:33:45.999Z</time></trkpt><trkpt lat="44.75223640040054" lon="10.552783425213386"><ele>33.0</ele><time>2026-05-01T07:33:46.999Z</time></trkpt><trkpt lat="44.75208274994125" lon="10.55311109903304"><ele>33.0</ele><time>2026-05-01T07:33:47.999Z</time></trkpt><trkpt lat="44.75192879938852" lon="10.553441076061354"><ele>33.0</ele><time>2026-05-01T07:33:48.999Z</time></trkpt><trkpt lat="44.75177417256578" lon="10.553767817181843"><ele>33.0</ele><time>2026-05-01T07:33:49.999Z</time></trkpt><trkpt lat="44.751617228808996" lon="10.55407922756101"><ele>33.0</ele><time>2026-05-01T07:33:50.999Z</time></trkpt><trkpt lat="44.751467943811285" lon="10.554396558313362"><ele>32.5</ele><time>2026-05-01T07:33:51.999Z</time></trkpt><trkpt lat="44.751320864013856" lon="10.554716030052289"><ele>32.0</ele><time>2026-05-01T07:33:52.999Z</time></trkpt><trkpt lat="44.7511677658693" lon="10.555044187537941"><ele>32.5</ele><time>2026-05-01T07:33:53.999Z</time></trkpt><trkpt lat="44.751023034257855" lon="10.555360793122661"><ele>33.0</ele><time>2026-05-01T07:33:54.999Z</time></trkpt><trkpt lat="44.75087624968101" lon="10.555688619898644"><ele>33.0</ele><time>2026-05-01T07:33:55.999Z</time></trkpt><trkpt lat="44.75073170158883" lon="10.556019367067465"><ele>33.0</ele><time>2026-05-01T07:33:56.999Z</time></trkpt><trkpt lat="44.75057880969504" lon="10.556343376448591"><ele>33.5</ele><time>2026-05-01T07:33:57.999Z</time></trkpt><trkpt lat="44.7504236964069" lon="10.556665123850372"><ele>34.0</ele><time>2026-05-01T07:33:58.999Z</time></trkpt><trkpt lat="44.75026940379636" lon="10.556989588981047"><ele>34.0</ele><time>2026-05-01T07:33:59.999Z</time></trkpt><trkpt lat="44.75010925122435" lon="10.557320009446775"><ele>34.0</ele><time>2026-05-01T07:34:00.999Z</time></trkpt><trkpt lat="44.74995401173584" lon="10.557647055224967"><ele>34.0</ele><time>2026-05-01T07:34:01.999Z</time></trkpt><trkpt lat="44.74980034408014" lon="10.557977621755589"><ele>34.0</ele><time>2026-05-01T07:34:02.999Z</time></trkpt><trkpt lat="44.749645808802455" lon="10.558306050567994"><ele>34.0</ele><time>2026-05-01T07:34:03.999Z</time></trkpt><trkpt lat="44.749488091100034" lon="10.558632639112528"><ele>34.0</ele><time>2026-05-01T07:34:04.999Z</time></trkpt><trkpt lat="44.74933177644225" lon="10.558959971500757"><ele>34.5</ele><time>2026-05-01T07:34:05.999Z</time></trkpt><trkpt lat="44.749177393508596" lon="10.5592861510094"><ele>35.0</ele><time>2026-05-01T07:34:06.999Z</time></trkpt><trkpt lat="44.74902718419909" lon="10.55960721767552"><ele>35.0</ele><time>2026-05-01T07:34:07.999Z</time></trkpt><trkpt lat="44.748875425432814" lon="10.559930118926792"><ele>35.0</ele><time>2026-05-01T07:34:08.999Z</time></trkpt><trkpt lat="44.748725278922855" lon="10.560250298696795"><ele>35.0</ele><time>2026-05-01T07:34:09.999Z</time></trkpt><trkpt lat="44.748571047143955" lon="10.560573206648506"><ele>35.0</ele><time>2026-05-01T07:34:10.999Z</time></trkpt><trkpt lat="44.7484192500061" lon="10.560887982441203"><ele>35.5</ele><time>2026-05-01T07:34:11.999Z</time></trkpt><trkpt lat="44.74826904539868" lon="10.561207571451824"><ele>36.0</ele><time>2026-05-01T07:34:12.999Z</time></trkpt><trkpt lat="44.7481138567764" lon="10.561540092379373"><ele>36.0</ele><time>2026-05-01T07:34:13.999Z</time></trkpt><trkpt lat="44.747955937024535" lon="10.561874602625569"><ele>36.0</ele><time>2026-05-01T07:34:14.999Z</time></trkpt><trkpt lat="44.7477965416915" lon="10.562207733870927"><ele>36.0</ele><time>2026-05-01T07:34:15.999Z</time></trkpt><trkpt lat="44.74763603576916" lon="10.562539583787677"><ele>36.0</ele><time>2026-05-01T07:34:16.999Z</time></trkpt><trkpt lat="44.74747631575802" lon="10.562870515321222"><ele>35.5</ele><time>2026-05-01T07:34:17.999Z</time></trkpt><trkpt lat="44.747316709155285" lon="10.56320704472987"><ele>35.0</ele><time>2026-05-01T07:34:18.999Z</time></trkpt><trkpt lat="44.747156868697495" lon="10.563547428066032"><ele>34.5</ele><time>2026-05-01T07:34:19.999Z</time></trkpt><trkpt lat="44.74699812721355" lon="10.563885530973842"><ele>34.0</ele><time>2026-05-01T07:34:20.999Z</time></trkpt><trkpt lat="44.74683784825525" lon="10.564226495141517"><ele>35.0</ele><time>2026-05-01T07:34:21.999Z</time></trkpt><trkpt lat="44.746676414260236" lon="10.564570330894197"><ele>36.0</ele><time>2026-05-01T07:34:22.999Z</time></trkpt><trkpt lat="44.74651581608231" lon="10.564914807545376"><ele>36.0</ele><time>2026-05-01T07:34:23.999Z</time></trkpt><trkpt lat="44.746353186441375" lon="10.565259938580072"><ele>36.0</ele><time>2026-05-01T07:34:24.999Z</time></trkpt><trkpt lat="44.74619039986145" lon="10.565605960283994"><ele>36.5</ele><time>2026-05-01T07:34:25.999Z</time></trkpt><trkpt lat="44.74603253343021" lon="10.56594251542529"><ele>37.0</ele><time>2026-05-01T07:34:26.999Z</time></trkpt><trkpt lat="44.74587025812257" lon="10.566277604691848"><ele>37.0</ele><time>2026-05-01T07:34:27.999Z</time></trkpt><trkpt lat="44.74571100993887" lon="10.56661535577685"><ele>37.0</ele><time>2026-05-01T07:34:28.999Z</time></trkpt><trkpt lat="44.74555081663795" lon="10.566953243628085"><ele>36.5</ele><time>2026-05-01T07:34:29.999Z</time></trkpt><trkpt lat="44.74539280719056" lon="10.567290196005985"><ele>36.0</ele><time>2026-05-01T07:34:30.999Z</time></trkpt><trkpt lat="44.74523016288807" lon="10.567621608346132"><ele>35.5</ele><time>2026-05-01T07:34:31.999Z</time></trkpt><trkpt lat="44.74506742671158" lon="10.567949885784653"><ele>35.0</ele><time>2026-05-01T07:34:32.999Z</time></trkpt><trkpt lat="44.74490036978433" lon="10.568278569848797"><ele>35.0</ele><time>2026-05-01T07:34:33.999Z</time></trkpt><trkpt lat="44.74473174595479" lon="10.568608828546948"><ele>35.0</ele><time>2026-05-01T07:34:34.999Z</time></trkpt><trkpt lat="44.744568136933474" lon="10.568940703602474"><ele>35.0</ele><time>2026-05-01T07:34:35.999Z</time></trkpt><trkpt lat="44.74440530378353" lon="10.569278732049794"><ele>35.0</ele><time>2026-05-01T07:34:36.999Z</time></trkpt><trkpt lat="44.74424354660512" lon="10.569613627068486"><ele>35.0</ele><time>2026-05-01T07:34:37.999Z</time></trkpt><trkpt lat="44.74408182669147" lon="10.569947018016103"><ele>35.0</ele><time>2026-05-01T07:34:39Z</time></trkpt><trkpt lat="44.74392033910471" lon="10.570287155794626"><ele>34.0</ele><time>2026-05-01T07:34:40Z</time></trkpt><trkpt lat="44.743759283219184" lon="10.570620451522347"><ele>33.0</ele><time>2026-05-01T07:34:41Z</time></trkpt><trkpt lat="44.74359809284206" lon="10.570964168450605"><ele>33.5</ele><time>2026-05-01T07:34:42Z</time></trkpt><trkpt lat="44.74343823469104" lon="10.571299157391937"><ele>34.0</ele><time>2026-05-01T07:34:43Z</time></trkpt><trkpt lat="44.743280633831795" lon="10.57164384933876"><ele>34.0</ele><time>2026-05-01T07:34:44Z</time></trkpt><trkpt lat="44.743126585288685" lon="10.571987945368551"><ele>34.0</ele><time>2026-05-01T07:34:45Z</time></trkpt><trkpt lat="44.74297517039415" lon="10.572337686629991"><ele>33.5</ele><time>2026-05-01T07:34:46Z</time></trkpt><trkpt lat="44.74282666885349" lon="10.57269091895562"><ele>33.0</ele><time>2026-05-01T07:34:47Z</time></trkpt><trkpt lat="44.74268251490096" lon="10.573045367320674"><ele>33.5</ele><time>2026-05-01T07:34:48Z</time></trkpt><trkpt lat="44.74254257332049" lon="10.573399087177023"><ele>34.0</ele><time>2026-05-01T07:34:49Z</time></trkpt><trkpt lat="44.742407121679264" lon="10.573756461937723"><ele>34.0</ele><time>2026-05-01T07:34:50Z</time></trkpt><trkpt lat="44.742275250373964" lon="10.574113376141097"><ele>34.0</ele><time>2026-05-01T07:34:51Z</time></trkpt><trkpt lat="44.74214547511319" lon="10.574476163276238"><ele>34.0</ele><time>2026-05-01T07:34:52Z</time></trkpt><trkpt lat="44.742017325679555" lon="10.574838965412823"><ele>34.0</ele><time>2026-05-01T07:34:53Z</time></trkpt><trkpt lat="44.74189282909541" lon="10.575203717013006"><ele>34.0</ele><time>2026-05-01T07:34:54Z</time></trkpt><trkpt lat="44.7417718528593" lon="10.575570926432558"><ele>34.0</ele><time>2026-05-01T07:34:55Z</time></trkpt><trkpt lat="44.74165527606665" lon="10.5759393464775"><ele>34.5</ele><time>2026-05-01T07:34:56Z</time></trkpt><trkpt lat="44.74154155172437" lon="10.576313178745494"><ele>35.0</ele><time>2026-05-01T07:34:57Z</time></trkpt><trkpt lat="44.7414307382233" lon="10.576689643118756"><ele>35.0</ele><time>2026-05-01T07:34:58Z</time></trkpt><trkpt lat="44.74132323316427" lon="10.577068388629705"><ele>35.0</ele><time>2026-05-01T07:34:59Z</time></trkpt><trkpt lat="44.741219189671604" lon="10.577446470883423"><ele>35.0</ele><time>2026-05-01T07:35:00Z</time></trkpt><trkpt lat="44.74111770597115" lon="10.577825333558032"><ele>35.0</ele><time>2026-05-01T07:35:01Z</time></trkpt><trkpt lat="44.741018335320874" lon="10.578205040814723"><ele>36.5</ele><time>2026-05-01T07:35:02Z</time></trkpt><trkpt lat="44.740922195971734" lon="10.57858604974413"><ele>38.0</ele><time>2026-05-01T07:35:03Z</time></trkpt><trkpt lat="44.740828033560874" lon="10.578970801017507"><ele>38.0</ele><time>2026-05-01T07:35:04Z</time></trkpt><trkpt lat="44.74073816379548" lon="10.579353279524534"><ele>38.0</ele><time>2026-05-01T07:35:04.999Z</time></trkpt><trkpt lat="44.740647595166536" lon="10.579735023389594"><ele>38.0</ele><time>2026-05-01T07:35:05.999Z</time></trkpt><trkpt lat="44.7405576733261" lon="10.580116178129769"><ele>38.0</ele><time>2026-05-01T07:35:06.999Z</time></trkpt><trkpt lat="44.740468658222426" lon="10.58049823257335"><ele>38.0</ele><time>2026-05-01T07:35:07.999Z</time></trkpt><trkpt lat="44.74037909567602" lon="10.58088236664012"><ele>38.0</ele><time>2026-05-01T07:35:08.999Z</time></trkpt><trkpt lat="44.740289055134376" lon="10.58126652340296"><ele>37.5</ele><time>2026-05-01T07:35:09.999Z</time></trkpt><trkpt lat="44.74019902714484" lon="10.581650560037932"><ele>37.0</ele><time>2026-05-01T07:35:10.999Z</time></trkpt><trkpt lat="44.74010915372748" lon="10.582033816092775"><ele>37.0</ele><time>2026-05-01T07:35:11.999Z</time></trkpt><trkpt lat="44.740018651661885" lon="10.582417691565821"><ele>37.0</ele><time>2026-05-01T07:35:12.999Z</time></trkpt><trkpt lat="44.739927968996135" lon="10.582802057831202"><ele>37.0</ele><time>2026-05-01T07:35:13.999Z</time></trkpt><trkpt lat="44.73983691419563" lon="10.583186504159357"><ele>37.0</ele><time>2026-05-01T07:35:14.999Z</time></trkpt><trkpt lat="44.73974500172246" lon="10.58357010293871"><ele>37.5</ele><time>2026-05-01T07:35:15.999Z</time></trkpt><trkpt lat="44.7396553763317" lon="10.58395533778364"><ele>38.0</ele><time>2026-05-01T07:35:16.999Z</time></trkpt><trkpt lat="44.7395659027662" lon="10.58433970399099"><ele>37.5</ele><time>2026-05-01T07:35:17.999Z</time></trkpt><trkpt lat="44.73947662120459" lon="10.584721513582421"><ele>37.0</ele><time>2026-05-01T07:35:18.999Z</time></trkpt><trkpt lat="44.73938768250547" lon="10.585102049332823"><ele>37.5</ele><time>2026-05-01T07:35:19.999Z</time></trkpt><trkpt lat="44.73929848024121" lon="10.585478542657974"><ele>38.0</ele><time>2026-05-01T07:35:20.999Z</time></trkpt><trkpt lat="44.73920686387912" lon="10.585856145476384"><ele>37.5</ele><time>2026-05-01T07:35:21.999Z</time></trkpt><trkpt lat="44.7391185281341" lon="10.58623957564356"><ele>37.0</ele><time>2026-05-01T07:35:22.999Z</time></trkpt><trkpt lat="44.739032893219274" lon="10.586623258646647"><ele>37.0</ele><time>2026-05-01T07:35:23.999Z</time></trkpt><trkpt lat="44.73895201550294" lon="10.587001940578375"><ele>37.0</ele><time>2026-05-01T07:35:24.999Z</time></trkpt><trkpt lat="44.73886793406442" lon="10.587386742033411"><ele>37.5</ele><time>2026-05-01T07:35:25.999Z</time></trkpt><trkpt lat="44.738780378454244" lon="10.587769251187405"><ele>38.0</ele><time>2026-05-01T07:35:26.999Z</time></trkpt><trkpt lat="44.73869202667716" lon="10.588151710777867"><ele>39.0</ele><time>2026-05-01T07:35:27.999Z</time></trkpt><trkpt lat="44.73860486196226" lon="10.588532916725365"><ele>40.0</ele><time>2026-05-01T07:35:28.999Z</time></trkpt><trkpt lat="44.73851488806799" lon="10.588916981613176"><ele>38.0</ele><time>2026-05-01T07:35:29.999Z</time></trkpt><trkpt lat="44.73842474623115" lon="10.589301118677625"><ele>36.0</ele><time>2026-05-01T07:35:30.999Z</time></trkpt><trkpt lat="44.738334920150656" lon="10.589687858204686"><ele>36.0</ele><time>2026-05-01T07:35:31.999Z</time></trkpt><trkpt lat="44.73824390350805" lon="10.590071878240648"><ele>36.0</ele><time>2026-05-01T07:35:32.999Z</time></trkpt><trkpt lat="44.7381527122278" lon="10.590456475199916"><ele>36.0</ele><time>2026-05-01T07:35:33.999Z</time></trkpt><trkpt lat="44.73806111864755" lon="10.590843562343547"><ele>36.0</ele><time>2026-05-01T07:35:34.999Z</time></trkpt><trkpt lat="44.737970228417986" lon="10.591226726155726"><ele>36.0</ele><time>2026-05-01T07:35:35.999Z</time></trkpt><trkpt lat="44.737878568066265" lon="10.591610889115007"><ele>36.0</ele><time>2026-05-01T07:35:36.999Z</time></trkpt><trkpt lat="44.73778609802107" lon="10.59199602926481"><ele>37.0</ele><time>2026-05-01T07:35:37.999Z</time></trkpt><trkpt lat="44.73769446430377" lon="10.592384098101471"><ele>38.0</ele><time>2026-05-01T07:35:38.999Z</time></trkpt><trkpt lat="44.73760500564498" lon="10.592770297169045"><ele>38.0</ele><time>2026-05-01T07:35:39.999Z</time></trkpt><trkpt lat="44.73751529204747" lon="10.59315380942441"><ele>38.0</ele><time>2026-05-01T07:35:40.999Z</time></trkpt><trkpt lat="44.73742451452791" lon="10.593537056910922"><ele>36.5</ele><time>2026-05-01T07:35:41.999Z</time></trkpt><trkpt lat="44.73733246924367" lon="10.59391880513592"><ele>35.0</ele><time>2026-05-01T07:35:42.999Z</time></trkpt><trkpt lat="44.73724051150278" lon="10.594300777411679"><ele>35.5</ele><time>2026-05-01T07:35:43.999Z</time></trkpt><trkpt lat="44.73715043283135" lon="10.594682331405572"><ele>36.0</ele><time>2026-05-01T07:35:44.999Z</time></trkpt><trkpt lat="44.73706102580265" lon="10.595062506318165"><ele>36.5</ele><time>2026-05-01T07:35:45.999Z</time></trkpt><trkpt lat="44.73697388413882" lon="10.595440953804378"><ele>37.0</ele><time>2026-05-01T07:35:46.999Z</time></trkpt><trkpt lat="44.73688826616516" lon="10.595813609289142"><ele>37.5</ele><time>2026-05-01T07:35:47.999Z</time></trkpt><trkpt lat="44.73680098678908" lon="10.596184297242836"><ele>38.0</ele><time>2026-05-01T07:35:48.999Z</time></trkpt><trkpt lat="44.73671248952628" lon="10.596554944209506"><ele>38.0</ele><time>2026-05-01T07:35:49.999Z</time></trkpt><trkpt lat="44.7366247397728" lon="10.596925669170883"><ele>38.0</ele><time>2026-05-01T07:35:50.999Z</time></trkpt><trkpt lat="44.73653834282948" lon="10.597294514960643"><ele>38.0</ele><time>2026-05-01T07:35:51.999Z</time></trkpt><trkpt lat="44.73645112598659" lon="10.597661543515343"><ele>38.0</ele><time>2026-05-01T07:35:52.999Z</time></trkpt><trkpt lat="44.73636438574931" lon="10.598030306484432"><ele>38.5</ele><time>2026-05-01T07:35:53.999Z</time></trkpt><trkpt lat="44.73627742660588" lon="10.598398573540425"><ele>39.0</ele><time>2026-05-01T07:35:54.999Z</time></trkpt><trkpt lat="44.736189687543884" lon="10.59876366630792"><ele>39.0</ele><time>2026-05-01T07:35:55.999Z</time></trkpt><trkpt lat="44.73610167109843" lon="10.599131245405017"><ele>39.0</ele><time>2026-05-01T07:35:56.999Z</time></trkpt><trkpt lat="44.7360148120037" lon="10.599497517538971"><ele>38.5</ele><time>2026-05-01T07:35:57.999Z</time></trkpt><trkpt lat="44.73593074859483" lon="10.59986167353281"><ele>38.0</ele><time>2026-05-01T07:35:58.999Z</time></trkpt><trkpt lat="44.73584689042124" lon="10.600221622869197"><ele>39.0</ele><time>2026-05-01T07:35:59.999Z</time></trkpt><trkpt lat="44.735759769356214" lon="10.600581941980016"><ele>40.0</ele><time>2026-05-01T07:36:00.999Z</time></trkpt><trkpt lat="44.73567242367216" lon="10.60094561722584"><ele>40.0</ele><time>2026-05-01T07:36:01.999Z</time></trkpt><trkpt lat="44.735586776836804" lon="10.601309683541329"><ele>40.0</ele><time>2026-05-01T07:36:02.999Z</time></trkpt><trkpt lat="44.73549957720312" lon="10.601677154876775"><ele>40.0</ele><time>2026-05-01T07:36:03.999Z</time></trkpt><trkpt lat="44.73541227529946" lon="10.602045912484531"><ele>40.0</ele><time>2026-05-01T07:36:04.999Z</time></trkpt><trkpt lat="44.73532266117113" lon="10.602421541894737"><ele>40.0</ele><time>2026-05-01T07:36:05.999Z</time></trkpt><trkpt lat="44.735233299419505" lon="10.602800362006683"><ele>40.0</ele><time>2026-05-01T07:36:06.999Z</time></trkpt><trkpt lat="44.73514389746656" lon="10.603182673292675"><ele>39.5</ele><time>2026-05-01T07:36:07.999Z</time></trkpt><trkpt lat="44.735052592264594" lon="10.603561356496678"><ele>39.0</ele><time>2026-05-01T07:36:08.999Z</time></trkpt><trkpt lat="44.73495988635058" lon="10.603940906442096"><ele>38.0</ele><time>2026-05-01T07:36:09.999Z</time></trkpt><trkpt lat="44.73486489885033" lon="10.604319610524353"><ele>37.0</ele><time>2026-05-01T07:36:10.999Z</time></trkpt><trkpt lat="44.734766845670336" lon="10.6047004579745"><ele>37.0</ele><time>2026-05-01T07:36:11.999Z</time></trkpt><trkpt lat="44.734671186264855" lon="10.605080464481132"><ele>37.0</ele><time>2026-05-01T07:36:12.999Z</time></trkpt><trkpt lat="44.734577298433486" lon="10.605462422965454"><ele>38.0</ele><time>2026-05-01T07:36:13.999Z</time></trkpt><trkpt lat="44.73448446454237" lon="10.60584626060155"><ele>39.0</ele><time>2026-05-01T07:36:14.999Z</time></trkpt><trkpt lat="44.73439372853595" lon="10.606227419602954"><ele>39.0</ele><time>2026-05-01T07:36:15.999Z</time></trkpt><trkpt lat="44.73430383422655" lon="10.60661032547723"><ele>39.0</ele><time>2026-05-01T07:36:16.999Z</time></trkpt><trkpt lat="44.734213880378114" lon="10.606993941107904"><ele>39.0</ele><time>2026-05-01T07:36:17.999Z</time></trkpt><trkpt lat="44.73412215718407" lon="10.607379233143838"><ele>39.0</ele><time>2026-05-01T07:36:18.999Z</time></trkpt><trkpt lat="44.734030332836525" lon="10.607764484108158"><ele>41.0</ele><time>2026-05-01T07:36:19.999Z</time></trkpt><trkpt lat="44.73394027618689" lon="10.608149037476844"><ele>43.0</ele><time>2026-05-01T07:36:20.999Z</time></trkpt><trkpt lat="44.73385061008555" lon="10.608531671947892"><ele>44.5</ele><time>2026-05-01T07:36:21.999Z</time></trkpt><trkpt lat="44.7337589399951" lon="10.608915511659895"><ele>46.0</ele><time>2026-05-01T07:36:22.999Z</time></trkpt><trkpt lat="44.73366798103359" lon="10.609297618883792"><ele>45.0</ele><time>2026-05-01T07:36:23.999Z</time></trkpt><trkpt lat="44.73357771960949" lon="10.60967965319185"><ele>44.0</ele><time>2026-05-01T07:36:24.999Z</time></trkpt><trkpt lat="44.73348840344193" lon="10.610057779465336"><ele>44.5</ele><time>2026-05-01T07:36:25.999Z</time></trkpt><trkpt lat="44.7333984673061" lon="10.610439260408498"><ele>45.0</ele><time>2026-05-01T07:36:26.999Z</time></trkpt><trkpt lat="44.733307735007344" lon="10.610821587547733"><ele>46.0</ele><time>2026-05-01T07:36:27.999Z</time></trkpt><trkpt lat="44.733217144413" lon="10.61120335051142"><ele>47.0</ele><time>2026-05-01T07:36:28.999Z</time></trkpt><trkpt lat="44.73312885750267" lon="10.611580581839622"><ele>47.0</ele><time>2026-05-01T07:36:29.999Z</time></trkpt><trkpt lat="44.73304175799011" lon="10.611954308816024"><ele>47.0</ele><time>2026-05-01T07:36:30.999Z</time></trkpt><trkpt lat="44.73295309305706" lon="10.612330670880386"><ele>46.0</ele><time>2026-05-01T07:36:31.999Z</time></trkpt><trkpt lat="44.73286421259701" lon="10.612706330524615"><ele>45.0</ele><time>2026-05-01T07:36:32.999Z</time></trkpt><trkpt lat="44.73277607151827" lon="10.613080338491313"><ele>44.0</ele><time>2026-05-01T07:36:33.999Z</time></trkpt><trkpt lat="44.73268690745262" lon="10.61345459593869"><ele>43.0</ele><time>2026-05-01T07:36:34.999Z</time></trkpt><trkpt lat="44.73259799826786" lon="10.613832577661496"><ele>43.0</ele><time>2026-05-01T07:36:35.999Z</time></trkpt><trkpt lat="44.73250870199228" lon="10.614208726244408"><ele>43.0</ele><time>2026-05-01T07:36:36.999Z</time></trkpt><trkpt lat="44.73241933446929" lon="10.61458718240193"><ele>44.0</ele><time>2026-05-01T07:36:37.999Z</time></trkpt><trkpt lat="44.73232925653688" lon="10.61496941177658"><ele>45.0</ele><time>2026-05-01T07:36:38.999Z</time></trkpt><trkpt lat="44.73224058343809" lon="10.615348806872626"><ele>45.5</ele><time>2026-05-01T07:36:39.999Z</time></trkpt><trkpt lat="44.73215140384258" lon="10.615726588486075"><ele>46.0</ele><time>2026-05-01T07:36:40.999Z</time></trkpt><trkpt lat="44.73206091901837" lon="10.616103211792437"><ele>45.0</ele><time>2026-05-01T07:36:41.999Z</time></trkpt><trkpt lat="44.731972908274734" lon="10.616476999106192"><ele>44.0</ele><time>2026-05-01T07:36:42.999Z</time></trkpt><trkpt lat="44.731882801519546" lon="10.616851755602427"><ele>42.0</ele><time>2026-05-01T07:36:43.999Z</time></trkpt><trkpt lat="44.731793042291784" lon="10.617225896988714"><ele>40.0</ele><time>2026-05-01T07:36:45Z</time></trkpt><trkpt lat="44.73170372305929" lon="10.617599647321716"><ele>40.0</ele><time>2026-05-01T07:36:46Z</time></trkpt><trkpt lat="44.73161356108771" lon="10.61797651057362"><ele>40.0</ele><time>2026-05-01T07:36:47Z</time></trkpt><trkpt lat="44.731526935163046" lon="10.618350571056755"><ele>39.5</ele><time>2026-05-01T07:36:48Z</time></trkpt><trkpt lat="44.731440552616256" lon="10.618723484623459"><ele>39.0</ele><time>2026-05-01T07:36:49Z</time></trkpt><trkpt lat="44.73135414887235" lon="10.619097560015526"><ele>39.0</ele><time>2026-05-01T07:36:50Z</time></trkpt><trkpt lat="44.73126693992544" lon="10.619474260066024"><ele>39.0</ele><time>2026-05-01T07:36:51Z</time></trkpt><trkpt lat="44.731180753547" lon="10.619849866638088"><ele>40.0</ele><time>2026-05-01T07:36:52Z</time></trkpt><trkpt lat="44.731093166567334" lon="10.620225652198767"><ele>41.0</ele><time>2026-05-01T07:36:53Z</time></trkpt><trkpt lat="44.7310057629426" lon="10.620602448960424"><ele>41.5</ele><time>2026-05-01T07:36:54Z</time></trkpt><trkpt lat="44.73091983524179" lon="10.620979210659407"><ele>42.0</ele><time>2026-05-01T07:36:55Z</time></trkpt><trkpt lat="44.7308337024712" lon="10.62135654408255"><ele>43.0</ele><time>2026-05-01T07:36:56Z</time></trkpt><trkpt lat="44.73074917405718" lon="10.621729454626665"><ele>44.0</ele><time>2026-05-01T07:36:57Z</time></trkpt><trkpt lat="44.73066559610807" lon="10.622100525017043"><ele>44.0</ele><time>2026-05-01T07:36:58Z</time></trkpt><trkpt lat="44.73058192350823" lon="10.622469580299693"><ele>44.0</ele><time>2026-05-01T07:36:59Z</time></trkpt><trkpt lat="44.73050016799681" lon="10.622834004644748"><ele>45.0</ele><time>2026-05-01T07:37:00Z</time></trkpt><trkpt lat="44.73041845324233" lon="10.623193774339287"><ele>46.0</ele><time>2026-05-01T07:37:01Z</time></trkpt><trkpt lat="44.73033471203181" lon="10.623551930763448"><ele>44.0</ele><time>2026-05-01T07:37:02Z</time></trkpt><trkpt lat="44.73024974561366" lon="10.623907776572665"><ele>42.0</ele><time>2026-05-01T07:37:03Z</time></trkpt><trkpt lat="44.73016182696551" lon="10.624257775018627"><ele>42.0</ele><time>2026-05-01T07:37:03.999Z</time></trkpt><trkpt lat="44.73007033243028" lon="10.624609091835138"><ele>42.0</ele><time>2026-05-01T07:37:04.999Z</time></trkpt><trkpt lat="44.729981136583355" lon="10.624962011814171"><ele>42.0</ele><time>2026-05-01T07:37:05.999Z</time></trkpt><trkpt lat="44.72989363181434" lon="10.625316426861634"><ele>42.0</ele><time>2026-05-01T07:37:06.999Z</time></trkpt><trkpt lat="44.729808253713884" lon="10.625673403132135"><ele>42.0</ele><time>2026-05-01T07:37:07.999Z</time></trkpt><trkpt lat="44.72972340252672" lon="10.626027855866752"><ele>42.0</ele><time>2026-05-01T07:37:08.999Z</time></trkpt><trkpt lat="44.72963815499106" lon="10.626383445135069"><ele>41.0</ele><time>2026-05-01T07:37:09.999Z</time></trkpt><trkpt lat="44.729552686757884" lon="10.626739875601146"><ele>40.0</ele><time>2026-05-01T07:37:10.999Z</time></trkpt><trkpt lat="44.7294663770696" lon="10.627098886870229"><ele>40.0</ele><time>2026-05-01T07:37:11.999Z</time></trkpt><trkpt lat="44.72938042534801" lon="10.627458711076878"><ele>40.0</ele><time>2026-05-01T07:37:12.999Z</time></trkpt><trkpt lat="44.72929426172432" lon="10.627815633322555"><ele>39.5</ele><time>2026-05-01T07:37:13.999Z</time></trkpt><trkpt lat="44.72920856953161" lon="10.628175113831958"><ele>39.0</ele><time>2026-05-01T07:37:14.999Z</time></trkpt><trkpt lat="44.72912484528663" lon="10.628530771750935"><ele>39.0</ele><time>2026-05-01T07:37:15.999Z</time></trkpt><trkpt lat="44.729041301643335" lon="10.628883992092948"><ele>39.0</ele><time>2026-05-01T07:37:16.999Z</time></trkpt><trkpt lat="44.72895674599762" lon="10.629242345209564"><ele>38.0</ele><time>2026-05-01T07:37:17.999Z</time></trkpt><trkpt lat="44.72887139387274" lon="10.629601786431646"><ele>37.0</ele><time>2026-05-01T07:37:18.999Z</time></trkpt><trkpt lat="44.728786538154765" lon="10.629963766708068"><ele>36.5</ele><time>2026-05-01T07:37:19.999Z</time></trkpt><trkpt lat="44.72869776488895" lon="10.630325566540996"><ele>36.0</ele><time>2026-05-01T07:37:20.999Z</time></trkpt><trkpt lat="44.72861076138222" lon="10.630688753351741"><ele>37.0</ele><time>2026-05-01T07:37:21.999Z</time></trkpt><trkpt lat="44.72852468596083" lon="10.631051883807869"><ele>38.0</ele><time>2026-05-01T07:37:22.999Z</time></trkpt><trkpt lat="44.72843856758648" lon="10.631417059018169"><ele>38.0</ele><time>2026-05-01T07:37:23.999Z</time></trkpt><trkpt lat="44.728352771370474" lon="10.631785420551786"><ele>38.0</ele><time>2026-05-01T07:37:24.999Z</time></trkpt><trkpt lat="44.728264913553616" lon="10.632159139078247"><ele>37.5</ele><time>2026-05-01T07:37:25.999Z</time></trkpt><trkpt lat="44.72817764400348" lon="10.632535716222826"><ele>37.0</ele><time>2026-05-01T07:37:26.999Z</time></trkpt><trkpt lat="44.728089821021676" lon="10.632918062140226"><ele>36.5</ele><time>2026-05-01T07:37:27.999Z</time></trkpt><trkpt lat="44.72800128729429" lon="10.63330441242832"><ele>36.0</ele><time>2026-05-01T07:37:28.999Z</time></trkpt><trkpt lat="44.727911901494096" lon="10.63369095492718"><ele>35.5</ele><time>2026-05-01T07:37:29.999Z</time></trkpt><trkpt lat="44.727822438361784" lon="10.634086186763312"><ele>35.0</ele><time>2026-05-01T07:37:30.999Z</time></trkpt><trkpt lat="44.727735473508375" lon="10.634477921984711"><ele>35.0</ele><time>2026-05-01T07:37:31.999Z</time></trkpt><trkpt lat="44.72764977457896" lon="10.634870565983709"><ele>35.0</ele><time>2026-05-01T07:37:32.999Z</time></trkpt><trkpt lat="44.727564730869325" lon="10.63526149231646"><ele>35.5</ele><time>2026-05-01T07:37:33.999Z</time></trkpt><trkpt lat="44.727479947599484" lon="10.635650741977479"><ele>36.0</ele><time>2026-05-01T07:37:34.999Z</time></trkpt><trkpt lat="44.72739670290955" lon="10.636042292401228"><ele>37.0</ele><time>2026-05-01T07:37:35.999Z</time></trkpt><trkpt lat="44.727315736671514" lon="10.636429547115934"><ele>38.0</ele><time>2026-05-01T07:37:36.999Z</time></trkpt><trkpt lat="44.72723610525345" lon="10.636820789091171"><ele>37.5</ele><time>2026-05-01T07:37:37.999Z</time></trkpt><trkpt lat="44.72715669324513" lon="10.637209888858957"><ele>37.0</ele><time>2026-05-01T07:37:38.999Z</time></trkpt><trkpt lat="44.72708071492206" lon="10.637601699936189"><ele>36.5</ele><time>2026-05-01T07:37:39.999Z</time></trkpt><trkpt lat="44.72700884657083" lon="10.637998277330443"><ele>36.0</ele><time>2026-05-01T07:37:40.999Z</time></trkpt><trkpt lat="44.72692653317606" lon="10.638378265101322"><ele>37.0</ele><time>2026-05-01T07:37:41.999Z</time></trkpt><trkpt lat="44.72684627145786" lon="10.638766735526051"><ele>38.0</ele><time>2026-05-01T07:37:42.999Z</time></trkpt><trkpt lat="44.726765436210854" lon="10.639154155477359"><ele>37.5</ele><time>2026-05-01T07:37:43.999Z</time></trkpt><trkpt lat="44.72668664922723" lon="10.639541039137363"><ele>37.0</ele><time>2026-05-01T07:37:44.999Z</time></trkpt><trkpt lat="44.72660866613339" lon="10.639927362612555"><ele>36.5</ele><time>2026-05-01T07:37:45.999Z</time></trkpt><trkpt lat="44.72652954285269" lon="10.640317540666324"><ele>36.0</ele><time>2026-05-01T07:37:46.999Z</time></trkpt><trkpt lat="44.72645094245887" lon="10.640707920005722"><ele>36.0</ele><time>2026-05-01T07:37:47.999Z</time></trkpt><trkpt lat="44.72637294052003" lon="10.641095554620595"><ele>36.0</ele><time>2026-05-01T07:37:48.999Z</time></trkpt><trkpt lat="44.72629284151947" lon="10.641483409004032"><ele>36.0</ele><time>2026-05-01T07:37:49.999Z</time></trkpt><trkpt lat="44.72621209514228" lon="10.641873553544462"><ele>36.0</ele><time>2026-05-01T07:37:50.999Z</time></trkpt><trkpt lat="44.72613074977154" lon="10.642262709373266"><ele>36.5</ele><time>2026-05-01T07:37:51.999Z</time></trkpt><trkpt lat="44.7260509988513" lon="10.642650927484889"><ele>37.0</ele><time>2026-05-01T07:37:53Z</time></trkpt><trkpt lat="44.72597562351637" lon="10.643033796643296"><ele>37.0</ele><time>2026-05-01T07:37:54Z</time></trkpt><trkpt lat="44.725899272690775" lon="10.643413485411145"><ele>37.0</ele><time>2026-05-01T07:37:55Z</time></trkpt><trkpt lat="44.72582421422816" lon="10.643785487997205"><ele>37.0</ele><time>2026-05-01T07:37:56Z</time></trkpt><trkpt lat="44.72574995357977" lon="10.64415317129096"><ele>37.0</ele><time>2026-05-01T07:37:57Z</time></trkpt><trkpt lat="44.72567789359675" lon="10.644517485789512"><ele>37.0</ele><time>2026-05-01T07:37:58Z</time></trkpt><trkpt lat="44.72560662517443" lon="10.64487986303007"><ele>37.0</ele><time>2026-05-01T07:37:59Z</time></trkpt><trkpt lat="44.725538817461036" lon="10.645238640619883"><ele>38.0</ele><time>2026-05-01T07:38:00Z</time></trkpt><trkpt lat="44.725471049897465" lon="10.645597293503444"><ele>39.0</ele><time>2026-05-01T07:38:01Z</time></trkpt><trkpt lat="44.72540378165356" lon="10.64595131987031"><ele>40.5</ele><time>2026-05-01T07:38:02Z</time></trkpt><trkpt lat="44.725338053542664" lon="10.646300049890597"><ele>42.0</ele><time>2026-05-01T07:38:03Z</time></trkpt><trkpt lat="44.725276553232284" lon="10.646635138179448"><ele>41.0</ele><time>2026-05-01T07:38:04Z</time></trkpt><trkpt lat="44.72521313089424" lon="10.646960209182819"><ele>40.0</ele><time>2026-05-01T07:38:05Z</time></trkpt><trkpt lat="44.72514731574563" lon="10.647286819640483"><ele>40.0</ele><time>2026-05-01T07:38:06Z</time></trkpt><trkpt lat="44.72507977817961" lon="10.647611302454825"><ele>40.0</ele><time>2026-05-01T07:38:07Z</time></trkpt><trkpt lat="44.72500976761913" lon="10.647937095982536"><ele>39.5</ele><time>2026-05-01T07:38:08Z</time></trkpt><trkpt lat="44.724940675874294" lon="10.648267349333775"><ele>39.0</ele><time>2026-05-01T07:38:09Z</time></trkpt><trkpt lat="44.724872153273225" lon="10.648604393138328"><ele>37.5</ele><time>2026-05-01T07:38:10Z</time></trkpt><trkpt lat="44.72480520593005" lon="10.648942482759635"><ele>36.0</ele><time>2026-05-01T07:38:11Z</time></trkpt><trkpt lat="44.724736297455564" lon="10.649286794888896"><ele>36.5</ele><time>2026-05-01T07:38:12Z</time></trkpt><trkpt lat="44.72466554272849" lon="10.649631886369095"><ele>37.0</ele><time>2026-05-01T07:38:13Z</time></trkpt><trkpt lat="44.72459242860516" lon="10.649980507366532"><ele>36.0</ele><time>2026-05-01T07:38:14Z</time></trkpt><trkpt lat="44.724518943652996" lon="10.650332383355344"><ele>35.0</ele><time>2026-05-01T07:38:15Z</time></trkpt><trkpt lat="44.724447774373516" lon="10.65068986252425"><ele>35.5</ele><time>2026-05-01T07:38:16Z</time></trkpt><trkpt lat="44.724378152579334" lon="10.651052242565113"><ele>36.0</ele><time>2026-05-01T07:38:17Z</time></trkpt><trkpt lat="44.72430563528547" lon="10.651413479846571"><ele>36.0</ele><time>2026-05-01T07:38:18Z</time></trkpt><trkpt lat="44.72422611947317" lon="10.651777356627596"><ele>36.0</ele><time>2026-05-01T07:38:19Z</time></trkpt><trkpt lat="44.72414820535885" lon="10.652142220924492"><ele>35.5</ele><time>2026-05-01T07:38:20Z</time></trkpt><trkpt lat="44.724077598177274" lon="10.65251178144363"><ele>35.0</ele><time>2026-05-01T07:38:21Z</time></trkpt><trkpt lat="44.724002868866656" lon="10.652882486242003"><ele>35.0</ele><time>2026-05-01T07:38:22Z</time></trkpt><trkpt lat="44.72392445343246" lon="10.653252611601722"><ele>35.0</ele><time>2026-05-01T07:38:23Z</time></trkpt><trkpt lat="44.723846982576426" lon="10.653626739087212"><ele>34.5</ele><time>2026-05-01T07:38:24Z</time></trkpt><trkpt lat="44.72376935920211" lon="10.653998651970443"><ele>34.0</ele><time>2026-05-01T07:38:25Z</time></trkpt><trkpt lat="44.723691699616126" lon="10.654371998367601"><ele>34.0</ele><time>2026-05-01T07:38:26Z</time></trkpt><trkpt lat="44.72361550809461" lon="10.654742837004573"><ele>34.0</ele><time>2026-05-01T07:38:27Z</time></trkpt><trkpt lat="44.723539351304225" lon="10.655115131798105"><ele>35.0</ele><time>2026-05-01T07:38:28Z</time></trkpt><trkpt lat="44.7234629945483" lon="10.655484323294774"><ele>36.0</ele><time>2026-05-01T07:38:29Z</time></trkpt><trkpt lat="44.723381535745865" lon="10.655854991398899"><ele>36.5</ele><time>2026-05-01T07:38:30Z</time></trkpt><trkpt lat="44.72329641074921" lon="10.656225559763344"><ele>37.0</ele><time>2026-05-01T07:38:31Z</time></trkpt><trkpt lat="44.72321423835665" lon="10.656597138210458"><ele>37.0</ele><time>2026-05-01T07:38:32Z</time></trkpt><trkpt lat="44.72313506693473" lon="10.656970477272091"><ele>37.0</ele><time>2026-05-01T07:38:33Z</time></trkpt><trkpt lat="44.72305788324178" lon="10.657344180999592"><ele>37.0</ele><time>2026-05-01T07:38:34Z</time></trkpt><trkpt lat="44.72297952694444" lon="10.65771707542014"><ele>37.0</ele><time>2026-05-01T07:38:35Z</time></trkpt><trkpt lat="44.72290133892846" lon="10.658090498558202"><ele>37.0</ele><time>2026-05-01T07:38:36Z</time></trkpt><trkpt lat="44.7228243669726" lon="10.658465244664391"><ele>37.0</ele><time>2026-05-01T07:38:37Z</time></trkpt><trkpt lat="44.72274808993477" lon="10.658842021999266"><ele>37.0</ele><time>2026-05-01T07:38:38Z</time></trkpt><trkpt lat="44.72267251238011" lon="10.65921832837638"><ele>37.0</ele><time>2026-05-01T07:38:39Z</time></trkpt><trkpt lat="44.722596434587636" lon="10.659593750458491"><ele>37.5</ele><time>2026-05-01T07:38:40Z</time></trkpt><trkpt lat="44.72251959257169" lon="10.659968461886642"><ele>38.0</ele><time>2026-05-01T07:38:41Z</time></trkpt><trkpt lat="44.72244392628837" lon="10.660342832621033"><ele>38.5</ele><time>2026-05-01T07:38:42Z</time></trkpt><trkpt lat="44.722370582454566" lon="10.660716504202247"><ele>39.0</ele><time>2026-05-01T07:38:43Z</time></trkpt><trkpt lat="44.72229684538837" lon="10.661093099747845"><ele>38.0</ele><time>2026-05-01T07:38:44Z</time></trkpt><trkpt lat="44.722223619930396" lon="10.661465979861031"><ele>37.0</ele><time>2026-05-01T07:38:45Z</time></trkpt><trkpt lat="44.72214817879253" lon="10.661838296246742"><ele>36.0</ele><time>2026-05-01T07:38:46Z</time></trkpt><trkpt lat="44.72207448104226" lon="10.662209570312077"><ele>35.0</ele><time>2026-05-01T07:38:47Z</time></trkpt><trkpt lat="44.72200159441369" lon="10.662579084255329"><ele>35.0</ele><time>2026-05-01T07:38:48Z</time></trkpt><trkpt lat="44.72192694220452" lon="10.662948464377006"><ele>35.0</ele><time>2026-05-01T07:38:49Z</time></trkpt><trkpt lat="44.721851466046935" lon="10.663317713358849"><ele>35.0</ele><time>2026-05-01T07:38:50Z</time></trkpt><trkpt lat="44.72177564049977" lon="10.663685959428493"><ele>35.0</ele><time>2026-05-01T07:38:51Z</time></trkpt><trkpt lat="44.721701316593375" lon="10.664053811871664"><ele>35.0</ele><time>2026-05-01T07:38:52.001Z</time></trkpt><trkpt lat="44.72162580182359" lon="10.664416783117549"><ele>35.0</ele><time>2026-05-01T07:38:53Z</time></trkpt><trkpt lat="44.72154691673805" lon="10.664782338850468"><ele>35.0</ele><time>2026-05-01T07:38:54.001Z</time></trkpt><trkpt lat="44.721469437300705" lon="10.665145950618719"><ele>35.0</ele><time>2026-05-01T07:38:55.001Z</time></trkpt><trkpt lat="44.721392845252595" lon="10.665511612851398"><ele>35.0</ele><time>2026-05-01T07:38:56Z</time></trkpt><trkpt lat="44.721316167337584" lon="10.665876167388356"><ele>35.0</ele><time>2026-05-01T07:38:57Z</time></trkpt><trkpt lat="44.72123815094862" lon="10.666245533667553"><ele>35.0</ele><time>2026-05-01T07:38:58.001Z</time></trkpt><trkpt lat="44.72116168976472" lon="10.666613267670026"><ele>35.0</ele><time>2026-05-01T07:38:59Z</time></trkpt><trkpt lat="44.72108554545076" lon="10.666984061101022"><ele>34.5</ele><time>2026-05-01T07:39:00Z</time></trkpt><trkpt lat="44.72101049874987" lon="10.667353182708613"><ele>34.0</ele><time>2026-05-01T07:39:01.001Z</time></trkpt><trkpt lat="44.720934866888754" lon="10.667724767424227"><ele>35.0</ele><time>2026-05-01T07:39:02Z</time></trkpt><trkpt lat="44.72085861469047" lon="10.668094449342455"><ele>36.0</ele><time>2026-05-01T07:39:03Z</time></trkpt><trkpt lat="44.720782061900884" lon="10.668466267700678"><ele>36.0</ele><time>2026-05-01T07:39:04Z</time></trkpt><trkpt lat="44.720705594864135" lon="10.668836909446586"><ele>36.0</ele><time>2026-05-01T07:39:05Z</time></trkpt><trkpt lat="44.7206282387223" lon="10.669209826595344"><ele>35.0</ele><time>2026-05-01T07:39:06Z</time></trkpt><trkpt lat="44.720551892772015" lon="10.669582225973349"><ele>34.0</ele><time>2026-05-01T07:39:07Z</time></trkpt><trkpt lat="44.720474844864" lon="10.66995226643678"><ele>35.0</ele><time>2026-05-01T07:39:08Z</time></trkpt><trkpt lat="44.72039765121693" lon="10.67032298123756"><ele>36.0</ele><time>2026-05-01T07:39:09Z</time></trkpt><trkpt lat="44.72032133762394" lon="10.670695804725849"><ele>36.0</ele><time>2026-05-01T07:39:10Z</time></trkpt><trkpt lat="44.72024710078156" lon="10.671066222251989"><ele>36.0</ele><time>2026-05-01T07:39:11Z</time></trkpt><trkpt lat="44.720171821508615" lon="10.671436431265969"><ele>36.0</ele><time>2026-05-01T07:39:12Z</time></trkpt><trkpt lat="44.7200980728921" lon="10.67180478551153"><ele>36.0</ele><time>2026-05-01T07:39:13Z</time></trkpt><trkpt lat="44.720023847508" lon="10.672169187143362"><ele>36.0</ele><time>2026-05-01T07:39:14Z</time></trkpt><trkpt lat="44.71994923361691" lon="10.672534561337846"><ele>36.0</ele><time>2026-05-01T07:39:15Z</time></trkpt><trkpt lat="44.71987410625783" lon="10.672898140267828"><ele>37.0</ele><time>2026-05-01T07:39:16Z</time></trkpt><trkpt lat="44.719798573398094" lon="10.673259669901206"><ele>38.0</ele><time>2026-05-01T07:39:17Z</time></trkpt><trkpt lat="44.71972445978675" lon="10.67362042695782"><ele>38.5</ele><time>2026-05-01T07:39:18Z</time></trkpt><trkpt lat="44.71964960773217" lon="10.67398127618864"><ele>39.0</ele><time>2026-05-01T07:39:19Z</time></trkpt><trkpt lat="44.71957508270575" lon="10.67434292057343"><ele>38.0</ele><time>2026-05-01T07:39:20Z</time></trkpt><trkpt lat="44.719499593504864" lon="10.6747051121903"><ele>37.0</ele><time>2026-05-01T07:39:21Z</time></trkpt><trkpt lat="44.71942417747332" lon="10.675067058358806"><ele>37.5</ele><time>2026-05-01T07:39:22Z</time></trkpt><trkpt lat="44.7193490618235" lon="10.675428797732264"><ele>38.0</ele><time>2026-05-01T07:39:23Z</time></trkpt><trkpt lat="44.71927518480237" lon="10.67579185021183"><ele>39.0</ele><time>2026-05-01T07:39:24Z</time></trkpt><trkpt lat="44.71920300010579" lon="10.676150314973345"><ele>40.0</ele><time>2026-05-01T07:39:25Z</time></trkpt><trkpt lat="44.71913141964139" lon="10.67650576059373"><ele>40.0</ele><time>2026-05-01T07:39:26Z</time></trkpt><trkpt lat="44.71906094268906" lon="10.67685901147523"><ele>40.0</ele><time>2026-05-01T07:39:27Z</time></trkpt><trkpt lat="44.71898975868507" lon="10.677212101708134"><ele>39.5</ele><time>2026-05-01T07:39:28Z</time></trkpt><trkpt lat="44.71891866877925" lon="10.677562013875932"><ele>39.0</ele><time>2026-05-01T07:39:29Z</time></trkpt><trkpt lat="44.71884704144096" lon="10.677909108584558"><ele>38.5</ele><time>2026-05-01T07:39:30Z</time></trkpt><trkpt lat="44.71877660599513" lon="10.678254858870925"><ele>38.0</ele><time>2026-05-01T07:39:31Z</time></trkpt><trkpt lat="44.7187072470436" lon="10.678600771001408"><ele>38.0</ele><time>2026-05-01T07:39:32Z</time></trkpt><trkpt lat="44.71863680634866" lon="10.67894677744885"><ele>38.0</ele><time>2026-05-01T07:39:33Z</time></trkpt><trkpt lat="44.718565732260124" lon="10.679292360710225"><ele>38.0</ele><time>2026-05-01T07:39:34Z</time></trkpt><trkpt lat="44.71849382036499" lon="10.679640528608019"><ele>38.0</ele><time>2026-05-01T07:39:35Z</time></trkpt><trkpt lat="44.71842233006344" lon="10.679988345452745"><ele>39.5</ele><time>2026-05-01T07:39:36Z</time></trkpt><trkpt lat="44.718352544427134" lon="10.680335216336694"><ele>41.0</ele><time>2026-05-01T07:39:37Z</time></trkpt><trkpt lat="44.71828580183416" lon="10.680681626022322"><ele>41.0</ele><time>2026-05-01T07:39:38Z</time></trkpt><trkpt lat="44.718219853879695" lon="10.68103412164233"><ele>41.0</ele><time>2026-05-01T07:39:39Z</time></trkpt><trkpt lat="44.71815386896907" lon="10.68138820152211"><ele>39.5</ele><time>2026-05-01T07:39:40Z</time></trkpt><trkpt lat="44.71808662174839" lon="10.681744658794708"><ele>38.0</ele><time>2026-05-01T07:39:41Z</time></trkpt><trkpt lat="44.71801743589061" lon="10.68209849573641"><ele>38.0</ele><time>2026-05-01T07:39:42Z</time></trkpt><trkpt lat="44.717947467370315" lon="10.682448895881134"><ele>38.0</ele><time>2026-05-01T07:39:43Z</time></trkpt><trkpt lat="44.71787548081921" lon="10.682798391641287"><ele>38.0</ele><time>2026-05-01T07:39:44Z</time></trkpt><trkpt lat="44.71780350571952" lon="10.683151183522732"><ele>38.0</ele><time>2026-05-01T07:39:45Z</time></trkpt><trkpt lat="44.71773271139792" lon="10.683505500188984"><ele>38.5</ele><time>2026-05-01T07:39:46Z</time></trkpt><trkpt lat="44.71766188844386" lon="10.683861832133495"><ele>39.0</ele><time>2026-05-01T07:39:47Z</time></trkpt><trkpt lat="44.71759152309832" lon="10.684221439543823"><ele>39.0</ele><time>2026-05-01T07:39:48Z</time></trkpt><trkpt lat="44.71752262764244" lon="10.684585379834443"><ele>39.0</ele><time>2026-05-01T07:39:49Z</time></trkpt><trkpt lat="44.717452379053626" lon="10.684950195644673"><ele>37.5</ele><time>2026-05-01T07:39:50Z</time></trkpt><trkpt lat="44.71738121676806" lon="10.685316345086346"><ele>36.0</ele><time>2026-05-01T07:39:51Z</time></trkpt><trkpt lat="44.717308006663686" lon="10.685682293913176"><ele>36.0</ele><time>2026-05-01T07:39:52Z</time></trkpt><trkpt lat="44.71723507702386" lon="10.68604811874437"><ele>36.0</ele><time>2026-05-01T07:39:53Z</time></trkpt><trkpt lat="44.717162287402466" lon="10.686414494489316"><ele>36.5</ele><time>2026-05-01T07:39:54Z</time></trkpt><trkpt lat="44.71708861597069" lon="10.686784960698171"><ele>37.0</ele><time>2026-05-01T07:39:55Z</time></trkpt><trkpt lat="44.717014413057775" lon="10.687157217058827"><ele>37.0</ele><time>2026-05-01T07:39:56Z</time></trkpt><trkpt lat="44.71693928744027" lon="10.687527708019902"><ele>37.0</ele><time>2026-05-01T07:39:57Z</time></trkpt><trkpt lat="44.7168609652988" lon="10.687900213070499"><ele>38.0</ele><time>2026-05-01T07:39:58Z</time></trkpt><trkpt lat="44.71677972858157" lon="10.688273744990783"><ele>39.0</ele><time>2026-05-01T07:39:59Z</time></trkpt><trkpt lat="44.71669599860126" lon="10.688645865348136"><ele>39.0</ele><time>2026-05-01T07:40:00Z</time></trkpt><trkpt lat="44.7166111991266" lon="10.689020605339646"><ele>39.0</ele><time>2026-05-01T07:40:01Z</time></trkpt><trkpt lat="44.716527853592645" lon="10.689396708261233"><ele>38.5</ele><time>2026-05-01T07:40:02Z</time></trkpt><trkpt lat="44.71644300044888" lon="10.689776402380645"><ele>38.0</ele><time>2026-05-01T07:40:03Z</time></trkpt><trkpt lat="44.71635656562792" lon="10.690153841123172"><ele>37.5</ele><time>2026-05-01T07:40:04Z</time></trkpt><trkpt lat="44.7162723793648" lon="10.690529224150625"><ele>37.0</ele><time>2026-05-01T07:40:05Z</time></trkpt><trkpt lat="44.716189324724056" lon="10.690906736278201"><ele>37.0</ele><time>2026-05-01T07:40:06Z</time></trkpt><trkpt lat="44.716107824503354" lon="10.691288318203378"><ele>37.0</ele><time>2026-05-01T07:40:07Z</time></trkpt><trkpt lat="44.71602751698732" lon="10.691673782095789"><ele>37.5</ele><time>2026-05-01T07:40:08Z</time></trkpt><trkpt lat="44.71594586636656" lon="10.692064120404904"><ele>38.0</ele><time>2026-05-01T07:40:09Z</time></trkpt><trkpt lat="44.71586377524976" lon="10.69245989643489"><ele>39.0</ele><time>2026-05-01T07:40:10Z</time></trkpt><trkpt lat="44.71578094621505" lon="10.69285843434492"><ele>40.0</ele><time>2026-05-01T07:40:11Z</time></trkpt><trkpt lat="44.71570928495878" lon="10.693189271449615"><ele>40.0</ele><time>2026-05-01T07:40:12Z</time></trkpt><trkpt lat="44.715631813922" lon="10.69357267602671"><ele>40.0</ele><time>2026-05-01T07:40:13Z</time></trkpt><trkpt lat="44.71555371822983" lon="10.693960397136696"><ele>40.0</ele><time>2026-05-01T07:40:14Z</time></trkpt><trkpt lat="44.715471359921104" lon="10.694346468559793"><ele>40.0</ele><time>2026-05-01T07:40:15Z</time></trkpt><trkpt lat="44.715392948358684" lon="10.694726509157597"><ele>40.0</ele><time>2026-05-01T07:40:16Z</time></trkpt><trkpt lat="44.71531416916581" lon="10.69510912682847"><ele>40.0</ele><time>2026-05-01T07:40:17Z</time></trkpt><trkpt lat="44.71524076011969" lon="10.69548876739793"><ele>39.5</ele><time>2026-05-01T07:40:18Z</time></trkpt><trkpt lat="44.71516276896764" lon="10.695866998041561"><ele>39.0</ele><time>2026-05-01T07:40:19Z</time></trkpt><trkpt lat="44.71508415001286" lon="10.696248304252391"><ele>38.5</ele><time>2026-05-01T07:40:20Z</time></trkpt><trkpt lat="44.71500862807808" lon="10.696630343075093"><ele>38.0</ele><time>2026-05-01T07:40:21Z</time></trkpt><trkpt lat="44.71493083482722" lon="10.697014422234199"><ele>37.5</ele><time>2026-05-01T07:40:22Z</time></trkpt><trkpt lat="44.71484951456684" lon="10.697391479296709"><ele>37.0</ele><time>2026-05-01T07:40:23Z</time></trkpt><trkpt lat="44.71477197786711" lon="10.697778351380354"><ele>37.0</ele><time>2026-05-01T07:40:24Z</time></trkpt><trkpt lat="44.71469446273825" lon="10.698158679257094"><ele>37.0</ele><time>2026-05-01T07:40:25Z</time></trkpt><trkpt lat="44.71461411780669" lon="10.698540009670541"><ele>37.5</ele><time>2026-05-01T07:40:26Z</time></trkpt><trkpt lat="44.71453905245234" lon="10.698924687930376"><ele>38.0</ele><time>2026-05-01T07:40:27Z</time></trkpt><trkpt lat="44.71446066918725" lon="10.699304168998472"><ele>39.0</ele><time>2026-05-01T07:40:28Z</time></trkpt><trkpt lat="44.71438214950991" lon="10.699679150802838"><ele>40.0</ele><time>2026-05-01T07:40:29Z</time></trkpt><trkpt lat="44.71430340187315" lon="10.700064446693997"><ele>40.5</ele><time>2026-05-01T07:40:30Z</time></trkpt><trkpt lat="44.71422490203835" lon="10.7004420420317"><ele>41.0</ele><time>2026-05-01T07:40:31Z</time></trkpt><trkpt lat="44.71414965337493" lon="10.700820028700223"><ele>41.0</ele><time>2026-05-01T07:40:32Z</time></trkpt><trkpt lat="44.71407432074735" lon="10.701200378897287"><ele>41.0</ele><time>2026-05-01T07:40:33Z</time></trkpt><trkpt lat="44.71399362912157" lon="10.70158270595786"><ele>40.5</ele><time>2026-05-01T07:40:34Z</time></trkpt><trkpt lat="44.71391396692495" lon="10.701960716248083"><ele>40.0</ele><time>2026-05-01T07:40:35Z</time></trkpt><trkpt lat="44.71383617644768" lon="10.702341558367904"><ele>40.0</ele><time>2026-05-01T07:40:36Z</time></trkpt><trkpt lat="44.71375871511445" lon="10.702723135130858"><ele>40.0</ele><time>2026-05-01T07:40:37Z</time></trkpt><trkpt lat="44.71368040146836" lon="10.703098214759565"><ele>39.5</ele><time>2026-05-01T07:40:38Z</time></trkpt><trkpt lat="44.713606011619504" lon="10.703479281639531"><ele>39.0</ele><time>2026-05-01T07:40:39Z</time></trkpt><trkpt lat="44.71352869758293" lon="10.703859853801085"><ele>39.0</ele><time>2026-05-01T07:40:40Z</time></trkpt><trkpt lat="44.713450859425734" lon="10.704241100519104"><ele>39.0</ele><time>2026-05-01T07:40:41Z</time></trkpt><trkpt lat="44.71337542160834" lon="10.70461881396855"><ele>38.5</ele><time>2026-05-01T07:40:42Z</time></trkpt><trkpt lat="44.71329619442364" lon="10.704996524587694"><ele>38.0</ele><time>2026-05-01T07:40:43Z</time></trkpt><trkpt lat="44.71322202918148" lon="10.705375754652385"><ele>38.0</ele><time>2026-05-01T07:40:44Z</time></trkpt><trkpt lat="44.713146245236224" lon="10.70575214560334"><ele>38.0</ele><time>2026-05-01T07:40:45Z</time></trkpt><trkpt lat="44.7130712911243" lon="10.706131618852881"><ele>38.0</ele><time>2026-05-01T07:40:46Z</time></trkpt><trkpt lat="44.712997207902504" lon="10.70650518772897"><ele>38.0</ele><time>2026-05-01T07:40:47Z</time></trkpt><trkpt lat="44.71292585575838" lon="10.706889609886984"><ele>37.5</ele><time>2026-05-01T07:40:48Z</time></trkpt><trkpt lat="44.712854661300575" lon="10.707264583197464"><ele>37.0</ele><time>2026-05-01T07:40:49Z</time></trkpt><trkpt lat="44.712780295054436" lon="10.707637904557844"><ele>37.5</ele><time>2026-05-01T07:40:50Z</time></trkpt><trkpt lat="44.712707857277834" lon="10.708017251890109"><ele>38.0</ele><time>2026-05-01T07:40:50.999Z</time></trkpt><trkpt lat="44.71263381023722" lon="10.708388400561693"><ele>38.5</ele><time>2026-05-01T07:40:51.999Z</time></trkpt><trkpt lat="44.71255842337921" lon="10.708756571191863"><ele>39.0</ele><time>2026-05-01T07:40:52.999Z</time></trkpt><trkpt lat="44.71248181565406" lon="10.709128854359072"><ele>39.0</ele><time>2026-05-01T07:40:53.999Z</time></trkpt><trkpt lat="44.7124051969224" lon="10.709496324250066"><ele>39.0</ele><time>2026-05-01T07:40:54.999Z</time></trkpt><trkpt lat="44.71233053721931" lon="10.709868965226338"><ele>40.0</ele><time>2026-05-01T07:40:55.999Z</time></trkpt><trkpt lat="44.71225110889134" lon="10.710243534901238"><ele>41.0</ele><time>2026-05-01T07:40:57Z</time></trkpt><trkpt lat="44.71217353671229" lon="10.710618239398398"><ele>41.0</ele><time>2026-05-01T07:40:58Z</time></trkpt><trkpt lat="44.71209617066904" lon="10.710994304528832"><ele>41.0</ele><time>2026-05-01T07:40:59Z</time></trkpt><trkpt lat="44.71201944763311" lon="10.711369985860776"><ele>41.0</ele><time>2026-05-01T07:41:00Z</time></trkpt><trkpt lat="44.71194434987757" lon="10.711754597849954"><ele>41.0</ele><time>2026-05-01T07:41:01Z</time></trkpt><trkpt lat="44.71186747868255" lon="10.712134260673198"><ele>40.5</ele><time>2026-05-01T07:41:02Z</time></trkpt><trkpt lat="44.71179007033612" lon="10.712516038950689"><ele>40.0</ele><time>2026-05-01T07:41:03Z</time></trkpt><trkpt lat="44.71171405559416" lon="10.712896860815224"><ele>40.0</ele><time>2026-05-01T07:41:04Z</time></trkpt><trkpt lat="44.71163594922453" lon="10.713274586958338"><ele>40.0</ele><time>2026-05-01T07:41:05Z</time></trkpt><trkpt lat="44.71155917853564" lon="10.713654201505763"><ele>40.0</ele><time>2026-05-01T07:41:06Z</time></trkpt><trkpt lat="44.71148228297911" lon="10.714036436753851"><ele>40.0</ele><time>2026-05-01T07:41:07Z</time></trkpt><trkpt lat="44.71140336863169" lon="10.714413496914757"><ele>39.5</ele><time>2026-05-01T07:41:08Z</time></trkpt><trkpt lat="44.71132498820639" lon="10.714788695496775"><ele>39.0</ele><time>2026-05-01T07:41:09Z</time></trkpt><trkpt lat="44.711245428415126" lon="10.715162506793824"><ele>39.0</ele><time>2026-05-01T07:41:10Z</time></trkpt><trkpt lat="44.71115973425694" lon="10.715536956490482"><ele>39.0</ele><time>2026-05-01T07:41:11Z</time></trkpt><trkpt lat="44.7110725468622" lon="10.71590865616284"><ele>38.5</ele><time>2026-05-01T07:41:12Z</time></trkpt><trkpt lat="44.710986779183536" lon="10.716278752753624"><ele>38.0</ele><time>2026-05-01T07:41:13Z</time></trkpt><trkpt lat="44.71091148907276" lon="10.716656901769182"><ele>38.0</ele><time>2026-05-01T07:41:14Z</time></trkpt><trkpt lat="44.71083874734235" lon="10.717032674515467"><ele>38.0</ele><time>2026-05-01T07:41:15Z</time></trkpt><trkpt lat="44.71076353297588" lon="10.717402965855042"><ele>38.0</ele><time>2026-05-01T07:41:16Z</time></trkpt><trkpt lat="44.71068655680335" lon="10.717774784807926"><ele>38.0</ele><time>2026-05-01T07:41:17Z</time></trkpt><trkpt lat="44.71060964561276" lon="10.718146731620715"><ele>38.0</ele><time>2026-05-01T07:41:18Z</time></trkpt><trkpt lat="44.71053319158688" lon="10.71852172621819"><ele>38.0</ele><time>2026-05-01T07:41:19Z</time></trkpt><trkpt lat="44.71045596625423" lon="10.718895062043034"><ele>38.0</ele><time>2026-05-01T07:41:20Z</time></trkpt><trkpt lat="44.71037683489492" lon="10.719267480728439"><ele>38.0</ele><time>2026-05-01T07:41:21Z</time></trkpt><trkpt lat="44.71029670600721" lon="10.719640300684238"><ele>38.0</ele><time>2026-05-01T07:41:22Z</time></trkpt><trkpt lat="44.71021509295823" lon="10.720016561516164"><ele>38.0</ele><time>2026-05-01T07:41:23Z</time></trkpt><trkpt lat="44.71013045814107" lon="10.720393011087475"><ele>37.5</ele><time>2026-05-01T07:41:24Z</time></trkpt><trkpt lat="44.71004261441338" lon="10.72076965401204"><ele>37.0</ele><time>2026-05-01T07:41:25Z</time></trkpt><trkpt lat="44.70995151199199" lon="10.721145917191823"><ele>38.0</ele><time>2026-05-01T07:41:26Z</time></trkpt><trkpt lat="44.70985863586697" lon="10.721521923881586"><ele>39.0</ele><time>2026-05-01T07:41:27Z</time></trkpt><trkpt lat="44.70976446729444" lon="10.721897553433575"><ele>40.0</ele><time>2026-05-01T07:41:28Z</time></trkpt><trkpt lat="44.70966917155251" lon="10.722269529242997"><ele>41.0</ele><time>2026-05-01T07:41:29Z</time></trkpt><trkpt lat="44.7095724112097" lon="10.722641820458445"><ele>41.0</ele><time>2026-05-01T07:41:30Z</time></trkpt><trkpt lat="44.709473305755644" lon="10.723010279151277"><ele>41.0</ele><time>2026-05-01T07:41:31Z</time></trkpt><trkpt lat="44.70937177052419" lon="10.72338003739557"><ele>40.0</ele><time>2026-05-01T07:41:32Z</time></trkpt><trkpt lat="44.709265362842146" lon="10.723750087267643"><ele>39.0</ele><time>2026-05-01T07:41:33Z</time></trkpt><trkpt lat="44.709156748509045" lon="10.724118660618498"><ele>39.5</ele><time>2026-05-01T07:41:34Z</time></trkpt><trkpt lat="44.709045956241454" lon="10.724488006713083"><ele>40.0</ele><time>2026-05-01T07:41:35Z</time></trkpt><trkpt lat="44.70893310194958" lon="10.72485452325761"><ele>40.0</ele><time>2026-05-01T07:41:36Z</time></trkpt><trkpt lat="44.70881880910921" lon="10.725222584980209"><ele>40.0</ele><time>2026-05-01T07:41:37Z</time></trkpt><trkpt lat="44.70870226943884" lon="10.72558617137243"><ele>40.0</ele><time>2026-05-01T07:41:38Z</time></trkpt><trkpt lat="44.70858486216897" lon="10.725949504213771"><ele>40.0</ele><time>2026-05-01T07:41:39Z</time></trkpt><trkpt lat="44.70846479475028" lon="10.726310890650273"><ele>40.0</ele><time>2026-05-01T07:41:40Z</time></trkpt><trkpt lat="44.70834294076323" lon="10.726669374695918"><ele>40.0</ele><time>2026-05-01T07:41:41Z</time></trkpt><trkpt lat="44.708220697907535" lon="10.727028397828676"><ele>40.0</ele><time>2026-05-01T07:41:42Z</time></trkpt><trkpt lat="44.708097623218755" lon="10.72738541837485"><ele>40.0</ele><time>2026-05-01T07:41:43Z</time></trkpt><trkpt lat="44.70797179322696" lon="10.727744981975164"><ele>39.5</ele><time>2026-05-01T07:41:44Z</time></trkpt><trkpt lat="44.70784530882297" lon="10.728105151017074"><ele>39.0</ele><time>2026-05-01T07:41:45Z</time></trkpt><trkpt lat="44.70772069610603" lon="10.728467279733852"><ele>39.5</ele><time>2026-05-01T07:41:46Z</time></trkpt><trkpt lat="44.707597011275666" lon="10.728829573935784"><ele>40.0</ele><time>2026-05-01T07:41:47Z</time></trkpt><trkpt lat="44.70747345230935" lon="10.729190772734869"><ele>39.5</ele><time>2026-05-01T07:41:48Z</time></trkpt><trkpt lat="44.70735008556126" lon="10.729551872710951"><ele>39.0</ele><time>2026-05-01T07:41:49Z</time></trkpt><trkpt lat="44.7072256935336" lon="10.729913187227007"><ele>39.5</ele><time>2026-05-01T07:41:50Z</time></trkpt><trkpt lat="44.7071000880272" lon="10.73027369856525"><ele>40.0</ele><time>2026-05-01T07:41:51Z</time></trkpt><trkpt lat="44.70697380104054" lon="10.730635650257152"><ele>40.0</ele><time>2026-05-01T07:41:52Z</time></trkpt><trkpt lat="44.70684799438978" lon="10.730995245382369"><ele>40.0</ele><time>2026-05-01T07:41:53Z</time></trkpt><trkpt lat="44.70672486917913" lon="10.731351851042856"><ele>40.0</ele><time>2026-05-01T07:41:54Z</time></trkpt><trkpt lat="44.70660004666707" lon="10.731710889980167"><ele>40.0</ele><time>2026-05-01T07:41:55Z</time></trkpt><trkpt lat="44.706474968387724" lon="10.732070955721193"><ele>40.0</ele><time>2026-05-01T07:41:56Z</time></trkpt><trkpt lat="44.706351418081745" lon="10.732432021140554"><ele>40.0</ele><time>2026-05-01T07:41:57Z</time></trkpt><trkpt lat="44.70622675280618" lon="10.732793829902391"><ele>40.0</ele><time>2026-05-01T07:41:58Z</time></trkpt><trkpt lat="44.706100693023906" lon="10.73315451578828"><ele>40.0</ele><time>2026-05-01T07:41:59Z</time></trkpt><trkpt lat="44.705975680873436" lon="10.733517571508903"><ele>40.0</ele><time>2026-05-01T07:42:00Z</time></trkpt><trkpt lat="44.70585222408035" lon="10.73388181128373"><ele>40.0</ele><time>2026-05-01T07:42:01Z</time></trkpt><trkpt lat="44.70572869630324" lon="10.734246389057882"><ele>40.0</ele><time>2026-05-01T07:42:02Z</time></trkpt><trkpt lat="44.70560404847673" lon="10.734609999779266"><ele>40.0</ele><time>2026-05-01T07:42:03Z</time></trkpt><trkpt lat="44.705477917241545" lon="10.734975081464874"><ele>39.5</ele><time>2026-05-01T07:42:04Z</time></trkpt><trkpt lat="44.70535199648458" lon="10.7353384072273"><ele>39.0</ele><time>2026-05-01T07:42:05Z</time></trkpt><trkpt lat="44.70522593989805" lon="10.735700532074798"><ele>39.5</ele><time>2026-05-01T07:42:06Z</time></trkpt><trkpt lat="44.70510103831299" lon="10.736065643327548"><ele>40.0</ele><time>2026-05-01T07:42:07Z</time></trkpt><trkpt lat="44.70497479781568" lon="10.736427372387082"><ele>40.0</ele><time>2026-05-01T07:42:08Z</time></trkpt><trkpt lat="44.70485029301706" lon="10.736790029173674"><ele>40.0</ele><time>2026-05-01T07:42:09Z</time></trkpt><trkpt lat="44.70472696518877" lon="10.737144045250435"><ele>40.0</ele><time>2026-05-01T07:42:10Z</time></trkpt><trkpt lat="44.70460525520824" lon="10.737496047484418"><ele>40.0</ele><time>2026-05-01T07:42:11Z</time></trkpt><trkpt lat="44.70448419724747" lon="10.737840347224108"><ele>39.5</ele><time>2026-05-01T07:42:12Z</time></trkpt><trkpt lat="44.70436467134279" lon="10.738185338443852"><ele>39.0</ele><time>2026-05-01T07:42:13Z</time></trkpt><trkpt lat="44.704248812452164" lon="10.738526439206822"><ele>39.0</ele><time>2026-05-01T07:42:14Z</time></trkpt><trkpt lat="44.70413469052328" lon="10.738866564132582"><ele>39.0</ele><time>2026-05-01T07:42:15Z</time></trkpt><trkpt lat="44.70402110040877" lon="10.739208048881379"><ele>39.0</ele><time>2026-05-01T07:42:16Z</time></trkpt><trkpt lat="44.70390745318825" lon="10.739548891693266"><ele>39.0</ele><time>2026-05-01T07:42:17Z</time></trkpt><trkpt lat="44.70379458031099" lon="10.739890930562725"><ele>39.0</ele><time>2026-05-01T07:42:18Z</time></trkpt><trkpt lat="44.703679259430295" lon="10.740234649363382"><ele>39.0</ele><time>2026-05-01T07:42:19Z</time></trkpt><trkpt lat="44.70356412124638" lon="10.74057682554557"><ele>39.5</ele><time>2026-05-01T07:42:20Z</time></trkpt><trkpt lat="44.7034490082871" lon="10.740917284280828"><ele>40.0</ele><time>2026-05-01T07:42:21Z</time></trkpt><trkpt lat="44.70333182737157" lon="10.741258783963449"><ele>40.5</ele><time>2026-05-01T07:42:22Z</time></trkpt><trkpt lat="44.70321414363848" lon="10.741604068881351"><ele>41.0</ele><time>2026-05-01T07:42:23Z</time></trkpt><trkpt lat="44.70309362632519" lon="10.741948263426416"><ele>40.0</ele><time>2026-05-01T07:42:24Z</time></trkpt><trkpt lat="44.70297272630835" lon="10.742294434015973"><ele>39.0</ele><time>2026-05-01T07:42:25Z</time></trkpt><trkpt lat="44.702852002110646" lon="10.742645806167443"><ele>38.5</ele><time>2026-05-01T07:42:26Z</time></trkpt><trkpt lat="44.702731934706556" lon="10.742996859026961"><ele>38.0</ele><time>2026-05-01T07:42:27Z</time></trkpt><trkpt lat="44.702609912847755" lon="10.743348635750614"><ele>39.5</ele><time>2026-05-01T07:42:28Z</time></trkpt><trkpt lat="44.702488249567196" lon="10.743702984021926"><ele>41.0</ele><time>2026-05-01T07:42:29Z</time></trkpt><trkpt lat="44.70236589974462" lon="10.744056091686813"><ele>41.5</ele><time>2026-05-01T07:42:30Z</time></trkpt><trkpt lat="44.70224273063829" lon="10.74441199767717"><ele>42.0</ele><time>2026-05-01T07:42:31Z</time></trkpt><trkpt lat="44.70212048511102" lon="10.744765299568991"><ele>42.0</ele><time>2026-05-01T07:42:32Z</time></trkpt><trkpt lat="44.7019927905585" lon="10.745122432283107"><ele>42.0</ele><time>2026-05-01T07:42:33Z</time></trkpt><trkpt lat="44.701873077084684" lon="10.745479931794744"><ele>40.5</ele><time>2026-05-01T07:42:34Z</time></trkpt><trkpt lat="44.70174999467484" lon="10.745840256167781"><ele>39.0</ele><time>2026-05-01T07:42:35Z</time></trkpt><trkpt lat="44.70162526775518" lon="10.746198794266997"><ele>39.0</ele><time>2026-05-01T07:42:36Z</time></trkpt><trkpt lat="44.701501022964806" lon="10.746561862707988"><ele>39.0</ele><time>2026-05-01T07:42:37Z</time></trkpt><trkpt lat="44.70137552290482" lon="10.746923663586216"><ele>39.0</ele><time>2026-05-01T07:42:38Z</time></trkpt><trkpt lat="44.70124695089598" lon="10.747282835730935"><ele>39.0</ele><time>2026-05-01T07:42:39Z</time></trkpt><trkpt lat="44.70112146690558" lon="10.747644609354097"><ele>38.5</ele><time>2026-05-01T07:42:40Z</time></trkpt><trkpt lat="44.70099706489904" lon="10.748005776915154"><ele>38.0</ele><time>2026-05-01T07:42:41Z</time></trkpt><trkpt lat="44.700871573994526" lon="10.748373853332492"><ele>37.5</ele><time>2026-05-01T07:42:42Z</time></trkpt><trkpt lat="44.70074528004647" lon="10.748737947590778"><ele>37.0</ele><time>2026-05-01T07:42:43Z</time></trkpt><trkpt lat="44.70061946527557" lon="10.749104854669211"><ele>37.5</ele><time>2026-05-01T07:42:44Z</time></trkpt><trkpt lat="44.700492008922076" lon="10.749471641064671"><ele>38.0</ele><time>2026-05-01T07:42:45Z</time></trkpt><trkpt lat="44.70036297481081" lon="10.7498478182917"><ele>39.0</ele><time>2026-05-01T07:42:46Z</time></trkpt><trkpt lat="44.700234467121874" lon="10.75022301737483"><ele>40.0</ele><time>2026-05-01T07:42:47Z</time></trkpt><trkpt lat="44.70010422904431" lon="10.750599032953023"><ele>40.0</ele><time>2026-05-01T07:42:48Z</time></trkpt><trkpt lat="44.69997254357563" lon="10.75097666883649"><ele>40.0</ele><time>2026-05-01T07:42:48.999Z</time></trkpt><trkpt lat="44.69983900063694" lon="10.751354410079323"><ele>39.5</ele><time>2026-05-01T07:42:49.999Z</time></trkpt><trkpt lat="44.69970553332763" lon="10.751734359371856"><ele>39.0</ele><time>2026-05-01T07:42:50.999Z</time></trkpt><trkpt lat="44.69957249337186" lon="10.752113147211693"><ele>39.0</ele><time>2026-05-01T07:42:51.999Z</time></trkpt><trkpt lat="44.699439306835124" lon="10.752494700068587"><ele>39.0</ele><time>2026-05-01T07:42:52.999Z</time></trkpt><trkpt lat="44.69930811945073" lon="10.752877090821194"><ele>39.0</ele><time>2026-05-01T07:42:53.999Z</time></trkpt><trkpt lat="44.69917769176881" lon="10.753257947425425"><ele>39.0</ele><time>2026-05-01T07:42:54.999Z</time></trkpt><trkpt lat="44.69904780877252" lon="10.753639844463928"><ele>39.0</ele><time>2026-05-01T07:42:55.999Z</time></trkpt><trkpt lat="44.6989169553378" lon="10.754020662818075"><ele>39.0</ele><time>2026-05-01T07:42:56.999Z</time></trkpt><trkpt lat="44.69878577281289" lon="10.754398710566978"><ele>39.0</ele><time>2026-05-01T07:42:57.999Z</time></trkpt><trkpt lat="44.6986538495962" lon="10.754777162292498"><ele>39.0</ele><time>2026-05-01T07:42:58.999Z</time></trkpt><trkpt lat="44.69852183448233" lon="10.755151210371888"><ele>38.5</ele><time>2026-05-01T07:42:59.999Z</time></trkpt><trkpt lat="44.69839008025932" lon="10.755529343129082"><ele>38.0</ele><time>2026-05-01T07:43:00.999Z</time></trkpt><trkpt lat="44.69825968039074" lon="10.755906831704758"><ele>38.0</ele><time>2026-05-01T07:43:01.999Z</time></trkpt><trkpt lat="44.69812900764609" lon="10.756285434769481"><ele>38.0</ele><time>2026-05-01T07:43:03Z</time></trkpt><trkpt lat="44.69799929093884" lon="10.756662080514403"><ele>37.5</ele><time>2026-05-01T07:43:04Z</time></trkpt><trkpt lat="44.69786904012817" lon="10.757039212325953"><ele>37.0</ele><time>2026-05-01T07:43:05Z</time></trkpt><trkpt lat="44.697740521305015" lon="10.757415414172703"><ele>37.5</ele><time>2026-05-01T07:43:06Z</time></trkpt><trkpt lat="44.697612829843166" lon="10.757790678984058"><ele>38.0</ele><time>2026-05-01T07:43:07Z</time></trkpt><trkpt lat="44.69748312797676" lon="10.758165115135869"><ele>38.5</ele><time>2026-05-01T07:43:08Z</time></trkpt><trkpt lat="44.69735196238143" lon="10.758535694588515"><ele>39.0</ele><time>2026-05-01T07:43:09Z</time></trkpt><trkpt lat="44.69721926713669" lon="10.758906701974908"><ele>39.0</ele><time>2026-05-01T07:43:10Z</time></trkpt><trkpt lat="44.6970891007643" lon="10.759279443594487"><ele>39.0</ele><time>2026-05-01T07:43:11Z</time></trkpt><trkpt lat="44.69696195385491" lon="10.759654267038895"><ele>38.5</ele><time>2026-05-01T07:43:12Z</time></trkpt><trkpt lat="44.69683311166711" lon="10.760027740401378"><ele>38.0</ele><time>2026-05-01T07:43:13Z</time></trkpt><trkpt lat="44.69670411014557" lon="10.76040085854943"><ele>38.5</ele><time>2026-05-01T07:43:14Z</time></trkpt><trkpt lat="44.696575811776306" lon="10.760772360447543"><ele>39.0</ele><time>2026-05-01T07:43:15Z</time></trkpt><trkpt lat="44.696447969902145" lon="10.76114253959705"><ele>39.0</ele><time>2026-05-01T07:43:16Z</time></trkpt><trkpt lat="44.69632073121037" lon="10.761512985804286"><ele>39.0</ele><time>2026-05-01T07:43:17Z</time></trkpt><trkpt lat="44.6961936084135" lon="10.76188180185026"><ele>40.0</ele><time>2026-05-01T07:43:18Z</time></trkpt><trkpt lat="44.69606535919375" lon="10.762250850834207"><ele>41.0</ele><time>2026-05-01T07:43:19Z</time></trkpt><trkpt lat="44.69593688252822" lon="10.762619236185968"><ele>41.5</ele><time>2026-05-01T07:43:20Z</time></trkpt><trkpt lat="44.69580978177901" lon="10.762983186157879"><ele>42.0</ele><time>2026-05-01T07:43:21Z</time></trkpt><trkpt lat="44.695680843243714" lon="10.763349470540176"><ele>41.0</ele><time>2026-05-01T07:43:22Z</time></trkpt><trkpt lat="44.69555202457485" lon="10.763717691449703"><ele>40.0</ele><time>2026-05-01T07:43:23Z</time></trkpt><trkpt lat="44.69542774870764" lon="10.764082060686937"><ele>40.0</ele><time>2026-05-01T07:43:24Z</time></trkpt><trkpt lat="44.695301394988604" lon="10.764448129452935"><ele>40.0</ele><time>2026-05-01T07:43:25Z</time></trkpt><trkpt lat="44.69517654048424" lon="10.764811842974511"><ele>40.0</ele><time>2026-05-01T07:43:26Z</time></trkpt><trkpt lat="44.69505086297147" lon="10.76517518646791"><ele>40.0</ele><time>2026-05-01T07:43:27Z</time></trkpt><trkpt lat="44.694923255658" lon="10.765538960682719"><ele>40.0</ele><time>2026-05-01T07:43:28Z</time></trkpt><trkpt lat="44.694795238411345" lon="10.765904108482333"><ele>40.0</ele><time>2026-05-01T07:43:29Z</time></trkpt><trkpt lat="44.694667612807066" lon="10.766266143563195"><ele>40.5</ele><time>2026-05-01T07:43:30Z</time></trkpt><trkpt lat="44.694539798746554" lon="10.7666268640801"><ele>41.0</ele><time>2026-05-01T07:43:31Z</time></trkpt><trkpt lat="44.69441134766313" lon="10.766985501763802"><ele>41.0</ele><time>2026-05-01T07:43:32Z</time></trkpt><trkpt lat="44.69428123428443" lon="10.767344574640687"><ele>41.0</ele><time>2026-05-01T07:43:33Z</time></trkpt><trkpt lat="44.6941510118509" lon="10.767703753272752"><ele>41.0</ele><time>2026-05-01T07:43:34Z</time></trkpt><trkpt lat="44.694023541146144" lon="10.768063496366512"><ele>41.0</ele><time>2026-05-01T07:43:35Z</time></trkpt><trkpt lat="44.69389702681358" lon="10.768422328402545"><ele>40.5</ele><time>2026-05-01T07:43:36Z</time></trkpt><trkpt lat="44.693769853398756" lon="10.768780441801562"><ele>40.0</ele><time>2026-05-01T07:43:37Z</time></trkpt><trkpt lat="44.69364444175131" lon="10.769141169008709"><ele>38.5</ele><time>2026-05-01T07:43:38Z</time></trkpt><trkpt lat="44.693519181914226" lon="10.769503589698083"><ele>37.0</ele><time>2026-05-01T07:43:39Z</time></trkpt><trkpt lat="44.693393977009954" lon="10.769864219054238"><ele>37.0</ele><time>2026-05-01T07:43:40Z</time></trkpt><trkpt lat="44.69326832852432" lon="10.770226283901632"><ele>37.0</ele><time>2026-05-01T07:43:41Z</time></trkpt><trkpt lat="44.6931428979067" lon="10.770585506890962"><ele>37.0</ele><time>2026-05-01T07:43:42Z</time></trkpt><trkpt lat="44.693018057718184" lon="10.770945684839521"><ele>37.0</ele><time>2026-05-01T07:43:43Z</time></trkpt><trkpt lat="44.692891704495125" lon="10.771308451437763"><ele>37.5</ele><time>2026-05-01T07:43:44Z</time></trkpt><trkpt lat="44.69276538224985" lon="10.771669369358015"><ele>38.0</ele><time>2026-05-01T07:43:45Z</time></trkpt><trkpt lat="44.692638532831154" lon="10.772030171077331"><ele>38.5</ele><time>2026-05-01T07:43:46Z</time></trkpt><trkpt lat="44.69251203828532" lon="10.772390592383234"><ele>39.0</ele><time>2026-05-01T07:43:47Z</time></trkpt><trkpt lat="44.69238508239807" lon="10.772748891735292"><ele>39.0</ele><time>2026-05-01T07:43:48Z</time></trkpt><trkpt lat="44.692259861107146" lon="10.773105113801849"><ele>39.0</ele><time>2026-05-01T07:43:49Z</time></trkpt><trkpt lat="44.69213556145846" lon="10.773457492312135"><ele>39.5</ele><time>2026-05-01T07:43:50Z</time></trkpt><trkpt lat="44.69201295867081" lon="10.77381340371536"><ele>40.0</ele><time>2026-05-01T07:43:51Z</time></trkpt><trkpt lat="44.6918902056721" lon="10.774168064243629"><ele>41.0</ele><time>2026-05-01T07:43:52Z</time></trkpt><trkpt lat="44.691769763586365" lon="10.774523321010296"><ele>42.0</ele><time>2026-05-01T07:43:53Z</time></trkpt><trkpt lat="44.69164764898001" lon="10.774879365332149"><ele>41.5</ele><time>2026-05-01T07:43:54Z</time></trkpt><trkpt lat="44.691524591588404" lon="10.775236703975988"><ele>41.0</ele><time>2026-05-01T07:43:55Z</time></trkpt><trkpt lat="44.69140049946183" lon="10.775594378262275"><ele>41.0</ele><time>2026-05-01T07:43:56Z</time></trkpt><trkpt lat="44.69127568459355" lon="10.77595234274001"><ele>41.0</ele><time>2026-05-01T07:43:57Z</time></trkpt><trkpt lat="44.6911512355654" lon="10.776312929615434"><ele>41.0</ele><time>2026-05-01T07:43:58Z</time></trkpt><trkpt lat="44.69102757150398" lon="10.776675627556333"><ele>41.0</ele><time>2026-05-01T07:43:59Z</time></trkpt><trkpt lat="44.69090452832199" lon="10.777037070282478"><ele>41.5</ele><time>2026-05-01T07:44:00Z</time></trkpt><trkpt lat="44.690780064513795" lon="10.777399690777399"><ele>42.0</ele><time>2026-05-01T07:44:01Z</time></trkpt><trkpt lat="44.690653681860184" lon="10.777766795777612"><ele>42.0</ele><time>2026-05-01T07:44:02Z</time></trkpt><trkpt lat="44.69052773348536" lon="10.77812992235913"><ele>42.0</ele><time>2026-05-01T07:44:03Z</time></trkpt><trkpt lat="44.69040248282334" lon="10.778494321938537"><ele>41.5</ele><time>2026-05-01T07:44:04Z</time></trkpt><trkpt lat="44.69027752840888" lon="10.778859454620276"><ele>41.0</ele><time>2026-05-01T07:44:05Z</time></trkpt><trkpt lat="44.690153255149525" lon="10.779223980999227"><ele>41.5</ele><time>2026-05-01T07:44:06Z</time></trkpt><trkpt lat="44.690031776230256" lon="10.779589128470048"><ele>42.0</ele><time>2026-05-01T07:44:07Z</time></trkpt><trkpt lat="44.689912588306775" lon="10.779950159003866"><ele>41.5</ele><time>2026-05-01T07:44:08Z</time></trkpt><trkpt lat="44.68979768160297" lon="10.780309571321336"><ele>41.0</ele><time>2026-05-01T07:44:09Z</time></trkpt><trkpt lat="44.68967993096491" lon="10.780672681568666"><ele>42.0</ele><time>2026-05-01T07:44:10Z</time></trkpt><trkpt lat="44.689559624387456" lon="10.78103416455497"><ele>43.0</ele><time>2026-05-01T07:44:11Z</time></trkpt><trkpt lat="44.6894380502529" lon="10.781390237070417"><ele>42.0</ele><time>2026-05-01T07:44:12Z</time></trkpt><trkpt lat="44.68931608274469" lon="10.781747058774117"><ele>41.0</ele><time>2026-05-01T07:44:13Z</time></trkpt><trkpt lat="44.68919278173228" lon="10.782103333053128"><ele>41.0</ele><time>2026-05-01T07:44:14Z</time></trkpt><trkpt lat="44.68906977818171" lon="10.782459180018902"><ele>41.0</ele><time>2026-05-01T07:44:15Z</time></trkpt><trkpt lat="44.68894888344676" lon="10.782813025176234"><ele>42.0</ele><time>2026-05-01T07:44:16Z</time></trkpt><trkpt lat="44.68882747951691" lon="10.783164488401786"><ele>43.0</ele><time>2026-05-01T07:44:17Z</time></trkpt><trkpt lat="44.688706669765" lon="10.783514843907865"><ele>43.0</ele><time>2026-05-01T07:44:18Z</time></trkpt><trkpt lat="44.688584650295596" lon="10.783865275755502"><ele>43.0</ele><time>2026-05-01T07:44:19Z</time></trkpt><trkpt lat="44.688461384440295" lon="10.784217605411438"><ele>42.5</ele><time>2026-05-01T07:44:20Z</time></trkpt><trkpt lat="44.68833852675602" lon="10.78456886250018"><ele>42.0</ele><time>2026-05-01T07:44:21Z</time></trkpt><trkpt lat="44.68821339205489" lon="10.784920364442803"><ele>41.5</ele><time>2026-05-01T07:44:22Z</time></trkpt><trkpt lat="44.68808826731226" lon="10.785270403970651"><ele>41.0</ele><time>2026-05-01T07:44:23Z</time></trkpt><trkpt lat="44.687963149268526" lon="10.785626421334943"><ele>41.0</ele><time>2026-05-01T07:44:24Z</time></trkpt><trkpt lat="44.68784008290368" lon="10.785983710977842"><ele>41.0</ele><time>2026-05-01T07:44:25Z</time></trkpt><trkpt lat="44.687715405448564" lon="10.786343860887213"><ele>41.0</ele><time>2026-05-01T07:44:26Z</time></trkpt><trkpt lat="44.687587927830904" lon="10.786707586025644"><ele>41.0</ele><time>2026-05-01T07:44:27Z</time></trkpt><trkpt lat="44.687457610715654" lon="10.78707061937242"><ele>41.0</ele><time>2026-05-01T07:44:28Z</time></trkpt><trkpt lat="44.68732468383566" lon="10.78743470967166"><ele>41.0</ele><time>2026-05-01T07:44:29Z</time></trkpt><trkpt lat="44.68719132461274" lon="10.787797595524749"><ele>41.0</ele><time>2026-05-01T07:44:30Z</time></trkpt><trkpt lat="44.68705656279106" lon="10.788164074193096"><ele>41.0</ele><time>2026-05-01T07:44:31Z</time></trkpt><trkpt lat="44.686923092280715" lon="10.788533831798858"><ele>42.5</ele><time>2026-05-01T07:44:32Z</time></trkpt><trkpt lat="44.68679213803763" lon="10.788905498907196"><ele>44.0</ele><time>2026-05-01T07:44:33Z</time></trkpt><trkpt lat="44.686662036594804" lon="10.78927586165357"><ele>43.0</ele><time>2026-05-01T07:44:34Z</time></trkpt><trkpt lat="44.68653262148172" lon="10.78964625406946"><ele>42.0</ele><time>2026-05-01T07:44:35Z</time></trkpt><trkpt lat="44.686402738111695" lon="10.790017652278992"><ele>42.0</ele><time>2026-05-01T07:44:36Z</time></trkpt><trkpt lat="44.68627369391557" lon="10.790386419105795"><ele>42.0</ele><time>2026-05-01T07:44:37Z</time></trkpt><trkpt lat="44.68614508620205" lon="10.79075557632445"><ele>41.0</ele><time>2026-05-01T07:44:38Z</time></trkpt><trkpt lat="44.68601667185241" lon="10.791127365225384"><ele>40.0</ele><time>2026-05-01T07:44:39Z</time></trkpt><trkpt lat="44.68588768892898" lon="10.791497808144976"><ele>40.0</ele><time>2026-05-01T07:44:40Z</time></trkpt><trkpt lat="44.685760669630206" lon="10.791868510433675"><ele>40.0</ele><time>2026-05-01T07:44:41Z</time></trkpt><trkpt lat="44.68563443957599" lon="10.792241926897331"><ele>40.0</ele><time>2026-05-01T07:44:42Z</time></trkpt><trkpt lat="44.68550533842526" lon="10.792612040887938"><ele>40.0</ele><time>2026-05-01T07:44:43Z</time></trkpt><trkpt lat="44.68537457682903" lon="10.792983797771889"><ele>40.5</ele><time>2026-05-01T07:44:44Z</time></trkpt><trkpt lat="44.685244874734266" lon="10.79335487039399"><ele>41.0</ele><time>2026-05-01T07:44:45Z</time></trkpt><trkpt lat="44.68511589106463" lon="10.793725265712274"><ele>41.0</ele><time>2026-05-01T07:44:46Z</time></trkpt><trkpt lat="44.684986634879614" lon="10.794095425938005"><ele>41.0</ele><time>2026-05-01T07:44:47Z</time></trkpt><trkpt lat="44.68485736846203" lon="10.794466587881072"><ele>41.0</ele><time>2026-05-01T07:44:48Z</time></trkpt><trkpt lat="44.684728524180244" lon="10.794839754926246"><ele>41.0</ele><time>2026-05-01T07:44:49Z</time></trkpt><trkpt lat="44.684600303692235" lon="10.795211959474017"><ele>41.0</ele><time>2026-05-01T07:44:50Z</time></trkpt><trkpt lat="44.684472589594826" lon="10.795585348677767"><ele>41.0</ele><time>2026-05-01T07:44:51Z</time></trkpt><trkpt lat="44.68434572283822" lon="10.795954641008725"><ele>41.0</ele><time>2026-05-01T07:44:52Z</time></trkpt><trkpt lat="44.68421692959203" lon="10.796323116729111"><ele>41.0</ele><time>2026-05-01T07:44:53Z</time></trkpt><trkpt lat="44.68408759472259" lon="10.796689567998527"><ele>41.5</ele><time>2026-05-01T07:44:53.999Z</time></trkpt><trkpt lat="44.68396005557376" lon="10.797057432870325"><ele>42.0</ele><time>2026-05-01T07:44:54.999Z</time></trkpt><trkpt lat="44.68383460907617" lon="10.797423709433751"><ele>41.5</ele><time>2026-05-01T07:44:55.999Z</time></trkpt><trkpt lat="44.68370955279339" lon="10.797789919237536"><ele>41.0</ele><time>2026-05-01T07:44:56.999Z</time></trkpt><trkpt lat="44.683582798879065" lon="10.798154852698461"><ele>42.0</ele><time>2026-05-01T07:44:57.999Z</time></trkpt><trkpt lat="44.68345488507755" lon="10.798517646531426"><ele>43.0</ele><time>2026-05-01T07:44:58.999Z</time></trkpt><trkpt lat="44.683327365235165" lon="10.798879516488402"><ele>43.0</ele><time>2026-05-01T07:44:59.999Z</time></trkpt><trkpt lat="44.683200245754385" lon="10.799244163134812"><ele>43.0</ele><time>2026-05-01T07:45:00.999Z</time></trkpt><trkpt lat="44.683074235452395" lon="10.799607333873736"><ele>42.5</ele><time>2026-05-01T07:45:01.999Z</time></trkpt><trkpt lat="44.682949280789764" lon="10.799971783199105"><ele>42.0</ele><time>2026-05-01T07:45:02.999Z</time></trkpt><trkpt lat="44.68282358547001" lon="10.800338481763584"><ele>42.0</ele><time>2026-05-01T07:45:03.999Z</time></trkpt><trkpt lat="44.68269841115469" lon="10.800701117147392"><ele>42.0</ele><time>2026-05-01T07:45:04.999Z</time></trkpt><trkpt lat="44.682572990463214" lon="10.801063341485278"><ele>42.0</ele><time>2026-05-01T07:45:05.999Z</time></trkpt><trkpt lat="44.68245117271089" lon="10.80142292271"><ele>42.0</ele><time>2026-05-01T07:45:06.999Z</time></trkpt><trkpt lat="44.6823275368828" lon="10.801782547448164"><ele>42.0</ele><time>2026-05-01T07:45:07.999Z</time></trkpt><trkpt lat="44.68220316483138" lon="10.802143874568035"><ele>42.0</ele><time>2026-05-01T07:45:09Z</time></trkpt><trkpt lat="44.68207898140818" lon="10.802502282944236"><ele>42.5</ele><time>2026-05-01T07:45:10Z</time></trkpt><trkpt lat="44.681954815519596" lon="10.802858721235234"><ele>43.0</ele><time>2026-05-01T07:45:11Z</time></trkpt><trkpt lat="44.68183085170041" lon="10.803217149511303"><ele>42.5</ele><time>2026-05-01T07:45:12Z</time></trkpt><trkpt lat="44.68170752447661" lon="10.803576157705933"><ele>42.0</ele><time>2026-05-01T07:45:13Z</time></trkpt><trkpt lat="44.68158651618561" lon="10.803937260333958"><ele>42.0</ele><time>2026-05-01T07:45:14Z</time></trkpt><trkpt lat="44.681467118565024" lon="10.804306079579781"><ele>42.0</ele><time>2026-05-01T07:45:15Z</time></trkpt><trkpt lat="44.68134864344378" lon="10.804672318950058"><ele>42.0</ele><time>2026-05-01T07:45:16Z</time></trkpt><trkpt lat="44.68122797909336" lon="10.805038874908602"><ele>42.0</ele><time>2026-05-01T07:45:17Z</time></trkpt><trkpt lat="44.68110331768784" lon="10.805405402490434"><ele>42.5</ele><time>2026-05-01T07:45:18Z</time></trkpt><trkpt lat="44.68097664346816" lon="10.805768836231277"><ele>43.0</ele><time>2026-05-01T07:45:19Z</time></trkpt><trkpt lat="44.68084948246047" lon="10.806133023921674"><ele>42.0</ele><time>2026-05-01T07:45:20Z</time></trkpt><trkpt lat="44.680723042858695" lon="10.806496346527545"><ele>41.0</ele><time>2026-05-01T07:45:21Z</time></trkpt><trkpt lat="44.68059543006976" lon="10.8068578588536"><ele>41.0</ele><time>2026-05-01T07:45:22Z</time></trkpt><trkpt lat="44.68046757198785" lon="10.80722408636856"><ele>41.0</ele><time>2026-05-01T07:45:23Z</time></trkpt><trkpt lat="44.68033969626184" lon="10.807591221234341"><ele>42.5</ele><time>2026-05-01T07:45:24Z</time></trkpt><trkpt lat="44.680210809044965" lon="10.807958767037913"><ele>44.0</ele><time>2026-05-01T07:45:25Z</time></trkpt><trkpt lat="44.68008073890393" lon="10.808326468591229"><ele>44.0</ele><time>2026-05-01T07:45:26Z</time></trkpt><trkpt lat="44.6799509792394" lon="10.808695425254289"><ele>44.0</ele><time>2026-05-01T07:45:27Z</time></trkpt><trkpt lat="44.67982359625599" lon="10.809063960937223"><ele>44.5</ele><time>2026-05-01T07:45:28Z</time></trkpt><trkpt lat="44.67969738377286" lon="10.809433456461267"><ele>45.0</ele><time>2026-05-01T07:45:29Z</time></trkpt><trkpt lat="44.67957004572885" lon="10.80980524821355"><ele>43.5</ele><time>2026-05-01T07:45:30Z</time></trkpt><trkpt lat="44.679440669294095" lon="10.810177797944991"><ele>42.0</ele><time>2026-05-01T07:45:31Z</time></trkpt><trkpt lat="44.6793117114974" lon="10.810549521930739"><ele>42.0</ele><time>2026-05-01T07:45:32Z</time></trkpt><trkpt lat="44.67918230527229" lon="10.810921861129259"><ele>42.0</ele><time>2026-05-01T07:45:33Z</time></trkpt><trkpt lat="44.67905269267517" lon="10.811292694827527"><ele>42.5</ele><time>2026-05-01T07:45:34Z</time></trkpt><trkpt lat="44.678923402692895" lon="10.811663444890609"><ele>43.0</ele><time>2026-05-01T07:45:35Z</time></trkpt><trkpt lat="44.678795201550855" lon="10.812035514288853"><ele>42.0</ele><time>2026-05-01T07:45:36Z</time></trkpt><trkpt lat="44.678667538861234" lon="10.812406094369818"><ele>41.0</ele><time>2026-05-01T07:45:37Z</time></trkpt><trkpt lat="44.67853782735867" lon="10.812776422404077"><ele>40.5</ele><time>2026-05-01T07:45:38Z</time></trkpt><trkpt lat="44.67840771345721" lon="10.813146752962144"><ele>40.0</ele><time>2026-05-01T07:45:39Z</time></trkpt><trkpt lat="44.678277681311044" lon="10.813519707191098"><ele>40.0</ele><time>2026-05-01T07:45:40Z</time></trkpt><trkpt lat="44.6781477331186" lon="10.813892123938036"><ele>40.0</ele><time>2026-05-01T07:45:41Z</time></trkpt><trkpt lat="44.6780163501625" lon="10.814261967738803"><ele>40.0</ele><time>2026-05-01T07:45:42Z</time></trkpt><trkpt lat="44.6778816016119" lon="10.81463055335356"><ele>40.0</ele><time>2026-05-01T07:45:43Z</time></trkpt><trkpt lat="44.67774528046072" lon="10.814997160609666"><ele>41.0</ele><time>2026-05-01T07:45:44Z</time></trkpt><trkpt lat="44.67761051072561" lon="10.815365880743272"><ele>42.0</ele><time>2026-05-01T07:45:45Z</time></trkpt><trkpt lat="44.677476298364944" lon="10.815740285929568"><ele>41.5</ele><time>2026-05-01T07:45:46Z</time></trkpt><trkpt lat="44.67734573438878" lon="10.816111900945234"><ele>41.0</ele><time>2026-05-01T07:45:47Z</time></trkpt><trkpt lat="44.677214187852606" lon="10.816482408695745"><ele>41.0</ele><time>2026-05-01T07:45:48Z</time></trkpt><trkpt lat="44.677082575571646" lon="10.816855680783416"><ele>41.0</ele><time>2026-05-01T07:45:49Z</time></trkpt><trkpt lat="44.67695254624312" lon="10.8172302730318"><ele>42.5</ele><time>2026-05-01T07:45:50Z</time></trkpt><trkpt lat="44.676823364097814" lon="10.817605656812225"><ele>44.0</ele><time>2026-05-01T07:45:51Z</time></trkpt><trkpt lat="44.67669437878487" lon="10.817980393999372"><ele>44.0</ele><time>2026-05-01T07:45:52Z</time></trkpt><trkpt lat="44.676565873523245" lon="10.818355966217455"><ele>44.0</ele><time>2026-05-01T07:45:53Z</time></trkpt><trkpt lat="44.67643725630463" lon="10.818732391204422"><ele>44.0</ele><time>2026-05-01T07:45:54Z</time></trkpt><trkpt lat="44.67630792180525" lon="10.81910913231464"><ele>44.0</ele><time>2026-05-01T07:45:55Z</time></trkpt><trkpt lat="44.67617825534298" lon="10.819488162019137"><ele>44.0</ele><time>2026-05-01T07:45:56Z</time></trkpt><trkpt lat="44.676049109762474" lon="10.81986778098363"><ele>44.0</ele><time>2026-05-01T07:45:57Z</time></trkpt><trkpt lat="44.67591949257984" lon="10.820249430933035"><ele>42.5</ele><time>2026-05-01T07:45:58Z</time></trkpt><trkpt lat="44.67578857944063" lon="10.820628318770222"><ele>41.0</ele><time>2026-05-01T07:45:59Z</time></trkpt><trkpt lat="44.675658227253116" lon="10.821006648456157"><ele>41.0</ele><time>2026-05-01T07:46:00Z</time></trkpt><trkpt lat="44.67553344947814" lon="10.821386144893895"><ele>41.0</ele><time>2026-05-01T07:46:01Z</time></trkpt><trkpt lat="44.675407198830996" lon="10.821767882130178"><ele>41.5</ele><time>2026-05-01T07:46:02Z</time></trkpt><trkpt lat="44.675278303717384" lon="10.822147040348904"><ele>42.0</ele><time>2026-05-01T07:46:03Z</time></trkpt><trkpt lat="44.67514643190293" lon="10.822526697050245"><ele>42.0</ele><time>2026-05-01T07:46:04Z</time></trkpt><trkpt lat="44.67501408861647" lon="10.822905441075518"><ele>42.0</ele><time>2026-05-01T07:46:05Z</time></trkpt><trkpt lat="44.67488405551363" lon="10.823284662330177"><ele>42.0</ele><time>2026-05-01T07:46:06Z</time></trkpt><trkpt lat="44.67475537322437" lon="10.823664235559944"><ele>42.0</ele><time>2026-05-01T07:46:07Z</time></trkpt><trkpt lat="44.674623808933326" lon="10.824042984531376"><ele>42.0</ele><time>2026-05-01T07:46:08Z</time></trkpt><trkpt lat="44.67449012350377" lon="10.824416889618535"><ele>42.0</ele><time>2026-05-01T07:46:09Z</time></trkpt><trkpt lat="44.67435959912804" lon="10.82478959337718"><ele>42.5</ele><time>2026-05-01T07:46:10Z</time></trkpt><trkpt lat="44.67423026395029" lon="10.82515965934242"><ele>43.0</ele><time>2026-05-01T07:46:11Z</time></trkpt><trkpt lat="44.67409921450844" lon="10.82553049778758"><ele>43.0</ele><time>2026-05-01T07:46:12Z</time></trkpt><trkpt lat="44.673969394406264" lon="10.825902253043857"><ele>43.0</ele><time>2026-05-01T07:46:13Z</time></trkpt><trkpt lat="44.67384139410858" lon="10.826272763225393"><ele>43.5</ele><time>2026-05-01T07:46:14Z</time></trkpt><trkpt lat="44.67371337428691" lon="10.8266438844017"><ele>44.0</ele><time>2026-05-01T07:46:15Z</time></trkpt><trkpt lat="44.673580450663906" lon="10.827011140476515"><ele>44.0</ele><time>2026-05-01T07:46:16Z</time></trkpt><trkpt lat="44.67344235222052" lon="10.827375650510954"><ele>44.0</ele><time>2026-05-01T07:46:17Z</time></trkpt><trkpt lat="44.673307121868014" lon="10.827740979581042"><ele>44.0</ele><time>2026-05-01T07:46:18Z</time></trkpt><trkpt lat="44.67317347367999" lon="10.828106568077486"><ele>44.0</ele><time>2026-05-01T07:46:19Z</time></trkpt><trkpt lat="44.67304443629051" lon="10.828472421751197"><ele>44.5</ele><time>2026-05-01T07:46:20Z</time></trkpt><trkpt lat="44.672918424284966" lon="10.828840059361255"><ele>45.0</ele><time>2026-05-01T07:46:21Z</time></trkpt><trkpt lat="44.672792320411745" lon="10.829204459156394"><ele>44.5</ele><time>2026-05-01T07:46:22Z</time></trkpt><trkpt lat="44.67266550856256" lon="10.829566901865547"><ele>44.0</ele><time>2026-05-01T07:46:23Z</time></trkpt><trkpt lat="44.672539790116545" lon="10.829929495564908"><ele>43.5</ele><time>2026-05-01T07:46:24Z</time></trkpt><trkpt lat="44.67241655572076" lon="10.830291911410406"><ele>43.0</ele><time>2026-05-01T07:46:25Z</time></trkpt><trkpt lat="44.67229439489326" lon="10.830653675423143"><ele>43.0</ele><time>2026-05-01T07:46:26Z</time></trkpt><trkpt lat="44.67217180631562" lon="10.831017980416311"><ele>43.0</ele><time>2026-05-01T07:46:27Z</time></trkpt><trkpt lat="44.672045674045144" lon="10.831381459645035"><ele>41.0</ele><time>2026-05-01T07:46:28Z</time></trkpt><trkpt lat="44.67191937961265" lon="10.831743990287706"><ele>39.0</ele><time>2026-05-01T07:46:29Z</time></trkpt><trkpt lat="44.67179253462637" lon="10.832107740220021"><ele>39.0</ele><time>2026-05-01T07:46:30Z</time></trkpt><trkpt lat="44.671665959529" lon="10.832470816100315"><ele>39.0</ele><time>2026-05-01T07:46:31Z</time></trkpt><trkpt lat="44.67153826527753" lon="10.832832463022562"><ele>39.5</ele><time>2026-05-01T07:46:32Z</time></trkpt><trkpt lat="44.67141002729436" lon="10.83319694783741"><ele>40.0</ele><time>2026-05-01T07:46:33Z</time></trkpt><trkpt lat="44.67128174043193" lon="10.833561499900938"><ele>38.5</ele><time>2026-05-01T07:46:34Z</time></trkpt><trkpt lat="44.671153034363286" lon="10.833926512382499"><ele>37.0</ele><time>2026-05-01T07:46:35Z</time></trkpt><trkpt lat="44.67102624690911" lon="10.834291358975655"><ele>38.0</ele><time>2026-05-01T07:46:36Z</time></trkpt><trkpt lat="44.670898869414785" lon="10.83466167087056"><ele>39.0</ele><time>2026-05-01T07:46:37Z</time></trkpt><trkpt lat="44.6707707724148" lon="10.835031179333892"><ele>39.5</ele><time>2026-05-01T07:46:38Z</time></trkpt><trkpt lat="44.67064200636384" lon="10.83540360090629"><ele>40.0</ele><time>2026-05-01T07:46:39Z</time></trkpt><trkpt lat="44.670512031566005" lon="10.835777911772357"><ele>40.0</ele><time>2026-05-01T07:46:40Z</time></trkpt><trkpt lat="44.670382311335274" lon="10.836153676448907"><ele>40.0</ele><time>2026-05-01T07:46:41Z</time></trkpt><trkpt lat="44.67025090932556" lon="10.836533058543958"><ele>40.0</ele><time>2026-05-01T07:46:42Z</time></trkpt><trkpt lat="44.67011883427013" lon="10.836913766405189"><ele>40.0</ele><time>2026-05-01T07:46:43Z</time></trkpt><trkpt lat="44.66998403179795" lon="10.837296490698535"><ele>40.5</ele><time>2026-05-01T07:46:44Z</time></trkpt><trkpt lat="44.66984884958272" lon="10.837678799052663"><ele>41.0</ele><time>2026-05-01T07:46:45Z</time></trkpt><trkpt lat="44.66971544963287" lon="10.838059654997057"><ele>41.0</ele><time>2026-05-01T07:46:46Z</time></trkpt><trkpt lat="44.66958198048729" lon="10.838442787211706"><ele>41.0</ele><time>2026-05-01T07:46:47Z</time></trkpt><trkpt lat="44.66944971685871" lon="10.838822980358135"><ele>39.0</ele><time>2026-05-01T07:46:48Z</time></trkpt><trkpt lat="44.66931763443322" lon="10.839204456236457"><ele>37.0</ele><time>2026-05-01T07:46:49Z</time></trkpt><trkpt lat="44.66918676711118" lon="10.839586420699957"><ele>37.0</ele><time>2026-05-01T07:46:50Z</time></trkpt><trkpt lat="44.669057777400674" lon="10.839965657298757"><ele>37.0</ele><time>2026-05-01T07:46:50.999Z</time></trkpt><trkpt lat="44.66892834747324" lon="10.840342585900952"><ele>38.0</ele><time>2026-05-01T07:46:51.999Z</time></trkpt><trkpt lat="44.668797124316946" lon="10.840721281553789"><ele>39.0</ele><time>2026-05-01T07:46:52.999Z</time></trkpt><trkpt lat="44.668666305498114" lon="10.841097628920844"><ele>39.5</ele><time>2026-05-01T07:46:53.999Z</time></trkpt><trkpt lat="44.66853619927909" lon="10.841472929448136"><ele>40.0</ele><time>2026-05-01T07:46:54.999Z</time></trkpt><trkpt lat="44.6684055738278" lon="10.841847721597295"><ele>40.5</ele><time>2026-05-01T07:46:55.999Z</time></trkpt><trkpt lat="44.66827551254056" lon="10.842223422027196"><ele>41.0</ele><time>2026-05-01T07:46:56.999Z</time></trkpt><trkpt lat="44.66814544625613" lon="10.842600203740263"><ele>41.0</ele><time>2026-05-01T07:46:57.999Z</time></trkpt><trkpt lat="44.66801550069048" lon="10.842979203611439"><ele>41.0</ele><time>2026-05-01T07:46:58.999Z</time></trkpt><trkpt lat="44.66788594980705" lon="10.843355600741852"><ele>40.0</ele><time>2026-05-01T07:46:59.999Z</time></trkpt><trkpt lat="44.667755373494536" lon="10.843732280177393"><ele>39.0</ele><time>2026-05-01T07:47:00.999Z</time></trkpt><trkpt lat="44.66762578069501" lon="10.844107831302516"><ele>40.0</ele><time>2026-05-01T07:47:01.999Z</time></trkpt><trkpt lat="44.667496488618035" lon="10.844484171287714"><ele>41.0</ele><time>2026-05-01T07:47:02.999Z</time></trkpt><trkpt lat="44.6673686461221" lon="10.844862110207936"><ele>41.0</ele><time>2026-05-01T07:47:03.999Z</time></trkpt><trkpt lat="44.6672379077801" lon="10.845239642496827"><ele>41.0</ele><time>2026-05-01T07:47:04.999Z</time></trkpt><trkpt lat="44.6671063537626" lon="10.845614422356713"><ele>41.0</ele><time>2026-05-01T07:47:05.999Z</time></trkpt><trkpt lat="44.666976385573975" lon="10.845984810449814"><ele>41.0</ele><time>2026-05-01T07:47:06.999Z</time></trkpt><trkpt lat="44.66684674830519" lon="10.846352210442495"><ele>41.0</ele><time>2026-05-01T07:47:07.999Z</time></trkpt><trkpt lat="44.66671954373691" lon="10.846717650640654"><ele>41.0</ele><time>2026-05-01T07:47:08.999Z</time></trkpt><trkpt lat="44.66659462913388" lon="10.847077962867195"><ele>40.5</ele><time>2026-05-01T07:47:09.999Z</time></trkpt><trkpt lat="44.66647220918031" lon="10.847428024244687"><ele>40.0</ele><time>2026-05-01T07:47:10.999Z</time></trkpt><trkpt lat="44.66635467101545" lon="10.847767522065974"><ele>40.0</ele><time>2026-05-01T07:47:11.999Z</time></trkpt><trkpt lat="44.66624137032477" lon="10.848096852373837"><ele>40.0</ele><time>2026-05-01T07:47:12.999Z</time></trkpt><trkpt lat="44.66612948510233" lon="10.848420600548232"><ele>41.0</ele><time>2026-05-01T07:47:14Z</time></trkpt><trkpt lat="44.66601960715364" lon="10.848737052279972"><ele>42.0</ele><time>2026-05-01T07:47:15Z</time></trkpt><trkpt lat="44.66591142148899" lon="10.849049198423582"><ele>40.5</ele><time>2026-05-01T07:47:16Z</time></trkpt><trkpt lat="44.66580485078031" lon="10.849359211830377"><ele>39.0</ele><time>2026-05-01T07:47:17Z</time></trkpt><trkpt lat="44.665698452350476" lon="10.849667937864698"><ele>39.0</ele><time>2026-05-01T07:47:18Z</time></trkpt><trkpt lat="44.665593343599234" lon="10.849975602723507"><ele>39.0</ele><time>2026-05-01T07:47:19Z</time></trkpt><trkpt lat="44.6654882986591" lon="10.850282688206576"><ele>38.5</ele><time>2026-05-01T07:47:20Z</time></trkpt><trkpt lat="44.665380420179964" lon="10.850588680077186"><ele>38.0</ele><time>2026-05-01T07:47:21Z</time></trkpt><trkpt lat="44.66526696403485" lon="10.850896725861976"><ele>37.5</ele><time>2026-05-01T07:47:22Z</time></trkpt><trkpt lat="44.665152615712294" lon="10.851201978665431"><ele>37.0</ele><time>2026-05-01T07:47:23Z</time></trkpt><trkpt lat="44.665036169329944" lon="10.851499654909173"><ele>38.0</ele><time>2026-05-01T07:47:24Z</time></trkpt><trkpt lat="44.664917115739435" lon="10.85179316916698"><ele>39.0</ele><time>2026-05-01T07:47:25Z</time></trkpt><trkpt lat="44.6647949009473" lon="10.852080637374863"><ele>39.0</ele><time>2026-05-01T07:47:26Z</time></trkpt><trkpt lat="44.66467035902936" lon="10.852360789648149"><ele>39.0</ele><time>2026-05-01T07:47:27Z</time></trkpt><trkpt lat="44.664543713531266" lon="10.852640386686407"><ele>39.0</ele><time>2026-05-01T07:47:28Z</time></trkpt><trkpt lat="44.66441351469273" lon="10.852911341917794"><ele>39.0</ele><time>2026-05-01T07:47:29Z</time></trkpt><trkpt lat="44.66427857367131" lon="10.853179526422414"><ele>39.0</ele><time>2026-05-01T07:47:30Z</time></trkpt><trkpt lat="44.66414689626851" lon="10.85344766984406"><ele>39.0</ele><time>2026-05-01T07:47:31Z</time></trkpt><trkpt lat="44.66401425052652" lon="10.853706071079538"><ele>40.0</ele><time>2026-05-01T07:47:32Z</time></trkpt><trkpt lat="44.66387489286502" lon="10.85396234188213"><ele>41.0</ele><time>2026-05-01T07:47:33Z</time></trkpt><trkpt lat="44.663729400728236" lon="10.854219881708632"><ele>41.0</ele><time>2026-05-01T07:47:34Z</time></trkpt><trkpt lat="44.66358451346203" lon="10.854476479581034"><ele>41.0</ele><time>2026-05-01T07:47:35Z</time></trkpt><trkpt lat="44.66343290954642" lon="10.854731567649647"><ele>41.0</ele><time>2026-05-01T07:47:36Z</time></trkpt><trkpt lat="44.66327664222834" lon="10.85498886098716"><ele>41.0</ele><time>2026-05-01T07:47:37Z</time></trkpt><trkpt lat="44.66311518145713" lon="10.855240912321264"><ele>41.0</ele><time>2026-05-01T07:47:38Z</time></trkpt><trkpt lat="44.66295006366155" lon="10.855490851225928"><ele>41.0</ele><time>2026-05-01T07:47:39Z</time></trkpt><trkpt lat="44.662778748732826" lon="10.85573867421565"><ele>41.0</ele><time>2026-05-01T07:47:40Z</time></trkpt><trkpt lat="44.66260330388405" lon="10.855984595255904"><ele>41.0</ele><time>2026-05-01T07:47:41Z</time></trkpt><trkpt lat="44.662422940317654" lon="10.856229888214125"><ele>41.0</ele><time>2026-05-01T07:47:42Z</time></trkpt><trkpt lat="44.662241077628785" lon="10.856473073955444"><ele>41.0</ele><time>2026-05-01T07:47:43Z</time></trkpt><trkpt lat="44.66205465932524" lon="10.856715872912424"><ele>41.5</ele><time>2026-05-01T07:47:44Z</time></trkpt><trkpt lat="44.661862917725266" lon="10.85695436235052"><ele>42.0</ele><time>2026-05-01T07:47:45Z</time></trkpt><trkpt lat="44.661667423339885" lon="10.85718733784007"><ele>42.0</ele><time>2026-05-01T07:47:46Z</time></trkpt><trkpt lat="44.66146720873714" lon="10.857417071955343"><ele>42.0</ele><time>2026-05-01T07:47:47Z</time></trkpt><trkpt lat="44.66126352451282" lon="10.857644033795522"><ele>41.0</ele><time>2026-05-01T07:47:48Z</time></trkpt><trkpt lat="44.66105785770881" lon="10.857864139363459"><ele>40.0</ele><time>2026-05-01T07:47:49Z</time></trkpt><trkpt lat="44.660848743598336" lon="10.858079675251565"><ele>40.0</ele><time>2026-05-01T07:47:50Z</time></trkpt><trkpt lat="44.66063670668423" lon="10.858287846737605"><ele>40.0</ele><time>2026-05-01T07:47:51Z</time></trkpt><trkpt lat="44.660422989064834" lon="10.858490344563792"><ele>39.5</ele><time>2026-05-01T07:47:52Z</time></trkpt><trkpt lat="44.66020834964557" lon="10.858684753724022"><ele>39.0</ele><time>2026-05-01T07:47:53Z</time></trkpt><trkpt lat="44.65999080379399" lon="10.858874159131705"><ele>39.0</ele><time>2026-05-01T07:47:54Z</time></trkpt><trkpt lat="44.65977148625056" lon="10.859056048534901"><ele>39.0</ele><time>2026-05-01T07:47:55Z</time></trkpt><trkpt lat="44.65955097904024" lon="10.85923769725829"><ele>38.5</ele><time>2026-05-01T07:47:56Z</time></trkpt><trkpt lat="44.6593259341226" lon="10.859411659705318"><ele>38.0</ele><time>2026-05-01T07:47:57Z</time></trkpt><trkpt lat="44.65910049041683" lon="10.859576309223558"><ele>38.0</ele><time>2026-05-01T07:47:58Z</time></trkpt><trkpt lat="44.65887494413478" lon="10.859736781664875"><ele>38.0</ele><time>2026-05-01T07:47:59Z</time></trkpt><trkpt lat="44.65864802808628" lon="10.859890792256168"><ele>38.0</ele><time>2026-05-01T07:48:00Z</time></trkpt><trkpt lat="44.65841800388231" lon="10.860041799605892"><ele>38.0</ele><time>2026-05-01T07:48:01Z</time></trkpt><trkpt lat="44.6581854634176" lon="10.860184272354699"><ele>38.0</ele><time>2026-05-01T07:48:02Z</time></trkpt><trkpt lat="44.65795279933269" lon="10.860323744882736"><ele>38.0</ele><time>2026-05-01T07:48:03Z</time></trkpt><trkpt lat="44.6577192917328" lon="10.860468840105941"><ele>38.5</ele><time>2026-05-01T07:48:04Z</time></trkpt><trkpt lat="44.65748882910938" lon="10.860606628824208"><ele>39.0</ele><time>2026-05-01T07:48:05Z</time></trkpt><trkpt lat="44.65724583434941" lon="10.860760237411565"><ele>39.0</ele><time>2026-05-01T07:48:06Z</time></trkpt><trkpt lat="44.657007409220995" lon="10.860911694880716"><ele>39.0</ele><time>2026-05-01T07:48:07Z</time></trkpt><trkpt lat="44.65677096731871" lon="10.861064368652334"><ele>39.0</ele><time>2026-05-01T07:48:08Z</time></trkpt><trkpt lat="44.65654271001056" lon="10.861217426158055"><ele>39.0</ele><time>2026-05-01T07:48:09Z</time></trkpt><trkpt lat="44.65629966387145" lon="10.861364985782602"><ele>37.5</ele><time>2026-05-01T07:48:10Z</time></trkpt><trkpt lat="44.656057900995435" lon="10.861504711608935"><ele>36.0</ele><time>2026-05-01T07:48:11Z</time></trkpt><trkpt lat="44.65581503260363" lon="10.861655181792305"><ele>38.0</ele><time>2026-05-01T07:48:12Z</time></trkpt><trkpt lat="44.65556800682495" lon="10.861799182693638"><ele>40.0</ele><time>2026-05-01T07:48:13Z</time></trkpt><trkpt lat="44.65532720349569" lon="10.861947349955026"><ele>39.5</ele><time>2026-05-01T07:48:14Z</time></trkpt><trkpt lat="44.655083815052556" lon="10.862096818386112"><ele>39.0</ele><time>2026-05-01T07:48:15Z</time></trkpt><trkpt lat="44.65483926832736" lon="10.862236300777043"><ele>39.0</ele><time>2026-05-01T07:48:16Z</time></trkpt><trkpt lat="44.65459815085563" lon="10.86238616881323"><ele>39.0</ele><time>2026-05-01T07:48:17Z</time></trkpt><trkpt lat="44.65435301558811" lon="10.86254030209823"><ele>39.5</ele><time>2026-05-01T07:48:18Z</time></trkpt><trkpt lat="44.654108867278985" lon="10.862692756808444"><ele>40.0</ele><time>2026-05-01T07:48:19Z</time></trkpt><trkpt lat="44.65386660325903" lon="10.862833166935815"><ele>40.0</ele><time>2026-05-01T07:48:20Z</time></trkpt><trkpt lat="44.653625017320294" lon="10.862982322035746"><ele>40.0</ele><time>2026-05-01T07:48:21Z</time></trkpt><trkpt lat="44.65338317937502" lon="10.863123347318943"><ele>41.0</ele><time>2026-05-01T07:48:22Z</time></trkpt><trkpt lat="44.653144330028965" lon="10.863279796542846"><ele>42.0</ele><time>2026-05-01T07:48:23Z</time></trkpt><trkpt lat="44.6529093238599" lon="10.863426898925947"><ele>39.0</ele><time>2026-05-01T07:48:24Z</time></trkpt><trkpt lat="44.65266401594709" lon="10.863573748322798"><ele>36.0</ele><time>2026-05-01T07:48:25Z</time></trkpt><trkpt lat="44.65242099664945" lon="10.863714805149142"><ele>36.0</ele><time>2026-05-01T07:48:26Z</time></trkpt><trkpt lat="44.65217895240723" lon="10.863852688881346"><ele>36.0</ele><time>2026-05-01T07:48:27Z</time></trkpt><trkpt lat="44.65194006088287" lon="10.863987301299327"><ele>35.0</ele><time>2026-05-01T07:48:28Z</time></trkpt><trkpt lat="44.65169860265157" lon="10.864135605914038"><ele>34.0</ele><time>2026-05-01T07:48:29Z</time></trkpt><trkpt lat="44.65145926381143" lon="10.864281114618732"><ele>34.0</ele><time>2026-05-01T07:48:30Z</time></trkpt><trkpt lat="44.65122115391911" lon="10.864415338805713"><ele>34.0</ele><time>2026-05-01T07:48:31Z</time></trkpt><trkpt lat="44.65098699087481" lon="10.8645531233565"><ele>33.0</ele><time>2026-05-01T07:48:32Z</time></trkpt><trkpt lat="44.65074817402092" lon="10.864697280881927"><ele>32.0</ele><time>2026-05-01T07:48:33Z</time></trkpt><trkpt lat="44.650510329240625" lon="10.864842526517648"><ele>35.5</ele><time>2026-05-01T07:48:34Z</time></trkpt><trkpt lat="44.65027321191882" lon="10.864993938487029"><ele>39.0</ele><time>2026-05-01T07:48:35Z</time></trkpt><trkpt lat="44.65003270697196" lon="10.865144182351491"><ele>39.0</ele><time>2026-05-01T07:48:36Z</time></trkpt><trkpt lat="44.64978952520103" lon="10.865290317325934"><ele>39.0</ele><time>2026-05-01T07:48:37Z</time></trkpt><trkpt lat="44.649545355010886" lon="10.865437498533607"><ele>40.5</ele><time>2026-05-01T07:48:38Z</time></trkpt><trkpt lat="44.64929915894626" lon="10.865585549971971"><ele>42.0</ele><time>2026-05-01T07:48:39Z</time></trkpt><trkpt lat="44.64905450110006" lon="10.86573375422846"><ele>42.0</ele><time>2026-05-01T07:48:40Z</time></trkpt><trkpt lat="44.6488096357121" lon="10.865881759207385"><ele>42.0</ele><time>2026-05-01T07:48:41Z</time></trkpt><trkpt lat="44.648567019106274" lon="10.866029385795379"><ele>41.0</ele><time>2026-05-01T07:48:42Z</time></trkpt><trkpt lat="44.64832168750395" lon="10.866187696904168"><ele>40.0</ele><time>2026-05-01T07:48:43Z</time></trkpt><trkpt lat="44.64807576000236" lon="10.866342600103584"><ele>40.0</ele><time>2026-05-01T07:48:44Z</time></trkpt><trkpt lat="44.64783137849971" lon="10.866490726271847"><ele>40.0</ele><time>2026-05-01T07:48:45Z</time></trkpt><trkpt lat="44.64758294688802" lon="10.866641585757533"><ele>39.5</ele><time>2026-05-01T07:48:46Z</time></trkpt><trkpt lat="44.647333659419964" lon="10.866797272013546"><ele>39.0</ele><time>2026-05-01T07:48:47Z</time></trkpt><trkpt lat="44.64708436783444" lon="10.866950388159873"><ele>40.5</ele><time>2026-05-01T07:48:48Z</time></trkpt><trkpt lat="44.6468334339354" lon="10.867105204488258"><ele>42.0</ele><time>2026-05-01T07:48:48.999Z</time></trkpt><trkpt lat="44.64658113020974" lon="10.867260031464777"><ele>42.0</ele><time>2026-05-01T07:48:49.999Z</time></trkpt><trkpt lat="44.64633179231435" lon="10.867416703080199"><ele>42.0</ele><time>2026-05-01T07:48:50.999Z</time></trkpt><trkpt lat="44.646079908111005" lon="10.867574039819651"><ele>43.0</ele><time>2026-05-01T07:48:51.999Z</time></trkpt><trkpt lat="44.64582900659691" lon="10.867734361513412"><ele>44.0</ele><time>2026-05-01T07:48:52.999Z</time></trkpt><trkpt lat="44.645579548241216" lon="10.867886066402031"><ele>44.0</ele><time>2026-05-01T07:48:53.999Z</time></trkpt><trkpt lat="44.64533053365773" lon="10.868038317561275"><ele>44.0</ele><time>2026-05-01T07:48:54.999Z</time></trkpt><trkpt lat="44.645084152559136" lon="10.868189052406036"><ele>42.5</ele><time>2026-05-01T07:48:55.999Z</time></trkpt><trkpt lat="44.64483752134588" lon="10.868339865051736"><ele>41.0</ele><time>2026-05-01T07:48:56.999Z</time></trkpt><trkpt lat="44.64459453270239" lon="10.868489818385235"><ele>41.5</ele><time>2026-05-01T07:48:57.999Z</time></trkpt><trkpt lat="44.64435355280027" lon="10.868639383041574"><ele>42.0</ele><time>2026-05-01T07:48:58.999Z</time></trkpt><trkpt lat="44.64411308267103" lon="10.868783607780589"><ele>42.0</ele><time>2026-05-01T07:48:59.999Z</time></trkpt><trkpt lat="44.64387224320074" lon="10.868929219445258"><ele>42.0</ele><time>2026-05-01T07:49:00.999Z</time></trkpt><trkpt lat="44.64363501869908" lon="10.86907356948594"><ele>41.5</ele><time>2026-05-01T07:49:01.999Z</time></trkpt><trkpt lat="44.643393908592564" lon="10.869219464247958"><ele>41.0</ele><time>2026-05-01T07:49:02.999Z</time></trkpt><trkpt lat="44.643148528027965" lon="10.869364538142133"><ele>40.0</ele><time>2026-05-01T07:49:03.999Z</time></trkpt><trkpt lat="44.6429020957137" lon="10.869514076109306"><ele>39.0</ele><time>2026-05-01T07:49:04.999Z</time></trkpt><trkpt lat="44.64265465299055" lon="10.869662352207607"><ele>39.0</ele><time>2026-05-01T07:49:05.999Z</time></trkpt><trkpt lat="44.64240588321489" lon="10.86981742969295"><ele>39.0</ele><time>2026-05-01T07:49:06.999Z</time></trkpt><trkpt lat="44.6421595927124" lon="10.869969531114755"><ele>39.0</ele><time>2026-05-01T07:49:07.999Z</time></trkpt><trkpt lat="44.64191272937948" lon="10.870126688309218"><ele>39.0</ele><time>2026-05-01T07:49:08.999Z</time></trkpt><trkpt lat="44.64166306851303" lon="10.870283209852944"><ele>39.0</ele><time>2026-05-01T07:49:09.999Z</time></trkpt><trkpt lat="44.64141296799591" lon="10.870442912633946"><ele>39.0</ele><time>2026-05-01T07:49:10.999Z</time></trkpt><trkpt lat="44.64116162564406" lon="10.870597060857165"><ele>38.0</ele><time>2026-05-01T07:49:11.999Z</time></trkpt><trkpt lat="44.640909866932844" lon="10.870750655811214"><ele>37.0</ele><time>2026-05-01T07:49:12.999Z</time></trkpt><trkpt lat="44.6406550130777" lon="10.870906391318451"><ele>37.0</ele><time>2026-05-01T07:49:13.999Z</time></trkpt><trkpt lat="44.64039881975648" lon="10.871066688627723"><ele>37.0</ele><time>2026-05-01T07:49:14.999Z</time></trkpt><trkpt lat="44.64014401829064" lon="10.87122415393779"><ele>37.0</ele><time>2026-05-01T07:49:15.999Z</time></trkpt><trkpt lat="44.639885230236025" lon="10.871386962177073"><ele>37.0</ele><time>2026-05-01T07:49:16.999Z</time></trkpt><trkpt lat="44.63962886240641" lon="10.871550520812834"><ele>36.5</ele><time>2026-05-01T07:49:17.999Z</time></trkpt><trkpt lat="44.639371742418426" lon="10.87171461769317"><ele>36.0</ele><time>2026-05-01T07:49:18.999Z</time></trkpt><trkpt lat="44.63911522318825" lon="10.871877599539213"><ele>37.5</ele><time>2026-05-01T07:49:20Z</time></trkpt><trkpt lat="44.63886022474235" lon="10.872037863131103"><ele>39.0</ele><time>2026-05-01T07:49:21Z</time></trkpt><trkpt lat="44.638601710667714" lon="10.872201047005808"><ele>39.5</ele><time>2026-05-01T07:49:22Z</time></trkpt><trkpt lat="44.63834612654342" lon="10.872356964277458"><ele>40.0</ele><time>2026-05-01T07:49:23Z</time></trkpt><trkpt lat="44.63808989669031" lon="10.87251159713347"><ele>40.5</ele><time>2026-05-01T07:49:24Z</time></trkpt><trkpt lat="44.63783362371715" lon="10.87266650868886"><ele>41.0</ele><time>2026-05-01T07:49:25Z</time></trkpt><trkpt lat="44.637571053138366" lon="10.872826517742995"><ele>41.0</ele><time>2026-05-01T07:49:26Z</time></trkpt><trkpt lat="44.63731007620484" lon="10.872985281563503"><ele>41.0</ele><time>2026-05-01T07:49:27Z</time></trkpt><trkpt lat="44.63704831506447" lon="10.873146022048187"><ele>41.0</ele><time>2026-05-01T07:49:28Z</time></trkpt><trkpt lat="44.636783920176704" lon="10.873305893065279"><ele>41.0</ele><time>2026-05-01T07:49:29Z</time></trkpt><trkpt lat="44.63651805024534" lon="10.873467357763076"><ele>41.0</ele><time>2026-05-01T07:49:30Z</time></trkpt><trkpt lat="44.63625651919395" lon="10.873629842478353"><ele>41.0</ele><time>2026-05-01T07:49:31Z</time></trkpt><trkpt lat="44.63600894616134" lon="10.873791936030928"><ele>41.5</ele><time>2026-05-01T07:49:32Z</time></trkpt><trkpt lat="44.63573418687394" lon="10.87395950316157"><ele>42.0</ele><time>2026-05-01T07:49:33Z</time></trkpt><trkpt lat="44.6354711716104" lon="10.874118269073284"><ele>42.0</ele><time>2026-05-01T07:49:34Z</time></trkpt><trkpt lat="44.635212111399156" lon="10.874279314160802"><ele>42.0</ele><time>2026-05-01T07:49:35Z</time></trkpt><trkpt lat="44.63494882195255" lon="10.874440938971327"><ele>42.0</ele><time>2026-05-01T07:49:36Z</time></trkpt><trkpt lat="44.63468716478156" lon="10.874601284307667"><ele>42.0</ele><time>2026-05-01T07:49:37Z</time></trkpt><trkpt lat="44.63442587658698" lon="10.874759317773014"><ele>41.0</ele><time>2026-05-01T07:49:38Z</time></trkpt><trkpt lat="44.63416505722506" lon="10.874917344000403"><ele>40.0</ele><time>2026-05-01T07:49:39Z</time></trkpt><trkpt lat="44.63390648080911" lon="10.87507465176477"><ele>40.0</ele><time>2026-05-01T07:49:40Z</time></trkpt><trkpt lat="44.63364801113541" lon="10.875233459818219"><ele>40.0</ele><time>2026-05-01T07:49:41Z</time></trkpt><trkpt lat="44.633390090928046" lon="10.875387243231351"><ele>40.0</ele><time>2026-05-01T07:49:42Z</time></trkpt><trkpt lat="44.63313071564044" lon="10.875548823954741"><ele>40.0</ele><time>2026-05-01T07:49:43Z</time></trkpt><trkpt lat="44.6328725551833" lon="10.87570415110194"><ele>40.5</ele><time>2026-05-01T07:49:44Z</time></trkpt><trkpt lat="44.63261641481122" lon="10.875860537054573"><ele>41.0</ele><time>2026-05-01T07:49:45Z</time></trkpt><trkpt lat="44.632357861398994" lon="10.876018203729842"><ele>41.5</ele><time>2026-05-01T07:49:46Z</time></trkpt><trkpt lat="44.63210062196814" lon="10.876170978473136"><ele>42.0</ele><time>2026-05-01T07:49:47Z</time></trkpt><trkpt lat="44.631841324344435" lon="10.876330397583637"><ele>42.5</ele><time>2026-05-01T07:49:48Z</time></trkpt><trkpt lat="44.63158477058458" lon="10.876488862349074"><ele>43.0</ele><time>2026-05-01T07:49:49Z</time></trkpt><trkpt lat="44.63132841405629" lon="10.876647322914964"><ele>41.5</ele><time>2026-05-01T07:49:50Z</time></trkpt><trkpt lat="44.63107321981505" lon="10.876807091629104"><ele>40.0</ele><time>2026-05-01T07:49:51Z</time></trkpt><trkpt lat="44.63081833547793" lon="10.876962115663575"><ele>40.0</ele><time>2026-05-01T07:49:52Z</time></trkpt><trkpt lat="44.63056559535473" lon="10.87711810154243"><ele>40.0</ele><time>2026-05-01T07:49:53Z</time></trkpt><trkpt lat="44.63030714162889" lon="10.877280288013052"><ele>40.0</ele><time>2026-05-01T07:49:54Z</time></trkpt><trkpt lat="44.630050106951636" lon="10.87743535745247"><ele>40.0</ele><time>2026-05-01T07:49:55Z</time></trkpt><trkpt lat="44.62979120764629" lon="10.877591499923659"><ele>40.0</ele><time>2026-05-01T07:49:56Z</time></trkpt><trkpt lat="44.62953059153665" lon="10.877750584313905"><ele>40.0</ele><time>2026-05-01T07:49:57Z</time></trkpt><trkpt lat="44.62926855783222" lon="10.877912651310155"><ele>43.5</ele><time>2026-05-01T07:49:58Z</time></trkpt><trkpt lat="44.629009095373824" lon="10.878075651651013"><ele>47.0</ele><time>2026-05-01T07:49:59Z</time></trkpt><trkpt lat="44.62874591833483" lon="10.87823834860318"><ele>46.5</ele><time>2026-05-01T07:50:00Z</time></trkpt><trkpt lat="44.628483490573686" lon="10.878398242976271"><ele>46.0</ele><time>2026-05-01T07:50:01Z</time></trkpt><trkpt lat="44.628224963576905" lon="10.878552307559772"><ele>45.5</ele><time>2026-05-01T07:50:02Z</time></trkpt><trkpt lat="44.627958389419824" lon="10.87871408038994"><ele>45.0</ele><time>2026-05-01T07:50:03Z</time></trkpt><trkpt lat="44.627697727998076" lon="10.87888576142722"><ele>44.0</ele><time>2026-05-01T07:50:04Z</time></trkpt><trkpt lat="44.62743669994288" lon="10.879047698601642"><ele>43.0</ele><time>2026-05-01T07:50:05Z</time></trkpt><trkpt lat="44.627175406211904" lon="10.879210376221106"><ele>43.0</ele><time>2026-05-01T07:50:06Z</time></trkpt><trkpt lat="44.62691033747796" lon="10.879377314467344"><ele>43.0</ele><time>2026-05-01T07:50:07Z</time></trkpt><trkpt lat="44.62664893069632" lon="10.879551047367094"><ele>43.0</ele><time>2026-05-01T07:50:08Z</time></trkpt><trkpt lat="44.62638705640583" lon="10.879725937971296"><ele>43.0</ele><time>2026-05-01T07:50:09Z</time></trkpt><trkpt lat="44.62612432363064" lon="10.879887723528288"><ele>43.5</ele><time>2026-05-01T07:50:10Z</time></trkpt><trkpt lat="44.625860702262266" lon="10.880050477042062"><ele>44.0</ele><time>2026-05-01T07:50:11Z</time></trkpt><trkpt lat="44.62559816180201" lon="10.880210949600016"><ele>44.0</ele><time>2026-05-01T07:50:12Z</time></trkpt><trkpt lat="44.62533642561248" lon="10.880369042063581"><ele>44.0</ele><time>2026-05-01T07:50:13Z</time></trkpt><trkpt lat="44.625073415184616" lon="10.880524971706617"><ele>43.5</ele><time>2026-05-01T07:50:14Z</time></trkpt><trkpt lat="44.62481200686343" lon="10.880683786081978"><ele>43.0</ele><time>2026-05-01T07:50:15Z</time></trkpt><trkpt lat="44.62455070856212" lon="10.88084532768047"><ele>43.0</ele><time>2026-05-01T07:50:16Z</time></trkpt><trkpt lat="44.62428915744868" lon="10.881005276315449"><ele>43.0</ele><time>2026-05-01T07:50:17Z</time></trkpt><trkpt lat="44.62402717651267" lon="10.881164825913528"><ele>43.0</ele><time>2026-05-01T07:50:18Z</time></trkpt><trkpt lat="44.623770110706324" lon="10.88132100910071"><ele>43.0</ele><time>2026-05-01T07:50:19Z</time></trkpt><trkpt lat="44.623514848664364" lon="10.881477505017978"><ele>43.0</ele><time>2026-05-01T07:50:20Z</time></trkpt><trkpt lat="44.62326010343702" lon="10.881634008259308"><ele>43.0</ele><time>2026-05-01T07:50:21Z</time></trkpt><trkpt lat="44.62300709199956" lon="10.881793698485753"><ele>44.0</ele><time>2026-05-01T07:50:22Z</time></trkpt><trkpt lat="44.622752776560915" lon="10.881953486858997"><ele>45.0</ele><time>2026-05-01T07:50:23Z</time></trkpt><trkpt lat="44.62249563436666" lon="10.882111119807888"><ele>45.0</ele><time>2026-05-01T07:50:24Z</time></trkpt><trkpt lat="44.62223649401741" lon="10.882267051534853"><ele>45.0</ele><time>2026-05-01T07:50:25Z</time></trkpt><trkpt lat="44.62197521641391" lon="10.882425720811812"><ele>45.5</ele><time>2026-05-01T07:50:26Z</time></trkpt><trkpt lat="44.621712846331725" lon="10.882588011319001"><ele>46.0</ele><time>2026-05-01T07:50:27Z</time></trkpt><trkpt lat="44.6214523492735" lon="10.882755529766449"><ele>46.0</ele><time>2026-05-01T07:50:28Z</time></trkpt><trkpt lat="44.621194427625376" lon="10.882935547367122"><ele>46.0</ele><time>2026-05-01T07:50:29Z</time></trkpt><trkpt lat="44.620944123861946" lon="10.883127440539107"><ele>46.5</ele><time>2026-05-01T07:50:30Z</time></trkpt><trkpt lat="44.62069796448905" lon="10.883329384695456"><ele>47.0</ele><time>2026-05-01T07:50:31Z</time></trkpt><trkpt lat="44.620453015812274" lon="10.88354162643131"><ele>45.0</ele><time>2026-05-01T07:50:32Z</time></trkpt><trkpt lat="44.62021196560551" lon="10.883759318610144"><ele>43.0</ele><time>2026-05-01T07:50:33Z</time></trkpt><trkpt lat="44.61997565396418" lon="10.883982246322638"><ele>43.0</ele><time>2026-05-01T07:50:34Z</time></trkpt><trkpt lat="44.619745719053" lon="10.8842101193362"><ele>43.0</ele><time>2026-05-01T07:50:35Z</time></trkpt><trkpt lat="44.61952355497149" lon="10.88443940299871"><ele>44.0</ele><time>2026-05-01T07:50:36Z</time></trkpt><trkpt lat="44.61930773356058" lon="10.884677024166463"><ele>45.0</ele><time>2026-05-01T07:50:37Z</time></trkpt><trkpt lat="44.61909814370165" lon="10.884923170280018"><ele>44.5</ele><time>2026-05-01T07:50:38Z</time></trkpt><trkpt lat="44.618889717239476" lon="10.885174385589277"><ele>44.0</ele><time>2026-05-01T07:50:39Z</time></trkpt><trkpt lat="44.618688009329105" lon="10.885433291205857"><ele>45.0</ele><time>2026-05-01T07:50:40Z</time></trkpt><trkpt lat="44.61849450949534" lon="10.885696445435428"><ele>46.0</ele><time>2026-05-01T07:50:41Z</time></trkpt><trkpt lat="44.61830232456863" lon="10.88596627025923"><ele>46.0</ele><time>2026-05-01T07:50:42Z</time></trkpt><trkpt lat="44.61811774063465" lon="10.886233661952055"><ele>46.0</ele><time>2026-05-01T07:50:43Z</time></trkpt><trkpt lat="44.61793673061012" lon="10.886506787318103"><ele>45.5</ele><time>2026-05-01T07:50:44Z</time></trkpt><trkpt lat="44.617763737101576" lon="10.886783749320891"><ele>45.0</ele><time>2026-05-01T07:50:45Z</time></trkpt><trkpt lat="44.61759393843991" lon="10.887070792343186"><ele>45.0</ele><time>2026-05-01T07:50:46Z</time></trkpt><trkpt lat="44.617427393916536" lon="10.8873578837091"><ele>45.0</ele><time>2026-05-01T07:50:47Z</time></trkpt><trkpt lat="44.61726236553137" lon="10.887651981850953"><ele>45.0</ele><time>2026-05-01T07:50:48Z</time></trkpt><trkpt lat="44.61710379087767" lon="10.887951021634303"><ele>45.0</ele><time>2026-05-01T07:50:49Z</time></trkpt><trkpt lat="44.61695194836128" lon="10.888255082203015"><ele>46.0</ele><time>2026-05-01T07:50:50Z</time></trkpt><trkpt lat="44.61680658954113" lon="10.888568308719185"><ele>47.0</ele><time>2026-05-01T07:50:50.999Z</time></trkpt><trkpt lat="44.61666546060794" lon="10.888884698535737"><ele>47.0</ele><time>2026-05-01T07:50:51.999Z</time></trkpt><trkpt lat="44.616526907130215" lon="10.889201970590783"><ele>47.0</ele><time>2026-05-01T07:50:52.999Z</time></trkpt><trkpt lat="44.61638955784632" lon="10.889523157754356"><ele>47.0</ele><time>2026-05-01T07:50:53.999Z</time></trkpt><trkpt lat="44.61625355587064" lon="10.889841356251502"><ele>47.0</ele><time>2026-05-01T07:50:54.999Z</time></trkpt><trkpt lat="44.61611729991639" lon="10.890155697202768"><ele>47.0</ele><time>2026-05-01T07:50:55.999Z</time></trkpt><trkpt lat="44.61598434368862" lon="10.8904622080672"><ele>47.0</ele><time>2026-05-01T07:50:56.999Z</time></trkpt><trkpt lat="44.615855335487005" lon="10.890756425785304"><ele>46.5</ele><time>2026-05-01T07:50:57.999Z</time></trkpt><trkpt lat="44.61572956228919" lon="10.891050065350376"><ele>46.0</ele><time>2026-05-01T07:50:58.999Z</time></trkpt><trkpt lat="44.61560457388052" lon="10.89134374055402"><ele>46.0</ele><time>2026-05-01T07:50:59.999Z</time></trkpt><trkpt lat="44.61548136360335" lon="10.891636587551682"><ele>46.0</ele><time>2026-05-01T07:51:00.999Z</time></trkpt><trkpt lat="44.61535775849491" lon="10.891927696691102"><ele>46.5</ele><time>2026-05-01T07:51:01.999Z</time></trkpt><trkpt lat="44.61523245242639" lon="10.892217984048521"><ele>47.0</ele><time>2026-05-01T07:51:02.999Z</time></trkpt><trkpt lat="44.61510769452516" lon="10.892508675305084"><ele>46.0</ele><time>2026-05-01T07:51:03.999Z</time></trkpt><trkpt lat="44.6149821758793" lon="10.89280093151185"><ele>45.0</ele><time>2026-05-01T07:51:04.999Z</time></trkpt><trkpt lat="44.614855954981664" lon="10.893099407184934"><ele>45.0</ele><time>2026-05-01T07:51:05.999Z</time></trkpt><trkpt lat="44.61472935764225" lon="10.89340158788612"><ele>45.0</ele><time>2026-05-01T07:51:06.999Z</time></trkpt><trkpt lat="44.614603235087706" lon="10.893703403925914"><ele>44.5</ele><time>2026-05-01T07:51:07.999Z</time></trkpt><trkpt lat="44.61447530129922" lon="10.894008469960406"><ele>44.0</ele><time>2026-05-01T07:51:08.999Z</time></trkpt><trkpt lat="44.61434354770701" lon="10.8943155057495"><ele>44.0</ele><time>2026-05-01T07:51:09.999Z</time></trkpt><trkpt lat="44.61420979668797" lon="10.894627197549505"><ele>44.0</ele><time>2026-05-01T07:51:10.999Z</time></trkpt><trkpt lat="44.61407495108272" lon="10.894941277123824"><ele>43.5</ele><time>2026-05-01T07:51:11.999Z</time></trkpt><trkpt lat="44.61393784229478" lon="10.895258660838014"><ele>43.0</ele><time>2026-05-01T07:51:12.999Z</time></trkpt><trkpt lat="44.61379789332771" lon="10.895580447220604"><ele>43.0</ele><time>2026-05-01T07:51:13.999Z</time></trkpt><trkpt lat="44.61365608977078" lon="10.89590318960273"><ele>43.0</ele><time>2026-05-01T07:51:14.999Z</time></trkpt><trkpt lat="44.61351206785246" lon="10.896233703274936"><ele>43.5</ele><time>2026-05-01T07:51:15.999Z</time></trkpt><trkpt lat="44.613365962480266" lon="10.89656821904512"><ele>44.0</ele><time>2026-05-01T07:51:16.999Z</time></trkpt><trkpt lat="44.61321857878698" lon="10.89690488744862"><ele>44.0</ele><time>2026-05-01T07:51:17.999Z</time></trkpt><trkpt lat="44.61306781001816" lon="10.897246252107172"><ele>44.0</ele><time>2026-05-01T07:51:18.999Z</time></trkpt><trkpt lat="44.6129152236222" lon="10.897588492307557"><ele>44.5</ele><time>2026-05-01T07:51:19.999Z</time></trkpt><trkpt lat="44.61276417726449" lon="10.897931658343982"><ele>45.0</ele><time>2026-05-01T07:51:20.999Z</time></trkpt><trkpt lat="44.612613725840994" lon="10.898275043145532"><ele>44.5</ele><time>2026-05-01T07:51:21.999Z</time></trkpt><trkpt lat="44.612463185943525" lon="10.89861867568082"><ele>44.0</ele><time>2026-05-01T07:51:22.999Z</time></trkpt><trkpt lat="44.61231254237052" lon="10.89895966939688"><ele>43.5</ele><time>2026-05-01T07:51:23.999Z</time></trkpt><trkpt lat="44.612162490633004" lon="10.899298918828803"><ele>43.0</ele><time>2026-05-01T07:51:24.999Z</time></trkpt><trkpt lat="44.61201256626529" lon="10.899641241247886"><ele>43.0</ele><time>2026-05-01T07:51:26Z</time></trkpt><trkpt lat="44.61186487984654" lon="10.899980867125368"><ele>43.0</ele><time>2026-05-01T07:51:27Z</time></trkpt><trkpt lat="44.611718542247" lon="10.900316139252077"><ele>43.0</ele><time>2026-05-01T07:51:28Z</time></trkpt><trkpt lat="44.61157038535781" lon="10.90065329151448"><ele>43.0</ele><time>2026-05-01T07:51:29Z</time></trkpt><trkpt lat="44.611422413336165" lon="10.900989853546372"><ele>43.0</ele><time>2026-05-01T07:51:30Z</time></trkpt><trkpt lat="44.611275461997266" lon="10.901328719825857"><ele>43.0</ele><time>2026-05-01T07:51:31Z</time></trkpt><trkpt lat="44.61112935789173" lon="10.901666432554642"><ele>42.0</ele><time>2026-05-01T07:51:32Z</time></trkpt><trkpt lat="44.6109835113723" lon="10.902005297056823"><ele>41.0</ele><time>2026-05-01T07:51:33Z</time></trkpt><trkpt lat="44.61083966745791" lon="10.90234391129424"><ele>41.5</ele><time>2026-05-01T07:51:34Z</time></trkpt><trkpt lat="44.610694091187824" lon="10.902686760974358"><ele>42.0</ele><time>2026-05-01T07:51:35Z</time></trkpt><trkpt lat="44.61054847699752" lon="10.903028400015478"><ele>42.0</ele><time>2026-05-01T07:51:36Z</time></trkpt><trkpt lat="44.610402934755285" lon="10.903368322519318"><ele>42.0</ele><time>2026-05-01T07:51:37Z</time></trkpt><trkpt lat="44.610256293581095" lon="10.903711001721415"><ele>42.0</ele><time>2026-05-01T07:51:38Z</time></trkpt><trkpt lat="44.61010860689801" lon="10.904057234208313"><ele>42.0</ele><time>2026-05-01T07:51:39Z</time></trkpt><trkpt lat="44.60995901090227" lon="10.904406902384276"><ele>41.5</ele><time>2026-05-01T07:51:40Z</time></trkpt><trkpt lat="44.60980951709645" lon="10.904754661652806"><ele>41.0</ele><time>2026-05-01T07:51:41Z</time></trkpt><trkpt lat="44.60965817916198" lon="10.905114412724673"><ele>41.0</ele><time>2026-05-01T07:51:42Z</time></trkpt><trkpt lat="44.60950602847866" lon="10.905477905804325"><ele>41.0</ele><time>2026-05-01T07:51:43Z</time></trkpt><trkpt lat="44.609376347189" lon="10.905792231923545"><ele>40.0</ele><time>2026-05-01T07:51:44Z</time></trkpt><trkpt lat="44.60922695171496" lon="10.906135457926322"><ele>39.0</ele><time>2026-05-01T07:51:45Z</time></trkpt><trkpt lat="44.60907604183071" lon="10.90647851863767"><ele>40.0</ele><time>2026-05-01T07:51:46Z</time></trkpt><trkpt lat="44.60892803146767" lon="10.906826243995287"><ele>41.0</ele><time>2026-05-01T07:51:47Z</time></trkpt><trkpt lat="44.60877741851641" lon="10.907173606339844"><ele>41.5</ele><time>2026-05-01T07:51:48Z</time></trkpt><trkpt lat="44.60862856829563" lon="10.907521831523507"><ele>42.0</ele><time>2026-05-01T07:51:49Z</time></trkpt><trkpt lat="44.608480189870534" lon="10.90786826872368"><ele>42.0</ele><time>2026-05-01T07:51:50Z</time></trkpt><trkpt lat="44.60833049558258" lon="10.908213122859772"><ele>42.0</ele><time>2026-05-01T07:51:51Z</time></trkpt><trkpt lat="44.6081845987798" lon="10.90856458296833"><ele>41.0</ele><time>2026-05-01T07:51:52Z</time></trkpt><trkpt lat="44.60803812902994" lon="10.908905705397027"><ele>40.0</ele><time>2026-05-01T07:51:53Z</time></trkpt><trkpt lat="44.60788810625427" lon="10.909252285476704"><ele>40.5</ele><time>2026-05-01T07:51:54Z</time></trkpt><trkpt lat="44.60773991858573" lon="10.909591405784553"><ele>41.0</ele><time>2026-05-01T07:51:55Z</time></trkpt><trkpt lat="44.607592708480034" lon="10.90993945489705"><ele>40.5</ele><time>2026-05-01T07:51:56Z</time></trkpt><trkpt lat="44.60744459108465" lon="10.910281793333912"><ele>40.0</ele><time>2026-05-01T07:51:57Z</time></trkpt><trkpt lat="44.60729980508652" lon="10.910634258455483"><ele>39.5</ele><time>2026-05-01T07:51:58Z</time></trkpt><trkpt lat="44.60715111902808" lon="10.910976722728648"><ele>39.0</ele><time>2026-05-01T07:51:59Z</time></trkpt><trkpt lat="44.607002596735825" lon="10.91132880654708"><ele>39.0</ele><time>2026-05-01T07:52:00Z</time></trkpt><trkpt lat="44.606851006277545" lon="10.911681168387288"><ele>39.0</ele><time>2026-05-01T07:52:01Z</time></trkpt><trkpt lat="44.606696985967076" lon="10.912034446724036"><ele>39.0</ele><time>2026-05-01T07:52:02Z</time></trkpt><trkpt lat="44.60654443183526" lon="10.912395383225723"><ele>39.0</ele><time>2026-05-01T07:52:03Z</time></trkpt><trkpt lat="44.60638685237232" lon="10.912758622979918"><ele>39.0</ele><time>2026-05-01T07:52:04Z</time></trkpt><trkpt lat="44.60623396287305" lon="10.913123233770648"><ele>39.0</ele><time>2026-05-01T07:52:05Z</time></trkpt><trkpt lat="44.606076470266245" lon="10.913491566605373"><ele>41.5</ele><time>2026-05-01T07:52:06Z</time></trkpt><trkpt lat="44.60591549678645" lon="10.913859674897056"><ele>44.0</ele><time>2026-05-01T07:52:07Z</time></trkpt><trkpt lat="44.60575967980836" lon="10.914230593736427"><ele>42.0</ele><time>2026-05-01T07:52:08Z</time></trkpt><trkpt lat="44.60560117660872" lon="10.914593466404725"><ele>40.0</ele><time>2026-05-01T07:52:09Z</time></trkpt><trkpt lat="44.605448553242034" lon="10.914964017117383"><ele>41.0</ele><time>2026-05-01T07:52:10Z</time></trkpt><trkpt lat="44.605286621580774" lon="10.915328457167105"><ele>42.0</ele><time>2026-05-01T07:52:11Z</time></trkpt><trkpt lat="44.60512860349443" lon="10.915702592108746"><ele>41.0</ele><time>2026-05-01T07:52:12Z</time></trkpt><trkpt lat="44.604973146806564" lon="10.91607847908668"><ele>40.0</ele><time>2026-05-01T07:52:13Z</time></trkpt><trkpt lat="44.6048175284715" lon="10.916453997392884"><ele>39.0</ele><time>2026-05-01T07:52:14Z</time></trkpt><trkpt lat="44.60465895470388" lon="10.916823069368553"><ele>38.0</ele><time>2026-05-01T07:52:15Z</time></trkpt><trkpt lat="44.604507111469296" lon="10.91719334416741"><ele>39.5</ele><time>2026-05-01T07:52:16Z</time></trkpt><trkpt lat="44.60434599320746" lon="10.91755834844185"><ele>41.0</ele><time>2026-05-01T07:52:17Z</time></trkpt><trkpt lat="44.60418723333982" lon="10.917926432457971"><ele>41.0</ele><time>2026-05-01T07:52:18Z</time></trkpt><trkpt lat="44.604031487344265" lon="10.918293406602064"><ele>41.0</ele><time>2026-05-01T07:52:19Z</time></trkpt><trkpt lat="44.60388142039964" lon="10.91865753060747"><ele>41.0</ele><time>2026-05-01T07:52:20Z</time></trkpt><trkpt lat="44.60372265711151" lon="10.91902344754446"><ele>41.0</ele><time>2026-05-01T07:52:21Z</time></trkpt><trkpt lat="44.60356225203616" lon="10.91939299390133"><ele>41.0</ele><time>2026-05-01T07:52:22Z</time></trkpt><trkpt lat="44.60340294904325" lon="10.919758345380954"><ele>41.0</ele><time>2026-05-01T07:52:23Z</time></trkpt><trkpt lat="44.60325028329353" lon="10.92012351635782"><ele>41.5</ele><time>2026-05-01T07:52:24Z</time></trkpt><trkpt lat="44.60309557101466" lon="10.920490738211665"><ele>42.0</ele><time>2026-05-01T07:52:25Z</time></trkpt><trkpt lat="44.602935393710226" lon="10.920859879369411"><ele>41.5</ele><time>2026-05-01T07:52:26Z</time></trkpt><trkpt lat="44.602779192337955" lon="10.921225113596487"><ele>41.0</ele><time>2026-05-01T07:52:27Z</time></trkpt><trkpt lat="44.60262509401371" lon="10.921589312711053"><ele>40.5</ele><time>2026-05-01T07:52:28Z</time></trkpt><trkpt lat="44.60246929294887" lon="10.921951783318791"><ele>40.0</ele><time>2026-05-01T07:52:29Z</time></trkpt><trkpt lat="44.60231731912725" lon="10.922319432537524"><ele>40.0</ele><time>2026-05-01T07:52:30Z</time></trkpt><trkpt lat="44.602161558679974" lon="10.922679047602987"><ele>40.0</ele><time>2026-05-01T07:52:31Z</time></trkpt><trkpt lat="44.602006597641086" lon="10.923043216100181"><ele>39.5</ele><time>2026-05-01T07:52:32Z</time></trkpt><trkpt lat="44.601848259117496" lon="10.923408363211221"><ele>39.0</ele><time>2026-05-01T07:52:33Z</time></trkpt><trkpt lat="44.601693395922005" lon="10.923771051719978"><ele>39.0</ele><time>2026-05-01T07:52:34Z</time></trkpt><trkpt lat="44.60153880605815" lon="10.924134319634469"><ele>39.0</ele><time>2026-05-01T07:52:35Z</time></trkpt><trkpt lat="44.601384533488456" lon="10.924496806857615"><ele>40.0</ele><time>2026-05-01T07:52:36Z</time></trkpt><trkpt lat="44.60122656461491" lon="10.924860113666359"><ele>41.0</ele><time>2026-05-01T07:52:37Z</time></trkpt><trkpt lat="44.60107201273913" lon="10.925225072373966"><ele>41.0</ele><time>2026-05-01T07:52:38Z</time></trkpt><trkpt lat="44.60091449561605" lon="10.925588240365034"><ele>41.0</ele><time>2026-05-01T07:52:39Z</time></trkpt><trkpt lat="44.60075100408926" lon="10.925954366791416"><ele>41.0</ele><time>2026-05-01T07:52:40Z</time></trkpt><trkpt lat="44.60059615562496" lon="10.926317921511396"><ele>41.0</ele><time>2026-05-01T07:52:41Z</time></trkpt><trkpt lat="44.60044558610559" lon="10.926689401055759"><ele>40.5</ele><time>2026-05-01T07:52:42Z</time></trkpt><trkpt lat="44.60028801307319" lon="10.927059170484933"><ele>40.0</ele><time>2026-05-01T07:52:43Z</time></trkpt><trkpt lat="44.600132577940315" lon="10.927425040819307"><ele>40.0</ele><time>2026-05-01T07:52:44Z</time></trkpt><trkpt lat="44.59997709506619" lon="10.927788828143928"><ele>40.0</ele><time>2026-05-01T07:52:45Z</time></trkpt><trkpt lat="44.599821808927445" lon="10.928153608346726"><ele>41.0</ele><time>2026-05-01T07:52:46Z</time></trkpt><trkpt lat="44.59966782136916" lon="10.928511237615163"><ele>42.0</ele><time>2026-05-01T07:52:47Z</time></trkpt><trkpt lat="44.59951563262439" lon="10.92886816466833"><ele>43.0</ele><time>2026-05-01T07:52:48Z</time></trkpt><trkpt lat="44.59936223073431" lon="10.929228178923596"><ele>44.0</ele><time>2026-05-01T07:52:49Z</time></trkpt><trkpt lat="44.59920989503331" lon="10.929586123719238"><ele>44.0</ele><time>2026-05-01T07:52:50Z</time></trkpt><trkpt lat="44.59906031430214" lon="10.929944432733837"><ele>44.0</ele><time>2026-05-01T07:52:51Z</time></trkpt><trkpt lat="44.59890744942212" lon="10.930297991446867"><ele>43.5</ele><time>2026-05-01T07:52:52Z</time></trkpt><trkpt lat="44.59875673882318" lon="10.93065502850156"><ele>43.0</ele><time>2026-05-01T07:52:52.999Z</time></trkpt><trkpt lat="44.59860885150762" lon="10.931008530740135"><ele>41.0</ele><time>2026-05-01T07:52:53.999Z</time></trkpt><trkpt lat="44.5984626654279" lon="10.931363183283027"><ele>39.0</ele><time>2026-05-01T07:52:54.999Z</time></trkpt><trkpt lat="44.5983141717536" lon="10.93171792439291"><ele>39.5</ele><time>2026-05-01T07:52:55.999Z</time></trkpt><trkpt lat="44.59816634849542" lon="10.932070998471003"><ele>40.0</ele><time>2026-05-01T07:52:56.999Z</time></trkpt><trkpt lat="44.598019659361306" lon="10.932424817255518"><ele>40.0</ele><time>2026-05-01T07:52:57.999Z</time></trkpt><trkpt lat="44.597870221507755" lon="10.932781052360294"><ele>40.0</ele><time>2026-05-01T07:52:58.999Z</time></trkpt><trkpt lat="44.59772096473674" lon="10.933136040424541"><ele>41.5</ele><time>2026-05-01T07:52:59.999Z</time></trkpt><trkpt lat="44.59756696545673" lon="10.933493033616905"><ele>43.0</ele><time>2026-05-01T07:53:00.999Z</time></trkpt><trkpt lat="44.5974149456815" lon="10.9338479812564"><ele>43.0</ele><time>2026-05-01T07:53:01.999Z</time></trkpt><trkpt lat="44.597263016108734" lon="10.934207286289933"><ele>43.0</ele><time>2026-05-01T07:53:02.999Z</time></trkpt><trkpt lat="44.59711306563343" lon="10.934563254143363"><ele>43.0</ele><time>2026-05-01T07:53:03.999Z</time></trkpt><trkpt lat="44.59695984665382" lon="10.934918869786282"><ele>43.0</ele><time>2026-05-01T07:53:04.999Z</time></trkpt><trkpt lat="44.596808323896724" lon="10.9352736216782"><ele>43.0</ele><time>2026-05-01T07:53:05.999Z</time></trkpt><trkpt lat="44.59665414455276" lon="10.935631706371304"><ele>43.0</ele><time>2026-05-01T07:53:06.999Z</time></trkpt><trkpt lat="44.59650323360826" lon="10.935984858146288"><ele>43.0</ele><time>2026-05-01T07:53:07.999Z</time></trkpt><trkpt lat="44.59635079437507" lon="10.936338761105523"><ele>43.0</ele><time>2026-05-01T07:53:08.999Z</time></trkpt><trkpt lat="44.59620144333667" lon="10.936688590768117"><ele>43.0</ele><time>2026-05-01T07:53:09.999Z</time></trkpt><trkpt lat="44.59605280719966" lon="10.937041152374642"><ele>43.0</ele><time>2026-05-01T07:53:10.999Z</time></trkpt><trkpt lat="44.59590757232504" lon="10.937388545743518"><ele>42.5</ele><time>2026-05-01T07:53:11.999Z</time></trkpt><trkpt lat="44.59576050894515" lon="10.937734816997777"><ele>42.0</ele><time>2026-05-01T07:53:12.999Z</time></trkpt><trkpt lat="44.59561286587492" lon="10.938079869190426"><ele>41.0</ele><time>2026-05-01T07:53:13.999Z</time></trkpt><trkpt lat="44.595467728155896" lon="10.938421290044698"><ele>40.0</ele><time>2026-05-01T07:53:14.999Z</time></trkpt><trkpt lat="44.59532006253225" lon="10.9387617772986"><ele>40.0</ele><time>2026-05-01T07:53:15.999Z</time></trkpt><trkpt lat="44.59517439265498" lon="10.939103602210102"><ele>40.0</ele><time>2026-05-01T07:53:16.999Z</time></trkpt><trkpt lat="44.595028754887096" lon="10.939441475887293"><ele>40.0</ele><time>2026-05-01T07:53:17.999Z</time></trkpt><trkpt lat="44.59488213582502" lon="10.939782262055461"><ele>40.0</ele><time>2026-05-01T07:53:18.999Z</time></trkpt><trkpt lat="44.59473420731744" lon="10.940121623193354"><ele>39.5</ele><time>2026-05-01T07:53:19.999Z</time></trkpt><trkpt lat="44.59458823221672" lon="10.940460450064204"><ele>39.0</ele><time>2026-05-01T07:53:20.999Z</time></trkpt><trkpt lat="44.59444425743255" lon="10.94079595731693"><ele>40.5</ele><time>2026-05-01T07:53:21.999Z</time></trkpt><trkpt lat="44.59430620595935" lon="10.941123697678014"><ele>42.0</ele><time>2026-05-01T07:53:22.999Z</time></trkpt><trkpt lat="44.59417091849249" lon="10.941436679477166"><ele>42.0</ele><time>2026-05-01T07:53:23.999Z</time></trkpt><trkpt lat="44.5940323475826" lon="10.941747084103632"><ele>42.0</ele><time>2026-05-01T07:53:24.999Z</time></trkpt><trkpt lat="44.5938894849764" lon="10.942055693643496"><ele>42.0</ele><time>2026-05-01T07:53:25.999Z</time></trkpt><trkpt lat="44.593749316227566" lon="10.942365366226765"><ele>42.0</ele><time>2026-05-01T07:53:26.999Z</time></trkpt><trkpt lat="44.59361320468619" lon="10.942664657465182"><ele>42.5</ele><time>2026-05-01T07:53:27.999Z</time></trkpt><trkpt lat="44.593485690221534" lon="10.942953145190502"><ele>43.0</ele><time>2026-05-01T07:53:28.999Z</time></trkpt><trkpt lat="44.59336173354129" lon="10.943236477532862"><ele>42.333333333333336</ele><time>2026-05-01T07:53:29.999Z</time></trkpt><trkpt lat="44.59324614602358" lon="10.943501478990102"><ele>41.666666666666664</ele><time>2026-05-01T07:53:30.999Z</time></trkpt><trkpt lat="44.59313533528421" lon="10.94376247563065"><ele>41.0</ele><time>2026-05-01T07:53:32Z</time></trkpt><trkpt lat="44.59302847520528" lon="10.944013010354947"><ele>41.0</ele><time>2026-05-01T07:53:33Z</time></trkpt><trkpt lat="44.59292159181321" lon="10.94426618996968"><ele>41.0</ele><time>2026-05-01T07:53:34Z</time></trkpt><trkpt lat="44.59281404307606" lon="10.944518217302646"><ele>41.0</ele><time>2026-05-01T07:53:35Z</time></trkpt><trkpt lat="44.59270764225542" lon="10.94476283207469"><ele>41.33333333333333</ele><time>2026-05-01T07:53:36Z</time></trkpt><trkpt lat="44.59260121394599" lon="10.945004053545924"><ele>41.666666666666664</ele><time>2026-05-01T07:53:37Z</time></trkpt><trkpt lat="44.59249531924355" lon="10.945248544405011"><ele>42.0</ele><time>2026-05-01T07:53:38Z</time></trkpt><trkpt lat="44.59239045424709" lon="10.945493004329977"><ele>42.333333333333336</ele><time>2026-05-01T07:53:39Z</time></trkpt><trkpt lat="44.59228750532808" lon="10.945733114898715"><ele>42.66666666666667</ele><time>2026-05-01T07:53:40Z</time></trkpt><trkpt lat="44.59218639992382" lon="10.945976768902364"><ele>43.0</ele><time>2026-05-01T07:53:41Z</time></trkpt><trkpt lat="44.592081005734386" lon="10.946223675162361"><ele>43.0</ele><time>2026-05-01T07:53:42Z</time></trkpt><trkpt lat="44.59197458759818" lon="10.946472560673339"><ele>43.0</ele><time>2026-05-01T07:53:43Z</time></trkpt><trkpt lat="44.59186593360644" lon="10.946722457531948"><ele>43.0</ele><time>2026-05-01T07:53:44Z</time></trkpt><trkpt lat="44.59175777863117" lon="10.946974520562422"><ele>43.0</ele><time>2026-05-01T07:53:45Z</time></trkpt><trkpt lat="44.59164844374773" lon="10.947229163561918"><ele>43.0</ele><time>2026-05-01T07:53:46Z</time></trkpt><trkpt lat="44.59153860793649" lon="10.94748385607111"><ele>43.0</ele><time>2026-05-01T07:53:47Z</time></trkpt><trkpt lat="44.59143057910377" lon="10.947737897429748"><ele>43.0</ele><time>2026-05-01T07:53:48Z</time></trkpt><trkpt lat="44.591321508826944" lon="10.94799147374488"><ele>43.0</ele><time>2026-05-01T07:53:49Z</time></trkpt><trkpt lat="44.59121373124487" lon="10.94824080530851"><ele>43.0</ele><time>2026-05-01T07:53:50Z</time></trkpt><trkpt lat="44.59110569310694" lon="10.94849385614772"><ele>43.333333333333336</ele><time>2026-05-01T07:53:51Z</time></trkpt><trkpt lat="44.590996494738434" lon="10.948741560553154"><ele>43.666666666666664</ele><time>2026-05-01T07:53:52Z</time></trkpt><trkpt lat="44.59088607681686" lon="10.948990052713564"><ele>44.0</ele><time>2026-05-01T07:53:53Z</time></trkpt><trkpt lat="44.59077457889149" lon="10.949241875481187"><ele>44.0</ele><time>2026-05-01T07:53:54Z</time></trkpt><trkpt lat="44.59066717122437" lon="10.949493952729124"><ele>44.0</ele><time>2026-05-01T07:53:55Z</time></trkpt><trkpt lat="44.59056056506763" lon="10.949740655234246"><ele>44.0</ele><time>2026-05-01T07:53:56Z</time></trkpt><trkpt lat="44.59045130794497" lon="10.949991111964108"><ele>44.0</ele><time>2026-05-01T07:53:57Z</time></trkpt><trkpt lat="44.59034626358733" lon="10.950234859111669"><ele>44.0</ele><time>2026-05-01T07:53:58Z</time></trkpt><trkpt lat="44.590242475316884" lon="10.950482236796594"><ele>44.0</ele><time>2026-05-01T07:53:59Z</time></trkpt><trkpt lat="44.590137803863485" lon="10.950729175615379"><ele>43.0</ele><time>2026-05-01T07:54:00Z</time></trkpt><trkpt lat="44.590032760936985" lon="10.950973735692642"><ele>42.0</ele><time>2026-05-01T07:54:01Z</time></trkpt><trkpt lat="44.58993030921836" lon="10.951217372771168"><ele>41.0</ele><time>2026-05-01T07:54:02Z</time></trkpt><trkpt lat="44.589827588661464" lon="10.951465586004623"><ele>41.666666666666664</ele><time>2026-05-01T07:54:03Z</time></trkpt><trkpt lat="44.589725370692314" lon="10.951712939976167"><ele>42.333333333333336</ele><time>2026-05-01T07:54:04Z</time></trkpt><trkpt lat="44.5896185996052" lon="10.95195661967964"><ele>43.0</ele><time>2026-05-01T07:54:05Z</time></trkpt><trkpt lat="44.58950696077132" lon="10.952198048544036"><ele>43.0</ele><time>2026-05-01T07:54:06Z</time></trkpt><trkpt lat="44.58939686369433" lon="10.952446360193699"><ele>43.0</ele><time>2026-05-01T07:54:07Z</time></trkpt><trkpt lat="44.58929042317353" lon="10.952696520413182"><ele>43.0</ele><time>2026-05-01T07:54:08Z</time></trkpt><trkpt lat="44.58918228607067" lon="10.952947593088737"><ele>43.333333333333336</ele><time>2026-05-01T07:54:09Z</time></trkpt><trkpt lat="44.5890765270542" lon="10.953200590886308"><ele>43.666666666666664</ele><time>2026-05-01T07:54:10Z</time></trkpt><trkpt lat="44.58896914758221" lon="10.953460887391072"><ele>44.0</ele><time>2026-05-01T07:54:11Z</time></trkpt><trkpt lat="44.58885959957135" lon="10.953723985568647"><ele>44.0</ele><time>2026-05-01T07:54:12Z</time></trkpt><trkpt lat="44.5887453296278" lon="10.953990031614648"><ele>44.0</ele><time>2026-05-01T07:54:13Z</time></trkpt><trkpt lat="44.588629672526785" lon="10.954257265047389"><ele>44.0</ele><time>2026-05-01T07:54:14Z</time></trkpt><trkpt lat="44.58851333062095" lon="10.95452836613178"><ele>44.33333333333333</ele><time>2026-05-01T07:54:15Z</time></trkpt><trkpt lat="44.58840030815729" lon="10.954800178470263"><ele>44.666666666666664</ele><time>2026-05-01T07:54:16Z</time></trkpt><trkpt lat="44.58828694574317" lon="10.955069772038911"><ele>45.0</ele><time>2026-05-01T07:54:17Z</time></trkpt><trkpt lat="44.58817219392428" lon="10.955337381227714"><ele>45.0</ele><time>2026-05-01T07:54:18Z</time></trkpt><trkpt lat="44.58805343740863" lon="10.955609181433818"><ele>45.0</ele><time>2026-05-01T07:54:19Z</time></trkpt><trkpt lat="44.58793886571193" lon="10.95587351086132"><ele>45.0</ele><time>2026-05-01T07:54:20Z</time></trkpt><trkpt lat="44.58783948343276" lon="10.956118548197924"><ele>44.333333333333336</ele><time>2026-05-01T07:54:21Z</time></trkpt><trkpt lat="44.58774749828988" lon="10.956363766455503"><ele>43.66666666666667</ele><time>2026-05-01T07:54:22Z</time></trkpt><trkpt lat="44.58766436219602" lon="10.956597617478106"><ele>43.0</ele><time>2026-05-01T07:54:23Z</time></trkpt><trkpt lat="44.58743911871322" lon="10.957028043995487"><ele>43.0</ele><time>2026-05-01T07:54:24Z</time></trkpt><trkpt lat="44.58731316863267" lon="10.957323768848193"><ele>43.0</ele><time>2026-05-01T07:54:25Z</time></trkpt><trkpt lat="44.58718431757108" lon="10.95762147585326"><ele>42.5</ele><time>2026-05-01T07:54:26Z</time></trkpt><trkpt lat="44.587049849824794" lon="10.95793555777704"><ele>42.0</ele><time>2026-05-01T07:54:27Z</time></trkpt><trkpt lat="44.5869129305644" lon="10.95826523503688"><ele>42.5</ele><time>2026-05-01T07:54:28Z</time></trkpt><trkpt lat="44.586772944652424" lon="10.958594452643615"><ele>43.0</ele><time>2026-05-01T07:54:29Z</time></trkpt><trkpt lat="44.58664295737347" lon="10.958936746086085"><ele>44.0</ele><time>2026-05-01T07:54:30Z</time></trkpt><trkpt lat="44.58650902244832" lon="10.95927911895"><ele>45.0</ele><time>2026-05-01T07:54:31Z</time></trkpt><trkpt lat="44.58637229614535" lon="10.95958652851426"><ele>45.0</ele><time>2026-05-01T07:54:32Z</time></trkpt><trkpt lat="44.5862383284692" lon="10.959884841281891"><ele>45.0</ele><time>2026-05-01T07:54:33Z</time></trkpt><trkpt lat="44.58610870756362" lon="10.96017777822356"><ele>44.5</ele><time>2026-05-01T07:54:34Z</time></trkpt><trkpt lat="44.58598798567446" lon="10.960458618238336"><ele>44.0</ele><time>2026-05-01T07:54:35Z</time></trkpt><trkpt lat="44.58587283994854" lon="10.960731947286748"><ele>45.0</ele><time>2026-05-01T07:54:36Z</time></trkpt><trkpt lat="44.58576446933815" lon="10.960984549606872"><ele>46.0</ele><time>2026-05-01T07:54:37Z</time></trkpt><trkpt lat="44.58566503628904" lon="10.961221048527628"><ele>47.0</ele><time>2026-05-01T07:54:38Z</time></trkpt><trkpt lat="44.58557110482853" lon="10.961450853497817"><ele>47.0</ele><time>2026-05-01T07:54:39Z</time></trkpt><trkpt lat="44.58547682016297" lon="10.96167138764273"><ele>47.0</ele><time>2026-05-01T07:54:40Z</time></trkpt><trkpt lat="44.585378358186716" lon="10.961890310017356"><ele>47.0</ele><time>2026-05-01T07:54:41Z</time></trkpt><trkpt lat="44.58528303976059" lon="10.962107028940803"><ele>47.33333333333333</ele><time>2026-05-01T07:54:42Z</time></trkpt><trkpt lat="44.585192706202236" lon="10.96232484735106"><ele>47.666666666666664</ele><time>2026-05-01T07:54:43Z</time></trkpt><trkpt lat="44.58510411399753" lon="10.962540514225175"><ele>48.0</ele><time>2026-05-01T07:54:44Z</time></trkpt><trkpt lat="44.585016679538406" lon="10.962754212028806"><ele>46.333333333333336</ele><time>2026-05-01T07:54:45Z</time></trkpt><trkpt lat="44.58492480171133" lon="10.962956933776114"><ele>44.66666666666667</ele><time>2026-05-01T07:54:46Z</time></trkpt><trkpt lat="44.584835476452945" lon="10.963173310722926"><ele>43.0</ele><time>2026-05-01T07:54:47Z</time></trkpt><trkpt lat="44.584743856895" lon="10.963392915022649"><ele>43.0</ele><time>2026-05-01T07:54:48Z</time></trkpt><trkpt lat="44.58464941186673" lon="10.963606020782144"><ele>43.0</ele><time>2026-05-01T07:54:49Z</time></trkpt><trkpt lat="44.58455462355041" lon="10.96381650927665"><ele>43.0</ele><time>2026-05-01T07:54:50Z</time></trkpt><trkpt lat="44.584466342664435" lon="10.964028038310055"><ele>42.66666666666667</ele><time>2026-05-01T07:54:51Z</time></trkpt><trkpt lat="44.584379385036506" lon="10.964239510547236"><ele>42.333333333333336</ele><time>2026-05-01T07:54:51.999Z</time></trkpt><trkpt lat="44.58428851621239" lon="10.96445316753556"><ele>42.0</ele><time>2026-05-01T07:54:52.999Z</time></trkpt><trkpt lat="44.58419826787163" lon="10.9646603803784"><ele>42.0</ele><time>2026-05-01T07:54:53.999Z</time></trkpt><trkpt lat="44.58411606038858" lon="10.964859794295066"><ele>42.0</ele><time>2026-05-01T07:54:54.999Z</time></trkpt><trkpt lat="44.58403615066225" lon="10.965051518046295"><ele>42.0</ele><time>2026-05-01T07:54:55.999Z</time></trkpt><trkpt lat="44.58395289286119" lon="10.965246276944011"><ele>42.333333333333336</ele><time>2026-05-01T07:54:56.999Z</time></trkpt><trkpt lat="44.58386530639174" lon="10.965450214620455"><ele>42.66666666666667</ele><time>2026-05-01T07:54:57.999Z</time></trkpt><trkpt lat="44.58377153139979" lon="10.965660660676736"><ele>43.0</ele><time>2026-05-01T07:54:58.999Z</time></trkpt><trkpt lat="44.583678412661435" lon="10.965880956446968"><ele>43.66666666666667</ele><time>2026-05-01T07:54:59.999Z</time></trkpt><trkpt lat="44.5835881837756" lon="10.966106887047143"><ele>44.333333333333336</ele><time>2026-05-01T07:55:00.999Z</time></trkpt><trkpt lat="44.583494412265054" lon="10.96633677215787"><ele>45.0</ele><time>2026-05-01T07:55:01.999Z</time></trkpt><trkpt lat="44.58339904841881" lon="10.966564107311344"><ele>44.333333333333336</ele><time>2026-05-01T07:55:02.999Z</time></trkpt><trkpt lat="44.58330510991741" lon="10.966795285970164"><ele>43.66666666666667</ele><time>2026-05-01T07:55:03.999Z</time></trkpt><trkpt lat="44.583211216597846" lon="10.9670235026884"><ele>43.0</ele><time>2026-05-01T07:55:04.999Z</time></trkpt><trkpt lat="44.58311874536549" lon="10.967254321973185"><ele>43.0</ele><time>2026-05-01T07:55:05.999Z</time></trkpt><trkpt lat="44.58302205025991" lon="10.967496608095772"><ele>43.0</ele><time>2026-05-01T07:55:06.999Z</time></trkpt><trkpt lat="44.582915839922926" lon="10.96774785244676"><ele>43.0</ele><time>2026-05-01T07:55:07.999Z</time></trkpt><trkpt lat="44.58280168772248" lon="10.968007231608262"><ele>43.66666666666667</ele><time>2026-05-01T07:55:08.999Z</time></trkpt><trkpt lat="44.582681926349075" lon="10.96826905367716"><ele>44.333333333333336</ele><time>2026-05-01T07:55:09.999Z</time></trkpt><trkpt lat="44.582562355365305" lon="10.96853169044399"><ele>45.0</ele><time>2026-05-01T07:55:10.999Z</time></trkpt><trkpt lat="44.58244359000927" lon="10.968796965785423"><ele>45.666666666666664</ele><time>2026-05-01T07:55:11.999Z</time></trkpt><trkpt lat="44.58232664253951" lon="10.969063689155224"><ele>46.33333333333333</ele><time>2026-05-01T07:55:12.999Z</time></trkpt><trkpt lat="44.58221281810824" lon="10.969330576605827"><ele>47.0</ele><time>2026-05-01T07:55:13.999Z</time></trkpt><trkpt lat="44.582109024007956" lon="10.969590907247628"><ele>46.666666666666664</ele><time>2026-05-01T07:55:14.999Z</time></trkpt><trkpt lat="44.58200771246474" lon="10.969850029988407"><ele>46.333333333333336</ele><time>2026-05-01T07:55:15.999Z</time></trkpt><trkpt lat="44.58190496933056" lon="10.970116721299707"><ele>46.0</ele><time>2026-05-01T07:55:16.999Z</time></trkpt><trkpt lat="44.58180211342407" lon="10.970384746348856"><ele>46.66666666666667</ele><time>2026-05-01T07:55:17.999Z</time></trkpt><trkpt lat="44.58169833893868" lon="10.970656408716971"><ele>47.333333333333336</ele><time>2026-05-01T07:55:18.999Z</time></trkpt><trkpt lat="44.58159771318385" lon="10.97093791442403"><ele>48.0</ele><time>2026-05-01T07:55:19.999Z</time></trkpt><trkpt lat="44.58149717222272" lon="10.971221108354403"><ele>48.0</ele><time>2026-05-01T07:55:20.999Z</time></trkpt><trkpt lat="44.58139805506061" lon="10.971506339042506"><ele>48.0</ele><time>2026-05-01T07:55:21.999Z</time></trkpt><trkpt lat="44.58129513475358" lon="10.971804716711636"><ele>47.0</ele><time>2026-05-01T07:55:22.999Z</time></trkpt><trkpt lat="44.5811939812318" lon="10.972103487350598"><ele>46.0</ele><time>2026-05-01T07:55:23.999Z</time></trkpt><trkpt lat="44.58109473825887" lon="10.972407533351987"><ele>46.0</ele><time>2026-05-01T07:55:24.999Z</time></trkpt><trkpt lat="44.58099685863279" lon="10.972713792069715"><ele>46.0</ele><time>2026-05-01T07:55:25.999Z</time></trkpt><trkpt lat="44.580900184996054" lon="10.973021548093941"><ele>46.0</ele><time>2026-05-01T07:55:26.999Z</time></trkpt><trkpt lat="44.5808039109735" lon="10.973328294990017"><ele>46.0</ele><time>2026-05-01T07:55:27.999Z</time></trkpt><trkpt lat="44.580708703712794" lon="10.973637581674986"><ele>46.0</ele><time>2026-05-01T07:55:28.999Z</time></trkpt><trkpt lat="44.58061633139255" lon="10.973950967443923"><ele>46.0</ele><time>2026-05-01T07:55:29.999Z</time></trkpt><trkpt lat="44.580526165597625" lon="10.974274760059558"><ele>46.0</ele><time>2026-05-01T07:55:30.999Z</time></trkpt><trkpt lat="44.580435404144865" lon="10.974605683522151"><ele>46.0</ele><time>2026-05-01T07:55:31.999Z</time></trkpt><trkpt lat="44.580346007526245" lon="10.974937593937565"><ele>47.0</ele><time>2026-05-01T07:55:32.999Z</time></trkpt><trkpt lat="44.58025741839437" lon="10.975274378894758"><ele>48.0</ele><time>2026-05-01T07:55:33.999Z</time></trkpt><trkpt lat="44.580167934976" lon="10.97561313155439"><ele>47.0</ele><time>2026-05-01T07:55:34.999Z</time></trkpt><trkpt lat="44.580078214465374" lon="10.975956681895752"><ele>46.0</ele><time>2026-05-01T07:55:35.999Z</time></trkpt><trkpt lat="44.579985512816044" lon="10.97630024716815"><ele>46.0</ele><time>2026-05-01T07:55:36.999Z</time></trkpt><trkpt lat="44.57989271431968" lon="10.976647965792225"><ele>46.0</ele><time>2026-05-01T07:55:38Z</time></trkpt><trkpt lat="44.57979976053473" lon="10.976997607837621"><ele>46.0</ele><time>2026-05-01T07:55:39Z</time></trkpt><trkpt lat="44.57970569289201" lon="10.97735055102692"><ele>46.0</ele><time>2026-05-01T07:55:40Z</time></trkpt><trkpt lat="44.57961275987501" lon="10.97770770183343"><ele>46.0</ele><time>2026-05-01T07:55:41Z</time></trkpt><trkpt lat="44.5795208071904" lon="10.97806215680363"><ele>46.0</ele><time>2026-05-01T07:55:42Z</time></trkpt><trkpt lat="44.5794256037029" lon="10.978417626133734"><ele>46.0</ele><time>2026-05-01T07:55:43Z</time></trkpt><trkpt lat="44.57933716987985" lon="10.978775281300642"><ele>46.0</ele><time>2026-05-01T07:55:44Z</time></trkpt><trkpt lat="44.57924069773751" lon="10.979130335686877"><ele>46.5</ele><time>2026-05-01T07:55:45Z</time></trkpt><trkpt lat="44.57914595099427" lon="10.979484732449006"><ele>47.0</ele><time>2026-05-01T07:55:46Z</time></trkpt><trkpt lat="44.57905257411488" lon="10.979838268486207"><ele>48.0</ele><time>2026-05-01T07:55:47Z</time></trkpt><trkpt lat="44.5789606972272" lon="10.98019037067145"><ele>49.0</ele><time>2026-05-01T07:55:48Z</time></trkpt><trkpt lat="44.57886849226979" lon="10.980541986594613"><ele>48.0</ele><time>2026-05-01T07:55:49Z</time></trkpt><trkpt lat="44.57877627849324" lon="10.980894055819574"><ele>47.0</ele><time>2026-05-01T07:55:50Z</time></trkpt><trkpt lat="44.57868283380138" lon="10.98124287556702"><ele>47.0</ele><time>2026-05-01T07:55:51Z</time></trkpt><trkpt lat="44.578591478299096" lon="10.98158879715595"><ele>47.0</ele><time>2026-05-01T07:55:52Z</time></trkpt><trkpt lat="44.57850119774402" lon="10.98193411071897"><ele>47.5</ele><time>2026-05-01T07:55:53Z</time></trkpt><trkpt lat="44.57841187350774" lon="10.982275034146376"><ele>48.0</ele><time>2026-05-01T07:55:54Z</time></trkpt><trkpt lat="44.578324678789436" lon="10.98260763762831"><ele>48.5</ele><time>2026-05-01T07:55:55Z</time></trkpt><trkpt lat="44.578237526011925" lon="10.982936500780184"><ele>49.0</ele><time>2026-05-01T07:55:56Z</time></trkpt><trkpt lat="44.578149936589845" lon="10.983265424349753"><ele>49.0</ele><time>2026-05-01T07:55:57Z</time></trkpt><trkpt lat="44.578068344228136" lon="10.983593649104835"><ele>49.0</ele><time>2026-05-01T07:55:58Z</time></trkpt><trkpt lat="44.577986203694174" lon="10.983916121294278"><ele>49.5</ele><time>2026-05-01T07:55:59Z</time></trkpt><trkpt lat="44.57790601968221" lon="10.984238890951664"><ele>50.0</ele><time>2026-05-01T07:56:00Z</time></trkpt><trkpt lat="44.57782529201494" lon="10.984564381901437"><ele>50.0</ele><time>2026-05-01T07:56:01Z</time></trkpt><trkpt lat="44.57774714236685" lon="10.984889858894304"><ele>50.0</ele><time>2026-05-01T07:56:02Z</time></trkpt><trkpt lat="44.57766655431919" lon="10.985215238004857"><ele>50.0</ele><time>2026-05-01T07:56:03Z</time></trkpt><trkpt lat="44.57758466520101" lon="10.985539901345474"><ele>50.0</ele><time>2026-05-01T07:56:04Z</time></trkpt><trkpt lat="44.57749833217266" lon="10.985865267392862"><ele>48.0</ele><time>2026-05-01T07:56:05Z</time></trkpt><trkpt lat="44.577413632923765" lon="10.986189986938651"><ele>46.0</ele><time>2026-05-01T07:56:06Z</time></trkpt><trkpt lat="44.57732296365577" lon="10.98651207202143"><ele>45.0</ele><time>2026-05-01T07:56:07Z</time></trkpt><trkpt lat="44.57723657207151" lon="10.986834569982335"><ele>44.0</ele><time>2026-05-01T07:56:08Z</time></trkpt><trkpt lat="44.57715009430522" lon="10.987158747456604"><ele>44.0</ele><time>2026-05-01T07:56:09Z</time></trkpt><trkpt lat="44.57706489543256" lon="10.987486474570668"><ele>44.0</ele><time>2026-05-01T07:56:10Z</time></trkpt><trkpt lat="44.57697728136736" lon="10.98781473427972"><ele>43.5</ele><time>2026-05-01T07:56:11Z</time></trkpt><trkpt lat="44.57689144941253" lon="10.988146427272275"><ele>43.0</ele><time>2026-05-01T07:56:12Z</time></trkpt><trkpt lat="44.576800504382206" lon="10.988474591795976"><ele>43.0</ele><time>2026-05-01T07:56:13Z</time></trkpt><trkpt lat="44.576709282482256" lon="10.98880194487666"><ele>43.0</ele><time>2026-05-01T07:56:14Z</time></trkpt><trkpt lat="44.57661660261958" lon="10.98913189476878"><ele>43.5</ele><time>2026-05-01T07:56:15Z</time></trkpt><trkpt lat="44.576523995848746" lon="10.989460164545667"><ele>44.0</ele><time>2026-05-01T07:56:16Z</time></trkpt><trkpt lat="44.57643296527502" lon="10.989787680244792"><ele>44.5</ele><time>2026-05-01T07:56:17Z</time></trkpt><trkpt lat="44.576343875824556" lon="10.990113759381718"><ele>45.0</ele><time>2026-05-01T07:56:18Z</time></trkpt><trkpt lat="44.576255620922204" lon="10.99044281661282"><ele>45.0</ele><time>2026-05-01T07:56:19Z</time></trkpt><trkpt lat="44.57616918670997" lon="10.990771481997738"><ele>45.0</ele><time>2026-05-01T07:56:20Z</time></trkpt><trkpt lat="44.576081293859794" lon="10.991095703427352"><ele>45.0</ele><time>2026-05-01T07:56:21Z</time></trkpt><trkpt lat="44.57599422406372" lon="10.991421824967263"><ele>45.0</ele><time>2026-05-01T07:56:22Z</time></trkpt><trkpt lat="44.575908003182434" lon="10.991749739826096"><ele>45.0</ele><time>2026-05-01T07:56:23Z</time></trkpt><trkpt lat="44.575821965730086" lon="10.992075066213037"><ele>45.0</ele><time>2026-05-01T07:56:24Z</time></trkpt><trkpt lat="44.57573398539913" lon="10.992400804071979"><ele>45.0</ele><time>2026-05-01T07:56:25Z</time></trkpt><trkpt lat="44.57564572669654" lon="10.9927272875344"><ele>45.0</ele><time>2026-05-01T07:56:26Z</time></trkpt><trkpt lat="44.575557679397136" lon="10.993060139018795"><ele>44.5</ele><time>2026-05-01T07:56:27Z</time></trkpt><trkpt lat="44.57547173808252" lon="10.993390520715685"><ele>44.0</ele><time>2026-05-01T07:56:28Z</time></trkpt><trkpt lat="44.57538359727" lon="10.993721693559422"><ele>44.5</ele><time>2026-05-01T07:56:29Z</time></trkpt><trkpt lat="44.57529571993706" lon="10.994058614519075"><ele>45.0</ele><time>2026-05-01T07:56:30Z</time></trkpt><trkpt lat="44.575205786323494" lon="10.99439561731659"><ele>45.0</ele><time>2026-05-01T07:56:31Z</time></trkpt><trkpt lat="44.575117759708895" lon="10.994734558691698"><ele>45.0</ele><time>2026-05-01T07:56:32Z</time></trkpt><trkpt lat="44.57502653395948" lon="10.995074538324051"><ele>46.0</ele><time>2026-05-01T07:56:33Z</time></trkpt><trkpt lat="44.57493675501983" lon="10.995416422195364"><ele>47.0</ele><time>2026-05-01T07:56:34Z</time></trkpt><trkpt lat="44.574846023358695" lon="10.995761853273388"><ele>46.5</ele><time>2026-05-01T07:56:35Z</time></trkpt><trkpt lat="44.57475645511132" lon="10.996109924653307"><ele>46.0</ele><time>2026-05-01T07:56:36Z</time></trkpt><trkpt lat="44.574665644571894" lon="10.996457180029465"><ele>46.0</ele><time>2026-05-01T07:56:37Z</time></trkpt><trkpt lat="44.57457442427375" lon="10.996806725450414"><ele>46.0</ele><time>2026-05-01T07:56:38Z</time></trkpt><trkpt lat="44.57448353575962" lon="10.997154434898375"><ele>45.5</ele><time>2026-05-01T07:56:39Z</time></trkpt><trkpt lat="44.574394260985095" lon="10.99750743228633"><ele>45.0</ele><time>2026-05-01T07:56:40Z</time></trkpt><trkpt lat="44.57430685163469" lon="10.997856876931767"><ele>45.0</ele><time>2026-05-01T07:56:41Z</time></trkpt><trkpt lat="44.57422036410682" lon="10.998208233077458"><ele>45.0</ele><time>2026-05-01T07:56:42Z</time></trkpt><trkpt lat="44.574136463615716" lon="10.998563684671769"><ele>44.5</ele><time>2026-05-01T07:56:43Z</time></trkpt><trkpt lat="44.57405725682873" lon="10.998922050119441"><ele>44.0</ele><time>2026-05-01T07:56:44Z</time></trkpt><trkpt lat="44.57398223189052" lon="10.999281322671173"><ele>45.0</ele><time>2026-05-01T07:56:45Z</time></trkpt><trkpt lat="44.57390898329049" lon="10.999641419304877"><ele>46.0</ele><time>2026-05-01T07:56:46Z</time></trkpt><trkpt lat="44.57383816494368" lon="11.000000211875987"><ele>46.0</ele><time>2026-05-01T07:56:47Z</time></trkpt><trkpt lat="44.57377042789926" lon="11.000362784363789"><ele>46.0</ele><time>2026-05-01T07:56:48Z</time></trkpt><trkpt lat="44.573700159627414" lon="11.000718395902258"><ele>46.5</ele><time>2026-05-01T07:56:49Z</time></trkpt><trkpt lat="44.57362698053608" lon="11.001075497941216"><ele>47.0</ele><time>2026-05-01T07:56:50Z</time></trkpt><trkpt lat="44.57355557900721" lon="11.001425711508094"><ele>46.5</ele><time>2026-05-01T07:56:51Z</time></trkpt><trkpt lat="44.57348344298265" lon="11.001777706098313"><ele>46.0</ele><time>2026-05-01T07:56:52Z</time></trkpt><trkpt lat="44.573412125126566" lon="11.002121522082724"><ele>46.0</ele><time>2026-05-01T07:56:53Z</time></trkpt><trkpt lat="44.57333704658683" lon="11.002459265920574"><ele>46.0</ele><time>2026-05-01T07:56:54Z</time></trkpt><trkpt lat="44.573261303056746" lon="11.002780559167688"><ele>46.0</ele><time>2026-05-01T07:56:54.999Z</time></trkpt><trkpt lat="44.573192356200096" lon="11.003081750029224"><ele>46.0</ele><time>2026-05-01T07:56:55.999Z</time></trkpt><trkpt lat="44.57313333063032" lon="11.003353346443674"><ele>46.0</ele><time>2026-05-01T07:56:56.999Z</time></trkpt><trkpt lat="44.57307460976503" lon="11.003619346056515"><ele>46.333333333333336</ele><time>2026-05-01T07:56:57.999Z</time></trkpt><trkpt lat="44.57301843650381" lon="11.003873218195183"><ele>46.666666666666664</ele><time>2026-05-01T07:56:58.999Z</time></trkpt><trkpt lat="44.57296577219398" lon="11.004116495010996"><ele>47.0</ele><time>2026-05-01T07:56:59.999Z</time></trkpt><trkpt lat="44.57291713036678" lon="11.004347398773756"><ele>47.0</ele><time>2026-05-01T07:57:00.999Z</time></trkpt><trkpt lat="44.57287279798895" lon="11.004573523617678"><ele>47.0</ele><time>2026-05-01T07:57:01.999Z</time></trkpt><trkpt lat="44.57282598831361" lon="11.00479349588531"><ele>47.0</ele><time>2026-05-01T07:57:02.999Z</time></trkpt><trkpt lat="44.572777025691586" lon="11.005013902056463"><ele>46.666666666666664</ele><time>2026-05-01T07:57:03.999Z</time></trkpt><trkpt lat="44.572723754115266" lon="11.005239319011226"><ele>46.333333333333336</ele><time>2026-05-01T07:57:04.999Z</time></trkpt><trkpt lat="44.572674623888624" lon="11.00546913312071"><ele>46.0</ele><time>2026-05-01T07:57:05.999Z</time></trkpt><trkpt lat="44.57262753389489" lon="11.005708813981657"><ele>46.0</ele><time>2026-05-01T07:57:06.999Z</time></trkpt><trkpt lat="44.572579141792296" lon="11.005945524577951"><ele>46.0</ele><time>2026-05-01T07:57:07.999Z</time></trkpt><trkpt lat="44.57252812521437" lon="11.006185781265131"><ele>46.0</ele><time>2026-05-01T07:57:08.999Z</time></trkpt><trkpt lat="44.57247563711999" lon="11.00643014578845"><ele>47.0</ele><time>2026-05-01T07:57:09.999Z</time></trkpt><trkpt lat="44.57242316721755" lon="11.006679127809692"><ele>48.0</ele><time>2026-05-01T07:57:10.999Z</time></trkpt><trkpt lat="44.572370643563886" lon="11.006932382693423"><ele>49.0</ele><time>2026-05-01T07:57:11.999Z</time></trkpt><trkpt lat="44.57232055145248" lon="11.007183868370856"><ele>49.0</ele><time>2026-05-01T07:57:12.999Z</time></trkpt><trkpt lat="44.57227524350818" lon="11.007414449277933"><ele>49.0</ele><time>2026-05-01T07:57:13.999Z</time></trkpt><trkpt lat="44.57223010223009" lon="11.007633124777772"><ele>49.0</ele><time>2026-05-01T07:57:14.999Z</time></trkpt><trkpt lat="44.57218404351139" lon="11.007853117293525"><ele>48.666666666666664</ele><time>2026-05-01T07:57:15.999Z</time></trkpt><trkpt lat="44.57213414766631" lon="11.00808370177733"><ele>48.33333333333333</ele><time>2026-05-01T07:57:16.999Z</time></trkpt><trkpt lat="44.572085791548545" lon="11.008320752794125"><ele>48.0</ele><time>2026-05-01T07:57:17.999Z</time></trkpt><trkpt lat="44.572036068568224" lon="11.008561462311285"><ele>48.0</ele><time>2026-05-01T07:57:18.999Z</time></trkpt><trkpt lat="44.5719844411169" lon="11.008809497174592"><ele>48.0</ele><time>2026-05-01T07:57:19.999Z</time></trkpt><trkpt lat="44.57193271720407" lon="11.00905864445078"><ele>48.0</ele><time>2026-05-01T07:57:20.999Z</time></trkpt><trkpt lat="44.571880774335035" lon="11.009312942790718"><ele>48.0</ele><time>2026-05-01T07:57:21.999Z</time></trkpt><trkpt lat="44.57182798413589" lon="11.00956996932502"><ele>48.0</ele><time>2026-05-01T07:57:22.999Z</time></trkpt><trkpt lat="44.571774065063856" lon="11.009830409335844"><ele>48.0</ele><time>2026-05-01T07:57:23.999Z</time></trkpt><trkpt lat="44.571719263772906" lon="11.01009401147823"><ele>47.666666666666664</ele><time>2026-05-01T07:57:24.999Z</time></trkpt><trkpt lat="44.571665800894216" lon="11.01036066105893"><ele>47.33333333333333</ele><time>2026-05-01T07:57:25.999Z</time></trkpt><trkpt lat="44.57161039419832" lon="11.010630084953931"><ele>47.0</ele><time>2026-05-01T07:57:26.999Z</time></trkpt><trkpt lat="44.57155724280851" lon="11.010893486932282"><ele>46.666666666666664</ele><time>2026-05-01T07:57:27.999Z</time></trkpt><trkpt lat="44.5715105914556" lon="11.01115126204748"><ele>46.333333333333336</ele><time>2026-05-01T07:57:28.999Z</time></trkpt><trkpt lat="44.57146722104807" lon="11.011402298390353"><ele>46.0</ele><time>2026-05-01T07:57:29.999Z</time></trkpt><trkpt lat="44.571379087583686" lon="11.011729733622511"><ele>46.0</ele><time>2026-05-01T07:57:30.999Z</time></trkpt><trkpt lat="44.57131988830303" lon="11.0120053003024"><ele>46.0</ele><time>2026-05-01T07:57:31.999Z</time></trkpt><trkpt lat="44.571261712886034" lon="11.012284116214103"><ele>46.0</ele><time>2026-05-01T07:57:32.999Z</time></trkpt><trkpt lat="44.57120715960366" lon="11.012559435071399"><ele>46.333333333333336</ele><time>2026-05-01T07:57:33.999Z</time></trkpt><trkpt lat="44.571148081612996" lon="11.012840470562152"><ele>46.666666666666664</ele><time>2026-05-01T07:57:34.999Z</time></trkpt><trkpt lat="44.571088767944175" lon="11.013120789081364"><ele>47.0</ele><time>2026-05-01T07:57:35.999Z</time></trkpt><trkpt lat="44.57103000277529" lon="11.013403024868076"><ele>47.0</ele><time>2026-05-01T07:57:36.999Z</time></trkpt><trkpt lat="44.57097709958914" lon="11.013685902412114"><ele>47.0</ele><time>2026-05-01T07:57:37.999Z</time></trkpt><trkpt lat="44.570917187089876" lon="11.0139729607864"><ele>47.0</ele><time>2026-05-01T07:57:38.999Z</time></trkpt><trkpt lat="44.57085687805722" lon="11.014252261652599"><ele>47.0</ele><time>2026-05-01T07:57:39.999Z</time></trkpt><trkpt lat="44.570796113348855" lon="11.014533719103593"><ele>47.0</ele><time>2026-05-01T07:57:40.999Z</time></trkpt><trkpt lat="44.57074532541122" lon="11.014815367530213"><ele>47.0</ele><time>2026-05-01T07:57:41.999Z</time></trkpt><trkpt lat="44.570683268268425" lon="11.01509496427558"><ele>47.0</ele><time>2026-05-01T07:57:43Z</time></trkpt><trkpt lat="44.57062551574764" lon="11.015375841348499"><ele>47.0</ele><time>2026-05-01T07:57:44Z</time></trkpt><trkpt lat="44.5705765835064" lon="11.015654393431225"><ele>47.0</ele><time>2026-05-01T07:57:45Z</time></trkpt><trkpt lat="44.5705231769901" lon="11.015934051227"><ele>47.0</ele><time>2026-05-01T07:57:46Z</time></trkpt><trkpt lat="44.57045774259437" lon="11.016211513936549"><ele>47.0</ele><time>2026-05-01T07:57:47Z</time></trkpt><trkpt lat="44.57039560214762" lon="11.016492009910479"><ele>47.0</ele><time>2026-05-01T07:57:48Z</time></trkpt><trkpt lat="44.5703345309115" lon="11.016774892561777"><ele>47.0</ele><time>2026-05-01T07:57:49Z</time></trkpt><trkpt lat="44.570277222310395" lon="11.01705091797437"><ele>47.0</ele><time>2026-05-01T07:57:50Z</time></trkpt><trkpt lat="44.57022054642485" lon="11.017335934238643"><ele>47.0</ele><time>2026-05-01T07:57:51Z</time></trkpt><trkpt lat="44.5701581178516" lon="11.017619963223616"><ele>47.0</ele><time>2026-05-01T07:57:52Z</time></trkpt><trkpt lat="44.57010283274022" lon="11.017904013235615"><ele>47.0</ele><time>2026-05-01T07:57:53Z</time></trkpt><trkpt lat="44.57004418341531" lon="11.018189608424441"><ele>47.0</ele><time>2026-05-01T07:57:54Z</time></trkpt><trkpt lat="44.569985787797684" lon="11.018475287496937"><ele>47.0</ele><time>2026-05-01T07:57:55Z</time></trkpt><trkpt lat="44.5699279240018" lon="11.018762801699381"><ele>47.0</ele><time>2026-05-01T07:57:56Z</time></trkpt><trkpt lat="44.56986785464575" lon="11.019045927440551"><ele>47.0</ele><time>2026-05-01T07:57:57Z</time></trkpt><trkpt lat="44.56981137880068" lon="11.019329363851059"><ele>47.0</ele><time>2026-05-01T07:57:58Z</time></trkpt><trkpt lat="44.569750856136956" lon="11.01961764730423"><ele>47.0</ele><time>2026-05-01T07:57:59Z</time></trkpt><trkpt lat="44.56969397274909" lon="11.01990238127272"><ele>47.0</ele><time>2026-05-01T07:58:00Z</time></trkpt><trkpt lat="44.569637066566166" lon="11.020185399705369"><ele>46.666666666666664</ele><time>2026-05-01T07:58:01Z</time></trkpt><trkpt lat="44.56957841233416" lon="11.02047006910032"><ele>46.333333333333336</ele><time>2026-05-01T07:58:02Z</time></trkpt><trkpt lat="44.569518694704406" lon="11.02075196403711"><ele>46.0</ele><time>2026-05-01T07:58:03Z</time></trkpt><trkpt lat="44.569461220622166" lon="11.021039230034726"><ele>46.0</ele><time>2026-05-01T07:58:04Z</time></trkpt><trkpt lat="44.5694018876324" lon="11.021324693134172"><ele>46.0</ele><time>2026-05-01T07:58:05Z</time></trkpt><trkpt lat="44.56934403116111" lon="11.021608696094004"><ele>46.0</ele><time>2026-05-01T07:58:06Z</time></trkpt><trkpt lat="44.56928378987819" lon="11.021889865872613"><ele>46.333333333333336</ele><time>2026-05-01T07:58:07Z</time></trkpt><trkpt lat="44.56922545873108" lon="11.02217350261783"><ele>46.666666666666664</ele><time>2026-05-01T07:58:08Z</time></trkpt><trkpt lat="44.56916681339389" lon="11.02245680676571"><ele>47.0</ele><time>2026-05-01T07:58:09Z</time></trkpt><trkpt lat="44.56911045996042" lon="11.022743573314203"><ele>46.33333333333333</ele><time>2026-05-01T07:58:10Z</time></trkpt><trkpt lat="44.56905105989916" lon="11.023024328769921"><ele>45.666666666666664</ele><time>2026-05-01T07:58:11Z</time></trkpt><trkpt lat="44.56898951725733" lon="11.023303041740292"><ele>45.0</ele><time>2026-05-01T07:58:12Z</time></trkpt><trkpt lat="44.568929715005716" lon="11.023582474172962"><ele>45.0</ele><time>2026-05-01T07:58:13Z</time></trkpt><trkpt lat="44.568870219519255" lon="11.023860346136747"><ele>45.0</ele><time>2026-05-01T07:58:14Z</time></trkpt><trkpt lat="44.568813125500704" lon="11.024138636158991"><ele>45.0</ele><time>2026-05-01T07:58:15Z</time></trkpt><trkpt lat="44.568757706128075" lon="11.024421437667801"><ele>45.666666666666664</ele><time>2026-05-01T07:58:16Z</time></trkpt><trkpt lat="44.568696656255824" lon="11.024694815461386"><ele>46.33333333333333</ele><time>2026-05-01T07:58:17Z</time></trkpt><trkpt lat="44.56863852142601" lon="11.024975960174087"><ele>47.0</ele><time>2026-05-01T07:58:18Z</time></trkpt><trkpt lat="44.56858125574206" lon="11.025256177230228"><ele>47.0</ele><time>2026-05-01T07:58:19Z</time></trkpt><trkpt lat="44.568522416507165" lon="11.025536553164313"><ele>47.0</ele><time>2026-05-01T07:58:20Z</time></trkpt><trkpt lat="44.568480200260296" lon="11.025823849552438"><ele>47.0</ele><time>2026-05-01T07:58:21Z</time></trkpt><trkpt lat="44.56840696791876" lon="11.02610070933521"><ele>47.0</ele><time>2026-05-01T07:58:22Z</time></trkpt><trkpt lat="44.56836452216077" lon="11.0263850875446"><ele>47.0</ele><time>2026-05-01T07:58:23Z</time></trkpt><trkpt lat="44.56829028583487" lon="11.026663148779518"><ele>47.0</ele><time>2026-05-01T07:58:24Z</time></trkpt><trkpt lat="44.568233946277466" lon="11.026946319541839"><ele>47.33333333333333</ele><time>2026-05-01T07:58:25Z</time></trkpt><trkpt lat="44.5681780337736" lon="11.027227985792841"><ele>47.666666666666664</ele><time>2026-05-01T07:58:26Z</time></trkpt><trkpt lat="44.568119164873565" lon="11.027504366894254"><ele>48.0</ele><time>2026-05-01T07:58:27Z</time></trkpt><trkpt lat="44.568065950012645" lon="11.027786142238574"><ele>48.0</ele><time>2026-05-01T07:58:28Z</time></trkpt><trkpt lat="44.56800878487231" lon="11.02806509079641"><ele>48.0</ele><time>2026-05-01T07:58:29Z</time></trkpt><trkpt lat="44.567948480205324" lon="11.028345457825184"><ele>48.0</ele><time>2026-05-01T07:58:30Z</time></trkpt><trkpt lat="44.5678907597611" lon="11.028620978651773"><ele>48.0</ele><time>2026-05-01T07:58:31Z</time></trkpt><trkpt lat="44.56783338580978" lon="11.028894554071629"><ele>48.0</ele><time>2026-05-01T07:58:32Z</time></trkpt><trkpt lat="44.56777912531903" lon="11.029159488936532"><ele>48.0</ele><time>2026-05-01T07:58:33Z</time></trkpt><trkpt lat="44.56772619944076" lon="11.029416982280113"><ele>48.0</ele><time>2026-05-01T07:58:34Z</time></trkpt><trkpt lat="44.567679441334825" lon="11.029665494253381"><ele>48.0</ele><time>2026-05-01T07:58:35Z</time></trkpt><trkpt lat="44.56763514724618" lon="11.029908468303832"><ele>48.0</ele><time>2026-05-01T07:58:36Z</time></trkpt><trkpt lat="44.56759360287598" lon="11.030148711100134"><ele>47.666666666666664</ele><time>2026-05-01T07:58:37Z</time></trkpt><trkpt lat="44.5675519351285" lon="11.030397475107307"><ele>47.33333333333333</ele><time>2026-05-01T07:58:38Z</time></trkpt><trkpt lat="44.567506380023715" lon="11.030663100694802"><ele>47.0</ele><time>2026-05-01T07:58:39Z</time></trkpt><trkpt lat="44.56745583261851" lon="11.03095881415447"><ele>47.0</ele><time>2026-05-01T07:58:40Z</time></trkpt><trkpt lat="44.567397027902146" lon="11.031276901879792"><ele>47.0</ele><time>2026-05-01T07:58:41Z</time></trkpt><trkpt lat="44.56733235025627" lon="11.031598499748082"><ele>47.5</ele><time>2026-05-01T07:58:42Z</time></trkpt><trkpt lat="44.567261941858185" lon="11.031929190071915"><ele>48.0</ele><time>2026-05-01T07:58:43Z</time></trkpt><trkpt lat="44.56718424299255" lon="11.032266544412844"><ele>48.5</ele><time>2026-05-01T07:58:44Z</time></trkpt><trkpt lat="44.567100371684056" lon="11.032605254353355"><ele>49.0</ele><time>2026-05-01T07:58:45Z</time></trkpt><trkpt lat="44.56701992839537" lon="11.03295327312046"><ele>49.0</ele><time>2026-05-01T07:58:46Z</time></trkpt><trkpt lat="44.56694790899763" lon="11.033304232157638"><ele>49.0</ele><time>2026-05-01T07:58:47Z</time></trkpt><trkpt lat="44.56687730248386" lon="11.033666562812556"><ele>49.0</ele><time>2026-05-01T07:58:48Z</time></trkpt><trkpt lat="44.56680245898763" lon="11.03402416076407"><ele>49.0</ele><time>2026-05-01T07:58:49Z</time></trkpt><trkpt lat="44.566721076732804" lon="11.03438105924332"><ele>49.5</ele><time>2026-05-01T07:58:49.999Z</time></trkpt><trkpt lat="44.56664440961859" lon="11.034736748463027"><ele>50.0</ele><time>2026-05-01T07:58:50.999Z</time></trkpt><trkpt lat="44.56657123319103" lon="11.035092911191247"><ele>50.5</ele><time>2026-05-01T07:58:51.999Z</time></trkpt><trkpt lat="44.566498236964335" lon="11.035447288891739"><ele>51.0</ele><time>2026-05-01T07:58:52.999Z</time></trkpt><trkpt lat="44.56642663351033" lon="11.035796986716203"><ele>52.0</ele><time>2026-05-01T07:58:53.999Z</time></trkpt><trkpt lat="44.566353634348296" lon="11.036143810830506"><ele>53.0</ele><time>2026-05-01T07:58:54.999Z</time></trkpt><trkpt lat="44.566280029971594" lon="11.03649412247204"><ele>52.5</ele><time>2026-05-01T07:58:55.999Z</time></trkpt><trkpt lat="44.56620850265007" lon="11.036850398993264"><ele>52.0</ele><time>2026-05-01T07:58:56.999Z</time></trkpt><trkpt lat="44.56613089436602" lon="11.03721032325395"><ele>49.5</ele><time>2026-05-01T07:58:57.999Z</time></trkpt><trkpt lat="44.56606417630713" lon="11.037568746404563"><ele>47.0</ele><time>2026-05-01T07:58:58.999Z</time></trkpt><trkpt lat="44.565989787091624" lon="11.037925477422938"><ele>47.0</ele><time>2026-05-01T07:58:59.999Z</time></trkpt><trkpt lat="44.56591662729589" lon="11.038283121411098"><ele>47.0</ele><time>2026-05-01T07:59:00.999Z</time></trkpt><trkpt lat="44.56584591979644" lon="11.038634235111465"><ele>47.5</ele><time>2026-05-01T07:59:01.999Z</time></trkpt><trkpt lat="44.56577427756476" lon="11.038984862733003"><ele>48.0</ele><time>2026-05-01T07:59:02.999Z</time></trkpt><trkpt lat="44.56570425736736" lon="11.039331386715892"><ele>48.0</ele><time>2026-05-01T07:59:03.999Z</time></trkpt><trkpt lat="44.56563161559202" lon="11.039680639269474"><ele>48.0</ele><time>2026-05-01T07:59:04.999Z</time></trkpt><trkpt lat="44.565561596761675" lon="11.040020939064098"><ele>48.5</ele><time>2026-05-01T07:59:05.999Z</time></trkpt><trkpt lat="44.565490914651136" lon="11.040363055906068"><ele>49.0</ele><time>2026-05-01T07:59:06.999Z</time></trkpt><trkpt lat="44.56542116534975" lon="11.040706711424281"><ele>48.0</ele><time>2026-05-01T07:59:07.999Z</time></trkpt><trkpt lat="44.56534824827703" lon="11.041055937861532"><ele>47.0</ele><time>2026-05-01T07:59:08.999Z</time></trkpt><trkpt lat="44.56527671299503" lon="11.04139933813018"><ele>47.5</ele><time>2026-05-01T07:59:09.999Z</time></trkpt><trkpt lat="44.565201104474994" lon="11.041743594661222"><ele>48.0</ele><time>2026-05-01T07:59:10.999Z</time></trkpt><trkpt lat="44.565119607538506" lon="11.042091021830387"><ele>48.0</ele><time>2026-05-01T07:59:11.999Z</time></trkpt><trkpt lat="44.56503506249697" lon="11.042440346191547"><ele>48.0</ele><time>2026-05-01T07:59:12.999Z</time></trkpt><trkpt lat="44.56494366486661" lon="11.042784308275609"><ele>48.5</ele><time>2026-05-01T07:59:13.999Z</time></trkpt><trkpt lat="44.56484825268448" lon="11.043127508477859"><ele>49.0</ele><time>2026-05-01T07:59:14.999Z</time></trkpt><trkpt lat="44.56474752304828" lon="11.043470146215931"><ele>49.0</ele><time>2026-05-01T07:59:15.999Z</time></trkpt><trkpt lat="44.56464631444031" lon="11.0438102053156"><ele>49.0</ele><time>2026-05-01T07:59:16.999Z</time></trkpt><trkpt lat="44.56453939338752" lon="11.044148693636306"><ele>46.0</ele><time>2026-05-01T07:59:17.999Z</time></trkpt><trkpt lat="44.564430237531575" lon="11.044483423916734"><ele>43.0</ele><time>2026-05-01T07:59:18.999Z</time></trkpt><trkpt lat="44.56431649725443" lon="11.04481786063706"><ele>44.0</ele><time>2026-05-01T07:59:19.999Z</time></trkpt><trkpt lat="44.56419984757173" lon="11.045142585719573"><ele>45.0</ele><time>2026-05-01T07:59:20.999Z</time></trkpt><trkpt lat="44.56408038375625" lon="11.04545890584444"><ele>45.0</ele><time>2026-05-01T07:59:21.999Z</time></trkpt><trkpt lat="44.5639634432701" lon="11.045773898711234"><ele>45.0</ele><time>2026-05-01T07:59:22.999Z</time></trkpt><trkpt lat="44.563845081029974" lon="11.046087322368237"><ele>45.0</ele><time>2026-05-01T07:59:23.999Z</time></trkpt><trkpt lat="44.56372893018599" lon="11.046388128362532"><ele>45.0</ele><time>2026-05-01T07:59:24.999Z</time></trkpt><trkpt lat="44.56361400136365" lon="11.046678172739325"><ele>45.0</ele><time>2026-05-01T07:59:25.999Z</time></trkpt><trkpt lat="44.56349974328771" lon="11.046969954075932"><ele>45.0</ele><time>2026-05-01T07:59:26.999Z</time></trkpt><trkpt lat="44.56338762456938" lon="11.04726625790977"><ele>46.5</ele><time>2026-05-01T07:59:27.999Z</time></trkpt><trkpt lat="44.56327769137458" lon="11.047561698954786"><ele>48.0</ele><time>2026-05-01T07:59:28.999Z</time></trkpt><trkpt lat="44.56316685344737" lon="11.047861706205738"><ele>48.0</ele><time>2026-05-01T07:59:29.999Z</time></trkpt><trkpt lat="44.563053230483916" lon="11.048165980954497"><ele>48.0</ele><time>2026-05-01T07:59:30.999Z</time></trkpt><trkpt lat="44.56293746239732" lon="11.048466114205759"><ele>45.5</ele><time>2026-05-01T07:59:31.999Z</time></trkpt><trkpt lat="44.562826659995565" lon="11.04878267575743"><ele>43.0</ele><time>2026-05-01T07:59:32.999Z</time></trkpt><trkpt lat="44.562711763188325" lon="11.049093687338633"><ele>43.0</ele><time>2026-05-01T07:59:33.999Z</time></trkpt><trkpt lat="44.56259657752312" lon="11.049406781030864"><ele>43.0</ele><time>2026-05-01T07:59:34.999Z</time></trkpt><trkpt lat="44.56247856678908" lon="11.049722064447002"><ele>45.5</ele><time>2026-05-01T07:59:35.999Z</time></trkpt><trkpt lat="44.56235555308312" lon="11.05004525920759"><ele>48.0</ele><time>2026-05-01T07:59:36.999Z</time></trkpt><trkpt lat="44.562231133637994" lon="11.050366292047721"><ele>48.0</ele><time>2026-05-01T07:59:37.999Z</time></trkpt><trkpt lat="44.56210424917555" lon="11.050691221033318"><ele>48.0</ele><time>2026-05-01T07:59:38.999Z</time></trkpt><trkpt lat="44.56197645009965" lon="11.051018357561778"><ele>48.0</ele><time>2026-05-01T07:59:39.999Z</time></trkpt><trkpt lat="44.56185289033388" lon="11.051351797620145"><ele>48.0</ele><time>2026-05-01T07:59:40.999Z</time></trkpt><trkpt lat="44.56172937712195" lon="11.051682422272608"><ele>48.5</ele><time>2026-05-01T07:59:41.999Z</time></trkpt><trkpt lat="44.56160338605598" lon="11.05201639280082"><ele>49.0</ele><time>2026-05-01T07:59:42.999Z</time></trkpt><trkpt lat="44.56148004221737" lon="11.052347714752932"><ele>49.5</ele><time>2026-05-01T07:59:43.999Z</time></trkpt><trkpt lat="44.56135931979582" lon="11.052678986832266"><ele>50.0</ele><time>2026-05-01T07:59:44.999Z</time></trkpt><trkpt lat="44.56123642904034" lon="11.053015771171177"><ele>50.0</ele><time>2026-05-01T07:59:45.999Z</time></trkpt><trkpt lat="44.56111480932244" lon="11.05334645924007"><ele>50.0</ele><time>2026-05-01T07:59:46.999Z</time></trkpt><trkpt lat="44.560992213141574" lon="11.053676169468348"><ele>50.0</ele><time>2026-05-01T07:59:47.999Z</time></trkpt><trkpt lat="44.5608663957556" lon="11.054009033227661"><ele>50.0</ele><time>2026-05-01T07:59:49Z</time></trkpt><trkpt lat="44.56074251110008" lon="11.05434137698031"><ele>49.5</ele><time>2026-05-01T07:59:50Z</time></trkpt><trkpt lat="44.560618000914516" lon="11.054672166814356"><ele>49.0</ele><time>2026-05-01T07:59:51Z</time></trkpt><trkpt lat="44.56048993389436" lon="11.054999847256887"><ele>48.5</ele><time>2026-05-01T07:59:52Z</time></trkpt><trkpt lat="44.56036852729131" lon="11.05533104129246"><ele>48.0</ele><time>2026-05-01T07:59:53Z</time></trkpt><trkpt lat="44.56024453431114" lon="11.055657431806178"><ele>48.0</ele><time>2026-05-01T07:59:54Z</time></trkpt><trkpt lat="44.560120550546586" lon="11.055982705820414"><ele>48.0</ele><time>2026-05-01T07:59:55Z</time></trkpt><trkpt lat="44.55999534110433" lon="11.056309478349466"><ele>48.0</ele><time>2026-05-01T07:59:56Z</time></trkpt><trkpt lat="44.55987134253705" lon="11.056631894404237"><ele>48.0</ele><time>2026-05-01T07:59:57Z</time></trkpt><trkpt lat="44.55974493235789" lon="11.056959563644519"><ele>48.0</ele><time>2026-05-01T07:59:58Z</time></trkpt><trkpt lat="44.55962131889234" lon="11.05728549258465"><ele>48.0</ele><time>2026-05-01T07:59:59Z</time></trkpt><trkpt lat="44.559497001938546" lon="11.05761135617152"><ele>48.5</ele><time>2026-05-01T08:00:00Z</time></trkpt><trkpt lat="44.559373654277415" lon="11.057936246322797"><ele>49.0</ele><time>2026-05-01T08:00:01Z</time></trkpt><trkpt lat="44.559250253071234" lon="11.05826018328586"><ele>50.0</ele><time>2026-05-01T08:00:02Z</time></trkpt><trkpt lat="44.55912913448598" lon="11.058587393549912"><ele>51.0</ele><time>2026-05-01T08:00:03Z</time></trkpt><trkpt lat="44.55900658416408" lon="11.058914637562435"><ele>51.5</ele><time>2026-05-01T08:00:04Z</time></trkpt><trkpt lat="44.55888164255659" lon="11.059240045068515"><ele>52.0</ele><time>2026-05-01T08:00:05Z</time></trkpt><trkpt lat="44.55875416176867" lon="11.059565133437284"><ele>52.5</ele><time>2026-05-01T08:00:06Z</time></trkpt><trkpt lat="44.55862400907594" lon="11.059890881950713"><ele>53.0</ele><time>2026-05-01T08:00:07Z</time></trkpt><trkpt lat="44.558496113490556" lon="11.06022084912415"><ele>53.0</ele><time>2026-05-01T08:00:08Z</time></trkpt><trkpt lat="44.55836838069374" lon="11.060549420167384"><ele>53.0</ele><time>2026-05-01T08:00:09Z</time></trkpt><trkpt lat="44.55824181910526" lon="11.060884610192696"><ele>53.0</ele><time>2026-05-01T08:00:10Z</time></trkpt><trkpt lat="44.55811545154592" lon="11.061217347075036"><ele>53.0</ele><time>2026-05-01T08:00:11Z</time></trkpt><trkpt lat="44.557989262959666" lon="11.061550960964235"><ele>52.5</ele><time>2026-05-01T08:00:12Z</time></trkpt><trkpt lat="44.55786414222611" lon="11.061882136459175"><ele>52.0</ele><time>2026-05-01T08:00:13Z</time></trkpt><trkpt lat="44.55773874804349" lon="11.062212631732493"><ele>51.5</ele><time>2026-05-01T08:00:14Z</time></trkpt><trkpt lat="44.557612996227505" lon="11.062545003656322"><ele>51.0</ele><time>2026-05-01T08:00:15Z</time></trkpt><trkpt lat="44.55748807453033" lon="11.062877003709396"><ele>51.0</ele><time>2026-05-01T08:00:16Z</time></trkpt><trkpt lat="44.55735951551654" lon="11.063204430110014"><ele>51.0</ele><time>2026-05-01T08:00:17Z</time></trkpt><trkpt lat="44.557231855344874" lon="11.063534132680427"><ele>51.0</ele><time>2026-05-01T08:00:18Z</time></trkpt><trkpt lat="44.55710336658142" lon="11.06386903714531"><ele>51.0</ele><time>2026-05-01T08:00:19Z</time></trkpt><trkpt lat="44.5569755047967" lon="11.064209102591569"><ele>50.5</ele><time>2026-05-01T08:00:20Z</time></trkpt><trkpt lat="44.556848347530405" lon="11.064550266091986"><ele>50.0</ele><time>2026-05-01T08:00:21Z</time></trkpt><trkpt lat="44.55671954004687" lon="11.064889685200725"><ele>50.0</ele><time>2026-05-01T08:00:22Z</time></trkpt><trkpt lat="44.556587765588525" lon="11.065228557878829"><ele>50.0</ele><time>2026-05-01T08:00:23Z</time></trkpt><trkpt lat="44.5564573884924" lon="11.06556922019288"><ele>50.5</ele><time>2026-05-01T08:00:24Z</time></trkpt><trkpt lat="44.556326561645875" lon="11.065907326244249"><ele>51.0</ele><time>2026-05-01T08:00:25Z</time></trkpt><trkpt lat="44.55619688579373" lon="11.066245359882343"><ele>50.0</ele><time>2026-05-01T08:00:26Z</time></trkpt><trkpt lat="44.55606832406088" lon="11.066580164133887"><ele>49.0</ele><time>2026-05-01T08:00:27Z</time></trkpt><trkpt lat="44.55594259930469" lon="11.06691362522832"><ele>49.0</ele><time>2026-05-01T08:00:28Z</time></trkpt><trkpt lat="44.555818574026944" lon="11.06724605370285"><ele>49.0</ele><time>2026-05-01T08:00:29Z</time></trkpt><trkpt lat="44.5556935498659" lon="11.067576596704212"><ele>49.0</ele><time>2026-05-01T08:00:30Z</time></trkpt><trkpt lat="44.55556963545029" lon="11.067904345499443"><ele>49.0</ele><time>2026-05-01T08:00:31Z</time></trkpt><trkpt lat="44.55544345968123" lon="11.068229062526918"><ele>50.0</ele><time>2026-05-01T08:00:32Z</time></trkpt><trkpt lat="44.55531799977232" lon="11.06855604728963"><ele>51.0</ele><time>2026-05-01T08:00:33Z</time></trkpt><trkpt lat="44.55519360113872" lon="11.068882704917879"><ele>51.0</ele><time>2026-05-01T08:00:34Z</time></trkpt><trkpt lat="44.55506832955543" lon="11.0692104377028"><ele>51.0</ele><time>2026-05-01T08:00:35Z</time></trkpt><trkpt lat="44.55494237257087" lon="11.069534474762749"><ele>51.0</ele><time>2026-05-01T08:00:36Z</time></trkpt><trkpt lat="44.55481616361475" lon="11.069862138876667"><ele>51.0</ele><time>2026-05-01T08:00:37Z</time></trkpt><trkpt lat="44.55469124809241" lon="11.070185259204635"><ele>51.0</ele><time>2026-05-01T08:00:38Z</time></trkpt><trkpt lat="44.55456776471707" lon="11.070509967918607"><ele>51.0</ele><time>2026-05-01T08:00:39Z</time></trkpt><trkpt lat="44.55444321608116" lon="11.070836316080408"><ele>51.5</ele><time>2026-05-01T08:00:40Z</time></trkpt><trkpt lat="44.554317118210804" lon="11.071162725392888"><ele>52.0</ele><time>2026-05-01T08:00:41Z</time></trkpt><trkpt lat="44.554188598507686" lon="11.071486206593114"><ele>51.5</ele><time>2026-05-01T08:00:42Z</time></trkpt><trkpt lat="44.55405762735862" lon="11.071811661725109"><ele>51.0</ele><time>2026-05-01T08:00:43Z</time></trkpt><trkpt lat="44.553926987352334" lon="11.0721404572691"><ele>51.0</ele><time>2026-05-01T08:00:44Z</time></trkpt><trkpt lat="44.55379672457831" lon="11.072470094047803"><ele>51.0</ele><time>2026-05-01T08:00:45Z</time></trkpt><trkpt lat="44.55366749016675" lon="11.072801220805582"><ele>51.0</ele><time>2026-05-01T08:00:46Z</time></trkpt><trkpt lat="44.55353863552768" lon="11.073133488501366"><ele>51.0</ele><time>2026-05-01T08:00:47Z</time></trkpt><trkpt lat="44.55341063663177" lon="11.073466427851024"><ele>51.0</ele><time>2026-05-01T08:00:48Z</time></trkpt><trkpt lat="44.55328014566567" lon="11.073799800444963"><ele>51.0</ele><time>2026-05-01T08:00:49Z</time></trkpt><trkpt lat="44.55314945798455" lon="11.074135532646851"><ele>50.5</ele><time>2026-05-01T08:00:49.999Z</time></trkpt><trkpt lat="44.5530165167505" lon="11.07447364181801"><ele>50.0</ele><time>2026-05-01T08:00:50.999Z</time></trkpt><trkpt lat="44.552883838457596" lon="11.074813660199629"><ele>52.0</ele><time>2026-05-01T08:00:51.999Z</time></trkpt><trkpt lat="44.552750930018064" lon="11.075153208865018"><ele>54.0</ele><time>2026-05-01T08:00:52.999Z</time></trkpt><trkpt lat="44.55261522521365" lon="11.075493079035493"><ele>53.5</ele><time>2026-05-01T08:00:53.999Z</time></trkpt><trkpt lat="44.552475817086886" lon="11.075839869321568"><ele>53.0</ele><time>2026-05-01T08:00:54.999Z</time></trkpt><trkpt lat="44.55233848206023" lon="11.076184576968924"><ele>53.0</ele><time>2026-05-01T08:00:55.999Z</time></trkpt><trkpt lat="44.55220062383938" lon="11.076529053073411"><ele>53.0</ele><time>2026-05-01T08:00:56.999Z</time></trkpt><trkpt lat="44.552064615865376" lon="11.076876633059246"><ele>53.0</ele><time>2026-05-01T08:00:57.999Z</time></trkpt><trkpt lat="44.55193107146515" lon="11.077225201467252"><ele>53.0</ele><time>2026-05-01T08:00:58.999Z</time></trkpt><trkpt lat="44.55179800501483" lon="11.077570694849834"><ele>52.5</ele><time>2026-05-01T08:00:59.999Z</time></trkpt><trkpt lat="44.55166589108075" lon="11.077916407911996"><ele>52.0</ele><time>2026-05-01T08:01:00.999Z</time></trkpt><trkpt lat="44.55153378156735" lon="11.078257717362881"><ele>53.5</ele><time>2026-05-01T08:01:01.999Z</time></trkpt><trkpt lat="44.55140156696748" lon="11.07860336547924"><ele>55.0</ele><time>2026-05-01T08:01:02.999Z</time></trkpt><trkpt lat="44.5512701296334" lon="11.078948102627281"><ele>54.5</ele><time>2026-05-01T08:01:03.999Z</time></trkpt><trkpt lat="44.55113974408202" lon="11.079294363169511"><ele>54.0</ele><time>2026-05-01T08:01:04.999Z</time></trkpt><trkpt lat="44.551010497415334" lon="11.079640738349715"><ele>53.5</ele><time>2026-05-01T08:01:05.999Z</time></trkpt><trkpt lat="44.55087806450436" lon="11.079985384915428"><ele>53.0</ele><time>2026-05-01T08:01:06.999Z</time></trkpt><trkpt lat="44.5507447216172" lon="11.080332058494156"><ele>53.0</ele><time>2026-05-01T08:01:07.999Z</time></trkpt><trkpt lat="44.55061182715666" lon="11.080677752182366"><ele>53.0</ele><time>2026-05-01T08:01:08.999Z</time></trkpt><trkpt lat="44.55047974743635" lon="11.081022551976947"><ele>52.5</ele><time>2026-05-01T08:01:09.999Z</time></trkpt><trkpt lat="44.55034837385774" lon="11.081366840706815"><ele>52.0</ele><time>2026-05-01T08:01:10.999Z</time></trkpt><trkpt lat="44.55021654114912" lon="11.081712979734489"><ele>53.0</ele><time>2026-05-01T08:01:11.999Z</time></trkpt><trkpt lat="44.55008486605511" lon="11.082059564624595"><ele>54.0</ele><time>2026-05-01T08:01:12.999Z</time></trkpt><trkpt lat="44.549953421012404" lon="11.082405489918289"><ele>54.0</ele><time>2026-05-01T08:01:13.999Z</time></trkpt><trkpt lat="44.54982195134852" lon="11.082753650134022"><ele>54.0</ele><time>2026-05-01T08:01:14.999Z</time></trkpt><trkpt lat="44.54969081573001" lon="11.083100093279475"><ele>54.0</ele><time>2026-05-01T08:01:15.999Z</time></trkpt><trkpt lat="44.549556099314444" lon="11.08344450822352"><ele>54.0</ele><time>2026-05-01T08:01:16.999Z</time></trkpt><trkpt lat="44.549423291053834" lon="11.08378879371059"><ele>53.5</ele><time>2026-05-01T08:01:17.999Z</time></trkpt><trkpt lat="44.54929113224404" lon="11.084132321145042"><ele>53.0</ele><time>2026-05-01T08:01:18.999Z</time></trkpt><trkpt lat="44.549159616099374" lon="11.084477235171226"><ele>53.0</ele><time>2026-05-01T08:01:19.999Z</time></trkpt><trkpt lat="44.54902926857698" lon="11.084821614691943"><ele>53.0</ele><time>2026-05-01T08:01:20.999Z</time></trkpt><trkpt lat="44.54889836120234" lon="11.085167728100116"><ele>53.0</ele><time>2026-05-01T08:01:21.999Z</time></trkpt><trkpt lat="44.54876494326779" lon="11.085513638923828"><ele>53.0</ele><time>2026-05-01T08:01:22.999Z</time></trkpt><trkpt lat="44.548630457078254" lon="11.0858626332416"><ele>53.0</ele><time>2026-05-01T08:01:23.999Z</time></trkpt><trkpt lat="44.54849506800871" lon="11.0862122231099"><ele>53.0</ele><time>2026-05-01T08:01:24.999Z</time></trkpt><trkpt lat="44.54836053629422" lon="11.086562676399362"><ele>53.5</ele><time>2026-05-01T08:01:25.999Z</time></trkpt><trkpt lat="44.54822454382199" lon="11.086916525255905"><ele>54.0</ele><time>2026-05-01T08:01:26.999Z</time></trkpt><trkpt lat="44.54809005020433" lon="11.087275073242129"><ele>53.5</ele><time>2026-05-01T08:01:27.999Z</time></trkpt><trkpt lat="44.54795637301549" lon="11.08763195624357"><ele>53.0</ele><time>2026-05-01T08:01:28.999Z</time></trkpt><trkpt lat="44.547822307185946" lon="11.087988921627133"><ele>53.0</ele><time>2026-05-01T08:01:29.999Z</time></trkpt><trkpt lat="44.547687627055964" lon="11.088343046554503"><ele>53.0</ele><time>2026-05-01T08:01:30.999Z</time></trkpt><trkpt lat="44.54755214544313" lon="11.088699535388677"><ele>53.0</ele><time>2026-05-01T08:01:31.999Z</time></trkpt><trkpt lat="44.54741673598394" lon="11.089058066342199"><ele>53.0</ele><time>2026-05-01T08:01:32.999Z</time></trkpt><trkpt lat="44.547278901995924" lon="11.089416790079955"><ele>53.5</ele><time>2026-05-01T08:01:33.999Z</time></trkpt><trkpt lat="44.54714047133963" lon="11.089778187410577"><ele>54.0</ele><time>2026-05-01T08:01:34.999Z</time></trkpt><trkpt lat="44.5470012789911" lon="11.090139133728549"><ele>54.0</ele><time>2026-05-01T08:01:35.999Z</time></trkpt><trkpt lat="44.54686190622187" lon="11.090499941701067"><ele>54.0</ele><time>2026-05-01T08:01:36.999Z</time></trkpt><trkpt lat="44.54672221353429" lon="11.090862743105696"><ele>54.5</ele><time>2026-05-01T08:01:37.999Z</time></trkpt><trkpt lat="44.54658297179545" lon="11.09122329479789"><ele>55.0</ele><time>2026-05-01T08:01:38.999Z</time></trkpt><trkpt lat="44.54644467271953" lon="11.091584834743461"><ele>55.0</ele><time>2026-05-01T08:01:39.999Z</time></trkpt><trkpt lat="44.546304969212564" lon="11.091946867016215"><ele>55.0</ele><time>2026-05-01T08:01:40.999Z</time></trkpt><trkpt lat="44.54616490592047" lon="11.092307578903007"><ele>54.0</ele><time>2026-05-01T08:01:41.999Z</time></trkpt><trkpt lat="44.54602661483391" lon="11.092667389582322"><ele>53.0</ele><time>2026-05-01T08:01:42.999Z</time></trkpt><trkpt lat="44.545888118968534" lon="11.093027678322366"><ele>53.5</ele><time>2026-05-01T08:01:43.999Z</time></trkpt><trkpt lat="44.545750339768524" lon="11.093388898057782"><ele>54.0</ele><time>2026-05-01T08:01:44.999Z</time></trkpt><trkpt lat="44.54561274649111" lon="11.09375057830133"><ele>54.0</ele><time>2026-05-01T08:01:45.999Z</time></trkpt><trkpt lat="44.54547607796848" lon="11.094113030471147"><ele>54.0</ele><time>2026-05-01T08:01:46.999Z</time></trkpt><trkpt lat="44.54533818741708" lon="11.094477152515715"><ele>54.0</ele><time>2026-05-01T08:01:47.999Z</time></trkpt><trkpt lat="44.54519883139521" lon="11.09483715900945"><ele>54.0</ele><time>2026-05-01T08:01:48.999Z</time></trkpt><trkpt lat="44.54505975939887" lon="11.095197762585997"><ele>55.0</ele><time>2026-05-01T08:01:49.999Z</time></trkpt><trkpt lat="44.54492253391868" lon="11.095557978137446"><ele>56.0</ele><time>2026-05-01T08:01:50.999Z</time></trkpt><trkpt lat="44.54478502723576" lon="11.095920491870425"><ele>56.5</ele><time>2026-05-01T08:01:51.999Z</time></trkpt><trkpt lat="44.544647116425075" lon="11.096285931656483"><ele>57.0</ele><time>2026-05-01T08:01:52.999Z</time></trkpt><trkpt lat="44.54450960046242" lon="11.096653468348725"><ele>55.5</ele><time>2026-05-01T08:01:53.999Z</time></trkpt><trkpt lat="44.54436955027804" lon="11.097021201938025"><ele>54.0</ele><time>2026-05-01T08:01:55Z</time></trkpt><trkpt lat="44.54422721735614" lon="11.097389879998673"><ele>53.5</ele><time>2026-05-01T08:01:56Z</time></trkpt><trkpt lat="44.54408608776604" lon="11.097758034148242"><ele>53.0</ele><time>2026-05-01T08:01:57Z</time></trkpt><trkpt lat="44.54394545186147" lon="11.09812603585394"><ele>52.5</ele><time>2026-05-01T08:01:58Z</time></trkpt><trkpt lat="44.54380284237594" lon="11.098497078022321"><ele>52.0</ele><time>2026-05-01T08:01:59Z</time></trkpt><trkpt lat="44.54365814626497" lon="11.098870494425855"><ele>52.5</ele><time>2026-05-01T08:02:00Z</time></trkpt><trkpt lat="44.54351417748193" lon="11.099245052083365"><ele>53.0</ele><time>2026-05-01T08:02:01Z</time></trkpt><trkpt lat="44.54337212053328" lon="11.099618213945893"><ele>53.0</ele><time>2026-05-01T08:02:02Z</time></trkpt><trkpt lat="44.54323023004043" lon="11.099994287790489"><ele>53.0</ele><time>2026-05-01T08:02:03Z</time></trkpt><trkpt lat="44.54308786329841" lon="11.100366276737919"><ele>53.0</ele><time>2026-05-01T08:02:04Z</time></trkpt><trkpt lat="44.54294525819707" lon="11.100735966487674"><ele>53.0</ele><time>2026-05-01T08:02:05Z</time></trkpt><trkpt lat="44.542804554162366" lon="11.101102365648057"><ele>53.5</ele><time>2026-05-01T08:02:06Z</time></trkpt><trkpt lat="44.54266556370507" lon="11.101470028906848"><ele>54.0</ele><time>2026-05-01T08:02:07Z</time></trkpt><trkpt lat="44.54252469546435" lon="11.101832918609306"><ele>54.0</ele><time>2026-05-01T08:02:08Z</time></trkpt><trkpt lat="44.54238599171057" lon="11.10218960457838"><ele>54.0</ele><time>2026-05-01T08:02:09Z</time></trkpt><trkpt lat="44.54225431181886" lon="11.10253741250901"><ele>54.5</ele><time>2026-05-01T08:02:10Z</time></trkpt><trkpt lat="44.542127016275735" lon="11.10288022953313"><ele>55.0</ele><time>2026-05-01T08:02:11Z</time></trkpt><trkpt lat="44.542003565598144" lon="11.10321424075644"><ele>55.5</ele><time>2026-05-01T08:02:12Z</time></trkpt><trkpt lat="44.541884858505476" lon="11.103544612587859"><ele>56.0</ele><time>2026-05-01T08:02:13Z</time></trkpt><trkpt lat="44.54176512088067" lon="11.103875165891619"><ele>56.0</ele><time>2026-05-01T08:02:14Z</time></trkpt><trkpt lat="44.5416424690852" lon="11.104207896744601"><ele>56.0</ele><time>2026-05-01T08:02:15Z</time></trkpt><trkpt lat="44.541518621654554" lon="11.104538360702351"><ele>56.0</ele><time>2026-05-01T08:02:16Z</time></trkpt><trkpt lat="44.54139322293695" lon="11.104865275807628"><ele>56.0</ele><time>2026-05-01T08:02:17Z</time></trkpt><trkpt lat="44.54126583153049" lon="11.105193301050344"><ele>56.5</ele><time>2026-05-01T08:02:18Z</time></trkpt><trkpt lat="44.54114198916216" lon="11.105519544120293"><ele>57.0</ele><time>2026-05-01T08:02:19Z</time></trkpt><trkpt lat="44.54101891055738" lon="11.105845000294048"><ele>58.0</ele><time>2026-05-01T08:02:20Z</time></trkpt><trkpt lat="44.54089429346002" lon="11.106168126258048"><ele>59.0</ele><time>2026-05-01T08:02:21Z</time></trkpt><trkpt lat="44.54075974485938" lon="11.106487025705752"><ele>59.0</ele><time>2026-05-01T08:02:22Z</time></trkpt><trkpt lat="44.54061307405775" lon="11.106819206348572"><ele>59.0</ele><time>2026-05-01T08:02:23Z</time></trkpt><trkpt lat="44.540478232563004" lon="11.107164520582055"><ele>57.5</ele><time>2026-05-01T08:02:24Z</time></trkpt><trkpt lat="44.54034425885944" lon="11.10751674066834"><ele>56.0</ele><time>2026-05-01T08:02:25Z</time></trkpt><trkpt lat="44.540211046115594" lon="11.107871996019563"><ele>56.0</ele><time>2026-05-01T08:02:26Z</time></trkpt><trkpt lat="44.54007683276395" lon="11.108226569472961"><ele>56.0</ele><time>2026-05-01T08:02:27Z</time></trkpt><trkpt lat="44.53993945082051" lon="11.108580625464157"><ele>56.0</ele><time>2026-05-01T08:02:28Z</time></trkpt><trkpt lat="44.53980159894625" lon="11.108934707646272"><ele>56.0</ele><time>2026-05-01T08:02:29Z</time></trkpt><trkpt lat="44.53966637007524" lon="11.109289439198458"><ele>56.0</ele><time>2026-05-01T08:02:30Z</time></trkpt><trkpt lat="44.539532790263394" lon="11.10963908861016"><ele>56.0</ele><time>2026-05-01T08:02:31Z</time></trkpt><trkpt lat="44.53939872127677" lon="11.109987804053159"><ele>56.0</ele><time>2026-05-01T08:02:32Z</time></trkpt><trkpt lat="44.53926361450754" lon="11.110334484082857"><ele>56.0</ele><time>2026-05-01T08:02:33Z</time></trkpt><trkpt lat="44.53912959030931" lon="11.110679419495813"><ele>55.5</ele><time>2026-05-01T08:02:34Z</time></trkpt><trkpt lat="44.538998887059755" lon="11.111020407447944"><ele>55.0</ele><time>2026-05-01T08:02:35Z</time></trkpt><trkpt lat="44.53887177874658" lon="11.111362189814052"><ele>55.0</ele><time>2026-05-01T08:02:36Z</time></trkpt><trkpt lat="44.53874431863761" lon="11.111702132017507"><ele>55.0</ele><time>2026-05-01T08:02:37Z</time></trkpt><trkpt lat="44.538614735189995" lon="11.112038003097197"><ele>55.0</ele><time>2026-05-01T08:02:38Z</time></trkpt><trkpt lat="44.53848301467107" lon="11.112372818834922"><ele>55.0</ele><time>2026-05-01T08:02:39Z</time></trkpt><trkpt lat="44.538353126893774" lon="11.112705629224594"><ele>54.5</ele><time>2026-05-01T08:02:40Z</time></trkpt><trkpt lat="44.53822383509727" lon="11.113039447936481"><ele>54.0</ele><time>2026-05-01T08:02:41Z</time></trkpt><trkpt lat="44.53809653365238" lon="11.11337294392888"><ele>54.5</ele><time>2026-05-01T08:02:42Z</time></trkpt><trkpt lat="44.53797031149497" lon="11.1137033352559"><ele>55.0</ele><time>2026-05-01T08:02:43Z</time></trkpt><trkpt lat="44.53784784000177" lon="11.114026796159695"><ele>55.0</ele><time>2026-05-01T08:02:44Z</time></trkpt><trkpt lat="44.537728303962375" lon="11.114340334486725"><ele>55.0</ele><time>2026-05-01T08:02:45Z</time></trkpt><trkpt lat="44.53761098767693" lon="11.11464790733484"><ele>55.0</ele><time>2026-05-01T08:02:46Z</time></trkpt><trkpt lat="44.537491924466416" lon="11.114955857313257"><ele>55.0</ele><time>2026-05-01T08:02:47Z</time></trkpt><trkpt lat="44.53737432249873" lon="11.115258685255208"><ele>55.0</ele><time>2026-05-01T08:02:48Z</time></trkpt><trkpt lat="44.537258660587284" lon="11.115558455611172"><ele>55.0</ele><time>2026-05-01T08:02:49Z</time></trkpt><trkpt lat="44.53714337976376" lon="11.115857411134096"><ele>55.0</ele><time>2026-05-01T08:02:49.999Z</time></trkpt><trkpt lat="44.537030596658596" lon="11.116153334533482"><ele>55.0</ele><time>2026-05-01T08:02:50.999Z</time></trkpt><trkpt lat="44.53691851165157" lon="11.116447261966512"><ele>54.5</ele><time>2026-05-01T08:02:51.999Z</time></trkpt><trkpt lat="44.53680524676841" lon="11.116741078156153"><ele>54.0</ele><time>2026-05-01T08:02:52.999Z</time></trkpt><trkpt lat="44.536693045954905" lon="11.117037220866031"><ele>54.0</ele><time>2026-05-01T08:02:53.999Z</time></trkpt><trkpt lat="44.53658079684329" lon="11.11733144993925"><ele>54.0</ele><time>2026-05-01T08:02:54.999Z</time></trkpt><trkpt lat="44.53646804961271" lon="11.117627510183748"><ele>53.5</ele><time>2026-05-01T08:02:55.999Z</time></trkpt><trkpt lat="44.53635375163198" lon="11.117924753945227"><ele>53.0</ele><time>2026-05-01T08:02:56.999Z</time></trkpt><trkpt lat="44.53623957040038" lon="11.118226595196887"><ele>54.0</ele><time>2026-05-01T08:02:57.999Z</time></trkpt><trkpt lat="44.536122998974314" lon="11.11852797880728"><ele>55.0</ele><time>2026-05-01T08:02:58.999Z</time></trkpt><trkpt lat="44.536006239036084" lon="11.118826567527519"><ele>54.5</ele><time>2026-05-01T08:02:59.999Z</time></trkpt><trkpt lat="44.535889570429504" lon="11.119129058121604"><ele>54.0</ele><time>2026-05-01T08:03:00.999Z</time></trkpt><trkpt lat="44.5357735014276" lon="11.119432972281311"><ele>54.0</ele><time>2026-05-01T08:03:01.999Z</time></trkpt><trkpt lat="44.535657105963054" lon="11.1197368968116"><ele>54.0</ele><time>2026-05-01T08:03:02.999Z</time></trkpt><trkpt lat="44.53553959722709" lon="11.120041644862935"><ele>54.0</ele><time>2026-05-01T08:03:03.999Z</time></trkpt><trkpt lat="44.53542056769172" lon="11.120348553203268"><ele>54.0</ele><time>2026-05-01T08:03:04.999Z</time></trkpt><trkpt lat="44.535301116599044" lon="11.120657276070483"><ele>54.5</ele><time>2026-05-01T08:03:05.999Z</time></trkpt><trkpt lat="44.53518213394937" lon="11.12096448951122"><ele>55.0</ele><time>2026-05-01T08:03:06.999Z</time></trkpt><trkpt lat="44.53506412900391" lon="11.121272072698094"><ele>55.5</ele><time>2026-05-01T08:03:07.999Z</time></trkpt><trkpt lat="44.534945915986185" lon="11.121579888095704"><ele>56.0</ele><time>2026-05-01T08:03:08.999Z</time></trkpt><trkpt lat="44.53482833790313" lon="11.121889377009749"><ele>56.0</ele><time>2026-05-01T08:03:09.999Z</time></trkpt><trkpt lat="44.53471060324385" lon="11.122198078746218"><ele>56.0</ele><time>2026-05-01T08:03:10.999Z</time></trkpt><trkpt lat="44.53459258535978" lon="11.122504949837607"><ele>55.5</ele><time>2026-05-01T08:03:11.999Z</time></trkpt><trkpt lat="44.534474514230986" lon="11.122812469780499"><ele>55.0</ele><time>2026-05-01T08:03:12.999Z</time></trkpt><trkpt lat="44.534357506862094" lon="11.123117544032233"><ele>55.5</ele><time>2026-05-01T08:03:13.999Z</time></trkpt><trkpt lat="44.53423977830476" lon="11.123423895461631"><ele>56.0</ele><time>2026-05-01T08:03:14.999Z</time></trkpt><trkpt lat="44.53412324334216" lon="11.123728748960042"><ele>56.0</ele><time>2026-05-01T08:03:15.999Z</time></trkpt><trkpt lat="44.53400817357659" lon="11.124038435629652"><ele>56.0</ele><time>2026-05-01T08:03:16.999Z</time></trkpt><trkpt lat="44.533893508061134" lon="11.124345426706"><ele>55.5</ele><time>2026-05-01T08:03:17.999Z</time></trkpt><trkpt lat="44.53377901360952" lon="11.124653640223897"><ele>55.0</ele><time>2026-05-01T08:03:18.999Z</time></trkpt><trkpt lat="44.53366581954105" lon="11.124962951150906"><ele>55.0</ele><time>2026-05-01T08:03:19.999Z</time></trkpt><trkpt lat="44.53355465637431" lon="11.125277428798386"><ele>55.0</ele><time>2026-05-01T08:03:20.999Z</time></trkpt><trkpt lat="44.53344339651031" lon="11.125592055496604"><ele>54.5</ele><time>2026-05-01T08:03:21.999Z</time></trkpt><trkpt lat="44.533334147664426" lon="11.125906319857377"><ele>54.0</ele><time>2026-05-01T08:03:22.999Z</time></trkpt><trkpt lat="44.53322756688531" lon="11.126220974744708"><ele>54.0</ele><time>2026-05-01T08:03:23.999Z</time></trkpt><trkpt lat="44.53312073797071" lon="11.126536154323361"><ele>54.0</ele><time>2026-05-01T08:03:24.999Z</time></trkpt><trkpt lat="44.53301321005248" lon="11.126848940159176"><ele>54.0</ele><time>2026-05-01T08:03:25.999Z</time></trkpt><trkpt lat="44.5329066799801" lon="11.127157140736774"><ele>54.0</ele><time>2026-05-01T08:03:26.999Z</time></trkpt><trkpt lat="44.53279950141888" lon="11.127465141706189"><ele>55.0</ele><time>2026-05-01T08:03:27.999Z</time></trkpt><trkpt lat="44.53269406840622" lon="11.127770964555033"><ele>56.0</ele><time>2026-05-01T08:03:28.999Z</time></trkpt><trkpt lat="44.532588362399196" lon="11.128071921323615"><ele>56.0</ele><time>2026-05-01T08:03:29.999Z</time></trkpt><trkpt lat="44.53248382810647" lon="11.128372266936584"><ele>56.0</ele><time>2026-05-01T08:03:30.999Z</time></trkpt><trkpt lat="44.53238195256464" lon="11.128674551969338"><ele>56.0</ele><time>2026-05-01T08:03:31.999Z</time></trkpt><trkpt lat="44.5322819289115" lon="11.12897526628636"><ele>56.0</ele><time>2026-05-01T08:03:32.999Z</time></trkpt><trkpt lat="44.53218111480777" lon="11.129278317375915"><ele>55.5</ele><time>2026-05-01T08:03:33.999Z</time></trkpt><trkpt lat="44.53207901203527" lon="11.129580292734614"><ele>55.0</ele><time>2026-05-01T08:03:34.999Z</time></trkpt><trkpt lat="44.531976801877484" lon="11.129884427359908"><ele>55.5</ele><time>2026-05-01T08:03:35.999Z</time></trkpt><trkpt lat="44.531873662076244" lon="11.13018926674644"><ele>56.0</ele><time>2026-05-01T08:03:36.999Z</time></trkpt><trkpt lat="44.531769379746436" lon="11.130496582853832"><ele>56.0</ele><time>2026-05-01T08:03:37.999Z</time></trkpt><trkpt lat="44.531665743536074" lon="11.13080384397019"><ele>56.0</ele><time>2026-05-01T08:03:38.999Z</time></trkpt><trkpt lat="44.53156179369915" lon="11.131116466090553"><ele>56.0</ele><time>2026-05-01T08:03:39.999Z</time></trkpt><trkpt lat="44.53145911359139" lon="11.131431911084526"><ele>56.0</ele><time>2026-05-01T08:03:40.999Z</time></trkpt><trkpt lat="44.53135479113919" lon="11.131747010640417"><ele>54.5</ele><time>2026-05-01T08:03:41.999Z</time></trkpt><trkpt lat="44.53124706601625" lon="11.132061088991138"><ele>53.0</ele><time>2026-05-01T08:03:42.999Z</time></trkpt><trkpt lat="44.531137718213294" lon="11.132377221372696"><ele>54.0</ele><time>2026-05-01T08:03:43.999Z</time></trkpt><trkpt lat="44.53102854089755" lon="11.132693740243093"><ele>55.0</ele><time>2026-05-01T08:03:44.999Z</time></trkpt><trkpt lat="44.53092036060244" lon="11.13300585917966"><ele>55.5</ele><time>2026-05-01T08:03:45.999Z</time></trkpt><trkpt lat="44.53081199452126" lon="11.13331999283624"><ele>56.0</ele><time>2026-05-01T08:03:46.999Z</time></trkpt><trkpt lat="44.530705328550674" lon="11.133632575443379"><ele>56.0</ele><time>2026-05-01T08:03:47.999Z</time></trkpt><trkpt lat="44.530598813548096" lon="11.133949465056576"><ele>56.0</ele><time>2026-05-01T08:03:48.999Z</time></trkpt><trkpt lat="44.530490940718224" lon="11.134266261244084"><ele>55.5</ele><time>2026-05-01T08:03:49.999Z</time></trkpt><trkpt lat="44.53038251103068" lon="11.134584419358925"><ele>55.0</ele><time>2026-05-01T08:03:50.999Z</time></trkpt><trkpt lat="44.53027421163475" lon="11.134899653047455"><ele>54.5</ele><time>2026-05-01T08:03:51.999Z</time></trkpt><trkpt lat="44.530167669281255" lon="11.135210860659342"><ele>54.0</ele><time>2026-05-01T08:03:52.999Z</time></trkpt><trkpt lat="44.530060997444984" lon="11.135526668374522"><ele>54.5</ele><time>2026-05-01T08:03:53.999Z</time></trkpt><trkpt lat="44.529956397804696" lon="11.135837996903785"><ele>55.0</ele><time>2026-05-01T08:03:54.999Z</time></trkpt><trkpt lat="44.52985263133878" lon="11.136151709670216"><ele>55.0</ele><time>2026-05-01T08:03:55.999Z</time></trkpt><trkpt lat="44.52974917717632" lon="11.13646304233927"><ele>55.0</ele><time>2026-05-01T08:03:56.999Z</time></trkpt><trkpt lat="44.52964413103591" lon="11.136776438066214"><ele>54.5</ele><time>2026-05-01T08:03:57.999Z</time></trkpt><trkpt lat="44.529538314169336" lon="11.13708631781327"><ele>54.0</ele><time>2026-05-01T08:03:58.999Z</time></trkpt><trkpt lat="44.52943167190096" lon="11.137400974069713"><ele>55.0</ele><time>2026-05-01T08:03:59.999Z</time></trkpt><trkpt lat="44.529327344215105" lon="11.13771199942032"><ele>56.0</ele><time>2026-05-01T08:04:01Z</time></trkpt><trkpt lat="44.5292267368401" lon="11.138023589680413"><ele>54.5</ele><time>2026-05-01T08:04:02Z</time></trkpt><trkpt lat="44.529129155834674" lon="11.138336148585442"><ele>53.0</ele><time>2026-05-01T08:04:03Z</time></trkpt><trkpt lat="44.52903132601951" lon="11.13865223877775"><ele>53.0</ele><time>2026-05-01T08:04:04Z</time></trkpt><trkpt lat="44.52893324472507" lon="11.138965532858734"><ele>53.0</ele><time>2026-05-01T08:04:05Z</time></trkpt><trkpt lat="44.52883344681192" lon="11.139283790575554"><ele>52.5</ele><time>2026-05-01T08:04:06Z</time></trkpt><trkpt lat="44.528728039801884" lon="11.139605158065566"><ele>52.0</ele><time>2026-05-01T08:04:07Z</time></trkpt><trkpt lat="44.52861962198897" lon="11.139926321464445"><ele>53.0</ele><time>2026-05-01T08:04:08Z</time></trkpt><trkpt lat="44.52851049556976" lon="11.14025397582648"><ele>54.0</ele><time>2026-05-01T08:04:09Z</time></trkpt><trkpt lat="44.52840187882113" lon="11.140583084645682"><ele>54.5</ele><time>2026-05-01T08:04:10Z</time></trkpt><trkpt lat="44.52829360707163" lon="11.14091360623583"><ele>55.0</ele><time>2026-05-01T08:04:11Z</time></trkpt><trkpt lat="44.528185241077274" lon="11.141264521441276"><ele>55.5</ele><time>2026-05-01T08:04:12Z</time></trkpt><trkpt lat="44.52807242791978" lon="11.141616872337098"><ele>56.0</ele><time>2026-05-01T08:04:13Z</time></trkpt><trkpt lat="44.527950037616485" lon="11.141981008595517"><ele>54.5</ele><time>2026-05-01T08:04:14Z</time></trkpt><trkpt lat="44.5278249629664" lon="11.142349723108318"><ele>53.0</ele><time>2026-05-01T08:04:15Z</time></trkpt><trkpt lat="44.527698781320886" lon="11.14271853758735"><ele>53.0</ele><time>2026-05-01T08:04:16Z</time></trkpt><trkpt lat="44.527571698096274" lon="11.143088941107905"><ele>53.0</ele><time>2026-05-01T08:04:17Z</time></trkpt><trkpt lat="44.527445331334185" lon="11.143458901075174"><ele>52.0</ele><time>2026-05-01T08:04:18Z</time></trkpt><trkpt lat="44.52731794805097" lon="11.14383334298074"><ele>51.0</ele><time>2026-05-01T08:04:19Z</time></trkpt><trkpt lat="44.527191139823195" lon="11.144205582443414"><ele>50.5</ele><time>2026-05-01T08:04:20Z</time></trkpt><trkpt lat="44.52706340617546" lon="11.144582601877861"><ele>50.0</ele><time>2026-05-01T08:04:21Z</time></trkpt><trkpt lat="44.526931210980045" lon="11.14495519881607"><ele>51.5</ele><time>2026-05-01T08:04:22Z</time></trkpt><trkpt lat="44.526801750463534" lon="11.145328902870341"><ele>53.0</ele><time>2026-05-01T08:04:23Z</time></trkpt><trkpt lat="44.52667413302555" lon="11.14570207541939"><ele>52.5</ele><time>2026-05-01T08:04:24Z</time></trkpt><trkpt lat="44.52654782371861" lon="11.146070676618773"><ele>52.0</ele><time>2026-05-01T08:04:25Z</time></trkpt><trkpt lat="44.52642509551177" lon="11.14643465585462"><ele>52.0</ele><time>2026-05-01T08:04:26Z</time></trkpt><trkpt lat="44.526303366966204" lon="11.14679432876111"><ele>52.0</ele><time>2026-05-01T08:04:27Z</time></trkpt><trkpt lat="44.52618234530089" lon="11.147147730778794"><ele>52.0</ele><time>2026-05-01T08:04:28Z</time></trkpt><trkpt lat="44.526062983461465" lon="11.147497424642046"><ele>52.0</ele><time>2026-05-01T08:04:29Z</time></trkpt><trkpt lat="44.52594484482926" lon="11.147846875620829"><ele>52.0</ele><time>2026-05-01T08:04:30Z</time></trkpt><trkpt lat="44.5258301496368" lon="11.148188859744133"><ele>52.0</ele><time>2026-05-01T08:04:31Z</time></trkpt><trkpt lat="44.52571687615155" lon="11.14852989803267"><ele>52.0</ele><time>2026-05-01T08:04:32Z</time></trkpt><trkpt lat="44.52560390149525" lon="11.148868550426467"><ele>52.0</ele><time>2026-05-01T08:04:33Z</time></trkpt><trkpt lat="44.52548938469352" lon="11.149205328343998"><ele>52.5</ele><time>2026-05-01T08:04:34Z</time></trkpt><trkpt lat="44.525375414064996" lon="11.14953967694867"><ele>53.0</ele><time>2026-05-01T08:04:35Z</time></trkpt><trkpt lat="44.525262871104395" lon="11.149870829111968"><ele>53.0</ele><time>2026-05-01T08:04:36Z</time></trkpt><trkpt lat="44.525150469411514" lon="11.15020366734325"><ele>53.0</ele><time>2026-05-01T08:04:37Z</time></trkpt><trkpt lat="44.525037983836086" lon="11.150532591097551"><ele>53.0</ele><time>2026-05-01T08:04:38Z</time></trkpt><trkpt lat="44.52492474112468" lon="11.150857977341033"><ele>53.0</ele><time>2026-05-01T08:04:39Z</time></trkpt><trkpt lat="44.52481159793417" lon="11.151182474211575"><ele>53.0</ele><time>2026-05-01T08:04:40Z</time></trkpt><trkpt lat="44.52470107981692" lon="11.151509564795546"><ele>53.0</ele><time>2026-05-01T08:04:41Z</time></trkpt><trkpt lat="44.52459197100161" lon="11.15183436951763"><ele>53.0</ele><time>2026-05-01T08:04:42Z</time></trkpt><trkpt lat="44.524483147191" lon="11.152161216827041"><ele>53.0</ele><time>2026-05-01T08:04:43Z</time></trkpt><trkpt lat="44.524372814531205" lon="11.152484857120546"><ele>53.0</ele><time>2026-05-01T08:04:44Z</time></trkpt><trkpt lat="44.524264763258074" lon="11.152805376657795"><ele>53.0</ele><time>2026-05-01T08:04:45Z</time></trkpt><trkpt lat="44.52415654078708" lon="11.15312606379777"><ele>51.5</ele><time>2026-05-01T08:04:46Z</time></trkpt><trkpt lat="44.524048406178686" lon="11.153441746766283"><ele>50.0</ele><time>2026-05-01T08:04:47Z</time></trkpt><trkpt lat="44.52394114304503" lon="11.153756469673162"><ele>50.0</ele><time>2026-05-01T08:04:48Z</time></trkpt><trkpt lat="44.52383439770595" lon="11.154072498729546"><ele>50.0</ele><time>2026-05-01T08:04:49Z</time></trkpt><trkpt lat="44.523726508776335" lon="11.154386697186037"><ele>51.5</ele><time>2026-05-01T08:04:50Z</time></trkpt><trkpt lat="44.52362000545909" lon="11.154699245611294"><ele>53.0</ele><time>2026-05-01T08:04:51Z</time></trkpt><trkpt lat="44.52351087805808" lon="11.155010857106255"><ele>53.0</ele><time>2026-05-01T08:04:51.999Z</time></trkpt><trkpt lat="44.52339853577583" lon="11.15532473926561"><ele>53.0</ele><time>2026-05-01T08:04:52.999Z</time></trkpt><trkpt lat="44.5232881259315" lon="11.155638879175465"><ele>51.5</ele><time>2026-05-01T08:04:53.999Z</time></trkpt><trkpt lat="44.52317835542492" lon="11.155952918649781"><ele>50.0</ele><time>2026-05-01T08:04:54.999Z</time></trkpt><trkpt lat="44.52306955520216" lon="11.156266578933314"><ele>50.0</ele><time>2026-05-01T08:04:55.999Z</time></trkpt><trkpt lat="44.52296036488536" lon="11.156586872868118"><ele>50.0</ele><time>2026-05-01T08:04:56.999Z</time></trkpt><trkpt lat="44.52285172770986" lon="11.156905313774272"><ele>50.0</ele><time>2026-05-01T08:04:57.999Z</time></trkpt><trkpt lat="44.52274223935394" lon="11.157223284884935"><ele>50.0</ele><time>2026-05-01T08:04:58.999Z</time></trkpt><trkpt lat="44.52263285744382" lon="11.15754078407469"><ele>50.0</ele><time>2026-05-01T08:04:59.999Z</time></trkpt><trkpt lat="44.5225246799672" lon="11.157861330226565"><ele>50.0</ele><time>2026-05-01T08:05:00.999Z</time></trkpt><trkpt lat="44.522415946736146" lon="11.15818496514256"><ele>50.0</ele><time>2026-05-01T08:05:01.999Z</time></trkpt><trkpt lat="44.52230727081357" lon="11.15851005719116"><ele>50.0</ele><time>2026-05-01T08:05:02.999Z</time></trkpt><trkpt lat="44.522197563274865" lon="11.15883507453664"><ele>51.0</ele><time>2026-05-01T08:05:03.999Z</time></trkpt><trkpt lat="44.5220871181337" lon="11.159159471274032"><ele>52.0</ele><time>2026-05-01T08:05:04.999Z</time></trkpt><trkpt lat="44.52197534285764" lon="11.15948567906622"><ele>52.0</ele><time>2026-05-01T08:05:05.999Z</time></trkpt><trkpt lat="44.52186447283787" lon="11.1598130649787"><ele>52.0</ele><time>2026-05-01T08:05:06.999Z</time></trkpt><trkpt lat="44.52175290696832" lon="11.160142511264727"><ele>52.5</ele><time>2026-05-01T08:05:07.999Z</time></trkpt><trkpt lat="44.52163939232589" lon="11.160471858808268"><ele>53.0</ele><time>2026-05-01T08:05:08.999Z</time></trkpt><trkpt lat="44.5215234496461" lon="11.160799423741613"><ele>53.0</ele><time>2026-05-01T08:05:09.999Z</time></trkpt><trkpt lat="44.5214093084434" lon="11.161126455171638"><ele>53.0</ele><time>2026-05-01T08:05:10.999Z</time></trkpt><trkpt lat="44.52129867539448" lon="11.161452246524574"><ele>52.0</ele><time>2026-05-01T08:05:11.999Z</time></trkpt><trkpt lat="44.52118855581536" lon="11.161778316865847"><ele>51.0</ele><time>2026-05-01T08:05:12.999Z</time></trkpt><trkpt lat="44.52108222977532" lon="11.162095198784543"><ele>51.0</ele><time>2026-05-01T08:05:13.999Z</time></trkpt><trkpt lat="44.52097609215455" lon="11.162406213166426"><ele>51.0</ele><time>2026-05-01T08:05:14.999Z</time></trkpt><trkpt lat="44.520871691830536" lon="11.162712241672635"><ele>51.0</ele><time>2026-05-01T08:05:15.999Z</time></trkpt><trkpt lat="44.520768003150586" lon="11.163012193710054"><ele>51.0</ele><time>2026-05-01T08:05:16.999Z</time></trkpt><trkpt lat="44.520665877057944" lon="11.163311074330267"><ele>50.0</ele><time>2026-05-01T08:05:17.999Z</time></trkpt><trkpt lat="44.520565517665005" lon="11.163608221286772"><ele>49.0</ele><time>2026-05-01T08:05:18.999Z</time></trkpt><trkpt lat="44.52046560153412" lon="11.163902391410446"><ele>49.5</ele><time>2026-05-01T08:05:19.999Z</time></trkpt><trkpt lat="44.520366943152354" lon="11.164196184508949"><ele>50.0</ele><time>2026-05-01T08:05:20.999Z</time></trkpt><trkpt lat="44.5202694970887" lon="11.164487786994668"><ele>50.0</ele><time>2026-05-01T08:05:21.999Z</time></trkpt><trkpt lat="44.52017159885845" lon="11.164777044758262"><ele>50.0</ele><time>2026-05-01T08:05:22.999Z</time></trkpt><trkpt lat="44.520073265722765" lon="11.1650657503944"><ele>50.5</ele><time>2026-05-01T08:05:23.999Z</time></trkpt><trkpt lat="44.51997787290407" lon="11.165347868753626"><ele>51.0</ele><time>2026-05-01T08:05:24.999Z</time></trkpt><trkpt lat="44.51987655960653" lon="11.165641653352973"><ele>51.0</ele><time>2026-05-01T08:05:25.999Z</time></trkpt><trkpt lat="44.51978116411738" lon="11.165929984708301"><ele>51.0</ele><time>2026-05-01T08:05:26.999Z</time></trkpt><trkpt lat="44.519683241344005" lon="11.166226756180386"><ele>51.0</ele><time>2026-05-01T08:05:27.999Z</time></trkpt><trkpt lat="44.519583831289616" lon="11.166523821790813"><ele>51.0</ele><time>2026-05-01T08:05:28.999Z</time></trkpt><trkpt lat="44.51948338248929" lon="11.166827740583077"><ele>51.5</ele><time>2026-05-01T08:05:29.999Z</time></trkpt><trkpt lat="44.51938161442051" lon="11.16713729230144"><ele>52.0</ele><time>2026-05-01T08:05:30.999Z</time></trkpt><trkpt lat="44.51927810467582" lon="11.167451340668482"><ele>52.5</ele><time>2026-05-01T08:05:31.999Z</time></trkpt><trkpt lat="44.519171610910746" lon="11.16776643780167"><ele>53.0</ele><time>2026-05-01T08:05:32.999Z</time></trkpt><trkpt lat="44.51906310041942" lon="11.168081109505241"><ele>53.0</ele><time>2026-05-01T08:05:33.999Z</time></trkpt><trkpt lat="44.51895482920991" lon="11.168396910146283"><ele>53.0</ele><time>2026-05-01T08:05:34.999Z</time></trkpt><trkpt lat="44.5188488602847" lon="11.168708618168923"><ele>53.0</ele><time>2026-05-01T08:05:35.999Z</time></trkpt><trkpt lat="44.51875106380544" lon="11.169007569756863"><ele>53.0</ele><time>2026-05-01T08:05:36.999Z</time></trkpt><trkpt lat="44.518655110117656" lon="11.169290552425311"><ele>52.333333333333336</ele><time>2026-05-01T08:05:37.999Z</time></trkpt><trkpt lat="44.51856333902277" lon="11.169558947909714"><ele>51.66666666666667</ele><time>2026-05-01T08:05:38.999Z</time></trkpt><trkpt lat="44.51847494558546" lon="11.16982153137001"><ele>51.0</ele><time>2026-05-01T08:05:39.999Z</time></trkpt><trkpt lat="44.51836701421485" lon="11.170128553006617"><ele>51.0</ele><time>2026-05-01T08:05:40.999Z</time></trkpt><trkpt lat="44.518271501624696" lon="11.170411417749802"><ele>51.0</ele><time>2026-05-01T08:05:41.999Z</time></trkpt><trkpt lat="44.51817197410739" lon="11.170689590725265"><ele>51.0</ele><time>2026-05-01T08:05:42.999Z</time></trkpt><trkpt lat="44.51807158996525" lon="11.170988165258244"><ele>51.0</ele><time>2026-05-01T08:05:43.999Z</time></trkpt><trkpt lat="44.517975528611075" lon="11.171289093158322"><ele>51.0</ele><time>2026-05-01T08:05:44.999Z</time></trkpt><trkpt lat="44.517871833667705" lon="11.171587046651238"><ele>51.5</ele><time>2026-05-01T08:05:45.999Z</time></trkpt><trkpt lat="44.517762058612405" lon="11.171884993858583"><ele>52.0</ele><time>2026-05-01T08:05:46.999Z</time></trkpt><trkpt lat="44.51765795549461" lon="11.172184617229172"><ele>51.0</ele><time>2026-05-01T08:05:47.999Z</time></trkpt><trkpt lat="44.51755065223237" lon="11.172478120734198"><ele>50.0</ele><time>2026-05-01T08:05:48.999Z</time></trkpt><trkpt lat="44.517442810468516" lon="11.17276796248659"><ele>50.0</ele><time>2026-05-01T08:05:49.999Z</time></trkpt><trkpt lat="44.51733526077011" lon="11.173049521491851"><ele>50.0</ele><time>2026-05-01T08:05:50.999Z</time></trkpt><trkpt lat="44.51722343855167" lon="11.173352879504241"><ele>51.0</ele><time>2026-05-01T08:05:51.999Z</time></trkpt><trkpt lat="44.517117044606955" lon="11.173653380918795"><ele>52.0</ele><time>2026-05-01T08:05:52.999Z</time></trkpt><trkpt lat="44.517007649892925" lon="11.173942471804358"><ele>52.0</ele><time>2026-05-01T08:05:53.999Z</time></trkpt><trkpt lat="44.516900939987316" lon="11.174244262850976"><ele>52.0</ele><time>2026-05-01T08:05:54.999Z</time></trkpt><trkpt lat="44.51679093501077" lon="11.174543636220626"><ele>53.0</ele><time>2026-05-01T08:05:55.999Z</time></trkpt><trkpt lat="44.51668198657367" lon="11.174855322675997"><ele>54.0</ele><time>2026-05-01T08:05:56.999Z</time></trkpt><trkpt lat="44.51657381371166" lon="11.175169783705881"><ele>54.0</ele><time>2026-05-01T08:05:57.999Z</time></trkpt><trkpt lat="44.51645623191924" lon="11.175481516009013"><ele>54.0</ele><time>2026-05-01T08:05:58.999Z</time></trkpt><trkpt lat="44.51633953759092" lon="11.175791202103902"><ele>51.0</ele><time>2026-05-01T08:05:59.999Z</time></trkpt><trkpt lat="44.51622157998534" lon="11.176104064856816"><ele>48.0</ele><time>2026-05-01T08:06:00.999Z</time></trkpt><trkpt lat="44.51611586254247" lon="11.17640737430223"><ele>48.5</ele><time>2026-05-01T08:06:01.999Z</time></trkpt><trkpt lat="44.51601474562958" lon="11.176709948738473"><ele>49.0</ele><time>2026-05-01T08:06:02.999Z</time></trkpt><trkpt lat="44.51589991376477" lon="11.17702212603573"><ele>49.0</ele><time>2026-05-01T08:06:03.999Z</time></trkpt><trkpt lat="44.51578966380259" lon="11.177336545092631"><ele>49.0</ele><time>2026-05-01T08:06:04.999Z</time></trkpt><trkpt lat="44.515683533508096" lon="11.177651245258367"><ele>48.5</ele><time>2026-05-01T08:06:05.999Z</time></trkpt><trkpt lat="44.51557540193924" lon="11.177969052729518"><ele>48.0</ele><time>2026-05-01T08:06:07Z</time></trkpt><trkpt lat="44.51546599486175" lon="11.178278531194124"><ele>47.0</ele><time>2026-05-01T08:06:08Z</time></trkpt><trkpt lat="44.51535132662303" lon="11.178583547414801"><ele>46.0</ele><time>2026-05-01T08:06:09Z</time></trkpt><trkpt lat="44.51523906456606" lon="11.178893040303022"><ele>47.5</ele><time>2026-05-01T08:06:10Z</time></trkpt><trkpt lat="44.51512522397395" lon="11.179201226859684"><ele>49.0</ele><time>2026-05-01T08:06:11Z</time></trkpt><trkpt lat="44.51501230374953" lon="11.179513402578099"><ele>49.0</ele><time>2026-05-01T08:06:12Z</time></trkpt><trkpt lat="44.51490558975245" lon="11.179829337056344"><ele>49.0</ele><time>2026-05-01T08:06:13Z</time></trkpt><trkpt lat="44.514795326489825" lon="11.180144514136815"><ele>49.5</ele><time>2026-05-01T08:06:14Z</time></trkpt><trkpt lat="44.51468105907544" lon="11.180462818198656"><ele>50.0</ele><time>2026-05-01T08:06:15Z</time></trkpt><trkpt lat="44.514564865371625" lon="11.180783763273741"><ele>50.0</ele><time>2026-05-01T08:06:16Z</time></trkpt><trkpt lat="44.51445506807224" lon="11.181104406047309"><ele>50.0</ele><time>2026-05-01T08:06:17Z</time></trkpt><trkpt lat="44.51434972786665" lon="11.181416264458482"><ele>50.0</ele><time>2026-05-01T08:06:18Z</time></trkpt><trkpt lat="44.514245485333966" lon="11.181739080343274"><ele>50.0</ele><time>2026-05-01T08:06:19Z</time></trkpt><trkpt lat="44.51413306043193" lon="11.18206703111518"><ele>49.5</ele><time>2026-05-01T08:06:20Z</time></trkpt><trkpt lat="44.51401518233372" lon="11.182398661282498"><ele>49.0</ele><time>2026-05-01T08:06:21Z</time></trkpt><trkpt lat="44.51389456625499" lon="11.182736425684247"><ele>49.0</ele><time>2026-05-01T08:06:22Z</time></trkpt><trkpt lat="44.51377161936735" lon="11.18308048489511"><ele>49.0</ele><time>2026-05-01T08:06:23Z</time></trkpt><trkpt lat="44.513646295503506" lon="11.183432876857758"><ele>48.5</ele><time>2026-05-01T08:06:24Z</time></trkpt><trkpt lat="44.51351736376948" lon="11.183784329102966"><ele>48.0</ele><time>2026-05-01T08:06:25Z</time></trkpt><trkpt lat="44.513385475751676" lon="11.184142819582432"><ele>48.0</ele><time>2026-05-01T08:06:26Z</time></trkpt><trkpt lat="44.513250830324" lon="11.184499456808929"><ele>48.0</ele><time>2026-05-01T08:06:27Z</time></trkpt><trkpt lat="44.51311605818469" lon="11.184856096115446"><ele>49.0</ele><time>2026-05-01T08:06:28Z</time></trkpt><trkpt lat="44.51298136953584" lon="11.185212907853176"><ele>50.0</ele><time>2026-05-01T08:06:29Z</time></trkpt><trkpt lat="44.51284802968235" lon="11.185569663355906"><ele>49.5</ele><time>2026-05-01T08:06:30Z</time></trkpt><trkpt lat="44.51271656513918" lon="11.185927292924259"><ele>49.0</ele><time>2026-05-01T08:06:31Z</time></trkpt><trkpt lat="44.51258676334086" lon="11.186282340592127"><ele>50.5</ele><time>2026-05-01T08:06:32Z</time></trkpt><trkpt lat="44.51245671426589" lon="11.18663934028296"><ele>52.0</ele><time>2026-05-01T08:06:33Z</time></trkpt><trkpt lat="44.51232733975137" lon="11.186992793697366"><ele>52.5</ele><time>2026-05-01T08:06:34Z</time></trkpt><trkpt lat="44.512199799282094" lon="11.187346927193184"><ele>53.0</ele><time>2026-05-01T08:06:35Z</time></trkpt><trkpt lat="44.512070368533536" lon="11.187703501403805"><ele>53.0</ele><time>2026-05-01T08:06:36Z</time></trkpt><trkpt lat="44.51194015266528" lon="11.188058058286913"><ele>53.0</ele><time>2026-05-01T08:06:37Z</time></trkpt><trkpt lat="44.511810537038606" lon="11.188411623973895"><ele>53.0</ele><time>2026-05-01T08:06:38Z</time></trkpt><trkpt lat="44.511684405573725" lon="11.188765348347077"><ele>53.0</ele><time>2026-05-01T08:06:39Z</time></trkpt><trkpt lat="44.51155737749113" lon="11.189121995872974"><ele>53.0</ele><time>2026-05-01T08:06:40Z</time></trkpt><trkpt lat="44.511430778453956" lon="11.189476264721094"><ele>53.0</ele><time>2026-05-01T08:06:41Z</time></trkpt><trkpt lat="44.51130775471471" lon="11.189833996511325"><ele>53.0</ele><time>2026-05-01T08:06:42Z</time></trkpt><trkpt lat="44.511176946604806" lon="11.190190289196858"><ele>53.0</ele><time>2026-05-01T08:06:43Z</time></trkpt><trkpt lat="44.51104872629926" lon="11.190542724398819"><ele>53.0</ele><time>2026-05-01T08:06:44Z</time></trkpt><trkpt lat="44.51092109743962" lon="11.190895382003845"><ele>53.0</ele><time>2026-05-01T08:06:45Z</time></trkpt><trkpt lat="44.51079399096964" lon="11.19124826923024"><ele>52.5</ele><time>2026-05-01T08:06:46Z</time></trkpt><trkpt lat="44.51066865683435" lon="11.191600308174444"><ele>52.0</ele><time>2026-05-01T08:06:47Z</time></trkpt><trkpt lat="44.51054414134076" lon="11.191951538985577"><ele>52.0</ele><time>2026-05-01T08:06:48Z</time></trkpt><trkpt lat="44.51041938562345" lon="11.192301701069885"><ele>52.0</ele><time>2026-05-01T08:06:49Z</time></trkpt><trkpt lat="44.510295877415935" lon="11.19264991603799"><ele>54.5</ele><time>2026-05-01T08:06:50Z</time></trkpt><trkpt lat="44.51017343423129" lon="11.192995036350688"><ele>57.0</ele><time>2026-05-01T08:06:51Z</time></trkpt><trkpt lat="44.51004880657332" lon="11.193340214889384"><ele>57.0</ele><time>2026-05-01T08:06:51.999Z</time></trkpt><trkpt lat="44.509925663389865" lon="11.1936789185994"><ele>57.0</ele><time>2026-05-01T08:06:52.999Z</time></trkpt><trkpt lat="44.50980169948497" lon="11.194020916867697"><ele>56.0</ele><time>2026-05-01T08:06:53.999Z</time></trkpt><trkpt lat="44.509678881023476" lon="11.194364169983363"><ele>55.0</ele><time>2026-05-01T08:06:54.999Z</time></trkpt><trkpt lat="44.509555436825586" lon="11.194700760368814"><ele>54.5</ele><time>2026-05-01T08:06:55.999Z</time></trkpt><trkpt lat="44.509431014327156" lon="11.195043359517989"><ele>54.0</ele><time>2026-05-01T08:06:56.999Z</time></trkpt><trkpt lat="44.50930568627239" lon="11.195380688734357"><ele>53.5</ele><time>2026-05-01T08:06:57.999Z</time></trkpt><trkpt lat="44.50918234121707" lon="11.195723841754742"><ele>53.0</ele><time>2026-05-01T08:06:58.999Z</time></trkpt><trkpt lat="44.50905972389589" lon="11.196068909101704"><ele>53.0</ele><time>2026-05-01T08:06:59.999Z</time></trkpt><trkpt lat="44.508932076220546" lon="11.196416353613234"><ele>53.0</ele><time>2026-05-01T08:07:00.999Z</time></trkpt><trkpt lat="44.50880687013772" lon="11.19676742643886"><ele>54.5</ele><time>2026-05-01T08:07:01.999Z</time></trkpt><trkpt lat="44.50868051984095" lon="11.197121314793717"><ele>56.0</ele><time>2026-05-01T08:07:02.999Z</time></trkpt><trkpt lat="44.50855136181679" lon="11.197479339010554"><ele>56.5</ele><time>2026-05-01T08:07:03.999Z</time></trkpt><trkpt lat="44.50842445435188" lon="11.197838849630575"><ele>57.0</ele><time>2026-05-01T08:07:04.999Z</time></trkpt><trkpt lat="44.50829567746317" lon="11.19820152985085"><ele>57.0</ele><time>2026-05-01T08:07:05.999Z</time></trkpt><trkpt lat="44.508164449994986" lon="11.198560238620729"><ele>57.0</ele><time>2026-05-01T08:07:06.999Z</time></trkpt><trkpt lat="44.50803626354503" lon="11.198924808831562"><ele>57.0</ele><time>2026-05-01T08:07:07.999Z</time></trkpt><trkpt lat="44.50790740239975" lon="11.199289414922275"><ele>57.0</ele><time>2026-05-01T08:07:08.999Z</time></trkpt><trkpt lat="44.50777647513935" lon="11.19964714971664"><ele>56.5</ele><time>2026-05-01T08:07:09.999Z</time></trkpt><trkpt lat="44.50764458795902" lon="11.200007573858018"><ele>56.0</ele><time>2026-05-01T08:07:10.999Z</time></trkpt><trkpt lat="44.507514684249756" lon="11.200369187761156"><ele>56.5</ele><time>2026-05-01T08:07:11.999Z</time></trkpt><trkpt lat="44.50738669056282" lon="11.20072830408722"><ele>57.0</ele><time>2026-05-01T08:07:12.999Z</time></trkpt><trkpt lat="44.50725870593195" lon="11.20109041757919"><ele>57.0</ele><time>2026-05-01T08:07:13.999Z</time></trkpt><trkpt lat="44.507131550459135" lon="11.20144470241788"><ele>57.0</ele><time>2026-05-01T08:07:14.999Z</time></trkpt><trkpt lat="44.50700278359187" lon="11.201798365219627"><ele>57.0</ele><time>2026-05-01T08:07:15.999Z</time></trkpt><trkpt lat="44.50687419488256" lon="11.20215486644136"><ele>57.0</ele><time>2026-05-01T08:07:16.999Z</time></trkpt><trkpt lat="44.50674691400157" lon="11.202507078436033"><ele>57.0</ele><time>2026-05-01T08:07:17.999Z</time></trkpt><trkpt lat="44.50662033919371" lon="11.202864536741009"><ele>57.0</ele><time>2026-05-01T08:07:18.999Z</time></trkpt><trkpt lat="44.50649445106183" lon="11.203216246082215"><ele>56.5</ele><time>2026-05-01T08:07:19.999Z</time></trkpt><trkpt lat="44.50636521069354" lon="11.203571641200869"><ele>56.0</ele><time>2026-05-01T08:07:20.999Z</time></trkpt><trkpt lat="44.50623543490687" lon="11.20392418313792"><ele>56.0</ele><time>2026-05-01T08:07:21.999Z</time></trkpt><trkpt lat="44.50610885286934" lon="11.20427804247828"><ele>56.0</ele><time>2026-05-01T08:07:22.999Z</time></trkpt><trkpt lat="44.50598279960313" lon="11.204637786727258"><ele>55.5</ele><time>2026-05-01T08:07:23.999Z</time></trkpt><trkpt lat="44.505856271531385" lon="11.204991717914686"><ele>55.0</ele><time>2026-05-01T08:07:24.999Z</time></trkpt><trkpt lat="44.50572804197864" lon="11.20534710560698"><ele>55.0</ele><time>2026-05-01T08:07:25.999Z</time></trkpt><trkpt lat="44.505599722133255" lon="11.205703074073734"><ele>55.0</ele><time>2026-05-01T08:07:26.999Z</time></trkpt><trkpt lat="44.50547264732891" lon="11.206056517909785"><ele>55.5</ele><time>2026-05-01T08:07:27.999Z</time></trkpt><trkpt lat="44.50534283362073" lon="11.206416441510786"><ele>56.0</ele><time>2026-05-01T08:07:28.999Z</time></trkpt><trkpt lat="44.50521482304674" lon="11.206769758031658"><ele>56.0</ele><time>2026-05-01T08:07:29.999Z</time></trkpt><trkpt lat="44.50508671254744" lon="11.207122740107005"><ele>56.0</ele><time>2026-05-01T08:07:30.999Z</time></trkpt><trkpt lat="44.50495788888142" lon="11.20747936929135"><ele>57.0</ele><time>2026-05-01T08:07:31.999Z</time></trkpt><trkpt lat="44.50483143524557" lon="11.207831247321113"><ele>58.0</ele><time>2026-05-01T08:07:32.999Z</time></trkpt><trkpt lat="44.50470386438572" lon="11.208188835771272"><ele>58.0</ele><time>2026-05-01T08:07:33.999Z</time></trkpt><trkpt lat="44.50457744170205" lon="11.2085392882231"><ele>58.0</ele><time>2026-05-01T08:07:34.999Z</time></trkpt><trkpt lat="44.50445231503153" lon="11.208888374884072"><ele>58.0</ele><time>2026-05-01T08:07:35.999Z</time></trkpt><trkpt lat="44.504327684940804" lon="11.209238800270516"><ele>58.0</ele><time>2026-05-01T08:07:36.999Z</time></trkpt><trkpt lat="44.50420413718024" lon="11.209584047908526"><ele>58.0</ele><time>2026-05-01T08:07:37.999Z</time></trkpt><trkpt lat="44.50408096080292" lon="11.209926706910416"><ele>58.0</ele><time>2026-05-01T08:07:38.999Z</time></trkpt><trkpt lat="44.50395556421452" lon="11.210266601272917"><ele>58.0</ele><time>2026-05-01T08:07:39.999Z</time></trkpt><trkpt lat="44.50383214276843" lon="11.210602760189591"><ele>58.0</ele><time>2026-05-01T08:07:40.999Z</time></trkpt><trkpt lat="44.5037110547326" lon="11.210939996562415"><ele>58.0</ele><time>2026-05-01T08:07:41.999Z</time></trkpt><trkpt lat="44.503590101705974" lon="11.21127618748584"><ele>58.0</ele><time>2026-05-01T08:07:42.999Z</time></trkpt><trkpt lat="44.503471205621494" lon="11.21160695156689"><ele>58.5</ele><time>2026-05-01T08:07:43.999Z</time></trkpt><trkpt lat="44.5033547710645" lon="11.211938796413593"><ele>59.0</ele><time>2026-05-01T08:07:44.999Z</time></trkpt><trkpt lat="44.50323615696426" lon="11.212269281099571"><ele>59.5</ele><time>2026-05-01T08:07:45.999Z</time></trkpt><trkpt lat="44.503120636890664" lon="11.212601268995243"><ele>60.0</ele><time>2026-05-01T08:07:46.999Z</time></trkpt><trkpt lat="44.50299998714186" lon="11.212934547733555"><ele>60.5</ele><time>2026-05-01T08:07:47.999Z</time></trkpt><trkpt lat="44.50288220997429" lon="11.213264213423992"><ele>61.0</ele><time>2026-05-01T08:07:48.999Z</time></trkpt><trkpt lat="44.50276100568665" lon="11.213601228973724"><ele>61.0</ele><time>2026-05-01T08:07:49.999Z</time></trkpt><trkpt lat="44.5026432864509" lon="11.213936062753504"><ele>61.0</ele><time>2026-05-01T08:07:50.999Z</time></trkpt><trkpt lat="44.50252762934055" lon="11.214275260593006"><ele>60.5</ele><time>2026-05-01T08:07:51.999Z</time></trkpt><trkpt lat="44.5024140120891" lon="11.214617068851759"><ele>60.0</ele><time>2026-05-01T08:07:52.999Z</time></trkpt><trkpt lat="44.50229615861259" lon="11.214953295132009"><ele>59.5</ele><time>2026-05-01T08:07:53.999Z</time></trkpt><trkpt lat="44.50217696480426" lon="11.215288914461533"><ele>59.0</ele><time>2026-05-01T08:07:54.999Z</time></trkpt><trkpt lat="44.502057920225965" lon="11.215625344448148"><ele>60.5</ele><time>2026-05-01T08:07:55.999Z</time></trkpt><trkpt lat="44.50193701166887" lon="11.215957764399354"><ele>62.0</ele><time>2026-05-01T08:07:56.999Z</time></trkpt><trkpt lat="44.501813861521846" lon="11.216289675597114"><ele>61.5</ele><time>2026-05-01T08:07:57.999Z</time></trkpt><trkpt lat="44.50169502411983" lon="11.216617577275567"><ele>61.0</ele><time>2026-05-01T08:07:58.999Z</time></trkpt><trkpt lat="44.50157694945642" lon="11.216947501094173"><ele>61.0</ele><time>2026-05-01T08:07:59.999Z</time></trkpt><trkpt lat="44.5014596310851" lon="11.217274733899739"><ele>61.0</ele><time>2026-05-01T08:08:00.999Z</time></trkpt><trkpt lat="44.501342047397735" lon="11.217600986018418"><ele>62.0</ele><time>2026-05-01T08:08:01.999Z</time></trkpt><trkpt lat="44.50122427704846" lon="11.217927930445708"><ele>63.0</ele><time>2026-05-01T08:08:02.999Z</time></trkpt><trkpt lat="44.501105424932724" lon="11.218255867170592"><ele>63.0</ele><time>2026-05-01T08:08:03.999Z</time></trkpt><trkpt lat="44.50098530038842" lon="11.218578743562196"><ele>63.0</ele><time>2026-05-01T08:08:04.999Z</time></trkpt><trkpt lat="44.50086650384705" lon="11.218901270543185"><ele>63.5</ele><time>2026-05-01T08:08:05.999Z</time></trkpt><trkpt lat="44.5007511101561" lon="11.219231936295193"><ele>64.0</ele><time>2026-05-01T08:08:06.999Z</time></trkpt><trkpt lat="44.50063572524488" lon="11.219564191406427"><ele>63.5</ele><time>2026-05-01T08:08:07.999Z</time></trkpt><trkpt lat="44.50051954047981" lon="11.219894969519855"><ele>63.0</ele><time>2026-05-01T08:08:08.999Z</time></trkpt><trkpt lat="44.50040100750305" lon="11.220224955320093"><ele>63.0</ele><time>2026-05-01T08:08:09.999Z</time></trkpt><trkpt lat="44.500281531536636" lon="11.220555986302696"><ele>63.0</ele><time>2026-05-01T08:08:10.999Z</time></trkpt><trkpt lat="44.50016132188381" lon="11.220894450638731"><ele>63.0</ele><time>2026-05-01T08:08:11.999Z</time></trkpt><trkpt lat="44.500041281734404" lon="11.221228789050086"><ele>63.0</ele><time>2026-05-01T08:08:13Z</time></trkpt><trkpt lat="44.499917533008926" lon="11.22155749871454"><ele>62.0</ele><time>2026-05-01T08:08:14Z</time></trkpt><trkpt lat="44.49979595242868" lon="11.22189528847419"><ele>61.0</ele><time>2026-05-01T08:08:15Z</time></trkpt><trkpt lat="44.49967309561071" lon="11.222237043290354"><ele>63.0</ele><time>2026-05-01T08:08:16Z</time></trkpt><trkpt lat="44.49955076125439" lon="11.222579005030616"><ele>65.0</ele><time>2026-05-01T08:08:17Z</time></trkpt><trkpt lat="44.49942686311173" lon="11.22292152912387"><ele>65.5</ele><time>2026-05-01T08:08:18Z</time></trkpt><trkpt lat="44.49930196551444" lon="11.223262534793495"><ele>66.0</ele><time>2026-05-01T08:08:19Z</time></trkpt><trkpt lat="44.49917755456208" lon="11.223606372082857"><ele>66.0</ele><time>2026-05-01T08:08:20Z</time></trkpt><trkpt lat="44.49905433850813" lon="11.22394927687109"><ele>66.0</ele><time>2026-05-01T08:08:21Z</time></trkpt><trkpt lat="44.498930688049136" lon="11.224290075832723"><ele>65.5</ele><time>2026-05-01T08:08:22Z</time></trkpt><trkpt lat="44.49880623497723" lon="11.224626422046663"><ele>65.0</ele><time>2026-05-01T08:08:23Z</time></trkpt><trkpt lat="44.49868255196295" lon="11.224966194655696"><ele>64.5</ele><time>2026-05-01T08:08:24Z</time></trkpt><trkpt lat="44.49855700754517" lon="11.225308993308053"><ele>64.0</ele><time>2026-05-01T08:08:25Z</time></trkpt><trkpt lat="44.49843312106425" lon="11.225651314305209"><ele>64.0</ele><time>2026-05-01T08:08:26Z</time></trkpt><trkpt lat="44.49830924397905" lon="11.225996601675664"><ele>64.0</ele><time>2026-05-01T08:08:27Z</time></trkpt><trkpt lat="44.49818413715792" lon="11.22634238600869"><ele>64.5</ele><time>2026-05-01T08:08:28Z</time></trkpt><trkpt lat="44.498058142415324" lon="11.226690105602058"><ele>65.0</ele><time>2026-05-01T08:08:29Z</time></trkpt><trkpt lat="44.49793159287914" lon="11.227039016562877"><ele>65.5</ele><time>2026-05-01T08:08:30Z</time></trkpt><trkpt lat="44.49780460996989" lon="11.227389420079387"><ele>66.0</ele><time>2026-05-01T08:08:31Z</time></trkpt><trkpt lat="44.49767552235347" lon="11.22774188409205"><ele>66.0</ele><time>2026-05-01T08:08:32Z</time></trkpt><trkpt lat="44.497545031946075" lon="11.228091128304083"><ele>66.0</ele><time>2026-05-01T08:08:33Z</time></trkpt><trkpt lat="44.49741136520366" lon="11.228438473961747"><ele>65.5</ele><time>2026-05-01T08:08:34Z</time></trkpt><trkpt lat="44.4972791411362" lon="11.228786144532375"><ele>65.0</ele><time>2026-05-01T08:08:35Z</time></trkpt><trkpt lat="44.497149144100995" lon="11.229134201818168"><ele>67.0</ele><time>2026-05-01T08:08:36Z</time></trkpt><trkpt lat="44.49702014309187" lon="11.22948377723452"><ele>69.0</ele><time>2026-05-01T08:08:37Z</time></trkpt><trkpt lat="44.49689174137965" lon="11.229832878681325"><ele>69.0</ele><time>2026-05-01T08:08:38Z</time></trkpt><trkpt lat="44.4967642517403" lon="11.230182759324775"><ele>69.0</ele><time>2026-05-01T08:08:39Z</time></trkpt><trkpt lat="44.49663992395545" lon="11.23052538666559"><ele>69.5</ele><time>2026-05-01T08:08:40Z</time></trkpt><trkpt lat="44.49651885191234" lon="11.230864307665586"><ele>70.0</ele><time>2026-05-01T08:08:41Z</time></trkpt><trkpt lat="44.49639768968205" lon="11.231197031809598"><ele>69.5</ele><time>2026-05-01T08:08:42Z</time></trkpt><trkpt lat="44.4962765982017" lon="11.231529197558865"><ele>69.0</ele><time>2026-05-01T08:08:43Z</time></trkpt><trkpt lat="44.496157139619584" lon="11.23186161782713"><ele>68.0</ele><time>2026-05-01T08:08:44Z</time></trkpt><trkpt lat="44.49603649052573" lon="11.232193624793718"><ele>67.0</ele><time>2026-05-01T08:08:45Z</time></trkpt><trkpt lat="44.49591489415012" lon="11.232524511732715"><ele>67.0</ele><time>2026-05-01T08:08:46Z</time></trkpt><trkpt lat="44.495793373722925" lon="11.232859125818115"><ele>67.0</ele><time>2026-05-01T08:08:47Z</time></trkpt><trkpt lat="44.49567083944294" lon="11.23319589496528"><ele>67.0</ele><time>2026-05-01T08:08:48Z</time></trkpt><trkpt lat="44.49554669617069" lon="11.233531504894696"><ele>67.0</ele><time>2026-05-01T08:08:49Z</time></trkpt><trkpt lat="44.49541985830016" lon="11.23386829594144"><ele>68.0</ele><time>2026-05-01T08:08:50Z</time></trkpt><trkpt lat="44.49529562721126" lon="11.234211372321155"><ele>69.0</ele><time>2026-05-01T08:08:51Z</time></trkpt><trkpt lat="44.49517205787897" lon="11.234555676507323"><ele>69.0</ele><time>2026-05-01T08:08:52Z</time></trkpt><trkpt lat="44.49504836011567" lon="11.234904313942776"><ele>69.0</ele><time>2026-05-01T08:08:53Z</time></trkpt><trkpt lat="44.4949245615296" lon="11.235251455726788"><ele>69.0</ele><time>2026-05-01T08:08:54Z</time></trkpt><trkpt lat="44.494800457585164" lon="11.235599823423351"><ele>69.0</ele><time>2026-05-01T08:08:54.999Z</time></trkpt><trkpt lat="44.494676131693716" lon="11.235942727988553"><ele>69.0</ele><time>2026-05-01T08:08:55.999Z</time></trkpt><trkpt lat="44.494554551757076" lon="11.236276513252726"><ele>69.0</ele><time>2026-05-01T08:08:56.999Z</time></trkpt><trkpt lat="44.49443658062059" lon="11.236603298930524"><ele>68.0</ele><time>2026-05-01T08:08:57.999Z</time></trkpt><trkpt lat="44.49431960548244" lon="11.236924663948356"><ele>67.0</ele><time>2026-05-01T08:08:58.999Z</time></trkpt><trkpt lat="44.49420464001287" lon="11.237244176002603"><ele>68.5</ele><time>2026-05-01T08:08:59.999Z</time></trkpt><trkpt lat="44.49408999149011" lon="11.23755949663889"><ele>70.0</ele><time>2026-05-01T08:09:00.999Z</time></trkpt><trkpt lat="44.493975083377215" lon="11.237877137187576"><ele>70.5</ele><time>2026-05-01T08:09:01.999Z</time></trkpt><trkpt lat="44.4938615017101" lon="11.238197820809422"><ele>71.0</ele><time>2026-05-01T08:09:02.999Z</time></trkpt><trkpt lat="44.493752149444276" lon="11.2385109420706"><ele>71.0</ele><time>2026-05-01T08:09:03.999Z</time></trkpt><trkpt lat="44.49364301151157" lon="11.238835910405438"><ele>71.0</ele><time>2026-05-01T08:09:04.999Z</time></trkpt><trkpt lat="44.49353092564487" lon="11.239172534832388"><ele>70.0</ele><time>2026-05-01T08:09:05.999Z</time></trkpt><trkpt lat="44.49341546370746" lon="11.239509112547465"><ele>69.0</ele><time>2026-05-01T08:09:06.999Z</time></trkpt><trkpt lat="44.49329325865375" lon="11.239843542077383"><ele>68.5</ele><time>2026-05-01T08:09:07.999Z</time></trkpt><trkpt lat="44.493170105072295" lon="11.240178820831645"><ele>68.0</ele><time>2026-05-01T08:09:08.999Z</time></trkpt><trkpt lat="44.49304631832462" lon="11.240518707839428"><ele>67.5</ele><time>2026-05-01T08:09:09.999Z</time></trkpt><trkpt lat="44.492921262024716" lon="11.240863712382565"><ele>67.0</ele><time>2026-05-01T08:09:10.999Z</time></trkpt><trkpt lat="44.49279403146038" lon="11.241212045279834"><ele>67.0</ele><time>2026-05-01T08:09:11.999Z</time></trkpt><trkpt lat="44.492667069563375" lon="11.241562417290025"><ele>67.0</ele><time>2026-05-01T08:09:12.999Z</time></trkpt><trkpt lat="44.4925401351031" lon="11.241915892306954"><ele>67.0</ele><time>2026-05-01T08:09:13.999Z</time></trkpt><trkpt lat="44.49241458386077" lon="11.242270276329329"><ele>67.0</ele><time>2026-05-01T08:09:14.999Z</time></trkpt><trkpt lat="44.4922908896808" lon="11.242626872505046"><ele>67.0</ele><time>2026-05-01T08:09:15.999Z</time></trkpt><trkpt lat="44.49216751828769" lon="11.242981311824837"><ele>67.0</ele><time>2026-05-01T08:09:16.999Z</time></trkpt><trkpt lat="44.49203841024088" lon="11.24333236454893"><ele>66.0</ele><time>2026-05-01T08:09:17.999Z</time></trkpt><trkpt lat="44.491906980337056" lon="11.24368059151142"><ele>65.0</ele><time>2026-05-01T08:09:18.999Z</time></trkpt><trkpt lat="44.491776049821915" lon="11.244028353798411"><ele>64.0</ele><time>2026-05-01T08:09:19.999Z</time></trkpt><trkpt lat="44.49164862198402" lon="11.244380711959097"><ele>63.0</ele><time>2026-05-01T08:09:20.999Z</time></trkpt><trkpt lat="44.49152684816831" lon="11.244738858179462"><ele>64.0</ele><time>2026-05-01T08:09:21.999Z</time></trkpt><trkpt lat="44.4914040856541" lon="11.24509641286936"><ele>65.0</ele><time>2026-05-01T08:09:22.999Z</time></trkpt><trkpt lat="44.491275104969056" lon="11.245447968572288"><ele>66.0</ele><time>2026-05-01T08:09:23.999Z</time></trkpt><trkpt lat="44.491141423223915" lon="11.245798674895303"><ele>67.0</ele><time>2026-05-01T08:09:24.999Z</time></trkpt><trkpt lat="44.49101544308421" lon="11.246152769583526"><ele>66.0</ele><time>2026-05-01T08:09:25.999Z</time></trkpt><trkpt lat="44.490891401346666" lon="11.246507425129655"><ele>65.0</ele><time>2026-05-01T08:09:26.999Z</time></trkpt><trkpt lat="44.490767423928894" lon="11.246854913733062"><ele>65.0</ele><time>2026-05-01T08:09:27.999Z</time></trkpt><trkpt lat="44.49063814603745" lon="11.247198013108296"><ele>65.0</ele><time>2026-05-01T08:09:28.999Z</time></trkpt><trkpt lat="44.49051078675291" lon="11.247545808172623"><ele>66.0</ele><time>2026-05-01T08:09:29.999Z</time></trkpt><trkpt lat="44.49038549408924" lon="11.247895176977472"><ele>67.0</ele><time>2026-05-01T08:09:30.999Z</time></trkpt><trkpt lat="44.49026133304497" lon="11.248246007247946"><ele>67.0</ele><time>2026-05-01T08:09:31.999Z</time></trkpt><trkpt lat="44.49013777671697" lon="11.248598628107885"><ele>67.0</ele><time>2026-05-01T08:09:32.999Z</time></trkpt><trkpt lat="44.490011637006724" lon="11.248949356071554"><ele>66.5</ele><time>2026-05-01T08:09:33.999Z</time></trkpt><trkpt lat="44.48988033662654" lon="11.24929480553284"><ele>66.0</ele><time>2026-05-01T08:09:34.999Z</time></trkpt><trkpt lat="44.4897456919115" lon="11.24963690476201"><ele>66.0</ele><time>2026-05-01T08:09:35.999Z</time></trkpt><trkpt lat="44.48961180810201" lon="11.24998107373388"><ele>66.0</ele><time>2026-05-01T08:09:36.999Z</time></trkpt><trkpt lat="44.48948135901241" lon="11.250325085032731"><ele>66.5</ele><time>2026-05-01T08:09:37.999Z</time></trkpt><trkpt lat="44.489351346666375" lon="11.250669933144898"><ele>67.0</ele><time>2026-05-01T08:09:38.999Z</time></trkpt><trkpt lat="44.489220228023676" lon="11.25100997990226"><ele>67.0</ele><time>2026-05-01T08:09:39.999Z</time></trkpt><trkpt lat="44.48908555214351" lon="11.25134731865471"><ele>67.0</ele><time>2026-05-01T08:09:40.999Z</time></trkpt><trkpt lat="44.4889462555766" lon="11.25168292009826"><ele>67.5</ele><time>2026-05-01T08:09:41.999Z</time></trkpt><trkpt lat="44.48880321333895" lon="11.252012965860713"><ele>68.0</ele><time>2026-05-01T08:09:42.999Z</time></trkpt><trkpt lat="44.48865806087421" lon="11.252343260956556"><ele>68.0</ele><time>2026-05-01T08:09:43.999Z</time></trkpt><trkpt lat="44.48851011552903" lon="11.252671676552898"><ele>68.0</ele><time>2026-05-01T08:09:44.999Z</time></trkpt><trkpt lat="44.48835775762081" lon="11.253002002738516"><ele>66.5</ele><time>2026-05-01T08:09:45.999Z</time></trkpt><trkpt lat="44.48820173391819" lon="11.253323201398187"><ele>65.0</ele><time>2026-05-01T08:09:46.999Z</time></trkpt><trkpt lat="44.488042558239734" lon="11.25364663212358"><ele>65.5</ele><time>2026-05-01T08:09:47.999Z</time></trkpt><trkpt lat="44.48788032665526" lon="11.25396865259359"><ele>66.0</ele><time>2026-05-01T08:09:48.999Z</time></trkpt><trkpt lat="44.487712074090744" lon="11.25428901118617"><ele>66.0</ele><time>2026-05-01T08:09:49.999Z</time></trkpt><trkpt lat="44.48754145447292" lon="11.254605267528195"><ele>66.0</ele><time>2026-05-01T08:09:50.999Z</time></trkpt><trkpt lat="44.48736730392181" lon="11.254919717767315"><ele>65.5</ele><time>2026-05-01T08:09:51.999Z</time></trkpt><trkpt lat="44.48719170753641" lon="11.25523496011453"><ele>65.0</ele><time>2026-05-01T08:09:52.999Z</time></trkpt><trkpt lat="44.487008940782616" lon="11.255542600106201"><ele>65.5</ele><time>2026-05-01T08:09:53.999Z</time></trkpt><trkpt lat="44.486823563818156" lon="11.255844127421348"><ele>66.0</ele><time>2026-05-01T08:09:54.999Z</time></trkpt><trkpt lat="44.486634317207496" lon="11.256146969407416"><ele>66.0</ele><time>2026-05-01T08:09:55.999Z</time></trkpt><trkpt lat="44.48643970663564" lon="11.256443874720032"><ele>66.0</ele><time>2026-05-01T08:09:56.999Z</time></trkpt><trkpt lat="44.48624257532801" lon="11.256735901744058"><ele>66.5</ele><time>2026-05-01T08:09:57.999Z</time></trkpt><trkpt lat="44.48604422685992" lon="11.257021746616761"><ele>67.0</ele><time>2026-05-01T08:09:58.999Z</time></trkpt><trkpt lat="44.48584472018642" lon="11.257304253474462"><ele>66.0</ele><time>2026-05-01T08:09:59.999Z</time></trkpt><trkpt lat="44.485643804729584" lon="11.257581886391572"><ele>65.0</ele><time>2026-05-01T08:10:00.999Z</time></trkpt><trkpt lat="44.48544034095441" lon="11.257854129905542"><ele>65.0</ele><time>2026-05-01T08:10:01.999Z</time></trkpt><trkpt lat="44.48523667293466" lon="11.25811976310623"><ele>65.0</ele><time>2026-05-01T08:10:02.999Z</time></trkpt><trkpt lat="44.485033227129875" lon="11.258379047543958"><ele>65.0</ele><time>2026-05-01T08:10:03.999Z</time></trkpt><trkpt lat="44.48483055206197" lon="11.25862876311718"><ele>65.0</ele><time>2026-05-01T08:10:04.999Z</time></trkpt><trkpt lat="44.48462947431151" lon="11.258870919925394"><ele>67.5</ele><time>2026-05-01T08:10:05.999Z</time></trkpt><trkpt lat="44.48442943158934" lon="11.25910789711834"><ele>70.0</ele><time>2026-05-01T08:10:06.999Z</time></trkpt><trkpt lat="44.484226983697326" lon="11.259338245444381"><ele>70.0</ele><time>2026-05-01T08:10:07.999Z</time></trkpt><trkpt lat="44.48402443288395" lon="11.259563119713048"><ele>70.0</ele><time>2026-05-01T08:10:08.999Z</time></trkpt><trkpt lat="44.48381810166695" lon="11.259781542110558"><ele>69.5</ele><time>2026-05-01T08:10:09.999Z</time></trkpt><trkpt lat="44.483609996770376" lon="11.259989474490531"><ele>69.0</ele><time>2026-05-01T08:10:10.999Z</time></trkpt><trkpt lat="44.4834037266757" lon="11.260192634992856"><ele>69.0</ele><time>2026-05-01T08:10:11.999Z</time></trkpt><trkpt lat="44.48319974094658" lon="11.260389365991552"><ele>69.0</ele><time>2026-05-01T08:10:12.999Z</time></trkpt><trkpt lat="44.482995298691534" lon="11.2605826643122"><ele>72.0</ele><time>2026-05-01T08:10:13.999Z</time></trkpt><trkpt lat="44.48279350394598" lon="11.260768273262626"><ele>75.0</ele><time>2026-05-01T08:10:14.999Z</time></trkpt><trkpt lat="44.48259355872305" lon="11.260948622344978"><ele>75.0</ele><time>2026-05-01T08:10:15.999Z</time></trkpt><trkpt lat="44.48239553453029" lon="11.26112680524778"><ele>75.0</ele><time>2026-05-01T08:10:16.999Z</time></trkpt><trkpt lat="44.48219738278515" lon="11.26130524334232"><ele>77.0</ele><time>2026-05-01T08:10:17.999Z</time></trkpt><trkpt lat="44.48200190560964" lon="11.261482547148928"><ele>79.0</ele><time>2026-05-01T08:10:19Z</time></trkpt><trkpt lat="44.48180854951856" lon="11.26165740613233"><ele>79.0</ele><time>2026-05-01T08:10:20Z</time></trkpt><trkpt lat="44.48161240063682" lon="11.26182809235529"><ele>79.0</ele><time>2026-05-01T08:10:21Z</time></trkpt><trkpt lat="44.481398618634444" lon="11.261945749675007"><ele>79.0</ele><time>2026-05-01T08:10:22Z</time></trkpt><trkpt lat="44.48120218126405" lon="11.262113931530704"><ele>79.0</ele><time>2026-05-01T08:10:23Z</time></trkpt><trkpt lat="44.48100407050427" lon="11.262285383262862"><ele>79.0</ele><time>2026-05-01T08:10:24Z</time></trkpt><trkpt lat="44.48081460266279" lon="11.262470259075444"><ele>79.0</ele><time>2026-05-01T08:10:25Z</time></trkpt><trkpt lat="44.48064090979311" lon="11.262641288637235"><ele>79.0</ele><time>2026-05-01T08:10:26Z</time></trkpt><trkpt lat="44.4802559490658" lon="11.263116903888415"><ele>79.33333333333333</ele><time>2026-05-01T08:10:28Z</time></trkpt><trkpt lat="44.48005507398527" lon="11.263272260961534"><ele>79.66666666666667</ele><time>2026-05-01T08:10:29Z</time></trkpt><trkpt lat="44.4798867529783" lon="11.263388269453342"><ele>80.0</ele><time>2026-05-01T08:10:30Z</time></trkpt><trkpt lat="44.47975640570638" lon="11.26350243745991"><ele>80.0</ele><time>2026-05-01T08:10:31Z</time></trkpt><trkpt lat="44.47958957755919" lon="11.263666561399324"><ele>80.0</ele><time>2026-05-01T08:10:32Z</time></trkpt><trkpt lat="44.479437066618786" lon="11.263844302382465"><ele>80.0</ele><time>2026-05-01T08:10:33Z</time></trkpt><trkpt lat="44.479266598227966" lon="11.263977385137483"><ele>80.0</ele><time>2026-05-01T08:10:34Z</time></trkpt><trkpt lat="44.479107698631495" lon="11.264124250219954"><ele>80.0</ele><time>2026-05-01T08:10:35Z</time></trkpt><trkpt lat="44.478947572675075" lon="11.26427907872757"><ele>80.0</ele><time>2026-05-01T08:10:36Z</time></trkpt><trkpt lat="44.47879395520475" lon="11.264424493395726"><ele>80.66666666666667</ele><time>2026-05-01T08:10:37Z</time></trkpt><trkpt lat="44.478644034923974" lon="11.264569827142815"><ele>81.33333333333333</ele><time>2026-05-01T08:10:38Z</time></trkpt><trkpt lat="44.4784856120916" lon="11.264707250796125"><ele>82.0</ele><time>2026-05-01T08:10:39Z</time></trkpt><trkpt lat="44.47834064966609" lon="11.264835031888765"><ele>82.0</ele><time>2026-05-01T08:10:40Z</time></trkpt><trkpt lat="44.478187099060506" lon="11.264967462300016"><ele>82.0</ele><time>2026-05-01T08:10:41Z</time></trkpt><trkpt lat="44.478039398097756" lon="11.265113855567575"><ele>82.0</ele><time>2026-05-01T08:10:42Z</time></trkpt><trkpt lat="44.477879484809044" lon="11.265252291893306"><ele>82.0</ele><time>2026-05-01T08:10:43Z</time></trkpt><trkpt lat="44.477687007926285" lon="11.265409792597584"><ele>82.0</ele><time>2026-05-01T08:10:44Z</time></trkpt><trkpt lat="44.47752232112416" lon="11.265549355364382"><ele>82.0</ele><time>2026-05-01T08:10:45Z</time></trkpt><trkpt lat="44.47736034712403" lon="11.265699636062159"><ele>82.0</ele><time>2026-05-01T08:10:46Z</time></trkpt><trkpt lat="44.477203734258865" lon="11.26584563641185"><ele>82.0</ele><time>2026-05-01T08:10:47Z</time></trkpt><trkpt lat="44.47704147113205" lon="11.265999830235941"><ele>82.0</ele><time>2026-05-01T08:10:48Z</time></trkpt><trkpt lat="44.47688161377474" lon="11.266151476083294"><ele>82.66666666666666</ele><time>2026-05-01T08:10:49Z</time></trkpt><trkpt lat="44.476719347422524" lon="11.266306418408316"><ele>83.33333333333333</ele><time>2026-05-01T08:10:50Z</time></trkpt><trkpt lat="44.47655512153834" lon="11.266462393340506"><ele>84.0</ele><time>2026-05-01T08:10:51Z</time></trkpt><trkpt lat="44.47639222239757" lon="11.266617987486251"><ele>88.33333333333334</ele><time>2026-05-01T08:10:52Z</time></trkpt><trkpt lat="44.47622968112658" lon="11.26677350561823"><ele>92.66666666666667</ele><time>2026-05-01T08:10:53Z</time></trkpt><trkpt lat="44.47607103510306" lon="11.266927850846553"><ele>97.0</ele><time>2026-05-01T08:10:54Z</time></trkpt><trkpt lat="44.47592388749471" lon="11.267067836070536"><ele>97.0</ele><time>2026-05-01T08:10:55Z</time></trkpt><trkpt lat="44.475769327200815" lon="11.267218550160853"><ele>97.0</ele><time>2026-05-01T08:10:56Z</time></trkpt><trkpt lat="44.47561630085152" lon="11.267369512407855"><ele>97.0</ele><time>2026-05-01T08:10:57Z</time></trkpt><trkpt lat="44.475463064322014" lon="11.267520943908638"><ele>102.0</ele><time>2026-05-01T08:10:58Z</time></trkpt><trkpt lat="44.47531357076223" lon="11.267670063241367"><ele>107.0</ele><time>2026-05-01T08:10:59Z</time></trkpt><trkpt lat="44.475164198895975" lon="11.267819937961631"><ele>112.0</ele><time>2026-05-01T08:11:00Z</time></trkpt><trkpt lat="44.47500550768746" lon="11.267978914472417"><ele>112.66666666666667</ele><time>2026-05-01T08:11:01.066Z</time></trkpt><trkpt lat="44.474854178330325" lon="11.268126959733124"><ele>113.33333333333334</ele><time>2026-05-01T08:11:02.063Z</time></trkpt><trkpt lat="44.47470839928843" lon="11.268272239064903"><ele>114.0</ele><time>2026-05-01T08:11:03.043Z</time></trkpt><trkpt lat="44.47455826577935" lon="11.268422778197666"><ele>114.0</ele><time>2026-05-01T08:11:04.033Z</time></trkpt><trkpt lat="44.47440867360748" lon="11.268571793002286"><ele>114.0</ele><time>2026-05-01T08:11:05.029Z</time></trkpt><trkpt lat="44.47300539586401" lon="11.26991779717601"><ele>106.66666666666667</ele><time>2026-05-01T08:11:11.999Z</time></trkpt><trkpt lat="44.4728312785544" lon="11.270081271660601"><ele>99.33333333333334</ele><time>2026-05-01T08:11:12.999Z</time></trkpt><trkpt lat="44.4727107176584" lon="11.270149339418689"><ele>92.0</ele><time>2026-05-01T08:11:13.999Z</time></trkpt><trkpt lat="44.4725444006874" lon="11.270344048538096"><ele>92.0</ele><time>2026-05-01T08:11:14.999Z</time></trkpt><trkpt lat="44.47236195496928" lon="11.270541239733785"><ele>92.0</ele><time>2026-05-01T08:11:15.999Z</time></trkpt><trkpt lat="44.47217890251175" lon="11.270756364009385"><ele>89.66666666666667</ele><time>2026-05-01T08:11:16.999Z</time></trkpt><trkpt lat="44.472012987336086" lon="11.270950440180208"><ele>87.33333333333333</ele><time>2026-05-01T08:11:17.999Z</time></trkpt><trkpt lat="44.47182958209096" lon="11.27114312561984"><ele>85.0</ele><time>2026-05-01T08:11:18.999Z</time></trkpt><trkpt lat="44.471647812118185" lon="11.271342152297704"><ele>84.0</ele><time>2026-05-01T08:11:19.999Z</time></trkpt><trkpt lat="44.471461083078786" lon="11.27154712824797"><ele>83.0</ele><time>2026-05-01T08:11:20.999Z</time></trkpt><trkpt lat="44.47128253358112" lon="11.271764432822343"><ele>81.5</ele><time>2026-05-01T08:11:21.999Z</time></trkpt><trkpt lat="44.47110274985747" lon="11.27198138453711"><ele>80.0</ele><time>2026-05-01T08:11:22.999Z</time></trkpt><trkpt lat="44.47091697587022" lon="11.272204393359956"><ele>78.5</ele><time>2026-05-01T08:11:23.999Z</time></trkpt><trkpt lat="44.470732868633014" lon="11.272426734629613"><ele>77.0</ele><time>2026-05-01T08:11:24.999Z</time></trkpt><trkpt lat="44.47053973839799" lon="11.272649037008678"><ele>78.5</ele><time>2026-05-01T08:11:25.999Z</time></trkpt><trkpt lat="44.47033708606064" lon="11.272865656881391"><ele>80.0</ele><time>2026-05-01T08:11:26.999Z</time></trkpt><trkpt lat="44.47012799427304" lon="11.273070652045691"><ele>80.0</ele><time>2026-05-01T08:11:27.999Z</time></trkpt><trkpt lat="44.46991499007637" lon="11.273270393509424"><ele>80.0</ele><time>2026-05-01T08:11:28.999Z</time></trkpt><trkpt lat="44.469692201218756" lon="11.273455774370197"><ele>79.0</ele><time>2026-05-01T08:11:29.999Z</time></trkpt><trkpt lat="44.469464786822556" lon="11.27362534871989"><ele>78.0</ele><time>2026-05-01T08:11:30.999Z</time></trkpt><trkpt lat="44.46923031726944" lon="11.273785313008247"><ele>78.0</ele><time>2026-05-01T08:11:31.999Z</time></trkpt><trkpt lat="44.468991805022654" lon="11.273926819147379"><ele>78.0</ele><time>2026-05-01T08:11:32.999Z</time></trkpt><trkpt lat="44.46874768035944" lon="11.274047150807618"><ele>77.0</ele><time>2026-05-01T08:11:33.999Z</time></trkpt><trkpt lat="44.46849279847717" lon="11.274150487287091"><ele>76.0</ele><time>2026-05-01T08:11:34.999Z</time></trkpt><trkpt lat="44.46823532058271" lon="11.274238676067133"><ele>76.0</ele><time>2026-05-01T08:11:35.999Z</time></trkpt><trkpt lat="44.467970920080624" lon="11.274313753361342"><ele>76.0</ele><time>2026-05-01T08:11:36.999Z</time></trkpt><trkpt lat="44.46770379091382" lon="11.27437663567504"><ele>77.0</ele><time>2026-05-01T08:11:37.999Z</time></trkpt><trkpt lat="44.467437125209855" lon="11.274421357529723"><ele>78.0</ele><time>2026-05-01T08:11:38.999Z</time></trkpt><trkpt lat="44.467169188569166" lon="11.274448652900094"><ele>78.0</ele><time>2026-05-01T08:11:39.999Z</time></trkpt><trkpt lat="44.4668996674243" lon="11.274462030051655"><ele>78.0</ele><time>2026-05-01T08:11:40.999Z</time></trkpt><trkpt lat="44.46662646768969" lon="11.274476190403945"><ele>78.0</ele><time>2026-05-01T08:11:41.999Z</time></trkpt><trkpt lat="44.46635855509845" lon="11.274488314363898"><ele>78.0</ele><time>2026-05-01T08:11:42.999Z</time></trkpt><trkpt lat="44.46608652401113" lon="11.274502780871483"><ele>78.0</ele><time>2026-05-01T08:11:43.999Z</time></trkpt><trkpt lat="44.465815049043414" lon="11.274519414919471"><ele>78.0</ele><time>2026-05-01T08:11:44.999Z</time></trkpt><trkpt lat="44.46554286751305" lon="11.274535147162576"><ele>78.0</ele><time>2026-05-01T08:11:45.999Z</time></trkpt><trkpt lat="44.46526884029613" lon="11.27455371949409"><ele>78.0</ele><time>2026-05-01T08:11:46.999Z</time></trkpt><trkpt lat="44.464994772870256" lon="11.274575842989343"><ele>78.0</ele><time>2026-05-01T08:11:47.999Z</time></trkpt><trkpt lat="44.46472040354821" lon="11.27460046994698"><ele>78.0</ele><time>2026-05-01T08:11:48.999Z</time></trkpt><trkpt lat="44.464445296985964" lon="11.27462229473349"><ele>77.0</ele><time>2026-05-01T08:11:49.999Z</time></trkpt><trkpt lat="44.4641697687501" lon="11.27464410415258"><ele>76.0</ele><time>2026-05-01T08:11:50.999Z</time></trkpt><trkpt lat="44.46389115248209" lon="11.274666908527704"><ele>74.5</ele><time>2026-05-01T08:11:51.999Z</time></trkpt><trkpt lat="44.463606351731976" lon="11.274693597734256"><ele>73.0</ele><time>2026-05-01T08:11:52.999Z</time></trkpt><trkpt lat="44.463314279141635" lon="11.27471890016871"><ele>73.0</ele><time>2026-05-01T08:11:53.999Z</time></trkpt><trkpt lat="44.46301899370691" lon="11.274746458197585"><ele>73.0</ele><time>2026-05-01T08:11:54.999Z</time></trkpt><trkpt lat="44.46272042527656" lon="11.274772169863532"><ele>73.0</ele><time>2026-05-01T08:11:55.999Z</time></trkpt><trkpt lat="44.4624210833265" lon="11.27479914360344"><ele>73.0</ele><time>2026-05-01T08:11:56.999Z</time></trkpt><trkpt lat="44.46212392824334" lon="11.274835157684157"><ele>75.0</ele><time>2026-05-01T08:11:57.999Z</time></trkpt><trkpt lat="44.46182905518021" lon="11.27488571072415"><ele>77.0</ele><time>2026-05-01T08:11:58.999Z</time></trkpt><trkpt lat="44.461538361102086" lon="11.274954495562016"><ele>78.0</ele><time>2026-05-01T08:11:59.999Z</time></trkpt><trkpt lat="44.46125747458074" lon="11.275042211456357"><ele>79.0</ele><time>2026-05-01T08:12:00.999Z</time></trkpt><trkpt lat="44.46098552335551" lon="11.275164124268132"><ele>79.0</ele><time>2026-05-01T08:12:01.999Z</time></trkpt><trkpt lat="44.46071493898294" lon="11.275289916678972"><ele>79.0</ele><time>2026-05-01T08:12:02.999Z</time></trkpt><trkpt lat="44.460456511283" lon="11.275430404352505"><ele>78.5</ele><time>2026-05-01T08:12:03.999Z</time></trkpt><trkpt lat="44.46020352409544" lon="11.275589491984082"><ele>78.0</ele><time>2026-05-01T08:12:04.999Z</time></trkpt><trkpt lat="44.459961011455924" lon="11.275763433098655"><ele>77.5</ele><time>2026-05-01T08:12:05.999Z</time></trkpt><trkpt lat="44.459728671467694" lon="11.275955417492495"><ele>77.0</ele><time>2026-05-01T08:12:06.999Z</time></trkpt><trkpt lat="44.459508637328156" lon="11.276157916546216"><ele>77.0</ele><time>2026-05-01T08:12:07.999Z</time></trkpt><trkpt lat="44.45929561697646" lon="11.276371997376808"><ele>77.0</ele><time>2026-05-01T08:12:08.999Z</time></trkpt><trkpt lat="44.459095085828764" lon="11.276591616669268"><ele>76.5</ele><time>2026-05-01T08:12:09.999Z</time></trkpt><trkpt lat="44.45890049623645" lon="11.276825746680801"><ele>76.0</ele><time>2026-05-01T08:12:10.999Z</time></trkpt><trkpt lat="44.458718903512896" lon="11.277065197593586"><ele>76.5</ele><time>2026-05-01T08:12:11.999Z</time></trkpt><trkpt lat="44.45854219838179" lon="11.277307526505657"><ele>77.0</ele><time>2026-05-01T08:12:12.999Z</time></trkpt><trkpt lat="44.45837284073081" lon="11.277556834969824"><ele>77.0</ele><time>2026-05-01T08:12:13.999Z</time></trkpt><trkpt lat="44.45821113998429" lon="11.277797585648129"><ele>77.0</ele><time>2026-05-01T08:12:14.999Z</time></trkpt><trkpt lat="44.458055489801104" lon="11.278026872779783"><ele>77.33333333333334</ele><time>2026-05-01T08:12:15.999Z</time></trkpt><trkpt lat="44.45790457901244" lon="11.278240482452176"><ele>77.66666666666667</ele><time>2026-05-01T08:12:16.999Z</time></trkpt><trkpt lat="44.45775643942893" lon="11.278443584754674"><ele>78.0</ele><time>2026-05-01T08:12:17.999Z</time></trkpt><trkpt lat="44.457616174819314" lon="11.27863399752848"><ele>78.0</ele><time>2026-05-01T08:12:18.999Z</time></trkpt><trkpt lat="44.45748338571513" lon="11.27881012965475"><ele>78.0</ele><time>2026-05-01T08:12:19.999Z</time></trkpt><trkpt lat="44.45737749441745" lon="11.278997072461088"><ele>78.0</ele><time>2026-05-01T08:12:20.999Z</time></trkpt><trkpt lat="44.457258213503685" lon="11.279098916744653"><ele>77.6</ele><time>2026-05-01T08:12:21.999Z</time></trkpt><trkpt lat="44.457169640461366" lon="11.279205161949472"><ele>77.19999999999999</ele><time>2026-05-01T08:12:22.999Z</time></trkpt><trkpt lat="44.457085054365265" lon="11.279289405450537"><ele>76.8</ele><time>2026-05-01T08:12:24Z</time></trkpt><trkpt lat="44.45700627182283" lon="11.279352717146637"><ele>76.39999999999999</ele><time>2026-05-01T08:12:25Z</time></trkpt><trkpt lat="44.45693018658775" lon="11.279407800862419"><ele>76.0</ele><time>2026-05-01T08:12:26Z</time></trkpt><trkpt lat="44.45685502024371" lon="11.27944214743104"><ele>76.0</ele><time>2026-05-01T08:12:27Z</time></trkpt><trkpt lat="44.45678553822847" lon="11.279462280830442"><ele>76.0</ele><time>2026-05-01T08:12:28Z</time></trkpt><trkpt lat="44.456720948052485" lon="11.279459351880035"><ele>76.0</ele><time>2026-05-01T08:12:29Z</time></trkpt><trkpt lat="44.45660499011915" lon="11.279452869671836"><ele>76.0</ele><time>2026-05-01T08:12:31Z</time></trkpt><trkpt lat="44.456514421961785" lon="11.279431869903924"><ele>76.0</ele><time>2026-05-01T08:12:33Z</time></trkpt><trkpt lat="44.45643530746781" lon="11.279411022565808"><ele>76.0</ele><time>2026-05-01T08:12:35Z</time></trkpt><trkpt lat="44.456349083163275" lon="11.279395427424246"><ele>76.0</ele><time>2026-05-01T08:12:37Z</time></trkpt><trkpt lat="44.45626359677295" lon="11.279397025604066"><ele>76.0</ele><time>2026-05-01T08:12:39Z</time></trkpt><trkpt lat="44.456172878754" lon="11.279393078864587"><ele>76.0</ele><time>2026-05-01T08:12:42Z</time></trkpt><trkpt lat="44.45608746338348" lon="11.279433986043074"><ele>76.0</ele><time>2026-05-01T08:12:48Z</time></trkpt><trkpt lat="44.456020702182315" lon="11.279484873993024"><ele>76.0</ele><time>2026-05-01T08:12:50Z</time></trkpt><trkpt lat="44.45595111540309" lon="11.279533453781644"><ele>76.0</ele><time>2026-05-01T08:12:53Z</time></trkpt><trkpt lat="44.45589511558565" lon="11.279598981082978"><ele>76.0</ele><time>2026-05-01T08:12:57Z</time></trkpt><trkpt lat="44.45588293499459" lon="11.279722773818321"><ele>76.0</ele><time>2026-05-01T08:13:03.999Z</time></trkpt><trkpt lat="44.45595573396335" lon="11.27976180471541"><ele>76.0</ele><time>2026-05-01T08:13:06.999Z</time></trkpt><trkpt lat="44.456052528018844" lon="11.279667027977148"><ele>76.0</ele><time>2026-05-01T08:13:08.999Z</time></trkpt><trkpt lat="44.45614325985763" lon="11.279606393542043"><ele>76.0</ele><time>2026-05-01T08:13:10.999Z</time></trkpt><trkpt lat="44.4562106441687" lon="11.279565539748775"><ele>76.0</ele><time>2026-05-01T08:13:12.999Z</time></trkpt><trkpt lat="44.456265423092894" lon="11.279627244273618"><ele>76.0</ele><time>2026-05-01T08:13:15.999Z</time></trkpt><trkpt lat="44.45620711853949" lon="11.279738614963579"><ele>76.0</ele><time>2026-05-01T08:13:18.999Z</time></trkpt><trkpt lat="44.45614391614137" lon="11.279774664551407"><ele>76.0</ele><time>2026-05-01T08:13:20.999Z</time></trkpt><trkpt lat="44.456103312263934" lon="11.279859456387385"><ele>76.0</ele><time>2026-05-01T08:13:23.999Z</time></trkpt><trkpt lat="44.456141139092914" lon="11.27993131319592"><ele>76.0</ele><time>2026-05-01T08:13:25.999Z</time></trkpt><trkpt lat="44.456206405201534" lon="11.279951750055535"><ele>76.0</ele><time>2026-05-01T08:13:27.999Z</time></trkpt><trkpt lat="44.45628529906763" lon="11.279915078938686"><ele>76.0</ele><time>2026-05-01T08:13:30.999Z</time></trkpt><trkpt lat="44.456353499428666" lon="11.279877040018567"><ele>76.0</ele><time>2026-05-01T08:13:34.999Z</time></trkpt><trkpt lat="44.45632352194527" lon="11.279789230260183"><ele>76.0</ele><time>2026-05-01T08:13:36.999Z</time></trkpt><trkpt lat="44.45626976764467" lon="11.27973469392633"><ele>76.0</ele><time>2026-05-01T08:13:39.999Z</time></trkpt><trkpt lat="44.45611171123988" lon="11.279863849704917"><ele>76.0</ele><time>2026-05-01T08:13:43.999Z</time></trkpt><trkpt lat="44.45617959588918" lon="11.279764856580245"><ele>75.83333333333333</ele><time>2026-05-01T08:13:44.999Z</time></trkpt><trkpt lat="44.456097359073375" lon="11.279800967773298"><ele>75.66666666666666</ele><time>2026-05-01T08:13:48.999Z</time></trkpt><trkpt lat="44.456037627199564" lon="11.279852330565216"><ele>75.5</ele><time>2026-05-01T08:13:51.999Z</time></trkpt><trkpt lat="44.455971527090995" lon="11.279898942661067"><ele>75.33333333333333</ele><time>2026-05-01T08:13:55.999Z</time></trkpt><trkpt lat="44.45590905438083" lon="11.279935132567163"><ele>75.16666666666667</ele><time>2026-05-01T08:13:58.999Z</time></trkpt><trkpt lat="44.455837631035116" lon="11.279978567766078"><ele>75.0</ele><time>2026-05-01T08:14:01.999Z</time></trkpt><trkpt lat="44.455761869303785" lon="11.280004248169286"><ele>75.0</ele><time>2026-05-01T08:14:04.999Z</time></trkpt><trkpt lat="44.45569150363993" lon="11.280051510960423"><ele>75.0</ele><time>2026-05-01T08:14:07.999Z</time></trkpt><trkpt lat="44.45562014172439" lon="11.28009932462237"><ele>75.0</ele><time>2026-05-01T08:14:10.999Z</time></trkpt><trkpt lat="44.45554999336924" lon="11.280149197445498"><ele>75.0</ele><time>2026-05-01T08:14:13.999Z</time></trkpt><trkpt lat="44.455479810043656" lon="11.280192096238906"><ele>75.0</ele><time>2026-05-01T08:14:17.999Z</time></trkpt><trkpt lat="44.455403679015966" lon="11.280174798131968"><ele>75.0</ele><time>2026-05-01T08:14:21.999Z</time></trkpt><trkpt lat="44.45533560443543" lon="11.280155914151369"><ele>75.0</ele><time>2026-05-01T08:14:25.999Z</time></trkpt><trkpt lat="44.45526587201694" lon="11.28010773880303"><ele>75.0</ele><time>2026-05-01T08:14:28.999Z</time></trkpt><trkpt lat="44.45526143758667" lon="11.280301335378477"><ele>75.0</ele><time>2026-05-01T08:14:45Z</time></trkpt><trkpt lat="44.45518372911238" lon="11.28045740530229"><ele>75.0</ele><time>2026-05-01T08:14:51Z</time></trkpt><trkpt lat="44.45514371023325" lon="11.280537778917722"><ele>75.0</ele><time>2026-05-01T08:14:54Z</time></trkpt><trkpt lat="44.45505590019392" lon="11.280702948945514"><ele>75.0</ele><time>2026-05-01T08:14:59Z</time></trkpt><trkpt lat="44.455109568226" lon="11.280606349686698"><ele>75.0</ele><time>2026-05-01T08:16:13.999Z</time></trkpt><trkpt lat="44.45498116510966" lon="11.280425937116723"><ele>75.0</ele><time>2026-05-01T08:19:18Z</time></trkpt><trkpt lat="44.45504858253953" lon="11.280448118784319"><ele>75.0</ele><time>2026-05-01T08:20:14Z</time></trkpt><trkpt lat="44.45507448733645" lon="11.2803647159697"><ele>75.0</ele><time>2026-05-01T08:20:24.999Z</time></trkpt><trkpt lat="44.45512280257245" lon="11.280307879124024"><ele>74.99999999999999</ele><time>2026-05-01T08:20:30.999Z</time></trkpt><trkpt lat="44.45515420769651" lon="11.280210167052603"><ele>75.0</ele><time>2026-05-01T08:20:36.999Z</time></trkpt><trkpt lat="44.45519671386488" lon="11.280131754253315"><ele>75.0</ele><time>2026-05-01T08:20:41.999Z</time></trkpt><trkpt lat="44.45518304594962" lon="11.280030962531056"><ele>75.0</ele><time>2026-05-01T08:21:07Z</time></trkpt><trkpt lat="44.455151496057354" lon="11.280111183880612"><ele>75.0</ele><time>2026-05-01T08:25:25Z</time></trkpt><trkpt lat="44.455101244877675" lon="11.280194722487284"><ele>74.99999999999999</ele><time>2026-05-01T08:25:36Z</time></trkpt><trkpt lat="44.45505987131386" lon="11.280261333632364"><ele>75.0</ele><time>2026-05-01T08:25:42Z</time></trkpt><trkpt lat="44.455042049820456" lon="11.280357788360169"><ele>75.0</ele><time>2026-05-01T08:25:47Z</time></trkpt><trkpt lat="44.45500508660756" lon="11.28044293549487"><ele>75.0</ele><time>2026-05-01T08:25:52Z</time></trkpt><trkpt lat="44.455041063174704" lon="11.280550638408961"><ele>75.0</ele><time>2026-05-01T08:40:13Z</time></trkpt><trkpt lat="44.45497290846516" lon="11.280678172640163"><ele>75.0</ele><time>2026-05-01T08:40:15Z</time></trkpt><trkpt lat="44.454904373978806" lon="11.280715153524648"><ele>75.0</ele><time>2026-05-01T08:40:16Z</time></trkpt><trkpt lat="44.454830633405706" lon="11.280745631656542"><ele>75.0</ele><time>2026-05-01T08:40:17Z</time></trkpt><trkpt lat="44.454765718702916" lon="11.280768962116841"><ele>74.6</ele><time>2026-05-01T08:40:18Z</time></trkpt><trkpt lat="44.454650741121704" lon="11.280813666371857"><ele>74.2</ele><time>2026-05-01T08:40:20Z</time></trkpt><trkpt lat="44.454539880682084" lon="11.280841366121837"><ele>73.8</ele><time>2026-05-01T08:40:22Z</time></trkpt><trkpt lat="44.454417800012145" lon="11.280873779867703"><ele>73.4</ele><time>2026-05-01T08:40:24Z</time></trkpt><trkpt lat="44.45435631939167" lon="11.280900849545086"><ele>73.0</ele><time>2026-05-01T08:40:25Z</time></trkpt><trkpt lat="44.454294678306795" lon="11.280924972237058"><ele>72.2</ele><time>2026-05-01T08:40:26Z</time></trkpt><trkpt lat="44.45423237893071" lon="11.280945512582807"><ele>71.4</ele><time>2026-05-01T08:40:27Z</time></trkpt><trkpt lat="44.45410908747373" lon="11.280968230143731"><ele>70.60000000000001</ele><time>2026-05-01T08:40:29Z</time></trkpt><trkpt lat="44.45398888898393" lon="11.280981085801299"><ele>69.8</ele><time>2026-05-01T08:40:31Z</time></trkpt><trkpt lat="44.453867510693435" lon="11.280985221178314"><ele>69.0</ele><time>2026-05-01T08:40:33Z</time></trkpt><trkpt lat="44.45374989843816" lon="11.28098653125921"><ele>68.8</ele><time>2026-05-01T08:40:34.999Z</time></trkpt><trkpt lat="44.45363857021007" lon="11.280986641181633"><ele>68.60000000000001</ele><time>2026-05-01T08:40:36.999Z</time></trkpt><trkpt lat="44.453526184029535" lon="11.28098230947118"><ele>68.4</ele><time>2026-05-01T08:40:38.999Z</time></trkpt><trkpt lat="44.45341683301522" lon="11.280970766527162"><ele>68.2</ele><time>2026-05-01T08:40:40.999Z</time></trkpt><trkpt lat="44.453313905872015" lon="11.280960988738219"><ele>68.0</ele><time>2026-05-01T08:40:42.999Z</time></trkpt><trkpt lat="44.45319333412599" lon="11.280947304352912"><ele>68.0</ele><time>2026-05-01T08:40:44.999Z</time></trkpt><trkpt lat="44.453065140353324" lon="11.280930900824465"><ele>68.0</ele><time>2026-05-01T08:40:46.999Z</time></trkpt><trkpt lat="44.45299627770409" lon="11.280923320875909"><ele>68.0</ele><time>2026-05-01T08:40:47.999Z</time></trkpt><trkpt lat="44.452928453582075" lon="11.280913082892038"><ele>68.0</ele><time>2026-05-01T08:40:48.999Z</time></trkpt><trkpt lat="44.452862607293724" lon="11.28089968800138"><ele>68.0</ele><time>2026-05-01T08:40:49.999Z</time></trkpt><trkpt lat="44.45274406520824" lon="11.280875175825921"><ele>67.83333333333334</ele><time>2026-05-01T08:40:51.999Z</time></trkpt><trkpt lat="44.45262313391142" lon="11.280849692289188"><ele>67.66666666666667</ele><time>2026-05-01T08:40:53.999Z</time></trkpt><trkpt lat="44.452559232001974" lon="11.280836362848113"><ele>67.5</ele><time>2026-05-01T08:40:54.999Z</time></trkpt><trkpt lat="44.45249055668338" lon="11.280820867836251"><ele>67.33333333333333</ele><time>2026-05-01T08:40:55.999Z</time></trkpt><trkpt lat="44.452417688826806" lon="11.280803160552848"><ele>67.16666666666666</ele><time>2026-05-01T08:40:56.999Z</time></trkpt><trkpt lat="44.45234679998974" lon="11.280785238757744"><ele>67.0</ele><time>2026-05-01T08:40:57.999Z</time></trkpt><trkpt lat="44.45226534475691" lon="11.280763508502028"><ele>67.0</ele><time>2026-05-01T08:40:58.999Z</time></trkpt><trkpt lat="44.45217549371756" lon="11.28074313077054"><ele>67.0</ele><time>2026-05-01T08:40:59.999Z</time></trkpt><trkpt lat="44.45207857350559" lon="11.280720130347534"><ele>67.0</ele><time>2026-05-01T08:41:00.999Z</time></trkpt><trkpt lat="44.451974884697634" lon="11.28069777945153"><ele>67.0</ele><time>2026-05-01T08:41:01.999Z</time></trkpt><trkpt lat="44.451866575332716" lon="11.28067521719031"><ele>67.0</ele><time>2026-05-01T08:41:02.999Z</time></trkpt><trkpt lat="44.45175460684989" lon="11.280652234113381"><ele>67.0</ele><time>2026-05-01T08:41:03.999Z</time></trkpt><trkpt lat="44.451641848200126" lon="11.280624819452715"><ele>67.0</ele><time>2026-05-01T08:41:04.999Z</time></trkpt><trkpt lat="44.451524528450086" lon="11.280596760472086"><ele>67.0</ele><time>2026-05-01T08:41:05.999Z</time></trkpt><trkpt lat="44.45140280187424" lon="11.28057001881884"><ele>67.0</ele><time>2026-05-01T08:41:06.999Z</time></trkpt><trkpt lat="44.45127781888682" lon="11.28054310502333"><ele>67.0</ele><time>2026-05-01T08:41:07.999Z</time></trkpt><trkpt lat="44.45115243694339" lon="11.280515231067819"><ele>67.0</ele><time>2026-05-01T08:41:08.999Z</time></trkpt><trkpt lat="44.451023794838996" lon="11.280484831154643"><ele>67.0</ele><time>2026-05-01T08:41:09.999Z</time></trkpt><trkpt lat="44.45088954197549" lon="11.280454324432013"><ele>67.0</ele><time>2026-05-01T08:41:10.999Z</time></trkpt><trkpt lat="44.45074784108407" lon="11.280424065142617"><ele>67.0</ele><time>2026-05-01T08:41:11.999Z</time></trkpt><trkpt lat="44.450602677996535" lon="11.28039130566531"><ele>67.0</ele><time>2026-05-01T08:41:12.999Z</time></trkpt><trkpt lat="44.45045554807216" lon="11.280351278552091"><ele>67.0</ele><time>2026-05-01T08:41:13.999Z</time></trkpt><trkpt lat="44.45030689606877" lon="11.280310306231161"><ele>67.0</ele><time>2026-05-01T08:41:14.999Z</time></trkpt><trkpt lat="44.45016123634838" lon="11.280272251948462"><ele>67.0</ele><time>2026-05-01T08:41:15.999Z</time></trkpt><trkpt lat="44.45001495270564" lon="11.280234687435243"><ele>67.0</ele><time>2026-05-01T08:41:16.999Z</time></trkpt><trkpt lat="44.44986365943788" lon="11.280200982919295"><ele>67.0</ele><time>2026-05-01T08:41:17.999Z</time></trkpt><trkpt lat="44.449713851210184" lon="11.280164772060282"><ele>67.0</ele><time>2026-05-01T08:41:18.999Z</time></trkpt><trkpt lat="44.449566959122926" lon="11.28012660127824"><ele>67.0</ele><time>2026-05-01T08:41:19.999Z</time></trkpt><trkpt lat="44.449421660500654" lon="11.280089538456375"><ele>67.0</ele><time>2026-05-01T08:41:20.999Z</time></trkpt><trkpt lat="44.449281976250006" lon="11.280052725213682"><ele>67.0</ele><time>2026-05-01T08:41:21.999Z</time></trkpt><trkpt lat="44.44914721484379" lon="11.28001546787801"><ele>67.0</ele><time>2026-05-01T08:41:22.999Z</time></trkpt><trkpt lat="44.44901720899529" lon="11.279978310365863"><ele>67.0</ele><time>2026-05-01T08:41:23.999Z</time></trkpt><trkpt lat="44.44890429168389" lon="11.279945347246958"><ele>67.0</ele><time>2026-05-01T08:41:24.999Z</time></trkpt><trkpt lat="44.448798211905256" lon="11.27991498156389"><ele>67.0</ele><time>2026-05-01T08:41:25.999Z</time></trkpt><trkpt lat="44.4486972132902" lon="11.279884514373164"><ele>67.16666666666666</ele><time>2026-05-01T08:41:26.999Z</time></trkpt><trkpt lat="44.44860227189344" lon="11.279854901654623"><ele>67.33333333333333</ele><time>2026-05-01T08:41:27.999Z</time></trkpt><trkpt lat="44.44851409216029" lon="11.27982725723118"><ele>67.5</ele><time>2026-05-01T08:41:28.999Z</time></trkpt><trkpt lat="44.448430146814275" lon="11.279803801580213"><ele>67.66666666666667</ele><time>2026-05-01T08:41:29.999Z</time></trkpt><trkpt lat="44.44835353074012" lon="11.279783173287411"><ele>67.83333333333334</ele><time>2026-05-01T08:41:30.999Z</time></trkpt><trkpt lat="44.4482748596115" lon="11.279763103936222"><ele>68.0</ele><time>2026-05-01T08:41:31.999Z</time></trkpt><trkpt lat="44.44819237556084" lon="11.27974218159557"><ele>68.16666666666667</ele><time>2026-05-01T08:41:32.999Z</time></trkpt><trkpt lat="44.44810965790249" lon="11.279720969975699"><ele>68.33333333333334</ele><time>2026-05-01T08:41:33.999Z</time></trkpt><trkpt lat="44.44802806483197" lon="11.279699813982154"><ele>68.5</ele><time>2026-05-01T08:41:34.999Z</time></trkpt><trkpt lat="44.44794781601318" lon="11.279676358072056"><ele>68.66666666666667</ele><time>2026-05-01T08:41:35.999Z</time></trkpt><trkpt lat="44.447869418515694" lon="11.279653227778054"><ele>68.83333333333333</ele><time>2026-05-01T08:41:36.999Z</time></trkpt><trkpt lat="44.447792057287" lon="11.279627843696638"><ele>69.0</ele><time>2026-05-01T08:41:37.999Z</time></trkpt><trkpt lat="44.447715480678895" lon="11.279603161683939"><ele>69.2</ele><time>2026-05-01T08:41:38.999Z</time></trkpt><trkpt lat="44.447642085399146" lon="11.279582141602106"><ele>69.4</ele><time>2026-05-01T08:41:39.999Z</time></trkpt><trkpt lat="44.44757571845782" lon="11.2795618811244"><ele>69.6</ele><time>2026-05-01T08:41:40.999Z</time></trkpt><trkpt lat="44.44746367752099" lon="11.279536158329867"><ele>69.8</ele><time>2026-05-01T08:41:42.999Z</time></trkpt><trkpt lat="44.44735564921063" lon="11.279510050154054"><ele>70.0</ele><time>2026-05-01T08:41:44.999Z</time></trkpt><trkpt lat="44.44723965230282" lon="11.27948544357807"><ele>69.66666666666666</ele><time>2026-05-01T08:41:47Z</time></trkpt><trkpt lat="44.44711551999958" lon="11.279446531649446"><ele>69.33333333333333</ele><time>2026-05-01T08:41:49Z</time></trkpt><trkpt lat="44.44704789559118" lon="11.27942755567677"><ele>69.0</ele><time>2026-05-01T08:41:50Z</time></trkpt><trkpt lat="44.44698397509296" lon="11.279415272478692"><ele>68.66666666666667</ele><time>2026-05-01T08:41:51Z</time></trkpt><trkpt lat="44.446878244929096" lon="11.279390382835013"><ele>68.33333333333334</ele><time>2026-05-01T08:41:53Z</time></trkpt><trkpt lat="44.446799660614744" lon="11.27937127289489"><ele>68.0</ele><time>2026-05-01T08:41:55Z</time></trkpt><trkpt lat="44.44672308876806" lon="11.279348806557516"><ele>67.99999999999999</ele><time>2026-05-01T08:41:58Z</time></trkpt><trkpt lat="44.44665963279298" lon="11.27934897645144"><ele>68.0</ele><time>2026-05-01T08:42:35Z</time></trkpt><trkpt lat="44.44658746370238" lon="11.279354918922241"><ele>68.0</ele><time>2026-05-01T08:43:11.999Z</time></trkpt><trkpt lat="44.44652489792073" lon="11.27929640379651"><ele>68.0</ele><time>2026-05-01T08:43:13.999Z</time></trkpt><trkpt lat="44.44645254043573" lon="11.27926522391121"><ele>68.0</ele><time>2026-05-01T08:43:16.999Z</time></trkpt><trkpt lat="44.4463837516353" lon="11.279254734606818"><ele>67.99999999999999</ele><time>2026-05-01T08:43:20.999Z</time></trkpt><trkpt lat="44.44631411982508" lon="11.279218237825512"><ele>68.0</ele><time>2026-05-01T08:44:07Z</time></trkpt><trkpt lat="44.44620316430557" lon="11.27919457628878"><ele>68.33333333333334</ele><time>2026-05-01T08:44:09Z</time></trkpt><trkpt lat="44.4461279711436" lon="11.279182158804437"><ele>68.66666666666667</ele><time>2026-05-01T08:44:10Z</time></trkpt><trkpt lat="44.446039175119914" lon="11.27917589849923"><ele>69.0</ele><time>2026-05-01T08:44:11Z</time></trkpt><trkpt lat="44.44594166239667" lon="11.279171857239003"><ele>69.33333333333333</ele><time>2026-05-01T08:44:12Z</time></trkpt><trkpt lat="44.44584393151931" lon="11.279171134554785"><ele>69.66666666666666</ele><time>2026-05-01T08:44:13Z</time></trkpt><trkpt lat="44.44575741315181" lon="11.279160741413104"><ele>70.0</ele><time>2026-05-01T08:44:14Z</time></trkpt><trkpt lat="44.44567058437175" lon="11.279119890835885"><ele>70.0</ele><time>2026-05-01T08:44:15Z</time></trkpt><trkpt lat="44.445585242846725" lon="11.279041375789507"><ele>70.0</ele><time>2026-05-01T08:44:16Z</time></trkpt><trkpt lat="44.445510894075035" lon="11.27894144033406"><ele>70.0</ele><time>2026-05-01T08:44:17Z</time></trkpt><trkpt lat="44.44544915255486" lon="11.278814764062783"><ele>70.0</ele><time>2026-05-01T08:44:18Z</time></trkpt><trkpt lat="44.445408801131066" lon="11.278671183330419"><ele>70.0</ele><time>2026-05-01T08:44:19Z</time></trkpt><trkpt lat="44.445400159343556" lon="11.278514269145631"><ele>70.2</ele><time>2026-05-01T08:44:20Z</time></trkpt><trkpt lat="44.445417578818066" lon="11.278353788227419"><ele>70.4</ele><time>2026-05-01T08:44:21Z</time></trkpt><trkpt lat="44.44546416377357" lon="11.278206965668954"><ele>70.6</ele><time>2026-05-01T08:44:22Z</time></trkpt><trkpt lat="44.44552472009952" lon="11.278095973926348"><ele>70.8</ele><time>2026-05-01T08:44:23Z</time></trkpt><trkpt lat="44.44559202886336" lon="11.278021132855173"><ele>71.0</ele><time>2026-05-01T08:44:24Z</time></trkpt><trkpt lat="44.44566561395821" lon="11.278000053762948"><ele>71.0</ele><time>2026-05-01T08:44:25Z</time></trkpt><trkpt lat="44.44573096626903" lon="11.278022525792178"><ele>71.0</ele><time>2026-05-01T08:44:26Z</time></trkpt><trkpt lat="44.44583223104178" lon="11.278127827021365"><ele>71.0</ele><time>2026-05-01T08:44:28Z</time></trkpt><trkpt lat="44.445855413842665" lon="11.278238679322644"><ele>71.0</ele><time>2026-05-01T08:44:29Z</time></trkpt><trkpt lat="44.44590077435784" lon="11.278313573813445"><ele>71.0</ele><time>2026-05-01T08:44:30Z</time></trkpt><trkpt lat="44.44596743526886" lon="11.278352688116751"><ele>71.0</ele><time>2026-05-01T08:44:31Z</time></trkpt><trkpt lat="44.44604544825371" lon="11.278355619291167"><ele>71.0</ele><time>2026-05-01T08:44:32Z</time></trkpt><trkpt lat="44.446121466632235" lon="11.278319314455397"><ele>71.0</ele><time>2026-05-01T08:44:33Z</time></trkpt><trkpt lat="44.44617294382866" lon="11.278234060558974"><ele>71.0</ele><time>2026-05-01T08:44:34Z</time></trkpt><trkpt lat="44.44619059490989" lon="11.278122590213245"><ele>71.0</ele><time>2026-05-01T08:44:35Z</time></trkpt><trkpt lat="44.446173864439764" lon="11.278012065623177"><ele>71.0</ele><time>2026-05-01T08:44:36Z</time></trkpt><trkpt lat="44.44612679124019" lon="11.27791621825708"><ele>71.0</ele><time>2026-05-01T08:44:37Z</time></trkpt><trkpt lat="44.446051375981604" lon="11.277855407280422"><ele>71.0</ele><time>2026-05-01T08:44:38Z</time></trkpt><trkpt lat="44.44597274494606" lon="11.277838327760081"><ele>71.0</ele><time>2026-05-01T08:44:39Z</time></trkpt><trkpt lat="44.445904917043805" lon="11.277820780509979"><ele>71.0</ele><time>2026-05-01T08:44:40Z</time></trkpt><trkpt lat="44.44589925076492" lon="11.277598562546808"><ele>71.0</ele><time>2026-05-01T08:44:41Z</time></trkpt><trkpt lat="44.445931025117" lon="11.277471560061244"><ele>71.0</ele><time>2026-05-01T08:44:41.999Z</time></trkpt><trkpt lat="44.445946633897805" lon="11.277329262934398"><ele>70.5</ele><time>2026-05-01T08:44:42.999Z</time></trkpt><trkpt lat="44.44596354169959" lon="11.277175122265618"><ele>70.0</ele><time>2026-05-01T08:44:43.999Z</time></trkpt><trkpt lat="44.44597979658417" lon="11.277012479354068"><ele>69.5</ele><time>2026-05-01T08:44:44.999Z</time></trkpt><trkpt lat="44.44596985210536" lon="11.276840982044842"><ele>69.0</ele><time>2026-05-01T08:44:45.999Z</time></trkpt><trkpt lat="44.44596014652566" lon="11.276670845033376"><ele>69.0</ele><time>2026-05-01T08:44:46.999Z</time></trkpt><trkpt lat="44.445933216760295" lon="11.276502260944826"><ele>69.0</ele><time>2026-05-01T08:44:47.999Z</time></trkpt><trkpt lat="44.44588915663102" lon="11.276343512296297"><ele>69.0</ele><time>2026-05-01T08:44:48.999Z</time></trkpt><trkpt lat="44.44582533290077" lon="11.276193137833637"><ele>69.0</ele><time>2026-05-01T08:44:49.999Z</time></trkpt><trkpt lat="44.445749510522226" lon="11.276055227369568"><ele>69.25</ele><time>2026-05-01T08:44:50.999Z</time></trkpt><trkpt lat="44.445663441683806" lon="11.275935441115152"><ele>69.5</ele><time>2026-05-01T08:44:51.999Z</time></trkpt><trkpt lat="44.445563033156624" lon="11.275839363864625"><ele>69.75</ele><time>2026-05-01T08:44:52.999Z</time></trkpt><trkpt lat="44.44545306909712" lon="11.275765835717511"><ele>70.0</ele><time>2026-05-01T08:44:53.999Z</time></trkpt><trkpt lat="44.44533634118943" lon="11.275714326367693"><ele>70.0</ele><time>2026-05-01T08:44:54.999Z</time></trkpt><trkpt lat="44.445212807167366" lon="11.275678340074059"><ele>70.0</ele><time>2026-05-01T08:44:55.999Z</time></trkpt><trkpt lat="44.44508804716781" lon="11.275642372390674"><ele>70.0</ele><time>2026-05-01T08:44:56.999Z</time></trkpt><trkpt lat="44.444960026765905" lon="11.275606695494805"><ele>70.0</ele><time>2026-05-01T08:44:57.999Z</time></trkpt><trkpt lat="44.44483323429574" lon="11.275570813030098"><ele>70.0</ele><time>2026-05-01T08:44:58.999Z</time></trkpt><trkpt lat="44.4447118855634" lon="11.275538046837594"><ele>70.0</ele><time>2026-05-01T08:44:59.999Z</time></trkpt><trkpt lat="44.44459308857752" lon="11.27550612972853"><ele>70.0</ele><time>2026-05-01T08:45:00.999Z</time></trkpt><trkpt lat="44.44447554610097" lon="11.275475072629645"><ele>70.0</ele><time>2026-05-01T08:45:01.999Z</time></trkpt><trkpt lat="44.444365218281554" lon="11.27544411412893"><ele>70.0</ele><time>2026-05-01T08:45:02.999Z</time></trkpt><trkpt lat="44.444271498351675" lon="11.275417095490605"><ele>70.0</ele><time>2026-05-01T08:45:03.999Z</time></trkpt><trkpt lat="44.44419375498219" lon="11.275406278456357"><ele>70.0</ele><time>2026-05-01T08:45:04.999Z</time></trkpt><trkpt lat="44.44412966796941" lon="11.275447667004533"><ele>70.0</ele><time>2026-05-01T08:45:05.999Z</time></trkpt><trkpt lat="44.444073171760884" lon="11.275506863456151"><ele>70.0</ele><time>2026-05-01T08:45:06.999Z</time></trkpt><trkpt lat="44.44406310132745" lon="11.275655007186215"><ele>70.0</ele><time>2026-05-01T08:45:07.999Z</time></trkpt><trkpt lat="44.44404763709735" lon="11.275788579597172"><ele>70.5</ele><time>2026-05-01T08:45:08.999Z</time></trkpt><trkpt lat="44.444028847724674" lon="11.275933910780026"><ele>71.0</ele><time>2026-05-01T08:45:09.999Z</time></trkpt><trkpt lat="44.44400431175822" lon="11.276082922073785"><ele>71.5</ele><time>2026-05-01T08:45:10.999Z</time></trkpt><trkpt lat="44.44397422691173" lon="11.276239098958829"><ele>72.0</ele><time>2026-05-01T08:45:11.999Z</time></trkpt><trkpt lat="44.44394344889302" lon="11.276400857562688"><ele>72.4</ele><time>2026-05-01T08:45:12.999Z</time></trkpt><trkpt lat="44.443914861551036" lon="11.276560520655043"><ele>72.80000000000001</ele><time>2026-05-01T08:45:13.999Z</time></trkpt><trkpt lat="44.443890503570515" lon="11.276703058338436"><ele>73.2</ele><time>2026-05-01T08:45:14.999Z</time></trkpt><trkpt lat="44.44387177701013" lon="11.276832649414736"><ele>73.60000000000001</ele><time>2026-05-01T08:45:15.999Z</time></trkpt><trkpt lat="44.443850582307896" lon="11.276954489217163"><ele>74.0</ele><time>2026-05-01T08:45:16.999Z</time></trkpt><trkpt lat="44.44382839965061" lon="11.277081498671759"><ele>74.0</ele><time>2026-05-01T08:45:17.999Z</time></trkpt><trkpt lat="44.4438074122372" lon="11.277212095280454"><ele>74.0</ele><time>2026-05-01T08:45:18.999Z</time></trkpt><trkpt lat="44.443787837841555" lon="11.27734791483103"><ele>74.0</ele><time>2026-05-01T08:45:19.999Z</time></trkpt><trkpt lat="44.443770309755905" lon="11.277490167644483"><ele>74.0</ele><time>2026-05-01T08:45:20.999Z</time></trkpt><trkpt lat="44.443751576805546" lon="11.277635929191637"><ele>74.0</ele><time>2026-05-01T08:45:21.999Z</time></trkpt><trkpt lat="44.443720213023944" lon="11.277750560434887"><ele>73.8</ele><time>2026-05-01T08:45:22.999Z</time></trkpt><trkpt lat="44.44370038256949" lon="11.277884353984765"><ele>73.60000000000001</ele><time>2026-05-01T08:45:23.999Z</time></trkpt><trkpt lat="44.44365760782745" lon="11.277999905970187"><ele>73.4</ele><time>2026-05-01T08:45:24.999Z</time></trkpt><trkpt lat="44.44358613647003" lon="11.27807353389977"><ele>73.2</ele><time>2026-05-01T08:45:25.999Z</time></trkpt><trkpt lat="44.44348764996932" lon="11.278073523275415"><ele>73.0</ele><time>2026-05-01T08:45:26.999Z</time></trkpt><trkpt lat="44.443410351225765" lon="11.27803063223426"><ele>73.0</ele><time>2026-05-01T08:45:27.999Z</time></trkpt><trkpt lat="44.4433142872518" lon="11.277994286109053"><ele>73.0</ele><time>2026-05-01T08:45:28.999Z</time></trkpt><trkpt lat="44.44320111633216" lon="11.277955378773468"><ele>73.0</ele><time>2026-05-01T08:45:29.999Z</time></trkpt><trkpt lat="44.44307613662715" lon="11.277911391116156"><ele>73.0</ele><time>2026-05-01T08:45:30.999Z</time></trkpt><trkpt lat="44.44294186214179" lon="11.277864352648724"><ele>72.75</ele><time>2026-05-01T08:45:31.999Z</time></trkpt><trkpt lat="44.44279726885763" lon="11.277829982163434"><ele>72.5</ele><time>2026-05-01T08:45:32.999Z</time></trkpt><trkpt lat="44.44266121167992" lon="11.277784562097146"><ele>72.25</ele><time>2026-05-01T08:45:33.999Z</time></trkpt><trkpt lat="44.44252491746264" lon="11.277744703436642"><ele>72.0</ele><time>2026-05-01T08:45:34.999Z</time></trkpt><trkpt lat="44.44238902991153" lon="11.27773951541809"><ele>72.0</ele><time>2026-05-01T08:45:35.999Z</time></trkpt><trkpt lat="44.44224852581797" lon="11.277737857162741"><ele>72.0</ele><time>2026-05-01T08:45:36.999Z</time></trkpt><trkpt lat="44.44210651882896" lon="11.277735076156961"><ele>72.0</ele><time>2026-05-01T08:45:37.999Z</time></trkpt><trkpt lat="44.441954966232394" lon="11.277721682953608"><ele>72.0</ele><time>2026-05-01T08:45:38.999Z</time></trkpt><trkpt lat="44.44180679186408" lon="11.277725041807315"><ele>72.0</ele><time>2026-05-01T08:45:39.999Z</time></trkpt><trkpt lat="44.441650951990994" lon="11.277715404618872"><ele>72.0</ele><time>2026-05-01T08:45:40.999Z</time></trkpt><trkpt lat="44.44150891797797" lon="11.277709722789918"><ele>72.0</ele><time>2026-05-01T08:45:41.999Z</time></trkpt><trkpt lat="44.44136422551639" lon="11.277699714831977"><ele>72.0</ele><time>2026-05-01T08:45:42.999Z</time></trkpt><trkpt lat="44.44121423000356" lon="11.277695970470468"><ele>72.0</ele><time>2026-05-01T08:45:43.999Z</time></trkpt><trkpt lat="44.441055354959374" lon="11.277689870329873"><ele>72.0</ele><time>2026-05-01T08:45:44.999Z</time></trkpt><trkpt lat="44.44091360136064" lon="11.277693408144064"><ele>72.0</ele><time>2026-05-01T08:45:45.999Z</time></trkpt><trkpt lat="44.440759043287315" lon="11.277688411308949"><ele>72.0</ele><time>2026-05-01T08:45:46.999Z</time></trkpt><trkpt lat="44.440599705113364" lon="11.277682226139733"><ele>72.0</ele><time>2026-05-01T08:45:47.999Z</time></trkpt><trkpt lat="44.44043963274938" lon="11.277676813557116"><ele>72.0</ele><time>2026-05-01T08:45:48.999Z</time></trkpt><trkpt lat="44.440281010183966" lon="11.277672518184866"><ele>72.0</ele><time>2026-05-01T08:45:49.999Z</time></trkpt><trkpt lat="44.44012453775213" lon="11.277661015352686"><ele>72.0</ele><time>2026-05-01T08:45:50.999Z</time></trkpt><trkpt lat="44.439971588894565" lon="11.277641976895854"><ele>72.0</ele><time>2026-05-01T08:45:51.999Z</time></trkpt><trkpt lat="44.43981974377069" lon="11.277612977500429"><ele>72.0</ele><time>2026-05-01T08:45:52.999Z</time></trkpt><trkpt lat="44.439668329956255" lon="11.277571908493096"><ele>72.0</ele><time>2026-05-01T08:45:53.999Z</time></trkpt><trkpt lat="44.43951127613589" lon="11.27752995871597"><ele>72.0</ele><time>2026-05-01T08:45:54.999Z</time></trkpt><trkpt lat="44.439354082442485" lon="11.27748947877376"><ele>71.66666666666667</ele><time>2026-05-01T08:45:55.999Z</time></trkpt><trkpt lat="44.43919450137573" lon="11.277452034375202"><ele>71.33333333333334</ele><time>2026-05-01T08:45:57Z</time></trkpt><trkpt lat="44.439034878556896" lon="11.27741646531886"><ele>71.0</ele><time>2026-05-01T08:45:58Z</time></trkpt><trkpt lat="44.43888066692089" lon="11.277378776418706"><ele>71.33333333333334</ele><time>2026-05-01T08:45:59Z</time></trkpt><trkpt lat="44.438724699409406" lon="11.277340499357972"><ele>71.66666666666667</ele><time>2026-05-01T08:46:00Z</time></trkpt><trkpt lat="44.438573411852836" lon="11.277301936384625"><ele>72.0</ele><time>2026-05-01T08:46:01Z</time></trkpt><trkpt lat="44.43842326814594" lon="11.277263217785324"><ele>72.0</ele><time>2026-05-01T08:46:02Z</time></trkpt><trkpt lat="44.43827452744449" lon="11.277228641105406"><ele>72.0</ele><time>2026-05-01T08:46:03Z</time></trkpt><trkpt lat="44.4381270074747" lon="11.277192109639797"><ele>72.0</ele><time>2026-05-01T08:46:04Z</time></trkpt><trkpt lat="44.437981731227175" lon="11.277155423468884"><ele>72.0</ele><time>2026-05-01T08:46:05Z</time></trkpt><trkpt lat="44.43783724565761" lon="11.27712091392579"><ele>72.25</ele><time>2026-05-01T08:46:06Z</time></trkpt><trkpt lat="44.437690803634666" lon="11.277088827243375"><ele>72.5</ele><time>2026-05-01T08:46:07Z</time></trkpt><trkpt lat="44.43754466850248" lon="11.277061180651042"><ele>72.75</ele><time>2026-05-01T08:46:08Z</time></trkpt><trkpt lat="44.43739820244967" lon="11.277032641340746"><ele>73.0</ele><time>2026-05-01T08:46:09Z</time></trkpt><trkpt lat="44.43724942279342" lon="11.276998251560816"><ele>72.66666666666666</ele><time>2026-05-01T08:46:10Z</time></trkpt><trkpt lat="44.437100774298365" lon="11.276961730006962"><ele>72.33333333333333</ele><time>2026-05-01T08:46:11Z</time></trkpt><trkpt lat="44.436951504925894" lon="11.276924307915529"><ele>72.0</ele><time>2026-05-01T08:46:12Z</time></trkpt><trkpt lat="44.43680611705053" lon="11.276891913974223"><ele>72.0</ele><time>2026-05-01T08:46:13Z</time></trkpt><trkpt lat="44.436656010022766" lon="11.27686318862252"><ele>72.0</ele><time>2026-05-01T08:46:14Z</time></trkpt><trkpt lat="44.436503089302114" lon="11.276834491284076"><ele>72.0</ele><time>2026-05-01T08:46:15Z</time></trkpt><trkpt lat="44.436353623719796" lon="11.276798141708275"><ele>72.0</ele><time>2026-05-01T08:46:16Z</time></trkpt><trkpt lat="44.43620287910445" lon="11.276760781972724"><ele>72.0</ele><time>2026-05-01T08:46:17Z</time></trkpt><trkpt lat="44.43605373705935" lon="11.27672436135137"><ele>72.0</ele><time>2026-05-01T08:46:18Z</time></trkpt><trkpt lat="44.43590385183111" lon="11.276687230745654"><ele>72.0</ele><time>2026-05-01T08:46:19Z</time></trkpt><trkpt lat="44.435751621499435" lon="11.27664919596383"><ele>72.0</ele><time>2026-05-01T08:46:20Z</time></trkpt><trkpt lat="44.4355967210835" lon="11.276615803713748"><ele>72.0</ele><time>2026-05-01T08:46:21Z</time></trkpt><trkpt lat="44.43544176361245" lon="11.276584100125746"><ele>72.0</ele><time>2026-05-01T08:46:22Z</time></trkpt><trkpt lat="44.43528453712539" lon="11.276549856765048"><ele>72.0</ele><time>2026-05-01T08:46:23Z</time></trkpt><trkpt lat="44.435126638263455" lon="11.276518658787472"><ele>72.0</ele><time>2026-05-01T08:46:24Z</time></trkpt><trkpt lat="44.43497476322265" lon="11.276489529620088"><ele>72.0</ele><time>2026-05-01T08:46:25Z</time></trkpt><trkpt lat="44.434829153888" lon="11.276462340911264"><ele>72.0</ele><time>2026-05-01T08:46:26Z</time></trkpt><trkpt lat="44.43469676449174" lon="11.276428764630333"><ele>72.0</ele><time>2026-05-01T08:46:27Z</time></trkpt><trkpt lat="44.4345832656851" lon="11.276366899463056"><ele>72.0</ele><time>2026-05-01T08:46:28Z</time></trkpt><trkpt lat="44.43452124001541" lon="11.27623468558764"><ele>72.4</ele><time>2026-05-01T08:46:29Z</time></trkpt><trkpt lat="44.434445153990715" lon="11.276133133463853"><ele>72.80000000000001</ele><time>2026-05-01T08:46:30Z</time></trkpt><trkpt lat="44.43437638630182" lon="11.276038406989285"><ele>73.2</ele><time>2026-05-01T08:46:31Z</time></trkpt><trkpt lat="44.434309507567384" lon="11.275946281108508"><ele>73.60000000000001</ele><time>2026-05-01T08:46:32Z</time></trkpt><trkpt lat="44.434236653825366" lon="11.2758459259409"><ele>74.0</ele><time>2026-05-01T08:46:33Z</time></trkpt><trkpt lat="44.43406043381069" lon="11.275888160297798"><ele>74.0</ele><time>2026-05-01T08:46:34Z</time></trkpt><trkpt lat="44.43393708101839" lon="11.27588177228805"><ele>74.0</ele><time>2026-05-01T08:46:35Z</time></trkpt><trkpt lat="44.43381596224932" lon="11.27585426320166"><ele>74.0</ele><time>2026-05-01T08:46:36Z</time></trkpt><trkpt lat="44.43369791570269" lon="11.275815945598536"><ele>74.0</ele><time>2026-05-01T08:46:37Z</time></trkpt><trkpt lat="44.433592234135695" lon="11.275763739767223"><ele>74.0</ele><time>2026-05-01T08:46:38Z</time></trkpt><trkpt lat="44.433509798588496" lon="11.275668858315454"><ele>74.0</ele><time>2026-05-01T08:46:39Z</time></trkpt><trkpt lat="44.43344028608556" lon="11.275569461532156"><ele>74.0</ele><time>2026-05-01T08:46:40Z</time></trkpt><trkpt lat="44.433378296106866" lon="11.275436816602147"><ele>74.0</ele><time>2026-05-01T08:46:41Z</time></trkpt><trkpt lat="44.43331596914991" lon="11.275289418204325"><ele>74.0</ele><time>2026-05-01T08:46:42Z</time></trkpt><trkpt lat="44.433247108267025" lon="11.275131217771094"><ele>74.0</ele><time>2026-05-01T08:46:42.999Z</time></trkpt><trkpt lat="44.433176789867005" lon="11.274972781787094"><ele>74.0</ele><time>2026-05-01T08:46:43.999Z</time></trkpt><trkpt lat="44.433107929176785" lon="11.27481146739856"><ele>74.0</ele><time>2026-05-01T08:46:44.999Z</time></trkpt><trkpt lat="44.43303923640086" lon="11.274659149922638"><ele>74.0</ele><time>2026-05-01T08:46:45.999Z</time></trkpt><trkpt lat="44.43296703186053" lon="11.274515691152413"><ele>74.0</ele><time>2026-05-01T08:46:46.999Z</time></trkpt><trkpt lat="44.43288799538683" lon="11.274378054611944"><ele>74.0</ele><time>2026-05-01T08:46:47.999Z</time></trkpt><trkpt lat="44.43279754306412" lon="11.27425919815556"><ele>74.0</ele><time>2026-05-01T08:46:48.999Z</time></trkpt><trkpt lat="44.43269707575131" lon="11.274166601879172"><ele>74.0</ele><time>2026-05-01T08:46:49.999Z</time></trkpt><trkpt lat="44.432595168777944" lon="11.274105110588245"><ele>74.0</ele><time>2026-05-01T08:46:50.999Z</time></trkpt><trkpt lat="44.43250262191461" lon="11.2740542444407"><ele>74.0</ele><time>2026-05-01T08:46:51.999Z</time></trkpt><trkpt lat="44.432431785265365" lon="11.273988839368426"><ele>74.0</ele><time>2026-05-01T08:46:52.999Z</time></trkpt><trkpt lat="44.432381942543124" lon="11.273909372109435"><ele>74.0</ele><time>2026-05-01T08:46:53.999Z</time></trkpt><trkpt lat="44.432304087239125" lon="11.27380902410338"><ele>74.0</ele><time>2026-05-01T08:46:55.999Z</time></trkpt><trkpt lat="44.432247320860846" lon="11.273736973014106"><ele>74.0</ele><time>2026-05-01T08:46:57.999Z</time></trkpt><trkpt lat="44.43207950951414" lon="11.273926546407305"><ele>74.60000000000001</ele><time>2026-05-01T08:46:59.999Z</time></trkpt><trkpt lat="44.4320221411022" lon="11.274049917928965"><ele>75.2</ele><time>2026-05-01T08:47:00.999Z</time></trkpt><trkpt lat="44.43197430338673" lon="11.274186732098595"><ele>75.80000000000001</ele><time>2026-05-01T08:47:01.999Z</time></trkpt><trkpt lat="44.4319259811604" lon="11.274330954720947"><ele>76.4</ele><time>2026-05-01T08:47:02.999Z</time></trkpt><trkpt lat="44.43186379318655" lon="11.27447472136361"><ele>77.0</ele><time>2026-05-01T08:47:03.999Z</time></trkpt><trkpt lat="44.43177855957528" lon="11.274613449338663"><ele>77.0</ele><time>2026-05-01T08:47:04.999Z</time></trkpt><trkpt lat="44.431671686732656" lon="11.274748245458667"><ele>77.0</ele><time>2026-05-01T08:47:05.999Z</time></trkpt><trkpt lat="44.43156856136164" lon="11.274885646247276"><ele>77.0</ele><time>2026-05-01T08:47:06.999Z</time></trkpt><trkpt lat="44.43146801057836" lon="11.275025379732588"><ele>77.0</ele><time>2026-05-01T08:47:07.999Z</time></trkpt><trkpt lat="44.43139381875886" lon="11.275191308259258"><ele>76.75</ele><time>2026-05-01T08:47:08.999Z</time></trkpt><trkpt lat="44.43131717793342" lon="11.275360843875516"><ele>76.5</ele><time>2026-05-01T08:47:09.999Z</time></trkpt><trkpt lat="44.43128901560151" lon="11.27556225329451"><ele>76.25</ele><time>2026-05-01T08:47:10.999Z</time></trkpt><trkpt lat="44.431277833497155" lon="11.275767928300015"><ele>76.0</ele><time>2026-05-01T08:47:11.999Z</time></trkpt><trkpt lat="44.431266279584776" lon="11.27596223238304"><ele>76.0</ele><time>2026-05-01T08:47:12.999Z</time></trkpt><trkpt lat="44.43124765255126" lon="11.276145086396987"><ele>76.0</ele><time>2026-05-01T08:47:13.999Z</time></trkpt><trkpt lat="44.431228787594556" lon="11.27631168496248"><ele>76.0</ele><time>2026-05-01T08:47:14.999Z</time></trkpt><trkpt lat="44.43121727701586" lon="11.276456320646954"><ele>76.0</ele><time>2026-05-01T08:47:15.999Z</time></trkpt><trkpt lat="44.43120125610741" lon="11.276573697752621"><ele>76.0</ele><time>2026-05-01T08:47:16.999Z</time></trkpt><trkpt lat="44.43116442880214" lon="11.276669586822765"><ele>75.5</ele><time>2026-05-01T08:47:17.999Z</time></trkpt><trkpt lat="44.43099965279607" lon="11.276739737654964"><ele>75.0</ele><time>2026-05-01T08:47:19.999Z</time></trkpt><trkpt lat="44.43089665113932" lon="11.27670282756473"><ele>74.5</ele><time>2026-05-01T08:47:20.999Z</time></trkpt><trkpt lat="44.430777574735735" lon="11.276646360084701"><ele>74.0</ele><time>2026-05-01T08:47:21.999Z</time></trkpt><trkpt lat="44.43064913737946" lon="11.276593212792053"><ele>74.0</ele><time>2026-05-01T08:47:22.999Z</time></trkpt><trkpt lat="44.43051188973982" lon="11.276547864046602"><ele>74.0</ele><time>2026-05-01T08:47:23.999Z</time></trkpt><trkpt lat="44.43036297828159" lon="11.276504870968196"><ele>74.0</ele><time>2026-05-01T08:47:24.999Z</time></trkpt><trkpt lat="44.430205449877086" lon="11.276452209648726"><ele>74.33333333333334</ele><time>2026-05-01T08:47:25.999Z</time></trkpt><trkpt lat="44.430044367039365" lon="11.276393130831051"><ele>74.66666666666667</ele><time>2026-05-01T08:47:26.999Z</time></trkpt><trkpt lat="44.42987443301668" lon="11.276333598913816"><ele>75.0</ele><time>2026-05-01T08:47:27.999Z</time></trkpt><trkpt lat="44.429703127044554" lon="11.276274570216941"><ele>74.66666666666667</ele><time>2026-05-01T08:47:28.999Z</time></trkpt><trkpt lat="44.42953091124443" lon="11.276212869267345"><ele>74.33333333333334</ele><time>2026-05-01T08:47:29.999Z</time></trkpt><trkpt lat="44.429357326355024" lon="11.27614515080204"><ele>74.0</ele><time>2026-05-01T08:47:30.999Z</time></trkpt><trkpt lat="44.42918088257996" lon="11.276064547152554"><ele>74.0</ele><time>2026-05-01T08:47:31.999Z</time></trkpt><trkpt lat="44.42900682759629" lon="11.27597083835862"><ele>74.0</ele><time>2026-05-01T08:47:32.999Z</time></trkpt><trkpt lat="44.428831626911794" lon="11.27587090082675"><ele>74.0</ele><time>2026-05-01T08:47:33.999Z</time></trkpt><trkpt lat="44.42865899378665" lon="11.275763338423475"><ele>74.0</ele><time>2026-05-01T08:47:34.999Z</time></trkpt><trkpt lat="44.428475334068736" lon="11.275716049101707"><ele>74.0</ele><time>2026-05-01T08:47:35.999Z</time></trkpt><trkpt lat="44.42831276949678" lon="11.275539159133965"><ele>74.0</ele><time>2026-05-01T08:47:36.999Z</time></trkpt><trkpt lat="44.42814059563757" lon="11.275429770238624"><ele>74.66666666666667</ele><time>2026-05-01T08:47:37.999Z</time></trkpt><trkpt lat="44.427973155413625" lon="11.275322145493986"><ele>75.33333333333333</ele><time>2026-05-01T08:47:38.999Z</time></trkpt><trkpt lat="44.4278080061898" lon="11.275217585712296"><ele>76.0</ele><time>2026-05-01T08:47:39.999Z</time></trkpt><trkpt lat="44.42764365191453" lon="11.275112181623491"><ele>76.0</ele><time>2026-05-01T08:47:40.999Z</time></trkpt><trkpt lat="44.4274770565482" lon="11.275004518632747"><ele>76.0</ele><time>2026-05-01T08:47:41.999Z</time></trkpt><trkpt lat="44.42731030157798" lon="11.274896619920701"><ele>76.0</ele><time>2026-05-01T08:47:42.999Z</time></trkpt><trkpt lat="44.42714627332344" lon="11.274769970530743"><ele>76.33333333333333</ele><time>2026-05-01T08:47:43.999Z</time></trkpt><trkpt lat="44.426973249498566" lon="11.274657180450255"><ele>76.66666666666667</ele><time>2026-05-01T08:47:44.999Z</time></trkpt><trkpt lat="44.42679646256597" lon="11.27454368448046"><ele>77.0</ele><time>2026-05-01T08:47:45.999Z</time></trkpt><trkpt lat="44.42661564760124" lon="11.274429682929572"><ele>77.0</ele><time>2026-05-01T08:47:46.999Z</time></trkpt><trkpt lat="44.42643128915104" lon="11.274316058209529"><ele>77.0</ele><time>2026-05-01T08:47:47.999Z</time></trkpt><trkpt lat="44.42624834090781" lon="11.274204156998168"><ele>77.0</ele><time>2026-05-01T08:47:48.999Z</time></trkpt><trkpt lat="44.426067539091534" lon="11.2740948039593"><ele>78.33333333333334</ele><time>2026-05-01T08:47:49.999Z</time></trkpt><trkpt lat="44.42588349533681" lon="11.274004213504908"><ele>79.66666666666667</ele><time>2026-05-01T08:47:50.999Z</time></trkpt><trkpt lat="44.42570787996202" lon="11.273891392524266"><ele>81.0</ele><time>2026-05-01T08:47:51.999Z</time></trkpt><trkpt lat="44.42553388796762" lon="11.273784143374263"><ele>82.33333333333333</ele><time>2026-05-01T08:47:52.999Z</time></trkpt><trkpt lat="44.42535694169702" lon="11.273676799123864"><ele>83.66666666666666</ele><time>2026-05-01T08:47:53.999Z</time></trkpt><trkpt lat="44.42518177307935" lon="11.2735701725719"><ele>85.0</ele><time>2026-05-01T08:47:54.999Z</time></trkpt><trkpt lat="44.42500695836496" lon="11.27346535529268"><ele>85.0</ele><time>2026-05-01T08:47:55.999Z</time></trkpt><trkpt lat="44.424843818760046" lon="11.27336897750356"><ele>85.0</ele><time>2026-05-01T08:47:56.999Z</time></trkpt><trkpt lat="44.42468877860051" lon="11.273284584742271"><ele>85.0</ele><time>2026-05-01T08:47:57.999Z</time></trkpt><trkpt lat="44.42454134161573" lon="11.273198246505594"><ele>85.0</ele><time>2026-05-01T08:47:58.999Z</time></trkpt><trkpt lat="44.424395777285795" lon="11.273114943825743"><ele>85.0</ele><time>2026-05-01T08:47:59.999Z</time></trkpt><trkpt lat="44.42424838091926" lon="11.273032432005401"><ele>85.0</ele><time>2026-05-01T08:48:00.999Z</time></trkpt><trkpt lat="44.42409716525749" lon="11.272946957766951"><ele>85.0</ele><time>2026-05-01T08:48:01.999Z</time></trkpt><trkpt lat="44.42393946477954" lon="11.272856970751702"><ele>85.0</ele><time>2026-05-01T08:48:03Z</time></trkpt><trkpt lat="44.42378552800892" lon="11.272769036868263"><ele>85.0</ele><time>2026-05-01T08:48:04Z</time></trkpt><trkpt lat="44.42362260166708" lon="11.272679627186157"><ele>85.0</ele><time>2026-05-01T08:48:05Z</time></trkpt><trkpt lat="44.423460459719166" lon="11.272582900646585"><ele>85.0</ele><time>2026-05-01T08:48:06Z</time></trkpt><trkpt lat="44.423293470960786" lon="11.272491486585297"><ele>85.0</ele><time>2026-05-01T08:48:07Z</time></trkpt><trkpt lat="44.42312186424806" lon="11.272400484394995"><ele>86.33333333333333</ele><time>2026-05-01T08:48:08Z</time></trkpt><trkpt lat="44.42296068089809" lon="11.272303279705985"><ele>87.66666666666667</ele><time>2026-05-01T08:48:09Z</time></trkpt><trkpt lat="44.42278813194337" lon="11.272210251897103"><ele>89.0</ele><time>2026-05-01T08:48:10Z</time></trkpt><trkpt lat="44.4226248904223" lon="11.272120423272296"><ele>89.33333333333334</ele><time>2026-05-01T08:48:11Z</time></trkpt><trkpt lat="44.42246655979441" lon="11.27202390330273"><ele>89.66666666666667</ele><time>2026-05-01T08:48:12Z</time></trkpt><trkpt lat="44.42230855198179" lon="11.27193412283681"><ele>90.0</ele><time>2026-05-01T08:48:13Z</time></trkpt><trkpt lat="44.422148746551294" lon="11.271840696024018"><ele>89.33333333333333</ele><time>2026-05-01T08:48:14Z</time></trkpt><trkpt lat="44.42198385903363" lon="11.271743986266006"><ele>88.66666666666666</ele><time>2026-05-01T08:48:15Z</time></trkpt><trkpt lat="44.42181989008696" lon="11.271649787415777"><ele>88.0</ele><time>2026-05-01T08:48:16Z</time></trkpt><trkpt lat="44.42164647487365" lon="11.27156196425795"><ele>88.0</ele><time>2026-05-01T08:48:17Z</time></trkpt><trkpt lat="44.42147685357216" lon="11.271465091395937"><ele>88.0</ele><time>2026-05-01T08:48:18Z</time></trkpt><trkpt lat="44.421303692889886" lon="11.271361647191707"><ele>88.0</ele><time>2026-05-01T08:48:19Z</time></trkpt><trkpt lat="44.42111886355167" lon="11.271262699563653"><ele>88.33333333333333</ele><time>2026-05-01T08:48:20Z</time></trkpt><trkpt lat="44.420933663917644" lon="11.271163553738628"><ele>88.66666666666667</ele><time>2026-05-01T08:48:21Z</time></trkpt><trkpt lat="44.42073742461505" lon="11.271083968472892"><ele>89.0</ele><time>2026-05-01T08:48:22Z</time></trkpt><trkpt lat="44.42055082688546" lon="11.270976794709465"><ele>88.66666666666667</ele><time>2026-05-01T08:48:23Z</time></trkpt><trkpt lat="44.42036116493448" lon="11.270884826879346"><ele>88.33333333333333</ele><time>2026-05-01T08:48:24Z</time></trkpt><trkpt lat="44.420170916167535" lon="11.270793493223179"><ele>88.0</ele><time>2026-05-01T08:48:25Z</time></trkpt><trkpt lat="44.41998367145192" lon="11.270702921020947"><ele>88.0</ele><time>2026-05-01T08:48:26Z</time></trkpt><trkpt lat="44.41980127260103" lon="11.270609557751984"><ele>88.0</ele><time>2026-05-01T08:48:27Z</time></trkpt><trkpt lat="44.419607230490904" lon="11.270512747615482"><ele>88.0</ele><time>2026-05-01T08:48:28Z</time></trkpt><trkpt lat="44.41941826224832" lon="11.270410812167672"><ele>88.66666666666666</ele><time>2026-05-01T08:48:29Z</time></trkpt><trkpt lat="44.41922809745873" lon="11.270311900280364"><ele>89.33333333333333</ele><time>2026-05-01T08:48:30Z</time></trkpt><trkpt lat="44.41903494457207" lon="11.270209418568518"><ele>90.0</ele><time>2026-05-01T08:48:31Z</time></trkpt><trkpt lat="44.41884121109903" lon="11.270106114683566"><ele>90.66666666666667</ele><time>2026-05-01T08:48:32Z</time></trkpt><trkpt lat="44.418643514894875" lon="11.269999269606744"><ele>91.33333333333334</ele><time>2026-05-01T08:48:33Z</time></trkpt><trkpt lat="44.41844367041863" lon="11.269892896534856"><ele>92.0</ele><time>2026-05-01T08:48:34Z</time></trkpt><trkpt lat="44.418247981072255" lon="11.269761849045594"><ele>92.0</ele><time>2026-05-01T08:48:35Z</time></trkpt><trkpt lat="44.41803875202666" lon="11.269665060880719"><ele>92.0</ele><time>2026-05-01T08:48:36Z</time></trkpt><trkpt lat="44.417840894642836" lon="11.269530821649802"><ele>92.0</ele><time>2026-05-01T08:48:37Z</time></trkpt><trkpt lat="44.417629174133424" lon="11.269435992977979"><ele>92.0</ele><time>2026-05-01T08:48:38Z</time></trkpt><trkpt lat="44.417425826388815" lon="11.269313007699965"><ele>92.0</ele><time>2026-05-01T08:48:39Z</time></trkpt><trkpt lat="44.41722013250866" lon="11.269190015165854"><ele>92.0</ele><time>2026-05-01T08:48:40Z</time></trkpt><trkpt lat="44.41701169754323" lon="11.26907511124209"><ele>92.0</ele><time>2026-05-01T08:48:41Z</time></trkpt><trkpt lat="44.41680048100599" lon="11.268970494920495"><ele>92.0</ele><time>2026-05-01T08:48:42Z</time></trkpt><trkpt lat="44.41658647675622" lon="11.26886940616285"><ele>91.5</ele><time>2026-05-01T08:48:43Z</time></trkpt><trkpt lat="44.41636101858577" lon="11.268780083995443"><ele>91.0</ele><time>2026-05-01T08:48:44Z</time></trkpt><trkpt lat="44.41613363619629" lon="11.268694374772727"><ele>91.0</ele><time>2026-05-01T08:48:45Z</time></trkpt><trkpt lat="44.41590289322286" lon="11.26861088043766"><ele>91.0</ele><time>2026-05-01T08:48:45.999Z</time></trkpt><trkpt lat="44.41567058617262" lon="11.268533881799671"><ele>90.5</ele><time>2026-05-01T08:48:46.999Z</time></trkpt><trkpt lat="44.41543503119773" lon="11.268453860924605"><ele>90.0</ele><time>2026-05-01T08:48:47.999Z</time></trkpt><trkpt lat="44.41519829074293" lon="11.268370911522059"><ele>90.0</ele><time>2026-05-01T08:48:48.999Z</time></trkpt><trkpt lat="44.414961084775264" lon="11.268284664649435"><ele>90.0</ele><time>2026-05-01T08:48:49.999Z</time></trkpt><trkpt lat="44.41472793670042" lon="11.268199468240331"><ele>89.5</ele><time>2026-05-01T08:48:50.999Z</time></trkpt><trkpt lat="44.41449151870333" lon="11.268119831302917"><ele>89.0</ele><time>2026-05-01T08:48:51.999Z</time></trkpt><trkpt lat="44.41425849905949" lon="11.268038232614613"><ele>90.5</ele><time>2026-05-01T08:48:52.999Z</time></trkpt><trkpt lat="44.41402911839643" lon="11.267961985313363"><ele>92.0</ele><time>2026-05-01T08:48:53.999Z</time></trkpt><trkpt lat="44.41380443060185" lon="11.267891327602268"><ele>93.5</ele><time>2026-05-01T08:48:54.999Z</time></trkpt><trkpt lat="44.41358075339756" lon="11.267820996121623"><ele>95.0</ele><time>2026-05-01T08:48:55.999Z</time></trkpt><trkpt lat="44.41335997450239" lon="11.267748051858398"><ele>95.0</ele><time>2026-05-01T08:48:56.999Z</time></trkpt><trkpt lat="44.41313642123305" lon="11.26767119773645"><ele>95.0</ele><time>2026-05-01T08:48:57.999Z</time></trkpt><trkpt lat="44.41291246615705" lon="11.26759115921779"><ele>95.0</ele><time>2026-05-01T08:48:58.999Z</time></trkpt><trkpt lat="44.41268660513752" lon="11.267507118376178"><ele>95.0</ele><time>2026-05-01T08:48:59.999Z</time></trkpt><trkpt lat="44.412460230801" lon="11.26742407739785"><ele>95.0</ele><time>2026-05-01T08:49:00.999Z</time></trkpt><trkpt lat="44.41223216266042" lon="11.26734536907299"><ele>95.0</ele><time>2026-05-01T08:49:01.999Z</time></trkpt><trkpt lat="44.412003043451364" lon="11.26726910454278"><ele>97.0</ele><time>2026-05-01T08:49:02.999Z</time></trkpt><trkpt lat="44.41177193225995" lon="11.267200850542462"><ele>99.0</ele><time>2026-05-01T08:49:03.999Z</time></trkpt><trkpt lat="44.41154176412213" lon="11.26714303621024"><ele>100.0</ele><time>2026-05-01T08:49:04.999Z</time></trkpt><trkpt lat="44.41131081307628" lon="11.267094909664726"><ele>101.0</ele><time>2026-05-01T08:49:05.999Z</time></trkpt><trkpt lat="44.41108046527681" lon="11.267053892156467"><ele>101.0</ele><time>2026-05-01T08:49:06.999Z</time></trkpt><trkpt lat="44.41084823705548" lon="11.267023401987046"><ele>101.0</ele><time>2026-05-01T08:49:07.999Z</time></trkpt><trkpt lat="44.41061986626028" lon="11.26700540095971"><ele>101.0</ele><time>2026-05-01T08:49:08.999Z</time></trkpt><trkpt lat="44.410395527510616" lon="11.267001811364564"><ele>101.0</ele><time>2026-05-01T08:49:09.999Z</time></trkpt><trkpt lat="44.41017354615968" lon="11.267004901805743"><ele>101.0</ele><time>2026-05-01T08:49:10.999Z</time></trkpt><trkpt lat="44.40995287165987" lon="11.267011910676086"><ele>101.0</ele><time>2026-05-01T08:49:11.999Z</time></trkpt><trkpt lat="44.40973629849423" lon="11.267017842362531"><ele>101.0</ele><time>2026-05-01T08:49:12.999Z</time></trkpt><trkpt lat="44.409525732360386" lon="11.267021132397119"><ele>101.0</ele><time>2026-05-01T08:49:13.999Z</time></trkpt><trkpt lat="44.409320192216974" lon="11.26701653023159"><ele>100.66666666666666</ele><time>2026-05-01T08:49:14.999Z</time></trkpt><trkpt lat="44.40912142039575" lon="11.267004682386933"><ele>100.33333333333334</ele><time>2026-05-01T08:49:15.999Z</time></trkpt><trkpt lat="44.408927455008076" lon="11.266981954825864"><ele>100.0</ele><time>2026-05-01T08:49:16.999Z</time></trkpt><trkpt lat="44.408738578502785" lon="11.26695013707661"><ele>99.0</ele><time>2026-05-01T08:49:17.999Z</time></trkpt><trkpt lat="44.40855664421679" lon="11.266901018786097"><ele>98.0</ele><time>2026-05-01T08:49:18.999Z</time></trkpt><trkpt lat="44.40837528091942" lon="11.26684304443948"><ele>97.0</ele><time>2026-05-01T08:49:19.999Z</time></trkpt><trkpt lat="44.408194827484515" lon="11.266780747226703"><ele>97.0</ele><time>2026-05-01T08:49:20.999Z</time></trkpt><trkpt lat="44.40801502059479" lon="11.266708168337106"><ele>97.0</ele><time>2026-05-01T08:49:21.999Z</time></trkpt><trkpt lat="44.40783953924151" lon="11.266619148613781"><ele>97.0</ele><time>2026-05-01T08:49:22.999Z</time></trkpt><trkpt lat="44.40766270391246" lon="11.266523035853105"><ele>96.33333333333334</ele><time>2026-05-01T08:49:23.999Z</time></trkpt><trkpt lat="44.40748405841378" lon="11.266422556110095"><ele>95.66666666666667</ele><time>2026-05-01T08:49:24.999Z</time></trkpt><trkpt lat="44.40730325241071" lon="11.266325899428832"><ele>95.0</ele><time>2026-05-01T08:49:25.999Z</time></trkpt><trkpt lat="44.40711779820331" lon="11.266239203208698"><ele>95.0</ele><time>2026-05-01T08:49:26.999Z</time></trkpt><trkpt lat="44.406933256637295" lon="11.266151641746243"><ele>95.0</ele><time>2026-05-01T08:49:27.999Z</time></trkpt><trkpt lat="44.4067423654343" lon="11.26607327496123"><ele>95.0</ele><time>2026-05-01T08:49:28.999Z</time></trkpt><trkpt lat="44.406546466113205" lon="11.266016035499637"><ele>95.0</ele><time>2026-05-01T08:49:29.999Z</time></trkpt><trkpt lat="44.40635217230187" lon="11.265976921355016"><ele>95.0</ele><time>2026-05-01T08:49:30.999Z</time></trkpt><trkpt lat="44.40616742921251" lon="11.265954526199325"><ele>95.0</ele><time>2026-05-01T08:49:31.999Z</time></trkpt><trkpt lat="44.40599249349675" lon="11.265945164913324"><ele>94.66666666666667</ele><time>2026-05-01T08:49:32.999Z</time></trkpt><trkpt lat="44.40582629781164" lon="11.265943985310214"><ele>94.33333333333333</ele><time>2026-05-01T08:49:33.999Z</time></trkpt><trkpt lat="44.40566722843259" lon="11.265947852777236"><ele>94.0</ele><time>2026-05-01T08:49:34.999Z</time></trkpt><trkpt lat="44.40551745392222" lon="11.265950349124175"><ele>94.5</ele><time>2026-05-01T08:49:35.999Z</time></trkpt><trkpt lat="44.40537371690193" lon="11.265950781834402"><ele>95.0</ele><time>2026-05-01T08:49:36.999Z</time></trkpt><trkpt lat="44.405237811290384" lon="11.2659490132719"><ele>95.5</ele><time>2026-05-01T08:49:37.999Z</time></trkpt><trkpt lat="44.40509975818179" lon="11.265939938749677"><ele>96.0</ele><time>2026-05-01T08:49:38.999Z</time></trkpt><trkpt lat="44.404957926693065" lon="11.265919244519328"><ele>96.0</ele><time>2026-05-01T08:49:39.999Z</time></trkpt><trkpt lat="44.40481422305561" lon="11.265881041171165"><ele>96.0</ele><time>2026-05-01T08:49:40.999Z</time></trkpt><trkpt lat="44.404668770409664" lon="11.265818873526097"><ele>96.0</ele><time>2026-05-01T08:49:41.999Z</time></trkpt><trkpt lat="44.40452488291864" lon="11.26573492503461"><ele>95.33333333333333</ele><time>2026-05-01T08:49:42.999Z</time></trkpt><trkpt lat="44.40438910670341" lon="11.265636968943957"><ele>94.66666666666666</ele><time>2026-05-01T08:49:43.999Z</time></trkpt><trkpt lat="44.404266412704594" lon="11.265522425175773"><ele>94.0</ele><time>2026-05-01T08:49:44.999Z</time></trkpt><trkpt lat="44.40414706889787" lon="11.265390524294379"><ele>96.0</ele><time>2026-05-01T08:49:45.999Z</time></trkpt><trkpt lat="44.404039317481825" lon="11.26524317276008"><ele>98.0</ele><time>2026-05-01T08:49:46.999Z</time></trkpt><trkpt lat="44.40394119237536" lon="11.265078459673026"><ele>100.0</ele><time>2026-05-01T08:49:47.999Z</time></trkpt><trkpt lat="44.40385068402439" lon="11.2649034942921"><ele>99.66666666666667</ele><time>2026-05-01T08:49:48.999Z</time></trkpt><trkpt lat="44.40377187237106" lon="11.264715789266523"><ele>99.33333333333334</ele><time>2026-05-01T08:49:49.999Z</time></trkpt><trkpt lat="44.40369414298748" lon="11.264511604805898"><ele>99.0</ele><time>2026-05-01T08:49:50.999Z</time></trkpt><trkpt lat="44.40361151619356" lon="11.264310392087257"><ele>99.0</ele><time>2026-05-01T08:49:51.999Z</time></trkpt><trkpt lat="44.40353498157198" lon="11.264099225550371"><ele>99.0</ele><time>2026-05-01T08:49:52.999Z</time></trkpt><trkpt lat="44.40344888282449" lon="11.263910131652857"><ele>99.0</ele><time>2026-05-01T08:49:53.999Z</time></trkpt><trkpt lat="44.40337197628767" lon="11.263733380986329"><ele>98.66666666666666</ele><time>2026-05-01T08:49:54.999Z</time></trkpt><trkpt lat="44.40328195821345" lon="11.26354732741548"><ele>98.33333333333333</ele><time>2026-05-01T08:49:55.999Z</time></trkpt><trkpt lat="44.403181042861966" lon="11.263353153183282"><ele>98.0</ele><time>2026-05-01T08:49:56.999Z</time></trkpt><trkpt lat="44.40305826529322" lon="11.263147049388985"><ele>98.0</ele><time>2026-05-01T08:49:57.999Z</time></trkpt><trkpt lat="44.40288096003364" lon="11.263025011666665"><ele>98.0</ele><time>2026-05-01T08:49:58.999Z</time></trkpt><trkpt lat="44.4027175538721" lon="11.262912186654441"><ele>98.0</ele><time>2026-05-01T08:49:59.999Z</time></trkpt><trkpt lat="44.40257764197335" lon="11.262793465995065"><ele>98.0</ele><time>2026-05-01T08:50:00.999Z</time></trkpt><trkpt lat="44.4024232128887" lon="11.262666824218995"><ele>98.0</ele><time>2026-05-01T08:50:01.999Z</time></trkpt><trkpt lat="44.402262227596665" lon="11.262518566643465"><ele>98.0</ele><time>2026-05-01T08:50:02.999Z</time></trkpt><trkpt lat="44.40209054493129" lon="11.262361216458013"><ele>98.33333333333333</ele><time>2026-05-01T08:50:03.999Z</time></trkpt><trkpt lat="44.401903366621056" lon="11.262204793972272"><ele>98.66666666666666</ele><time>2026-05-01T08:50:04.999Z</time></trkpt><trkpt lat="44.40170953834743" lon="11.262036995135235"><ele>99.0</ele><time>2026-05-01T08:50:05.999Z</time></trkpt><trkpt lat="44.40151464321422" lon="11.26185294197265"><ele>100.0</ele><time>2026-05-01T08:50:06.999Z</time></trkpt><trkpt lat="44.401316025968136" lon="11.261682671256448"><ele>101.0</ele><time>2026-05-01T08:50:07.999Z</time></trkpt><trkpt lat="44.4011133458124" lon="11.261521202365634"><ele>100.5</ele><time>2026-05-01T08:50:09Z</time></trkpt><trkpt lat="44.40091461056187" lon="11.261354262542204"><ele>100.0</ele><time>2026-05-01T08:50:10Z</time></trkpt><trkpt lat="44.40071663810066" lon="11.261178050502343"><ele>100.0</ele><time>2026-05-01T08:50:11Z</time></trkpt><trkpt lat="44.400520581916375" lon="11.260997198396938"><ele>100.0</ele><time>2026-05-01T08:50:12Z</time></trkpt><trkpt lat="44.400320903732236" lon="11.260816930563708"><ele>100.0</ele><time>2026-05-01T08:50:13Z</time></trkpt><trkpt lat="44.400118306846856" lon="11.260640213227836"><ele>100.0</ele><time>2026-05-01T08:50:14Z</time></trkpt><trkpt lat="44.3999132552608" lon="11.260467390296277"><ele>100.5</ele><time>2026-05-01T08:50:15Z</time></trkpt><trkpt lat="44.399708116400056" lon="11.260289912426916"><ele>101.0</ele><time>2026-05-01T08:50:16Z</time></trkpt><trkpt lat="44.399501195489854" lon="11.260108019790966"><ele>101.0</ele><time>2026-05-01T08:50:17Z</time></trkpt><trkpt lat="44.39929185275366" lon="11.259925868567715"><ele>101.0</ele><time>2026-05-01T08:50:18Z</time></trkpt><trkpt lat="44.3990814296701" lon="11.259742164993606"><ele>101.0</ele><time>2026-05-01T08:50:19Z</time></trkpt><trkpt lat="44.39886687160814" lon="11.259557784238"><ele>101.0</ele><time>2026-05-01T08:50:20Z</time></trkpt><trkpt lat="44.39865940059768" lon="11.259365052661066"><ele>101.0</ele><time>2026-05-01T08:50:21Z</time></trkpt><trkpt lat="44.398458245149094" lon="11.259152999126133"><ele>101.0</ele><time>2026-05-01T08:50:22Z</time></trkpt><trkpt lat="44.39826174266579" lon="11.258923404114055"><ele>101.5</ele><time>2026-05-01T08:50:23Z</time></trkpt><trkpt lat="44.398062750885664" lon="11.258691593143006"><ele>102.0</ele><time>2026-05-01T08:50:24Z</time></trkpt><trkpt lat="44.39785805023362" lon="11.258469281315815"><ele>102.0</ele><time>2026-05-01T08:50:25Z</time></trkpt><trkpt lat="44.39765005013864" lon="11.25825418254724"><ele>102.0</ele><time>2026-05-01T08:50:26Z</time></trkpt><trkpt lat="44.39744381974681" lon="11.2580362620668"><ele>102.0</ele><time>2026-05-01T08:50:27Z</time></trkpt><trkpt lat="44.397240610314654" lon="11.257821573099841"><ele>102.0</ele><time>2026-05-01T08:50:28Z</time></trkpt><trkpt lat="44.3970290944206" lon="11.257624656803797"><ele>102.5</ele><time>2026-05-01T08:50:29Z</time></trkpt><trkpt lat="44.39680669565246" lon="11.25746233745514"><ele>103.0</ele><time>2026-05-01T08:50:30Z</time></trkpt><trkpt lat="44.3965769197386" lon="11.25733636655782"><ele>104.0</ele><time>2026-05-01T08:50:31Z</time></trkpt><trkpt lat="44.39633765616569" lon="11.25725169009443"><ele>105.0</ele><time>2026-05-01T08:50:32Z</time></trkpt><trkpt lat="44.396091827494296" lon="11.257193816624582"><ele>103.0</ele><time>2026-05-01T08:50:33Z</time></trkpt><trkpt lat="44.39584772496411" lon="11.25715657116203"><ele>101.0</ele><time>2026-05-01T08:50:34Z</time></trkpt><trkpt lat="44.39560205293817" lon="11.257149927317048"><ele>99.5</ele><time>2026-05-01T08:50:35Z</time></trkpt><trkpt lat="44.39535729412528" lon="11.257175979784355"><ele>98.0</ele><time>2026-05-01T08:50:36Z</time></trkpt><trkpt lat="44.39511694313717" lon="11.257226583708011"><ele>95.5</ele><time>2026-05-01T08:50:37Z</time></trkpt><trkpt lat="44.39488038755081" lon="11.257316550875547"><ele>93.0</ele><time>2026-05-01T08:50:38Z</time></trkpt><trkpt lat="44.39464567936065" lon="11.257407068671123"><ele>92.5</ele><time>2026-05-01T08:50:39Z</time></trkpt><trkpt lat="44.39440893462178" lon="11.25750134736783"><ele>92.0</ele><time>2026-05-01T08:50:40Z</time></trkpt><trkpt lat="44.39416964208279" lon="11.257592858455224"><ele>92.0</ele><time>2026-05-01T08:50:41Z</time></trkpt><trkpt lat="44.39393120333552" lon="11.257680849850358"><ele>92.0</ele><time>2026-05-01T08:50:41.999Z</time></trkpt><trkpt lat="44.39369476471171" lon="11.257766776407367"><ele>91.0</ele><time>2026-05-01T08:50:42.999Z</time></trkpt><trkpt lat="44.39345166761851" lon="11.257855646529684"><ele>90.0</ele><time>2026-05-01T08:50:43.999Z</time></trkpt><trkpt lat="44.39321283808916" lon="11.257943847820437"><ele>90.5</ele><time>2026-05-01T08:50:44.999Z</time></trkpt><trkpt lat="44.39297546178309" lon="11.258034826464785"><ele>91.0</ele><time>2026-05-01T08:50:45.999Z</time></trkpt><trkpt lat="44.39274295012434" lon="11.25812542400242"><ele>93.0</ele><time>2026-05-01T08:50:46.999Z</time></trkpt><trkpt lat="44.392512477106266" lon="11.258212716809114"><ele>95.0</ele><time>2026-05-01T08:50:47.999Z</time></trkpt><trkpt lat="44.39228129067705" lon="11.258289747354626"><ele>100.0</ele><time>2026-05-01T08:50:48.999Z</time></trkpt><trkpt lat="44.39204683125597" lon="11.258334477138352"><ele>105.0</ele><time>2026-05-01T08:50:49.999Z</time></trkpt><trkpt lat="44.39181775642965" lon="11.258343475806553"><ele>105.0</ele><time>2026-05-01T08:50:50.999Z</time></trkpt><trkpt lat="44.391589130310386" lon="11.258322909590381"><ele>105.0</ele><time>2026-05-01T08:50:51.999Z</time></trkpt><trkpt lat="44.391366512657754" lon="11.258268191110576"><ele>106.66666666666666</ele><time>2026-05-01T08:50:52.999Z</time></trkpt><trkpt lat="44.39115331607167" lon="11.258187617302653"><ele>108.33333333333333</ele><time>2026-05-01T08:50:53.999Z</time></trkpt><trkpt lat="44.3909513347658" lon="11.258074837065097"><ele>110.0</ele><time>2026-05-01T08:50:54.999Z</time></trkpt><trkpt lat="44.39076361708977" lon="11.257937726599232"><ele>110.0</ele><time>2026-05-01T08:50:55.999Z</time></trkpt><trkpt lat="44.39058311738202" lon="11.257769338775729"><ele>110.0</ele><time>2026-05-01T08:50:56.999Z</time></trkpt><trkpt lat="44.390416984480225" lon="11.257579179636133"><ele>110.0</ele><time>2026-05-01T08:50:57.999Z</time></trkpt><trkpt lat="44.39026209375829" lon="11.25737249166519"><ele>110.0</ele><time>2026-05-01T08:50:58.999Z</time></trkpt><trkpt lat="44.3901195128771" lon="11.257130338107517"><ele>110.0</ele><time>2026-05-01T08:50:59.999Z</time></trkpt><trkpt lat="44.3899958179534" lon="11.256868673177813"><ele>110.0</ele><time>2026-05-01T08:51:00.999Z</time></trkpt><trkpt lat="44.38989056040458" lon="11.256601680194885"><ele>112.0</ele><time>2026-05-01T08:51:01.999Z</time></trkpt><trkpt lat="44.38980832059196" lon="11.256312237507972"><ele>114.0</ele><time>2026-05-01T08:51:02.999Z</time></trkpt><trkpt lat="44.38974784526509" lon="11.256022529831737"><ele>116.0</ele><time>2026-05-01T08:51:03.999Z</time></trkpt><trkpt lat="44.38970889321287" lon="11.255724407302063"><ele>117.0</ele><time>2026-05-01T08:51:04.999Z</time></trkpt><trkpt lat="44.38967912107679" lon="11.255413890181394"><ele>118.0</ele><time>2026-05-01T08:51:05.999Z</time></trkpt><trkpt lat="44.38965419225977" lon="11.255103428161089"><ele>119.0</ele><time>2026-05-01T08:51:06.999Z</time></trkpt><trkpt lat="44.38962895793596" lon="11.254791299632776"><ele>119.66666666666666</ele><time>2026-05-01T08:51:07.999Z</time></trkpt><trkpt lat="44.38960517652447" lon="11.254481702925652"><ele>120.33333333333334</ele><time>2026-05-01T08:51:08.999Z</time></trkpt><trkpt lat="44.38958127691692" lon="11.254169433223781"><ele>121.0</ele><time>2026-05-01T08:51:09.999Z</time></trkpt><trkpt lat="44.38955621617806" lon="11.253850827089135"><ele>121.33333333333334</ele><time>2026-05-01T08:51:10.999Z</time></trkpt><trkpt lat="44.389531263713614" lon="11.25353359728928"><ele>121.66666666666666</ele><time>2026-05-01T08:51:11.999Z</time></trkpt><trkpt lat="44.38950721030396" lon="11.253227797491785"><ele>122.0</ele><time>2026-05-01T08:51:12.999Z</time></trkpt><trkpt lat="44.38943103010542" lon="11.252922896637967"><ele>122.0</ele><time>2026-05-01T08:51:13.999Z</time></trkpt><trkpt lat="44.38941112366957" lon="11.252611204030043"><ele>122.0</ele><time>2026-05-01T08:51:14.999Z</time></trkpt><trkpt lat="44.389379349262434" lon="11.252308318024678"><ele>122.0</ele><time>2026-05-01T08:51:15.999Z</time></trkpt><trkpt lat="44.38925753208809" lon="11.252029956929796"><ele>122.0</ele><time>2026-05-01T08:51:16.999Z</time></trkpt><trkpt lat="44.38920931474285" lon="11.251745369578817"><ele>122.0</ele><time>2026-05-01T08:51:17.999Z</time></trkpt><trkpt lat="44.38916036520229" lon="11.251492701210642"><ele>122.0</ele><time>2026-05-01T08:51:18.999Z</time></trkpt><trkpt lat="44.38909987709789" lon="11.251270632396723"><ele>122.19999999999999</ele><time>2026-05-01T08:51:19.999Z</time></trkpt><trkpt lat="44.389046075560756" lon="11.25109141274959"><ele>122.39999999999999</ele><time>2026-05-01T08:51:20.999Z</time></trkpt><trkpt lat="44.38900177124339" lon="11.250943829474066"><ele>122.60000000000001</ele><time>2026-05-01T08:51:21.999Z</time></trkpt><trkpt lat="44.3889772410019" lon="11.250832181716559"><ele>122.80000000000001</ele><time>2026-05-01T08:51:22.999Z</time></trkpt><trkpt lat="44.3889654504171" lon="11.250708745158406"><ele>123.0</ele><time>2026-05-01T08:51:24.999Z</time></trkpt><trkpt lat="44.38941568995727" lon="11.250291748479965"><ele>122.5</ele><time>2026-05-01T08:51:25.999Z</time></trkpt><trkpt lat="44.38937662998685" lon="11.250143031302791"><ele>122.0</ele><time>2026-05-01T08:51:26.999Z</time></trkpt><trkpt lat="44.389305468746606" lon="11.25000441764872"><ele>121.5</ele><time>2026-05-01T08:51:27.999Z</time></trkpt><trkpt lat="44.389269017651536" lon="11.249839602049937"><ele>121.0</ele><time>2026-05-01T08:51:28.999Z</time></trkpt><trkpt lat="44.38926878343494" lon="11.249647434910448"><ele>120.66666666666667</ele><time>2026-05-01T08:51:29.999Z</time></trkpt><trkpt lat="44.38925998435666" lon="11.24943745491181"><ele>120.33333333333334</ele><time>2026-05-01T08:51:30.999Z</time></trkpt><trkpt lat="44.389218805830225" lon="11.249227004183737"><ele>120.0</ele><time>2026-05-01T08:51:31.999Z</time></trkpt><trkpt lat="44.389150904531135" lon="11.249022391626927"><ele>117.33333333333334</ele><time>2026-05-01T08:51:32.999Z</time></trkpt><trkpt lat="44.38907012233407" lon="11.248825522874228"><ele>114.66666666666667</ele><time>2026-05-01T08:51:33.999Z</time></trkpt><trkpt lat="44.38898227241927" lon="11.248635073330803"><ele>112.0</ele><time>2026-05-01T08:51:34.999Z</time></trkpt><trkpt lat="44.38889576992132" lon="11.248452033870798"><ele>114.25</ele><time>2026-05-01T08:51:35.999Z</time></trkpt><trkpt lat="44.388812050347106" lon="11.248271579459727"><ele>116.5</ele><time>2026-05-01T08:51:36.999Z</time></trkpt><trkpt lat="44.388739236114475" lon="11.248102103523188"><ele>118.75</ele><time>2026-05-01T08:51:37.999Z</time></trkpt><trkpt lat="44.38867661798006" lon="11.247960507974469"><ele>121.0</ele><time>2026-05-01T08:51:38.999Z</time></trkpt><trkpt lat="44.3886323938371" lon="11.247859225821719"><ele>121.0</ele><time>2026-05-01T08:51:39.999Z</time></trkpt><trkpt lat="44.38861237085728" lon="11.24776913843638"><ele>121.0</ele><time>2026-05-01T08:51:40.999Z</time></trkpt><trkpt lat="44.38868283101487" lon="11.24764493686351"><ele>121.0</ele><time>2026-05-01T08:51:42.999Z</time></trkpt><trkpt lat="44.388754162714974" lon="11.24764521180833"><ele>121.0</ele><time>2026-05-01T08:51:43.999Z</time></trkpt><trkpt lat="44.38882037968533" lon="11.24772296853337"><ele>121.0</ele><time>2026-05-01T08:51:44.999Z</time></trkpt><trkpt lat="44.388895397871416" lon="11.247861949890464"><ele>118.75</ele><time>2026-05-01T08:51:45.999Z</time></trkpt><trkpt lat="44.388969423851584" lon="11.248026983912473"><ele>116.5</ele><time>2026-05-01T08:51:46.999Z</time></trkpt><trkpt lat="44.38902648223823" lon="11.248212587582765"><ele>114.25</ele><time>2026-05-01T08:51:47.999Z</time></trkpt><trkpt lat="44.38907899837835" lon="11.248411258610513"><ele>112.0</ele><time>2026-05-01T08:51:48.999Z</time></trkpt><trkpt lat="44.38914315192327" lon="11.24861221724523"><ele>112.0</ele><time>2026-05-01T08:51:49.999Z</time></trkpt><trkpt lat="44.38921649553362" lon="11.248814572195894"><ele>112.0</ele><time>2026-05-01T08:51:50.999Z</time></trkpt><trkpt lat="44.38929023958517" lon="11.249017643973627"><ele>112.0</ele><time>2026-05-01T08:51:51.999Z</time></trkpt><trkpt lat="44.38936453155762" lon="11.24922724119554"><ele>114.66666666666667</ele><time>2026-05-01T08:51:52.999Z</time></trkpt><trkpt lat="44.389435094518326" lon="11.249440288035938"><ele>117.33333333333334</ele><time>2026-05-01T08:51:53.999Z</time></trkpt><trkpt lat="44.38950142255926" lon="11.24965086471887"><ele>120.0</ele><time>2026-05-01T08:51:54.999Z</time></trkpt><trkpt lat="44.38956565380404" lon="11.249856232119377"><ele>120.33333333333334</ele><time>2026-05-01T08:51:55.999Z</time></trkpt><trkpt lat="44.38962872953454" lon="11.250055611380345"><ele>120.66666666666667</ele><time>2026-05-01T08:51:56.999Z</time></trkpt><trkpt lat="44.389685318350246" lon="11.250254697311401"><ele>121.0</ele><time>2026-05-01T08:51:57.999Z</time></trkpt><trkpt lat="44.389733701263225" lon="11.250445623668957"><ele>119.19999999999999</ele><time>2026-05-01T08:51:58.999Z</time></trkpt><trkpt lat="44.38976830005339" lon="11.250620057041095"><ele>117.39999999999999</ele><time>2026-05-01T08:51:59.999Z</time></trkpt><trkpt lat="44.38978822528136" lon="11.250767959512139"><ele>115.6</ele><time>2026-05-01T08:52:00.999Z</time></trkpt><trkpt lat="44.38980161851655" lon="11.250892063814609"><ele>113.8</ele><time>2026-05-01T08:52:01.999Z</time></trkpt><trkpt lat="44.389819030128216" lon="11.251023396325282"><ele>112.0</ele><time>2026-05-01T08:52:02.999Z</time></trkpt><trkpt lat="44.38984040021527" lon="11.251168719482477"><ele>112.0</ele><time>2026-05-01T08:52:03.999Z</time></trkpt><trkpt lat="44.38985797183647" lon="11.251325019567782"><ele>112.0</ele><time>2026-05-01T08:52:04.999Z</time></trkpt><trkpt lat="44.389877182456665" lon="11.251488304394645"><ele>112.0</ele><time>2026-05-01T08:52:05.999Z</time></trkpt><trkpt lat="44.38989693687547" lon="11.251657072274169"><ele>112.0</ele><time>2026-05-01T08:52:06.999Z</time></trkpt><trkpt lat="44.389913681330604" lon="11.251833511144339"><ele>112.25</ele><time>2026-05-01T08:52:07.998Z</time></trkpt><trkpt lat="44.38992950085302" lon="11.25201434870394"><ele>112.5</ele><time>2026-05-01T08:52:08.998Z</time></trkpt><trkpt lat="44.38994531466963" lon="11.252201777424114"><ele>112.75</ele><time>2026-05-01T08:52:09.998Z</time></trkpt><trkpt lat="44.38996850144662" lon="11.252394107022957"><ele>113.0</ele><time>2026-05-01T08:52:10.998Z</time></trkpt><trkpt lat="44.38998663497169" lon="11.252589290213404"><ele>113.0</ele><time>2026-05-01T08:52:11.998Z</time></trkpt><trkpt lat="44.39000216047669" lon="11.25278610704061"><ele>113.0</ele><time>2026-05-01T08:52:12.998Z</time></trkpt><trkpt lat="44.390025356701415" lon="11.252992271889978"><ele>113.0</ele><time>2026-05-01T08:52:13.998Z</time></trkpt><trkpt lat="44.39004873994182" lon="11.253203574454778"><ele>113.0</ele><time>2026-05-01T08:52:15Z</time></trkpt><trkpt lat="44.39007560711538" lon="11.253413289136141"><ele>113.0</ele><time>2026-05-01T08:52:16Z</time></trkpt><trkpt lat="44.3901127403163" lon="11.25362472888026"><ele>113.0</ele><time>2026-05-01T08:52:17Z</time></trkpt><trkpt lat="44.39016412170468" lon="11.253833485407737"><ele>113.0</ele><time>2026-05-01T08:52:18Z</time></trkpt><trkpt lat="44.39023579197364" lon="11.254031697670664"><ele>113.0</ele><time>2026-05-01T08:52:19Z</time></trkpt><trkpt lat="44.390312629161116" lon="11.254224238976187"><ele>113.0</ele><time>2026-05-01T08:52:20Z</time></trkpt><trkpt lat="44.39038838500275" lon="11.254416556264859"><ele>113.0</ele><time>2026-05-01T08:52:21Z</time></trkpt><trkpt lat="44.39046211698688" lon="11.254614252178632"><ele>110.0</ele><time>2026-05-01T08:52:22Z</time></trkpt><trkpt lat="44.39052803739501" lon="11.254818118100125"><ele>107.0</ele><time>2026-05-01T08:52:23Z</time></trkpt><trkpt lat="44.390581557286524" lon="11.255028043556509"><ele>104.0</ele><time>2026-05-01T08:52:24Z</time></trkpt><trkpt lat="44.39062119112748" lon="11.255246507811824"><ele>104.0</ele><time>2026-05-01T08:52:25Z</time></trkpt><trkpt lat="44.390649582620235" lon="11.25546786857374"><ele>104.0</ele><time>2026-05-01T08:52:26Z</time></trkpt><trkpt lat="44.39067378509034" lon="11.25569189443012"><ele>104.0</ele><time>2026-05-01T08:52:27Z</time></trkpt><trkpt lat="44.39070295375595" lon="11.255914834180793"><ele>105.0</ele><time>2026-05-01T08:52:28Z</time></trkpt><trkpt lat="44.39073384792663" lon="11.256132268859576"><ele>106.0</ele><time>2026-05-01T08:52:29Z</time></trkpt><trkpt lat="44.39077413105492" lon="11.256349758084365"><ele>107.0</ele><time>2026-05-01T08:52:30Z</time></trkpt><trkpt lat="44.390826912085295" lon="11.256562872805565"><ele>107.0</ele><time>2026-05-01T08:52:31Z</time></trkpt><trkpt lat="44.390882188215905" lon="11.256770376029328"><ele>107.0</ele><time>2026-05-01T08:52:32Z</time></trkpt><trkpt lat="44.390945964274174" lon="11.256977780892104"><ele>107.0</ele><time>2026-05-01T08:52:33Z</time></trkpt><trkpt lat="44.39100532764443" lon="11.257181637977432"><ele>107.75</ele><time>2026-05-01T08:52:34Z</time></trkpt><trkpt lat="44.391062300781115" lon="11.25737899223932"><ele>108.5</ele><time>2026-05-01T08:52:35Z</time></trkpt><trkpt lat="44.391112889161164" lon="11.257561230942017"><ele>109.25</ele><time>2026-05-01T08:52:36Z</time></trkpt><trkpt lat="44.39116380365634" lon="11.257727295202521"><ele>110.0</ele><time>2026-05-01T08:52:37Z</time></trkpt><trkpt lat="44.39123596442259" lon="11.257879370634013"><ele>110.0</ele><time>2026-05-01T08:52:38Z</time></trkpt><trkpt lat="44.391303743903975" lon="11.257996787771848"><ele>110.0</ele><time>2026-05-01T08:52:38.999Z</time></trkpt><trkpt lat="44.391379215462514" lon="11.258093317581723"><ele>110.0</ele><time>2026-05-01T08:52:39.999Z</time></trkpt><trkpt lat="44.391460227564195" lon="11.25815544363964"><ele>110.0</ele><time>2026-05-01T08:52:40.999Z</time></trkpt><trkpt lat="44.39154825330768" lon="11.258188906558562"><ele>110.0</ele><time>2026-05-01T08:52:41.999Z</time></trkpt><trkpt lat="44.391634258801396" lon="11.258200861329188"><ele>109.16666666666666</ele><time>2026-05-01T08:52:42.999Z</time></trkpt><trkpt lat="44.3917191649779" lon="11.258195241319568"><ele>108.33333333333333</ele><time>2026-05-01T08:52:43.999Z</time></trkpt><trkpt lat="44.39179694486994" lon="11.258176569927985"><ele>107.5</ele><time>2026-05-01T08:52:44.999Z</time></trkpt><trkpt lat="44.39187528145579" lon="11.258139550391155"><ele>106.66666666666666</ele><time>2026-05-01T08:52:45.999Z</time></trkpt><trkpt lat="44.39194999171387" lon="11.25809560020077"><ele>105.83333333333333</ele><time>2026-05-01T08:52:46.999Z</time></trkpt><trkpt lat="44.392023478648575" lon="11.258062052064394"><ele>105.0</ele><time>2026-05-01T08:52:47.999Z</time></trkpt><trkpt lat="44.39209018489661" lon="11.258030806458114"><ele>104.16666666666667</ele><time>2026-05-01T08:52:48.999Z</time></trkpt><trkpt lat="44.39217162294131" lon="11.258086100785409"><ele>103.33333333333334</ele><time>2026-05-01T08:52:49.999Z</time></trkpt><trkpt lat="44.39223461677185" lon="11.258138518489544"><ele>102.5</ele><time>2026-05-01T08:52:50.999Z</time></trkpt><trkpt lat="44.3922716439181" lon="11.258249971765764"><ele>101.66666666666667</ele><time>2026-05-01T08:52:51.999Z</time></trkpt><trkpt lat="44.392306595207074" lon="11.258352628191659"><ele>100.83333333333334</ele><time>2026-05-01T08:52:52.999Z</time></trkpt><trkpt lat="44.3923414975785" lon="11.258449690457901"><ele>100.0</ele><time>2026-05-01T08:52:53.999Z</time></trkpt><trkpt lat="44.39237470456724" lon="11.258542037995491"><ele>99.8</ele><time>2026-05-01T08:52:54.999Z</time></trkpt><trkpt lat="44.39241118338019" lon="11.25864849853224"><ele>99.6</ele><time>2026-05-01T08:52:55.999Z</time></trkpt><trkpt lat="44.39245972216728" lon="11.25877647462148"><ele>99.4</ele><time>2026-05-01T08:52:56.999Z</time></trkpt><trkpt lat="44.39250078852327" lon="11.258916142489314"><ele>99.2</ele><time>2026-05-01T08:52:57.999Z</time></trkpt><trkpt lat="44.39254217856055" lon="11.259052693631414"><ele>99.0</ele><time>2026-05-01T08:52:58.999Z</time></trkpt><trkpt lat="44.39260730777241" lon="11.25921798851628"><ele>99.0</ele><time>2026-05-01T08:52:59.999Z</time></trkpt><trkpt lat="44.392636898770625" lon="11.25938416116332"><ele>99.0</ele><time>2026-05-01T08:53:00.999Z</time></trkpt><trkpt lat="44.39267080852909" lon="11.259524428368225"><ele>99.0</ele><time>2026-05-01T08:53:01.999Z</time></trkpt><trkpt lat="44.39270707853758" lon="11.259710134278148"><ele>99.0</ele><time>2026-05-01T08:53:02.999Z</time></trkpt><trkpt lat="44.39274910980955" lon="11.259874445987833"><ele>100.25</ele><time>2026-05-01T08:53:03.999Z</time></trkpt><trkpt lat="44.39277386080408" lon="11.260034305371635"><ele>101.5</ele><time>2026-05-01T08:53:04.999Z</time></trkpt><trkpt lat="44.39278628652233" lon="11.260207921252478"><ele>102.75</ele><time>2026-05-01T08:53:05.999Z</time></trkpt><trkpt lat="44.39279987891431" lon="11.260377835602396"><ele>104.0</ele><time>2026-05-01T08:53:06.999Z</time></trkpt><trkpt lat="44.392811976734876" lon="11.260553239313102"><ele>104.5</ele><time>2026-05-01T08:53:07.999Z</time></trkpt><trkpt lat="44.3928219850901" lon="11.260734573130485"><ele>105.0</ele><time>2026-05-01T08:53:08.999Z</time></trkpt><trkpt lat="44.39282701952474" lon="11.260922275739201"><ele>105.5</ele><time>2026-05-01T08:53:09.999Z</time></trkpt><trkpt lat="44.392831574354844" lon="11.261123620863476"><ele>106.0</ele><time>2026-05-01T08:53:10.999Z</time></trkpt><trkpt lat="44.39283783423111" lon="11.261335685525983"><ele>107.33333333333334</ele><time>2026-05-01T08:53:11.999Z</time></trkpt><trkpt lat="44.39284395617175" lon="11.261555008336702"><ele>108.66666666666666</ele><time>2026-05-01T08:53:12.999Z</time></trkpt><trkpt lat="44.39286052723108" lon="11.261781390523197"><ele>110.0</ele><time>2026-05-01T08:53:13.999Z</time></trkpt><trkpt lat="44.392889157276734" lon="11.262054677833698"><ele>114.33333333333333</ele><time>2026-05-01T08:53:14.999Z</time></trkpt><trkpt lat="44.39291504041739" lon="11.262349281238576"><ele>118.66666666666666</ele><time>2026-05-01T08:53:15.999Z</time></trkpt><trkpt lat="44.39293791884496" lon="11.262637282621599"><ele>123.0</ele><time>2026-05-01T08:53:16.999Z</time></trkpt><trkpt lat="44.39296808803962" lon="11.262932813425076"><ele>115.0</ele><time>2026-05-01T08:53:17.999Z</time></trkpt><trkpt lat="44.393010869632526" lon="11.263223742204007"><ele>107.0</ele><time>2026-05-01T08:53:18.999Z</time></trkpt><trkpt lat="44.39306951767993" lon="11.263526289071056"><ele>99.0</ele><time>2026-05-01T08:53:19.999Z</time></trkpt><trkpt lat="44.39312557655955" lon="11.26381930902641"><ele>99.0</ele><time>2026-05-01T08:53:20.999Z</time></trkpt><trkpt lat="44.393185299327" lon="11.264120347040768"><ele>99.0</ele><time>2026-05-01T08:53:21.999Z</time></trkpt><trkpt lat="44.393219722226746" lon="11.264426082515644"><ele>99.0</ele><time>2026-05-01T08:53:22.999Z</time></trkpt><trkpt lat="44.39323806052348" lon="11.26473126638379"><ele>99.5</ele><time>2026-05-01T08:53:23.999Z</time></trkpt><trkpt lat="44.39324192501495" lon="11.265048031911567"><ele>100.0</ele><time>2026-05-01T08:53:24.999Z</time></trkpt><trkpt lat="44.39324262685581" lon="11.265381340390556"><ele>99.0</ele><time>2026-05-01T08:53:25.999Z</time></trkpt><trkpt lat="44.39324814823684" lon="11.265710105852756"><ele>98.0</ele><time>2026-05-01T08:53:26.999Z</time></trkpt><trkpt lat="44.393265294921896" lon="11.266039973096346"><ele>98.0</ele><time>2026-05-01T08:53:27.999Z</time></trkpt><trkpt lat="44.39327202478584" lon="11.266364511060882"><ele>98.0</ele><time>2026-05-01T08:53:28.999Z</time></trkpt><trkpt lat="44.39329039463697" lon="11.266696152681886"><ele>98.0</ele><time>2026-05-01T08:53:29.999Z</time></trkpt><trkpt lat="44.393310073128355" lon="11.2670185931549"><ele>98.0</ele><time>2026-05-01T08:53:30.999Z</time></trkpt><trkpt lat="44.39333019318901" lon="11.267338750004395"><ele>98.66666666666666</ele><time>2026-05-01T08:53:31.999Z</time></trkpt><trkpt lat="44.3933547106006" lon="11.267652617265938"><ele>99.33333333333334</ele><time>2026-05-01T08:53:32.999Z</time></trkpt><trkpt lat="44.393374397252" lon="11.267964174386478"><ele>100.0</ele><time>2026-05-01T08:53:33.999Z</time></trkpt><trkpt lat="44.393399564657166" lon="11.268271422437909"><ele>102.66666666666667</ele><time>2026-05-01T08:53:34.999Z</time></trkpt><trkpt lat="44.39343221884182" lon="11.26857702744372"><ele>105.33333333333334</ele><time>2026-05-01T08:53:35.999Z</time></trkpt><trkpt lat="44.39346186528176" lon="11.268874629476725"><ele>108.0</ele><time>2026-05-01T08:53:36.999Z</time></trkpt><trkpt lat="44.39348938711986" lon="11.26917701517489"><ele>110.33333333333334</ele><time>2026-05-01T08:53:37.999Z</time></trkpt><trkpt lat="44.39351716275295" lon="11.26947274709523"><ele>112.66666666666667</ele><time>2026-05-01T08:53:38.999Z</time></trkpt><trkpt lat="44.3935483949809" lon="11.269761947884717"><ele>115.0</ele><time>2026-05-01T08:53:39.999Z</time></trkpt><trkpt lat="44.3935832798701" lon="11.270047126727864"><ele>117.66666666666667</ele><time>2026-05-01T08:53:40.999Z</time></trkpt><trkpt lat="44.39361912421238" lon="11.270327637641762"><ele>120.33333333333334</ele><time>2026-05-01T08:53:41.999Z</time></trkpt><trkpt lat="44.39364506602226" lon="11.270598267013916"><ele>123.0</ele><time>2026-05-01T08:53:42.999Z</time></trkpt><trkpt lat="44.393650115478415" lon="11.270883234889297"><ele>122.66666666666666</ele><time>2026-05-01T08:53:43.999Z</time></trkpt><trkpt lat="44.39360331203356" lon="11.271156450681419"><ele>122.33333333333333</ele><time>2026-05-01T08:53:44.999Z</time></trkpt><trkpt lat="44.393566394136315" lon="11.271432853327147"><ele>122.0</ele><time>2026-05-01T08:53:45.999Z</time></trkpt><trkpt lat="44.39356449196955" lon="11.271711816811127"><ele>122.0</ele><time>2026-05-01T08:53:46.999Z</time></trkpt><trkpt lat="44.393582325553126" lon="11.271973942570597"><ele>122.0</ele><time>2026-05-01T08:53:47.999Z</time></trkpt><trkpt lat="44.393658113596395" lon="11.272211693489036"><ele>122.0</ele><time>2026-05-01T08:53:48.999Z</time></trkpt><trkpt lat="44.39376728047431" lon="11.272437348300924"><ele>119.66666666666666</ele><time>2026-05-01T08:53:49.999Z</time></trkpt><trkpt lat="44.39386504907887" lon="11.272677328732582"><ele>117.33333333333334</ele><time>2026-05-01T08:53:50.999Z</time></trkpt><trkpt lat="44.393933689038185" lon="11.272934534965263"><ele>115.0</ele><time>2026-05-01T08:53:51.999Z</time></trkpt><trkpt lat="44.39397522065767" lon="11.27320480713144"><ele>115.0</ele><time>2026-05-01T08:53:52.999Z</time></trkpt><trkpt lat="44.394015230401465" lon="11.273476535637739"><ele>115.0</ele><time>2026-05-01T08:53:53.999Z</time></trkpt><trkpt lat="44.394045235810104" lon="11.273751034623375"><ele>115.0</ele><time>2026-05-01T08:53:54.999Z</time></trkpt><trkpt lat="44.394085966770774" lon="11.273987970937414"><ele>122.66666666666667</ele><time>2026-05-01T08:53:55.999Z</time></trkpt><trkpt lat="44.39417727839634" lon="11.274199142932568"><ele>130.33333333333334</ele><time>2026-05-01T08:53:56.999Z</time></trkpt><trkpt lat="44.39431533581665" lon="11.274363654975009"><ele>138.0</ele><time>2026-05-01T08:53:57.999Z</time></trkpt><trkpt lat="44.394478342976726" lon="11.274504147578396"><ele>138.0</ele><time>2026-05-01T08:53:58.999Z</time></trkpt><trkpt lat="44.3946432707164" lon="11.274641968856141"><ele>138.0</ele><time>2026-05-01T08:53:59.999Z</time></trkpt><trkpt lat="44.39479619321103" lon="11.27479711423398"><ele>138.0</ele><time>2026-05-01T08:54:00.999Z</time></trkpt><trkpt lat="44.394932195167065" lon="11.27492554630095"><ele>140.75</ele><time>2026-05-01T08:54:01.999Z</time></trkpt><trkpt lat="44.3950250953575" lon="11.27508640859913"><ele>143.5</ele><time>2026-05-01T08:54:02.999Z</time></trkpt><trkpt lat="44.39505138656905" lon="11.275232801525124"><ele>146.25</ele><time>2026-05-01T08:54:03.999Z</time></trkpt><trkpt lat="44.39508416288403" lon="11.275380648024425"><ele>149.0</ele><time>2026-05-01T08:54:04.999Z</time></trkpt><trkpt lat="44.39507377647021" lon="11.275643919793731"><ele>149.5</ele><time>2026-05-01T08:54:05.999Z</time></trkpt><trkpt lat="44.39509714693089" lon="11.275858945975084"><ele>150.0</ele><time>2026-05-01T08:54:06.998Z</time></trkpt><trkpt lat="44.39511788660381" lon="11.276067727221832"><ele>150.5</ele><time>2026-05-01T08:54:07.998Z</time></trkpt><trkpt lat="44.39515767727616" lon="11.276259907817375"><ele>151.0</ele><time>2026-05-01T08:54:08.998Z</time></trkpt><trkpt lat="44.39517095367875" lon="11.276467851395582"><ele>148.25</ele><time>2026-05-01T08:54:09.998Z</time></trkpt><trkpt lat="44.39519327579724" lon="11.276656253427344"><ele>145.5</ele><time>2026-05-01T08:54:10.998Z</time></trkpt><trkpt lat="44.39518743641869" lon="11.276853151441683"><ele>142.75</ele><time>2026-05-01T08:54:11.998Z</time></trkpt><trkpt lat="44.395129505988606" lon="11.276998687507884"><ele>140.0</ele><time>2026-05-01T08:54:12.998Z</time></trkpt><trkpt lat="44.39504643464089" lon="11.277082347821846"><ele>140.0</ele><time>2026-05-01T08:54:13.998Z</time></trkpt><trkpt lat="44.39494176280926" lon="11.277210737863742"><ele>140.0</ele><time>2026-05-01T08:54:14.998Z</time></trkpt><trkpt lat="44.39483345239668" lon="11.277329221759427"><ele>140.0</ele><time>2026-05-01T08:54:15.998Z</time></trkpt><trkpt lat="44.39470375714249" lon="11.277460975348005"><ele>140.0</ele><time>2026-05-01T08:54:16.998Z</time></trkpt><trkpt lat="44.3945741203046" lon="11.277590987933651"><ele>138.5</ele><time>2026-05-01T08:54:17.998Z</time></trkpt><trkpt lat="44.39445554856025" lon="11.277706785315106"><ele>137.0</ele><time>2026-05-01T08:54:18.998Z</time></trkpt><trkpt lat="44.39433976590152" lon="11.277801438407941"><ele>135.5</ele><time>2026-05-01T08:54:19.998Z</time></trkpt><trkpt lat="44.39422217691445" lon="11.277904077404234"><ele>134.0</ele><time>2026-05-01T08:54:21Z</time></trkpt><trkpt lat="44.394117015055166" lon="11.278000824985897"><ele>131.2</ele><time>2026-05-01T08:54:22Z</time></trkpt><trkpt lat="44.39402590662167" lon="11.278102606871338"><ele>128.4</ele><time>2026-05-01T08:54:23Z</time></trkpt><trkpt lat="44.39396492814583" lon="11.278229549615155"><ele>125.6</ele><time>2026-05-01T08:54:24Z</time></trkpt><trkpt lat="44.39393924103242" lon="11.278375431503662"><ele>122.8</ele><time>2026-05-01T08:54:25Z</time></trkpt><trkpt lat="44.39396705810875" lon="11.278520501341996"><ele>120.0</ele><time>2026-05-01T08:54:25.999Z</time></trkpt><trkpt lat="44.39402826573551" lon="11.27865994860788"><ele>120.0</ele><time>2026-05-01T08:54:27Z</time></trkpt><trkpt lat="44.394122167755846" lon="11.278801983830034"><ele>120.0</ele><time>2026-05-01T08:54:28Z</time></trkpt><trkpt lat="44.394224174743414" lon="11.278934038490444"><ele>120.0</ele><time>2026-05-01T08:54:28.999Z</time></trkpt><trkpt lat="44.39433581004399" lon="11.279065697726859"><ele>120.0</ele><time>2026-05-01T08:54:30Z</time></trkpt><trkpt lat="44.39445035084914" lon="11.279179293193053"><ele>119.5</ele><time>2026-05-01T08:54:31Z</time></trkpt><trkpt lat="44.39456714132829" lon="11.279279809227994"><ele>119.0</ele><time>2026-05-01T08:54:31.999Z</time></trkpt><trkpt lat="44.3946845725298" lon="11.27936861634339"><ele>118.5</ele><time>2026-05-01T08:54:33Z</time></trkpt><trkpt lat="44.39480720129921" lon="11.27943684414657"><ele>118.0</ele><time>2026-05-01T08:54:34Z</time></trkpt><trkpt lat="44.394933324866486" lon="11.279464858903147"><ele>118.0</ele><time>2026-05-01T08:54:34.999Z</time></trkpt><trkpt lat="44.3950546934232" lon="11.279487245575739"><ele>118.0</ele><time>2026-05-01T08:54:35.999Z</time></trkpt><trkpt lat="44.39517105338813" lon="11.27953018032387"><ele>118.0</ele><time>2026-05-01T08:54:36.999Z</time></trkpt><trkpt lat="44.39527974212465" lon="11.27960227918481"><ele>118.0</ele><time>2026-05-01T08:54:37.999Z</time></trkpt><trkpt lat="44.39536947396124" lon="11.279724223733572"><ele>116.0</ele><time>2026-05-01T08:54:38.999Z</time></trkpt><trkpt lat="44.395428059723564" lon="11.279881083571997"><ele>114.0</ele><time>2026-05-01T08:54:39.999Z</time></trkpt><trkpt lat="44.395459860694324" lon="11.28006249187014"><ele>112.0</ele><time>2026-05-01T08:54:40.999Z</time></trkpt><trkpt lat="44.395464057782114" lon="11.280261600566556"><ele>110.0</ele><time>2026-05-01T08:54:41.999Z</time></trkpt><trkpt lat="44.39544888184439" lon="11.28047323076781"><ele>111.66666666666666</ele><time>2026-05-01T08:54:42.999Z</time></trkpt><trkpt lat="44.3954214367888" lon="11.280693078382294"><ele>113.33333333333334</ele><time>2026-05-01T08:54:43.999Z</time></trkpt><trkpt lat="44.39539349837556" lon="11.280922704669198"><ele>115.0</ele><time>2026-05-01T08:54:44.999Z</time></trkpt><trkpt lat="44.395375779123064" lon="11.281152067914265"><ele>115.0</ele><time>2026-05-01T08:54:45.999Z</time></trkpt><trkpt lat="44.3953717552892" lon="11.281364964132752"><ele>115.0</ele><time>2026-05-01T08:54:46.999Z</time></trkpt><trkpt lat="44.39537613318735" lon="11.281563169590202"><ele>115.0</ele><time>2026-05-01T08:54:47.999Z</time></trkpt><trkpt lat="44.395389178932675" lon="11.281763507544008"><ele>115.0</ele><time>2026-05-01T08:54:48.999Z</time></trkpt><trkpt lat="44.395408671759846" lon="11.281976784043849"><ele>115.0</ele><time>2026-05-01T08:54:49.999Z</time></trkpt><trkpt lat="44.395435594237576" lon="11.282199313385085"><ele>115.0</ele><time>2026-05-01T08:54:50.999Z</time></trkpt><trkpt lat="44.395467731075364" lon="11.282429881559036"><ele>115.0</ele><time>2026-05-01T08:54:51.999Z</time></trkpt><trkpt lat="44.39550042350085" lon="11.282672427869047"><ele>110.33333333333334</ele><time>2026-05-01T08:54:52.999Z</time></trkpt><trkpt lat="44.3955349619868" lon="11.28292156135079"><ele>105.66666666666666</ele><time>2026-05-01T08:54:53.999Z</time></trkpt><trkpt lat="44.395577064450286" lon="11.283198856134502"><ele>101.0</ele><time>2026-05-01T08:54:54.999Z</time></trkpt><trkpt lat="44.39560842456038" lon="11.283481573222634"><ele>101.0</ele><time>2026-05-01T08:54:55.999Z</time></trkpt><trkpt lat="44.39563208872878" lon="11.28374942911868"><ele>101.0</ele><time>2026-05-01T08:54:56.999Z</time></trkpt><trkpt lat="44.39565437530835" lon="11.28399985280539"><ele>101.0</ele><time>2026-05-01T08:54:57.999Z</time></trkpt><trkpt lat="44.395673673027815" lon="11.284240122962066"><ele>102.33333333333333</ele><time>2026-05-01T08:54:58.999Z</time></trkpt><trkpt lat="44.39567619901412" lon="11.284471508369252"><ele>103.66666666666666</ele><time>2026-05-01T08:54:59.999Z</time></trkpt><trkpt lat="44.395652065400675" lon="11.28469954980717"><ele>105.0</ele><time>2026-05-01T08:55:00.999Z</time></trkpt><trkpt lat="44.395617082302316" lon="11.284941799651044"><ele>105.0</ele><time>2026-05-01T08:55:01.999Z</time></trkpt><trkpt lat="44.39557589137173" lon="11.285213909695631"><ele>105.0</ele><time>2026-05-01T08:55:02.999Z</time></trkpt><trkpt lat="44.39552313841786" lon="11.285505299074904"><ele>105.0</ele><time>2026-05-01T08:55:03.999Z</time></trkpt><trkpt lat="44.3954752287927" lon="11.285806944579777"><ele>105.0</ele><time>2026-05-01T08:55:04.999Z</time></trkpt><trkpt lat="44.395438297562784" lon="11.286108389986236"><ele>105.0</ele><time>2026-05-01T08:55:05.999Z</time></trkpt><trkpt lat="44.39540372771606" lon="11.286395442635571"><ele>105.0</ele><time>2026-05-01T08:55:06.999Z</time></trkpt><trkpt lat="44.39537136660606" lon="11.286652807742492"><ele>105.75</ele><time>2026-05-01T08:55:07.999Z</time></trkpt><trkpt lat="44.39534105678206" lon="11.286876514195585"><ele>106.5</ele><time>2026-05-01T08:55:08.999Z</time></trkpt><trkpt lat="44.39530322842558" lon="11.28706288752769"><ele>107.25</ele><time>2026-05-01T08:55:09.999Z</time></trkpt><trkpt lat="44.39523171160219" lon="11.287200964879872"><ele>108.0</ele><time>2026-05-01T08:55:10.999Z</time></trkpt><trkpt lat="44.39511537280697" lon="11.287272137786696"><ele>109.66666666666666</ele><time>2026-05-01T08:55:11.999Z</time></trkpt><trkpt lat="44.39497720231289" lon="11.287350646885965"><ele>111.33333333333333</ele><time>2026-05-01T08:55:12.999Z</time></trkpt><trkpt lat="44.39483236238678" lon="11.28743705272781"><ele>113.0</ele><time>2026-05-01T08:55:13.999Z</time></trkpt><trkpt lat="44.394697859527646" lon="11.287586080052458"><ele>112.33333333333333</ele><time>2026-05-01T08:55:14.999Z</time></trkpt><trkpt lat="44.394579301877634" lon="11.287790522127274"><ele>111.66666666666666</ele><time>2026-05-01T08:55:15.999Z</time></trkpt><trkpt lat="44.3944537358598" lon="11.288007884042191"><ele>111.0</ele><time>2026-05-01T08:55:16.999Z</time></trkpt><trkpt lat="44.39431134833451" lon="11.28818352909259"><ele>114.75</ele><time>2026-05-01T08:55:17.999Z</time></trkpt><trkpt lat="44.394169514870235" lon="11.288312413404004"><ele>118.5</ele><time>2026-05-01T08:55:18.999Z</time></trkpt><trkpt lat="44.39404653196591" lon="11.28842441577717"><ele>122.25</ele><time>2026-05-01T08:55:19.999Z</time></trkpt><trkpt lat="44.39396790436411" lon="11.288558815373742"><ele>126.0</ele><time>2026-05-01T08:55:20.999Z</time></trkpt><trkpt lat="44.393931545306934" lon="11.288726817466356"><ele>126.0</ele><time>2026-05-01T08:55:21.999Z</time></trkpt><trkpt lat="44.39396907102868" lon="11.288916249499206"><ele>126.0</ele><time>2026-05-01T08:55:22.999Z</time></trkpt><trkpt lat="44.39403601769197" lon="11.289109175592511"><ele>126.0</ele><time>2026-05-01T08:55:23.999Z</time></trkpt><trkpt lat="44.39410350467521" lon="11.289311512145744"><ele>129.66666666666666</ele><time>2026-05-01T08:55:24.999Z</time></trkpt><trkpt lat="44.39415731709448" lon="11.289539157703919"><ele>133.33333333333331</ele><time>2026-05-01T08:55:25.999Z</time></trkpt><trkpt lat="44.39419889538761" lon="11.289774473257605"><ele>137.0</ele><time>2026-05-01T08:55:26.999Z</time></trkpt><trkpt lat="44.39421574547628" lon="11.290014244660224"><ele>139.66666666666666</ele><time>2026-05-01T08:55:27.999Z</time></trkpt><trkpt lat="44.39421180749757" lon="11.290260141500719"><ele>142.33333333333334</ele><time>2026-05-01T08:55:28.999Z</time></trkpt><trkpt lat="44.394178244037704" lon="11.290497798869495"><ele>145.0</ele><time>2026-05-01T08:55:29.999Z</time></trkpt><trkpt lat="44.39414293044797" lon="11.290737448245848"><ele>147.66666666666669</ele><time>2026-05-01T08:55:30.999Z</time></trkpt><trkpt lat="44.39410004226873" lon="11.290967524236727"><ele>150.33333333333334</ele><time>2026-05-01T08:55:31.999Z</time></trkpt><trkpt lat="44.394056848158634" lon="11.291191298269577"><ele>153.0</ele><time>2026-05-01T08:55:32.999Z</time></trkpt><trkpt lat="44.394017817964176" lon="11.291408831328326"><ele>154.0</ele><time>2026-05-01T08:55:33.999Z</time></trkpt><trkpt lat="44.39401809034494" lon="11.291649002428471"><ele>155.0</ele><time>2026-05-01T08:55:34.999Z</time></trkpt><trkpt lat="44.39406689387981" lon="11.291893316438776"><ele>156.0</ele><time>2026-05-01T08:55:35.999Z</time></trkpt><trkpt lat="44.394136808910595" lon="11.292134758262424"><ele>157.66666666666666</ele><time>2026-05-01T08:55:36.999Z</time></trkpt><trkpt lat="44.3941934087913" lon="11.292383213078399"><ele>159.33333333333331</ele><time>2026-05-01T08:55:37.999Z</time></trkpt><trkpt lat="44.39420767963865" lon="11.292641113844148"><ele>161.0</ele><time>2026-05-01T08:55:38.999Z</time></trkpt><trkpt lat="44.39417936590837" lon="11.292898807391033"><ele>162.66666666666666</ele><time>2026-05-01T08:55:39.999Z</time></trkpt><trkpt lat="44.3941307454316" lon="11.293158684523723"><ele>164.33333333333334</ele><time>2026-05-01T08:55:40.999Z</time></trkpt><trkpt lat="44.39407039335847" lon="11.293409216233524"><ele>166.0</ele><time>2026-05-01T08:55:41.999Z</time></trkpt><trkpt lat="44.39399229036135" lon="11.293640518467035"><ele>166.0</ele><time>2026-05-01T08:55:42.999Z</time></trkpt><trkpt lat="44.393899479921615" lon="11.29384948072448"><ele>166.0</ele><time>2026-05-01T08:55:43.999Z</time></trkpt><trkpt lat="44.39381363386205" lon="11.29404235951206"><ele>166.0</ele><time>2026-05-01T08:55:44.999Z</time></trkpt><trkpt lat="44.39373221807899" lon="11.294221540465239"><ele>171.0</ele><time>2026-05-01T08:55:45.999Z</time></trkpt><trkpt lat="44.393621832563255" lon="11.294361607870576"><ele>176.0</ele><time>2026-05-01T08:55:46.999Z</time></trkpt><trkpt lat="44.39347421094365" lon="11.294436088032969"><ele>181.0</ele><time>2026-05-01T08:55:47.999Z</time></trkpt><trkpt lat="44.393323399629665" lon="11.294519080195277"><ele>181.0</ele><time>2026-05-01T08:55:48.999Z</time></trkpt><trkpt lat="44.39317195235706" lon="11.294576929255124"><ele>181.0</ele><time>2026-05-01T08:55:49.999Z</time></trkpt><trkpt lat="44.39303344044056" lon="11.29463404048879"><ele>181.0</ele><time>2026-05-01T08:55:50.999Z</time></trkpt><trkpt lat="44.39289951206082" lon="11.294640650541536"><ele>181.0</ele><time>2026-05-01T08:55:51.999Z</time></trkpt><trkpt lat="44.39279092099628" lon="11.294546202055741"><ele>187.0</ele><time>2026-05-01T08:55:52.999Z</time></trkpt><trkpt lat="44.39270070796869" lon="11.29442334652832"><ele>193.0</ele><time>2026-05-01T08:55:53.999Z</time></trkpt><trkpt lat="44.392607899175836" lon="11.294290297767004"><ele>199.0</ele><time>2026-05-01T08:55:54.999Z</time></trkpt><trkpt lat="44.392506935610506" lon="11.294140848081401"><ele>205.0</ele><time>2026-05-01T08:55:55.999Z</time></trkpt><trkpt lat="44.392430206589765" lon="11.293965107643928"><ele>202.5</ele><time>2026-05-01T08:55:56.999Z</time></trkpt><trkpt lat="44.39235749088832" lon="11.293791649482577"><ele>200.0</ele><time>2026-05-01T08:55:57.999Z</time></trkpt><trkpt lat="44.3922895981274" lon="11.293609316511521"><ele>197.5</ele><time>2026-05-01T08:55:58.999Z</time></trkpt><trkpt lat="44.392219495145696" lon="11.293443388387658"><ele>195.0</ele><time>2026-05-01T08:55:59.999Z</time></trkpt><trkpt lat="44.39214859574306" lon="11.293304058014854"><ele>203.25</ele><time>2026-05-01T08:56:00.999Z</time></trkpt><trkpt lat="44.392068884085475" lon="11.293199777462133"><ele>211.5</ele><time>2026-05-01T08:56:01.999Z</time></trkpt><trkpt lat="44.39196864947273" lon="11.293132316675804"><ele>219.75</ele><time>2026-05-01T08:56:02.999Z</time></trkpt><trkpt lat="44.39184442047252" lon="11.293100456060296"><ele>228.0</ele><time>2026-05-01T08:56:03.998Z</time></trkpt><trkpt lat="44.39170493217852" lon="11.293110329335331"><ele>228.0</ele><time>2026-05-01T08:56:04.998Z</time></trkpt><trkpt lat="44.39158131949592" lon="11.29309231832835"><ele>228.0</ele><time>2026-05-01T08:56:05.998Z</time></trkpt><trkpt lat="44.3914631528309" lon="11.293080384434328"><ele>228.0</ele><time>2026-05-01T08:56:06.998Z</time></trkpt><trkpt lat="44.39136245324452" lon="11.29311356118868"><ele>228.0</ele><time>2026-05-01T08:56:07.998Z</time></trkpt><trkpt lat="44.39127139139278" lon="11.293222867699782"><ele>226.75</ele><time>2026-05-01T08:56:08.998Z</time></trkpt><trkpt lat="44.39120585799252" lon="11.293369226542886"><ele>225.5</ele><time>2026-05-01T08:56:09.998Z</time></trkpt><trkpt lat="44.39116887508952" lon="11.293540051514272"><ele>224.25</ele><time>2026-05-01T08:56:10.998Z</time></trkpt><trkpt lat="44.39114449297088" lon="11.293729143318883"><ele>223.0</ele><time>2026-05-01T08:56:11.999Z</time></trkpt><trkpt lat="44.39113372284" lon="11.293913832072034"><ele>222.5</ele><time>2026-05-01T08:56:12.999Z</time></trkpt><trkpt lat="44.391117856247206" lon="11.29410266710279"><ele>222.0</ele><time>2026-05-01T08:56:13.999Z</time></trkpt><trkpt lat="44.391105981774054" lon="11.294298582467666"><ele>221.5</ele><time>2026-05-01T08:56:14.999Z</time></trkpt><trkpt lat="44.39109282040219" lon="11.294493626446535"><ele>221.0</ele><time>2026-05-01T08:56:15.999Z</time></trkpt><trkpt lat="44.39108874619429" lon="11.294696735705623"><ele>222.0</ele><time>2026-05-01T08:56:16.999Z</time></trkpt><trkpt lat="44.391100380675276" lon="11.29490359300941"><ele>223.0</ele><time>2026-05-01T08:56:17.999Z</time></trkpt><trkpt lat="44.39113117896696" lon="11.295099024323358"><ele>224.0</ele><time>2026-05-01T08:56:18.999Z</time></trkpt><trkpt lat="44.391187934154544" lon="11.29528753144044"><ele>225.0</ele><time>2026-05-01T08:56:19.999Z</time></trkpt><trkpt lat="44.391257749454255" lon="11.295467537126694"><ele>230.66666666666669</ele><time>2026-05-01T08:56:20.999Z</time></trkpt><trkpt lat="44.39134685611396" lon="11.29563881754796"><ele>236.33333333333334</ele><time>2026-05-01T08:56:21.999Z</time></trkpt><trkpt lat="44.39145944260741" lon="11.295804318594433"><ele>242.0</ele><time>2026-05-01T08:56:22.999Z</time></trkpt><trkpt lat="44.39159492327961" lon="11.295966563743288"><ele>242.0</ele><time>2026-05-01T08:56:23.999Z</time></trkpt><trkpt lat="44.39174764060291" lon="11.296125536373744"><ele>242.0</ele><time>2026-05-01T08:56:24.999Z</time></trkpt><trkpt lat="44.39191017146942" lon="11.296287919224815"><ele>242.0</ele><time>2026-05-01T08:56:25.999Z</time></trkpt><trkpt lat="44.39206697578765" lon="11.296448957317889"><ele>242.0</ele><time>2026-05-01T08:56:27Z</time></trkpt><trkpt lat="44.39221915443501" lon="11.296615510652844"><ele>242.0</ele><time>2026-05-01T08:56:28Z</time></trkpt><trkpt lat="44.392356898609385" lon="11.296784215217889"><ele>242.0</ele><time>2026-05-01T08:56:29Z</time></trkpt><trkpt lat="44.39247245740254" lon="11.296979497973387"><ele>242.0</ele><time>2026-05-01T08:56:30Z</time></trkpt><trkpt lat="44.39256682610661" lon="11.297196359134906"><ele>242.0</ele><time>2026-05-01T08:56:31Z</time></trkpt><trkpt lat="44.39265806335702" lon="11.297439813995526"><ele>242.0</ele><time>2026-05-01T08:56:32Z</time></trkpt><trkpt lat="44.392740595704346" lon="11.297679644403347"><ele>244.0</ele><time>2026-05-01T08:56:33Z</time></trkpt><trkpt lat="44.392819401501036" lon="11.297917903074609"><ele>246.0</ele><time>2026-05-01T08:56:34Z</time></trkpt><trkpt lat="44.39287953081763" lon="11.298156802027144"><ele>248.0</ele><time>2026-05-01T08:56:35Z</time></trkpt><trkpt lat="44.39291312859455" lon="11.298410437691022"><ele>248.0</ele><time>2026-05-01T08:56:36Z</time></trkpt><trkpt lat="44.392918679938916" lon="11.298677191009254"><ele>248.0</ele><time>2026-05-01T08:56:37Z</time></trkpt><trkpt lat="44.39291258753232" lon="11.298960024308265"><ele>248.0</ele><time>2026-05-01T08:56:38Z</time></trkpt><trkpt lat="44.39290084214788" lon="11.29925585461882"><ele>248.0</ele><time>2026-05-01T08:56:39Z</time></trkpt><trkpt lat="44.39289091700522" lon="11.299564707513763"><ele>248.0</ele><time>2026-05-01T08:56:40Z</time></trkpt><trkpt lat="44.39288429671611" lon="11.299863248756353"><ele>248.0</ele><time>2026-05-01T08:56:41Z</time></trkpt><trkpt lat="44.39287945701116" lon="11.300148541763196"><ele>248.33333333333334</ele><time>2026-05-01T08:56:42Z</time></trkpt><trkpt lat="44.39288180684641" lon="11.300416937677099"><ele>248.66666666666669</ele><time>2026-05-01T08:56:43Z</time></trkpt><trkpt lat="44.39290664459361" lon="11.300673383085805"><ele>249.0</ele><time>2026-05-01T08:56:44Z</time></trkpt><trkpt lat="44.39296441188119" lon="11.30092357477728"><ele>256.6666666666667</ele><time>2026-05-01T08:56:45Z</time></trkpt><trkpt lat="44.393056851392764" lon="11.301155102485437"><ele>264.33333333333337</ele><time>2026-05-01T08:56:46Z</time></trkpt><trkpt lat="44.393152938519634" lon="11.30138192615552"><ele>272.0</ele><time>2026-05-01T08:56:47Z</time></trkpt><trkpt lat="44.39323637037087" lon="11.301614463124874"><ele>272.33333333333337</ele><time>2026-05-01T08:56:48Z</time></trkpt><trkpt lat="44.39331396619592" lon="11.301839508691408"><ele>272.6666666666667</ele><time>2026-05-01T08:56:49Z</time></trkpt><trkpt lat="44.393372073346946" lon="11.302069610368953"><ele>273.0</ele><time>2026-05-01T08:56:50Z</time></trkpt><trkpt lat="44.39341749596912" lon="11.30229910596342"><ele>273.0</ele><time>2026-05-01T08:56:51Z</time></trkpt><trkpt lat="44.39344412218101" lon="11.302538826299404"><ele>273.0</ele><time>2026-05-01T08:56:52Z</time></trkpt><trkpt lat="44.39345286245248" lon="11.30278472789828"><ele>273.0</ele><time>2026-05-01T08:56:53Z</time></trkpt><trkpt lat="44.39345397118439" lon="11.303040067491827"><ele>271.6666666666667</ele><time>2026-05-01T08:56:54Z</time></trkpt><trkpt lat="44.39345525857703" lon="11.30329890865737"><ele>270.33333333333337</ele><time>2026-05-01T08:56:55Z</time></trkpt><trkpt lat="44.393458613343235" lon="11.303556669239146"><ele>269.0</ele><time>2026-05-01T08:56:56Z</time></trkpt><trkpt lat="44.39346385091473" lon="11.303805927717304"><ele>270.6666666666667</ele><time>2026-05-01T08:56:57Z</time></trkpt><trkpt lat="44.39346497322866" lon="11.30405064366303"><ele>272.3333333333333</ele><time>2026-05-01T08:56:58Z</time></trkpt><trkpt lat="44.39345784874393" lon="11.30429622941005"><ele>274.0</ele><time>2026-05-01T08:56:59Z</time></trkpt><trkpt lat="44.393448134410576" lon="11.304530256258568"><ele>274.0</ele><time>2026-05-01T08:57:00Z</time></trkpt><trkpt lat="44.39343575637048" lon="11.304736091520919"><ele>274.0</ele><time>2026-05-01T08:57:01Z</time></trkpt><trkpt lat="44.393419386256944" lon="11.304941810504099"><ele>274.0</ele><time>2026-05-01T08:57:02Z</time></trkpt><trkpt lat="44.39339547978643" lon="11.305146538554617"><ele>274.0</ele><time>2026-05-01T08:57:03Z</time></trkpt><trkpt lat="44.39337012501474" lon="11.3053513802171"><ele>275.5</ele><time>2026-05-01T08:57:04Z</time></trkpt><trkpt lat="44.393345170087976" lon="11.305552924912115"><ele>277.0</ele><time>2026-05-01T08:57:05Z</time></trkpt><trkpt lat="44.393318048610176" lon="11.305751109720429"><ele>278.5</ele><time>2026-05-01T08:57:06Z</time></trkpt><trkpt lat="44.3932908845316" lon="11.305943156862414"><ele>280.0</ele><time>2026-05-01T08:57:07Z</time></trkpt><trkpt lat="44.39327450602794" lon="11.306132942265878"><ele>282.75</ele><time>2026-05-01T08:57:08Z</time></trkpt><trkpt lat="44.39328325398354" lon="11.306319192894597"><ele>285.5</ele><time>2026-05-01T08:57:09Z</time></trkpt><trkpt lat="44.39331203876715" lon="11.306500578704517"><ele>288.25</ele><time>2026-05-01T08:57:10Z</time></trkpt><trkpt lat="44.39335224400365" lon="11.306680566155585"><ele>291.0</ele><time>2026-05-01T08:57:11Z</time></trkpt><trkpt lat="44.39339579315002" lon="11.306860806072386"><ele>292.5</ele><time>2026-05-01T08:57:12Z</time></trkpt><trkpt lat="44.39343978793185" lon="11.307043094885502"><ele>294.0</ele><time>2026-05-01T08:57:13Z</time></trkpt><trkpt lat="44.39348521837312" lon="11.307224626506695"><ele>295.5</ele><time>2026-05-01T08:57:14Z</time></trkpt><trkpt lat="44.39353166834144" lon="11.307403419484737"><ele>297.0</ele><time>2026-05-01T08:57:15Z</time></trkpt><trkpt lat="44.39357603939553" lon="11.307570200486603"><ele>298.2</ele><time>2026-05-01T08:57:16Z</time></trkpt><trkpt lat="44.39361708875942" lon="11.307715124110759"><ele>299.4</ele><time>2026-05-01T08:57:17Z</time></trkpt><trkpt lat="44.39365034017734" lon="11.307832359156901"><ele>300.6</ele><time>2026-05-01T08:57:18Z</time></trkpt><trkpt lat="44.39367341539153" lon="11.30792983027728"><ele>301.8</ele><time>2026-05-01T08:57:19Z</time></trkpt><trkpt lat="44.393685333953655" lon="11.308103484798458"><ele>303.0</ele><time>2026-05-01T08:57:21Z</time></trkpt><trkpt lat="44.393671939499136" lon="11.308193043045407"><ele>304.5</ele><time>2026-05-01T08:57:22Z</time></trkpt><trkpt lat="44.39363746121178" lon="11.308280383505334"><ele>306.0</ele><time>2026-05-01T08:57:23Z</time></trkpt><trkpt lat="44.39357991852014" lon="11.308354755207326"><ele>307.5</ele><time>2026-05-01T08:57:24Z</time></trkpt><trkpt lat="44.39350146269107" lon="11.308412762584007"><ele>309.0</ele><time>2026-05-01T08:57:25Z</time></trkpt><trkpt lat="44.39340928883772" lon="11.30846306650304"><ele>310.5</ele><time>2026-05-01T08:57:26Z</time></trkpt><trkpt lat="44.39330356075242" lon="11.308508577994093"><ele>312.0</ele><time>2026-05-01T08:57:27Z</time></trkpt><trkpt lat="44.39319311313969" lon="11.308562804689524"><ele>312.0</ele><time>2026-05-01T08:57:28Z</time></trkpt><trkpt lat="44.39308189260283" lon="11.308624686756255"><ele>312.0</ele><time>2026-05-01T08:57:29Z</time></trkpt><trkpt lat="44.392999138332776" lon="11.308728058778897"><ele>312.0</ele><time>2026-05-01T08:57:30Z</time></trkpt><trkpt lat="44.39289339519944" lon="11.308824121738382"><ele>312.0</ele><time>2026-05-01T08:57:31Z</time></trkpt><trkpt lat="44.392795540507784" lon="11.308925786498826"><ele>311.75</ele><time>2026-05-01T08:57:32Z</time></trkpt><trkpt lat="44.39270117961793" lon="11.309032601790934"><ele>311.5</ele><time>2026-05-01T08:57:33Z</time></trkpt><trkpt lat="44.392611712211995" lon="11.309137306303402"><ele>311.25</ele><time>2026-05-01T08:57:34Z</time></trkpt><trkpt lat="44.392519007923426" lon="11.309245816432542"><ele>311.0</ele><time>2026-05-01T08:57:35Z</time></trkpt><trkpt lat="44.39242744719628" lon="11.309347779334272"><ele>311.0</ele><time>2026-05-01T08:57:36Z</time></trkpt><trkpt lat="44.392350116720884" lon="11.309434925423199"><ele>311.0</ele><time>2026-05-01T08:57:37Z</time></trkpt><trkpt lat="44.392289972242025" lon="11.309501910421499"><ele>311.0</ele><time>2026-05-01T08:57:38Z</time></trkpt><trkpt lat="44.39222751267415" lon="11.309590312920205"><ele>311.0</ele><time>2026-05-01T08:57:40Z</time></trkpt><trkpt lat="44.39220165733813" lon="11.309687370563587"><ele>311.0</ele><time>2026-05-01T08:57:46Z</time></trkpt><trkpt lat="44.39218158286476" lon="11.30977702178569"><ele>311.0</ele><time>2026-05-01T08:57:48Z</time></trkpt><trkpt lat="44.392274993921234" lon="11.30986963724492"><ele>311.2</ele><time>2026-05-01T08:57:49Z</time></trkpt><trkpt lat="44.39235640781859" lon="11.309903040027717"><ele>311.40000000000003</ele><time>2026-05-01T08:57:50Z</time></trkpt><trkpt lat="44.39245001807321" lon="11.309932204025909"><ele>311.6</ele><time>2026-05-01T08:57:51Z</time></trkpt><trkpt lat="44.39254055663097" lon="11.309972680639842"><ele>311.8</ele><time>2026-05-01T08:57:52Z</time></trkpt><trkpt lat="44.39262964239903" lon="11.310038743626897"><ele>312.0</ele><time>2026-05-01T08:57:53Z</time></trkpt><trkpt lat="44.392711806348146" lon="11.310117484740971"><ele>312.0</ele><time>2026-05-01T08:57:54Z</time></trkpt><trkpt lat="44.392795343119126" lon="11.31021488793786"><ele>312.0</ele><time>2026-05-01T08:57:55Z</time></trkpt><trkpt lat="44.39287435958373" lon="11.310326604107651"><ele>312.0</ele><time>2026-05-01T08:57:56Z</time></trkpt><trkpt lat="44.39296040209842" lon="11.310436364250753"><ele>312.0</ele><time>2026-05-01T08:57:57Z</time></trkpt><trkpt lat="44.39305312350645" lon="11.310550411328046"><ele>315.0</ele><time>2026-05-01T08:57:58Z</time></trkpt><trkpt lat="44.39313760248089" lon="11.310678521451623"><ele>318.0</ele><time>2026-05-01T08:57:59Z</time></trkpt><trkpt lat="44.3932076051874" lon="11.310819011805847"><ele>321.0</ele><time>2026-05-01T08:58:00Z</time></trkpt><trkpt lat="44.39322856963846" lon="11.310987191946891"><ele>324.0</ele><time>2026-05-01T08:58:01Z</time></trkpt><trkpt lat="44.39325953037376" lon="11.311151084726177"><ele>324.0</ele><time>2026-05-01T08:58:02Z</time></trkpt><trkpt lat="44.393297654997596" lon="11.311319735712841"><ele>324.0</ele><time>2026-05-01T08:58:03Z</time></trkpt><trkpt lat="44.39332869357562" lon="11.311491834092644"><ele>324.0</ele><time>2026-05-01T08:58:04Z</time></trkpt><trkpt lat="44.39336270016886" lon="11.311662346283635"><ele>324.0</ele><time>2026-05-01T08:58:05Z</time></trkpt><trkpt lat="44.3933974564774" lon="11.311835690544298"><ele>321.25</ele><time>2026-05-01T08:58:06Z</time></trkpt><trkpt lat="44.39341974506853" lon="11.311996408049618"><ele>318.5</ele><time>2026-05-01T08:58:07Z</time></trkpt><trkpt lat="44.39342915374288" lon="11.312173386409874"><ele>315.75</ele><time>2026-05-01T08:58:07.999Z</time></trkpt><trkpt lat="44.39342393164764" lon="11.312362465082913"><ele>313.0</ele><time>2026-05-01T08:58:08.999Z</time></trkpt><trkpt lat="44.393402183412086" lon="11.31255506973296"><ele>311.75</ele><time>2026-05-01T08:58:09.999Z</time></trkpt><trkpt lat="44.39337996754901" lon="11.312747672095151"><ele>310.5</ele><time>2026-05-01T08:58:10.999Z</time></trkpt><trkpt lat="44.39335241183095" lon="11.312948595820139"><ele>309.25</ele><time>2026-05-01T08:58:11.999Z</time></trkpt><trkpt lat="44.39333180658644" lon="11.31314727318746"><ele>308.0</ele><time>2026-05-01T08:58:12.999Z</time></trkpt><trkpt lat="44.39331045345374" lon="11.313340120697212"><ele>308.0</ele><time>2026-05-01T08:58:13.999Z</time></trkpt><trkpt lat="44.39328973876743" lon="11.313539316319096"><ele>308.0</ele><time>2026-05-01T08:58:14.999Z</time></trkpt><trkpt lat="44.39326944090578" lon="11.313745241304678"><ele>308.0</ele><time>2026-05-01T08:58:15.999Z</time></trkpt><trkpt lat="44.39325369463643" lon="11.313953117144727"><ele>308.0</ele><time>2026-05-01T08:58:16.999Z</time></trkpt><trkpt lat="44.39323479482814" lon="11.31416570301119"><ele>308.0</ele><time>2026-05-01T08:58:17.999Z</time></trkpt><trkpt lat="44.39320442675482" lon="11.314381872925628"><ele>308.0</ele><time>2026-05-01T08:58:18.999Z</time></trkpt><trkpt lat="44.39316371952853" lon="11.314607007997905"><ele>308.0</ele><time>2026-05-01T08:58:19.999Z</time></trkpt><trkpt lat="44.39311383185091" lon="11.314840835850035"><ele>306.0</ele><time>2026-05-01T08:58:20.999Z</time></trkpt><trkpt lat="44.39306305166598" lon="11.31506969568815"><ele>304.0</ele><time>2026-05-01T08:58:21.999Z</time></trkpt><trkpt lat="44.393016761052166" lon="11.315298479240129"><ele>302.0</ele><time>2026-05-01T08:58:22.999Z</time></trkpt><trkpt lat="44.39297069976203" lon="11.315528808397307"><ele>302.0</ele><time>2026-05-01T08:58:23.999Z</time></trkpt><trkpt lat="44.39293975484536" lon="11.315750175492083"><ele>302.0</ele><time>2026-05-01T08:58:24.999Z</time></trkpt><trkpt lat="44.39293196154568" lon="11.316049123837365"><ele>302.0</ele><time>2026-05-01T08:58:25.999Z</time></trkpt><trkpt lat="44.392930452737765" lon="11.31623939511144"><ele>300.5</ele><time>2026-05-01T08:58:26.999Z</time></trkpt><trkpt lat="44.39292704519539" lon="11.316418061405992"><ele>299.0</ele><time>2026-05-01T08:58:27.999Z</time></trkpt><trkpt lat="44.39288433434745" lon="11.316593490665138"><ele>297.5</ele><time>2026-05-01T08:58:28.999Z</time></trkpt><trkpt lat="44.39282883365015" lon="11.31675616793062"><ele>296.0</ele><time>2026-05-01T08:58:29.999Z</time></trkpt><trkpt lat="44.39274709859833" lon="11.316891777768092"><ele>296.0</ele><time>2026-05-01T08:58:30.999Z</time></trkpt><trkpt lat="44.392663646690124" lon="11.31704715886389"><ele>296.0</ele><time>2026-05-01T08:58:31.999Z</time></trkpt><trkpt lat="44.392602094349655" lon="11.317208137253987"><ele>296.0</ele><time>2026-05-01T08:58:33Z</time></trkpt><trkpt lat="44.392560228022695" lon="11.31736717074998"><ele>296.0</ele><time>2026-05-01T08:58:34Z</time></trkpt><trkpt lat="44.392508977547884" lon="11.317513633094768"><ele>296.0</ele><time>2026-05-01T08:58:35Z</time></trkpt><trkpt lat="44.39243756516003" lon="11.317636259844313"><ele>296.0</ele><time>2026-05-01T08:58:36Z</time></trkpt><trkpt lat="44.39234357716284" lon="11.317723174365476"><ele>296.0</ele><time>2026-05-01T08:58:37Z</time></trkpt><trkpt lat="44.39221721840327" lon="11.317817063301572"><ele>296.0</ele><time>2026-05-01T08:58:38Z</time></trkpt><trkpt lat="44.39210752540917" lon="11.317923525558648"><ele>293.75</ele><time>2026-05-01T08:58:39Z</time></trkpt><trkpt lat="44.39200444675013" lon="11.318062377100137"><ele>291.5</ele><time>2026-05-01T08:58:40Z</time></trkpt><trkpt lat="44.39191921888275" lon="11.318207355146667"><ele>289.25</ele><time>2026-05-01T08:58:41Z</time></trkpt><trkpt lat="44.391825579052544" lon="11.318354815680893"><ele>287.0</ele><time>2026-05-01T08:58:42Z</time></trkpt><trkpt lat="44.3917342999653" lon="11.318495354010336"><ele>287.0</ele><time>2026-05-01T08:58:43Z</time></trkpt><trkpt lat="44.39164529418193" lon="11.318631254917081"><ele>287.0</ele><time>2026-05-01T08:58:44Z</time></trkpt><trkpt lat="44.39156096361251" lon="11.318760017356208"><ele>287.0</ele><time>2026-05-01T08:58:45Z</time></trkpt><trkpt lat="44.391477934543715" lon="11.318888985996098"><ele>287.0</ele><time>2026-05-01T08:58:46Z</time></trkpt><trkpt lat="44.391395850956144" lon="11.319022130039265"><ele>283.75</ele><time>2026-05-01T08:58:47Z</time></trkpt><trkpt lat="44.3913151917516" lon="11.31916585580093"><ele>280.5</ele><time>2026-05-01T08:58:48Z</time></trkpt><trkpt lat="44.391243708604314" lon="11.319325269284178"><ele>277.25</ele><time>2026-05-01T08:58:49Z</time></trkpt><trkpt lat="44.391177569105174" lon="11.319472818960383"><ele>274.0</ele><time>2026-05-01T08:58:50Z</time></trkpt><trkpt lat="44.39110280921769" lon="11.3196148002991"><ele>275.5</ele><time>2026-05-01T08:58:51Z</time></trkpt><trkpt lat="44.391024074073904" lon="11.319751369388335"><ele>277.0</ele><time>2026-05-01T08:58:52Z</time></trkpt><trkpt lat="44.39094374924942" lon="11.319900998980408"><ele>278.5</ele><time>2026-05-01T08:58:53Z</time></trkpt><trkpt lat="44.39087144330094" lon="11.320052939087116"><ele>280.0</ele><time>2026-05-01T08:58:54Z</time></trkpt><trkpt lat="44.39081274145686" lon="11.320199554671628"><ele>280.0</ele><time>2026-05-01T08:58:55Z</time></trkpt><trkpt lat="44.390750499216665" lon="11.320318384147555"><ele>280.0</ele><time>2026-05-01T08:58:56Z</time></trkpt><trkpt lat="44.390677407756" lon="11.320402235267405"><ele>280.0</ele><time>2026-05-01T08:58:57Z</time></trkpt><trkpt lat="44.390589524025096" lon="11.320467673294932"><ele>280.0</ele><time>2026-05-01T08:58:58Z</time></trkpt><trkpt lat="44.39050656594242" lon="11.320553319583695"><ele>280.0</ele><time>2026-05-01T08:58:59Z</time></trkpt><trkpt lat="44.39043678693472" lon="11.320648596294694"><ele>278.2</ele><time>2026-05-01T08:59:00Z</time></trkpt><trkpt lat="44.39037112978508" lon="11.32074396989866"><ele>276.4</ele><time>2026-05-01T08:59:01Z</time></trkpt><trkpt lat="44.39030570555833" lon="11.3208351915492"><ele>274.6</ele><time>2026-05-01T08:59:02Z</time></trkpt><trkpt lat="44.39023846304381" lon="11.320920630017039"><ele>272.8</ele><time>2026-05-01T08:59:03Z</time></trkpt><trkpt lat="44.39016241990707" lon="11.321001038707324"><ele>271.0</ele><time>2026-05-01T08:59:04Z</time></trkpt><trkpt lat="44.39007794779068" lon="11.321058311440094"><ele>271.0</ele><time>2026-05-01T08:59:05Z</time></trkpt><trkpt lat="44.38998423781249" lon="11.32110932643457"><ele>271.0</ele><time>2026-05-01T08:59:06Z</time></trkpt><trkpt lat="44.38988080137125" lon="11.321170927868815"><ele>271.0</ele><time>2026-05-01T08:59:07Z</time></trkpt><trkpt lat="44.38977454972351" lon="11.321242966470518"><ele>271.0</ele><time>2026-05-01T08:59:08Z</time></trkpt><trkpt lat="44.3896706002746" lon="11.32132122164643"><ele>271.0</ele><time>2026-05-01T08:59:09Z</time></trkpt><trkpt lat="44.38956151077079" lon="11.321416524241833"><ele>269.5</ele><time>2026-05-01T08:59:10Z</time></trkpt><trkpt lat="44.389455079880946" lon="11.321532662073414"><ele>268.0</ele><time>2026-05-01T08:59:11Z</time></trkpt><trkpt lat="44.38936349328192" lon="11.321685249503199"><ele>266.5</ele><time>2026-05-01T08:59:12Z</time></trkpt><trkpt lat="44.38928788821384" lon="11.32183470107241"><ele>265.0</ele><time>2026-05-01T08:59:13Z</time></trkpt><trkpt lat="44.389227576774516" lon="11.321984883370165"><ele>265.0</ele><time>2026-05-01T08:59:14Z</time></trkpt><trkpt lat="44.389181357894834" lon="11.322124609787936"><ele>265.0</ele><time>2026-05-01T08:59:15Z</time></trkpt><trkpt lat="44.38914646760329" lon="11.322257032668507"><ele>265.0</ele><time>2026-05-01T08:59:16Z</time></trkpt><trkpt lat="44.3891167667068" lon="11.322375254534764"><ele>265.0</ele><time>2026-05-01T08:59:17Z</time></trkpt><trkpt lat="44.389080919585375" lon="11.32248287155981"><ele>265.0</ele><time>2026-05-01T08:59:18Z</time></trkpt><trkpt lat="44.38902810799793" lon="11.322579353609482"><ele>266.0</ele><time>2026-05-01T08:59:19Z</time></trkpt><trkpt lat="44.38895793359937" lon="11.3226698798373"><ele>267.0</ele><time>2026-05-01T08:59:20Z</time></trkpt><trkpt lat="44.38887240620709" lon="11.32275129428528"><ele>268.0</ele><time>2026-05-01T08:59:21Z</time></trkpt><trkpt lat="44.388782974104004" lon="11.322856457858489"><ele>269.0</ele><time>2026-05-01T08:59:22Z</time></trkpt><trkpt lat="44.38870729095842" lon="11.322970991037435"><ele>270.0</ele><time>2026-05-01T08:59:23Z</time></trkpt><trkpt lat="44.38864770432439" lon="11.323109337591367"><ele>264.5</ele><time>2026-05-01T08:59:24Z</time></trkpt><trkpt lat="44.388617180320544" lon="11.323272802700474"><ele>259.0</ele><time>2026-05-01T08:59:25Z</time></trkpt><trkpt lat="44.38860387806878" lon="11.323433186897871"><ele>253.5</ele><time>2026-05-01T08:59:26Z</time></trkpt><trkpt lat="44.38862156522687" lon="11.323588199731677"><ele>248.0</ele><time>2026-05-01T08:59:27Z</time></trkpt><trkpt lat="44.38863985477977" lon="11.323745740092042"><ele>247.0</ele><time>2026-05-01T08:59:28Z</time></trkpt><trkpt lat="44.388674026796586" lon="11.32391522115761"><ele>246.0</ele><time>2026-05-01T08:59:29Z</time></trkpt><trkpt lat="44.38868762709856" lon="11.324097976284309"><ele>245.0</ele><time>2026-05-01T08:59:30Z</time></trkpt><trkpt lat="44.38869628607351" lon="11.324281971166338"><ele>244.0</ele><time>2026-05-01T08:59:31Z</time></trkpt><trkpt lat="44.388707347371934" lon="11.324470808611075"><ele>244.0</ele><time>2026-05-01T08:59:32Z</time></trkpt><trkpt lat="44.38873542809729" lon="11.324652656958838"><ele>244.0</ele><time>2026-05-01T08:59:33Z</time></trkpt><trkpt lat="44.38872118209783" lon="11.324829140913256"><ele>244.0</ele><time>2026-05-01T08:59:34Z</time></trkpt><trkpt lat="44.38869782026249" lon="11.324988479494012"><ele>244.0</ele><time>2026-05-01T08:59:35Z</time></trkpt><trkpt lat="44.38865172494462" lon="11.325133429556052"><ele>244.25</ele><time>2026-05-01T08:59:36Z</time></trkpt><trkpt lat="44.38864652120296" lon="11.325313965028634"><ele>244.5</ele><time>2026-05-01T08:59:37Z</time></trkpt><trkpt lat="44.38857179971731" lon="11.325455701499076"><ele>244.75</ele><time>2026-05-01T08:59:38Z</time></trkpt><trkpt lat="44.388499887183066" lon="11.325601848986457"><ele>245.0</ele><time>2026-05-01T08:59:39Z</time></trkpt><trkpt lat="44.38845020300339" lon="11.325768814887615"><ele>245.75</ele><time>2026-05-01T08:59:40Z</time></trkpt><trkpt lat="44.38836251717348" lon="11.325911327604514"><ele>246.5</ele><time>2026-05-01T08:59:41Z</time></trkpt><trkpt lat="44.3882943813106" lon="11.326045024277764"><ele>247.25</ele><time>2026-05-01T08:59:42Z</time></trkpt><trkpt lat="44.38821794601895" lon="11.326173026148625"><ele>248.0</ele><time>2026-05-01T08:59:43Z</time></trkpt><trkpt lat="44.38814510246184" lon="11.326303817543884"><ele>246.5</ele><time>2026-05-01T08:59:44Z</time></trkpt><trkpt lat="44.38807491728252" lon="11.32644136955822"><ele>245.0</ele><time>2026-05-01T08:59:45Z</time></trkpt><trkpt lat="44.38802307864257" lon="11.326602350766041"><ele>243.5</ele><time>2026-05-01T08:59:46Z</time></trkpt><trkpt lat="44.387985176294805" lon="11.326761756540263"><ele>242.0</ele><time>2026-05-01T08:59:47Z</time></trkpt><trkpt lat="44.38798825440968" lon="11.32693086309339"><ele>239.39999999999998</ele><time>2026-05-01T08:59:48Z</time></trkpt><trkpt lat="44.388000711448555" lon="11.32708704789153"><ele>236.79999999999998</ele><time>2026-05-01T08:59:49Z</time></trkpt><trkpt lat="44.38803365014704" lon="11.327232622395575"><ele>234.2</ele><time>2026-05-01T08:59:50Z</time></trkpt><trkpt lat="44.38808290310892" lon="11.3273690783393"><ele>231.6</ele><time>2026-05-01T08:59:51Z</time></trkpt><trkpt lat="44.38813460257541" lon="11.327484509948738"><ele>229.0</ele><time>2026-05-01T08:59:52Z</time></trkpt><trkpt lat="44.38819772574452" lon="11.327558919722872"><ele>229.0</ele><time>2026-05-01T08:59:53Z</time></trkpt><trkpt lat="44.38828212801999" lon="11.327569201996376"><ele>228.99999999999997</ele><time>2026-05-01T08:59:54Z</time></trkpt><trkpt lat="44.388360457913485" lon="11.327524916745894"><ele>228.99999999999997</ele><time>2026-05-01T08:59:55Z</time></trkpt><trkpt lat="44.388458357382824" lon="11.327457073048105"><ele>229.0</ele><time>2026-05-01T08:59:56Z</time></trkpt><trkpt lat="44.388606800561725" lon="11.32737375617623"><ele>229.0</ele><time>2026-05-01T08:59:57Z</time></trkpt><trkpt lat="44.38878068981239" lon="11.327271422743937"><ele>231.25</ele><time>2026-05-01T08:59:58Z</time></trkpt><trkpt lat="44.388948287804745" lon="11.327221420803115"><ele>233.5</ele><time>2026-05-01T08:59:59Z</time></trkpt><trkpt lat="44.389088992431184" lon="11.327196394948434"><ele>235.75</ele><time>2026-05-01T09:00:00Z</time></trkpt><trkpt lat="44.3892132309648" lon="11.327146949837115"><ele>238.0</ele><time>2026-05-01T09:00:01Z</time></trkpt><trkpt lat="44.389325709722854" lon="11.32710402411881"><ele>238.0</ele><time>2026-05-01T09:00:02Z</time></trkpt><trkpt lat="44.38943097534142" lon="11.327048380490984"><ele>238.0</ele><time>2026-05-01T09:00:03Z</time></trkpt><trkpt lat="44.38952653606776" lon="11.326971902267697"><ele>238.0</ele><time>2026-05-01T09:00:04Z</time></trkpt><trkpt lat="44.389618314709054" lon="11.326885606552548"><ele>238.0</ele><time>2026-05-01T09:00:05Z</time></trkpt><trkpt lat="44.38967271637307" lon="11.32675161948809"><ele>238.0</ele><time>2026-05-01T09:00:06Z</time></trkpt><trkpt lat="44.38972332835034" lon="11.326619187613975"><ele>236.60000000000002</ele><time>2026-05-01T09:00:06.999Z</time></trkpt><trkpt lat="44.389789390752014" lon="11.326497049935137"><ele>235.20000000000002</ele><time>2026-05-01T09:00:07.999Z</time></trkpt><trkpt lat="44.38987460584384" lon="11.32639815007255"><ele>233.8</ele><time>2026-05-01T09:00:08.999Z</time></trkpt><trkpt lat="44.3899730635752" lon="11.326334278972016"><ele>232.4</ele><time>2026-05-01T09:00:09.999Z</time></trkpt><trkpt lat="44.3900850693931" lon="11.326315911262457"><ele>231.0</ele><time>2026-05-01T09:00:10.999Z</time></trkpt><trkpt lat="44.390190792049786" lon="11.32634399045168"><ele>227.0</ele><time>2026-05-01T09:00:11.999Z</time></trkpt><trkpt lat="44.39028231667852" lon="11.326424815873716"><ele>223.0</ele><time>2026-05-01T09:00:12.999Z</time></trkpt><trkpt lat="44.390366273897385" lon="11.32654760583155"><ele>219.0</ele><time>2026-05-01T09:00:13.999Z</time></trkpt><trkpt lat="44.3904642516475" lon="11.326718364878657"><ele>215.0</ele><time>2026-05-01T09:00:14.999Z</time></trkpt><trkpt lat="44.390584646305655" lon="11.326933364594938"><ele>215.0</ele><time>2026-05-01T09:00:15.999Z</time></trkpt><trkpt lat="44.39069975715942" lon="11.327153941074148"><ele>215.0</ele><time>2026-05-01T09:00:16.999Z</time></trkpt><trkpt lat="44.390790752998896" lon="11.32734493032413"><ele>215.0</ele><time>2026-05-01T09:00:17.999Z</time></trkpt><trkpt lat="44.390870201816924" lon="11.327489309684681"><ele>213.2</ele><time>2026-05-01T09:00:18.999Z</time></trkpt><trkpt lat="44.39094129128058" lon="11.327608594009861"><ele>211.4</ele><time>2026-05-01T09:00:19.999Z</time></trkpt><trkpt lat="44.39098864753123" lon="11.327727298770155"><ele>209.60000000000002</ele><time>2026-05-01T09:00:20.999Z</time></trkpt><trkpt lat="44.390970751878456" lon="11.327845564348088"><ele>207.8</ele><time>2026-05-01T09:00:21.999Z</time></trkpt><trkpt lat="44.390902516802775" lon="11.327919481850861"><ele>206.0</ele><time>2026-05-01T09:00:22.999Z</time></trkpt><trkpt lat="44.390815277096664" lon="11.327870110918449"><ele>206.0</ele><time>2026-05-01T09:00:23.999Z</time></trkpt><trkpt lat="44.3907569136507" lon="11.32780190065363"><ele>206.0</ele><time>2026-05-01T09:00:24.999Z</time></trkpt><trkpt lat="44.390660870311756" lon="11.327723988462788"><ele>206.0</ele><time>2026-05-01T09:00:25.999Z</time></trkpt><trkpt lat="44.3905366892259" lon="11.327610519977657"><ele>206.0</ele><time>2026-05-01T09:00:26.999Z</time></trkpt><trkpt lat="44.39038289426308" lon="11.327517067057814"><ele>205.25</ele><time>2026-05-01T09:00:27.999Z</time></trkpt><trkpt lat="44.39023335343261" lon="11.32747433884664"><ele>204.5</ele><time>2026-05-01T09:00:28.999Z</time></trkpt><trkpt lat="44.390107727780816" lon="11.327469283227769"><ele>203.75</ele><time>2026-05-01T09:00:29.999Z</time></trkpt><trkpt lat="44.390010937005385" lon="11.327481318651975"><ele>203.0</ele><time>2026-05-01T09:00:30.999Z</time></trkpt><trkpt lat="44.38990976173044" lon="11.327620131793351"><ele>203.0</ele><time>2026-05-01T09:00:31.999Z</time></trkpt><trkpt lat="44.38989474001966" lon="11.327821415343166"><ele>203.0</ele><time>2026-05-01T09:00:32.999Z</time></trkpt><trkpt lat="44.38986377460424" lon="11.327953025927314"><ele>203.0</ele><time>2026-05-01T09:00:33.999Z</time></trkpt><trkpt lat="44.38984128509795" lon="11.328098163594062"><ele>203.0</ele><time>2026-05-01T09:00:34.999Z</time></trkpt><trkpt lat="44.39016544677531" lon="11.328131545914145"><ele>200.0</ele><time>2026-05-01T09:00:35.999Z</time></trkpt><trkpt lat="44.39030829790622" lon="11.328233267922464"><ele>197.0</ele><time>2026-05-01T09:00:36.999Z</time></trkpt><trkpt lat="44.39048347773388" lon="11.328355620472573"><ele>194.0</ele><time>2026-05-01T09:00:37.999Z</time></trkpt><trkpt lat="44.3906786371088" lon="11.328491927523967"><ele>194.0</ele><time>2026-05-01T09:00:39Z</time></trkpt><trkpt lat="44.39086534632562" lon="11.328621021922558"><ele>194.0</ele><time>2026-05-01T09:00:40Z</time></trkpt><trkpt lat="44.39108707280556" lon="11.328682244513512"><ele>194.0</ele><time>2026-05-01T09:00:41Z</time></trkpt><trkpt lat="44.3913039311171" lon="11.328822464569033"><ele>188.0</ele><time>2026-05-01T09:00:42Z</time></trkpt><trkpt lat="44.391547053425576" lon="11.328976018285822"><ele>182.0</ele><time>2026-05-01T09:00:43Z</time></trkpt><trkpt lat="44.39181284309895" lon="11.329149148238955"><ele>182.0</ele><time>2026-05-01T09:00:44Z</time></trkpt><trkpt lat="44.39205759105475" lon="11.329313757288027"><ele>182.0</ele><time>2026-05-01T09:00:45Z</time></trkpt><trkpt lat="44.392209452404394" lon="11.329497417000836"><ele>178.0</ele><time>2026-05-01T09:00:46Z</time></trkpt><trkpt lat="44.39242861269392" lon="11.32963845558588"><ele>174.0</ele><time>2026-05-01T09:00:47Z</time></trkpt><trkpt lat="44.39263587140041" lon="11.329772667578911"><ele>172.66666666666666</ele><time>2026-05-01T09:00:48Z</time></trkpt><trkpt lat="44.39283066734332" lon="11.329898918520193"><ele>171.33333333333331</ele><time>2026-05-01T09:00:49Z</time></trkpt><trkpt lat="44.39301805704422" lon="11.330021234810177"><ele>170.0</ele><time>2026-05-01T09:00:50Z</time></trkpt><trkpt lat="44.39318429335624" lon="11.330131396942333"><ele>170.0</ele><time>2026-05-01T09:00:51Z</time></trkpt><trkpt lat="44.39334234638043" lon="11.330236136149756"><ele>170.0</ele><time>2026-05-01T09:00:52Z</time></trkpt><trkpt lat="44.3934902168204" lon="11.330348998274033"><ele>170.0</ele><time>2026-05-01T09:00:53Z</time></trkpt><trkpt lat="44.39360114552097" lon="11.330487254978664"><ele>169.66666666666666</ele><time>2026-05-01T09:00:54Z</time></trkpt><trkpt lat="44.39370501393453" lon="11.330632227516022"><ele>169.33333333333334</ele><time>2026-05-01T09:00:55Z</time></trkpt><trkpt lat="44.3937906174993" lon="11.330809934639998"><ele>169.0</ele><time>2026-05-01T09:00:56Z</time></trkpt><trkpt lat="44.393844354036915" lon="11.331006271056241"><ele>169.0</ele><time>2026-05-01T09:00:57Z</time></trkpt><trkpt lat="44.393887928907596" lon="11.331227773234692"><ele>169.0</ele><time>2026-05-01T09:00:58Z</time></trkpt><trkpt lat="44.39394773360737" lon="11.33143588424443"><ele>169.0</ele><time>2026-05-01T09:00:59Z</time></trkpt><trkpt lat="44.393999058716666" lon="11.331636239745997"><ele>168.5</ele><time>2026-05-01T09:01:00Z</time></trkpt><trkpt lat="44.39405135019934" lon="11.33182645032097"><ele>168.0</ele><time>2026-05-01T09:01:01Z</time></trkpt><trkpt lat="44.39412152390372" lon="11.331993921971721"><ele>167.5</ele><time>2026-05-01T09:01:02Z</time></trkpt><trkpt lat="44.39421735691305" lon="11.332116266448834"><ele>167.0</ele><time>2026-05-01T09:01:03Z</time></trkpt><trkpt lat="44.3943380314762" lon="11.332192215399987"><ele>166.66666666666666</ele><time>2026-05-01T09:01:04Z</time></trkpt><trkpt lat="44.394476039397794" lon="11.332282824549152"><ele>166.33333333333334</ele><time>2026-05-01T09:01:05Z</time></trkpt><trkpt lat="44.394624478124996" lon="11.332376056096914"><ele>166.0</ele><time>2026-05-01T09:01:06Z</time></trkpt><trkpt lat="44.39477543546286" lon="11.332471918320548"><ele>166.0</ele><time>2026-05-01T09:01:07Z</time></trkpt><trkpt lat="44.394932368338715" lon="11.33257157517474"><ele>166.0</ele><time>2026-05-01T09:01:08Z</time></trkpt><trkpt lat="44.39509352498308" lon="11.332675315446991"><ele>166.0</ele><time>2026-05-01T09:01:09Z</time></trkpt><trkpt lat="44.39526192483253" lon="11.332784032986927"><ele>166.0</ele><time>2026-05-01T09:01:10Z</time></trkpt><trkpt lat="44.39543814753338" lon="11.332897148001214"><ele>166.0</ele><time>2026-05-01T09:01:11Z</time></trkpt><trkpt lat="44.39561425829495" lon="11.333008259572209"><ele>166.0</ele><time>2026-05-01T09:01:12Z</time></trkpt><trkpt lat="44.39580177440211" lon="11.333127069192509"><ele>165.0</ele><time>2026-05-01T09:01:13Z</time></trkpt><trkpt lat="44.39598023893789" lon="11.333240950684626"><ele>164.0</ele><time>2026-05-01T09:01:14Z</time></trkpt><trkpt lat="44.39615631047954" lon="11.333354036717882"><ele>163.0</ele><time>2026-05-01T09:01:15Z</time></trkpt><trkpt lat="44.3963254400066" lon="11.33346288546817"><ele>163.0</ele><time>2026-05-01T09:01:16Z</time></trkpt><trkpt lat="44.39649460610757" lon="11.333571742649301"><ele>163.0</ele><time>2026-05-01T09:01:17Z</time></trkpt><trkpt lat="44.39665668123987" lon="11.333696728500597"><ele>163.0</ele><time>2026-05-01T09:01:18Z</time></trkpt><trkpt lat="44.396823211518694" lon="11.333808609250127"><ele>161.66666666666669</ele><time>2026-05-01T09:01:19Z</time></trkpt><trkpt lat="44.39699953683441" lon="11.333897381587771"><ele>160.33333333333334</ele><time>2026-05-01T09:01:20Z</time></trkpt><trkpt lat="44.39715796316789" lon="11.334021664288526"><ele>159.0</ele><time>2026-05-01T09:01:21Z</time></trkpt><trkpt lat="44.39732614267844" lon="11.334131023647412"><ele>159.0</ele><time>2026-05-01T09:01:22Z</time></trkpt><trkpt lat="44.397501284664855" lon="11.334222174598269"><ele>159.0</ele><time>2026-05-01T09:01:23Z</time></trkpt><trkpt lat="44.397667213931314" lon="11.334329578123096"><ele>159.0</ele><time>2026-05-01T09:01:24Z</time></trkpt><trkpt lat="44.397831830845064" lon="11.334436132183225"><ele>159.0</ele><time>2026-05-01T09:01:25Z</time></trkpt><trkpt lat="44.39799304216387" lon="11.334540481854948"><ele>159.0</ele><time>2026-05-01T09:01:26Z</time></trkpt><trkpt lat="44.398150283974445" lon="11.334642262118045"><ele>159.0</ele><time>2026-05-01T09:01:27Z</time></trkpt><trkpt lat="44.39830185213308" lon="11.334740369911833"><ele>158.0</ele><time>2026-05-01T09:01:28Z</time></trkpt><trkpt lat="44.39844921705478" lon="11.334835757005688"><ele>157.0</ele><time>2026-05-01T09:01:29Z</time></trkpt><trkpt lat="44.398593426293104" lon="11.334942349245757"><ele>156.0</ele><time>2026-05-01T09:01:30Z</time></trkpt><trkpt lat="44.39870815477354" lon="11.335069236787504"><ele>156.0</ele><time>2026-05-01T09:01:31Z</time></trkpt><trkpt lat="44.39879091101671" lon="11.335188812718854"><ele>156.0</ele><time>2026-05-01T09:01:32Z</time></trkpt><trkpt lat="44.39882709518017" lon="11.335324420175043"><ele>156.0</ele><time>2026-05-01T09:01:33Z</time></trkpt><trkpt lat="44.398818718296994" lon="11.33546583145857"><ele>156.0</ele><time>2026-05-01T09:01:34Z</time></trkpt><trkpt lat="44.398806384555314" lon="11.335616521840015"><ele>156.0</ele><time>2026-05-01T09:01:35Z</time></trkpt><trkpt lat="44.39880864441915" lon="11.335777722574377"><ele>154.8</ele><time>2026-05-01T09:01:36Z</time></trkpt><trkpt lat="44.39879054359716" lon="11.335932615778953"><ele>153.6</ele><time>2026-05-01T09:01:37Z</time></trkpt><trkpt lat="44.39877678567297" lon="11.33608279981233"><ele>152.4</ele><time>2026-05-01T09:01:38Z</time></trkpt><trkpt lat="44.398767916329525" lon="11.336229438131252"><ele>151.2</ele><time>2026-05-01T09:01:39Z</time></trkpt><trkpt lat="44.39875717966659" lon="11.336372362047038"><ele>150.0</ele><time>2026-05-01T09:01:40Z</time></trkpt><trkpt lat="44.39874464957198" lon="11.336514924807048"><ele>148.5</ele><time>2026-05-01T09:01:41Z</time></trkpt><trkpt lat="44.3987301428131" lon="11.336653387313708"><ele>147.0</ele><time>2026-05-01T09:01:42Z</time></trkpt><trkpt lat="44.39871679444963" lon="11.336791606266262"><ele>145.5</ele><time>2026-05-01T09:01:43Z</time></trkpt><trkpt lat="44.39870778858774" lon="11.336916181881412"><ele>144.0</ele><time>2026-05-01T09:01:44Z</time></trkpt><trkpt lat="44.39869926079502" lon="11.337013769871996"><ele>142.5</ele><time>2026-05-01T09:01:45Z</time></trkpt><trkpt lat="44.39868250561788" lon="11.337135107002181"><ele>141.0</ele><time>2026-05-01T09:01:47Z</time></trkpt><trkpt lat="44.398661399132685" lon="11.337225364536877"><ele>140.5</ele><time>2026-05-01T09:01:50Z</time></trkpt><trkpt lat="44.39857155609513" lon="11.337363497903642"><ele>140.0</ele><time>2026-05-01T09:01:52Z</time></trkpt><trkpt lat="44.39846235159344" lon="11.337390598519955"><ele>139.5</ele><time>2026-05-01T09:01:53Z</time></trkpt><trkpt lat="44.39846804892518" lon="11.337553262242258"><ele>139.0</ele><time>2026-05-01T09:01:54Z</time></trkpt><trkpt lat="44.39850980225265" lon="11.337685221990872"><ele>139.0</ele><time>2026-05-01T09:01:55Z</time></trkpt><trkpt lat="44.398568034933625" lon="11.337775489348637"><ele>139.0</ele><time>2026-05-01T09:01:56Z</time></trkpt><trkpt lat="44.398620292523205" lon="11.33786086048011"><ele>139.0</ele><time>2026-05-01T09:01:57Z</time></trkpt><trkpt lat="44.39862908800449" lon="11.337980513360208"><ele>139.0</ele><time>2026-05-01T09:01:58Z</time></trkpt><trkpt lat="44.39861116892321" lon="11.338114764628283"><ele>139.0</ele><time>2026-05-01T09:01:59Z</time></trkpt><trkpt lat="44.39858442563679" lon="11.33826535701509"><ele>139.2</ele><time>2026-05-01T09:02:00Z</time></trkpt><trkpt lat="44.3985669320434" lon="11.338414029616857"><ele>139.4</ele><time>2026-05-01T09:02:01Z</time></trkpt><trkpt lat="44.39855209674059" lon="11.338565194073334"><ele>139.6</ele><time>2026-05-01T09:02:02Z</time></trkpt><trkpt lat="44.39853577134013" lon="11.338712544320947"><ele>139.8</ele><time>2026-05-01T09:02:03Z</time></trkpt><trkpt lat="44.39852590780702" lon="11.338861974855636"><ele>140.0</ele><time>2026-05-01T09:02:04Z</time></trkpt><trkpt lat="44.398516507065345" lon="11.339014156222836"><ele>140.8</ele><time>2026-05-01T09:02:05Z</time></trkpt><trkpt lat="44.39850439390506" lon="11.339169414803491"><ele>141.6</ele><time>2026-05-01T09:02:06Z</time></trkpt><trkpt lat="44.398490374384885" lon="11.339323581456624"><ele>142.4</ele><time>2026-05-01T09:02:07Z</time></trkpt><trkpt lat="44.39847612386157" lon="11.339473905952172"><ele>143.2</ele><time>2026-05-01T09:02:08Z</time></trkpt><trkpt lat="44.39846366491361" lon="11.339616039241374"><ele>144.0</ele><time>2026-05-01T09:02:09Z</time></trkpt><trkpt lat="44.39845540467358" lon="11.339740564172216"><ele>144.16666666666666</ele><time>2026-05-01T09:02:10Z</time></trkpt><trkpt lat="44.39842879568594" lon="11.339857561659198"><ele>144.33333333333334</ele><time>2026-05-01T09:02:10.999Z</time></trkpt><trkpt lat="44.39841680193949" lon="11.339969971570692"><ele>144.5</ele><time>2026-05-01T09:02:11.999Z</time></trkpt><trkpt lat="44.39842018155462" lon="11.340060183479151"><ele>144.66666666666669</ele><time>2026-05-01T09:02:12.999Z</time></trkpt><trkpt lat="44.398390648136726" lon="11.340182667891648"><ele>144.83333333333334</ele><time>2026-05-01T09:02:14.999Z</time></trkpt><trkpt lat="44.398405317268384" lon="11.340313107926658"><ele>145.0</ele><time>2026-05-01T09:02:16.999Z</time></trkpt><trkpt lat="44.39845375948224" lon="11.340391043620606"><ele>145.0</ele><time>2026-05-01T09:02:17.999Z</time></trkpt><trkpt lat="44.398526957559426" lon="11.340434989772088"><ele>145.0</ele><time>2026-05-01T09:02:18.999Z</time></trkpt><trkpt lat="44.39862538376448" lon="11.34043437668328"><ele>145.0</ele><time>2026-05-01T09:02:19.999Z</time></trkpt><trkpt lat="44.398732292384416" lon="11.340349872931611"><ele>145.0</ele><time>2026-05-01T09:02:20.999Z</time></trkpt><trkpt lat="44.39884089306603" lon="11.340367058900808"><ele>145.0</ele><time>2026-05-01T09:02:21.999Z</time></trkpt><trkpt lat="44.39895436683884" lon="11.340385228291145"><ele>144.2</ele><time>2026-05-01T09:02:22.999Z</time></trkpt><trkpt lat="44.39906680985843" lon="11.340403467859254"><ele>143.4</ele><time>2026-05-01T09:02:23.999Z</time></trkpt><trkpt lat="44.3991744928388" lon="11.340420926695785"><ele>142.6</ele><time>2026-05-01T09:02:24.999Z</time></trkpt><trkpt lat="44.39928034822696" lon="11.340434887934194"><ele>141.8</ele><time>2026-05-01T09:02:25.999Z</time></trkpt><trkpt lat="44.39937076802152" lon="11.340443746392433"><ele>141.0</ele><time>2026-05-01T09:02:26.999Z</time></trkpt><trkpt lat="44.399433091961924" lon="11.340566369936388"><ele>140.8</ele><time>2026-05-01T09:02:27.999Z</time></trkpt><trkpt lat="44.399457969813604" lon="11.340737049196035"><ele>140.6</ele><time>2026-05-01T09:02:29.999Z</time></trkpt><trkpt lat="44.39944398703855" lon="11.340828012541625"><ele>140.4</ele><time>2026-05-01T09:02:30.999Z</time></trkpt><trkpt lat="44.399389310359595" lon="11.340965012138978"><ele>140.2</ele><time>2026-05-01T09:02:32.999Z</time></trkpt><trkpt lat="44.39937223293976" lon="11.341066599088053"><ele>140.0</ele><time>2026-05-01T09:02:34.999Z</time></trkpt><trkpt lat="44.399350435334966" lon="11.341193848961346"><ele>140.0</ele><time>2026-05-01T09:02:58Z</time></trkpt><trkpt lat="44.39933418244475" lon="11.341292564496479"><ele>140.0</ele><time>2026-05-01T09:02:59Z</time></trkpt><trkpt lat="44.399315734757906" lon="11.341409562182182"><ele>140.0</ele><time>2026-05-01T09:03:00Z</time></trkpt><trkpt lat="44.3992951229993" lon="11.3415544568631"><ele>140.0</ele><time>2026-05-01T09:03:01Z</time></trkpt><trkpt lat="44.39927922380133" lon="11.341704699455043"><ele>140.0</ele><time>2026-05-01T09:03:02Z</time></trkpt><trkpt lat="44.39928489148698" lon="11.341870438536336"><ele>140.75</ele><time>2026-05-01T09:03:03Z</time></trkpt><trkpt lat="44.399311579245875" lon="11.342028215024524"><ele>141.5</ele><time>2026-05-01T09:03:04Z</time></trkpt><trkpt lat="44.39937782881568" lon="11.342155877601183"><ele>142.25</ele><time>2026-05-01T09:03:05Z</time></trkpt><trkpt lat="44.39944419636878" lon="11.342285686931511"><ele>143.0</ele><time>2026-05-01T09:03:06Z</time></trkpt><trkpt lat="44.39951203460414" lon="11.342426599282836"><ele>145.20000000000002</ele><time>2026-05-01T09:03:07Z</time></trkpt><trkpt lat="44.39957868583533" lon="11.342573025515401"><ele>147.4</ele><time>2026-05-01T09:03:08Z</time></trkpt><trkpt lat="44.39959160502362" lon="11.34272340791883"><ele>149.60000000000002</ele><time>2026-05-01T09:03:09Z</time></trkpt><trkpt lat="44.39962730713756" lon="11.342843726498506"><ele>151.8</ele><time>2026-05-01T09:03:10Z</time></trkpt><trkpt lat="44.39964171482806" lon="11.342951935507484"><ele>154.0</ele><time>2026-05-01T09:03:11Z</time></trkpt><trkpt lat="44.399630956065565" lon="11.343070374256728"><ele>155.6</ele><time>2026-05-01T09:03:12Z</time></trkpt><trkpt lat="44.39959967290477" lon="11.343184846534406"><ele>157.2</ele><time>2026-05-01T09:03:13Z</time></trkpt><trkpt lat="44.39956453531678" lon="11.343301226654418"><ele>158.79999999999998</ele><time>2026-05-01T09:03:14Z</time></trkpt><trkpt lat="44.39953861258053" lon="11.34344165993175"><ele>160.4</ele><time>2026-05-01T09:03:15Z</time></trkpt><trkpt lat="44.399544614104556" lon="11.343611604690281"><ele>162.0</ele><time>2026-05-01T09:03:16Z</time></trkpt><trkpt lat="44.39957767375251" lon="11.34379474813063"><ele>162.5</ele><time>2026-05-01T09:03:17Z</time></trkpt><trkpt lat="44.399600486958654" lon="11.34395969812504"><ele>163.0</ele><time>2026-05-01T09:03:18Z</time></trkpt><trkpt lat="44.3996199523625" lon="11.344117250013534"><ele>163.5</ele><time>2026-05-01T09:03:19Z</time></trkpt><trkpt lat="44.399646924517455" lon="11.344272467184423"><ele>164.0</ele><time>2026-05-01T09:03:20Z</time></trkpt><trkpt lat="44.39972557844402" lon="11.34439690425907"><ele>163.75</ele><time>2026-05-01T09:03:21Z</time></trkpt><trkpt lat="44.39981986144107" lon="11.34448880168581"><ele>163.5</ele><time>2026-05-01T09:03:22Z</time></trkpt><trkpt lat="44.399888569566286" lon="11.344639284073837"><ele>163.25</ele><time>2026-05-01T09:03:23Z</time></trkpt><trkpt lat="44.39998150710888" lon="11.344745170349064"><ele>163.0</ele><time>2026-05-01T09:03:24Z</time></trkpt><trkpt lat="44.400065202221924" lon="11.344839714108899"><ele>163.0</ele><time>2026-05-01T09:03:25Z</time></trkpt><trkpt lat="44.40014215736553" lon="11.344927981181652"><ele>163.0</ele><time>2026-05-01T09:03:26Z</time></trkpt><trkpt lat="44.40020633372178" lon="11.34500553983603"><ele>163.0</ele><time>2026-05-01T09:03:27Z</time></trkpt><trkpt lat="44.40022800139578" lon="11.345122502492476"><ele>163.0</ele><time>2026-05-01T09:03:28Z</time></trkpt><trkpt lat="44.400218305608554" lon="11.345215634538107"><ele>163.0</ele><time>2026-05-01T09:03:29Z</time></trkpt><trkpt lat="44.400147481750054" lon="11.345191544253517"><ele>163.0</ele><time>2026-05-01T09:03:30Z</time></trkpt><trkpt lat="44.40009569853941" lon="11.345272909048179"><ele>163.0</ele><time>2026-05-01T09:03:31Z</time></trkpt><trkpt lat="44.40004339606535" lon="11.345376160949236"><ele>163.0</ele><time>2026-05-01T09:03:32Z</time></trkpt><trkpt lat="44.400001214295514" lon="11.345486830107719"><ele>163.0</ele><time>2026-05-01T09:03:33Z</time></trkpt><trkpt lat="44.39994390510632" lon="11.345576633382413"><ele>163.0</ele><time>2026-05-01T09:03:34Z</time></trkpt><trkpt lat="44.39988723618056" lon="11.345648291135255"><ele>163.0</ele><time>2026-05-01T09:03:35Z</time></trkpt><trkpt lat="44.399825571112004" lon="11.345777489306156"><ele>163.75</ele><time>2026-05-01T09:03:37Z</time></trkpt><trkpt lat="44.39969005075764" lon="11.3456449372204"><ele>164.5</ele><time>2026-05-01T09:03:38Z</time></trkpt><trkpt lat="44.39960214416303" lon="11.345608051353395"><ele>165.25</ele><time>2026-05-01T09:03:39Z</time></trkpt><trkpt lat="44.39951761707018" lon="11.345534947660058"><ele>166.0</ele><time>2026-05-01T09:03:40Z</time></trkpt><trkpt lat="44.39941876202835" lon="11.345468260523711"><ele>166.4</ele><time>2026-05-01T09:03:41Z</time></trkpt><trkpt lat="44.399328272294966" lon="11.34541442198553"><ele>166.8</ele><time>2026-05-01T09:03:42Z</time></trkpt><trkpt lat="44.399229932687795" lon="11.345346646705226"><ele>167.20000000000002</ele><time>2026-05-01T09:03:43Z</time></trkpt><trkpt lat="44.39912395405845" lon="11.345281348466026"><ele>167.60000000000002</ele><time>2026-05-01T09:03:44Z</time></trkpt><trkpt lat="44.39902294981288" lon="11.345181064153827"><ele>168.0</ele><time>2026-05-01T09:03:45Z</time></trkpt><trkpt lat="44.398907829491485" lon="11.345110337763076"><ele>168.0</ele><time>2026-05-01T09:03:46Z</time></trkpt><trkpt lat="44.398810756783284" lon="11.34501164337767"><ele>168.0</ele><time>2026-05-01T09:03:47Z</time></trkpt><trkpt lat="44.398702701189784" lon="11.344920804119198"><ele>168.0</ele><time>2026-05-01T09:03:48Z</time></trkpt><trkpt lat="44.39860272726335" lon="11.344805309267764"><ele>168.0</ele><time>2026-05-01T09:03:49Z</time></trkpt><trkpt lat="44.39849512827671" lon="11.344708552593332"><ele>168.0</ele><time>2026-05-01T09:03:50Z</time></trkpt><trkpt lat="44.39837856972234" lon="11.344615657303216"><ele>168.0</ele><time>2026-05-01T09:03:51Z</time></trkpt><trkpt lat="44.398259395283915" lon="11.3445160509788"><ele>168.0</ele><time>2026-05-01T09:03:52Z</time></trkpt><trkpt lat="44.3981411393212" lon="11.344402318706829"><ele>168.0</ele><time>2026-05-01T09:03:53Z</time></trkpt><trkpt lat="44.39802267546266" lon="11.344299876368536"><ele>168.5</ele><time>2026-05-01T09:03:54Z</time></trkpt><trkpt lat="44.39790602019623" lon="11.344199251065374"><ele>169.0</ele><time>2026-05-01T09:03:55Z</time></trkpt><trkpt lat="44.397790648590494" lon="11.344103255237792"><ele>169.5</ele><time>2026-05-01T09:03:56Z</time></trkpt><trkpt lat="44.397678018389286" lon="11.344010055182817"><ele>170.0</ele><time>2026-05-01T09:03:57Z</time></trkpt><trkpt lat="44.39756660058062" lon="11.343919714630037"><ele>170.0</ele><time>2026-05-01T09:03:58Z</time></trkpt><trkpt lat="44.39745570774703" lon="11.343826820484658"><ele>170.0</ele><time>2026-05-01T09:03:59Z</time></trkpt><trkpt lat="44.39734711347752" lon="11.343733590679161"><ele>170.0</ele><time>2026-05-01T09:04:00Z</time></trkpt><trkpt lat="44.397253275762544" lon="11.343627837701233"><ele>170.0</ele><time>2026-05-01T09:04:01Z</time></trkpt><trkpt lat="44.39714808290418" lon="11.343574192751813"><ele>170.2</ele><time>2026-05-01T09:04:02Z</time></trkpt><trkpt lat="44.397064093440065" lon="11.343510259222068"><ele>170.4</ele><time>2026-05-01T09:04:03Z</time></trkpt><trkpt lat="44.396991777600725" lon="11.34347671306671"><ele>170.60000000000002</ele><time>2026-05-01T09:04:04Z</time></trkpt><trkpt lat="44.39689258672641" lon="11.34355713782488"><ele>170.8</ele><time>2026-05-01T09:04:06Z</time></trkpt><trkpt lat="44.39688880665589" lon="11.343681264320846"><ele>171.0</ele><time>2026-05-01T09:04:08Z</time></trkpt><trkpt lat="44.39698833706186" lon="11.343829629518018"><ele>171.0</ele><time>2026-05-01T09:04:13Z</time></trkpt><trkpt lat="44.397039298968586" lon="11.343882709798345"><ele>171.0</ele><time>2026-05-01T09:08:55.999Z</time></trkpt><trkpt lat="44.397129643479595" lon="11.343914821759888"><ele>171.0</ele><time>2026-05-01T09:15:05.999Z</time></trkpt><trkpt lat="44.39722044567061" lon="11.343908308405833"><ele>171.0</ele><time>2026-05-01T09:15:07.999Z</time></trkpt><trkpt lat="44.397201804474264" lon="11.344010306412438"><ele>171.0</ele><time>2026-05-01T09:15:08.999Z</time></trkpt><trkpt lat="44.397276142221926" lon="11.343810558623797"><ele>171.0</ele><time>2026-05-01T09:15:10.999Z</time></trkpt><trkpt lat="44.397267835974006" lon="11.34371101187828"><ele>171.0</ele><time>2026-05-01T09:15:27Z</time></trkpt><trkpt lat="44.397171279708544" lon="11.34355047001088"><ele>171.0</ele><time>2026-05-01T09:15:29Z</time></trkpt><trkpt lat="44.397093586270316" lon="11.343487626967589"><ele>171.0</ele><time>2026-05-01T09:15:30Z</time></trkpt><trkpt lat="44.397014716219395" lon="11.343428160644022"><ele>171.0</ele><time>2026-05-01T09:15:31Z</time></trkpt><trkpt lat="44.396933607764794" lon="11.343360223331915"><ele>171.0</ele><time>2026-05-01T09:15:32Z</time></trkpt><trkpt lat="44.39685118051397" lon="11.343286598436878"><ele>171.0</ele><time>2026-05-01T09:15:33Z</time></trkpt><trkpt lat="44.39676737125882" lon="11.343211718354857"><ele>171.0</ele><time>2026-05-01T09:15:34Z</time></trkpt><trkpt lat="44.396679631516974" lon="11.343135109795401"><ele>171.0</ele><time>2026-05-01T09:15:35Z</time></trkpt><trkpt lat="44.396589392772235" lon="11.343053907798884"><ele>171.0</ele><time>2026-05-01T09:15:36Z</time></trkpt><trkpt lat="44.39649566210107" lon="11.342969912809531"><ele>170.75</ele><time>2026-05-01T09:15:37Z</time></trkpt><trkpt lat="44.396397561996714" lon="11.342888140709402"><ele>170.5</ele><time>2026-05-01T09:15:38Z</time></trkpt><trkpt lat="44.39629778257621" lon="11.342801246467145"><ele>170.25</ele><time>2026-05-01T09:15:39Z</time></trkpt><trkpt lat="44.3961969879521" lon="11.342711378168824"><ele>170.0</ele><time>2026-05-01T09:15:40Z</time></trkpt><trkpt lat="44.396096858707345" lon="11.342620101104735"><ele>170.75</ele><time>2026-05-01T09:15:41Z</time></trkpt><trkpt lat="44.39599676847845" lon="11.34252972515683"><ele>171.5</ele><time>2026-05-01T09:15:42Z</time></trkpt><trkpt lat="44.395894692034446" lon="11.342443910745626"><ele>172.25</ele><time>2026-05-01T09:15:43Z</time></trkpt><trkpt lat="44.39579249591101" lon="11.342361593598866"><ele>173.0</ele><time>2026-05-01T09:15:44Z</time></trkpt><trkpt lat="44.39569073100855" lon="11.342281679533535"><ele>172.5</ele><time>2026-05-01T09:15:45Z</time></trkpt><trkpt lat="44.39558865078388" lon="11.342203050173197"><ele>172.0</ele><time>2026-05-01T09:15:46Z</time></trkpt><trkpt lat="44.39548793851419" lon="11.342125375240343"><ele>171.5</ele><time>2026-05-01T09:15:47Z</time></trkpt><trkpt lat="44.395387821057206" lon="11.342047415507901"><ele>171.0</ele><time>2026-05-01T09:15:48Z</time></trkpt><trkpt lat="44.395284667014714" lon="11.341968815847865"><ele>171.0</ele><time>2026-05-01T09:15:49Z</time></trkpt><trkpt lat="44.395176318269186" lon="11.34188616304123"><ele>171.0</ele><time>2026-05-01T09:15:50Z</time></trkpt><trkpt lat="44.39506273230575" lon="11.341798684303962"><ele>171.0</ele><time>2026-05-01T09:15:51Z</time></trkpt><trkpt lat="44.39494588920262" lon="11.341707993522986"><ele>171.0</ele><time>2026-05-01T09:15:52Z</time></trkpt><trkpt lat="44.394823528330306" lon="11.341611536172605"><ele>171.0</ele><time>2026-05-01T09:15:53Z</time></trkpt><trkpt lat="44.39469138976499" lon="11.341511782156433"><ele>171.0</ele><time>2026-05-01T09:15:54Z</time></trkpt><trkpt lat="44.39454987352771" lon="11.341408557853011"><ele>171.0</ele><time>2026-05-01T09:15:55Z</time></trkpt><trkpt lat="44.39444971775907" lon="11.341330041920877"><ele>171.0</ele><time>2026-05-01T09:15:56Z</time></trkpt><trkpt lat="44.39432284711837" lon="11.341236761896688"><ele>171.5</ele><time>2026-05-01T09:15:57Z</time></trkpt><trkpt lat="44.39419564085234" lon="11.341142628361661"><ele>172.0</ele><time>2026-05-01T09:15:58Z</time></trkpt><trkpt lat="44.39406142947532" lon="11.341047790171443"><ele>172.5</ele><time>2026-05-01T09:15:59Z</time></trkpt><trkpt lat="44.39392473368399" lon="11.340965856205216"><ele>173.0</ele><time>2026-05-01T09:16:00Z</time></trkpt><trkpt lat="44.393785272468214" lon="11.340902712015897"><ele>175.0</ele><time>2026-05-01T09:16:01Z</time></trkpt><trkpt lat="44.39363847021807" lon="11.34088585500233"><ele>177.0</ele><time>2026-05-01T09:16:02Z</time></trkpt><trkpt lat="44.393482741545704" lon="11.340889970313057"><ele>179.0</ele><time>2026-05-01T09:16:03Z</time></trkpt><trkpt lat="44.393325582301536" lon="11.340898345156031"><ele>179.0</ele><time>2026-05-01T09:16:04Z</time></trkpt><trkpt lat="44.39316681108547" lon="11.340903000380711"><ele>179.0</ele><time>2026-05-01T09:16:05Z</time></trkpt><trkpt lat="44.39300815023423" lon="11.34091432730149"><ele>179.0</ele><time>2026-05-01T09:16:06Z</time></trkpt><trkpt lat="44.39284500931639" lon="11.340916842896764"><ele>179.66666666666666</ele><time>2026-05-01T09:16:07Z</time></trkpt><trkpt lat="44.39268427754413" lon="11.340924813982548"><ele>180.33333333333334</ele><time>2026-05-01T09:16:08Z</time></trkpt><trkpt lat="44.392521971700916" lon="11.340934426949202"><ele>181.0</ele><time>2026-05-01T09:16:09Z</time></trkpt><trkpt lat="44.392358141778494" lon="11.340942695424205"><ele>181.0</ele><time>2026-05-01T09:16:10Z</time></trkpt><trkpt lat="44.39220268980719" lon="11.3409533156291"><ele>181.0</ele><time>2026-05-01T09:16:11Z</time></trkpt><trkpt lat="44.3920449385385" lon="11.340956089751186"><ele>181.0</ele><time>2026-05-01T09:16:12Z</time></trkpt><trkpt lat="44.39188941464055" lon="11.340963224855416"><ele>181.0</ele><time>2026-05-01T09:16:13Z</time></trkpt><trkpt lat="44.391747635046734" lon="11.340973006315828"><ele>181.0</ele><time>2026-05-01T09:16:14Z</time></trkpt><trkpt lat="44.39162202976206" lon="11.34099097887767"><ele>181.0</ele><time>2026-05-01T09:16:15Z</time></trkpt><trkpt lat="44.39151447414483" lon="11.341024681282693"><ele>181.0</ele><time>2026-05-01T09:16:16Z</time></trkpt><trkpt lat="44.39142462734535" lon="11.341067686105175"><ele>181.0</ele><time>2026-05-01T09:16:17Z</time></trkpt><trkpt lat="44.39134075441995" lon="11.341117910865698"><ele>181.0</ele><time>2026-05-01T09:16:18Z</time></trkpt><trkpt lat="44.391270526971624" lon="11.341179039170454"><ele>181.0</ele><time>2026-05-01T09:16:19Z</time></trkpt><trkpt lat="44.39117527330088" lon="11.341213235314203"><ele>181.0</ele><time>2026-05-01T09:16:20Z</time></trkpt><trkpt lat="44.391073133672975" lon="11.341237968149377"><ele>181.0</ele><time>2026-05-01T09:16:21Z</time></trkpt><trkpt lat="44.390967068450514" lon="11.341247555845433"><ele>180.75</ele><time>2026-05-01T09:16:22Z</time></trkpt><trkpt lat="44.39085757516271" lon="11.341245853810854"><ele>180.5</ele><time>2026-05-01T09:16:23Z</time></trkpt><trkpt lat="44.39074843409131" lon="11.341248495095215"><ele>180.25</ele><time>2026-05-01T09:16:23.999Z</time></trkpt><trkpt lat="44.39062324496544" lon="11.341277751292818"><ele>180.0</ele><time>2026-05-01T09:16:24.999Z</time></trkpt><trkpt lat="44.39049806863818" lon="11.341305719465339"><ele>180.0</ele><time>2026-05-01T09:16:25.999Z</time></trkpt><trkpt lat="44.39036722912587" lon="11.341319054882307"><ele>180.0</ele><time>2026-05-01T09:16:26.999Z</time></trkpt><trkpt lat="44.39023426938995" lon="11.341312949009753"><ele>180.0</ele><time>2026-05-01T09:16:27.999Z</time></trkpt><trkpt lat="44.390103735196604" lon="11.3412796765845"><ele>180.0</ele><time>2026-05-01T09:16:28.999Z</time></trkpt><trkpt lat="44.389972106203054" lon="11.341234255886187"><ele>180.0</ele><time>2026-05-01T09:16:29.999Z</time></trkpt><trkpt lat="44.38983858638682" lon="11.341189558044295"><ele>180.0</ele><time>2026-05-01T09:16:30.999Z</time></trkpt><trkpt lat="44.389698905014605" lon="11.341142243979053"><ele>180.0</ele><time>2026-05-01T09:16:31.999Z</time></trkpt><trkpt lat="44.389557674008884" lon="11.341095399231301"><ele>180.0</ele><time>2026-05-01T09:16:32.999Z</time></trkpt><trkpt lat="44.38941623877226" lon="11.341047515487238"><ele>181.0</ele><time>2026-05-01T09:16:33.999Z</time></trkpt><trkpt lat="44.38927805380837" lon="11.341008278406129"><ele>182.0</ele><time>2026-05-01T09:16:34.999Z</time></trkpt><trkpt lat="44.38913700412482" lon="11.340966938926083"><ele>183.0</ele><time>2026-05-01T09:16:35.999Z</time></trkpt><trkpt lat="44.38899353441148" lon="11.340935669539736"><ele>184.0</ele><time>2026-05-01T09:16:36.999Z</time></trkpt><trkpt lat="44.38884867091757" lon="11.340913257487106"><ele>184.0</ele><time>2026-05-01T09:16:37.999Z</time></trkpt><trkpt lat="44.38870084483994" lon="11.340899232332482"><ele>184.0</ele><time>2026-05-01T09:16:38.999Z</time></trkpt><trkpt lat="44.38855374159483" lon="11.340885077670968"><ele>184.0</ele><time>2026-05-01T09:16:39.999Z</time></trkpt><trkpt lat="44.388408520962805" lon="11.340870538247414"><ele>184.0</ele><time>2026-05-01T09:16:40.999Z</time></trkpt><trkpt lat="44.38826613792052" lon="11.340857148895177"><ele>184.0</ele><time>2026-05-01T09:16:41.999Z</time></trkpt><trkpt lat="44.38813361435732" lon="11.340845893858907"><ele>184.0</ele><time>2026-05-01T09:16:42.999Z</time></trkpt><trkpt lat="44.38801280812253" lon="11.340841852034814"><ele>184.0</ele><time>2026-05-01T09:16:43.999Z</time></trkpt><trkpt lat="44.38790162030769" lon="11.340843024034184"><ele>184.0</ele><time>2026-05-01T09:16:44.999Z</time></trkpt><trkpt lat="44.38780115083589" lon="11.340848269600315"><ele>184.33333333333334</ele><time>2026-05-01T09:16:45.999Z</time></trkpt><trkpt lat="44.38770936583297" lon="11.340861316275292"><ele>184.66666666666669</ele><time>2026-05-01T09:16:46.999Z</time></trkpt><trkpt lat="44.387626051477255" lon="11.340878771122819"><ele>185.0</ele><time>2026-05-01T09:16:47.999Z</time></trkpt><trkpt lat="44.387539368518595" lon="11.340901832645294"><ele>185.33333333333334</ele><time>2026-05-01T09:16:48.999Z</time></trkpt><trkpt lat="44.387452054122136" lon="11.34093080673009"><ele>185.66666666666666</ele><time>2026-05-01T09:16:49.999Z</time></trkpt><trkpt lat="44.38736099862187" lon="11.340967692363682"><ele>186.0</ele><time>2026-05-01T09:16:50.999Z</time></trkpt><trkpt lat="44.387268559639864" lon="11.341006333462673"><ele>185.20000000000002</ele><time>2026-05-01T09:16:51.999Z</time></trkpt><trkpt lat="44.387173438878406" lon="11.34104861138329"><ele>184.4</ele><time>2026-05-01T09:16:52.999Z</time></trkpt><trkpt lat="44.38707248147701" lon="11.341094680568395"><ele>183.6</ele><time>2026-05-01T09:16:53.999Z</time></trkpt><trkpt lat="44.386970968366555" lon="11.341138803178303"><ele>182.8</ele><time>2026-05-01T09:16:54.999Z</time></trkpt><trkpt lat="44.386866234464314" lon="11.341180292136585"><ele>182.0</ele><time>2026-05-01T09:16:55.999Z</time></trkpt><trkpt lat="44.386757431479595" lon="11.341223680073492"><ele>182.0</ele><time>2026-05-01T09:16:56.999Z</time></trkpt><trkpt lat="44.38664627754597" lon="11.341266881961246"><ele>182.0</ele><time>2026-05-01T09:16:57.999Z</time></trkpt><trkpt lat="44.386529061287796" lon="11.341304837665596"><ele>182.0</ele><time>2026-05-01T09:16:58.999Z</time></trkpt><trkpt lat="44.386409034322824" lon="11.341342941222168"><ele>182.0</ele><time>2026-05-01T09:16:59.999Z</time></trkpt><trkpt lat="44.386285183649306" lon="11.34137966806245"><ele>184.75</ele><time>2026-05-01T09:17:00.999Z</time></trkpt><trkpt lat="44.386161997872186" lon="11.341417636436184"><ele>187.5</ele><time>2026-05-01T09:17:01.999Z</time></trkpt><trkpt lat="44.38603115045165" lon="11.341446905186025"><ele>190.25</ele><time>2026-05-01T09:17:02.999Z</time></trkpt><trkpt lat="44.38590046577879" lon="11.34146711136504"><ele>193.0</ele><time>2026-05-01T09:17:03.999Z</time></trkpt><trkpt lat="44.385773667594705" lon="11.34147552341031"><ele>193.0</ele><time>2026-05-01T09:17:04.999Z</time></trkpt><trkpt lat="44.38564460174348" lon="11.341475872505791"><ele>193.0</ele><time>2026-05-01T09:17:05.999Z</time></trkpt><trkpt lat="44.3855200633427" lon="11.34147446139582"><ele>193.0</ele><time>2026-05-01T09:17:06.999Z</time></trkpt><trkpt lat="44.38539281040298" lon="11.341468870193665"><ele>193.0</ele><time>2026-05-01T09:17:07.999Z</time></trkpt><trkpt lat="44.385266092181936" lon="11.341459325208973"><ele>193.25</ele><time>2026-05-01T09:17:08.999Z</time></trkpt><trkpt lat="44.38513648412582" lon="11.341448489630249"><ele>193.5</ele><time>2026-05-01T09:17:09.999Z</time></trkpt><trkpt lat="44.38500968898002" lon="11.341438748436577"><ele>193.75</ele><time>2026-05-01T09:17:10.999Z</time></trkpt><trkpt lat="44.384888123501526" lon="11.34143369914763"><ele>194.0</ele><time>2026-05-01T09:17:11.999Z</time></trkpt><trkpt lat="44.3847543957" lon="11.34144093860567"><ele>192.75</ele><time>2026-05-01T09:17:12.999Z</time></trkpt><trkpt lat="44.38462615558595" lon="11.341432034989666"><ele>191.5</ele><time>2026-05-01T09:17:13.999Z</time></trkpt><trkpt lat="44.38448807725161" lon="11.341423476990979"><ele>190.25</ele><time>2026-05-01T09:17:14.999Z</time></trkpt><trkpt lat="44.384348279854514" lon="11.341420142802015"><ele>189.0</ele><time>2026-05-01T09:17:15.999Z</time></trkpt><trkpt lat="44.38421205095094" lon="11.341423688511073"><ele>189.0</ele><time>2026-05-01T09:17:16.999Z</time></trkpt><trkpt lat="44.38407516346326" lon="11.341455320261588"><ele>189.0</ele><time>2026-05-01T09:17:17.999Z</time></trkpt><trkpt lat="44.38393565532389" lon="11.341518412777226"><ele>189.0</ele><time>2026-05-01T09:17:18.999Z</time></trkpt><trkpt lat="44.38380046405955" lon="11.34160496667115"><ele>189.0</ele><time>2026-05-01T09:17:19.999Z</time></trkpt><trkpt lat="44.383671271535746" lon="11.341699619774712"><ele>186.25</ele><time>2026-05-01T09:17:20.999Z</time></trkpt><trkpt lat="44.38354241598307" lon="11.341797478038648"><ele>183.5</ele><time>2026-05-01T09:17:21.999Z</time></trkpt><trkpt lat="44.383412400237916" lon="11.34188995592392"><ele>180.75</ele><time>2026-05-01T09:17:22.999Z</time></trkpt><trkpt lat="44.38328744680517" lon="11.34197302312521"><ele>178.0</ele><time>2026-05-01T09:17:23.999Z</time></trkpt><trkpt lat="44.383156177534225" lon="11.342050972815079"><ele>178.0</ele><time>2026-05-01T09:17:24.999Z</time></trkpt><trkpt lat="44.383020075741335" lon="11.342114266475358"><ele>178.0</ele><time>2026-05-01T09:17:25.999Z</time></trkpt><trkpt lat="44.382878158426465" lon="11.342143445669716"><ele>178.0</ele><time>2026-05-01T09:17:27Z</time></trkpt><trkpt lat="44.38273521997584" lon="11.34210266460635"><ele>178.0</ele><time>2026-05-01T09:17:28Z</time></trkpt><trkpt lat="44.38260039969824" lon="11.34203730019957"><ele>177.5</ele><time>2026-05-01T09:17:29Z</time></trkpt><trkpt lat="44.382469543804966" lon="11.341954594361704"><ele>177.0</ele><time>2026-05-01T09:17:30Z</time></trkpt><trkpt lat="44.382340003276454" lon="11.341868727967286"><ele>176.5</ele><time>2026-05-01T09:17:31Z</time></trkpt><trkpt lat="44.38222168936954" lon="11.341782274776282"><ele>176.0</ele><time>2026-05-01T09:17:32Z</time></trkpt><trkpt lat="44.38211522725822" lon="11.341702913786477"><ele>176.0</ele><time>2026-05-01T09:17:33Z</time></trkpt><trkpt lat="44.382018350866566" lon="11.341623629478738"><ele>176.0</ele><time>2026-05-01T09:17:34Z</time></trkpt><trkpt lat="44.38192012963077" lon="11.341574984373109"><ele>176.0</ele><time>2026-05-01T09:17:35Z</time></trkpt><trkpt lat="44.38182170390748" lon="11.341556140980327"><ele>176.0</ele><time>2026-05-01T09:17:36Z</time></trkpt><trkpt lat="44.38172424276514" lon="11.341574578535907"><ele>176.0</ele><time>2026-05-01T09:17:37Z</time></trkpt><trkpt lat="44.381642095387576" lon="11.34162218659849"><ele>176.0</ele><time>2026-05-01T09:17:38Z</time></trkpt><trkpt lat="44.381543705050674" lon="11.341712848642445"><ele>176.0</ele><time>2026-05-01T09:17:39Z</time></trkpt><trkpt lat="44.38144065044746" lon="11.341813876453447"><ele>176.0</ele><time>2026-05-01T09:17:40Z</time></trkpt><trkpt lat="44.38133087865643" lon="11.341922115990174"><ele>176.0</ele><time>2026-05-01T09:17:41Z</time></trkpt><trkpt lat="44.38122330900265" lon="11.34202696141256"><ele>175.25</ele><time>2026-05-01T09:17:42Z</time></trkpt><trkpt lat="44.381118073636834" lon="11.34212824810083"><ele>174.5</ele><time>2026-05-01T09:17:43Z</time></trkpt><trkpt lat="44.381007753986985" lon="11.342229606300458"><ele>173.75</ele><time>2026-05-01T09:17:44Z</time></trkpt><trkpt lat="44.380893536762066" lon="11.342322868884494"><ele>173.0</ele><time>2026-05-01T09:17:45Z</time></trkpt><trkpt lat="44.38076874830535" lon="11.342398593789866"><ele>173.0</ele><time>2026-05-01T09:17:46Z</time></trkpt><trkpt lat="44.38063417286525" lon="11.342446480102028"><ele>173.0</ele><time>2026-05-01T09:17:47Z</time></trkpt><trkpt lat="44.38049415802457" lon="11.342471231796559"><ele>173.0</ele><time>2026-05-01T09:17:48Z</time></trkpt><trkpt lat="44.380351969981106" lon="11.342482227887265"><ele>173.0</ele><time>2026-05-01T09:17:49Z</time></trkpt><trkpt lat="44.3802089182122" lon="11.3424818185749"><ele>172.0</ele><time>2026-05-01T09:17:50Z</time></trkpt><trkpt lat="44.38006168296598" lon="11.342474359275974"><ele>171.0</ele><time>2026-05-01T09:17:51Z</time></trkpt><trkpt lat="44.37991576398321" lon="11.342461627406319"><ele>170.0</ele><time>2026-05-01T09:17:52Z</time></trkpt><trkpt lat="44.37977084958891" lon="11.342440042862544"><ele>169.0</ele><time>2026-05-01T09:17:53Z</time></trkpt><trkpt lat="44.37962550650442" lon="11.342414762297832"><ele>167.33333333333334</ele><time>2026-05-01T09:17:54Z</time></trkpt><trkpt lat="44.37947701479323" lon="11.342393281491384"><ele>165.66666666666666</ele><time>2026-05-01T09:17:55Z</time></trkpt><trkpt lat="44.37932329373162" lon="11.342369894044827"><ele>164.0</ele><time>2026-05-01T09:17:56Z</time></trkpt><trkpt lat="44.379169296051764" lon="11.342336421067094"><ele>164.0</ele><time>2026-05-01T09:17:57Z</time></trkpt><trkpt lat="44.37901495327343" lon="11.342291186433458"><ele>164.0</ele><time>2026-05-01T09:17:58Z</time></trkpt><trkpt lat="44.378861572670694" lon="11.342243903565958"><ele>164.0</ele><time>2026-05-01T09:17:59Z</time></trkpt><trkpt lat="44.37871077035703" lon="11.34220178154497"><ele>164.25</ele><time>2026-05-01T09:18:00Z</time></trkpt><trkpt lat="44.37857280812757" lon="11.34217035111552"><ele>164.5</ele><time>2026-05-01T09:18:01Z</time></trkpt><trkpt lat="44.37844559093647" lon="11.342145801935155"><ele>164.75</ele><time>2026-05-01T09:18:02Z</time></trkpt><trkpt lat="44.37833044883021" lon="11.34212901494237"><ele>165.0</ele><time>2026-05-01T09:18:03Z</time></trkpt><trkpt lat="44.378227626276846" lon="11.342123861482932"><ele>165.0</ele><time>2026-05-01T09:18:04Z</time></trkpt><trkpt lat="44.37813085038606" lon="11.342113653886706"><ele>165.0</ele><time>2026-05-01T09:18:05Z</time></trkpt><trkpt lat="44.37804913426312" lon="11.342091021530958"><ele>165.0</ele><time>2026-05-01T09:18:06Z</time></trkpt><trkpt lat="44.37796618875979" lon="11.34205989374719"><ele>165.0</ele><time>2026-05-01T09:18:07Z</time></trkpt><trkpt lat="44.37787684359431" lon="11.342032437876876"><ele>165.0</ele><time>2026-05-01T09:18:08Z</time></trkpt><trkpt lat="44.37778097862516" lon="11.34200375849358"><ele>166.0</ele><time>2026-05-01T09:18:09Z</time></trkpt><trkpt lat="44.37768660375119" lon="11.341959736703267"><ele>167.0</ele><time>2026-05-01T09:18:10Z</time></trkpt><trkpt lat="44.377591023405586" lon="11.341906505404458"><ele>168.0</ele><time>2026-05-01T09:18:11Z</time></trkpt><trkpt lat="44.37747730322261" lon="11.34182082568663"><ele>169.0</ele><time>2026-05-01T09:18:12Z</time></trkpt><trkpt lat="44.37735980430604" lon="11.341717215887337"><ele>169.0</ele><time>2026-05-01T09:18:13Z</time></trkpt><trkpt lat="44.37723607434775" lon="11.341604276499538"><ele>169.0</ele><time>2026-05-01T09:18:14Z</time></trkpt><trkpt lat="44.37710689439978" lon="11.341487704339162"><ele>169.0</ele><time>2026-05-01T09:18:15Z</time></trkpt><trkpt lat="44.37697747899037" lon="11.341371533359625"><ele>171.0</ele><time>2026-05-01T09:18:16Z</time></trkpt><trkpt lat="44.37685037386416" lon="11.341254236136036"><ele>173.0</ele><time>2026-05-01T09:18:17Z</time></trkpt><trkpt lat="44.37673546155921" lon="11.341128269867626"><ele>175.0</ele><time>2026-05-01T09:18:18Z</time></trkpt><trkpt lat="44.37663869549777" lon="11.340980203526918"><ele>177.0</ele><time>2026-05-01T09:18:19Z</time></trkpt><trkpt lat="44.37656854006209" lon="11.340807493993479"><ele>177.0</ele><time>2026-05-01T09:18:20Z</time></trkpt><trkpt lat="44.376514294857124" lon="11.340622952862857"><ele>177.0</ele><time>2026-05-01T09:18:21Z</time></trkpt><trkpt lat="44.37648430609632" lon="11.340442948353612"><ele>177.0</ele><time>2026-05-01T09:18:22Z</time></trkpt><trkpt lat="44.376473801553324" lon="11.340269371156333"><ele>177.0</ele><time>2026-05-01T09:18:23Z</time></trkpt><trkpt lat="44.37646483842323" lon="11.340112102846915"><ele>177.6</ele><time>2026-05-01T09:18:24Z</time></trkpt><trkpt lat="44.376436219798826" lon="11.339977844524846"><ele>178.2</ele><time>2026-05-01T09:18:25Z</time></trkpt><trkpt lat="44.37637370576143" lon="11.339875573160317"><ele>178.8</ele><time>2026-05-01T09:18:25.999Z</time></trkpt><trkpt lat="44.37627416327903" lon="11.339823118267544"><ele>179.4</ele><time>2026-05-01T09:18:26.999Z</time></trkpt><trkpt lat="44.37615496702193" lon="11.33983829928913"><ele>180.0</ele><time>2026-05-01T09:18:27.999Z</time></trkpt><trkpt lat="44.37603127841417" lon="11.339917528442433"><ele>180.0</ele><time>2026-05-01T09:18:28.999Z</time></trkpt><trkpt lat="44.37590599950606" lon="11.339978392908098"><ele>180.0</ele><time>2026-05-01T09:18:29.999Z</time></trkpt><trkpt lat="44.37578269755145" lon="11.340032374812354"><ele>180.0</ele><time>2026-05-01T09:18:30.999Z</time></trkpt><trkpt lat="44.37565678911477" lon="11.34009614389965"><ele>180.0</ele><time>2026-05-01T09:18:31.999Z</time></trkpt><trkpt lat="44.3755262169516" lon="11.340151499332142"><ele>179.75</ele><time>2026-05-01T09:18:32.999Z</time></trkpt><trkpt lat="44.37539903156865" lon="11.340206832615607"><ele>179.5</ele><time>2026-05-01T09:18:33.999Z</time></trkpt><trkpt lat="44.37526632260927" lon="11.340261961097879"><ele>179.25</ele><time>2026-05-01T09:18:34.999Z</time></trkpt><trkpt lat="44.375145974868545" lon="11.340312005726613"><ele>179.0</ele><time>2026-05-01T09:18:35.999Z</time></trkpt><trkpt lat="44.375017633560844" lon="11.340361421678763"><ele>179.0</ele><time>2026-05-01T09:18:36.999Z</time></trkpt><trkpt lat="44.37489055468656" lon="11.340407596601784"><ele>179.0</ele><time>2026-05-01T09:18:37.999Z</time></trkpt><trkpt lat="44.374767662066034" lon="11.340455272857538"><ele>179.0</ele><time>2026-05-01T09:18:38.999Z</time></trkpt><trkpt lat="44.37464607479395" lon="11.34050389180404"><ele>179.0</ele><time>2026-05-01T09:18:39.999Z</time></trkpt><trkpt lat="44.37452122855349" lon="11.340549251509456"><ele>179.5</ele><time>2026-05-01T09:18:40.999Z</time></trkpt><trkpt lat="44.374393371506194" lon="11.340589514605838"><ele>180.0</ele><time>2026-05-01T09:18:41.999Z</time></trkpt><trkpt lat="44.37426506912237" lon="11.340630764844096"><ele>180.5</ele><time>2026-05-01T09:18:42.999Z</time></trkpt><trkpt lat="44.37413707471317" lon="11.340672555639328"><ele>181.0</ele><time>2026-05-01T09:18:43.999Z</time></trkpt><trkpt lat="44.37400876442746" lon="11.340715456754182"><ele>181.0</ele><time>2026-05-01T09:18:44.999Z</time></trkpt><trkpt lat="44.37388150316535" lon="11.34076097013045"><ele>181.0</ele><time>2026-05-01T09:18:45.999Z</time></trkpt><trkpt lat="44.37376025216077" lon="11.340818595308129"><ele>181.0</ele><time>2026-05-01T09:18:46.999Z</time></trkpt><trkpt lat="44.37364259654675" lon="11.340895763884195"><ele>181.0</ele><time>2026-05-01T09:18:47.999Z</time></trkpt><trkpt lat="44.3735298021628" lon="11.340992176496238"><ele>180.0</ele><time>2026-05-01T09:18:48.999Z</time></trkpt><trkpt lat="44.37342286958096" lon="11.341101238435046"><ele>179.0</ele><time>2026-05-01T09:18:49.999Z</time></trkpt><trkpt lat="44.373318764764576" lon="11.341211980822548"><ele>178.0</ele><time>2026-05-01T09:18:50.999Z</time></trkpt><trkpt lat="44.37319828729006" lon="11.341330387050533"><ele>177.0</ele><time>2026-05-01T09:18:51.999Z</time></trkpt><trkpt lat="44.37310489779411" lon="11.341404366908654"><ele>177.0</ele><time>2026-05-01T09:18:52.999Z</time></trkpt><trkpt lat="44.37298928755384" lon="11.341445300121793"><ele>177.0</ele><time>2026-05-01T09:18:53.999Z</time></trkpt><trkpt lat="44.372892412804475" lon="11.341514559567191"><ele>177.0</ele><time>2026-05-01T09:18:54.999Z</time></trkpt><trkpt lat="44.372791167785515" lon="11.341562090643349"><ele>177.0</ele><time>2026-05-01T09:18:55.999Z</time></trkpt><trkpt lat="44.372706500082735" lon="11.341632219806634"><ele>177.0</ele><time>2026-05-01T09:18:56.999Z</time></trkpt><trkpt lat="44.37263494338605" lon="11.341712824179393"><ele>177.0</ele><time>2026-05-01T09:18:57.999Z</time></trkpt><trkpt lat="44.37256873622132" lon="11.341802488108465"><ele>177.0</ele><time>2026-05-01T09:18:58.999Z</time></trkpt><trkpt lat="44.37250950682613" lon="11.34188209749784"><ele>177.0</ele><time>2026-05-01T09:18:59.999Z</time></trkpt><trkpt lat="44.372454082884985" lon="11.341949875677189"><ele>177.0</ele><time>2026-05-01T09:19:00.999Z</time></trkpt><trkpt lat="44.37238636923761" lon="11.341990448577075"><ele>177.0</ele><time>2026-05-01T09:19:01.999Z</time></trkpt><trkpt lat="44.37231324242032" lon="11.341984943412351"><ele>177.0</ele><time>2026-05-01T09:19:02.999Z</time></trkpt><trkpt lat="44.372242041172626" lon="11.341994784764623"><ele>176.66666666666666</ele><time>2026-05-01T09:19:03.999Z</time></trkpt><trkpt lat="44.372167958452756" lon="11.341959683089842"><ele>176.33333333333334</ele><time>2026-05-01T09:19:04.999Z</time></trkpt><trkpt lat="44.37209159399339" lon="11.341907242535092"><ele>176.0</ele><time>2026-05-01T09:19:05.999Z</time></trkpt><trkpt lat="44.37201967213445" lon="11.341840734133003"><ele>175.66666666666669</ele><time>2026-05-01T09:19:06.999Z</time></trkpt><trkpt lat="44.371948876826586" lon="11.341756259176426"><ele>175.33333333333334</ele><time>2026-05-01T09:19:07.999Z</time></trkpt><trkpt lat="44.371875816232695" lon="11.341674924078557"><ele>175.0</ele><time>2026-05-01T09:19:08.999Z</time></trkpt><trkpt lat="44.37180426328836" lon="11.341604159246907"><ele>175.0</ele><time>2026-05-01T09:19:09.999Z</time></trkpt><trkpt lat="44.37173765149662" lon="11.341544589884789"><ele>175.0</ele><time>2026-05-01T09:19:10.999Z</time></trkpt><trkpt lat="44.37167989292201" lon="11.341491635198203"><ele>175.0</ele><time>2026-05-01T09:19:11.999Z</time></trkpt><trkpt lat="44.37161441402834" lon="11.341435603369016"><ele>175.0</ele><time>2026-05-01T09:19:12.999Z</time></trkpt><trkpt lat="44.371556985157454" lon="11.34135570033744"><ele>175.0</ele><time>2026-05-01T09:19:13.999Z</time></trkpt><trkpt lat="44.3714833929807" lon="11.341284355959058"><ele>175.0</ele><time>2026-05-01T09:19:14.999Z</time></trkpt><trkpt lat="44.371403614098" lon="11.341213840392523"><ele>175.0</ele><time>2026-05-01T09:19:15.999Z</time></trkpt><trkpt lat="44.37132643866988" lon="11.341131118167619"><ele>175.0</ele><time>2026-05-01T09:19:16.999Z</time></trkpt><trkpt lat="44.37124202623826" lon="11.341051075616738"><ele>175.0</ele><time>2026-05-01T09:19:17.999Z</time></trkpt><trkpt lat="44.371147480630086" lon="11.34097694232726"><ele>175.0</ele><time>2026-05-01T09:19:18.999Z</time></trkpt><trkpt lat="44.37104368812442" lon="11.340919561357168"><ele>175.0</ele><time>2026-05-01T09:19:19.999Z</time></trkpt><trkpt lat="44.37093536175693" lon="11.340857972067928"><ele>175.0</ele><time>2026-05-01T09:19:20.999Z</time></trkpt><trkpt lat="44.37082759566228" lon="11.34079805230055"><ele>175.0</ele><time>2026-05-01T09:19:21.999Z</time></trkpt><trkpt lat="44.37072298676852" lon="11.34073272456166"><ele>175.0</ele><time>2026-05-01T09:19:22.999Z</time></trkpt><trkpt lat="44.37061555324278" lon="11.34066859582941"><ele>175.0</ele><time>2026-05-01T09:19:23.999Z</time></trkpt><trkpt lat="44.37050873244519" lon="11.340599992643213"><ele>175.2</ele><time>2026-05-01T09:19:24.999Z</time></trkpt><trkpt lat="44.3704020380747" lon="11.340534880138565"><ele>175.4</ele><time>2026-05-01T09:19:25.999Z</time></trkpt><trkpt lat="44.3703012218655" lon="11.340466811187426"><ele>175.60000000000002</ele><time>2026-05-01T09:19:26.999Z</time></trkpt><trkpt lat="44.370206585939954" lon="11.340400253176862"><ele>175.8</ele><time>2026-05-01T09:19:27.999Z</time></trkpt><trkpt lat="44.370114117063316" lon="11.34032186986792"><ele>176.0</ele><time>2026-05-01T09:19:28.999Z</time></trkpt><trkpt lat="44.370032821681484" lon="11.340253714840555"><ele>176.0</ele><time>2026-05-01T09:19:29.999Z</time></trkpt><trkpt lat="44.36995228817461" lon="11.340205010464699"><ele>176.0</ele><time>2026-05-01T09:19:30.999Z</time></trkpt><trkpt lat="44.36986761282849" lon="11.340186282498449"><ele>176.0</ele><time>2026-05-01T09:19:31.999Z</time></trkpt><trkpt lat="44.36977560303346" lon="11.34022680609525"><ele>176.0</ele><time>2026-05-01T09:19:33Z</time></trkpt><trkpt lat="44.369689803028955" lon="11.340306726565881"><ele>176.0</ele><time>2026-05-01T09:19:34Z</time></trkpt><trkpt lat="44.36960777361129" lon="11.340402024179218"><ele>175.60000000000002</ele><time>2026-05-01T09:19:35Z</time></trkpt><trkpt lat="44.36953009451046" lon="11.340505497412167"><ele>175.2</ele><time>2026-05-01T09:19:36Z</time></trkpt><trkpt lat="44.3694519090646" lon="11.340597722127317"><ele>174.8</ele><time>2026-05-01T09:19:37Z</time></trkpt><trkpt lat="44.36937103649095" lon="11.340681150020558"><ele>174.39999999999998</ele><time>2026-05-01T09:19:38Z</time></trkpt><trkpt lat="44.36928896478973" lon="11.340754705116325"><ele>174.0</ele><time>2026-05-01T09:19:39Z</time></trkpt><trkpt lat="44.369207726554116" lon="11.340801000128693"><ele>175.79999999999998</ele><time>2026-05-01T09:19:40Z</time></trkpt><trkpt lat="44.36912217719663" lon="11.340805267767822"><ele>177.6</ele><time>2026-05-01T09:19:41Z</time></trkpt><trkpt lat="44.369040506579026" lon="11.340737565090498"><ele>179.4</ele><time>2026-05-01T09:19:42Z</time></trkpt><trkpt lat="44.36895769484687" lon="11.340676663165361"><ele>181.2</ele><time>2026-05-01T09:19:43Z</time></trkpt><trkpt lat="44.36887188663935" lon="11.340611228552833"><ele>183.0</ele><time>2026-05-01T09:19:44Z</time></trkpt><trkpt lat="44.36880541979098" lon="11.340512692462463"><ele>183.0</ele><time>2026-05-01T09:19:45Z</time></trkpt><trkpt lat="44.36874574852841" lon="11.340425322191631"><ele>183.0</ele><time>2026-05-01T09:19:46Z</time></trkpt><trkpt lat="44.36868675955872" lon="11.340355278829252"><ele>183.0</ele><time>2026-05-01T09:19:47Z</time></trkpt><trkpt lat="44.36862507694724" lon="11.340310580166765"><ele>183.0</ele><time>2026-05-01T09:19:48Z</time></trkpt><trkpt lat="44.36856104189634" lon="11.34031420076845"><ele>183.0</ele><time>2026-05-01T09:19:49Z</time></trkpt><trkpt lat="44.368510926167104" lon="11.340380635510474"><ele>183.0</ele><time>2026-05-01T09:19:50Z</time></trkpt><trkpt lat="44.368500778100966" lon="11.340490798489826"><ele>183.0</ele><time>2026-05-01T09:19:51Z</time></trkpt><trkpt lat="44.368515064309655" lon="11.34060792467331"><ele>184.2</ele><time>2026-05-01T09:19:52Z</time></trkpt><trkpt lat="44.368608175288585" lon="11.340697875238472"><ele>185.4</ele><time>2026-05-01T09:19:53Z</time></trkpt><trkpt lat="44.36870000417797" lon="11.34077473948207"><ele>186.6</ele><time>2026-05-01T09:19:54Z</time></trkpt><trkpt lat="44.36879454166114" lon="11.340857237492774"><ele>187.79999999999998</ele><time>2026-05-01T09:19:55Z</time></trkpt><trkpt lat="44.36889735742414" lon="11.340930023086095"><ele>189.0</ele><time>2026-05-01T09:19:56Z</time></trkpt><trkpt lat="44.36900438499918" lon="11.340986355148072"><ele>189.0</ele><time>2026-05-01T09:19:57Z</time></trkpt><trkpt lat="44.369114148097545" lon="11.341036279142418"><ele>189.0</ele><time>2026-05-01T09:19:58Z</time></trkpt><trkpt lat="44.36922234985629" lon="11.34109349172727"><ele>189.0</ele><time>2026-05-01T09:19:59Z</time></trkpt><trkpt lat="44.36932546668951" lon="11.341165681736143"><ele>189.0</ele><time>2026-05-01T09:20:00Z</time></trkpt><trkpt lat="44.369394219938115" lon="11.341293705828242"><ele>190.75</ele><time>2026-05-01T09:20:01Z</time></trkpt><trkpt lat="44.36944111463595" lon="11.341430559515013"><ele>192.5</ele><time>2026-05-01T09:20:02Z</time></trkpt><trkpt lat="44.36948356308037" lon="11.341578236505324"><ele>194.25</ele><time>2026-05-01T09:20:03Z</time></trkpt><trkpt lat="44.3694532486845" lon="11.341743189003017"><ele>196.0</ele><time>2026-05-01T09:20:04Z</time></trkpt><trkpt lat="44.36944443944711" lon="11.341912104756663"><ele>196.0</ele><time>2026-05-01T09:20:05Z</time></trkpt><trkpt lat="44.36943125722807" lon="11.342079399895933"><ele>196.0</ele><time>2026-05-01T09:20:06Z</time></trkpt><trkpt lat="44.36938256290604" lon="11.342236222078254"><ele>196.0</ele><time>2026-05-01T09:20:07Z</time></trkpt><trkpt lat="44.369309049038684" lon="11.342376338396003"><ele>196.0</ele><time>2026-05-01T09:20:08Z</time></trkpt><trkpt lat="44.36921582891012" lon="11.342484465480933"><ele>195.75</ele><time>2026-05-01T09:20:09Z</time></trkpt><trkpt lat="44.36910716226089" lon="11.342555396091788"><ele>195.5</ele><time>2026-05-01T09:20:10Z</time></trkpt><trkpt lat="44.3689915926601" lon="11.342585600152994"><ele>195.25</ele><time>2026-05-01T09:20:11Z</time></trkpt><trkpt lat="44.368869967641594" lon="11.34258623008892"><ele>195.0</ele><time>2026-05-01T09:20:12Z</time></trkpt><trkpt lat="44.36874237792249" lon="11.342575078803044"><ele>197.75</ele><time>2026-05-01T09:20:13Z</time></trkpt><trkpt lat="44.368605739179685" lon="11.342565845004488"><ele>200.5</ele><time>2026-05-01T09:20:14Z</time></trkpt><trkpt lat="44.368461788581584" lon="11.342566659736958"><ele>203.25</ele><time>2026-05-01T09:20:15Z</time></trkpt><trkpt lat="44.36831652070917" lon="11.342584385566814"><ele>206.0</ele><time>2026-05-01T09:20:16Z</time></trkpt><trkpt lat="44.368161093041536" lon="11.34260764042793"><ele>207.33333333333334</ele><time>2026-05-01T09:20:17Z</time></trkpt><trkpt lat="44.36799426353792" lon="11.342613136228689"><ele>208.66666666666669</ele><time>2026-05-01T09:20:18Z</time></trkpt><trkpt lat="44.367825921695854" lon="11.34258634845226"><ele>210.0</ele><time>2026-05-01T09:20:19Z</time></trkpt><trkpt lat="44.367664494007784" lon="11.34254056740432"><ele>210.0</ele><time>2026-05-01T09:20:20Z</time></trkpt><trkpt lat="44.36750054034636" lon="11.342496120997492"><ele>210.0</ele><time>2026-05-01T09:20:21Z</time></trkpt><trkpt lat="44.36733715589057" lon="11.342460088889391"><ele>210.0</ele><time>2026-05-01T09:20:22Z</time></trkpt><trkpt lat="44.36718105825926" lon="11.342421608866442"><ele>210.33333333333331</ele><time>2026-05-01T09:20:23Z</time></trkpt><trkpt lat="44.367035821244436" lon="11.342354306260354"><ele>210.66666666666666</ele><time>2026-05-01T09:20:24Z</time></trkpt><trkpt lat="44.36690242909643" lon="11.342252724908324"><ele>211.0</ele><time>2026-05-01T09:20:25Z</time></trkpt><trkpt lat="44.366767796757046" lon="11.342170627989889"><ele>211.0</ele><time>2026-05-01T09:20:26Z</time></trkpt><trkpt lat="44.36661601998286" lon="11.342159996294571"><ele>211.0</ele><time>2026-05-01T09:20:26.999Z</time></trkpt><trkpt lat="44.366465361930395" lon="11.34220573829607"><ele>211.0</ele><time>2026-05-01T09:20:27.999Z</time></trkpt><trkpt lat="44.3663179191691" lon="11.34227028907259"><ele>215.0</ele><time>2026-05-01T09:20:28.999Z</time></trkpt><trkpt lat="44.36617253678113" lon="11.342315277310655"><ele>219.0</ele><time>2026-05-01T09:20:29.999Z</time></trkpt><trkpt lat="44.36602223813639" lon="11.342320052288729"><ele>223.0</ele><time>2026-05-01T09:20:30.999Z</time></trkpt><trkpt lat="44.36587074514699" lon="11.342282633796145"><ele>223.0</ele><time>2026-05-01T09:20:31.999Z</time></trkpt><trkpt lat="44.36572253884546" lon="11.342220323483788"><ele>223.0</ele><time>2026-05-01T09:20:32.999Z</time></trkpt><trkpt lat="44.36557832798055" lon="11.34212664885084"><ele>223.0</ele><time>2026-05-01T09:20:33.999Z</time></trkpt><trkpt lat="44.36543114391763" lon="11.342029170893506"><ele>223.66666666666666</ele><time>2026-05-01T09:20:34.999Z</time></trkpt><trkpt lat="44.36527341844282" lon="11.341940062305845"><ele>224.33333333333331</ele><time>2026-05-01T09:20:35.999Z</time></trkpt><trkpt lat="44.36510224074897" lon="11.341850622614293"><ele>225.0</ele><time>2026-05-01T09:20:36.999Z</time></trkpt><trkpt lat="44.36491213715212" lon="11.341759940837713"><ele>225.0</ele><time>2026-05-01T09:20:37.999Z</time></trkpt><trkpt lat="44.36470314515098" lon="11.341661930082735"><ele>225.0</ele><time>2026-05-01T09:20:38.999Z</time></trkpt><trkpt lat="44.36448533280359" lon="11.341553846722835"><ele>222.5</ele><time>2026-05-01T09:20:39.999Z</time></trkpt><trkpt lat="44.364270993016866" lon="11.341431785485367"><ele>220.0</ele><time>2026-05-01T09:20:40.999Z</time></trkpt><trkpt lat="44.36406226205233" lon="11.341304953469967"><ele>230.33333333333331</ele><time>2026-05-01T09:20:41.999Z</time></trkpt><trkpt lat="44.36385960413286" lon="11.341192057452496"><ele>240.66666666666669</ele><time>2026-05-01T09:20:42.999Z</time></trkpt><trkpt lat="44.36365631151076" lon="11.341101030349506"><ele>251.0</ele><time>2026-05-01T09:20:43.999Z</time></trkpt><trkpt lat="44.36346547689021" lon="11.341002142414212"><ele>251.0</ele><time>2026-05-01T09:20:44.999Z</time></trkpt><trkpt lat="44.363299293189826" lon="11.340850457890923"><ele>251.0</ele><time>2026-05-01T09:20:45.999Z</time></trkpt><trkpt lat="44.36315735537329" lon="11.340658790600717"><ele>251.0</ele><time>2026-05-01T09:20:46.999Z</time></trkpt><trkpt lat="44.36302878402116" lon="11.340467891968617"><ele>251.33333333333334</ele><time>2026-05-01T09:20:47.999Z</time></trkpt><trkpt lat="44.362908563198054" lon="11.340302795185377"><ele>251.66666666666669</ele><time>2026-05-01T09:20:48.999Z</time></trkpt><trkpt lat="44.362794734112846" lon="11.34017367295072"><ele>252.0</ele><time>2026-05-01T09:20:49.999Z</time></trkpt><trkpt lat="44.36268012307957" lon="11.340075094452276"><ele>252.0</ele><time>2026-05-01T09:20:50.999Z</time></trkpt><trkpt lat="44.362565895762074" lon="11.340049968778386"><ele>252.0</ele><time>2026-05-01T09:20:51.999Z</time></trkpt><trkpt lat="44.36245563364222" lon="11.340098875686536"><ele>252.0</ele><time>2026-05-01T09:20:52.999Z</time></trkpt><trkpt lat="44.36233144896489" lon="11.340161902212438"><ele>252.0</ele><time>2026-05-01T09:20:53.999Z</time></trkpt><trkpt lat="44.36222296210615" lon="11.340300280889588"><ele>255.66666666666669</ele><time>2026-05-01T09:20:54.999Z</time></trkpt><trkpt lat="44.362201511427784" lon="11.34057540299954"><ele>259.33333333333337</ele><time>2026-05-01T09:20:55.999Z</time></trkpt><trkpt lat="44.36209743228714" lon="11.340711400674254"><ele>263.0</ele><time>2026-05-01T09:20:56.999Z</time></trkpt><trkpt lat="44.362001251612426" lon="11.340791592495194"><ele>261.5</ele><time>2026-05-01T09:20:57.999Z</time></trkpt><trkpt lat="44.36189191189987" lon="11.34080267333653"><ele>260.0</ele><time>2026-05-01T09:20:58.999Z</time></trkpt><trkpt lat="44.361789650058896" lon="11.340677749834263"><ele>258.5</ele><time>2026-05-01T09:20:59.999Z</time></trkpt><trkpt lat="44.36166522384065" lon="11.34056192066296"><ele>257.0</ele><time>2026-05-01T09:21:00.999Z</time></trkpt><trkpt lat="44.361525152015034" lon="11.340429137118525"><ele>257.0</ele><time>2026-05-01T09:21:01.999Z</time></trkpt><trkpt lat="44.36137871996849" lon="11.340272340369841"><ele>257.0</ele><time>2026-05-01T09:21:02.999Z</time></trkpt><trkpt lat="44.36123543195946" lon="11.340132424687095"><ele>257.0</ele><time>2026-05-01T09:21:03.999Z</time></trkpt><trkpt lat="44.361112883850076" lon="11.340033434585523"><ele>259.5</ele><time>2026-05-01T09:21:04.999Z</time></trkpt><trkpt lat="44.360994537152294" lon="11.340003510248266"><ele>262.0</ele><time>2026-05-01T09:21:05.999Z</time></trkpt><trkpt lat="44.360861528294016" lon="11.34004634438952"><ele>264.5</ele><time>2026-05-01T09:21:06.999Z</time></trkpt><trkpt lat="44.36072912958852" lon="11.340151494388229"><ele>267.0</ele><time>2026-05-01T09:21:07.999Z</time></trkpt><trkpt lat="44.360619277900966" lon="11.340327661721863"><ele>265.6666666666667</ele><time>2026-05-01T09:21:08.999Z</time></trkpt><trkpt lat="44.36051006984731" lon="11.340526501743728"><ele>264.33333333333337</ele><time>2026-05-01T09:21:09.999Z</time></trkpt><trkpt lat="44.36039023472288" lon="11.34074150090902"><ele>263.0</ele><time>2026-05-01T09:21:10.999Z</time></trkpt><trkpt lat="44.36024522772445" lon="11.340926043757184"><ele>266.33333333333337</ele><time>2026-05-01T09:21:11.999Z</time></trkpt><trkpt lat="44.360098569302906" lon="11.34110083948904"><ele>269.6666666666667</ele><time>2026-05-01T09:21:12.999Z</time></trkpt><trkpt lat="44.35993302256443" lon="11.34126357349393"><ele>273.0</ele><time>2026-05-01T09:21:13.999Z</time></trkpt><trkpt lat="44.359765744030646" lon="11.341444885756104"><ele>280.5</ele><time>2026-05-01T09:21:14.999Z</time></trkpt><trkpt lat="44.35957393191782" lon="11.341608990744671"><ele>288.0</ele><time>2026-05-01T09:21:15.999Z</time></trkpt><trkpt lat="44.35937659116271" lon="11.34178387627542"><ele>288.0</ele><time>2026-05-01T09:21:16.999Z</time></trkpt><trkpt lat="44.359172059316634" lon="11.341958639773228"><ele>288.0</ele><time>2026-05-01T09:21:17.999Z</time></trkpt><trkpt lat="44.358971761333606" lon="11.342131614717639"><ele>292.0</ele><time>2026-05-01T09:21:18.999Z</time></trkpt><trkpt lat="44.35875528080458" lon="11.342258974049301"><ele>296.0</ele><time>2026-05-01T09:21:19.999Z</time></trkpt><trkpt lat="44.35855379270275" lon="11.342391474067895"><ele>296.0</ele><time>2026-05-01T09:21:20.999Z</time></trkpt><trkpt lat="44.35836482758641" lon="11.342491841817688"><ele>296.0</ele><time>2026-05-01T09:21:21.999Z</time></trkpt><trkpt lat="44.35820945645539" lon="11.342614110661723"><ele>296.0</ele><time>2026-05-01T09:21:22.999Z</time></trkpt><trkpt lat="44.35807206314502" lon="11.342740216364966"><ele>297.75</ele><time>2026-05-01T09:21:23.999Z</time></trkpt><trkpt lat="44.357934128528754" lon="11.342805926358317"><ele>299.5</ele><time>2026-05-01T09:21:24.999Z</time></trkpt><trkpt lat="44.35778865336726" lon="11.34278452647979"><ele>301.25</ele><time>2026-05-01T09:21:25.999Z</time></trkpt><trkpt lat="44.35764477363116" lon="11.34277359032504"><ele>303.0</ele><time>2026-05-01T09:21:26.999Z</time></trkpt><trkpt lat="44.35751389642222" lon="11.34276864529936"><ele>303.0</ele><time>2026-05-01T09:21:27.999Z</time></trkpt><trkpt lat="44.3574056916484" lon="11.342711883906206"><ele>303.0</ele><time>2026-05-01T09:21:28.999Z</time></trkpt><trkpt lat="44.357333204199946" lon="11.342587497017947"><ele>303.0</ele><time>2026-05-01T09:21:29.999Z</time></trkpt><trkpt lat="44.35731208265218" lon="11.342421968516994"><ele>303.0</ele><time>2026-05-01T09:21:30.999Z</time></trkpt><trkpt lat="44.3573268550106" lon="11.342242618294518"><ele>305.3333333333333</ele><time>2026-05-01T09:21:31.999Z</time></trkpt><trkpt lat="44.3573565828881" lon="11.342052635993397"><ele>307.66666666666663</ele><time>2026-05-01T09:21:32.999Z</time></trkpt><trkpt lat="44.35739851372848" lon="11.341850181865455"><ele>310.0</ele><time>2026-05-01T09:21:33.999Z</time></trkpt><trkpt lat="44.357438553673646" lon="11.341631874444701"><ele>310.0</ele><time>2026-05-01T09:21:34.999Z</time></trkpt><trkpt lat="44.357469137641765" lon="11.34140284411912"><ele>310.0</ele><time>2026-05-01T09:21:35.999Z</time></trkpt><trkpt lat="44.35749347448223" lon="11.341177785705634"><ele>310.0</ele><time>2026-05-01T09:21:36.999Z</time></trkpt><trkpt lat="44.35750993581418" lon="11.340952406537237"><ele>313.0</ele><time>2026-05-01T09:21:38Z</time></trkpt><trkpt lat="44.35751799418042" lon="11.340725348565412"><ele>316.0</ele><time>2026-05-01T09:21:39Z</time></trkpt><trkpt lat="44.357526335864485" lon="11.340492648416035"><ele>319.0</ele><time>2026-05-01T09:21:40Z</time></trkpt><trkpt lat="44.35753830339706" lon="11.340263400633809"><ele>321.0</ele><time>2026-05-01T09:21:41Z</time></trkpt><trkpt lat="44.357548375836885" lon="11.34003865151967"><ele>323.0</ele><time>2026-05-01T09:21:42Z</time></trkpt><trkpt lat="44.35755693805716" lon="11.339817803332068"><ele>325.0</ele><time>2026-05-01T09:21:43Z</time></trkpt><trkpt lat="44.35756794318436" lon="11.339603297232507"><ele>325.25</ele><time>2026-05-01T09:21:44Z</time></trkpt><trkpt lat="44.35757593436187" lon="11.339392744976136"><ele>325.5</ele><time>2026-05-01T09:21:45Z</time></trkpt><trkpt lat="44.357566306005495" lon="11.33918623657841"><ele>325.75</ele><time>2026-05-01T09:21:46Z</time></trkpt><trkpt lat="44.357534491197114" lon="11.339004640609396"><ele>326.0</ele><time>2026-05-01T09:21:47Z</time></trkpt><trkpt lat="44.35749808805699" lon="11.338855755704934"><ele>324.83333333333337</ele><time>2026-05-01T09:21:48Z</time></trkpt><trkpt lat="44.35746225161715" lon="11.338747970278348"><ele>323.6666666666667</ele><time>2026-05-01T09:21:49Z</time></trkpt><trkpt lat="44.357436958553585" lon="11.338665741782838"><ele>322.5</ele><time>2026-05-01T09:21:50Z</time></trkpt><trkpt lat="44.35740199759873" lon="11.338569775891374"><ele>321.3333333333333</ele><time>2026-05-01T09:21:52Z</time></trkpt><trkpt lat="44.35737399915062" lon="11.338462731537556"><ele>320.16666666666663</ele><time>2026-05-01T09:23:34.999Z</time></trkpt><trkpt lat="44.35731767471624" lon="11.338310871533164"><ele>319.0</ele><time>2026-05-01T09:23:36.999Z</time></trkpt><trkpt lat="44.357287545711" lon="11.338225200754456"><ele>319.0</ele><time>2026-05-01T09:23:37.999Z</time></trkpt><trkpt lat="44.35725655625724" lon="11.33813347557537"><ele>319.0</ele><time>2026-05-01T09:23:38.999Z</time></trkpt><trkpt lat="44.35722431666376" lon="11.338036433377773"><ele>319.0</ele><time>2026-05-01T09:23:39.999Z</time></trkpt><trkpt lat="44.3571917882138" lon="11.337938414943924"><ele>319.0</ele><time>2026-05-01T09:23:40.999Z</time></trkpt><trkpt lat="44.35715623056277" lon="11.337839041422818"><ele>319.0</ele><time>2026-05-01T09:23:41.999Z</time></trkpt><trkpt lat="44.35711337783701" lon="11.33773342730656"><ele>319.0</ele><time>2026-05-01T09:23:42.999Z</time></trkpt><trkpt lat="44.35707114662985" lon="11.3376364270714"><ele>319.5</ele><time>2026-05-01T09:23:44Z</time></trkpt><trkpt lat="44.35702160230214" lon="11.337543822973922"><ele>320.0</ele><time>2026-05-01T09:23:45Z</time></trkpt><trkpt lat="44.35695865542706" lon="11.337474461640753"><ele>320.5</ele><time>2026-05-01T09:23:46Z</time></trkpt><trkpt lat="44.3568877749742" lon="11.337441157722942"><ele>321.0</ele><time>2026-05-01T09:23:47Z</time></trkpt><trkpt lat="44.356816298781816" lon="11.337468036177558"><ele>321.5</ele><time>2026-05-01T09:23:48Z</time></trkpt><trkpt lat="44.35676106333055" lon="11.337548372644658"><ele>322.0</ele><time>2026-05-01T09:23:49Z</time></trkpt><trkpt lat="44.35672495026153" lon="11.337671164376406"><ele>322.0</ele><time>2026-05-01T09:23:50Z</time></trkpt><trkpt lat="44.356665694908656" lon="11.337811696939047"><ele>322.0</ele><time>2026-05-01T09:23:51Z</time></trkpt><trkpt lat="44.35663877404408" lon="11.33797764430421"><ele>322.0</ele><time>2026-05-01T09:23:52Z</time></trkpt><trkpt lat="44.35661451058924" lon="11.338135651987782"><ele>322.0</ele><time>2026-05-01T09:23:53Z</time></trkpt><trkpt lat="44.35658839047763" lon="11.338302572338808"><ele>325.0</ele><time>2026-05-01T09:23:54Z</time></trkpt><trkpt lat="44.35655791610706" lon="11.338463971198342"><ele>328.0</ele><time>2026-05-01T09:23:55Z</time></trkpt><trkpt lat="44.35651855977036" lon="11.338615864544744"><ele>331.0</ele><time>2026-05-01T09:23:56Z</time></trkpt><trkpt lat="44.35646011593744" lon="11.338750852000128"><ele>334.0</ele><time>2026-05-01T09:23:57Z</time></trkpt><trkpt lat="44.356379480992985" lon="11.338868487232293"><ele>333.25</ele><time>2026-05-01T09:23:58Z</time></trkpt><trkpt lat="44.35628674940937" lon="11.338985487111886"><ele>332.5</ele><time>2026-05-01T09:23:59Z</time></trkpt><trkpt lat="44.35619520179158" lon="11.339103001703029"><ele>331.75</ele><time>2026-05-01T09:24:00Z</time></trkpt><trkpt lat="44.35611549552026" lon="11.339225969358706"><ele>331.0</ele><time>2026-05-01T09:24:01Z</time></trkpt><trkpt lat="44.3560752917661" lon="11.339394953462422"><ele>331.0</ele><time>2026-05-01T09:24:02Z</time></trkpt><trkpt lat="44.35604565230337" lon="11.339565495925276"><ele>331.0</ele><time>2026-05-01T09:24:03Z</time></trkpt><trkpt lat="44.356013901692705" lon="11.339729778842477"><ele>331.0</ele><time>2026-05-01T09:24:04Z</time></trkpt><trkpt lat="44.35596833412897" lon="11.33987326016572"><ele>331.0</ele><time>2026-05-01T09:24:05Z</time></trkpt><trkpt lat="44.35590324139681" lon="11.340000476698874"><ele>334.5</ele><time>2026-05-01T09:24:06Z</time></trkpt><trkpt lat="44.35581265823855" lon="11.340092873958026"><ele>338.0</ele><time>2026-05-01T09:24:07Z</time></trkpt><trkpt lat="44.355703045825294" lon="11.340149394468746"><ele>341.5</ele><time>2026-05-01T09:24:08Z</time></trkpt><trkpt lat="44.35558082816853" lon="11.340175799969154"><ele>345.0</ele><time>2026-05-01T09:24:09Z</time></trkpt><trkpt lat="44.35544847082982" lon="11.340169857437761"><ele>346.25</ele><time>2026-05-01T09:24:10Z</time></trkpt><trkpt lat="44.35531507020762" lon="11.340139719147512"><ele>347.5</ele><time>2026-05-01T09:24:11Z</time></trkpt><trkpt lat="44.35517910075007" lon="11.34007795987142"><ele>348.75</ele><time>2026-05-01T09:24:12Z</time></trkpt><trkpt lat="44.35503756839488" lon="11.33999817338717"><ele>350.0</ele><time>2026-05-01T09:24:13Z</time></trkpt><trkpt lat="44.3548876742456" lon="11.339923123399283"><ele>350.0</ele><time>2026-05-01T09:24:14Z</time></trkpt><trkpt lat="44.3547373769554" lon="11.339855340273761"><ele>350.0</ele><time>2026-05-01T09:24:15Z</time></trkpt><trkpt lat="44.35459042996337" lon="11.339772776854867"><ele>350.0</ele><time>2026-05-01T09:24:16Z</time></trkpt><trkpt lat="44.354452653682635" lon="11.339649000983334"><ele>351.33333333333337</ele><time>2026-05-01T09:24:17Z</time></trkpt><trkpt lat="44.35432562753634" lon="11.339488030726024"><ele>352.6666666666667</ele><time>2026-05-01T09:24:18Z</time></trkpt><trkpt lat="44.354190453452276" lon="11.339322410220312"><ele>354.0</ele><time>2026-05-01T09:24:19Z</time></trkpt><trkpt lat="44.35403656018814" lon="11.339188385804489"><ele>354.0</ele><time>2026-05-01T09:24:20Z</time></trkpt><trkpt lat="44.35388629375661" lon="11.339051118055279"><ele>354.0</ele><time>2026-05-01T09:24:21Z</time></trkpt><trkpt lat="44.3537569481438" lon="11.338888591204078"><ele>354.0</ele><time>2026-05-01T09:24:22Z</time></trkpt><trkpt lat="44.353631921847025" lon="11.338742541071165"><ele>352.0</ele><time>2026-05-01T09:24:23Z</time></trkpt><trkpt lat="44.35348216363045" lon="11.338625263698923"><ele>350.0</ele><time>2026-05-01T09:24:24Z</time></trkpt><trkpt lat="44.35330559754466" lon="11.338550823189625"><ele>348.0</ele><time>2026-05-01T09:24:25Z</time></trkpt><trkpt lat="44.35312351893606" lon="11.338475273373765"><ele>348.3333333333333</ele><time>2026-05-01T09:24:26Z</time></trkpt><trkpt lat="44.35294318801827" lon="11.338382775659404"><ele>348.66666666666663</ele><time>2026-05-01T09:24:26.999Z</time></trkpt><trkpt lat="44.35276032314118" lon="11.338299683702774"><ele>349.0</ele><time>2026-05-01T09:24:27.999Z</time></trkpt><trkpt lat="44.3525739301634" lon="11.338239795173754"><ele>349.0</ele><time>2026-05-01T09:24:28.999Z</time></trkpt><trkpt lat="44.352381322857596" lon="11.338196000072122"><ele>349.0</ele><time>2026-05-01T09:24:29.999Z</time></trkpt><trkpt lat="44.352190962229336" lon="11.338157733852585"><ele>349.0</ele><time>2026-05-01T09:24:30.999Z</time></trkpt><trkpt lat="44.35200985176714" lon="11.338123117978482"><ele>349.0</ele><time>2026-05-01T09:24:31.999Z</time></trkpt><trkpt lat="44.35184163622117" lon="11.338067287030723"><ele>349.0</ele><time>2026-05-01T09:24:32.999Z</time></trkpt><trkpt lat="44.35169698094886" lon="11.337959920958237"><ele>349.0</ele><time>2026-05-01T09:24:33.999Z</time></trkpt><trkpt lat="44.351584016912234" lon="11.337791502902505"><ele>349.66666666666663</ele><time>2026-05-01T09:24:34.999Z</time></trkpt><trkpt lat="44.351510392621684" lon="11.337585187512266"><ele>350.3333333333333</ele><time>2026-05-01T09:24:35.999Z</time></trkpt><trkpt lat="44.351472852231986" lon="11.33735397958266"><ele>351.0</ele><time>2026-05-01T09:24:36.999Z</time></trkpt><trkpt lat="44.351453126107806" lon="11.337154334398589"><ele>350.0</ele><time>2026-05-01T09:24:37.999Z</time></trkpt><trkpt lat="44.35142097587835" lon="11.336922350512962"><ele>349.0</ele><time>2026-05-01T09:24:38.999Z</time></trkpt><trkpt lat="44.351408433078085" lon="11.336721307607803"><ele>348.0</ele><time>2026-05-01T09:24:39.999Z</time></trkpt><trkpt lat="44.351353987300826" lon="11.336586208278012"><ele>347.0</ele><time>2026-05-01T09:24:40.999Z</time></trkpt><trkpt lat="44.351253481982816" lon="11.33651824989989"><ele>347.0</ele><time>2026-05-01T09:24:41.999Z</time></trkpt><trkpt lat="44.3511165169336" lon="11.336506016606256"><ele>347.0</ele><time>2026-05-01T09:24:42.999Z</time></trkpt><trkpt lat="44.35095748993048" lon="11.336562814821995"><ele>347.0</ele><time>2026-05-01T09:24:43.999Z</time></trkpt><trkpt lat="44.3507926471841" lon="11.336634487953415"><ele>347.0</ele><time>2026-05-01T09:24:44.999Z</time></trkpt><trkpt lat="44.350625332123336" lon="11.336690750396134"><ele>347.0</ele><time>2026-05-01T09:24:45.999Z</time></trkpt><trkpt lat="44.350450823133166" lon="11.336677196925486"><ele>347.0</ele><time>2026-05-01T09:24:46.999Z</time></trkpt><trkpt lat="44.35027816914102" lon="11.3366406202026"><ele>343.0</ele><time>2026-05-01T09:24:47.999Z</time></trkpt><trkpt lat="44.350099535524315" lon="11.336606039844513"><ele>339.0</ele><time>2026-05-01T09:24:48.999Z</time></trkpt><trkpt lat="44.349927854811384" lon="11.336566155724546"><ele>335.0</ele><time>2026-05-01T09:24:49.999Z</time></trkpt><trkpt lat="44.34975849603477" lon="11.336542346271791"><ele>336.0</ele><time>2026-05-01T09:24:50.999Z</time></trkpt><trkpt lat="44.349583998231346" lon="11.33650150738775"><ele>337.0</ele><time>2026-05-01T09:24:51.999Z</time></trkpt><trkpt lat="44.34940204231828" lon="11.336432417376958"><ele>338.0</ele><time>2026-05-01T09:24:52.999Z</time></trkpt><trkpt lat="44.34923042423178" lon="11.336312535843284"><ele>339.33333333333337</ele><time>2026-05-01T09:24:53.999Z</time></trkpt><trkpt lat="44.349058773848014" lon="11.336192459994225"><ele>340.6666666666667</ele><time>2026-05-01T09:24:54.999Z</time></trkpt><trkpt lat="44.34888475545094" lon="11.336064662847416"><ele>342.0</ele><time>2026-05-01T09:24:55.999Z</time></trkpt><trkpt lat="44.34872318995015" lon="11.335909645452235"><ele>342.0</ele><time>2026-05-01T09:24:56.999Z</time></trkpt><trkpt lat="44.34858644331014" lon="11.335718539026999"><ele>342.0</ele><time>2026-05-01T09:24:57.999Z</time></trkpt><trkpt lat="44.348445098069746" lon="11.335544186568313"><ele>342.0</ele><time>2026-05-01T09:24:58.999Z</time></trkpt><trkpt lat="44.34832882454877" lon="11.335372304527843"><ele>341.25</ele><time>2026-05-01T09:24:59.999Z</time></trkpt><trkpt lat="44.34822086011733" lon="11.335222290829218"><ele>340.5</ele><time>2026-05-01T09:25:00.999Z</time></trkpt><trkpt lat="44.348122492246546" lon="11.335092702944142"><ele>339.75</ele><time>2026-05-01T09:25:01.999Z</time></trkpt><trkpt lat="44.34804370132807" lon="11.334984326835551"><ele>339.0</ele><time>2026-05-01T09:25:02.999Z</time></trkpt><trkpt lat="44.34798125813557" lon="11.334889890328363"><ele>339.0</ele><time>2026-05-01T09:25:03.999Z</time></trkpt><trkpt lat="44.34792818690911" lon="11.334804559424011"><ele>339.0</ele><time>2026-05-01T09:25:04.999Z</time></trkpt><trkpt lat="44.34787386266724" lon="11.334726177769548"><ele>339.0</ele><time>2026-05-01T09:25:05.999Z</time></trkpt><trkpt lat="44.34782386084655" lon="11.334668731331348"><ele>339.0</ele><time>2026-05-01T09:25:06.999Z</time></trkpt><trkpt lat="44.34773533043008" lon="11.33458479404089"><ele>339.0</ele><time>2026-05-01T09:25:08.999Z</time></trkpt><trkpt lat="44.34766755210118" lon="11.334519810809562"><ele>339.0</ele><time>2026-05-01T09:25:10.999Z</time></trkpt><trkpt lat="44.34761317349266" lon="11.334462946838045"><ele>339.79999999999995</ele><time>2026-05-01T09:25:11.999Z</time></trkpt><trkpt lat="44.347539746515885" lon="11.334410591114262"><ele>340.59999999999997</ele><time>2026-05-01T09:25:12.999Z</time></trkpt><trkpt lat="44.34746107245695" lon="11.334350368037013"><ele>341.4</ele><time>2026-05-01T09:25:13.999Z</time></trkpt><trkpt lat="44.34738087870178" lon="11.334283413278303"><ele>342.2</ele><time>2026-05-01T09:25:14.999Z</time></trkpt><trkpt lat="44.34729844914442" lon="11.33421159863469"><ele>343.0</ele><time>2026-05-01T09:25:15.999Z</time></trkpt><trkpt lat="44.3472361511004" lon="11.334121607381384"><ele>342.3333333333333</ele><time>2026-05-01T09:25:16.999Z</time></trkpt><trkpt lat="44.34718021423267" lon="11.33403888886086"><ele>341.66666666666663</ele><time>2026-05-01T09:25:17.999Z</time></trkpt><trkpt lat="44.34712706256969" lon="11.333949081870044"><ele>341.0</ele><time>2026-05-01T09:25:18.999Z</time></trkpt><trkpt lat="44.347073665189654" lon="11.333863113687169"><ele>340.3333333333333</ele><time>2026-05-01T09:25:19.999Z</time></trkpt><trkpt lat="44.347021886514014" lon="11.333783600706855"><ele>339.6666666666667</ele><time>2026-05-01T09:25:20.999Z</time></trkpt><trkpt lat="44.34696299534095" lon="11.333712227428185"><ele>339.0</ele><time>2026-05-01T09:25:21.999Z</time></trkpt><trkpt lat="44.34689954359961" lon="11.333650645148726"><ele>339.0</ele><time>2026-05-01T09:25:22.999Z</time></trkpt><trkpt lat="44.34682999297063" lon="11.333591116784266"><ele>339.0</ele><time>2026-05-01T09:25:23.999Z</time></trkpt><trkpt lat="44.346754299859015" lon="11.333533833673325"><ele>339.0</ele><time>2026-05-01T09:25:24.999Z</time></trkpt><trkpt lat="44.34666212765068" lon="11.333479719212185"><ele>339.0</ele><time>2026-05-01T09:25:25.999Z</time></trkpt><trkpt lat="44.34655501617498" lon="11.33344282732712"><ele>339.0</ele><time>2026-05-01T09:25:26.999Z</time></trkpt><trkpt lat="44.34644079924378" lon="11.333373681704996"><ele>337.0</ele><time>2026-05-01T09:25:27.999Z</time></trkpt><trkpt lat="44.346312790267554" lon="11.333307396525983"><ele>335.0</ele><time>2026-05-01T09:25:28.999Z</time></trkpt><trkpt lat="44.34618287033788" lon="11.333243932366045"><ele>333.0</ele><time>2026-05-01T09:25:29.999Z</time></trkpt><trkpt lat="44.34604211937958" lon="11.333188611362267"><ele>331.0</ele><time>2026-05-01T09:25:30.999Z</time></trkpt><trkpt lat="44.34589982847496" lon="11.333156316185526"><ele>331.0</ele><time>2026-05-01T09:25:31.999Z</time></trkpt><trkpt lat="44.345759015323644" lon="11.333156979785228"><ele>331.0</ele><time>2026-05-01T09:25:32.999Z</time></trkpt><trkpt lat="44.345622994656395" lon="11.333184569678082"><ele>331.0</ele><time>2026-05-01T09:25:33.999Z</time></trkpt><trkpt lat="44.345490434012575" lon="11.333217827022969"><ele>331.0</ele><time>2026-05-01T09:25:34.999Z</time></trkpt><trkpt lat="44.34538006499562" lon="11.333255368296893"><ele>331.75</ele><time>2026-05-01T09:25:35.999Z</time></trkpt><trkpt lat="44.34526459860167" lon="11.333283484881886"><ele>332.5</ele><time>2026-05-01T09:25:36.999Z</time></trkpt><trkpt lat="44.3451505746343" lon="11.33329877974964"><ele>333.25</ele><time>2026-05-01T09:25:37.999Z</time></trkpt><trkpt lat="44.34503602312478" lon="11.333305940605195"><ele>334.0</ele><time>2026-05-01T09:25:38.999Z</time></trkpt><trkpt lat="44.34491939697489" lon="11.333304867077773"><ele>334.0</ele><time>2026-05-01T09:25:39.999Z</time></trkpt><trkpt lat="44.34480625624737" lon="11.333302960159545"><ele>334.0</ele><time>2026-05-01T09:25:40.999Z</time></trkpt><trkpt lat="44.34469254540889" lon="11.333309241067202"><ele>334.0</ele><time>2026-05-01T09:25:41.999Z</time></trkpt><trkpt lat="44.34458476211395" lon="11.333329250254573"><ele>334.0</ele><time>2026-05-01T09:25:42.999Z</time></trkpt><trkpt lat="44.344483668650255" lon="11.333360265184428"><ele>334.0</ele><time>2026-05-01T09:25:43.999Z</time></trkpt><trkpt lat="44.34438786995436" lon="11.333386520035466"><ele>335.0</ele><time>2026-05-01T09:25:44.999Z</time></trkpt><trkpt lat="44.3442926476345" lon="11.333398368830132"><ele>336.0</ele><time>2026-05-01T09:25:45.999Z</time></trkpt><trkpt lat="44.344196932419585" lon="11.333380494794167"><ele>337.0</ele><time>2026-05-01T09:25:46.999Z</time></trkpt><trkpt lat="44.34409855842205" lon="11.333327867203712"><ele>338.0</ele><time>2026-05-01T09:25:47.999Z</time></trkpt><trkpt lat="44.34400321425932" lon="11.333245723138859"><ele>339.0</ele><time>2026-05-01T09:25:48.999Z</time></trkpt><trkpt lat="44.34390581789251" lon="11.333150205505635"><ele>341.25</ele><time>2026-05-01T09:25:50Z</time></trkpt><trkpt lat="44.343798818171756" lon="11.333063966914855"><ele>343.5</ele><time>2026-05-01T09:25:51Z</time></trkpt><trkpt lat="44.34368319166297" lon="11.33300645845931"><ele>345.75</ele><time>2026-05-01T09:25:52Z</time></trkpt><trkpt lat="44.34355990966783" lon="11.332982277414487"><ele>348.0</ele><time>2026-05-01T09:25:53Z</time></trkpt><trkpt lat="44.34343309187106" lon="11.33299262711872"><ele>348.0</ele><time>2026-05-01T09:25:54Z</time></trkpt><trkpt lat="44.34330676290792" lon="11.333022012252838"><ele>348.0</ele><time>2026-05-01T09:25:55Z</time></trkpt><trkpt lat="44.343184080244896" lon="11.333079595223088"><ele>348.0</ele><time>2026-05-01T09:25:56Z</time></trkpt><trkpt lat="44.34306968338267" lon="11.333171709261405"><ele>348.0</ele><time>2026-05-01T09:25:57Z</time></trkpt><trkpt lat="44.34296735049842" lon="11.33329221452549"><ele>353.75</ele><time>2026-05-01T09:25:58Z</time></trkpt><trkpt lat="44.34286907179698" lon="11.33342592492305"><ele>359.5</ele><time>2026-05-01T09:25:59Z</time></trkpt><trkpt lat="44.34278744930909" lon="11.333579938766135"><ele>365.25</ele><time>2026-05-01T09:26:00Z</time></trkpt><trkpt lat="44.34272935459457" lon="11.333736661916967"><ele>371.0</ele><time>2026-05-01T09:26:01Z</time></trkpt><trkpt lat="44.34269179812008" lon="11.333898921619355"><ele>371.0</ele><time>2026-05-01T09:26:02Z</time></trkpt><trkpt lat="44.34267015574217" lon="11.33405258079128"><ele>371.0</ele><time>2026-05-01T09:26:03Z</time></trkpt><trkpt lat="44.3426505217162" lon="11.334189021648791"><ele>371.0</ele><time>2026-05-01T09:26:04Z</time></trkpt><trkpt lat="44.34261677459264" lon="11.334308924487424"><ele>371.0</ele><time>2026-05-01T09:26:05Z</time></trkpt><trkpt lat="44.34255057727394" lon="11.334403139908035"><ele>371.0</ele><time>2026-05-01T09:26:06Z</time></trkpt><trkpt lat="44.342456069156384" lon="11.334453675260983"><ele>371.0</ele><time>2026-05-01T09:26:07Z</time></trkpt><trkpt lat="44.34234830120666" lon="11.33446305463681"><ele>371.0</ele><time>2026-05-01T09:26:08Z</time></trkpt><trkpt lat="44.342228253379155" lon="11.334468962905229"><ele>371.0</ele><time>2026-05-01T09:26:09Z</time></trkpt><trkpt lat="44.342093777772746" lon="11.334479770484643"><ele>371.0</ele><time>2026-05-01T09:26:10Z</time></trkpt><trkpt lat="44.34194853388853" lon="11.334485399057547"><ele>377.33333333333337</ele><time>2026-05-01T09:26:11Z</time></trkpt><trkpt lat="44.341796692325296" lon="11.334487847639645"><ele>383.6666666666667</ele><time>2026-05-01T09:26:12Z</time></trkpt><trkpt lat="44.341639548014854" lon="11.334488523030146"><ele>390.0</ele><time>2026-05-01T09:26:13Z</time></trkpt><trkpt lat="44.34146782532209" lon="11.334497156974079"><ele>394.33333333333337</ele><time>2026-05-01T09:26:14Z</time></trkpt><trkpt lat="44.34129432136814" lon="11.334524568121171"><ele>398.6666666666667</ele><time>2026-05-01T09:26:15Z</time></trkpt><trkpt lat="44.3411269112335" lon="11.334575573252247"><ele>403.0</ele><time>2026-05-01T09:26:16Z</time></trkpt><trkpt lat="44.34096584695452" lon="11.334645441695852"><ele>407.33333333333337</ele><time>2026-05-01T09:26:17Z</time></trkpt><trkpt lat="44.34081080005299" lon="11.334722605195285"><ele>411.66666666666663</ele><time>2026-05-01T09:26:18Z</time></trkpt><trkpt lat="44.34066577519698" lon="11.334801932419953"><ele>416.0</ele><time>2026-05-01T09:26:19Z</time></trkpt><trkpt lat="44.340532791824025" lon="11.334878524677588"><ele>416.0</ele><time>2026-05-01T09:26:20Z</time></trkpt><trkpt lat="44.34041506135073" lon="11.33494686026899"><ele>416.0</ele><time>2026-05-01T09:26:21Z</time></trkpt><trkpt lat="44.34031202134663" lon="11.335016944725423"><ele>416.0</ele><time>2026-05-01T09:26:22Z</time></trkpt><trkpt lat="44.340219489036855" lon="11.335102907756864"><ele>416.0</ele><time>2026-05-01T09:26:23Z</time></trkpt><trkpt lat="44.34013520184859" lon="11.335206485612694"><ele>416.0</ele><time>2026-05-01T09:26:24Z</time></trkpt><trkpt lat="44.34006691970479" lon="11.335325319706326"><ele>416.0</ele><time>2026-05-01T09:26:25Z</time></trkpt><trkpt lat="44.340018488979005" lon="11.335446422664923"><ele>416.0</ele><time>2026-05-01T09:26:26Z</time></trkpt><trkpt lat="44.339987199427306" lon="11.335567308619105"><ele>416.0</ele><time>2026-05-01T09:26:27Z</time></trkpt><trkpt lat="44.33996705822104" lon="11.33568435137244"><ele>416.0</ele><time>2026-05-01T09:26:28Z</time></trkpt><trkpt lat="44.339950045406766" lon="11.335792339593684"><ele>416.6</ele><time>2026-05-01T09:26:28.999Z</time></trkpt><trkpt lat="44.33992655974638" lon="11.335885502129294"><ele>417.20000000000005</ele><time>2026-05-01T09:26:29.999Z</time></trkpt><trkpt lat="44.339839748820786" lon="11.336006290236458"><ele>417.79999999999995</ele><time>2026-05-01T09:26:31.999Z</time></trkpt><trkpt lat="44.33973114408983" lon="11.336039004039229"><ele>418.4</ele><time>2026-05-01T09:26:33.999Z</time></trkpt><trkpt lat="44.33965068089406" lon="11.33605089655831"><ele>419.0</ele><time>2026-05-01T09:26:36.999Z</time></trkpt><trkpt lat="44.33957532148868" lon="11.336075367425847"><ele>418.99999999999994</ele><time>2026-05-01T09:26:44.999Z</time></trkpt><trkpt lat="44.339502491385474" lon="11.336049969990752"><ele>419.0</ele><time>2026-05-01T09:26:45.999Z</time></trkpt><trkpt lat="44.33943853022074" lon="11.336064802677914"><ele>419.0</ele><time>2026-05-01T09:26:46.999Z</time></trkpt><trkpt lat="44.339366935686336" lon="11.336025632659013"><ele>419.0</ele><time>2026-05-01T09:26:48.999Z</time></trkpt><trkpt lat="44.33930940312145" lon="11.335983146575062"><ele>418.99999999999994</ele><time>2026-05-01T09:26:52.999Z</time></trkpt><trkpt lat="44.339210540505164" lon="11.335925742084958"><ele>419.0</ele><time>2026-05-01T09:27:39.999Z</time></trkpt><trkpt lat="44.33911518109667" lon="11.335839088858812"><ele>418.99999999999994</ele><time>2026-05-01T09:27:41.999Z</time></trkpt><trkpt lat="44.339019784528176" lon="11.335745939347628"><ele>419.0</ele><time>2026-05-01T09:27:43.999Z</time></trkpt><trkpt lat="44.33896396723109" lon="11.335691449474512"><ele>419.0</ele><time>2026-05-01T09:27:44.999Z</time></trkpt><trkpt lat="44.33890561973072" lon="11.335634495248925"><ele>419.0</ele><time>2026-05-01T09:27:45.999Z</time></trkpt><trkpt lat="44.33884030338026" lon="11.335570738565007"><ele>418.99999999999994</ele><time>2026-05-01T09:27:46.999Z</time></trkpt><trkpt lat="44.338768092177446" lon="11.33550349711979"><ele>419.0</ele><time>2026-05-01T09:27:47.999Z</time></trkpt><trkpt lat="44.338693730971904" lon="11.33544043209526"><ele>419.8333333333333</ele><time>2026-05-01T09:27:48.999Z</time></trkpt><trkpt lat="44.33861216383208" lon="11.335390513432095"><ele>420.66666666666663</ele><time>2026-05-01T09:27:49.999Z</time></trkpt><trkpt lat="44.33853552461227" lon="11.335320815415185"><ele>421.5</ele><time>2026-05-01T09:27:50.999Z</time></trkpt><trkpt lat="44.338458411885284" lon="11.33525007027975"><ele>422.33333333333337</ele><time>2026-05-01T09:27:51.999Z</time></trkpt><trkpt lat="44.338385700633545" lon="11.33517905160497"><ele>423.1666666666667</ele><time>2026-05-01T09:27:52.999Z</time></trkpt><trkpt lat="44.338315311188616" lon="11.335105362585852"><ele>424.0</ele><time>2026-05-01T09:27:53.999Z</time></trkpt><trkpt lat="44.33825047728902" lon="11.335015217423742"><ele>424.0</ele><time>2026-05-01T09:27:55Z</time></trkpt><trkpt lat="44.33818835167088" lon="11.33491675378044"><ele>424.0</ele><time>2026-05-01T09:27:56Z</time></trkpt><trkpt lat="44.338124743780845" lon="11.334818290565394"><ele>424.0</ele><time>2026-05-01T09:27:57Z</time></trkpt><trkpt lat="44.338048562607355" lon="11.334723873191619"><ele>424.0</ele><time>2026-05-01T09:27:58Z</time></trkpt><trkpt lat="44.33795966119725" lon="11.334636620607405"><ele>424.0</ele><time>2026-05-01T09:27:59Z</time></trkpt><trkpt lat="44.337860717568155" lon="11.334562538822436"><ele>423.0</ele><time>2026-05-01T09:28:00Z</time></trkpt><trkpt lat="44.33775635958222" lon="11.334501460476663"><ele>422.0</ele><time>2026-05-01T09:28:01Z</time></trkpt><trkpt lat="44.33764430879536" lon="11.334456314054794"><ele>421.0</ele><time>2026-05-01T09:28:02Z</time></trkpt><trkpt lat="44.33752562944995" lon="11.334420229450139"><ele>420.0</ele><time>2026-05-01T09:28:03Z</time></trkpt><trkpt lat="44.33739907360911" lon="11.334408072939949"><ele>420.0</ele><time>2026-05-01T09:28:04Z</time></trkpt><trkpt lat="44.337267902040104" lon="11.334417698159026"><ele>420.0</ele><time>2026-05-01T09:28:05Z</time></trkpt><trkpt lat="44.337132422980304" lon="11.334432837941263"><ele>420.0</ele><time>2026-05-01T09:28:06Z</time></trkpt><trkpt lat="44.33699379355095" lon="11.334447092888837"><ele>420.0</ele><time>2026-05-01T09:28:07Z</time></trkpt><trkpt lat="44.33684602952038" lon="11.334450583838898"><ele>423.75</ele><time>2026-05-01T09:28:08Z</time></trkpt><trkpt lat="44.336721898022944" lon="11.334444369157465"><ele>427.5</ele><time>2026-05-01T09:28:09Z</time></trkpt><trkpt lat="44.33659355771435" lon="11.334421300968499"><ele>431.25</ele><time>2026-05-01T09:28:10Z</time></trkpt><trkpt lat="44.33647420957075" lon="11.334365251705208"><ele>435.0</ele><time>2026-05-01T09:28:11Z</time></trkpt><trkpt lat="44.33637739351658" lon="11.334259713892203"><ele>437.0</ele><time>2026-05-01T09:28:12Z</time></trkpt><trkpt lat="44.33630471382754" lon="11.334135074176066"><ele>439.0</ele><time>2026-05-01T09:28:13Z</time></trkpt><trkpt lat="44.33622225148801" lon="11.334027804239199"><ele>441.0</ele><time>2026-05-01T09:28:14Z</time></trkpt><trkpt lat="44.336113526355966" lon="11.333977475114143"><ele>443.0</ele><time>2026-05-01T09:28:15Z</time></trkpt><trkpt lat="44.33599731572132" lon="11.334005825729655"><ele>443.0</ele><time>2026-05-01T09:28:16Z</time></trkpt><trkpt lat="44.33588424537635" lon="11.33408079266028"><ele>443.0</ele><time>2026-05-01T09:28:17Z</time></trkpt><trkpt lat="44.33576966692676" lon="11.334155519676505"><ele>443.0</ele><time>2026-05-01T09:28:18Z</time></trkpt><trkpt lat="44.335640333691146" lon="11.334199470705707"><ele>443.0</ele><time>2026-05-01T09:28:19Z</time></trkpt><trkpt lat="44.33551499782765" lon="11.334216442981486"><ele>441.75</ele><time>2026-05-01T09:28:20Z</time></trkpt><trkpt lat="44.33538669941793" lon="11.334227677133383"><ele>440.5</ele><time>2026-05-01T09:28:21Z</time></trkpt><trkpt lat="44.335278459724314" lon="11.334237595000621"><ele>439.25</ele><time>2026-05-01T09:28:22Z</time></trkpt><trkpt lat="44.335182448377495" lon="11.334272446307411"><ele>438.0</ele><time>2026-05-01T09:28:23Z</time></trkpt><trkpt lat="44.335069729478185" lon="11.334335250637213"><ele>438.0</ele><time>2026-05-01T09:28:24Z</time></trkpt><trkpt lat="44.334954625476385" lon="11.334432098608396"><ele>438.0</ele><time>2026-05-01T09:28:25Z</time></trkpt><trkpt lat="44.334836408823456" lon="11.334544233230599"><ele>438.0</ele><time>2026-05-01T09:28:26Z</time></trkpt><trkpt lat="44.334725156960886" lon="11.33466983909189"><ele>438.0</ele><time>2026-05-01T09:28:27Z</time></trkpt><trkpt lat="44.33462854900969" lon="11.33481767820803"><ele>440.75</ele><time>2026-05-01T09:28:28Z</time></trkpt><trkpt lat="44.334569313129954" lon="11.334998352854313"><ele>443.5</ele><time>2026-05-01T09:28:28.999Z</time></trkpt><trkpt lat="44.334529299532534" lon="11.335175191188835"><ele>446.25</ele><time>2026-05-01T09:28:29.999Z</time></trkpt><trkpt lat="44.334474812343345" lon="11.3353356797003"><ele>449.0</ele><time>2026-05-01T09:28:30.999Z</time></trkpt><trkpt lat="44.33437592787681" lon="11.335436847414499"><ele>449.0</ele><time>2026-05-01T09:28:31.999Z</time></trkpt><trkpt lat="44.33426309300917" lon="11.335471974818677"><ele>449.0</ele><time>2026-05-01T09:28:32.999Z</time></trkpt><trkpt lat="44.33413468411252" lon="11.335491096632756"><ele>449.0</ele><time>2026-05-01T09:28:33.999Z</time></trkpt><trkpt lat="44.33399289785672" lon="11.335500227143273"><ele>449.0</ele><time>2026-05-01T09:28:34.999Z</time></trkpt><trkpt lat="44.33384538917548" lon="11.335519900057339"><ele>452.5</ele><time>2026-05-01T09:28:35.999Z</time></trkpt><trkpt lat="44.3337101515973" lon="11.335513920185669"><ele>456.0</ele><time>2026-05-01T09:28:36.999Z</time></trkpt><trkpt lat="44.33358189577042" lon="11.335506598875735"><ele>459.5</ele><time>2026-05-01T09:28:37.999Z</time></trkpt><trkpt lat="44.33345535667495" lon="11.335495998800155"><ele>463.0</ele><time>2026-05-01T09:28:38.999Z</time></trkpt><trkpt lat="44.33333756163381" lon="11.33546183196976"><ele>463.0</ele><time>2026-05-01T09:28:39.999Z</time></trkpt><trkpt lat="44.3332512039428" lon="11.335343333060624"><ele>463.0</ele><time>2026-05-01T09:28:40.999Z</time></trkpt><trkpt lat="44.33315826920955" lon="11.335216583879687"><ele>463.0</ele><time>2026-05-01T09:28:41.999Z</time></trkpt><trkpt lat="44.33305655401575" lon="11.33509475202803"><ele>463.0</ele><time>2026-05-01T09:28:42.999Z</time></trkpt><trkpt lat="44.33297309701053" lon="11.33496679806856"><ele>466.5</ele><time>2026-05-01T09:28:43.999Z</time></trkpt><trkpt lat="44.33288774807914" lon="11.334849048525264"><ele>470.0</ele><time>2026-05-01T09:28:44.999Z</time></trkpt><trkpt lat="44.33280046524625" lon="11.334729656695533"><ele>473.5</ele><time>2026-05-01T09:28:45.999Z</time></trkpt><trkpt lat="44.332710375157106" lon="11.334605065605453"><ele>477.0</ele><time>2026-05-01T09:28:46.999Z</time></trkpt><trkpt lat="44.33261107499276" lon="11.33450476076113"><ele>477.0</ele><time>2026-05-01T09:28:47.999Z</time></trkpt><trkpt lat="44.33249948820465" lon="11.33441002716429"><ele>477.0</ele><time>2026-05-01T09:28:48.999Z</time></trkpt><trkpt lat="44.33235686077762" lon="11.334363906283762"><ele>477.0</ele><time>2026-05-01T09:28:49.999Z</time></trkpt><trkpt lat="44.33219835981719" lon="11.334328578613725"><ele>477.0</ele><time>2026-05-01T09:28:50.999Z</time></trkpt><trkpt lat="44.33203699084399" lon="11.334304860539513"><ele>478.33333333333337</ele><time>2026-05-01T09:28:51.999Z</time></trkpt><trkpt lat="44.331889655750416" lon="11.334274403460507"><ele>479.6666666666667</ele><time>2026-05-01T09:28:52.999Z</time></trkpt><trkpt lat="44.33173734914153" lon="11.334246707445056"><ele>481.0</ele><time>2026-05-01T09:28:53.999Z</time></trkpt><trkpt lat="44.33158157680087" lon="11.334248268001136"><ele>481.0</ele><time>2026-05-01T09:28:54.999Z</time></trkpt><trkpt lat="44.331437040022905" lon="11.334274324542525"><ele>481.0</ele><time>2026-05-01T09:28:55.999Z</time></trkpt><trkpt lat="44.33130650207545" lon="11.33435179998666"><ele>481.0</ele><time>2026-05-01T09:28:56.999Z</time></trkpt><trkpt lat="44.331176094096115" lon="11.334425781336378"><ele>481.0</ele><time>2026-05-01T09:28:57.999Z</time></trkpt><trkpt lat="44.33105743587771" lon="11.334524869665286"><ele>480.0</ele><time>2026-05-01T09:28:58.999Z</time></trkpt><trkpt lat="44.33094108789855" lon="11.334631812178912"><ele>479.0</ele><time>2026-05-01T09:28:59.999Z</time></trkpt><trkpt lat="44.330805850421456" lon="11.334691582654644"><ele>478.0</ele><time>2026-05-01T09:29:00.999Z</time></trkpt><trkpt lat="44.33067619117566" lon="11.334764149645052"><ele>477.0</ele><time>2026-05-01T09:29:01.999Z</time></trkpt><trkpt lat="44.330533928965274" lon="11.334764806383602"><ele>477.33333333333337</ele><time>2026-05-01T09:29:02.999Z</time></trkpt><trkpt lat="44.33038959993222" lon="11.334750435144086"><ele>477.6666666666667</ele><time>2026-05-01T09:29:03.999Z</time></trkpt><trkpt lat="44.330225748623" lon="11.334734005616399"><ele>478.0</ele><time>2026-05-01T09:29:04.999Z</time></trkpt><trkpt lat="44.33004629654983" lon="11.334661309423423"><ele>478.0</ele><time>2026-05-01T09:29:05.999Z</time></trkpt><trkpt lat="44.329846688824404" lon="11.334617782910321"><ele>478.0</ele><time>2026-05-01T09:29:06.999Z</time></trkpt><trkpt lat="44.329630461056865" lon="11.334569358862828"><ele>478.0</ele><time>2026-05-01T09:29:07.999Z</time></trkpt><trkpt lat="44.32940395422336" lon="11.33452263589798"><ele>482.0</ele><time>2026-05-01T09:29:08.999Z</time></trkpt><trkpt lat="44.329183728909136" lon="11.33443948215834"><ele>486.0</ele><time>2026-05-01T09:29:09.999Z</time></trkpt><trkpt lat="44.328957558325996" lon="11.334372020854058"><ele>495.0</ele><time>2026-05-01T09:29:10.999Z</time></trkpt><trkpt lat="44.32871937957271" lon="11.334326794729792"><ele>504.0</ele><time>2026-05-01T09:29:11.999Z</time></trkpt><trkpt lat="44.32848049569992" lon="11.334288527610264"><ele>504.0</ele><time>2026-05-01T09:29:12.999Z</time></trkpt><trkpt lat="44.328244621142424" lon="11.334238237046584"><ele>504.0</ele><time>2026-05-01T09:29:13.999Z</time></trkpt><trkpt lat="44.32801793067522" lon="11.334151768135548"><ele>500.66666666666663</ele><time>2026-05-01T09:29:14.999Z</time></trkpt><trkpt lat="44.32780655799352" lon="11.33403203744199"><ele>497.3333333333333</ele><time>2026-05-01T09:29:15.999Z</time></trkpt><trkpt lat="44.32760421910343" lon="11.333913006655965"><ele>494.0</ele><time>2026-05-01T09:29:16.999Z</time></trkpt><trkpt lat="44.327403763913516" lon="11.333806553461471"><ele>499.3333333333333</ele><time>2026-05-01T09:29:17.999Z</time></trkpt><trkpt lat="44.327214759626486" lon="11.333693033607329"><ele>504.66666666666663</ele><time>2026-05-01T09:29:18.999Z</time></trkpt><trkpt lat="44.32703090321991" lon="11.33358580760175"><ele>510.0</ele><time>2026-05-01T09:29:19.999Z</time></trkpt><trkpt lat="44.326849555264765" lon="11.333503207350924"><ele>510.0</ele><time>2026-05-01T09:29:20.999Z</time></trkpt><trkpt lat="44.32666517976687" lon="11.333451793486809"><ele>510.0</ele><time>2026-05-01T09:29:21.999Z</time></trkpt><trkpt lat="44.32647431521289" lon="11.333438395650415"><ele>510.0</ele><time>2026-05-01T09:29:22.999Z</time></trkpt><trkpt lat="44.32628315996633" lon="11.333466444399006"><ele>516.6666666666666</ele><time>2026-05-01T09:29:23.999Z</time></trkpt><trkpt lat="44.32609489866943" lon="11.333516521125242"><ele>523.3333333333333</ele><time>2026-05-01T09:29:24.999Z</time></trkpt><trkpt lat="44.32591663957133" lon="11.333544115651419"><ele>530.0</ele><time>2026-05-01T09:29:25.999Z</time></trkpt><trkpt lat="44.325753593091434" lon="11.333498466814001"><ele>530.0</ele><time>2026-05-01T09:29:26.999Z</time></trkpt><trkpt lat="44.32560442880784" lon="11.333462104856196"><ele>530.0</ele><time>2026-05-01T09:29:27.999Z</time></trkpt><trkpt lat="44.32547720025869" lon="11.333356667977105"><ele>530.0</ele><time>2026-05-01T09:29:28.999Z</time></trkpt><trkpt lat="44.32539953124396" lon="11.333183222123298"><ele>530.0</ele><time>2026-05-01T09:29:29.999Z</time></trkpt><trkpt lat="44.32534209938198" lon="11.33299547858758"><ele>529.3333333333333</ele><time>2026-05-01T09:29:30.999Z</time></trkpt><trkpt lat="44.32527410127293" lon="11.332787442564305"><ele>528.6666666666666</ele><time>2026-05-01T09:29:31.999Z</time></trkpt><trkpt lat="44.325225510517676" lon="11.332563344414332"><ele>528.0</ele><time>2026-05-01T09:29:32.999Z</time></trkpt><trkpt lat="44.325184152344896" lon="11.332339185564715"><ele>528.0</ele><time>2026-05-01T09:29:33.999Z</time></trkpt><trkpt lat="44.32515457216478" lon="11.332113159722777"><ele>528.0</ele><time>2026-05-01T09:29:34.999Z</time></trkpt><trkpt lat="44.32514198064046" lon="11.331895180587237"><ele>528.0</ele><time>2026-05-01T09:29:35.999Z</time></trkpt><trkpt lat="44.325143967856945" lon="11.331690819729697"><ele>528.0</ele><time>2026-05-01T09:29:36.999Z</time></trkpt><trkpt lat="44.325157892525546" lon="11.331506431623076"><ele>528.0</ele><time>2026-05-01T09:29:37.999Z</time></trkpt><trkpt lat="44.32518927247737" lon="11.331344319019248"><ele>528.0</ele><time>2026-05-01T09:29:38.999Z</time></trkpt><trkpt lat="44.325215072635785" lon="11.331194725616465"><ele>528.0</ele><time>2026-05-01T09:29:39.999Z</time></trkpt><trkpt lat="44.32520895906856" lon="11.331054193205373"><ele>526.5</ele><time>2026-05-01T09:29:40.999Z</time></trkpt><trkpt lat="44.32516092651242" lon="11.33092463259858"><ele>525.0</ele><time>2026-05-01T09:29:41.999Z</time></trkpt><trkpt lat="44.32506474329131" lon="11.330848667072503"><ele>523.5</ele><time>2026-05-01T09:29:42.999Z</time></trkpt><trkpt lat="44.32494091369632" lon="11.330845538980974"><ele>522.0</ele><time>2026-05-01T09:29:43.999Z</time></trkpt><trkpt lat="44.32480832763616" lon="11.330908683628465"><ele>517.0</ele><time>2026-05-01T09:29:44.999Z</time></trkpt><trkpt lat="44.32466968080045" lon="11.330963955715822"><ele>512.0</ele><time>2026-05-01T09:29:45.999Z</time></trkpt><trkpt lat="44.3245412939691" lon="11.33102289542785"><ele>507.0</ele><time>2026-05-01T09:29:46.999Z</time></trkpt><trkpt lat="44.324440892878634" lon="11.331141204880886"><ele>502.0</ele><time>2026-05-01T09:29:47.999Z</time></trkpt><trkpt lat="44.32437296055988" lon="11.33132851761274"><ele>507.33333333333337</ele><time>2026-05-01T09:29:48.999Z</time></trkpt><trkpt lat="44.32431646113519" lon="11.331552935111176"><ele>512.6666666666666</ele><time>2026-05-01T09:29:49.999Z</time></trkpt><trkpt lat="44.32425549498205" lon="11.331768183791485"><ele>518.0</ele><time>2026-05-01T09:29:50.999Z</time></trkpt><trkpt lat="44.32416277876141" lon="11.331953456070133"><ele>518.0</ele><time>2026-05-01T09:29:51.999Z</time></trkpt><trkpt lat="44.324064619108874" lon="11.332132720653465"><ele>518.0</ele><time>2026-05-01T09:29:52.999Z</time></trkpt><trkpt lat="44.323942828790706" lon="11.332285318743924"><ele>518.0</ele><time>2026-05-01T09:29:53.999Z</time></trkpt><trkpt lat="44.32379803285597" lon="11.332418639186683"><ele>515.0</ele><time>2026-05-01T09:29:54.999Z</time></trkpt><trkpt lat="44.3236272257685" lon="11.332517141526695"><ele>512.0</ele><time>2026-05-01T09:29:55.998Z</time></trkpt><trkpt lat="44.32347654860468" lon="11.332671172377866"><ele>509.0</ele><time>2026-05-01T09:29:56.998Z</time></trkpt><trkpt lat="44.323347708439265" lon="11.33286549917276"><ele>503.66666666666663</ele><time>2026-05-01T09:29:57.998Z</time></trkpt><trkpt lat="44.3232408765782" lon="11.333074589195872"><ele>498.33333333333337</ele><time>2026-05-01T09:29:58.998Z</time></trkpt><trkpt lat="44.323130391255255" lon="11.333266291603964"><ele>493.0</ele><time>2026-05-01T09:29:59.998Z</time></trkpt><trkpt lat="44.323021948017235" lon="11.333444318698906"><ele>493.0</ele><time>2026-05-01T09:30:01Z</time></trkpt><trkpt lat="44.32293556956781" lon="11.33362331753844"><ele>493.0</ele><time>2026-05-01T09:30:02Z</time></trkpt><trkpt lat="44.32286642325067" lon="11.333815593489389"><ele>493.0</ele><time>2026-05-01T09:30:03Z</time></trkpt><trkpt lat="44.32278008162908" lon="11.334004840504686"><ele>499.25</ele><time>2026-05-01T09:30:04Z</time></trkpt><trkpt lat="44.322657869204946" lon="11.334139985808786"><ele>505.5</ele><time>2026-05-01T09:30:05Z</time></trkpt><trkpt lat="44.32251401449969" lon="11.334158740241106"><ele>511.75</ele><time>2026-05-01T09:30:06Z</time></trkpt><trkpt lat="44.322376606924536" lon="11.33413934186249"><ele>518.0</ele><time>2026-05-01T09:30:07Z</time></trkpt><trkpt lat="44.322242713887945" lon="11.334161655650703"><ele>511.0</ele><time>2026-05-01T09:30:08Z</time></trkpt><trkpt lat="44.32210019745771" lon="11.334175968253653"><ele>504.0</ele><time>2026-05-01T09:30:09Z</time></trkpt><trkpt lat="44.32196554278162" lon="11.334286398230898"><ele>497.0</ele><time>2026-05-01T09:30:10Z</time></trkpt><trkpt lat="44.321858219421685" lon="11.33445423035488"><ele>497.0</ele><time>2026-05-01T09:30:11Z</time></trkpt><trkpt lat="44.3217632836071" lon="11.33461280362791"><ele>497.0</ele><time>2026-05-01T09:30:12Z</time></trkpt><trkpt lat="44.32164348500725" lon="11.33469344480613"><ele>497.0</ele><time>2026-05-01T09:30:13Z</time></trkpt><trkpt lat="44.321496963413274" lon="11.33475023529401"><ele>497.0</ele><time>2026-05-01T09:30:14Z</time></trkpt><trkpt lat="44.321321042254134" lon="11.33471336030539"><ele>495.66666666666663</ele><time>2026-05-01T09:30:15Z</time></trkpt><trkpt lat="44.321160123295485" lon="11.334768224957939"><ele>494.33333333333337</ele><time>2026-05-01T09:30:16Z</time></trkpt><trkpt lat="44.32100166272299" lon="11.334825876782222"><ele>493.0</ele><time>2026-05-01T09:30:17Z</time></trkpt><trkpt lat="44.320838412597844" lon="11.334837423366178"><ele>493.0</ele><time>2026-05-01T09:30:18Z</time></trkpt><trkpt lat="44.32067695967558" lon="11.334762699973535"><ele>493.0</ele><time>2026-05-01T09:30:19Z</time></trkpt><trkpt lat="44.32050649420566" lon="11.334678898826"><ele>493.0</ele><time>2026-05-01T09:30:20Z</time></trkpt><trkpt lat="44.32034871638" lon="11.334542864452539"><ele>491.0</ele><time>2026-05-01T09:30:21Z</time></trkpt><trkpt lat="44.32019935081172" lon="11.3344051932462"><ele>489.0</ele><time>2026-05-01T09:30:22Z</time></trkpt><trkpt lat="44.32006429671128" lon="11.33429395945891"><ele>487.0</ele><time>2026-05-01T09:30:23Z</time></trkpt><trkpt lat="44.31993839161953" lon="11.334217635315214"><ele>487.0</ele><time>2026-05-01T09:30:24Z</time></trkpt><trkpt lat="44.31981279220947" lon="11.334165776330948"><ele>487.0</ele><time>2026-05-01T09:30:25Z</time></trkpt><trkpt lat="44.31969373372039" lon="11.334123407973951"><ele>487.0</ele><time>2026-05-01T09:30:26Z</time></trkpt><trkpt lat="44.319578510318884" lon="11.334076000249194"><ele>487.0</ele><time>2026-05-01T09:30:27Z</time></trkpt><trkpt lat="44.31946348175488" lon="11.334025636841023"><ele>487.25</ele><time>2026-05-01T09:30:28Z</time></trkpt><trkpt lat="44.31935076729506" lon="11.33397467964299"><ele>487.5</ele><time>2026-05-01T09:30:29Z</time></trkpt><trkpt lat="44.31923855341982" lon="11.333919124150082"><ele>487.75</ele><time>2026-05-01T09:30:29.999Z</time></trkpt><trkpt lat="44.31912794594351" lon="11.333859341766516"><ele>488.0</ele><time>2026-05-01T09:30:30.999Z</time></trkpt><trkpt lat="44.319016423452425" lon="11.333796699818922"><ele>489.25</ele><time>2026-05-01T09:30:31.999Z</time></trkpt><trkpt lat="44.318899605610014" lon="11.3337263288663"><ele>490.5</ele><time>2026-05-01T09:30:32.999Z</time></trkpt><trkpt lat="44.31877905977885" lon="11.333650918285343"><ele>491.75</ele><time>2026-05-01T09:30:33.999Z</time></trkpt><trkpt lat="44.318651645929975" lon="11.333573267439196"><ele>493.0</ele><time>2026-05-01T09:30:34.999Z</time></trkpt><trkpt lat="44.31851856986883" lon="11.333490046421185"><ele>493.0</ele><time>2026-05-01T09:30:35.999Z</time></trkpt><trkpt lat="44.318382924898586" lon="11.333408014619772"><ele>493.0</ele><time>2026-05-01T09:30:36.999Z</time></trkpt><trkpt lat="44.318248084882846" lon="11.333321932705262"><ele>493.0</ele><time>2026-05-01T09:30:37.999Z</time></trkpt><trkpt lat="44.31811156259731" lon="11.333233000809782"><ele>493.0</ele><time>2026-05-01T09:30:38.999Z</time></trkpt><trkpt lat="44.31797750238111" lon="11.333135849469757"><ele>492.6666666666667</ele><time>2026-05-01T09:30:39.999Z</time></trkpt><trkpt lat="44.31784003066031" lon="11.333033917856685"><ele>492.33333333333337</ele><time>2026-05-01T09:30:40.999Z</time></trkpt><trkpt lat="44.31769958576819" lon="11.332929203773716"><ele>492.0</ele><time>2026-05-01T09:30:41.999Z</time></trkpt><trkpt lat="44.317557825974745" lon="11.332821644949153"><ele>492.0</ele><time>2026-05-01T09:30:42.999Z</time></trkpt><trkpt lat="44.31741752240507" lon="11.332715370727"><ele>492.0</ele><time>2026-05-01T09:30:43.999Z</time></trkpt><trkpt lat="44.31727718575031" lon="11.332608516288268"><ele>492.0</ele><time>2026-05-01T09:30:44.999Z</time></trkpt><trkpt lat="44.31714143828512" lon="11.33250279540163"><ele>492.25</ele><time>2026-05-01T09:30:45.999Z</time></trkpt><trkpt lat="44.317010029298984" lon="11.332396727121623"><ele>492.5</ele><time>2026-05-01T09:30:46.999Z</time></trkpt><trkpt lat="44.31688084735171" lon="11.332296630921082"><ele>492.75</ele><time>2026-05-01T09:30:47.999Z</time></trkpt><trkpt lat="44.31675300450234" lon="11.332198712783377"><ele>493.0</ele><time>2026-05-01T09:30:48.999Z</time></trkpt><trkpt lat="44.31662756582389" lon="11.332110831493566"><ele>493.5</ele><time>2026-05-01T09:30:49.999Z</time></trkpt><trkpt lat="44.31650168671532" lon="11.332042082616105"><ele>494.0</ele><time>2026-05-01T09:30:50.999Z</time></trkpt><trkpt lat="44.316372059578256" lon="11.331996513462132"><ele>494.5</ele><time>2026-05-01T09:30:51.999Z</time></trkpt><trkpt lat="44.31624354175351" lon="11.331957784189296"><ele>495.0</ele><time>2026-05-01T09:30:52.999Z</time></trkpt><trkpt lat="44.31611866409332" lon="11.331909380024987"><ele>495.25</ele><time>2026-05-01T09:30:53.999Z</time></trkpt><trkpt lat="44.3159993640212" lon="11.331839852688391"><ele>495.5</ele><time>2026-05-01T09:30:54.999Z</time></trkpt><trkpt lat="44.31588971967097" lon="11.331742680075601"><ele>495.75</ele><time>2026-05-01T09:30:55.999Z</time></trkpt><trkpt lat="44.315788656087705" lon="11.331630227053267"><ele>496.0</ele><time>2026-05-01T09:30:56.999Z</time></trkpt><trkpt lat="44.315681373806804" lon="11.331523045730178"><ele>493.5</ele><time>2026-05-01T09:30:57.999Z</time></trkpt><trkpt lat="44.3155656934471" lon="11.331429481488836"><ele>491.0</ele><time>2026-05-01T09:30:58.999Z</time></trkpt><trkpt lat="44.31544600383684" lon="11.331332241149168"><ele>488.5</ele><time>2026-05-01T09:30:59.999Z</time></trkpt><trkpt lat="44.315332671093564" lon="11.331211550612881"><ele>486.0</ele><time>2026-05-01T09:31:00.999Z</time></trkpt><trkpt lat="44.31522740369246" lon="11.331057778348608"><ele>492.66666666666663</ele><time>2026-05-01T09:31:01.999Z</time></trkpt><trkpt lat="44.31511912143895" lon="11.330902362507782"><ele>499.3333333333333</ele><time>2026-05-01T09:31:02.999Z</time></trkpt><trkpt lat="44.315009027670186" lon="11.330745846172535"><ele>506.0</ele><time>2026-05-01T09:31:03.999Z</time></trkpt><trkpt lat="44.31489820048821" lon="11.330589618487476"><ele>506.66666666666663</ele><time>2026-05-01T09:31:04.999Z</time></trkpt><trkpt lat="44.31478833660918" lon="11.330431785761492"><ele>507.33333333333337</ele><time>2026-05-01T09:31:05.999Z</time></trkpt><trkpt lat="44.31467205951574" lon="11.330286920909451"><ele>508.0</ele><time>2026-05-01T09:31:06.999Z</time></trkpt><trkpt lat="44.31454362597779" lon="11.33015764199781"><ele>508.0</ele><time>2026-05-01T09:31:07.999Z</time></trkpt><trkpt lat="44.31440763262073" lon="11.330052306895343"><ele>508.0</ele><time>2026-05-01T09:31:08.999Z</time></trkpt><trkpt lat="44.31426179292434" lon="11.32998090596951"><ele>508.0</ele><time>2026-05-01T09:31:09.999Z</time></trkpt><trkpt lat="44.3141067415447" lon="11.329946645051095"><ele>508.0</ele><time>2026-05-01T09:31:10.999Z</time></trkpt><trkpt lat="44.313946618227604" lon="11.329940096970311"><ele>508.0</ele><time>2026-05-01T09:31:11.999Z</time></trkpt><trkpt lat="44.31379032981474" lon="11.329945144872646"><ele>508.0</ele><time>2026-05-01T09:31:12.999Z</time></trkpt><trkpt lat="44.313632084810536" lon="11.329931421371898"><ele>509.33333333333337</ele><time>2026-05-01T09:31:13.999Z</time></trkpt><trkpt lat="44.31347483758409" lon="11.32990127349889"><ele>510.66666666666663</ele><time>2026-05-01T09:31:14.999Z</time></trkpt><trkpt lat="44.31331558098845" lon="11.329876472489914"><ele>512.0</ele><time>2026-05-01T09:31:15.999Z</time></trkpt><trkpt lat="44.31315515523548" lon="11.329855272233052"><ele>517.0</ele><time>2026-05-01T09:31:16.999Z</time></trkpt><trkpt lat="44.31299183746453" lon="11.329839913700487"><ele>522.0</ele><time>2026-05-01T09:31:17.999Z</time></trkpt><trkpt lat="44.31282657882051" lon="11.329846135182251"><ele>527.0</ele><time>2026-05-01T09:31:18.999Z</time></trkpt><trkpt lat="44.3126638409915" lon="11.329872787454924"><ele>527.0</ele><time>2026-05-01T09:31:19.999Z</time></trkpt><trkpt lat="44.312500126079314" lon="11.32991467766209"><ele>527.0</ele><time>2026-05-01T09:31:20.999Z</time></trkpt><trkpt lat="44.31233669564881" lon="11.329973787841517"><ele>527.0</ele><time>2026-05-01T09:31:21.999Z</time></trkpt><trkpt lat="44.31218751739561" lon="11.33005150519001"><ele>531.0</ele><time>2026-05-01T09:31:22.999Z</time></trkpt><trkpt lat="44.31205643351328" lon="11.330124637522117"><ele>535.0</ele><time>2026-05-01T09:31:23.999Z</time></trkpt><trkpt lat="44.311946494995595" lon="11.330209878700746"><ele>539.0</ele><time>2026-05-01T09:31:24.999Z</time></trkpt><trkpt lat="44.31172667346034" lon="11.330392756138"><ele>539.0</ele><time>2026-05-01T09:31:25.999Z</time></trkpt><trkpt lat="44.311584653309986" lon="11.33055100195604"><ele>539.0</ele><time>2026-05-01T09:31:26.999Z</time></trkpt><trkpt lat="44.31145620572679" lon="11.330719111241406"><ele>539.0</ele><time>2026-05-01T09:31:27.999Z</time></trkpt><trkpt lat="44.31134110020526" lon="11.330911115593253"><ele>538.0</ele><time>2026-05-01T09:31:28.999Z</time></trkpt><trkpt lat="44.311236960701606" lon="11.331115882082356"><ele>537.0</ele><time>2026-05-01T09:31:29.999Z</time></trkpt><trkpt lat="44.31114917481085" lon="11.331327527086039"><ele>536.0</ele><time>2026-05-01T09:31:30.999Z</time></trkpt><trkpt lat="44.31106735063589" lon="11.331535309219213"><ele>536.0</ele><time>2026-05-01T09:31:31.999Z</time></trkpt><trkpt lat="44.31096581669145" lon="11.331719542648193"><ele>536.0</ele><time>2026-05-01T09:31:32.999Z</time></trkpt><trkpt lat="44.310820321420174" lon="11.331784502572726"><ele>536.0</ele><time>2026-05-01T09:31:33.999Z</time></trkpt><trkpt lat="44.3106717565755" lon="11.331844962037257"><ele>535.5</ele><time>2026-05-01T09:31:34.999Z</time></trkpt><trkpt lat="44.31051941374527" lon="11.331911135915709"><ele>535.0</ele><time>2026-05-01T09:31:35.999Z</time></trkpt><trkpt lat="44.31039606235857" lon="11.33203539220755"><ele>534.5</ele><time>2026-05-01T09:31:36.999Z</time></trkpt><trkpt lat="44.31027458335373" lon="11.332067843690284"><ele>534.0</ele><time>2026-05-01T09:31:37.999Z</time></trkpt><trkpt lat="44.310189481388534" lon="11.33208569039234"><ele>534.0</ele><time>2026-05-01T09:31:38.999Z</time></trkpt><trkpt lat="44.3101232239333" lon="11.331688441127309"><ele>534.0</ele><time>2026-05-01T09:31:39.999Z</time></trkpt><trkpt lat="44.31003335251723" lon="11.331530018385154"><ele>534.0</ele><time>2026-05-01T09:31:40.999Z</time></trkpt><trkpt lat="44.30992898426144" lon="11.331360561388063"><ele>535.3333333333334</ele><time>2026-05-01T09:31:41.999Z</time></trkpt><trkpt lat="44.30982622453395" lon="11.331188429334189"><ele>536.6666666666667</ele><time>2026-05-01T09:31:42.999Z</time></trkpt><trkpt lat="44.309697611546525" lon="11.331031440943526"><ele>538.0</ele><time>2026-05-01T09:31:43.999Z</time></trkpt><trkpt lat="44.3095519944081" lon="11.330898665793734"><ele>538.0</ele><time>2026-05-01T09:31:44.999Z</time></trkpt><trkpt lat="44.30940052291075" lon="11.330771025302962"><ele>538.0</ele><time>2026-05-01T09:31:45.999Z</time></trkpt><trkpt lat="44.30924699319452" lon="11.33063014219553"><ele>538.0</ele><time>2026-05-01T09:31:46.999Z</time></trkpt><trkpt lat="44.30909584381266" lon="11.330490706680845"><ele>540.3333333333334</ele><time>2026-05-01T09:31:47.999Z</time></trkpt><trkpt lat="44.308944883101574" lon="11.330365627230272"><ele>542.6666666666666</ele><time>2026-05-01T09:31:48.999Z</time></trkpt><trkpt lat="44.30880045354709" lon="11.330231915316803"><ele>545.0</ele><time>2026-05-01T09:31:49.999Z</time></trkpt><trkpt lat="44.308664811090495" lon="11.33009896732873"><ele>545.0</ele><time>2026-05-01T09:31:50.999Z</time></trkpt><trkpt lat="44.30852360599224" lon="11.329970169912036"><ele>545.0</ele><time>2026-05-01T09:31:51.999Z</time></trkpt><trkpt lat="44.30837031613362" lon="11.329884354037333"><ele>545.0</ele><time>2026-05-01T09:31:52.999Z</time></trkpt><trkpt lat="44.30819505462787" lon="11.32984849960611"><ele>545.3333333333333</ele><time>2026-05-01T09:31:53.999Z</time></trkpt><trkpt lat="44.30801607348872" lon="11.329847710866952"><ele>545.6666666666666</ele><time>2026-05-01T09:31:54.999Z</time></trkpt><trkpt lat="44.30784399752069" lon="11.32986055282717"><ele>546.0</ele><time>2026-05-01T09:31:55.999Z</time></trkpt><trkpt lat="44.30768012205757" lon="11.329859907281554"><ele>546.0</ele><time>2026-05-01T09:31:56.998Z</time></trkpt><trkpt lat="44.30752675012129" lon="11.329792430638006"><ele>546.0</ele><time>2026-05-01T09:31:57.998Z</time></trkpt><trkpt lat="44.30737575497655" lon="11.329712846552132"><ele>546.0</ele><time>2026-05-01T09:31:58.998Z</time></trkpt><trkpt lat="44.30721908175322" lon="11.329618829178948"><ele>548.0</ele><time>2026-05-01T09:31:59.998Z</time></trkpt><trkpt lat="44.30706252397522" lon="11.329537752665685"><ele>550.0</ele><time>2026-05-01T09:32:00.998Z</time></trkpt><trkpt lat="44.30691888084808" lon="11.329445052897396"><ele>552.0</ele><time>2026-05-01T09:32:01.998Z</time></trkpt><trkpt lat="44.306787193925196" lon="11.329360448554942"><ele>552.0</ele><time>2026-05-01T09:32:02.998Z</time></trkpt><trkpt lat="44.30668128630725" lon="11.329274556050139"><ele>552.0</ele><time>2026-05-01T09:32:03.998Z</time></trkpt><trkpt lat="44.306611812437694" lon="11.32913749029023"><ele>552.0</ele><time>2026-05-01T09:32:04.998Z</time></trkpt><trkpt lat="44.30657410269846" lon="11.328967312038825"><ele>552.0</ele><time>2026-05-01T09:32:05.998Z</time></trkpt><trkpt lat="44.30655461188669" lon="11.3287824850216"><ele>555.5</ele><time>2026-05-01T09:32:07Z</time></trkpt><trkpt lat="44.30652571485617" lon="11.328616926920432"><ele>559.0</ele><time>2026-05-01T09:32:08Z</time></trkpt><trkpt lat="44.306455974516275" lon="11.328492054041229"><ele>562.5</ele><time>2026-05-01T09:32:09Z</time></trkpt><trkpt lat="44.30634759569185" lon="11.328434489672622"><ele>566.0</ele><time>2026-05-01T09:32:10Z</time></trkpt><trkpt lat="44.30622044816637" lon="11.328467919134317"><ele>567.6666666666666</ele><time>2026-05-01T09:32:11Z</time></trkpt><trkpt lat="44.306107693829674" lon="11.32857739789546"><ele>569.3333333333334</ele><time>2026-05-01T09:32:12Z</time></trkpt><trkpt lat="44.3060158086976" lon="11.328750909126313"><ele>571.0</ele><time>2026-05-01T09:32:13Z</time></trkpt><trkpt lat="44.30595293250584" lon="11.328959425607746"><ele>567.5</ele><time>2026-05-01T09:32:14Z</time></trkpt><trkpt lat="44.30589690839809" lon="11.329173310923524"><ele>564.0</ele><time>2026-05-01T09:32:15Z</time></trkpt><trkpt lat="44.30583360870627" lon="11.329360318774677"><ele>560.5</ele><time>2026-05-01T09:32:16Z</time></trkpt><trkpt lat="44.305748182175954" lon="11.329493204389719"><ele>557.0</ele><time>2026-05-01T09:32:17Z</time></trkpt><trkpt lat="44.3056670665073" lon="11.329587213623384"><ele>556.5</ele><time>2026-05-01T09:32:18Z</time></trkpt><trkpt lat="44.30556140544439" lon="11.329614048326524"><ele>556.0</ele><time>2026-05-01T09:32:19Z</time></trkpt><trkpt lat="44.30545523020548" lon="11.329531383870593"><ele>555.5</ele><time>2026-05-01T09:32:20Z</time></trkpt><trkpt lat="44.30538259899131" lon="11.329393603822803"><ele>555.0</ele><time>2026-05-01T09:32:21Z</time></trkpt><trkpt lat="44.305341448554884" lon="11.329219714366307"><ele>555.0</ele><time>2026-05-01T09:32:22Z</time></trkpt><trkpt lat="44.305289261304225" lon="11.328976086050126"><ele>555.0</ele><time>2026-05-01T09:32:23Z</time></trkpt><trkpt lat="44.30527461569733" lon="11.32876465901173"><ele>555.0</ele><time>2026-05-01T09:32:24Z</time></trkpt><trkpt lat="44.305261674665935" lon="11.328563082934448"><ele>557.25</ele><time>2026-05-01T09:32:25Z</time></trkpt><trkpt lat="44.3052506921035" lon="11.328382965823456"><ele>559.5</ele><time>2026-05-01T09:32:25.999Z</time></trkpt><trkpt lat="44.30522383478947" lon="11.328229888920642"><ele>561.75</ele><time>2026-05-01T09:32:26.999Z</time></trkpt><trkpt lat="44.305161123495964" lon="11.328110531946908"><ele>564.0</ele><time>2026-05-01T09:32:27.999Z</time></trkpt><trkpt lat="44.30505539964531" lon="11.32805036676286"><ele>564.0</ele><time>2026-05-01T09:32:28.999Z</time></trkpt><trkpt lat="44.30493228672127" lon="11.328057404253236"><ele>564.0</ele><time>2026-05-01T09:32:29.999Z</time></trkpt><trkpt lat="44.3048196870686" lon="11.328138383569284"><ele>564.0</ele><time>2026-05-01T09:32:30.999Z</time></trkpt><trkpt lat="44.30472990444665" lon="11.328282760522923"><ele>564.0</ele><time>2026-05-01T09:32:31.999Z</time></trkpt><trkpt lat="44.30467868038865" lon="11.328467043141181"><ele>567.6666666666666</ele><time>2026-05-01T09:32:32.999Z</time></trkpt><trkpt lat="44.3046429823615" lon="11.328668990631064"><ele>571.3333333333333</ele><time>2026-05-01T09:32:33.999Z</time></trkpt><trkpt lat="44.30460080125026" lon="11.328882724139323"><ele>575.0</ele><time>2026-05-01T09:32:34.999Z</time></trkpt><trkpt lat="44.30453403655982" lon="11.329086301132214"><ele>575.0</ele><time>2026-05-01T09:32:35.999Z</time></trkpt><trkpt lat="44.3044775749084" lon="11.329292102902116"><ele>575.0</ele><time>2026-05-01T09:32:36.999Z</time></trkpt><trkpt lat="44.304436527499725" lon="11.329514009352103"><ele>575.0</ele><time>2026-05-01T09:32:37.999Z</time></trkpt><trkpt lat="44.304395685261746" lon="11.329733905698232"><ele>572.3333333333333</ele><time>2026-05-01T09:32:38.999Z</time></trkpt><trkpt lat="44.30437199193473" lon="11.329963374828289"><ele>569.6666666666666</ele><time>2026-05-01T09:32:39.999Z</time></trkpt><trkpt lat="44.30435308715079" lon="11.330189521559396"><ele>567.0</ele><time>2026-05-01T09:32:40.999Z</time></trkpt><trkpt lat="44.30433367247562" lon="11.33040340263637"><ele>565.5</ele><time>2026-05-01T09:32:41.999Z</time></trkpt><trkpt lat="44.304308842750494" lon="11.330608370465022"><ele>564.0</ele><time>2026-05-01T09:32:42.999Z</time></trkpt><trkpt lat="44.30429565399728" lon="11.330795975439823"><ele>562.5</ele><time>2026-05-01T09:32:43.999Z</time></trkpt><trkpt lat="44.30423802368487" lon="11.330947804604033"><ele>561.0</ele><time>2026-05-01T09:32:44.999Z</time></trkpt><trkpt lat="44.3041565854156" lon="11.331058881955245"><ele>561.0</ele><time>2026-05-01T09:32:45.999Z</time></trkpt><trkpt lat="44.30404664744204" lon="11.331140869670666"><ele>561.0</ele><time>2026-05-01T09:32:46.999Z</time></trkpt><trkpt lat="44.30392209796847" lon="11.331204205218704"><ele>561.0</ele><time>2026-05-01T09:32:47.999Z</time></trkpt><trkpt lat="44.30379366333407" lon="11.33123861005041"><ele>561.0</ele><time>2026-05-01T09:32:48.999Z</time></trkpt><trkpt lat="44.30367264386737" lon="11.33121341604117"><ele>559.25</ele><time>2026-05-01T09:32:49.999Z</time></trkpt><trkpt lat="44.303570068826694" lon="11.331118182152721"><ele>557.5</ele><time>2026-05-01T09:32:50.999Z</time></trkpt><trkpt lat="44.30347052554384" lon="11.330987553569651"><ele>555.75</ele><time>2026-05-01T09:32:51.999Z</time></trkpt><trkpt lat="44.303408048613505" lon="11.330802519451188"><ele>554.0</ele><time>2026-05-01T09:32:52.999Z</time></trkpt><trkpt lat="44.303387521484716" lon="11.330605207284515"><ele>556.3333333333333</ele><time>2026-05-01T09:32:53.999Z</time></trkpt><trkpt lat="44.30339687313538" lon="11.330398863211396"><ele>558.6666666666666</ele><time>2026-05-01T09:32:54.999Z</time></trkpt><trkpt lat="44.30340561243728" lon="11.330180709054416"><ele>561.0</ele><time>2026-05-01T09:32:55.999Z</time></trkpt><trkpt lat="44.30341364340423" lon="11.329954528314818"><ele>563.6666666666666</ele><time>2026-05-01T09:32:56.999Z</time></trkpt><trkpt lat="44.30337877793154" lon="11.329723256797639"><ele>566.3333333333333</ele><time>2026-05-01T09:32:57.999Z</time></trkpt><trkpt lat="44.303330741522394" lon="11.329491619926381"><ele>569.0</ele><time>2026-05-01T09:32:58.999Z</time></trkpt><trkpt lat="44.303290095897225" lon="11.329251233037914"><ele>569.0</ele><time>2026-05-01T09:32:59.999Z</time></trkpt><trkpt lat="44.3032386121557" lon="11.329021254972677"><ele>569.0</ele><time>2026-05-01T09:33:00.999Z</time></trkpt><trkpt lat="44.30315465079647" lon="11.32880449410051"><ele>569.0</ele><time>2026-05-01T09:33:01.999Z</time></trkpt><trkpt lat="44.30306828652779" lon="11.328601734730027"><ele>572.25</ele><time>2026-05-01T09:33:02.999Z</time></trkpt><trkpt lat="44.30299144485812" lon="11.328425957179569"><ele>575.5</ele><time>2026-05-01T09:33:03.999Z</time></trkpt><trkpt lat="44.302906200876" lon="11.328274830360268"><ele>578.75</ele><time>2026-05-01T09:33:04.999Z</time></trkpt><trkpt lat="44.302806964272584" lon="11.32816317395617"><ele>582.0</ele><time>2026-05-01T09:33:05.999Z</time></trkpt><trkpt lat="44.30269382276531" lon="11.328097920349204"><ele>582.0</ele><time>2026-05-01T09:33:06.999Z</time></trkpt><trkpt lat="44.302575248866255" lon="11.328114047224904"><ele>582.0</ele><time>2026-05-01T09:33:07.999Z</time></trkpt><trkpt lat="44.302489591982834" lon="11.328213883316481"><ele>582.0</ele><time>2026-05-01T09:33:08.999Z</time></trkpt><trkpt lat="44.30243461833901" lon="11.328374760863237"><ele>582.0</ele><time>2026-05-01T09:33:09.999Z</time></trkpt><trkpt lat="44.30242234420168" lon="11.328565985059264"><ele>582.0</ele><time>2026-05-01T09:33:10.999Z</time></trkpt><trkpt lat="44.30244501879129" lon="11.328769720936188"><ele>582.0</ele><time>2026-05-01T09:33:11.999Z</time></trkpt><trkpt lat="44.302497633559625" lon="11.328985452390299"><ele>582.0</ele><time>2026-05-01T09:33:12.999Z</time></trkpt><trkpt lat="44.302495973602184" lon="11.32920398010236"><ele>580.6666666666666</ele><time>2026-05-01T09:33:13.999Z</time></trkpt><trkpt lat="44.302454898895505" lon="11.329404434368678"><ele>579.3333333333333</ele><time>2026-05-01T09:33:14.999Z</time></trkpt><trkpt lat="44.30240133151804" lon="11.329613321340789"><ele>578.0</ele><time>2026-05-01T09:33:15.999Z</time></trkpt><trkpt lat="44.30232158129795" lon="11.32980007078168"><ele>585.5</ele><time>2026-05-01T09:33:16.999Z</time></trkpt><trkpt lat="44.302233971664016" lon="11.329982889829171"><ele>593.0</ele><time>2026-05-01T09:33:17.999Z</time></trkpt><trkpt lat="44.30212141592267" lon="11.330123301919745"><ele>600.5</ele><time>2026-05-01T09:33:18.999Z</time></trkpt><trkpt lat="44.30201750420441" lon="11.33025278308799"><ele>608.0</ele><time>2026-05-01T09:33:19.999Z</time></trkpt><trkpt lat="44.30193053272776" lon="11.330403096993646"><ele>603.4</ele><time>2026-05-01T09:33:20.999Z</time></trkpt><trkpt lat="44.30187240443836" lon="11.330572689852845"><ele>598.8</ele><time>2026-05-01T09:33:21.999Z</time></trkpt><trkpt lat="44.30183683252109" lon="11.330716222662737"><ele>594.2</ele><time>2026-05-01T09:33:22.999Z</time></trkpt><trkpt lat="44.301809948817656" lon="11.330828507613058"><ele>589.6</ele><time>2026-05-01T09:33:23.999Z</time></trkpt><trkpt lat="44.30178446728254" lon="11.330949325452655"><ele>585.0</ele><time>2026-05-01T09:33:24.999Z</time></trkpt><trkpt lat="44.30175879053567" lon="11.331098594637742"><ele>585.0</ele><time>2026-05-01T09:33:25.999Z</time></trkpt><trkpt lat="44.30174354146476" lon="11.33127532628854"><ele>585.0</ele><time>2026-05-01T09:33:26.999Z</time></trkpt><trkpt lat="44.30170223072245" lon="11.331456177678012"><ele>585.0</ele><time>2026-05-01T09:33:27.999Z</time></trkpt><trkpt lat="44.301653690719526" lon="11.331618682045365"><ele>585.0</ele><time>2026-05-01T09:33:28.999Z</time></trkpt><trkpt lat="44.30155558074198" lon="11.331691873129204"><ele>581.25</ele><time>2026-05-01T09:33:29.999Z</time></trkpt><trkpt lat="44.30142901715012" lon="11.331720701907313"><ele>577.5</ele><time>2026-05-01T09:33:30.999Z</time></trkpt><trkpt lat="44.30129398067631" lon="11.331721310685172"><ele>573.75</ele><time>2026-05-01T09:33:31.999Z</time></trkpt><trkpt lat="44.30117445374051" lon="11.331762427772539"><ele>570.0</ele><time>2026-05-01T09:33:32.999Z</time></trkpt><trkpt lat="44.30111258203304" lon="11.331912288365567"><ele>574.0</ele><time>2026-05-01T09:33:33.999Z</time></trkpt><trkpt lat="44.301106638329884" lon="11.332110103659478"><ele>578.0</ele><time>2026-05-01T09:33:34.999Z</time></trkpt><trkpt lat="44.30112295400473" lon="11.332328984433179"><ele>582.0</ele><time>2026-05-01T09:33:35.999Z</time></trkpt><trkpt lat="44.30106808711661" lon="11.332514906196852"><ele>586.0</ele><time>2026-05-01T09:33:36.999Z</time></trkpt><trkpt lat="44.301011090823536" lon="11.332711359218397"><ele>586.0</ele><time>2026-05-01T09:33:37.999Z</time></trkpt><trkpt lat="44.30100600373831" lon="11.332877427235324"><ele>586.0</ele><time>2026-05-01T09:33:38.999Z</time></trkpt><trkpt lat="44.30107128310607" lon="11.33302644121074"><ele>586.0</ele><time>2026-05-01T09:33:39.999Z</time></trkpt><trkpt lat="44.301177421077824" lon="11.333178417157942"><ele>586.0</ele><time>2026-05-01T09:33:40.999Z</time></trkpt><trkpt lat="44.30129644468042" lon="11.333345888105264"><ele>586.6666666666667</ele><time>2026-05-01T09:33:41.999Z</time></trkpt><trkpt lat="44.30139963482835" lon="11.333529646305275"><ele>587.3333333333334</ele><time>2026-05-01T09:33:42.999Z</time></trkpt><trkpt lat="44.3015420025344" lon="11.333660761900598"><ele>588.0</ele><time>2026-05-01T09:33:43.999Z</time></trkpt><trkpt lat="44.30165540579967" lon="11.333801170788293"><ele>585.5</ele><time>2026-05-01T09:33:44.999Z</time></trkpt><trkpt lat="44.301745688740354" lon="11.333924073562807"><ele>583.0</ele><time>2026-05-01T09:33:45.999Z</time></trkpt><trkpt lat="44.30179530101753" lon="11.334085006191357"><ele>580.5</ele><time>2026-05-01T09:33:46.999Z</time></trkpt><trkpt lat="44.301807502078425" lon="11.334280672936169"><ele>578.0</ele><time>2026-05-01T09:33:47.999Z</time></trkpt><trkpt lat="44.301805571681044" lon="11.334494319350235"><ele>578.0</ele><time>2026-05-01T09:33:48.999Z</time></trkpt><trkpt lat="44.301774841091444" lon="11.334715454240486"><ele>578.0</ele><time>2026-05-01T09:33:49.999Z</time></trkpt><trkpt lat="44.30172144400959" lon="11.334921639663023"><ele>578.0</ele><time>2026-05-01T09:33:50.999Z</time></trkpt><trkpt lat="44.301656448669675" lon="11.33509483896838"><ele>578.0</ele><time>2026-05-01T09:33:51.999Z</time></trkpt><trkpt lat="44.30157720861501" lon="11.335210594631487"><ele>578.0</ele><time>2026-05-01T09:33:52.998Z</time></trkpt><trkpt lat="44.30148923345095" lon="11.335314866342632"><ele>578.0</ele><time>2026-05-01T09:33:53.998Z</time></trkpt><trkpt lat="44.3013545955112" lon="11.335337689223959"><ele>578.0</ele><time>2026-05-01T09:33:54.998Z</time></trkpt><trkpt lat="44.301195357066234" lon="11.335345463631088"><ele>576.3333333333333</ele><time>2026-05-01T09:33:55.998Z</time></trkpt><trkpt lat="44.30103363608504" lon="11.335400642254628"><ele>574.6666666666666</ele><time>2026-05-01T09:33:56.998Z</time></trkpt><trkpt lat="44.30088052492356" lon="11.335515839114136"><ele>573.0</ele><time>2026-05-01T09:33:57.998Z</time></trkpt><trkpt lat="44.300719434325885" lon="11.335656722567293"><ele>578.6666666666666</ele><time>2026-05-01T09:33:58.998Z</time></trkpt><trkpt lat="44.30053714603305" lon="11.33578930301557"><ele>584.3333333333333</ele><time>2026-05-01T09:33:59.998Z</time></trkpt><trkpt lat="44.30035037971276" lon="11.335899238187599"><ele>590.0</ele><time>2026-05-01T09:34:00.998Z</time></trkpt><trkpt lat="44.30017445819789" lon="11.33604845414155"><ele>590.0</ele><time>2026-05-01T09:34:01.998Z</time></trkpt><trkpt lat="44.30001199382679" lon="11.33619936256902"><ele>590.0</ele><time>2026-05-01T09:34:02.998Z</time></trkpt><trkpt lat="44.29985527817245" lon="11.336343927086306"><ele>590.0</ele><time>2026-05-01T09:34:03.998Z</time></trkpt><trkpt lat="44.29970445561391" lon="11.33648056512067"><ele>585.3333333333333</ele><time>2026-05-01T09:34:04.998Z</time></trkpt><trkpt lat="44.29955830728101" lon="11.336579486330846"><ele>580.6666666666666</ele><time>2026-05-01T09:34:05.998Z</time></trkpt><trkpt lat="44.299423025991736" lon="11.336643279664013"><ele>576.0</ele><time>2026-05-01T09:34:06.998Z</time></trkpt><trkpt lat="44.29927659853034" lon="11.336651597713585"><ele>576.0</ele><time>2026-05-01T09:34:07.998Z</time></trkpt><trkpt lat="44.29912613703593" lon="11.336617583128124"><ele>576.0</ele><time>2026-05-01T09:34:08.998Z</time></trkpt><trkpt lat="44.29900288297639" lon="11.336514669433418"><ele>576.0</ele><time>2026-05-01T09:34:09.998Z</time></trkpt><trkpt lat="44.29889356898433" lon="11.336400304600936"><ele>576.0</ele><time>2026-05-01T09:34:10.998Z</time></trkpt><trkpt lat="44.2988070879974" lon="11.336274558415683"><ele>578.75</ele><time>2026-05-01T09:34:11.998Z</time></trkpt><trkpt lat="44.29869770091962" lon="11.336246830684582"><ele>581.5</ele><time>2026-05-01T09:34:12.999Z</time></trkpt><trkpt lat="44.29857686783315" lon="11.336314431481538"><ele>584.25</ele><time>2026-05-01T09:34:13.999Z</time></trkpt><trkpt lat="44.298476308449686" lon="11.336461878346531"><ele>587.0</ele><time>2026-05-01T09:34:14.999Z</time></trkpt><trkpt lat="44.298389439572325" lon="11.336667197136999"><ele>587.0</ele><time>2026-05-01T09:34:15.999Z</time></trkpt><trkpt lat="44.298300286523045" lon="11.336895279968152"><ele>587.0</ele><time>2026-05-01T09:34:16.999Z</time></trkpt><trkpt lat="44.29818703923008" lon="11.337119818210342"><ele>587.0</ele><time>2026-05-01T09:34:17.999Z</time></trkpt><trkpt lat="44.29802759766553" lon="11.33728947363414"><ele>584.3333333333333</ele><time>2026-05-01T09:34:18.999Z</time></trkpt><trkpt lat="44.297873487861516" lon="11.337463976410088"><ele>581.6666666666666</ele><time>2026-05-01T09:34:19.999Z</time></trkpt><trkpt lat="44.297743937942016" lon="11.33764022605294"><ele>579.0</ele><time>2026-05-01T09:34:20.999Z</time></trkpt><trkpt lat="44.297629848473505" lon="11.337780311972116"><ele>579.0</ele><time>2026-05-01T09:34:21.999Z</time></trkpt><trkpt lat="44.29754159525773" lon="11.337908625772133"><ele>579.0</ele><time>2026-05-01T09:34:22.999Z</time></trkpt><trkpt lat="44.29746045120264" lon="11.338003095518912"><ele>579.0</ele><time>2026-05-01T09:34:23.999Z</time></trkpt><trkpt lat="44.2973638333708" lon="11.338027537214069"><ele>579.0</ele><time>2026-05-01T09:34:24.999Z</time></trkpt><trkpt lat="44.297276577455335" lon="11.337952134104395"><ele>579.0</ele><time>2026-05-01T09:34:25.999Z</time></trkpt><trkpt lat="44.2972272239963" lon="11.337800322317202"><ele>579.0</ele><time>2026-05-01T09:34:26.999Z</time></trkpt><trkpt lat="44.29722371896262" lon="11.337618997465492"><ele>579.0</ele><time>2026-05-01T09:34:27.999Z</time></trkpt><trkpt lat="44.29720202384782" lon="11.337438022040118"><ele>579.0</ele><time>2026-05-01T09:34:28.999Z</time></trkpt><trkpt lat="44.297114639404484" lon="11.33729206669293"><ele>579.0</ele><time>2026-05-01T09:34:29.999Z</time></trkpt><trkpt lat="44.296989048785115" lon="11.337231185824885"><ele>579.0</ele><time>2026-05-01T09:34:30.999Z</time></trkpt><trkpt lat="44.29684957340179" lon="11.337243779813747"><ele>579.0</ele><time>2026-05-01T09:34:31.999Z</time></trkpt><trkpt lat="44.29671192176249" lon="11.3373487401773"><ele>579.0</ele><time>2026-05-01T09:34:32.999Z</time></trkpt><trkpt lat="44.29658045725333" lon="11.337492335036226"><ele>579.0</ele><time>2026-05-01T09:34:33.999Z</time></trkpt><trkpt lat="44.29645490516593" lon="11.337601571234542"><ele>579.0</ele><time>2026-05-01T09:34:34.999Z</time></trkpt><trkpt lat="44.29632671783643" lon="11.337732642874107"><ele>579.0</ele><time>2026-05-01T09:34:35.999Z</time></trkpt><trkpt lat="44.29620409009914" lon="11.337875893724883"><ele>578.3333333333334</ele><time>2026-05-01T09:34:36.999Z</time></trkpt><trkpt lat="44.2960672947521" lon="11.338021861460486"><ele>577.6666666666667</ele><time>2026-05-01T09:34:37.999Z</time></trkpt><trkpt lat="44.295954763115326" lon="11.338181097742336"><ele>577.0</ele><time>2026-05-01T09:34:38.999Z</time></trkpt><trkpt lat="44.295849839037054" lon="11.338346035369069"><ele>577.0</ele><time>2026-05-01T09:34:39.999Z</time></trkpt><trkpt lat="44.2957215023922" lon="11.338468409034085"><ele>577.0</ele><time>2026-05-01T09:34:40.999Z</time></trkpt><trkpt lat="44.2955945198609" lon="11.338580120418225"><ele>577.0</ele><time>2026-05-01T09:34:41.999Z</time></trkpt><trkpt lat="44.2954680678596" lon="11.338685187591919"><ele>575.5</ele><time>2026-05-01T09:34:42.999Z</time></trkpt><trkpt lat="44.29533858203328" lon="11.33878602757611"><ele>574.0</ele><time>2026-05-01T09:34:43.999Z</time></trkpt><trkpt lat="44.29520922556721" lon="11.338871142328573"><ele>572.5</ele><time>2026-05-01T09:34:44.999Z</time></trkpt><trkpt lat="44.29507742037545" lon="11.338930161359793"><ele>571.0</ele><time>2026-05-01T09:34:45.999Z</time></trkpt><trkpt lat="44.29493684131848" lon="11.338979647856384"><ele>571.0</ele><time>2026-05-01T09:34:46.999Z</time></trkpt><trkpt lat="44.29479712249832" lon="11.339042070465654"><ele>571.0</ele><time>2026-05-01T09:34:47.999Z</time></trkpt><trkpt lat="44.29468603907467" lon="11.339180250716831"><ele>571.0</ele><time>2026-05-01T09:34:48.999Z</time></trkpt><trkpt lat="44.294602394939446" lon="11.33932586025778"><ele>571.0</ele><time>2026-05-01T09:34:49.999Z</time></trkpt><trkpt lat="44.29452274447051" lon="11.339444438229696"><ele>572.0</ele><time>2026-05-01T09:34:50.999Z</time></trkpt><trkpt lat="44.29442815579386" lon="11.339497060871006"><ele>573.0</ele><time>2026-05-01T09:34:51.999Z</time></trkpt><trkpt lat="44.29432425889057" lon="11.339468955807702"><ele>574.0</ele><time>2026-05-01T09:34:52.999Z</time></trkpt><trkpt lat="44.29423291283236" lon="11.339366171284022"><ele>575.0</ele><time>2026-05-01T09:34:53.999Z</time></trkpt><trkpt lat="44.294171844774155" lon="11.339204195660924"><ele>575.0</ele><time>2026-05-01T09:34:55Z</time></trkpt><trkpt lat="44.29408561250289" lon="11.339038516768769"><ele>575.0</ele><time>2026-05-01T09:34:56Z</time></trkpt><trkpt lat="44.29393929856067" lon="11.338934458369899"><ele>575.0</ele><time>2026-05-01T09:34:57Z</time></trkpt><trkpt lat="44.29377647736442" lon="11.33883187638275"><ele>575.5</ele><time>2026-05-01T09:34:58Z</time></trkpt><trkpt lat="44.29367892904203" lon="11.33868229156632"><ele>576.0</ele><time>2026-05-01T09:34:59Z</time></trkpt><trkpt lat="44.293607382863286" lon="11.338479287517407"><ele>576.5</ele><time>2026-05-01T09:35:00Z</time></trkpt><trkpt lat="44.29353516604755" lon="11.338318698987695"><ele>577.0</ele><time>2026-05-01T09:35:01Z</time></trkpt><trkpt lat="44.29342614446725" lon="11.338218162133328"><ele>577.0</ele><time>2026-05-01T09:35:02Z</time></trkpt><trkpt lat="44.29327851030205" lon="11.338181998081133"><ele>577.0</ele><time>2026-05-01T09:35:03Z</time></trkpt><trkpt lat="44.29311617085509" lon="11.338195574047736"><ele>577.0</ele><time>2026-05-01T09:35:04Z</time></trkpt><trkpt lat="44.292949280107045" lon="11.338239226061791"><ele>576.3333333333334</ele><time>2026-05-01T09:35:05Z</time></trkpt><trkpt lat="44.29278478704875" lon="11.338295160576937"><ele>575.6666666666666</ele><time>2026-05-01T09:35:06Z</time></trkpt><trkpt lat="44.292621494140235" lon="11.338350709296547"><ele>575.0</ele><time>2026-05-01T09:35:07Z</time></trkpt><trkpt lat="44.29246215220647" lon="11.33835759606678"><ele>575.0</ele><time>2026-05-01T09:35:08Z</time></trkpt><trkpt lat="44.292310234379855" lon="11.338308133147338"><ele>575.0</ele><time>2026-05-01T09:35:09Z</time></trkpt><trkpt lat="44.29216562543605" lon="11.338241847463141"><ele>575.0</ele><time>2026-05-01T09:35:10Z</time></trkpt><trkpt lat="44.29201717404551" lon="11.338211488737215"><ele>576.6666666666666</ele><time>2026-05-01T09:35:11Z</time></trkpt><trkpt lat="44.29186135274252" lon="11.338251006484668"><ele>578.3333333333334</ele><time>2026-05-01T09:35:12Z</time></trkpt><trkpt lat="44.29171753527802" lon="11.338342165752294"><ele>580.0</ele><time>2026-05-01T09:35:13Z</time></trkpt><trkpt lat="44.29158667472608" lon="11.338428680974701"><ele>580.0</ele><time>2026-05-01T09:35:14Z</time></trkpt><trkpt lat="44.291459005060666" lon="11.338503681460606"><ele>580.0</ele><time>2026-05-01T09:35:15Z</time></trkpt><trkpt lat="44.29133315632664" lon="11.33857674130183"><ele>580.0</ele><time>2026-05-01T09:35:16Z</time></trkpt><trkpt lat="44.291203998706514" lon="11.338623245976454"><ele>580.0</ele><time>2026-05-01T09:35:17Z</time></trkpt><trkpt lat="44.291090078326555" lon="11.338668108779272"><ele>579.5</ele><time>2026-05-01T09:35:18Z</time></trkpt><trkpt lat="44.29097949932598" lon="11.338677905969385"><ele>579.0</ele><time>2026-05-01T09:35:19Z</time></trkpt><trkpt lat="44.290869373414004" lon="11.338656915968915"><ele>578.5</ele><time>2026-05-01T09:35:20Z</time></trkpt><trkpt lat="44.290744577429045" lon="11.338596260110249"><ele>578.0</ele><time>2026-05-01T09:35:21Z</time></trkpt><trkpt lat="44.2906023014444" lon="11.338513399759101"><ele>576.3333333333333</ele><time>2026-05-01T09:35:22Z</time></trkpt><trkpt lat="44.290425813489506" lon="11.33841100305556"><ele>574.6666666666666</ele><time>2026-05-01T09:35:23Z</time></trkpt><trkpt lat="44.29024811602021" lon="11.338328127951204"><ele>573.0</ele><time>2026-05-01T09:35:24Z</time></trkpt><trkpt lat="44.29008307737369" lon="11.338205186997309"><ele>573.0</ele><time>2026-05-01T09:35:25Z</time></trkpt><trkpt lat="44.289922807531376" lon="11.338129881147593"><ele>573.0</ele><time>2026-05-01T09:35:26Z</time></trkpt><trkpt lat="44.28976607047603" lon="11.338124068212785"><ele>573.0</ele><time>2026-05-01T09:35:27Z</time></trkpt><trkpt lat="44.28961990387276" lon="11.338200357122103"><ele>574.3333333333334</ele><time>2026-05-01T09:35:28Z</time></trkpt><trkpt lat="44.289484272029824" lon="11.338344157944821"><ele>575.6666666666667</ele><time>2026-05-01T09:35:29Z</time></trkpt><trkpt lat="44.28937076211874" lon="11.338535358043734"><ele>577.0</ele><time>2026-05-01T09:35:30Z</time></trkpt><trkpt lat="44.28925105540709" lon="11.338717256687154"><ele>576.6666666666667</ele><time>2026-05-01T09:35:31Z</time></trkpt><trkpt lat="44.28916210607805" lon="11.338934848324747"><ele>576.3333333333334</ele><time>2026-05-01T09:35:32Z</time></trkpt><trkpt lat="44.28906842595507" lon="11.339139518377118"><ele>576.0</ele><time>2026-05-01T09:35:33Z</time></trkpt><trkpt lat="44.28900708441988" lon="11.339366064801002"><ele>576.0</ele><time>2026-05-01T09:35:34Z</time></trkpt><trkpt lat="44.288988680231014" lon="11.339616490891471"><ele>576.0</ele><time>2026-05-01T09:35:35Z</time></trkpt><trkpt lat="44.28898766540857" lon="11.339882411226524"><ele>576.0</ele><time>2026-05-01T09:35:36Z</time></trkpt><trkpt lat="44.28897591981922" lon="11.340142726570571"><ele>583.3333333333334</ele><time>2026-05-01T09:35:37Z</time></trkpt><trkpt lat="44.28889785381294" lon="11.340361565453064"><ele>590.6666666666667</ele><time>2026-05-01T09:35:38Z</time></trkpt><trkpt lat="44.28879068840087" lon="11.340578727207332"><ele>598.0</ele><time>2026-05-01T09:35:39Z</time></trkpt><trkpt lat="44.288665974574464" lon="11.340812589804347"><ele>598.0</ele><time>2026-05-01T09:35:40Z</time></trkpt><trkpt lat="44.28854630514606" lon="11.341037128278506"><ele>598.0</ele><time>2026-05-01T09:35:41Z</time></trkpt><trkpt lat="44.28842981602966" lon="11.341254634615657"><ele>598.0</ele><time>2026-05-01T09:35:42Z</time></trkpt><trkpt lat="44.288263793695236" lon="11.341569123788354"><ele>596.6666666666667</ele><time>2026-05-01T09:35:43Z</time></trkpt><trkpt lat="44.28809408085112" lon="11.341801835370012"><ele>595.3333333333334</ele><time>2026-05-01T09:35:44Z</time></trkpt><trkpt lat="44.28794161433288" lon="11.341996907873737"><ele>594.0</ele><time>2026-05-01T09:35:45Z</time></trkpt><trkpt lat="44.28780914141964" lon="11.34216438487769"><ele>586.3333333333334</ele><time>2026-05-01T09:35:46Z</time></trkpt><trkpt lat="44.287675359301765" lon="11.34230594122855"><ele>578.6666666666667</ele><time>2026-05-01T09:35:47Z</time></trkpt><trkpt lat="44.2875286146002" lon="11.342391495224152"><ele>571.0</ele><time>2026-05-01T09:35:48Z</time></trkpt><trkpt lat="44.28737989160321" lon="11.342394301704235"><ele>569.0</ele><time>2026-05-01T09:35:49Z</time></trkpt><trkpt lat="44.28723812112188" lon="11.34231913533691"><ele>567.0</ele><time>2026-05-01T09:35:50Z</time></trkpt><trkpt lat="44.287102291447425" lon="11.342198267360102"><ele>565.0</ele><time>2026-05-01T09:35:51Z</time></trkpt><trkpt lat="44.28698017397057" lon="11.342066066959045"><ele>572.0</ele><time>2026-05-01T09:35:52Z</time></trkpt><trkpt lat="44.28683182621028" lon="11.342026936688367"><ele>579.0</ele><time>2026-05-01T09:35:52.999Z</time></trkpt><trkpt lat="44.28665796838093" lon="11.3420822425793"><ele>586.0</ele><time>2026-05-01T09:35:53.999Z</time></trkpt><trkpt lat="44.286458624317355" lon="11.342162024122512"><ele>578.0</ele><time>2026-05-01T09:35:54.999Z</time></trkpt><trkpt lat="44.286241050459715" lon="11.342243035243964"><ele>570.0</ele><time>2026-05-01T09:35:55.999Z</time></trkpt><trkpt lat="44.286017564009036" lon="11.34231034570027"><ele>570.0</ele><time>2026-05-01T09:35:56.999Z</time></trkpt><trkpt lat="44.28579101429921" lon="11.342333072954366"><ele>570.0</ele><time>2026-05-01T09:35:57.999Z</time></trkpt><trkpt lat="44.285618867828774" lon="11.34236029089048"><ele>570.0</ele><time>2026-05-01T09:35:58.999Z</time></trkpt><trkpt lat="44.285472859863134" lon="11.342362946494715"><ele>568.75</ele><time>2026-05-01T09:35:59.999Z</time></trkpt><trkpt lat="44.285350080372474" lon="11.34231903525438"><ele>567.5</ele><time>2026-05-01T09:36:00.999Z</time></trkpt><trkpt lat="44.28524750038526" lon="11.342239845804674"><ele>566.25</ele><time>2026-05-01T09:36:01.999Z</time></trkpt><trkpt lat="44.28519867687382" lon="11.342100104963153"><ele>565.0</ele><time>2026-05-01T09:36:02.999Z</time></trkpt><trkpt lat="44.28517771796831" lon="11.34193695098197"><ele>565.0</ele><time>2026-05-01T09:36:03.999Z</time></trkpt><trkpt lat="44.28515485129664" lon="11.341713621542855"><ele>565.0</ele><time>2026-05-01T09:36:04.999Z</time></trkpt><trkpt lat="44.28513792769394" lon="11.341469224155691"><ele>565.0</ele><time>2026-05-01T09:36:05.999Z</time></trkpt><trkpt lat="44.28514378283747" lon="11.341230129932526"><ele>566.6666666666667</ele><time>2026-05-01T09:36:06.999Z</time></trkpt><trkpt lat="44.285185378762485" lon="11.34100044164094"><ele>568.3333333333334</ele><time>2026-05-01T09:36:07.999Z</time></trkpt><trkpt lat="44.28522695554501" lon="11.340754405500338"><ele>570.0</ele><time>2026-05-01T09:36:08.999Z</time></trkpt><trkpt lat="44.2852391438973" lon="11.340486303306166"><ele>572.3333333333334</ele><time>2026-05-01T09:36:09.999Z</time></trkpt><trkpt lat="44.285206346375965" lon="11.340218906040954"><ele>574.6666666666667</ele><time>2026-05-01T09:36:10.999Z</time></trkpt><trkpt lat="44.2851128098653" lon="11.339963255689502"><ele>577.0</ele><time>2026-05-01T09:36:11.999Z</time></trkpt><trkpt lat="44.28500561521842" lon="11.339693455860962"><ele>581.0</ele><time>2026-05-01T09:36:12.999Z</time></trkpt><trkpt lat="44.284921799481964" lon="11.339445061004582"><ele>585.0</ele><time>2026-05-01T09:36:13.999Z</time></trkpt><trkpt lat="44.28485961831262" lon="11.339234167470817"><ele>589.0</ele><time>2026-05-01T09:36:14.999Z</time></trkpt><trkpt lat="44.28479043786923" lon="11.339055198355366"><ele>585.0</ele><time>2026-05-01T09:36:15.999Z</time></trkpt><trkpt lat="44.28467832710544" lon="11.338922468173951"><ele>581.0</ele><time>2026-05-01T09:36:16.999Z</time></trkpt><trkpt lat="44.284496160196056" lon="11.338844009090861"><ele>577.0</ele><time>2026-05-01T09:36:17.999Z</time></trkpt><trkpt lat="44.28429150336115" lon="11.338819158985164"><ele>577.0</ele><time>2026-05-01T09:36:19Z</time></trkpt><trkpt lat="44.284169372752956" lon="11.338733957080185"><ele>577.0</ele><time>2026-05-01T09:36:20Z</time></trkpt><trkpt lat="44.284093374158964" lon="11.338588407274786"><ele>577.0</ele><time>2026-05-01T09:36:21Z</time></trkpt><trkpt lat="44.284058298654465" lon="11.338391098722488"><ele>577.0</ele><time>2026-05-01T09:36:22Z</time></trkpt><trkpt lat="44.28408097754676" lon="11.33819854499451"><ele>577.0</ele><time>2026-05-01T09:36:23Z</time></trkpt><trkpt lat="44.28416863630829" lon="11.33807857285675"><ele>577.0</ele><time>2026-05-01T09:36:24Z</time></trkpt><trkpt lat="44.284293260036925" lon="11.337944435399677"><ele>577.0</ele><time>2026-05-01T09:36:25Z</time></trkpt><trkpt lat="44.28441058412254" lon="11.33776980027528"><ele>576.6666666666667</ele><time>2026-05-01T09:36:26Z</time></trkpt><trkpt lat="44.28452520651265" lon="11.33761533817085"><ele>576.3333333333334</ele><time>2026-05-01T09:36:27Z</time></trkpt><trkpt lat="44.28455258226913" lon="11.337376933786995"><ele>576.0</ele><time>2026-05-01T09:36:28Z</time></trkpt><trkpt lat="44.284515134459255" lon="11.337112008028955"><ele>576.0</ele><time>2026-05-01T09:36:29Z</time></trkpt><trkpt lat="44.28441878402849" lon="11.3368665117833"><ele>576.0</ele><time>2026-05-01T09:36:30Z</time></trkpt><trkpt lat="44.28423957073141" lon="11.336640689266703"><ele>576.0</ele><time>2026-05-01T09:36:31Z</time></trkpt><trkpt lat="44.284148209400804" lon="11.336411924808722"><ele>578.3333333333334</ele><time>2026-05-01T09:36:32Z</time></trkpt><trkpt lat="44.284096123406954" lon="11.336146979985545"><ele>580.6666666666667</ele><time>2026-05-01T09:36:33Z</time></trkpt><trkpt lat="44.28404231188904" lon="11.335862473597121"><ele>583.0</ele><time>2026-05-01T09:36:34Z</time></trkpt><trkpt lat="44.28399472113073" lon="11.335559508610533"><ele>583.0</ele><time>2026-05-01T09:36:35Z</time></trkpt><trkpt lat="44.28397376895308" lon="11.335251344301481"><ele>583.0</ele><time>2026-05-01T09:36:36Z</time></trkpt><trkpt lat="44.28395763791229" lon="11.334937539876703"><ele>583.0</ele><time>2026-05-01T09:36:37Z</time></trkpt><trkpt lat="44.283968902068295" lon="11.334656730721136"><ele>583.0</ele><time>2026-05-01T09:36:38Z</time></trkpt><trkpt lat="44.284012688668824" lon="11.334404558064428"><ele>583.0</ele><time>2026-05-01T09:36:39Z</time></trkpt><trkpt lat="44.284055224176385" lon="11.334204880177186"><ele>583.0</ele><time>2026-05-01T09:36:40Z</time></trkpt><trkpt lat="44.28404619202771" lon="11.334025404263425"><ele>583.3333333333334</ele><time>2026-05-01T09:36:41Z</time></trkpt><trkpt lat="44.28396140735887" lon="11.33388003432229"><ele>583.6666666666666</ele><time>2026-05-01T09:36:42Z</time></trkpt><trkpt lat="44.28382417530696" lon="11.333782208795984"><ele>584.0</ele><time>2026-05-01T09:36:43Z</time></trkpt><trkpt lat="44.28366176773833" lon="11.33370826328809"><ele>580.75</ele><time>2026-05-01T09:36:44Z</time></trkpt><trkpt lat="44.28356184872116" lon="11.333581672797933"><ele>577.5</ele><time>2026-05-01T09:36:45Z</time></trkpt><trkpt lat="44.283512430131815" lon="11.333428624625986"><ele>574.25</ele><time>2026-05-01T09:36:46Z</time></trkpt><trkpt lat="44.28353538321771" lon="11.333268030169679"><ele>571.0</ele><time>2026-05-01T09:36:47Z</time></trkpt><trkpt lat="44.283590452914616" lon="11.333110621322986"><ele>571.25</ele><time>2026-05-01T09:36:48Z</time></trkpt><trkpt lat="44.283675001386754" lon="11.332952915860428"><ele>571.5</ele><time>2026-05-01T09:36:49Z</time></trkpt><trkpt lat="44.28379047435682" lon="11.332838779941675"><ele>571.75</ele><time>2026-05-01T09:36:50Z</time></trkpt><trkpt lat="44.28389221097284" lon="11.332743513519402"><ele>572.0</ele><time>2026-05-01T09:36:51Z</time></trkpt><trkpt lat="44.28400241346833" lon="11.332702467716246"><ele>573.0</ele><time>2026-05-01T09:36:52Z</time></trkpt><trkpt lat="44.28412158186105" lon="11.332726749300447"><ele>574.0</ele><time>2026-05-01T09:36:53Z</time></trkpt><trkpt lat="44.284248213151386" lon="11.332731631085284"><ele>575.0</ele><time>2026-05-01T09:36:54Z</time></trkpt><trkpt lat="44.28437213253941" lon="11.332769917781425"><ele>576.0</ele><time>2026-05-01T09:36:55Z</time></trkpt><trkpt lat="44.28449370452491" lon="11.332803142074582"><ele>576.0</ele><time>2026-05-01T09:36:56Z</time></trkpt><trkpt lat="44.28461771075819" lon="11.332813231663014"><ele>576.0</ele><time>2026-05-01T09:36:57Z</time></trkpt><trkpt lat="44.28474319870366" lon="11.332789680183174"><ele>576.0</ele><time>2026-05-01T09:36:58Z</time></trkpt><trkpt lat="44.2848587774017" lon="11.332713195775911"><ele>576.0</ele><time>2026-05-01T09:36:59Z</time></trkpt><trkpt lat="44.28495185286014" lon="11.3325775416849"><ele>576.25</ele><time>2026-05-01T09:37:00Z</time></trkpt><trkpt lat="44.28500105196211" lon="11.332404062752927"><ele>576.5</ele><time>2026-05-01T09:37:01Z</time></trkpt><trkpt lat="44.28501779510003" lon="11.332217410610959"><ele>576.75</ele><time>2026-05-01T09:37:02Z</time></trkpt><trkpt lat="44.28501780191538" lon="11.332033412395761"><ele>577.0</ele><time>2026-05-01T09:37:03Z</time></trkpt><trkpt lat="44.28499780029221" lon="11.331848230293579"><ele>577.0</ele><time>2026-05-01T09:37:04Z</time></trkpt><trkpt lat="44.28496815851652" lon="11.331667221459668"><ele>577.0</ele><time>2026-05-01T09:37:05Z</time></trkpt><trkpt lat="44.28494688011604" lon="11.331484404639944"><ele>577.0</ele><time>2026-05-01T09:37:06Z</time></trkpt><trkpt lat="44.284932194291834" lon="11.331302683105257"><ele>577.0</ele><time>2026-05-01T09:37:07Z</time></trkpt><trkpt lat="44.28491810954906" lon="11.331108900951127"><ele>577.25</ele><time>2026-05-01T09:37:08Z</time></trkpt><trkpt lat="44.28490678775345" lon="11.330913309488498"><ele>577.5</ele><time>2026-05-01T09:37:09Z</time></trkpt><trkpt lat="44.284902211732515" lon="11.33071561374889"><ele>577.75</ele><time>2026-05-01T09:37:10Z</time></trkpt><trkpt lat="44.284906585450415" lon="11.330516614915494"><ele>578.0</ele><time>2026-05-01T09:37:11Z</time></trkpt><trkpt lat="44.28491794809865" lon="11.330325496518297"><ele>578.0</ele><time>2026-05-01T09:37:12Z</time></trkpt><trkpt lat="44.28493001238906" lon="11.330141599088714"><ele>578.0</ele><time>2026-05-01T09:37:13Z</time></trkpt><trkpt lat="44.284928016259094" lon="11.329954437329649"><ele>578.0</ele><time>2026-05-01T09:37:14Z</time></trkpt><trkpt lat="44.284901966198156" lon="11.32976837792524"><ele>578.0</ele><time>2026-05-01T09:37:15Z</time></trkpt><trkpt lat="44.284849148415645" lon="11.329603597033527"><ele>577.75</ele><time>2026-05-01T09:37:16Z</time></trkpt><trkpt lat="44.28476926826424" lon="11.329449543593258"><ele>577.5</ele><time>2026-05-01T09:37:17Z</time></trkpt><trkpt lat="44.28467457439277" lon="11.32930905409471"><ele>577.25</ele><time>2026-05-01T09:37:18Z</time></trkpt><trkpt lat="44.28458031104836" lon="11.329174406893348"><ele>577.0</ele><time>2026-05-01T09:37:19Z</time></trkpt><trkpt lat="44.284489702316776" lon="11.329031350916493"><ele>578.5</ele><time>2026-05-01T09:37:20Z</time></trkpt><trkpt lat="44.28440633021205" lon="11.328890299440843"><ele>580.0</ele><time>2026-05-01T09:37:21Z</time></trkpt><trkpt lat="44.28432091982607" lon="11.328739586810642"><ele>581.5</ele><time>2026-05-01T09:37:22Z</time></trkpt><trkpt lat="44.28423712910541" lon="11.328584786368799"><ele>583.0</ele><time>2026-05-01T09:37:23Z</time></trkpt><trkpt lat="44.28416178837599" lon="11.328429896095459"><ele>583.0</ele><time>2026-05-01T09:37:24Z</time></trkpt><trkpt lat="44.284090805332944" lon="11.328273783088854"><ele>583.0</ele><time>2026-05-01T09:37:25Z</time></trkpt><trkpt lat="44.28402374142637" lon="11.328110439390047"><ele>583.0</ele><time>2026-05-01T09:37:26Z</time></trkpt><trkpt lat="44.283961661945625" lon="11.32794802277191"><ele>583.0</ele><time>2026-05-01T09:37:27Z</time></trkpt><trkpt lat="44.283914267456645" lon="11.327786049891618"><ele>583.0</ele><time>2026-05-01T09:37:28Z</time></trkpt><trkpt lat="44.28389342749065" lon="11.327618493880957"><ele>583.0</ele><time>2026-05-01T09:37:29Z</time></trkpt><trkpt lat="44.2838993156323" lon="11.327447565498307"><ele>583.0</ele><time>2026-05-01T09:37:30Z</time></trkpt><trkpt lat="44.283918983519584" lon="11.327282995024"><ele>583.0</ele><time>2026-05-01T09:37:31Z</time></trkpt><trkpt lat="44.28392794629359" lon="11.327121191131006"><ele>584.5</ele><time>2026-05-01T09:37:32Z</time></trkpt><trkpt lat="44.28390570300536" lon="11.326962433332584"><ele>586.0</ele><time>2026-05-01T09:37:33Z</time></trkpt><trkpt lat="44.28384293644729" lon="11.326825214291242"><ele>587.5</ele><time>2026-05-01T09:37:34Z</time></trkpt><trkpt lat="44.28375111247295" lon="11.326709279251995"><ele>589.0</ele><time>2026-05-01T09:37:35Z</time></trkpt><trkpt lat="44.28364660308868" lon="11.326611116844314"><ele>589.0</ele><time>2026-05-01T09:37:36Z</time></trkpt><trkpt lat="44.28353466121781" lon="11.32652874023069"><ele>589.0</ele><time>2026-05-01T09:37:37Z</time></trkpt><trkpt lat="44.283412164235905" lon="11.326469585260993"><ele>589.0</ele><time>2026-05-01T09:37:38Z</time></trkpt><trkpt lat="44.28328499198716" lon="11.326439861509373"><ele>589.0</ele><time>2026-05-01T09:37:39Z</time></trkpt><trkpt lat="44.28315945845539" lon="11.326417889995062"><ele>592.2</ele><time>2026-05-01T09:37:40Z</time></trkpt><trkpt lat="44.283044871187684" lon="11.3263941270906"><ele>595.4</ele><time>2026-05-01T09:37:41Z</time></trkpt><trkpt lat="44.28294423258383" lon="11.326362412365125"><ele>598.6</ele><time>2026-05-01T09:37:42Z</time></trkpt><trkpt lat="44.282860215046725" lon="11.326314549894672"><ele>601.8</ele><time>2026-05-01T09:37:43Z</time></trkpt><trkpt lat="44.28278583869651" lon="11.326238453398156"><ele>605.0</ele><time>2026-05-01T09:37:44Z</time></trkpt><trkpt lat="44.282718769201786" lon="11.326132385223726"><ele>605.0</ele><time>2026-05-01T09:37:45Z</time></trkpt><trkpt lat="44.28266572089247" lon="11.325992951452156"><ele>605.0</ele><time>2026-05-01T09:37:46Z</time></trkpt><trkpt lat="44.282638877496346" lon="11.325828685410228"><ele>605.0</ele><time>2026-05-01T09:37:47Z</time></trkpt><trkpt lat="44.28264717373482" lon="11.325653868277206"><ele>605.0</ele><time>2026-05-01T09:37:48Z</time></trkpt><trkpt lat="44.28268402778585" lon="11.325480697721602"><ele>609.25</ele><time>2026-05-01T09:37:49Z</time></trkpt><trkpt lat="44.282738340534465" lon="11.325310800760244"><ele>613.5</ele><time>2026-05-01T09:37:50Z</time></trkpt><trkpt lat="44.282800173398606" lon="11.325137483538905"><ele>617.75</ele><time>2026-05-01T09:37:50.999Z</time></trkpt><trkpt lat="44.282871051702735" lon="11.324958566433045"><ele>622.0</ele><time>2026-05-01T09:37:51.999Z</time></trkpt><trkpt lat="44.28295024146969" lon="11.324787739548157"><ele>624.25</ele><time>2026-05-01T09:37:52.999Z</time></trkpt><trkpt lat="44.283036769947515" lon="11.32463173820152"><ele>626.5</ele><time>2026-05-01T09:37:53.999Z</time></trkpt><trkpt lat="44.283119463709774" lon="11.324480270899997"><ele>628.75</ele><time>2026-05-01T09:37:54.999Z</time></trkpt><trkpt lat="44.28318307543942" lon="11.324316642845469"><ele>631.0</ele><time>2026-05-01T09:37:55.999Z</time></trkpt><trkpt lat="44.28321708508734" lon="11.324131496074918"><ele>626.5</ele><time>2026-05-01T09:37:56.999Z</time></trkpt><trkpt lat="44.283224706363384" lon="11.323927810150385"><ele>622.0</ele><time>2026-05-01T09:37:57.999Z</time></trkpt><trkpt lat="44.28321511190859" lon="11.323722706099844"><ele>617.5</ele><time>2026-05-01T09:37:58.999Z</time></trkpt><trkpt lat="44.283209099533984" lon="11.32351888397762"><ele>613.0</ele><time>2026-05-01T09:37:59.999Z</time></trkpt><trkpt lat="44.28323778700041" lon="11.323324127237703"><ele>613.0</ele><time>2026-05-01T09:38:00.999Z</time></trkpt><trkpt lat="44.283311921429885" lon="11.323147857428589"><ele>613.0</ele><time>2026-05-01T09:38:01.999Z</time></trkpt><trkpt lat="44.28343131490566" lon="11.323034580163467"><ele>613.0</ele><time>2026-05-01T09:38:02.999Z</time></trkpt><trkpt lat="44.28355443391321" lon="11.322930339785541"><ele>613.0</ele><time>2026-05-01T09:38:03.999Z</time></trkpt><trkpt lat="44.28368277111154" lon="11.322831196504556"><ele>611.6666666666667</ele><time>2026-05-01T09:38:04.999Z</time></trkpt><trkpt lat="44.28378853034044" lon="11.32269130220229"><ele>610.3333333333334</ele><time>2026-05-01T09:38:05.999Z</time></trkpt><trkpt lat="44.28387325981457" lon="11.322516980809963"><ele>609.0</ele><time>2026-05-01T09:38:06.999Z</time></trkpt><trkpt lat="44.28394897128842" lon="11.322328030832283"><ele>611.75</ele><time>2026-05-01T09:38:07.999Z</time></trkpt><trkpt lat="44.284049389489596" lon="11.322172917178351"><ele>614.5</ele><time>2026-05-01T09:38:08.999Z</time></trkpt><trkpt lat="44.284141822730646" lon="11.322007472936267"><ele>617.25</ele><time>2026-05-01T09:38:09.999Z</time></trkpt><trkpt lat="44.284256300914976" lon="11.321873728389814"><ele>620.0</ele><time>2026-05-01T09:38:10.999Z</time></trkpt><trkpt lat="44.28436237614454" lon="11.321745749629617"><ele>620.0</ele><time>2026-05-01T09:38:11.999Z</time></trkpt><trkpt lat="44.28445236856734" lon="11.321617765579099"><ele>620.0</ele><time>2026-05-01T09:38:12.999Z</time></trkpt><trkpt lat="44.28451768442343" lon="11.321484987205444"><ele>620.0</ele><time>2026-05-01T09:38:13.999Z</time></trkpt><trkpt lat="44.284545759078476" lon="11.321331710291043"><ele>620.0</ele><time>2026-05-01T09:38:14.999Z</time></trkpt><trkpt lat="44.28451307727645" lon="11.321171033157777"><ele>620.0</ele><time>2026-05-01T09:38:15.999Z</time></trkpt><trkpt lat="44.28442774853035" lon="11.321029100784878"><ele>620.0</ele><time>2026-05-01T09:38:16.999Z</time></trkpt><trkpt lat="44.284307996716905" lon="11.32092610307558"><ele>620.0</ele><time>2026-05-01T09:38:17.999Z</time></trkpt><trkpt lat="44.28417227266252" lon="11.320885641923795"><ele>620.0</ele><time>2026-05-01T09:38:18.999Z</time></trkpt><trkpt lat="44.284044904190694" lon="11.320933492138584"><ele>620.0</ele><time>2026-05-01T09:38:19.999Z</time></trkpt><trkpt lat="44.28393375951878" lon="11.321055655527148"><ele>620.0</ele><time>2026-05-01T09:38:20.999Z</time></trkpt><trkpt lat="44.283842673400386" lon="11.321238302671688"><ele>620.0</ele><time>2026-05-01T09:38:21.999Z</time></trkpt><trkpt lat="44.28373954649333" lon="11.321404522488578"><ele>619.6666666666666</ele><time>2026-05-01T09:38:22.999Z</time></trkpt><trkpt lat="44.283617553466215" lon="11.321541237609543"><ele>619.3333333333334</ele><time>2026-05-01T09:38:23.999Z</time></trkpt><trkpt lat="44.28348766347443" lon="11.321660167102584"><ele>619.0</ele><time>2026-05-01T09:38:25Z</time></trkpt><trkpt lat="44.28334014377252" lon="11.321728642543574"><ele>619.0</ele><time>2026-05-01T09:38:26Z</time></trkpt><trkpt lat="44.28319956369861" lon="11.321810013988445"><ele>619.0</ele><time>2026-05-01T09:38:27Z</time></trkpt><trkpt lat="44.283064003519996" lon="11.321904305110097"><ele>619.0</ele><time>2026-05-01T09:38:28Z</time></trkpt><trkpt lat="44.28293033790765" lon="11.3220045724526"><ele>618.6666666666667</ele><time>2026-05-01T09:38:29Z</time></trkpt><trkpt lat="44.282819932078" lon="11.322147154484473"><ele>618.3333333333334</ele><time>2026-05-01T09:38:30Z</time></trkpt><trkpt lat="44.28274468247384" lon="11.322336241463105"><ele>618.0</ele><time>2026-05-01T09:38:31Z</time></trkpt><trkpt lat="44.282702443987695" lon="11.322550420828419"><ele>618.0</ele><time>2026-05-01T09:38:32Z</time></trkpt><trkpt lat="44.28265277522201" lon="11.322762022348302"><ele>618.0</ele><time>2026-05-01T09:38:33Z</time></trkpt><trkpt lat="44.28258808698224" lon="11.322962261226644"><ele>618.0</ele><time>2026-05-01T09:38:34Z</time></trkpt><trkpt lat="44.28250949999095" lon="11.323145766931269"><ele>617.3333333333334</ele><time>2026-05-01T09:38:35Z</time></trkpt><trkpt lat="44.28242799132618" lon="11.323326463666222"><ele>616.6666666666667</ele><time>2026-05-01T09:38:36Z</time></trkpt><trkpt lat="44.28234408360655" lon="11.32350135876878"><ele>616.0</ele><time>2026-05-01T09:38:37Z</time></trkpt><trkpt lat="44.282245542580675" lon="11.323663559121183"><ele>616.0</ele><time>2026-05-01T09:38:38Z</time></trkpt><trkpt lat="44.28211892793435" lon="11.323774658509535"><ele>616.0</ele><time>2026-05-01T09:38:39Z</time></trkpt><trkpt lat="44.28199922309758" lon="11.323899480322787"><ele>616.0</ele><time>2026-05-01T09:38:40Z</time></trkpt><trkpt lat="44.28186709414253" lon="11.323995390864532"><ele>616.0</ele><time>2026-05-01T09:38:41Z</time></trkpt><trkpt lat="44.28176175082764" lon="11.324140398526731"><ele>619.25</ele><time>2026-05-01T09:38:42Z</time></trkpt><trkpt lat="44.28168285069813" lon="11.324317130701413"><ele>622.5</ele><time>2026-05-01T09:38:43Z</time></trkpt><trkpt lat="44.281622315031385" lon="11.324508757635128"><ele>625.75</ele><time>2026-05-01T09:38:44Z</time></trkpt><trkpt lat="44.28156635716425" lon="11.324697268401582"><ele>629.0</ele><time>2026-05-01T09:38:45Z</time></trkpt><trkpt lat="44.281512043177" lon="11.324868874775646"><ele>630.25</ele><time>2026-05-01T09:38:46Z</time></trkpt><trkpt lat="44.28145817945995" lon="11.325029083705294"><ele>631.5</ele><time>2026-05-01T09:38:47Z</time></trkpt><trkpt lat="44.28140130785563" lon="11.325170834565476"><ele>632.75</ele><time>2026-05-01T09:38:48Z</time></trkpt><trkpt lat="44.2813282236014" lon="11.325288121099137"><ele>634.0</ele><time>2026-05-01T09:38:49Z</time></trkpt><trkpt lat="44.281235770841434" lon="11.325350968119142"><ele>634.0</ele><time>2026-05-01T09:38:50Z</time></trkpt><trkpt lat="44.28113116124719" lon="11.325372875636333"><ele>634.0</ele><time>2026-05-01T09:38:51Z</time></trkpt><trkpt lat="44.281019900145466" lon="11.325363830727287"><ele>634.0</ele><time>2026-05-01T09:38:52Z</time></trkpt><trkpt lat="44.280905968585884" lon="11.325336473809147"><ele>634.0</ele><time>2026-05-01T09:38:53Z</time></trkpt><trkpt lat="44.280786046473" lon="11.325297446694641"><ele>634.0</ele><time>2026-05-01T09:38:54Z</time></trkpt><trkpt lat="44.28066061420506" lon="11.325254621487256"><ele>634.0</ele><time>2026-05-01T09:38:55Z</time></trkpt><trkpt lat="44.280529147734484" lon="11.325210597342867"><ele>634.0</ele><time>2026-05-01T09:38:56Z</time></trkpt><trkpt lat="44.2803908574471" lon="11.325165796383494"><ele>634.0</ele><time>2026-05-01T09:38:57Z</time></trkpt><trkpt lat="44.28024525584924" lon="11.325122430206235"><ele>636.0</ele><time>2026-05-01T09:38:58Z</time></trkpt><trkpt lat="44.28012951304955" lon="11.325116916876455"><ele>638.0</ele><time>2026-05-01T09:38:59Z</time></trkpt><trkpt lat="44.280005012715506" lon="11.325105933154019"><ele>640.0</ele><time>2026-05-01T09:39:00Z</time></trkpt><trkpt lat="44.27989912898665" lon="11.325070962766636"><ele>642.0</ele><time>2026-05-01T09:39:01Z</time></trkpt><trkpt lat="44.27980860364494" lon="11.324985548096473"><ele>642.0</ele><time>2026-05-01T09:39:02Z</time></trkpt><trkpt lat="44.27977339526835" lon="11.324816125781872"><ele>642.0</ele><time>2026-05-01T09:39:03Z</time></trkpt><trkpt lat="44.27975220849568" lon="11.324636317149542"><ele>642.0</ele><time>2026-05-01T09:39:04Z</time></trkpt><trkpt lat="44.27969672270328" lon="11.32447106238474"><ele>642.0</ele><time>2026-05-01T09:39:05Z</time></trkpt><trkpt lat="44.27962627474752" lon="11.324313763315827"><ele>642.5</ele><time>2026-05-01T09:39:06Z</time></trkpt><trkpt lat="44.279514404793275" lon="11.324193388083577"><ele>643.0</ele><time>2026-05-01T09:39:07Z</time></trkpt><trkpt lat="44.27939142015911" lon="11.324087939944256"><ele>643.5</ele><time>2026-05-01T09:39:08Z</time></trkpt><trkpt lat="44.27929312085896" lon="11.323941352613907"><ele>644.0</ele><time>2026-05-01T09:39:09Z</time></trkpt><trkpt lat="44.27919121964124" lon="11.323802263765208"><ele>644.0</ele><time>2026-05-01T09:39:10Z</time></trkpt><trkpt lat="44.27908574027882" lon="11.32367062826732"><ele>644.0</ele><time>2026-05-01T09:39:11Z</time></trkpt><trkpt lat="44.27896883036781" lon="11.323555674109501"><ele>644.0</ele><time>2026-05-01T09:39:12Z</time></trkpt><trkpt lat="44.27886491335405" lon="11.323435814066256"><ele>644.0</ele><time>2026-05-01T09:39:13Z</time></trkpt><trkpt lat="44.27876887702436" lon="11.323322913793676"><ele>649.25</ele><time>2026-05-01T09:39:14Z</time></trkpt><trkpt lat="44.27871339878258" lon="11.323198845371644"><ele>654.5</ele><time>2026-05-01T09:39:15Z</time></trkpt><trkpt lat="44.27870329808678" lon="11.323063871071064"><ele>659.75</ele><time>2026-05-01T09:39:16Z</time></trkpt><trkpt lat="44.2787866964789" lon="11.322940071787203"><ele>665.0</ele><time>2026-05-01T09:39:17Z</time></trkpt><trkpt lat="44.278817356227755" lon="11.3227617877384"><ele>665.25</ele><time>2026-05-01T09:39:18Z</time></trkpt><trkpt lat="44.27884772992646" lon="11.322584625494"><ele>665.5</ele><time>2026-05-01T09:39:19Z</time></trkpt><trkpt lat="44.278801321829384" lon="11.322387672169784"><ele>665.75</ele><time>2026-05-01T09:39:20Z</time></trkpt><trkpt lat="44.278698192223295" lon="11.322210447603505"><ele>666.0</ele><time>2026-05-01T09:39:21Z</time></trkpt><trkpt lat="44.27857898450227" lon="11.322047014675448"><ele>663.0</ele><time>2026-05-01T09:39:22Z</time></trkpt><trkpt lat="44.27847084606754" lon="11.321876016199658"><ele>660.0</ele><time>2026-05-01T09:39:23Z</time></trkpt><trkpt lat="44.278378036508684" lon="11.321718819953054"><ele>657.0</ele><time>2026-05-01T09:39:24Z</time></trkpt><trkpt lat="44.278279421292446" lon="11.321616870834834"><ele>654.0</ele><time>2026-05-01T09:39:25Z</time></trkpt><trkpt lat="44.278141963797864" lon="11.321578771346564"><ele>656.6666666666666</ele><time>2026-05-01T09:39:26Z</time></trkpt><trkpt lat="44.27798059442324" lon="11.32162467002167"><ele>659.3333333333333</ele><time>2026-05-01T09:39:27Z</time></trkpt><trkpt lat="44.277833735674676" lon="11.321747276556724"><ele>662.0</ele><time>2026-05-01T09:39:28Z</time></trkpt><trkpt lat="44.2776836539899" lon="11.321867348292963"><ele>662.0</ele><time>2026-05-01T09:39:29Z</time></trkpt><trkpt lat="44.2775588740167" lon="11.321878228659982"><ele>662.0</ele><time>2026-05-01T09:39:30Z</time></trkpt><trkpt lat="44.277437655665295" lon="11.321801547808931"><ele>662.0</ele><time>2026-05-01T09:39:31Z</time></trkpt><trkpt lat="44.27729732754644" lon="11.321691758087843"><ele>662.0</ele><time>2026-05-01T09:39:32Z</time></trkpt><trkpt lat="44.27715809584003" lon="11.32156788251034"><ele>670.6666666666666</ele><time>2026-05-01T09:39:33Z</time></trkpt><trkpt lat="44.27707724138421" lon="11.32135140448985"><ele>679.3333333333334</ele><time>2026-05-01T09:39:34Z</time></trkpt><trkpt lat="44.276980898878264" lon="11.321136255730991"><ele>688.0</ele><time>2026-05-01T09:39:35Z</time></trkpt><trkpt lat="44.2769399951462" lon="11.320920682821118"><ele>688.0</ele><time>2026-05-01T09:39:36Z</time></trkpt><trkpt lat="44.27697224612695" lon="11.320739707738795"><ele>688.0</ele><time>2026-05-01T09:39:37Z</time></trkpt><trkpt lat="44.27704169596674" lon="11.32057405406232"><ele>688.0</ele><time>2026-05-01T09:39:38Z</time></trkpt><trkpt lat="44.277069776710896" lon="11.320396775433167"><ele>688.0</ele><time>2026-05-01T09:39:39Z</time></trkpt><trkpt lat="44.27702543696968" lon="11.32024519821768"><ele>683.0</ele><time>2026-05-01T09:39:40Z</time></trkpt><trkpt lat="44.27691565301958" lon="11.320138241171133"><ele>678.0</ele><time>2026-05-01T09:39:41Z</time></trkpt><trkpt lat="44.27677275992035" lon="11.320068138238648"><ele>673.0</ele><time>2026-05-01T09:39:42Z</time></trkpt><trkpt lat="44.276620425698006" lon="11.320002635778694"><ele>668.0</ele><time>2026-05-01T09:39:43Z</time></trkpt><trkpt lat="44.27646524895707" lon="11.319916026254521"><ele>671.6666666666666</ele><time>2026-05-01T09:39:44Z</time></trkpt><trkpt lat="44.27631506958041" lon="11.319831343675384"><ele>675.3333333333334</ele><time>2026-05-01T09:39:45Z</time></trkpt><trkpt lat="44.27616738156915" lon="11.319746676748442"><ele>679.0</ele><time>2026-05-01T09:39:46Z</time></trkpt><trkpt lat="44.27605713098872" lon="11.319597436958308"><ele>679.0</ele><time>2026-05-01T09:39:47Z</time></trkpt><trkpt lat="44.275947939842446" lon="11.319447310761078"><ele>679.0</ele><time>2026-05-01T09:39:48Z</time></trkpt><trkpt lat="44.27584035110333" lon="11.319324299385983"><ele>679.0</ele><time>2026-05-01T09:39:49Z</time></trkpt><trkpt lat="44.27573299263755" lon="11.319217116937212"><ele>679.0</ele><time>2026-05-01T09:39:50Z</time></trkpt><trkpt lat="44.275644093396025" lon="11.319089614660067"><ele>679.25</ele><time>2026-05-01T09:39:51Z</time></trkpt><trkpt lat="44.2756338294569" lon="11.318896181239303"><ele>679.5</ele><time>2026-05-01T09:39:52Z</time></trkpt><trkpt lat="44.27563576873109" lon="11.31872209648122"><ele>679.75</ele><time>2026-05-01T09:39:53Z</time></trkpt><trkpt lat="44.27571053893701" lon="11.318591254893976"><ele>680.0</ele><time>2026-05-01T09:39:54Z</time></trkpt><trkpt lat="44.27578045667853" lon="11.318416727829556"><ele>680.0</ele><time>2026-05-01T09:39:55Z</time></trkpt><trkpt lat="44.27587170294632" lon="11.318245079654046"><ele>680.0</ele><time>2026-05-01T09:39:56Z</time></trkpt><trkpt lat="44.27592006232287" lon="11.318034123818245"><ele>680.0</ele><time>2026-05-01T09:39:56.999Z</time></trkpt><trkpt lat="44.27593338625622" lon="11.317801787012899"><ele>684.6666666666666</ele><time>2026-05-01T09:39:57.999Z</time></trkpt><trkpt lat="44.27595022815679" lon="11.317565677771844"><ele>689.3333333333334</ele><time>2026-05-01T09:39:58.999Z</time></trkpt><trkpt lat="44.27602621634257" lon="11.317345297850869"><ele>694.0</ele><time>2026-05-01T09:39:59.999Z</time></trkpt><trkpt lat="44.276169596358606" lon="11.317192228112726"><ele>696.6666666666667</ele><time>2026-05-01T09:40:00.999Z</time></trkpt><trkpt lat="44.27630576381561" lon="11.317042054456994"><ele>699.3333333333334</ele><time>2026-05-01T09:40:01.999Z</time></trkpt><trkpt lat="44.2764482740991" lon="11.316931867205039"><ele>702.0</ele><time>2026-05-01T09:40:02.999Z</time></trkpt><trkpt lat="44.27657145170104" lon="11.316812281328893"><ele>696.75</ele><time>2026-05-01T09:40:03.999Z</time></trkpt><trkpt lat="44.27667858833106" lon="11.316696427460329"><ele>691.5</ele><time>2026-05-01T09:40:04.999Z</time></trkpt><trkpt lat="44.27676281047246" lon="11.316573157140162"><ele>686.25</ele><time>2026-05-01T09:40:05.999Z</time></trkpt><trkpt lat="44.27679410694409" lon="11.316421410830007"><ele>681.0</ele><time>2026-05-01T09:40:06.999Z</time></trkpt><trkpt lat="44.276761250532495" lon="11.31626703613375"><ele>680.6666666666666</ele><time>2026-05-01T09:40:07.999Z</time></trkpt><trkpt lat="44.27668559492574" lon="11.316143990110254"><ele>680.3333333333334</ele><time>2026-05-01T09:40:08.999Z</time></trkpt><trkpt lat="44.27660453492714" lon="11.316065409366102"><ele>680.0</ele><time>2026-05-01T09:40:09.999Z</time></trkpt><trkpt lat="44.27653683667306" lon="11.316009985055299"><ele>679.6666666666667</ele><time>2026-05-01T09:40:10.999Z</time></trkpt><trkpt lat="44.27648403746107" lon="11.315960856137547"><ele>679.3333333333334</ele><time>2026-05-01T09:40:11.999Z</time></trkpt><trkpt lat="44.276436254660275" lon="11.315900076076751"><ele>679.0</ele><time>2026-05-01T09:40:13.999Z</time></trkpt><trkpt lat="44.27636141964542" lon="11.315779506319364"><ele>681.6666666666667</ele><time>2026-05-01T09:42:10.999Z</time></trkpt><trkpt lat="44.27630815557564" lon="11.315705832035235"><ele>684.3333333333334</ele><time>2026-05-01T09:42:11.999Z</time></trkpt><trkpt lat="44.276251094826335" lon="11.315623286683035"><ele>687.0</ele><time>2026-05-01T09:42:12.999Z</time></trkpt><trkpt lat="44.276191098514296" lon="11.315536301486294"><ele>689.6666666666666</ele><time>2026-05-01T09:42:13.999Z</time></trkpt><trkpt lat="44.276143198563716" lon="11.315429120923318"><ele>692.3333333333333</ele><time>2026-05-01T09:42:14.999Z</time></trkpt><trkpt lat="44.27608415387835" lon="11.315322328799413"><ele>695.0</ele><time>2026-05-01T09:42:15.999Z</time></trkpt><trkpt lat="44.276046303717564" lon="11.315197912942848"><ele>695.0</ele><time>2026-05-01T09:42:16.999Z</time></trkpt><trkpt lat="44.2760260672736" lon="11.315058392350071"><ele>695.0</ele><time>2026-05-01T09:42:17.999Z</time></trkpt><trkpt lat="44.276022942936535" lon="11.314903680523507"><ele>695.0</ele><time>2026-05-01T09:42:18.999Z</time></trkpt><trkpt lat="44.27602900586002" lon="11.314736879874603"><ele>695.0</ele><time>2026-05-01T09:42:19.999Z</time></trkpt><trkpt lat="44.27604782898937" lon="11.314557972822731"><ele>695.5</ele><time>2026-05-01T09:42:20.999Z</time></trkpt><trkpt lat="44.276060062934164" lon="11.314376893521228"><ele>696.0</ele><time>2026-05-01T09:42:21.999Z</time></trkpt><trkpt lat="44.27607848190865" lon="11.3141991323313"><ele>696.5</ele><time>2026-05-01T09:42:22.999Z</time></trkpt><trkpt lat="44.276062631883306" lon="11.313995209146366"><ele>697.0</ele><time>2026-05-01T09:42:23.999Z</time></trkpt><trkpt lat="44.27604402709279" lon="11.313803910219384"><ele>697.0</ele><time>2026-05-01T09:42:24.999Z</time></trkpt><trkpt lat="44.27604748671096" lon="11.313612525072084"><ele>697.0</ele><time>2026-05-01T09:42:25.999Z</time></trkpt><trkpt lat="44.27606827682604" lon="11.313422269405377"><ele>697.0</ele><time>2026-05-01T09:42:26.999Z</time></trkpt><trkpt lat="44.27606853665712" lon="11.313224992149351"><ele>697.0</ele><time>2026-05-01T09:42:27.999Z</time></trkpt><trkpt lat="44.27603344042283" lon="11.313030331677085"><ele>696.25</ele><time>2026-05-01T09:42:28.999Z</time></trkpt><trkpt lat="44.27598036798309" lon="11.312846216583562"><ele>695.5</ele><time>2026-05-01T09:42:29.999Z</time></trkpt><trkpt lat="44.27593924242478" lon="11.312674913424546"><ele>694.75</ele><time>2026-05-01T09:42:30.999Z</time></trkpt><trkpt lat="44.275897725844914" lon="11.312530185815993"><ele>694.0</ele><time>2026-05-01T09:42:31.999Z</time></trkpt><trkpt lat="44.27583617050562" lon="11.312421448303025"><ele>694.0</ele><time>2026-05-01T09:42:32.999Z</time></trkpt><trkpt lat="44.27577133959547" lon="11.312280468965508"><ele>694.0</ele><time>2026-05-01T09:42:33.999Z</time></trkpt><trkpt lat="44.27566292705165" lon="11.312229057198657"><ele>694.0</ele><time>2026-05-01T09:42:34.999Z</time></trkpt><trkpt lat="44.275533942212085" lon="11.312267775014131"><ele>694.0</ele><time>2026-05-01T09:42:35.999Z</time></trkpt><trkpt lat="44.27541091886007" lon="11.312382200108498"><ele>691.5</ele><time>2026-05-01T09:42:37Z</time></trkpt><trkpt lat="44.27532786540719" lon="11.31255064935343"><ele>689.0</ele><time>2026-05-01T09:42:38Z</time></trkpt><trkpt lat="44.27525344691994" lon="11.312731512366398"><ele>686.5</ele><time>2026-05-01T09:42:39Z</time></trkpt><trkpt lat="44.2751687635823" lon="11.312909644953338"><ele>684.0</ele><time>2026-05-01T09:42:40Z</time></trkpt><trkpt lat="44.27508640611789" lon="11.313055651129732"><ele>685.75</ele><time>2026-05-01T09:42:41Z</time></trkpt><trkpt lat="44.274973290780785" lon="11.313146623918545"><ele>687.5</ele><time>2026-05-01T09:42:42Z</time></trkpt><trkpt lat="44.274830822853936" lon="11.313105213811763"><ele>689.25</ele><time>2026-05-01T09:42:43Z</time></trkpt><trkpt lat="44.27469181745951" lon="11.313134756843848"><ele>691.0</ele><time>2026-05-01T09:42:44Z</time></trkpt><trkpt lat="44.27454717689699" lon="11.31316190936378"><ele>691.0</ele><time>2026-05-01T09:42:45Z</time></trkpt><trkpt lat="44.274426650756666" lon="11.31325987770335"><ele>691.0</ele><time>2026-05-01T09:42:46Z</time></trkpt><trkpt lat="44.274356101504466" lon="11.313437446897606"><ele>691.0</ele><time>2026-05-01T09:42:47Z</time></trkpt><trkpt lat="44.27431637273895" lon="11.313649552338882"><ele>691.0</ele><time>2026-05-01T09:42:48Z</time></trkpt><trkpt lat="44.27422192590237" lon="11.313819391283776"><ele>691.0</ele><time>2026-05-01T09:42:49Z</time></trkpt><trkpt lat="44.274078244337645" lon="11.313893707450289"><ele>691.0</ele><time>2026-05-01T09:42:50Z</time></trkpt><trkpt lat="44.27391913311396" lon="11.31392277742453"><ele>691.0</ele><time>2026-05-01T09:42:51Z</time></trkpt><trkpt lat="44.27375748759353" lon="11.313968038452353"><ele>693.0</ele><time>2026-05-01T09:42:52Z</time></trkpt><trkpt lat="44.27361563891842" lon="11.313984939297479"><ele>695.0</ele><time>2026-05-01T09:42:53Z</time></trkpt><trkpt lat="44.27349287697366" lon="11.31402976952222"><ele>697.0</ele><time>2026-05-01T09:42:54Z</time></trkpt><trkpt lat="44.27338375324404" lon="11.314104858099368"><ele>699.0</ele><time>2026-05-01T09:42:55Z</time></trkpt><trkpt lat="44.27329012083013" lon="11.31423638784591"><ele>699.0</ele><time>2026-05-01T09:42:56Z</time></trkpt><trkpt lat="44.273270852638404" lon="11.314441342118686"><ele>699.0</ele><time>2026-05-01T09:42:57Z</time></trkpt><trkpt lat="44.27328289451212" lon="11.314646675250641"><ele>699.0</ele><time>2026-05-01T09:42:58Z</time></trkpt><trkpt lat="44.273351100860424" lon="11.31483633936361"><ele>699.0</ele><time>2026-05-01T09:42:59Z</time></trkpt><trkpt lat="44.27344735650211" lon="11.31501130008376"><ele>700.25</ele><time>2026-05-01T09:43:00Z</time></trkpt><trkpt lat="44.273541493642604" lon="11.31517257149064"><ele>701.5</ele><time>2026-05-01T09:43:01Z</time></trkpt><trkpt lat="44.27363108791252" lon="11.315328484430099"><ele>702.75</ele><time>2026-05-01T09:43:02Z</time></trkpt><trkpt lat="44.27368575444204" lon="11.31550010549725"><ele>704.0</ele><time>2026-05-01T09:43:03Z</time></trkpt><trkpt lat="44.2736457085657" lon="11.315680943510152"><ele>705.0</ele><time>2026-05-01T09:43:04Z</time></trkpt><trkpt lat="44.27358317582686" lon="11.315845313645353"><ele>706.0</ele><time>2026-05-01T09:43:05Z</time></trkpt><trkpt lat="44.27348085963385" lon="11.315979394571592"><ele>707.0</ele><time>2026-05-01T09:43:06Z</time></trkpt><trkpt lat="44.273344752144695" lon="11.316123096736254"><ele>708.0</ele><time>2026-05-01T09:43:07Z</time></trkpt><trkpt lat="44.273189268389274" lon="11.316222729026233"><ele>710.0</ele><time>2026-05-01T09:43:08Z</time></trkpt><trkpt lat="44.2730438158392" lon="11.316300430593197"><ele>712.0</ele><time>2026-05-01T09:43:09Z</time></trkpt><trkpt lat="44.272898521256494" lon="11.316257106039492"><ele>714.0</ele><time>2026-05-01T09:43:10Z</time></trkpt><trkpt lat="44.27275791971609" lon="11.31616720660503"><ele>714.0</ele><time>2026-05-01T09:43:11Z</time></trkpt><trkpt lat="44.27264002435615" lon="11.315991555292902"><ele>714.0</ele><time>2026-05-01T09:43:12Z</time></trkpt><trkpt lat="44.27253013870171" lon="11.315816100420516"><ele>714.0</ele><time>2026-05-01T09:43:13Z</time></trkpt><trkpt lat="44.272420564315595" lon="11.315676323748427"><ele>708.75</ele><time>2026-05-01T09:43:14Z</time></trkpt><trkpt lat="44.272311947759746" lon="11.31556078997672"><ele>703.5</ele><time>2026-05-01T09:43:15Z</time></trkpt><trkpt lat="44.27221177631898" lon="11.31547062438881"><ele>698.25</ele><time>2026-05-01T09:43:16Z</time></trkpt><trkpt lat="44.272106667501504" lon="11.31542702123117"><ele>693.0</ele><time>2026-05-01T09:43:17Z</time></trkpt><trkpt lat="44.271994168876304" lon="11.315461353363114"><ele>695.0</ele><time>2026-05-01T09:43:18Z</time></trkpt><trkpt lat="44.271896304070395" lon="11.315578660212813"><ele>697.0</ele><time>2026-05-01T09:43:19Z</time></trkpt><trkpt lat="44.27182499692009" lon="11.315751527891374"><ele>699.0</ele><time>2026-05-01T09:43:20Z</time></trkpt><trkpt lat="44.271788195786435" lon="11.315957260434088"><ele>701.0</ele><time>2026-05-01T09:43:21Z</time></trkpt><trkpt lat="44.271764116475204" lon="11.316177480330387"><ele>701.0</ele><time>2026-05-01T09:43:22Z</time></trkpt><trkpt lat="44.27173540880227" lon="11.316389749564872"><ele>701.0</ele><time>2026-05-01T09:43:23Z</time></trkpt><trkpt lat="44.27170016680474" lon="11.316581682087868"><ele>701.0</ele><time>2026-05-01T09:43:24Z</time></trkpt><trkpt lat="44.27166748078321" lon="11.316740744220242"><ele>701.0</ele><time>2026-05-01T09:43:25Z</time></trkpt><trkpt lat="44.27164064759658" lon="11.316848169160249"><ele>704.25</ele><time>2026-05-01T09:43:27Z</time></trkpt><trkpt lat="44.271668479625795" lon="11.31698314349476"><ele>707.5</ele><time>2026-05-01T09:43:35Z</time></trkpt><trkpt lat="44.271717373178085" lon="11.317143433038567"><ele>710.75</ele><time>2026-05-01T09:43:36Z</time></trkpt><trkpt lat="44.27178703328992" lon="11.317291336645717"><ele>714.0</ele><time>2026-05-01T09:43:37Z</time></trkpt><trkpt lat="44.271865679136305" lon="11.317435720005253"><ele>714.75</ele><time>2026-05-01T09:43:38Z</time></trkpt><trkpt lat="44.271938638942295" lon="11.31757735048892"><ele>715.5</ele><time>2026-05-01T09:43:39Z</time></trkpt><trkpt lat="44.271988304777544" lon="11.31773201326467"><ele>716.25</ele><time>2026-05-01T09:43:40Z</time></trkpt><trkpt lat="44.272005920563295" lon="11.317881676449346"><ele>717.0</ele><time>2026-05-01T09:43:41Z</time></trkpt><trkpt lat="44.27197861931335" lon="11.31804012907453"><ele>716.25</ele><time>2026-05-01T09:43:42Z</time></trkpt><trkpt lat="44.27193780554397" lon="11.31821990317655"><ele>715.5</ele><time>2026-05-01T09:43:43Z</time></trkpt><trkpt lat="44.271911729079775" lon="11.318408112341693"><ele>714.75</ele><time>2026-05-01T09:43:44Z</time></trkpt><trkpt lat="44.27186761953507" lon="11.318593268484497"><ele>714.0</ele><time>2026-05-01T09:43:45Z</time></trkpt><trkpt lat="44.27182677658531" lon="11.31878055465708"><ele>714.25</ele><time>2026-05-01T09:43:46Z</time></trkpt><trkpt lat="44.27175775494705" lon="11.318949910155272"><ele>714.5</ele><time>2026-05-01T09:43:47Z</time></trkpt><trkpt lat="44.271682985437785" lon="11.319111984426977"><ele>714.75</ele><time>2026-05-01T09:43:48Z</time></trkpt><trkpt lat="44.27156604822385" lon="11.319217469501643"><ele>715.0</ele><time>2026-05-01T09:43:49Z</time></trkpt><trkpt lat="44.27142524277102" lon="11.319246653582049"><ele>715.0</ele><time>2026-05-01T09:43:50Z</time></trkpt><trkpt lat="44.27129437056225" lon="11.31929940237409"><ele>715.0</ele><time>2026-05-01T09:43:51Z</time></trkpt><trkpt lat="44.27117183866287" lon="11.319333434584584"><ele>715.0</ele><time>2026-05-01T09:43:52Z</time></trkpt><trkpt lat="44.271067377297854" lon="11.31939380353431"><ele>715.0</ele><time>2026-05-01T09:43:53Z</time></trkpt><trkpt lat="44.27098917392463" lon="11.319485547699736"><ele>715.0</ele><time>2026-05-01T09:43:54Z</time></trkpt><trkpt lat="44.27095217141336" lon="11.31961984857127"><ele>715.0</ele><time>2026-05-01T09:43:55Z</time></trkpt><trkpt lat="44.270967334336376" lon="11.319787082796472"><ele>715.0</ele><time>2026-05-01T09:43:56Z</time></trkpt><trkpt lat="44.27103664488532" lon="11.319934635610373"><ele>715.0</ele><time>2026-05-01T09:43:57Z</time></trkpt><trkpt lat="44.271120500435906" lon="11.320065501088115"><ele>715.0</ele><time>2026-05-01T09:43:58Z</time></trkpt><trkpt lat="44.271167163500515" lon="11.320209612995091"><ele>715.0</ele><time>2026-05-01T09:43:59Z</time></trkpt><trkpt lat="44.271135947690084" lon="11.320365165744258"><ele>715.0</ele><time>2026-05-01T09:44:00Z</time></trkpt><trkpt lat="44.27105545454666" lon="11.320510656793564"><ele>715.0</ele><time>2026-05-01T09:44:01Z</time></trkpt><trkpt lat="44.27096832283255" lon="11.32063838205295"><ele>716.0</ele><time>2026-05-01T09:44:02Z</time></trkpt><trkpt lat="44.27088520092239" lon="11.32075531380869"><ele>717.0</ele><time>2026-05-01T09:44:03Z</time></trkpt><trkpt lat="44.27082184831845" lon="11.320874748217573"><ele>718.0</ele><time>2026-05-01T09:44:04Z</time></trkpt><trkpt lat="44.27077186975086" lon="11.320987382685937"><ele>719.0</ele><time>2026-05-01T09:44:05Z</time></trkpt><trkpt lat="44.270729874654904" lon="11.321098908818106"><ele>720.0</ele><time>2026-05-01T09:44:06Z</time></trkpt><trkpt lat="44.270694660778695" lon="11.321196972065401"><ele>720.0</ele><time>2026-05-01T09:44:07Z</time></trkpt><trkpt lat="44.270657259998984" lon="11.32129090468362"><ele>720.0</ele><time>2026-05-01T09:44:07.999Z</time></trkpt><trkpt lat="44.27060985182733" lon="11.32137222757827"><ele>720.0</ele><time>2026-05-01T09:44:08.999Z</time></trkpt><trkpt lat="44.27056127973406" lon="11.321453707424558"><ele>720.0</ele><time>2026-05-01T09:44:09.999Z</time></trkpt><trkpt lat="44.27051183518185" lon="11.321536418365161"><ele>720.0</ele><time>2026-05-01T09:44:10.999Z</time></trkpt><trkpt lat="44.27046655605188" lon="11.3216104254916"><ele>720.0</ele><time>2026-05-01T09:44:11.999Z</time></trkpt><trkpt lat="44.27038325275093" lon="11.321721668478784"><ele>718.2</ele><time>2026-05-01T09:44:13.999Z</time></trkpt><trkpt lat="44.27031525171126" lon="11.32178402774861"><ele>716.4</ele><time>2026-05-01T09:44:15.999Z</time></trkpt><trkpt lat="44.27025592741625" lon="11.321830491705354"><ele>714.5999999999999</ele><time>2026-05-01T09:44:17.999Z</time></trkpt><trkpt lat="44.27019139578719" lon="11.321902665561296"><ele>712.8</ele><time>2026-05-01T09:44:20.999Z</time></trkpt><trkpt lat="44.27009829690584" lon="11.322001285749268"><ele>711.0</ele><time>2026-05-01T09:45:00Z</time></trkpt><trkpt lat="44.26999023642792" lon="11.322086110973089"><ele>711.0</ele><time>2026-05-01T09:45:02Z</time></trkpt><trkpt lat="44.26992937357043" lon="11.322123523454358"><ele>711.0</ele><time>2026-05-01T09:45:03Z</time></trkpt><trkpt lat="44.26986916093243" lon="11.32215604887452"><ele>711.0</ele><time>2026-05-01T09:45:04Z</time></trkpt><trkpt lat="44.2697722174131" lon="11.322224338392193"><ele>711.0</ele><time>2026-05-01T09:45:06Z</time></trkpt><trkpt lat="44.2696951592897" lon="11.322279369169904"><ele>711.0</ele><time>2026-05-01T09:45:08Z</time></trkpt><trkpt lat="44.26963454393244" lon="11.32233943653316"><ele>711.0</ele><time>2026-05-01T09:45:10Z</time></trkpt><trkpt lat="44.26955355057103" lon="11.322401094072012"><ele>712.5999999999999</ele><time>2026-05-01T09:45:12Z</time></trkpt><trkpt lat="44.26946462650555" lon="11.322467542551593"><ele>714.2</ele><time>2026-05-01T09:45:14Z</time></trkpt><trkpt lat="44.26935977444525" lon="11.322517758736424"><ele>715.8</ele><time>2026-05-01T09:45:16Z</time></trkpt><trkpt lat="44.2692641013375" lon="11.322544341690255"><ele>717.4000000000001</ele><time>2026-05-01T09:45:18Z</time></trkpt><trkpt lat="44.269175986282534" lon="11.322588454914468"><ele>719.0</ele><time>2026-05-01T09:45:20Z</time></trkpt><trkpt lat="44.26908625017911" lon="11.322626685069908"><ele>719.0</ele><time>2026-05-01T09:45:22Z</time></trkpt><trkpt lat="44.268980768797526" lon="11.3226721755142"><ele>719.0</ele><time>2026-05-01T09:45:24Z</time></trkpt><trkpt lat="44.26893282954949" lon="11.32273316097249"><ele>719.0</ele><time>2026-05-01T09:45:25Z</time></trkpt><trkpt lat="44.26888338080326" lon="11.322801978150391"><ele>719.0</ele><time>2026-05-01T09:45:26Z</time></trkpt><trkpt lat="44.268825734428795" lon="11.322869461089628"><ele>719.0</ele><time>2026-05-01T09:45:27Z</time></trkpt><trkpt lat="44.26876606022278" lon="11.32294028021447"><ele>719.0</ele><time>2026-05-01T09:45:28Z</time></trkpt><trkpt lat="44.268702284730495" lon="11.323016027564279"><ele>720.0</ele><time>2026-05-01T09:45:29Z</time></trkpt><trkpt lat="44.268638000051574" lon="11.323085711515917"><ele>721.0</ele><time>2026-05-01T09:45:30Z</time></trkpt><trkpt lat="44.26857240941242" lon="11.323154739820993"><ele>722.0</ele><time>2026-05-01T09:45:31Z</time></trkpt><trkpt lat="44.268508089083774" lon="11.323215324107235"><ele>723.0</ele><time>2026-05-01T09:45:32Z</time></trkpt><trkpt lat="44.26844479746059" lon="11.323273325295457"><ele>724.0</ele><time>2026-05-01T09:45:33Z</time></trkpt><trkpt lat="44.26838282120798" lon="11.32333945734696"><ele>725.0</ele><time>2026-05-01T09:45:34Z</time></trkpt><trkpt lat="44.268326322805464" lon="11.323413797362951"><ele>725.0</ele><time>2026-05-01T09:45:35Z</time></trkpt><trkpt lat="44.268272520649" lon="11.323492909689877"><ele>725.0</ele><time>2026-05-01T09:45:36Z</time></trkpt><trkpt lat="44.26821935681781" lon="11.323575938947146"><ele>725.0</ele><time>2026-05-01T09:45:37Z</time></trkpt><trkpt lat="44.268167202663214" lon="11.323663760955103"><ele>725.0</ele><time>2026-05-01T09:45:38Z</time></trkpt><trkpt lat="44.26811207778975" lon="11.323758591583674"><ele>725.0</ele><time>2026-05-01T09:45:39Z</time></trkpt><trkpt lat="44.26805409903123" lon="11.323849843016625"><ele>725.0</ele><time>2026-05-01T09:45:40Z</time></trkpt><trkpt lat="44.26799040889657" lon="11.323932251083008"><ele>723.8</ele><time>2026-05-01T09:45:41Z</time></trkpt><trkpt lat="44.26792244480748" lon="11.324007972003807"><ele>722.6</ele><time>2026-05-01T09:45:42Z</time></trkpt><trkpt lat="44.26785336537667" lon="11.324083495458023"><ele>721.4000000000001</ele><time>2026-05-01T09:45:43Z</time></trkpt><trkpt lat="44.267778814567606" lon="11.324162190664378"><ele>720.2</ele><time>2026-05-01T09:45:44Z</time></trkpt><trkpt lat="44.26770141940725" lon="11.324247626292921"><ele>719.0</ele><time>2026-05-01T09:45:45Z</time></trkpt><trkpt lat="44.267624122506106" lon="11.324329922694506"><ele>719.0</ele><time>2026-05-01T09:45:46Z</time></trkpt><trkpt lat="44.26754881046466" lon="11.324410608466343"><ele>719.0</ele><time>2026-05-01T09:45:47Z</time></trkpt><trkpt lat="44.267477053020265" lon="11.324488969533105"><ele>719.0</ele><time>2026-05-01T09:45:48Z</time></trkpt><trkpt lat="44.26740637620285" lon="11.324558965554232"><ele>719.0</ele><time>2026-05-01T09:45:49Z</time></trkpt><trkpt lat="44.267334872483495" lon="11.324623311315419"><ele>719.0</ele><time>2026-05-01T09:45:50Z</time></trkpt><trkpt lat="44.26726062420717" lon="11.324680818937985"><ele>719.0</ele><time>2026-05-01T09:45:51Z</time></trkpt><trkpt lat="44.267185599298806" lon="11.324726082813408"><ele>719.6666666666666</ele><time>2026-05-01T09:45:52Z</time></trkpt><trkpt lat="44.267107400196224" lon="11.324759177568579"><ele>720.3333333333333</ele><time>2026-05-01T09:45:53Z</time></trkpt><trkpt lat="44.26702586067633" lon="11.32479034252472"><ele>721.0</ele><time>2026-05-01T09:45:54Z</time></trkpt><trkpt lat="44.26694308713379" lon="11.324815368256253"><ele>721.6666666666666</ele><time>2026-05-01T09:45:55Z</time></trkpt><trkpt lat="44.26686188589763" lon="11.324831770315456"><ele>722.3333333333334</ele><time>2026-05-01T09:45:56Z</time></trkpt><trkpt lat="44.266778311910215" lon="11.32483155730859"><ele>723.0</ele><time>2026-05-01T09:45:57Z</time></trkpt><trkpt lat="44.266692942278375" lon="11.32482568296614"><ele>723.0</ele><time>2026-05-01T09:45:58Z</time></trkpt><trkpt lat="44.26660668280387" lon="11.324817660257366"><ele>723.0</ele><time>2026-05-01T09:45:59Z</time></trkpt><trkpt lat="44.26651861689234" lon="11.324806525668249"><ele>723.0</ele><time>2026-05-01T09:46:00Z</time></trkpt><trkpt lat="44.26643141041664" lon="11.324792975330277"><ele>723.0</ele><time>2026-05-01T09:46:01Z</time></trkpt><trkpt lat="44.266341249866386" lon="11.324778134812327"><ele>723.0</ele><time>2026-05-01T09:46:02Z</time></trkpt><trkpt lat="44.26625094388144" lon="11.324767828821479"><ele>723.0</ele><time>2026-05-01T09:46:03Z</time></trkpt><trkpt lat="44.266159329831176" lon="11.324765089621295"><ele>722.4</ele><time>2026-05-01T09:46:04Z</time></trkpt><trkpt lat="44.2660695538606" lon="11.324775081199993"><ele>721.8</ele><time>2026-05-01T09:46:05Z</time></trkpt><trkpt lat="44.26598049592292" lon="11.32479420922621"><ele>721.2</ele><time>2026-05-01T09:46:06Z</time></trkpt><trkpt lat="44.26589000439311" lon="11.324819515230933"><ele>720.6</ele><time>2026-05-01T09:46:07Z</time></trkpt><trkpt lat="44.26579752220831" lon="11.324852680360731"><ele>720.0</ele><time>2026-05-01T09:46:08Z</time></trkpt><trkpt lat="44.265703250307595" lon="11.324883785014363"><ele>719.8</ele><time>2026-05-01T09:46:09Z</time></trkpt><trkpt lat="44.26560767853487" lon="11.324912881099403"><ele>719.6</ele><time>2026-05-01T09:46:09.999Z</time></trkpt><trkpt lat="44.26550829154663" lon="11.324937085957373"><ele>719.4000000000001</ele><time>2026-05-01T09:46:10.999Z</time></trkpt><trkpt lat="44.26540647973892" lon="11.324960517083943"><ele>719.2</ele><time>2026-05-01T09:46:11.999Z</time></trkpt><trkpt lat="44.265302124620305" lon="11.32498702117791"><ele>719.0</ele><time>2026-05-01T09:46:12.999Z</time></trkpt><trkpt lat="44.26519630267051" lon="11.325012493682383"><ele>719.0</ele><time>2026-05-01T09:46:13.999Z</time></trkpt><trkpt lat="44.26508870150763" lon="11.325036480789409"><ele>719.0</ele><time>2026-05-01T09:46:14.999Z</time></trkpt><trkpt lat="44.264977993397466" lon="11.325060139916067"><ele>719.0</ele><time>2026-05-01T09:46:15.999Z</time></trkpt><trkpt lat="44.26486877483664" lon="11.32508349764528"><ele>719.0</ele><time>2026-05-01T09:46:16.999Z</time></trkpt><trkpt lat="44.26475940920771" lon="11.325104905725912"><ele>719.0</ele><time>2026-05-01T09:46:17.999Z</time></trkpt><trkpt lat="44.264650678888806" lon="11.32512405201611"><ele>719.6</ele><time>2026-05-01T09:46:18.999Z</time></trkpt><trkpt lat="44.26454164962789" lon="11.325144583916977"><ele>720.2</ele><time>2026-05-01T09:46:19.999Z</time></trkpt><trkpt lat="44.26443260285085" lon="11.325173564846494"><ele>720.8000000000001</ele><time>2026-05-01T09:46:20.999Z</time></trkpt><trkpt lat="44.264327258234644" lon="11.325222808483762"><ele>721.4000000000001</ele><time>2026-05-01T09:46:21.999Z</time></trkpt><trkpt lat="44.2642251053227" lon="11.325292363921525"><ele>722.0</ele><time>2026-05-01T09:46:22.999Z</time></trkpt><trkpt lat="44.26411601159141" lon="11.32534703108985"><ele>722.0</ele><time>2026-05-01T09:46:23.999Z</time></trkpt><trkpt lat="44.26401525304478" lon="11.325442803766288"><ele>722.0</ele><time>2026-05-01T09:46:24.999Z</time></trkpt><trkpt lat="44.263907220696225" lon="11.325516306809225"><ele>722.0</ele><time>2026-05-01T09:46:25.999Z</time></trkpt><trkpt lat="44.26379644830904" lon="11.325591570503132"><ele>722.0</ele><time>2026-05-01T09:46:26.999Z</time></trkpt><trkpt lat="44.26368591155217" lon="11.32565995948902"><ele>724.0</ele><time>2026-05-01T09:46:27.999Z</time></trkpt><trkpt lat="44.263574166329455" lon="11.325721662536981"><ele>726.0</ele><time>2026-05-01T09:46:28.999Z</time></trkpt><trkpt lat="44.26346039185231" lon="11.325771544207626"><ele>728.0</ele><time>2026-05-01T09:46:29.999Z</time></trkpt><trkpt lat="44.26334230915984" lon="11.325800772233281"><ele>730.0</ele><time>2026-05-01T09:46:30.999Z</time></trkpt><trkpt lat="44.26321991717199" lon="11.325812135168874"><ele>730.75</ele><time>2026-05-01T09:46:31.999Z</time></trkpt><trkpt lat="44.26309623076926" lon="11.325814790633723"><ele>731.5</ele><time>2026-05-01T09:46:32.999Z</time></trkpt><trkpt lat="44.262970505120634" lon="11.325810727122475"><ele>732.25</ele><time>2026-05-01T09:46:33.999Z</time></trkpt><trkpt lat="44.26284402940567" lon="11.32580012465108"><ele>733.0</ele><time>2026-05-01T09:46:34.999Z</time></trkpt><trkpt lat="44.26271921358557" lon="11.325783274430636"><ele>733.0</ele><time>2026-05-01T09:46:35.999Z</time></trkpt><trkpt lat="44.26259603436261" lon="11.325758868927249"><ele>733.0</ele><time>2026-05-01T09:46:36.999Z</time></trkpt><trkpt lat="44.26247286137624" lon="11.325730956748355"><ele>733.0</ele><time>2026-05-01T09:46:37.999Z</time></trkpt><trkpt lat="44.26234927828296" lon="11.325697743059733"><ele>733.0</ele><time>2026-05-01T09:46:38.999Z</time></trkpt><trkpt lat="44.26222593517454" lon="11.32565955009476"><ele>734.0</ele><time>2026-05-01T09:46:39.999Z</time></trkpt><trkpt lat="44.262103256923325" lon="11.325620196349933"><ele>735.0</ele><time>2026-05-01T09:46:40.999Z</time></trkpt><trkpt lat="44.26198190101397" lon="11.325578114269874"><ele>736.0</ele><time>2026-05-01T09:46:41.999Z</time></trkpt><trkpt lat="44.26186323859304" lon="11.32553729165791"><ele>737.0</ele><time>2026-05-01T09:46:42.999Z</time></trkpt><trkpt lat="44.26174366044795" lon="11.325512370573025"><ele>737.0</ele><time>2026-05-01T09:46:43.999Z</time></trkpt><trkpt lat="44.261625953445645" lon="11.325520919161095"><ele>737.0</ele><time>2026-05-01T09:46:44.999Z</time></trkpt><trkpt lat="44.26151511495294" lon="11.325589248110902"><ele>737.0</ele><time>2026-05-01T09:46:45.999Z</time></trkpt><trkpt lat="44.261430373297216" lon="11.325705336172158"><ele>737.0</ele><time>2026-05-01T09:46:46.999Z</time></trkpt><trkpt lat="44.26136061948169" lon="11.325851442798081"><ele>736.75</ele><time>2026-05-01T09:46:47.999Z</time></trkpt><trkpt lat="44.26129130548108" lon="11.326012859572545"><ele>736.5</ele><time>2026-05-01T09:46:49Z</time></trkpt><trkpt lat="44.26122281131844" lon="11.326182173161472"><ele>736.25</ele><time>2026-05-01T09:46:50Z</time></trkpt><trkpt lat="44.261154357254945" lon="11.326356889742364"><ele>736.0</ele><time>2026-05-01T09:46:51Z</time></trkpt><trkpt lat="44.26108513220045" lon="11.326539823507616"><ele>737.6666666666667</ele><time>2026-05-01T09:46:52Z</time></trkpt><trkpt lat="44.26101693190647" lon="11.326727513892502"><ele>739.3333333333334</ele><time>2026-05-01T09:46:53Z</time></trkpt><trkpt lat="44.26095708711995" lon="11.326927019332352"><ele>741.0</ele><time>2026-05-01T09:46:54Z</time></trkpt><trkpt lat="44.26090495066121" lon="11.327139747157304"><ele>741.3333333333334</ele><time>2026-05-01T09:46:55Z</time></trkpt><trkpt lat="44.26085616949175" lon="11.327364628368278"><ele>741.6666666666667</ele><time>2026-05-01T09:46:56Z</time></trkpt><trkpt lat="44.260806896279036" lon="11.327602144426557"><ele>742.0</ele><time>2026-05-01T09:46:57Z</time></trkpt><trkpt lat="44.260755655108916" lon="11.327848634115107"><ele>742.3333333333334</ele><time>2026-05-01T09:46:58Z</time></trkpt><trkpt lat="44.26070706695483" lon="11.328066280590928"><ele>742.6666666666666</ele><time>2026-05-01T09:46:59Z</time></trkpt><trkpt lat="44.26066609903353" lon="11.328298742595935"><ele>743.0</ele><time>2026-05-01T09:47:00Z</time></trkpt><trkpt lat="44.260631495513174" lon="11.32851401463246"><ele>742.5</ele><time>2026-05-01T09:47:01Z</time></trkpt><trkpt lat="44.26059879902028" lon="11.328714074493357"><ele>742.0</ele><time>2026-05-01T09:47:02Z</time></trkpt><trkpt lat="44.26052368086716" lon="11.328893220752711"><ele>741.5</ele><time>2026-05-01T09:47:03Z</time></trkpt><trkpt lat="44.26041515089184" lon="11.329040658869873"><ele>741.0</ele><time>2026-05-01T09:47:04Z</time></trkpt><trkpt lat="44.26029005131393" lon="11.329179218206908"><ele>741.0</ele><time>2026-05-01T09:47:05Z</time></trkpt><trkpt lat="44.2601747915191" lon="11.329337224885728"><ele>741.0</ele><time>2026-05-01T09:47:06Z</time></trkpt><trkpt lat="44.26004984598635" lon="11.329468590795516"><ele>741.0</ele><time>2026-05-01T09:47:07Z</time></trkpt><trkpt lat="44.25993805001505" lon="11.329612773234047"><ele>742.3333333333334</ele><time>2026-05-01T09:47:08Z</time></trkpt><trkpt lat="44.2598388406026" lon="11.329769795833936"><ele>743.6666666666667</ele><time>2026-05-01T09:47:09Z</time></trkpt><trkpt lat="44.259743706548264" lon="11.329932529285824"><ele>745.0</ele><time>2026-05-01T09:47:10Z</time></trkpt><trkpt lat="44.25965760924756" lon="11.330108786964784"><ele>745.0</ele><time>2026-05-01T09:47:11Z</time></trkpt><trkpt lat="44.25957420839888" lon="11.330289680202094"><ele>745.0</ele><time>2026-05-01T09:47:12Z</time></trkpt><trkpt lat="44.259466617264486" lon="11.330441101252836"><ele>745.0</ele><time>2026-05-01T09:47:13Z</time></trkpt><trkpt lat="44.25933079996673" lon="11.330530584477078"><ele>747.75</ele><time>2026-05-01T09:47:14Z</time></trkpt><trkpt lat="44.25919878797417" lon="11.330609148770844"><ele>750.5</ele><time>2026-05-01T09:47:15Z</time></trkpt><trkpt lat="44.25907098176277" lon="11.33068770781603"><ele>753.25</ele><time>2026-05-01T09:47:16Z</time></trkpt><trkpt lat="44.25894689011942" lon="11.330775658281143"><ele>756.0</ele><time>2026-05-01T09:47:17Z</time></trkpt><trkpt lat="44.258820345141004" lon="11.330844025853903"><ele>756.0</ele><time>2026-05-01T09:47:18Z</time></trkpt><trkpt lat="44.25869099250557" lon="11.330918046636398"><ele>756.0</ele><time>2026-05-01T09:47:19Z</time></trkpt><trkpt lat="44.25856411941482" lon="11.331002896905714"><ele>756.0</ele><time>2026-05-01T09:47:20Z</time></trkpt><trkpt lat="44.258434322080504" lon="11.33108409495749"><ele>756.0</ele><time>2026-05-01T09:47:21Z</time></trkpt><trkpt lat="44.25830130977997" lon="11.331164225087198"><ele>756.0</ele><time>2026-05-01T09:47:22Z</time></trkpt><trkpt lat="44.25816675222966" lon="11.331235834249178"><ele>756.0</ele><time>2026-05-01T09:47:23Z</time></trkpt><trkpt lat="44.258021313397734" lon="11.33128317891328"><ele>756.0</ele><time>2026-05-01T09:47:24Z</time></trkpt><trkpt lat="44.25787435160257" lon="11.331317992534393"><ele>756.0</ele><time>2026-05-01T09:47:25Z</time></trkpt><trkpt lat="44.25772524329928" lon="11.331307849100538"><ele>756.0</ele><time>2026-05-01T09:47:26Z</time></trkpt><trkpt lat="44.25757766374218" lon="11.331320197244073"><ele>756.0</ele><time>2026-05-01T09:47:27Z</time></trkpt><trkpt lat="44.25743069104919" lon="11.331291152582352"><ele>756.0</ele><time>2026-05-01T09:47:28Z</time></trkpt><trkpt lat="44.257284791114394" lon="11.33126275159348"><ele>756.0</ele><time>2026-05-01T09:47:29Z</time></trkpt><trkpt lat="44.25713917335937" lon="11.331245705753735"><ele>757.0</ele><time>2026-05-01T09:47:30Z</time></trkpt><trkpt lat="44.25698901922787" lon="11.331247765378631"><ele>758.0</ele><time>2026-05-01T09:47:31Z</time></trkpt><trkpt lat="44.256832375670946" lon="11.331275723615068"><ele>759.0</ele><time>2026-05-01T09:47:32Z</time></trkpt><trkpt lat="44.25667607900522" lon="11.331322818158547"><ele>759.0</ele><time>2026-05-01T09:47:33Z</time></trkpt><trkpt lat="44.25651954651638" lon="11.331376335847926"><ele>759.0</ele><time>2026-05-01T09:47:34Z</time></trkpt><trkpt lat="44.25636099219842" lon="11.331431186832566"><ele>759.0</ele><time>2026-05-01T09:47:35Z</time></trkpt><trkpt lat="44.25620513537997" lon="11.331492260667874"><ele>763.75</ele><time>2026-05-01T09:47:36Z</time></trkpt><trkpt lat="44.25605706485429" lon="11.331554196148144"><ele>768.5</ele><time>2026-05-01T09:47:37Z</time></trkpt><trkpt lat="44.25591659216387" lon="11.331621915851276"><ele>773.25</ele><time>2026-05-01T09:47:38Z</time></trkpt><trkpt lat="44.25578469166316" lon="11.331691266034449"><ele>778.0</ele><time>2026-05-01T09:47:39Z</time></trkpt><trkpt lat="44.25566131209653" lon="11.331764953239668"><ele>776.0</ele><time>2026-05-01T09:47:40Z</time></trkpt><trkpt lat="44.25554322095551" lon="11.331858981164922"><ele>774.0</ele><time>2026-05-01T09:47:41Z</time></trkpt><trkpt lat="44.255432612876916" lon="11.331975548128984"><ele>772.0</ele><time>2026-05-01T09:47:42Z</time></trkpt><trkpt lat="44.25533264309883" lon="11.3321234543906"><ele>770.0</ele><time>2026-05-01T09:47:43Z</time></trkpt><trkpt lat="44.25526083648226" lon="11.332302320450736"><ele>770.0</ele><time>2026-05-01T09:47:44Z</time></trkpt><trkpt lat="44.25522692475343" lon="11.332498366740802"><ele>770.0</ele><time>2026-05-01T09:47:45Z</time></trkpt><trkpt lat="44.25522219288852" lon="11.332689926193162"><ele>770.0</ele><time>2026-05-01T09:47:46Z</time></trkpt><trkpt lat="44.2552165934749" lon="11.332867943768116"><ele>770.0</ele><time>2026-05-01T09:47:47Z</time></trkpt><trkpt lat="44.25516150821175" lon="11.333011875383157"><ele>769.75</ele><time>2026-05-01T09:47:48Z</time></trkpt><trkpt lat="44.25510025038684" lon="11.333152049581216"><ele>769.5</ele><time>2026-05-01T09:47:49Z</time></trkpt><trkpt lat="44.25499244982158" lon="11.333247634463838"><ele>769.25</ele><time>2026-05-01T09:47:50Z</time></trkpt><trkpt lat="44.25486284167125" lon="11.333258573382953"><ele>769.0</ele><time>2026-05-01T09:47:51Z</time></trkpt><trkpt lat="44.25473715186704" lon="11.333302003707466"><ele>769.0</ele><time>2026-05-01T09:47:52Z</time></trkpt><trkpt lat="44.25460092828905" lon="11.333303850543283"><ele>769.0</ele><time>2026-05-01T09:47:53Z</time></trkpt><trkpt lat="44.25446313685828" lon="11.333314697024344"><ele>769.0</ele><time>2026-05-01T09:47:54Z</time></trkpt><trkpt lat="44.25432157627671" lon="11.333316246981877"><ele>769.0</ele><time>2026-05-01T09:47:55Z</time></trkpt><trkpt lat="44.254182139815875" lon="11.33328842805285"><ele>769.0</ele><time>2026-05-01T09:47:56Z</time></trkpt><trkpt lat="44.25405111624264" lon="11.333230310597228"><ele>769.0</ele><time>2026-05-01T09:47:57Z</time></trkpt><trkpt lat="44.25392581530718" lon="11.333160122761619"><ele>769.0</ele><time>2026-05-01T09:47:58Z</time></trkpt><trkpt lat="44.253796185363974" lon="11.33309683201798"><ele>769.0</ele><time>2026-05-01T09:47:59Z</time></trkpt><trkpt lat="44.25366790733381" lon="11.333041109023672"><ele>768.25</ele><time>2026-05-01T09:48:00Z</time></trkpt><trkpt lat="44.25353968516235" lon="11.332984626500187"><ele>767.5</ele><time>2026-05-01T09:48:01Z</time></trkpt><trkpt lat="44.25341751681879" lon="11.332925095894481"><ele>766.75</ele><time>2026-05-01T09:48:02Z</time></trkpt><trkpt lat="44.253296214375794" lon="11.332867441506329"><ele>766.0</ele><time>2026-05-01T09:48:03Z</time></trkpt><trkpt lat="44.25317632433129" lon="11.332821958049356"><ele>769.25</ele><time>2026-05-01T09:48:04Z</time></trkpt><trkpt lat="44.253058082240514" lon="11.332784822684287"><ele>772.5</ele><time>2026-05-01T09:48:05Z</time></trkpt><trkpt lat="44.2529416633988" lon="11.332752922865492"><ele>775.75</ele><time>2026-05-01T09:48:06Z</time></trkpt><trkpt lat="44.25282661052664" lon="11.332721655626461"><ele>779.0</ele><time>2026-05-01T09:48:07Z</time></trkpt><trkpt lat="44.252707686124396" lon="11.332694983653877"><ele>779.0</ele><time>2026-05-01T09:48:08Z</time></trkpt><trkpt lat="44.25259063201061" lon="11.332663930153524"><ele>779.0</ele><time>2026-05-01T09:48:08.999Z</time></trkpt><trkpt lat="44.25247313867107" lon="11.332624612835419"><ele>779.0</ele><time>2026-05-01T09:48:09.999Z</time></trkpt><trkpt lat="44.2523548444838" lon="11.332585897150835"><ele>779.0</ele><time>2026-05-01T09:48:10.999Z</time></trkpt><trkpt lat="44.25223529710099" lon="11.332545831732055"><ele>779.75</ele><time>2026-05-01T09:48:11.999Z</time></trkpt><trkpt lat="44.252111888312434" lon="11.332495245496483"><ele>780.5</ele><time>2026-05-01T09:48:12.999Z</time></trkpt><trkpt lat="44.25198768013414" lon="11.33244257684343"><ele>781.25</ele><time>2026-05-01T09:48:13.999Z</time></trkpt><trkpt lat="44.251861767057854" lon="11.332393691776932"><ele>782.0</ele><time>2026-05-01T09:48:14.999Z</time></trkpt><trkpt lat="44.25173287621436" lon="11.332352034422307"><ele>782.0</ele><time>2026-05-01T09:48:15.999Z</time></trkpt><trkpt lat="44.2515976131883" lon="11.33233781250026"><ele>782.0</ele><time>2026-05-01T09:48:16.999Z</time></trkpt><trkpt lat="44.25146408933338" lon="11.332377946667055"><ele>782.0</ele><time>2026-05-01T09:48:17.999Z</time></trkpt><trkpt lat="44.25134481572319" lon="11.332481073632552"><ele>782.0</ele><time>2026-05-01T09:48:18.999Z</time></trkpt><trkpt lat="44.25124757823449" lon="11.33263657341235"><ele>782.5</ele><time>2026-05-01T09:48:19.999Z</time></trkpt><trkpt lat="44.25117277369556" lon="11.332804011931856"><ele>783.0</ele><time>2026-05-01T09:48:20.999Z</time></trkpt><trkpt lat="44.25107993740903" lon="11.332943460906371"><ele>783.5</ele><time>2026-05-01T09:48:21.999Z</time></trkpt><trkpt lat="44.25095934789485" lon="11.333034256069052"><ele>784.0</ele><time>2026-05-01T09:48:22.999Z</time></trkpt><trkpt lat="44.250827142705496" lon="11.333092295940139"><ele>784.0</ele><time>2026-05-01T09:48:23.999Z</time></trkpt><trkpt lat="44.25069963574277" lon="11.333149279195894"><ele>784.0</ele><time>2026-05-01T09:48:24.999Z</time></trkpt><trkpt lat="44.250584131708784" lon="11.333228896348853"><ele>784.0</ele><time>2026-05-01T09:48:25.999Z</time></trkpt><trkpt lat="44.250479733457745" lon="11.33333384264794"><ele>784.0</ele><time>2026-05-01T09:48:26.999Z</time></trkpt><trkpt lat="44.25038334087043" lon="11.333453857470586"><ele>782.75</ele><time>2026-05-01T09:48:27.999Z</time></trkpt><trkpt lat="44.25028764981336" lon="11.33356911027931"><ele>781.5</ele><time>2026-05-01T09:48:28.999Z</time></trkpt><trkpt lat="44.25019290880903" lon="11.33366942603296"><ele>780.25</ele><time>2026-05-01T09:48:29.999Z</time></trkpt><trkpt lat="44.250097735445415" lon="11.333763661700115"><ele>779.0</ele><time>2026-05-01T09:48:30.999Z</time></trkpt><trkpt lat="44.250013517080816" lon="11.333849130953313"><ele>779.6</ele><time>2026-05-01T09:48:31.999Z</time></trkpt><trkpt lat="44.24993876266178" lon="11.333926337461175"><ele>780.2</ele><time>2026-05-01T09:48:32.999Z</time></trkpt><trkpt lat="44.249865421400635" lon="11.333998971268334"><ele>780.8000000000001</ele><time>2026-05-01T09:48:33.999Z</time></trkpt><trkpt lat="44.249788091990986" lon="11.334067536014576"><ele>781.4000000000001</ele><time>2026-05-01T09:48:34.999Z</time></trkpt><trkpt lat="44.24970402350512" lon="11.334121969624736"><ele>782.0</ele><time>2026-05-01T09:48:35.999Z</time></trkpt><trkpt lat="44.2496075649967" lon="11.33414663288701"><ele>782.0</ele><time>2026-05-01T09:48:36.999Z</time></trkpt><trkpt lat="44.24950776687276" lon="11.33412677388033"><ele>782.0</ele><time>2026-05-01T09:48:37.999Z</time></trkpt><trkpt lat="44.249412727513295" lon="11.334067804688472"><ele>782.0</ele><time>2026-05-01T09:48:38.999Z</time></trkpt><trkpt lat="44.249316648632245" lon="11.333975646349879"><ele>782.0</ele><time>2026-05-01T09:48:39.999Z</time></trkpt><trkpt lat="44.249221327193055" lon="11.33386029184125"><ele>782.0</ele><time>2026-05-01T09:48:40.999Z</time></trkpt><trkpt lat="44.249127310932025" lon="11.333728690096727"><ele>781.75</ele><time>2026-05-01T09:48:41.999Z</time></trkpt><trkpt lat="44.24903900085669" lon="11.333588491923837"><ele>781.5</ele><time>2026-05-01T09:48:42.999Z</time></trkpt><trkpt lat="44.24895474330648" lon="11.333439585221402"><ele>781.25</ele><time>2026-05-01T09:48:43.999Z</time></trkpt><trkpt lat="44.24887952242473" lon="11.333275048940001"><ele>781.0</ele><time>2026-05-01T09:48:44.999Z</time></trkpt><trkpt lat="44.24882658452323" lon="11.333088304634039"><ele>783.75</ele><time>2026-05-01T09:48:45.999Z</time></trkpt><trkpt lat="44.248787877073816" lon="11.332893335972638"><ele>786.5</ele><time>2026-05-01T09:48:46.999Z</time></trkpt><trkpt lat="44.24875113387234" lon="11.33270001018189"><ele>789.25</ele><time>2026-05-01T09:48:47.999Z</time></trkpt><trkpt lat="44.24872288669169" lon="11.33251603767142"><ele>792.0</ele><time>2026-05-01T09:48:48.999Z</time></trkpt><trkpt lat="44.24866603332959" lon="11.332361929927735"><ele>792.0</ele><time>2026-05-01T09:48:49.999Z</time></trkpt><trkpt lat="44.24856125443178" lon="11.332266209197744"><ele>792.0</ele><time>2026-05-01T09:48:50.999Z</time></trkpt><trkpt lat="44.248429233235036" lon="11.33223503512057"><ele>792.0</ele><time>2026-05-01T09:48:51.999Z</time></trkpt><trkpt lat="44.24828360990065" lon="11.332303640173738"><ele>792.0</ele><time>2026-05-01T09:48:52.999Z</time></trkpt><trkpt lat="44.24814256561526" lon="11.332403028993625"><ele>792.5</ele><time>2026-05-01T09:48:53.999Z</time></trkpt><trkpt lat="44.247996634112255" lon="11.33243839291099"><ele>793.0</ele><time>2026-05-01T09:48:55Z</time></trkpt><trkpt lat="44.24785735839095" lon="11.332420568673827"><ele>793.5</ele><time>2026-05-01T09:48:56Z</time></trkpt><trkpt lat="44.24773263160954" lon="11.33233596450011"><ele>794.0</ele><time>2026-05-01T09:48:57Z</time></trkpt><trkpt lat="44.24760186687379" lon="11.332249310439583"><ele>792.75</ele><time>2026-05-01T09:48:58Z</time></trkpt><trkpt lat="44.24748782221839" lon="11.332134578847919"><ele>791.5</ele><time>2026-05-01T09:48:59Z</time></trkpt><trkpt lat="44.24737526817867" lon="11.332033211182486"><ele>790.25</ele><time>2026-05-01T09:49:00Z</time></trkpt><trkpt lat="44.247266195832196" lon="11.331951385909061"><ele>789.0</ele><time>2026-05-01T09:49:01Z</time></trkpt><trkpt lat="44.247152890128575" lon="11.33190141607845"><ele>788.75</ele><time>2026-05-01T09:49:02Z</time></trkpt><trkpt lat="44.24703536903712" lon="11.331918243453229"><ele>788.5</ele><time>2026-05-01T09:49:03Z</time></trkpt><trkpt lat="44.246925261819456" lon="11.332007602802848"><ele>788.25</ele><time>2026-05-01T09:49:04Z</time></trkpt><trkpt lat="44.246850345342715" lon="11.332164494006706"><ele>788.0</ele><time>2026-05-01T09:49:05Z</time></trkpt><trkpt lat="44.24682017754356" lon="11.332354452398544"><ele>788.0</ele><time>2026-05-01T09:49:06Z</time></trkpt><trkpt lat="44.24683087694048" lon="11.332555734355557"><ele>788.0</ele><time>2026-05-01T09:49:07Z</time></trkpt><trkpt lat="44.24683268702912" lon="11.33275431771553"><ele>788.0</ele><time>2026-05-01T09:49:08Z</time></trkpt><trkpt lat="44.246732339350665" lon="11.332875677939976"><ele>788.0</ele><time>2026-05-01T09:49:09Z</time></trkpt><trkpt lat="44.24662013382685" lon="11.332967542031621"><ele>790.3333333333334</ele><time>2026-05-01T09:49:10Z</time></trkpt><trkpt lat="44.24647891959233" lon="11.333070211845294"><ele>792.6666666666667</ele><time>2026-05-01T09:49:11Z</time></trkpt><trkpt lat="44.246342479973976" lon="11.333187983531701"><ele>795.0</ele><time>2026-05-01T09:49:12Z</time></trkpt><trkpt lat="44.24619440029966" lon="11.333285281331555"><ele>795.0</ele><time>2026-05-01T09:49:13Z</time></trkpt><trkpt lat="44.24604958814612" lon="11.333391879913354"><ele>795.0</ele><time>2026-05-01T09:49:14Z</time></trkpt><trkpt lat="44.24590813283469" lon="11.33349722543171"><ele>795.0</ele><time>2026-05-01T09:49:15Z</time></trkpt><trkpt lat="44.24577934164044" lon="11.333599380071085"><ele>795.0</ele><time>2026-05-01T09:49:16Z</time></trkpt><trkpt lat="44.2456541037977" lon="11.333639583464038"><ele>795.0</ele><time>2026-05-01T09:49:17Z</time></trkpt><trkpt lat="44.24553753222537" lon="11.333645050726012"><ele>795.0</ele><time>2026-05-01T09:49:18Z</time></trkpt><trkpt lat="44.24543778855537" lon="11.333576533777942"><ele>795.0</ele><time>2026-05-01T09:49:19Z</time></trkpt><trkpt lat="44.24534103011304" lon="11.333494251329483"><ele>794.5</ele><time>2026-05-01T09:49:20Z</time></trkpt><trkpt lat="44.24526219883691" lon="11.333366038789059"><ele>794.0</ele><time>2026-05-01T09:49:21Z</time></trkpt><trkpt lat="44.24518195875744" lon="11.333233145023975"><ele>793.5</ele><time>2026-05-01T09:49:22Z</time></trkpt><trkpt lat="44.24510360717706" lon="11.333092619124397"><ele>793.0</ele><time>2026-05-01T09:49:23Z</time></trkpt><trkpt lat="44.245039877023295" lon="11.332937376771877"><ele>793.0</ele><time>2026-05-01T09:49:24Z</time></trkpt><trkpt lat="44.244999621387514" lon="11.332764412099445"><ele>793.0</ele><time>2026-05-01T09:49:25Z</time></trkpt><trkpt lat="44.24498342026009" lon="11.332584060140501"><ele>793.0</ele><time>2026-05-01T09:49:26Z</time></trkpt><trkpt lat="44.244972728671925" lon="11.332400302795678"><ele>793.0</ele><time>2026-05-01T09:49:27Z</time></trkpt><trkpt lat="44.24494735148016" lon="11.332217621617145"><ele>794.25</ele><time>2026-05-01T09:49:28Z</time></trkpt><trkpt lat="44.24488763958705" lon="11.33204780310514"><ele>795.5</ele><time>2026-05-01T09:49:29Z</time></trkpt><trkpt lat="44.24480022125662" lon="11.33189064190504"><ele>796.75</ele><time>2026-05-01T09:49:30Z</time></trkpt><trkpt lat="44.24470536046022" lon="11.331742892526439"><ele>798.0</ele><time>2026-05-01T09:49:31Z</time></trkpt><trkpt lat="44.24459880275223" lon="11.331612844561741"><ele>798.0</ele><time>2026-05-01T09:49:32Z</time></trkpt><trkpt lat="44.24446998109039" lon="11.331548270966758"><ele>798.0</ele><time>2026-05-01T09:49:33Z</time></trkpt><trkpt lat="44.24433505823769" lon="11.33156283991259"><ele>798.0</ele><time>2026-05-01T09:49:34Z</time></trkpt><trkpt lat="44.244204083075594" lon="11.33165054564425"><ele>798.0</ele><time>2026-05-01T09:49:35Z</time></trkpt><trkpt lat="44.244081334402175" lon="11.331765412127572"><ele>796.5</ele><time>2026-05-01T09:49:36Z</time></trkpt><trkpt lat="44.24395908579162" lon="11.331872731883154"><ele>795.0</ele><time>2026-05-01T09:49:37Z</time></trkpt><trkpt lat="44.243815010826516" lon="11.331890778107109"><ele>793.5</ele><time>2026-05-01T09:49:38Z</time></trkpt><trkpt lat="44.243665254224645" lon="11.331887812357369"><ele>792.0</ele><time>2026-05-01T09:49:39Z</time></trkpt><trkpt lat="44.24350661861738" lon="11.331845110823865"><ele>792.0</ele><time>2026-05-01T09:49:40Z</time></trkpt><trkpt lat="44.24335110271389" lon="11.33182074264069"><ele>792.0</ele><time>2026-05-01T09:49:41Z</time></trkpt><trkpt lat="44.24319534572309" lon="11.331806453112538"><ele>792.0</ele><time>2026-05-01T09:49:42Z</time></trkpt><trkpt lat="44.24304281118199" lon="11.331810794132776"><ele>792.3333333333333</ele><time>2026-05-01T09:49:43Z</time></trkpt><trkpt lat="44.24289586439097" lon="11.331873128368358"><ele>792.6666666666666</ele><time>2026-05-01T09:49:44Z</time></trkpt><trkpt lat="44.242764374113385" lon="11.332004152276596"><ele>793.0</ele><time>2026-05-01T09:49:45Z</time></trkpt><trkpt lat="44.24263656073647" lon="11.332138897629358"><ele>793.0</ele><time>2026-05-01T09:49:46Z</time></trkpt><trkpt lat="44.24248823039371" lon="11.332133704617668"><ele>793.0</ele><time>2026-05-01T09:49:47Z</time></trkpt><trkpt lat="44.24233644282251" lon="11.332081044214508"><ele>793.0</ele><time>2026-05-01T09:49:48Z</time></trkpt><trkpt lat="44.24218426413834" lon="11.331989109187615"><ele>795.6666666666666</ele><time>2026-05-01T09:49:49Z</time></trkpt><trkpt lat="44.24204219683714" lon="11.33187168504123"><ele>798.3333333333333</ele><time>2026-05-01T09:49:50Z</time></trkpt><trkpt lat="44.24192504508663" lon="11.331729551120144"><ele>801.0</ele><time>2026-05-01T09:49:51Z</time></trkpt><trkpt lat="44.24182164904416" lon="11.331578923463072"><ele>801.0</ele><time>2026-05-01T09:49:52Z</time></trkpt><trkpt lat="44.241725462295015" lon="11.331431886043047"><ele>801.0</ele><time>2026-05-01T09:49:53Z</time></trkpt><trkpt lat="44.24162386917078" lon="11.331295383724227"><ele>801.0</ele><time>2026-05-01T09:49:54Z</time></trkpt><trkpt lat="44.24150475219799" lon="11.331202051122792"><ele>801.0</ele><time>2026-05-01T09:49:55Z</time></trkpt><trkpt lat="44.24137097629274" lon="11.331179951700523"><ele>800.25</ele><time>2026-05-01T09:49:56Z</time></trkpt><trkpt lat="44.24123983280939" lon="11.331232336194246"><ele>799.5</ele><time>2026-05-01T09:49:57Z</time></trkpt><trkpt lat="44.24112397381951" lon="11.331347016500345"><ele>798.75</ele><time>2026-05-01T09:49:58Z</time></trkpt><trkpt lat="44.241017384377635" lon="11.331478591165933"><ele>798.0</ele><time>2026-05-01T09:49:59Z</time></trkpt><trkpt lat="44.24092504421501" lon="11.331622108319923"><ele>798.0</ele><time>2026-05-01T09:50:00Z</time></trkpt><trkpt lat="44.2408537967621" lon="11.331786623367726"><ele>798.0</ele><time>2026-05-01T09:50:01Z</time></trkpt><trkpt lat="44.240785047217805" lon="11.331948596698398"><ele>798.0</ele><time>2026-05-01T09:50:02Z</time></trkpt><trkpt lat="44.240747085308236" lon="11.332127960316166"><ele>798.0</ele><time>2026-05-01T09:50:03Z</time></trkpt><trkpt lat="44.24075508397749" lon="11.332319214050079"><ele>800.25</ele><time>2026-05-01T09:50:04Z</time></trkpt><trkpt lat="44.240776910777136" lon="11.332506232287852"><ele>802.5</ele><time>2026-05-01T09:50:05Z</time></trkpt><trkpt lat="44.24081697630274" lon="11.332684570463663"><ele>804.75</ele><time>2026-05-01T09:50:05.999Z</time></trkpt><trkpt lat="44.24085480552598" lon="11.332857506575712"><ele>807.0</ele><time>2026-05-01T09:50:06.999Z</time></trkpt><trkpt lat="44.240888810906846" lon="11.333023607991057"><ele>807.4000000000001</ele><time>2026-05-01T09:50:07.999Z</time></trkpt><trkpt lat="44.240914194852735" lon="11.33317918710567"><ele>807.8000000000001</ele><time>2026-05-01T09:50:08.999Z</time></trkpt><trkpt lat="44.24092839524534" lon="11.33333030407796"><ele>808.2</ele><time>2026-05-01T09:50:09.999Z</time></trkpt><trkpt lat="44.240925203409745" lon="11.333480382569068"><ele>808.6</ele><time>2026-05-01T09:50:10.999Z</time></trkpt><trkpt lat="44.24087117298324" lon="11.333607994049695"><ele>809.0</ele><time>2026-05-01T09:50:11.999Z</time></trkpt><trkpt lat="44.24080721634427" lon="11.333711613482214"><ele>809.0</ele><time>2026-05-01T09:50:12.999Z</time></trkpt><trkpt lat="44.24072274917455" lon="11.333793478307646"><ele>809.0</ele><time>2026-05-01T09:50:13.999Z</time></trkpt><trkpt lat="44.24060703241268" lon="11.333809536267614"><ele>809.0</ele><time>2026-05-01T09:50:14.999Z</time></trkpt><trkpt lat="44.2404868047783" lon="11.333772650068871"><ele>809.0</ele><time>2026-05-01T09:50:15.999Z</time></trkpt><trkpt lat="44.24036523735209" lon="11.33369346384274"><ele>808.6666666666667</ele><time>2026-05-01T09:50:16.999Z</time></trkpt><trkpt lat="44.24023782732475" lon="11.333594671681565"><ele>808.3333333333333</ele><time>2026-05-01T09:50:17.999Z</time></trkpt><trkpt lat="44.24010015836835" lon="11.33349304280428"><ele>808.0</ele><time>2026-05-01T09:50:18.999Z</time></trkpt><trkpt lat="44.23995069933585" lon="11.333394107382288"><ele>808.6666666666666</ele><time>2026-05-01T09:50:19.999Z</time></trkpt><trkpt lat="44.23979124915364" lon="11.333288735100814"><ele>809.3333333333333</ele><time>2026-05-01T09:50:20.999Z</time></trkpt><trkpt lat="44.23964154848563" lon="11.333191419073227"><ele>810.0</ele><time>2026-05-01T09:50:21.999Z</time></trkpt><trkpt lat="44.23948059443775" lon="11.333086249429073"><ele>807.3333333333333</ele><time>2026-05-01T09:50:22.999Z</time></trkpt><trkpt lat="44.2393262970252" lon="11.332979500387077"><ele>804.6666666666666</ele><time>2026-05-01T09:50:23.999Z</time></trkpt><trkpt lat="44.23916881906244" lon="11.332871535030225"><ele>802.0</ele><time>2026-05-01T09:50:24.999Z</time></trkpt><trkpt lat="44.23901728438494" lon="11.332772379273143"><ele>804.0</ele><time>2026-05-01T09:50:25.999Z</time></trkpt><trkpt lat="44.238862625986776" lon="11.332678210004028"><ele>806.0</ele><time>2026-05-01T09:50:26.999Z</time></trkpt><trkpt lat="44.23870513775329" lon="11.332575718460866"><ele>808.0</ele><time>2026-05-01T09:50:27.999Z</time></trkpt><trkpt lat="44.23855750647634" lon="11.332482643188094"><ele>808.0</ele><time>2026-05-01T09:50:28.999Z</time></trkpt><trkpt lat="44.238422654148" lon="11.332396224729685"><ele>808.0</ele><time>2026-05-01T09:50:29.999Z</time></trkpt><trkpt lat="44.23829506228153" lon="11.332316445260917"><ele>808.0</ele><time>2026-05-01T09:50:30.999Z</time></trkpt><trkpt lat="44.2381791097556" lon="11.332242641114679"><ele>808.0</ele><time>2026-05-01T09:50:31.999Z</time></trkpt><trkpt lat="44.238071063877506" lon="11.332177227409913"><ele>806.5</ele><time>2026-05-01T09:50:32.999Z</time></trkpt><trkpt lat="44.23797306532397" lon="11.33211836948608"><ele>805.0</ele><time>2026-05-01T09:50:33.999Z</time></trkpt><trkpt lat="44.23786832206236" lon="11.332086251850333"><ele>803.5</ele><time>2026-05-01T09:50:34.999Z</time></trkpt><trkpt lat="44.237753168391095" lon="11.332103550864218"><ele>802.0</ele><time>2026-05-01T09:50:35.999Z</time></trkpt><trkpt lat="44.23764882829905" lon="11.332193270335567"><ele>804.75</ele><time>2026-05-01T09:50:36.999Z</time></trkpt><trkpt lat="44.23755656705063" lon="11.332315444449266"><ele>807.5</ele><time>2026-05-01T09:50:37.999Z</time></trkpt><trkpt lat="44.23747009054599" lon="11.332428154960581"><ele>810.25</ele><time>2026-05-01T09:50:38.999Z</time></trkpt><trkpt lat="44.23737682416675" lon="11.332503306709706"><ele>813.0</ele><time>2026-05-01T09:50:39.999Z</time></trkpt><trkpt lat="44.237268446053704" lon="11.332509517825708"><ele>815.8</ele><time>2026-05-01T09:50:40.999Z</time></trkpt><trkpt lat="44.237170067278264" lon="11.332463822679397"><ele>818.5999999999999</ele><time>2026-05-01T09:50:41.999Z</time></trkpt><trkpt lat="44.23708309071478" lon="11.33237923801962"><ele>821.4000000000001</ele><time>2026-05-01T09:50:42.999Z</time></trkpt><trkpt lat="44.23702889061727" lon="11.332244057784504"><ele>824.2</ele><time>2026-05-01T09:50:43.999Z</time></trkpt><trkpt lat="44.237007282747065" lon="11.332079270588702"><ele>827.0</ele><time>2026-05-01T09:50:44.999Z</time></trkpt><trkpt lat="44.23698851493406" lon="11.33189345603728"><ele>827.0</ele><time>2026-05-01T09:50:45.999Z</time></trkpt><trkpt lat="44.23701967720452" lon="11.331700624278488"><ele>827.0</ele><time>2026-05-01T09:50:46.999Z</time></trkpt><trkpt lat="44.237057534480364" lon="11.331503359045861"><ele>827.0</ele><time>2026-05-01T09:50:47.999Z</time></trkpt><trkpt lat="44.23709198033294" lon="11.331311456327827"><ele>827.0</ele><time>2026-05-01T09:50:48.999Z</time></trkpt><trkpt lat="44.23712436622402" lon="11.331118935847272"><ele>824.5</ele><time>2026-05-01T09:50:49.999Z</time></trkpt><trkpt lat="44.23713611814505" lon="11.330918416670041"><ele>822.0</ele><time>2026-05-01T09:50:50.999Z</time></trkpt><trkpt lat="44.237104746224375" lon="11.330723891640222"><ele>819.5</ele><time>2026-05-01T09:50:51.999Z</time></trkpt><trkpt lat="44.23702623222291" lon="11.33054689686724"><ele>817.0</ele><time>2026-05-01T09:50:52.999Z</time></trkpt><trkpt lat="44.23691757436658" lon="11.330403776272576"><ele>817.5</ele><time>2026-05-01T09:50:53.999Z</time></trkpt><trkpt lat="44.236796788363876" lon="11.330295881316726"><ele>818.0</ele><time>2026-05-01T09:50:54.999Z</time></trkpt><trkpt lat="44.23666208917791" lon="11.330214491094194"><ele>818.5</ele><time>2026-05-01T09:50:55.999Z</time></trkpt><trkpt lat="44.236522030236046" lon="11.33014173882202"><ele>819.0</ele><time>2026-05-01T09:50:56.999Z</time></trkpt><trkpt lat="44.236391823379755" lon="11.330075820368474"><ele>819.0</ele><time>2026-05-01T09:50:57.999Z</time></trkpt><trkpt lat="44.23626288707931" lon="11.329971600474773"><ele>819.0</ele><time>2026-05-01T09:50:58.999Z</time></trkpt><trkpt lat="44.23614050437654" lon="11.329849237152331"><ele>819.0</ele><time>2026-05-01T09:50:59.999Z</time></trkpt><trkpt lat="44.23603341160344" lon="11.329697511751013"><ele>816.4000000000001</ele><time>2026-05-01T09:51:01Z</time></trkpt><trkpt lat="44.23592535401095" lon="11.329597092300723"><ele>813.8</ele><time>2026-05-01T09:51:02Z</time></trkpt><trkpt lat="44.235842183231114" lon="11.329517889367832"><ele>811.2</ele><time>2026-05-01T09:51:03Z</time></trkpt><trkpt lat="44.23573791888094" lon="11.32948211922027"><ele>808.5999999999999</ele><time>2026-05-01T09:51:04Z</time></trkpt><trkpt lat="44.235632582833915" lon="11.329480256994422"><ele>806.0</ele><time>2026-05-01T09:51:05Z</time></trkpt><trkpt lat="44.23552739755869" lon="11.329521503290525"><ele>807.25</ele><time>2026-05-01T09:51:06Z</time></trkpt><trkpt lat="44.23542014213208" lon="11.329608281855768"><ele>808.5</ele><time>2026-05-01T09:51:07Z</time></trkpt><trkpt lat="44.23530914593281" lon="11.329727787342362"><ele>809.75</ele><time>2026-05-01T09:51:08Z</time></trkpt><trkpt lat="44.235202005650656" lon="11.329846017528308"><ele>811.0</ele><time>2026-05-01T09:51:09Z</time></trkpt><trkpt lat="44.23510005542084" lon="11.329955728688565"><ele>811.0</ele><time>2026-05-01T09:51:10Z</time></trkpt><trkpt lat="44.235002494471495" lon="11.330052819524484"><ele>811.0</ele><time>2026-05-01T09:51:11Z</time></trkpt><trkpt lat="44.234914091512096" lon="11.33014928721724"><ele>811.0</ele><time>2026-05-01T09:51:12Z</time></trkpt><trkpt lat="44.23483518789269" lon="11.330248959149182"><ele>811.0</ele><time>2026-05-01T09:51:13Z</time></trkpt><trkpt lat="44.234764787451965" lon="11.330357503155735"><ele>811.0</ele><time>2026-05-01T09:51:14Z</time></trkpt><trkpt lat="44.23469973944038" lon="11.330478086535194"><ele>809.75</ele><time>2026-05-01T09:51:15Z</time></trkpt><trkpt lat="44.23464072102248" lon="11.330610842301443"><ele>808.5</ele><time>2026-05-01T09:51:16Z</time></trkpt><trkpt lat="44.23459060396835" lon="11.330762340336868"><ele>807.25</ele><time>2026-05-01T09:51:17Z</time></trkpt><trkpt lat="44.23454151631738" lon="11.330931743998915"><ele>806.0</ele><time>2026-05-01T09:51:18Z</time></trkpt><trkpt lat="44.23449934320285" lon="11.331132101866821"><ele>806.0</ele><time>2026-05-01T09:51:19Z</time></trkpt><trkpt lat="44.2344213660476" lon="11.331339888472776"><ele>806.0</ele><time>2026-05-01T09:51:20Z</time></trkpt><trkpt lat="44.23436622709042" lon="11.331525626085174"><ele>806.0</ele><time>2026-05-01T09:51:21Z</time></trkpt><trkpt lat="44.23431538780825" lon="11.331683167411645"><ele>806.0</ele><time>2026-05-01T09:51:22Z</time></trkpt><trkpt lat="44.23426166026614" lon="11.331814521887456"><ele>808.0</ele><time>2026-05-01T09:51:23Z</time></trkpt><trkpt lat="44.234202654360104" lon="11.331934553397957"><ele>810.0</ele><time>2026-05-01T09:51:24Z</time></trkpt><trkpt lat="44.23410347405289" lon="11.332003932520424"><ele>812.0</ele><time>2026-05-01T09:51:25Z</time></trkpt><trkpt lat="44.2339957565452" lon="11.332047193899268"><ele>814.0</ele><time>2026-05-01T09:51:26Z</time></trkpt><trkpt lat="44.23389156765814" lon="11.332047750191249"><ele>816.0</ele><time>2026-05-01T09:51:27Z</time></trkpt><trkpt lat="44.233795113238195" lon="11.33199816676269"><ele>816.0</ele><time>2026-05-01T09:51:28Z</time></trkpt><trkpt lat="44.233719988248176" lon="11.331893480403167"><ele>816.0</ele><time>2026-05-01T09:51:29Z</time></trkpt><trkpt lat="44.23366981699564" lon="11.331726130395587"><ele>816.0</ele><time>2026-05-01T09:51:30Z</time></trkpt><trkpt lat="44.23363123060839" lon="11.331551030307345"><ele>816.0</ele><time>2026-05-01T09:51:31Z</time></trkpt><trkpt lat="44.23357870646216" lon="11.331388761835333"><ele>816.0</ele><time>2026-05-01T09:51:32Z</time></trkpt><trkpt lat="44.23349583280816" lon="11.331268762391714"><ele>816.0</ele><time>2026-05-01T09:51:33Z</time></trkpt><trkpt lat="44.23338839064267" lon="11.331188201988223"><ele>816.0</ele><time>2026-05-01T09:51:34Z</time></trkpt><trkpt lat="44.233276868549474" lon="11.331117217936907"><ele>816.0</ele><time>2026-05-01T09:51:35Z</time></trkpt><trkpt lat="44.23318685465431" lon="11.331012595586774"><ele>816.0</ele><time>2026-05-01T09:51:36Z</time></trkpt><trkpt lat="44.233140178268144" lon="11.330864226446405"><ele>816.0</ele><time>2026-05-01T09:51:37Z</time></trkpt><trkpt lat="44.233133161543584" lon="11.330695644706013"><ele>816.0</ele><time>2026-05-01T09:51:38Z</time></trkpt><trkpt lat="44.23314342585666" lon="11.330540919857375"><ele>816.0</ele><time>2026-05-01T09:51:39Z</time></trkpt><trkpt lat="44.23313924972213" lon="11.330392689237476"><ele>819.0</ele><time>2026-05-01T09:51:40Z</time></trkpt><trkpt lat="44.233090012685594" lon="11.330253278838946"><ele>822.0</ele><time>2026-05-01T09:51:41Z</time></trkpt><trkpt lat="44.23300009994877" lon="11.330136876560216"><ele>825.0</ele><time>2026-05-01T09:51:42Z</time></trkpt><trkpt lat="44.23288785425062" lon="11.330042614106256"><ele>828.0</ele><time>2026-05-01T09:51:43Z</time></trkpt><trkpt lat="44.2327717988252" lon="11.329948680603737"><ele>828.0</ele><time>2026-05-01T09:51:44Z</time></trkpt><trkpt lat="44.232662658087605" lon="11.329817305003544"><ele>828.0</ele><time>2026-05-01T09:51:45Z</time></trkpt><trkpt lat="44.23253053367318" lon="11.329672615723364"><ele>828.0</ele><time>2026-05-01T09:51:46Z</time></trkpt><trkpt lat="44.232408382439104" lon="11.329527899088848"><ele>830.5</ele><time>2026-05-01T09:51:47Z</time></trkpt><trkpt lat="44.23229949006521" lon="11.329403018730094"><ele>833.0</ele><time>2026-05-01T09:51:48Z</time></trkpt><trkpt lat="44.23222277763883" lon="11.329254845018248"><ele>835.5</ele><time>2026-05-01T09:51:49Z</time></trkpt><trkpt lat="44.232152752535676" lon="11.329096690056657"><ele>838.0</ele><time>2026-05-01T09:51:50Z</time></trkpt><trkpt lat="44.23209610752106" lon="11.328920626312067"><ele>837.0</ele><time>2026-05-01T09:51:51Z</time></trkpt><trkpt lat="44.23205838088813" lon="11.328728461196876"><ele>836.0</ele><time>2026-05-01T09:51:52Z</time></trkpt><trkpt lat="44.232048729764145" lon="11.328527077926564"><ele>835.0</ele><time>2026-05-01T09:51:53Z</time></trkpt><trkpt lat="44.232060503974324" lon="11.32832326543316"><ele>834.0</ele><time>2026-05-01T09:51:54Z</time></trkpt><trkpt lat="44.23208028741103" lon="11.328130245275785"><ele>832.0</ele><time>2026-05-01T09:51:55Z</time></trkpt><trkpt lat="44.2320813377353" lon="11.327939507800252"><ele>830.0</ele><time>2026-05-01T09:51:56Z</time></trkpt><trkpt lat="44.23203163426801" lon="11.327766757269066"><ele>828.0</ele><time>2026-05-01T09:51:57Z</time></trkpt><trkpt lat="44.23194477118956" lon="11.327621426023974"><ele>826.0</ele><time>2026-05-01T09:51:58Z</time></trkpt><trkpt lat="44.23185225942541" lon="11.327498589423492"><ele>826.0</ele><time>2026-05-01T09:51:59Z</time></trkpt><trkpt lat="44.23176744452903" lon="11.327382460685538"><ele>826.0</ele><time>2026-05-01T09:52:00Z</time></trkpt><trkpt lat="44.2316756777713" lon="11.32728020628808"><ele>826.0</ele><time>2026-05-01T09:52:01Z</time></trkpt><trkpt lat="44.23156410963097" lon="11.327232191337934"><ele>826.0</ele><time>2026-05-01T09:52:01.999Z</time></trkpt><trkpt lat="44.23144421808925" lon="11.327245812452045"><ele>826.0</ele><time>2026-05-01T09:52:02.999Z</time></trkpt><trkpt lat="44.23132650627109" lon="11.327298250335009"><ele>826.0</ele><time>2026-05-01T09:52:03.999Z</time></trkpt><trkpt lat="44.23121911321949" lon="11.327372831430194"><ele>826.0</ele><time>2026-05-01T09:52:04.999Z</time></trkpt><trkpt lat="44.231118810723196" lon="11.327448638264517"><ele>826.0</ele><time>2026-05-01T09:52:05.999Z</time></trkpt><trkpt lat="44.231020905940646" lon="11.327533816249847"><ele>826.0</ele><time>2026-05-01T09:52:06.999Z</time></trkpt><trkpt lat="44.230928984451836" lon="11.327625093219613"><ele>826.0</ele><time>2026-05-01T09:52:07.999Z</time></trkpt><trkpt lat="44.23084122471306" lon="11.327715557421227"><ele>826.0</ele><time>2026-05-01T09:52:08.999Z</time></trkpt><trkpt lat="44.23075751476823" lon="11.327794639330993"><ele>826.0</ele><time>2026-05-01T09:52:09.999Z</time></trkpt><trkpt lat="44.23065946550937" lon="11.32785646513809"><ele>826.0</ele><time>2026-05-01T09:52:10.999Z</time></trkpt><trkpt lat="44.230553279822054" lon="11.327872077497377"><ele>827.75</ele><time>2026-05-01T09:52:11.999Z</time></trkpt><trkpt lat="44.23044368696176" lon="11.327841166721804"><ele>829.5</ele><time>2026-05-01T09:52:12.999Z</time></trkpt><trkpt lat="44.23034083397737" lon="11.327769856393177"><ele>831.25</ele><time>2026-05-01T09:52:13.999Z</time></trkpt><trkpt lat="44.230241751738255" lon="11.327668906474761"><ele>833.0</ele><time>2026-05-01T09:52:14.999Z</time></trkpt><trkpt lat="44.23014496710167" lon="11.32754834530852"><ele>833.0</ele><time>2026-05-01T09:52:15.999Z</time></trkpt><trkpt lat="44.23004477433628" lon="11.327425175150081"><ele>833.0</ele><time>2026-05-01T09:52:16.999Z</time></trkpt><trkpt lat="44.22993944022561" lon="11.327291411948053"><ele>833.0</ele><time>2026-05-01T09:52:17.999Z</time></trkpt><trkpt lat="44.22984289688891" lon="11.327140103956985"><ele>833.0</ele><time>2026-05-01T09:52:18.999Z</time></trkpt><trkpt lat="44.229751635113296" lon="11.326990952719282"><ele>832.0</ele><time>2026-05-01T09:52:19.999Z</time></trkpt><trkpt lat="44.22967613587367" lon="11.326846002596364"><ele>831.0</ele><time>2026-05-01T09:52:20.999Z</time></trkpt><trkpt lat="44.22961140517123" lon="11.326709979038764"><ele>830.0</ele><time>2026-05-01T09:52:21.999Z</time></trkpt><trkpt lat="44.2295572558753" lon="11.32658743042008"><ele>829.0</ele><time>2026-05-01T09:52:22.999Z</time></trkpt><trkpt lat="44.229510334806406" lon="11.326480165365929"><ele>828.0</ele><time>2026-05-01T09:52:23.999Z</time></trkpt><trkpt lat="44.229469258634154" lon="11.32638535083412"><ele>828.0</ele><time>2026-05-01T09:52:24.999Z</time></trkpt><trkpt lat="44.22943668418334" lon="11.32630079737867"><ele>828.0</ele><time>2026-05-01T09:52:25.999Z</time></trkpt><trkpt lat="44.22938297418541" lon="11.32616582618255"><ele>828.0</ele><time>2026-05-01T09:52:27.999Z</time></trkpt><trkpt lat="44.22934602625728" lon="11.326093823119093"><ele>828.0</ele><time>2026-05-01T09:52:28.999Z</time></trkpt><trkpt lat="44.22930192997613" lon="11.326021749859965"><ele>828.0</ele><time>2026-05-01T09:52:29.999Z</time></trkpt><trkpt lat="44.229249783975554" lon="11.325954956023494"><ele>828.0</ele><time>2026-05-01T09:52:30.999Z</time></trkpt><trkpt lat="44.22918397828224" lon="11.325904041141682"><ele>828.0</ele><time>2026-05-01T09:52:31.999Z</time></trkpt><trkpt lat="44.22909340889517" lon="11.32587894966242"><ele>828.0</ele><time>2026-05-01T09:52:32.999Z</time></trkpt><trkpt lat="44.22899144089012" lon="11.325905005797656"><ele>828.0</ele><time>2026-05-01T09:52:33.999Z</time></trkpt><trkpt lat="44.228903837265754" lon="11.32598740873748"><ele>828.0</ele><time>2026-05-01T09:52:34.999Z</time></trkpt><trkpt lat="44.228850016269796" lon="11.326101361622767"><ele>828.0</ele><time>2026-05-01T09:52:35.999Z</time></trkpt><trkpt lat="44.228799959270155" lon="11.326187633835367"><ele>827.5</ele><time>2026-05-01T09:52:36.999Z</time></trkpt><trkpt lat="44.2287605851721" lon="11.326280744061076"><ele>827.0</ele><time>2026-05-01T09:52:37.999Z</time></trkpt><trkpt lat="44.22871178528418" lon="11.326367079634831"><ele>826.5</ele><time>2026-05-01T09:52:38.999Z</time></trkpt><trkpt lat="44.228656815244825" lon="11.326453290371454"><ele>826.0</ele><time>2026-05-01T09:52:39.999Z</time></trkpt><trkpt lat="44.228592877708174" lon="11.32650943504222"><ele>825.5</ele><time>2026-05-01T09:52:40.999Z</time></trkpt><trkpt lat="44.2285113741063" lon="11.326550851426907"><ele>825.0</ele><time>2026-05-01T09:52:41.999Z</time></trkpt><trkpt lat="44.22842795292598" lon="11.326549847476361"><ele>825.0</ele><time>2026-05-01T09:52:42.999Z</time></trkpt><trkpt lat="44.22834290894439" lon="11.326513088189156"><ele>825.0</ele><time>2026-05-01T09:52:43.999Z</time></trkpt><trkpt lat="44.228269246066475" lon="11.326435045227"><ele>825.0</ele><time>2026-05-01T09:52:44.999Z</time></trkpt><trkpt lat="44.228192928205196" lon="11.326341162777023"><ele>825.0</ele><time>2026-05-01T09:52:45.999Z</time></trkpt><trkpt lat="44.228113899196735" lon="11.326255525116036"><ele>825.0</ele><time>2026-05-01T09:52:46.999Z</time></trkpt><trkpt lat="44.22803387198052" lon="11.326171706877886"><ele>826.5</ele><time>2026-05-01T09:52:47.999Z</time></trkpt><trkpt lat="44.2279364851221" lon="11.326126928561663"><ele>828.0</ele><time>2026-05-01T09:52:48.999Z</time></trkpt><trkpt lat="44.227824773992026" lon="11.326126282335679"><ele>829.5</ele><time>2026-05-01T09:52:49.999Z</time></trkpt><trkpt lat="44.22770162818427" lon="11.32615279501365"><ele>831.0</ele><time>2026-05-01T09:52:50.999Z</time></trkpt><trkpt lat="44.22756696768339" lon="11.326163549590325"><ele>831.0</ele><time>2026-05-01T09:52:51.999Z</time></trkpt><trkpt lat="44.22742933505583" lon="11.326129861042302"><ele>831.0</ele><time>2026-05-01T09:52:52.999Z</time></trkpt><trkpt lat="44.22728385597044" lon="11.32606418851432"><ele>831.0</ele><time>2026-05-01T09:52:53.999Z</time></trkpt><trkpt lat="44.22714242598401" lon="11.325994128590123"><ele>831.0</ele><time>2026-05-01T09:52:54.999Z</time></trkpt><trkpt lat="44.22700712181643" lon="11.325924272032495"><ele>833.5</ele><time>2026-05-01T09:52:55.999Z</time></trkpt><trkpt lat="44.226887117608385" lon="11.32586286183818"><ele>836.0</ele><time>2026-05-01T09:52:56.999Z</time></trkpt><trkpt lat="44.226774225782776" lon="11.325811465414365"><ele>838.5</ele><time>2026-05-01T09:52:57.999Z</time></trkpt><trkpt lat="44.226669856166346" lon="11.325757615597563"><ele>841.0</ele><time>2026-05-01T09:52:58.999Z</time></trkpt><trkpt lat="44.22656292485118" lon="11.325687136792364"><ele>845.5</ele><time>2026-05-01T09:52:59.999Z</time></trkpt><trkpt lat="44.22647128970366" lon="11.32558448336847"><ele>850.0</ele><time>2026-05-01T09:53:00.999Z</time></trkpt><trkpt lat="44.226406321903866" lon="11.325440653253622"><ele>854.5</ele><time>2026-05-01T09:53:01.999Z</time></trkpt><trkpt lat="44.22635539059153" lon="11.32527785280284"><ele>859.0</ele><time>2026-05-01T09:53:02.999Z</time></trkpt><trkpt lat="44.22630364600074" lon="11.325113709224128"><ele>859.0</ele><time>2026-05-01T09:53:03.999Z</time></trkpt><trkpt lat="44.22627949823568" lon="11.32493452582322"><ele>859.0</ele><time>2026-05-01T09:53:04.999Z</time></trkpt><trkpt lat="44.22629227650727" lon="11.324749596233517"><ele>859.0</ele><time>2026-05-01T09:53:05.999Z</time></trkpt><trkpt lat="44.226338086641746" lon="11.324570155746772"><ele>859.0</ele><time>2026-05-01T09:53:07Z</time></trkpt><trkpt lat="44.22638660080733" lon="11.32440547729572"><ele>856.25</ele><time>2026-05-01T09:53:08Z</time></trkpt><trkpt lat="44.22642292573527" lon="11.324248815348913"><ele>853.5</ele><time>2026-05-01T09:53:09Z</time></trkpt><trkpt lat="44.226439472162774" lon="11.324090500354677"><ele>850.75</ele><time>2026-05-01T09:53:10Z</time></trkpt><trkpt lat="44.22641963289418" lon="11.32393196020952"><ele>848.0</ele><time>2026-05-01T09:53:11Z</time></trkpt><trkpt lat="44.22636545224192" lon="11.323778941432417"><ele>843.75</ele><time>2026-05-01T09:53:12Z</time></trkpt><trkpt lat="44.226276900489005" lon="11.323649509666424"><ele>839.5</ele><time>2026-05-01T09:53:13Z</time></trkpt><trkpt lat="44.22616618879111" lon="11.323559192437509"><ele>835.25</ele><time>2026-05-01T09:53:14Z</time></trkpt><trkpt lat="44.22603894634354" lon="11.323512063763255"><ele>831.0</ele><time>2026-05-01T09:53:15Z</time></trkpt><trkpt lat="44.22590382844788" lon="11.323470675044472"><ele>831.0</ele><time>2026-05-01T09:53:16Z</time></trkpt><trkpt lat="44.22577060315594" lon="11.323415053093138"><ele>831.0</ele><time>2026-05-01T09:53:17Z</time></trkpt><trkpt lat="44.22563729380657" lon="11.323367321928716"><ele>831.0</ele><time>2026-05-01T09:53:18Z</time></trkpt><trkpt lat="44.225506684597065" lon="11.323342367967307"><ele>831.0</ele><time>2026-05-01T09:53:19Z</time></trkpt><trkpt lat="44.22538179179565" lon="11.323343788897175"><ele>832.1999999999999</ele><time>2026-05-01T09:53:20Z</time></trkpt><trkpt lat="44.225273583434834" lon="11.323329994628313"><ele>833.4</ele><time>2026-05-01T09:53:21Z</time></trkpt><trkpt lat="44.22518328908162" lon="11.323333395546225"><ele>834.6</ele><time>2026-05-01T09:53:22Z</time></trkpt><trkpt lat="44.2251101871201" lon="11.323336148908878"><ele>835.8</ele><time>2026-05-01T09:53:23Z</time></trkpt><trkpt lat="44.22494135252516" lon="11.323354962669514"><ele>837.0</ele><time>2026-05-01T09:53:24Z</time></trkpt><trkpt lat="44.224854136374816" lon="11.323313881286492"><ele>836.25</ele><time>2026-05-01T09:53:25Z</time></trkpt><trkpt lat="44.224769609832975" lon="11.323253528469348"><ele>835.5</ele><time>2026-05-01T09:53:26Z</time></trkpt><trkpt lat="44.22470853179814" lon="11.323110718659084"><ele>834.75</ele><time>2026-05-01T09:53:27Z</time></trkpt><trkpt lat="44.224701536372585" lon="11.322936549555154"><ele>834.0</ele><time>2026-05-01T09:53:28Z</time></trkpt><trkpt lat="44.22467093305468" lon="11.322780030058688"><ele>834.0</ele><time>2026-05-01T09:53:29Z</time></trkpt><trkpt lat="44.22464129148029" lon="11.322626525615183"><ele>834.0</ele><time>2026-05-01T09:53:30Z</time></trkpt><trkpt lat="44.224572953044756" lon="11.322512308040661"><ele>834.0</ele><time>2026-05-01T09:53:31Z</time></trkpt><trkpt lat="44.224492933938606" lon="11.322424136065909"><ele>834.0</ele><time>2026-05-01T09:53:32Z</time></trkpt><trkpt lat="44.22442028940972" lon="11.322348136181246"><ele>834.0</ele><time>2026-05-01T09:53:33Z</time></trkpt><trkpt lat="44.22434358751218" lon="11.32228522058696"><ele>834.0</ele><time>2026-05-01T09:53:34Z</time></trkpt><trkpt lat="44.224264078456336" lon="11.322237575086687"><ele>834.0</ele><time>2026-05-01T09:53:35Z</time></trkpt><trkpt lat="44.224174794603556" lon="11.322206146008485"><ele>834.0</ele><time>2026-05-01T09:53:36Z</time></trkpt><trkpt lat="44.22407631599253" lon="11.322209874909342"><ele>834.0</ele><time>2026-05-01T09:53:37Z</time></trkpt><trkpt lat="44.22397299941789" lon="11.32223282716067"><ele>834.0</ele><time>2026-05-01T09:53:38Z</time></trkpt><trkpt lat="44.22386270075145" lon="11.322270136747182"><ele>833.0</ele><time>2026-05-01T09:53:39Z</time></trkpt><trkpt lat="44.22375556356515" lon="11.322318724375448"><ele>832.0</ele><time>2026-05-01T09:53:40Z</time></trkpt><trkpt lat="44.22365568891542" lon="11.322357269231231"><ele>831.0</ele><time>2026-05-01T09:53:41Z</time></trkpt><trkpt lat="44.22356841061602" lon="11.32238997038786"><ele>830.0</ele><time>2026-05-01T09:53:42Z</time></trkpt><trkpt lat="44.223470815320056" lon="11.322426545375464"><ele>829.0</ele><time>2026-05-01T09:53:43Z</time></trkpt><trkpt lat="44.223371909964904" lon="11.322469463538162"><ele>829.0</ele><time>2026-05-01T09:53:44Z</time></trkpt><trkpt lat="44.22328772296565" lon="11.322547100978248"><ele>829.0</ele><time>2026-05-01T09:53:45Z</time></trkpt><trkpt lat="44.223223742373825" lon="11.32266432873476"><ele>829.0</ele><time>2026-05-01T09:53:46Z</time></trkpt><trkpt lat="44.22320480133481" lon="11.322822068136611"><ele>829.0</ele><time>2026-05-01T09:53:47Z</time></trkpt><trkpt lat="44.22320618908138" lon="11.322986818602379"><ele>829.0</ele><time>2026-05-01T09:53:48Z</time></trkpt><trkpt lat="44.22315302405379" lon="11.323121577600002"><ele>829.1666666666666</ele><time>2026-05-01T09:53:49Z</time></trkpt><trkpt lat="44.22306903895462" lon="11.323206427832735"><ele>829.3333333333333</ele><time>2026-05-01T09:53:50Z</time></trkpt><trkpt lat="44.222981855356984" lon="11.323264339356601"><ele>829.5</ele><time>2026-05-01T09:53:51Z</time></trkpt><trkpt lat="44.22289961579786" lon="11.323281393955444"><ele>829.6666666666667</ele><time>2026-05-01T09:53:52Z</time></trkpt><trkpt lat="44.22282168142929" lon="11.323282585255674"><ele>829.8333333333334</ele><time>2026-05-01T09:53:53Z</time></trkpt><trkpt lat="44.222739710600244" lon="11.323256250698547"><ele>830.0</ele><time>2026-05-01T09:53:54Z</time></trkpt><trkpt lat="44.222660245490836" lon="11.323194517201145"><ele>830.0</ele><time>2026-05-01T09:53:55Z</time></trkpt><trkpt lat="44.22258691352422" lon="11.323108392675415"><ele>830.0</ele><time>2026-05-01T09:53:56Z</time></trkpt><trkpt lat="44.222519857515614" lon="11.32300190171466"><ele>830.0</ele><time>2026-05-01T09:53:57Z</time></trkpt><trkpt lat="44.22245243866796" lon="11.322882030880852"><ele>830.0</ele><time>2026-05-01T09:53:58Z</time></trkpt><trkpt lat="44.22238271621833" lon="11.322762439847622"><ele>830.0</ele><time>2026-05-01T09:53:59Z</time></trkpt><trkpt lat="44.22230571010788" lon="11.322644478851176"><ele>830.25</ele><time>2026-05-01T09:54:00Z</time></trkpt><trkpt lat="44.22222005618562" lon="11.322535395646753"><ele>830.5</ele><time>2026-05-01T09:54:01Z</time></trkpt><trkpt lat="44.22211922776113" lon="11.32245087352541"><ele>830.75</ele><time>2026-05-01T09:54:02Z</time></trkpt><trkpt lat="44.22200575819057" lon="11.32239449643153"><ele>831.0</ele><time>2026-05-01T09:54:03Z</time></trkpt><trkpt lat="44.221888946100094" lon="11.322350812366842"><ele>831.0</ele><time>2026-05-01T09:54:03.999Z</time></trkpt><trkpt lat="44.22177507018052" lon="11.322313071615289"><ele>831.0</ele><time>2026-05-01T09:54:04.999Z</time></trkpt><trkpt lat="44.22167012950777" lon="11.322274805408732"><ele>831.0</ele><time>2026-05-01T09:54:05.999Z</time></trkpt><trkpt lat="44.22155248062759" lon="11.32227477729693"><ele>831.0</ele><time>2026-05-01T09:54:06.999Z</time></trkpt><trkpt lat="44.22142299481427" lon="11.322334117592083"><ele>834.0</ele><time>2026-05-01T09:54:07.999Z</time></trkpt><trkpt lat="44.22127496884418" lon="11.322437737787466"><ele>837.0</ele><time>2026-05-01T09:54:08.999Z</time></trkpt><trkpt lat="44.22110941314309" lon="11.322548816890157"><ele>840.0</ele><time>2026-05-01T09:54:09.999Z</time></trkpt><trkpt lat="44.22094532235314" lon="11.322642663027668"><ele>840.0</ele><time>2026-05-01T09:54:10.999Z</time></trkpt><trkpt lat="44.22080285470422" lon="11.322724261547632"><ele>840.0</ele><time>2026-05-01T09:54:11.999Z</time></trkpt><trkpt lat="44.22068033037195" lon="11.322797658876953"><ele>840.0</ele><time>2026-05-01T09:54:12.999Z</time></trkpt><trkpt lat="44.22057004266252" lon="11.32285651052138"><ele>840.0</ele><time>2026-05-01T09:54:13.999Z</time></trkpt><trkpt lat="44.220470379844414" lon="11.322897944290798"><ele>836.6</ele><time>2026-05-01T09:54:14.999Z</time></trkpt><trkpt lat="44.2203740464851" lon="11.322907498092674"><ele>833.2</ele><time>2026-05-01T09:54:15.999Z</time></trkpt><trkpt lat="44.220282329974886" lon="11.322865454282809"><ele>829.8</ele><time>2026-05-01T09:54:16.999Z</time></trkpt><trkpt lat="44.22020926897757" lon="11.322759315587984"><ele>826.4</ele><time>2026-05-01T09:54:17.999Z</time></trkpt><trkpt lat="44.22016138251007" lon="11.322605249595913"><ele>823.0</ele><time>2026-05-01T09:54:18.999Z</time></trkpt><trkpt lat="44.220158911056465" lon="11.322424425867801"><ele>823.0</ele><time>2026-05-01T09:54:19.999Z</time></trkpt><trkpt lat="44.22013874253492" lon="11.322241464995004"><ele>823.0</ele><time>2026-05-01T09:54:20.999Z</time></trkpt><trkpt lat="44.220141699989746" lon="11.32206680747394"><ele>823.0</ele><time>2026-05-01T09:54:21.999Z</time></trkpt><trkpt lat="44.22013998642332" lon="11.32190483731683"><ele>823.0</ele><time>2026-05-01T09:54:22.999Z</time></trkpt><trkpt lat="44.22013028876959" lon="11.32175427319144"><ele>825.75</ele><time>2026-05-01T09:54:23.999Z</time></trkpt><trkpt lat="44.220098062149425" lon="11.321601864499884"><ele>828.5</ele><time>2026-05-01T09:54:24.999Z</time></trkpt><trkpt lat="44.2200327050873" lon="11.32145792618938"><ele>831.25</ele><time>2026-05-01T09:54:25.999Z</time></trkpt><trkpt lat="44.21994253673071" lon="11.321323314780507"><ele>834.0</ele><time>2026-05-01T09:54:26.999Z</time></trkpt><trkpt lat="44.219826738860654" lon="11.321191124594497"><ele>830.0</ele><time>2026-05-01T09:54:27.999Z</time></trkpt><trkpt lat="44.21968237519229" lon="11.321040175785068"><ele>826.0</ele><time>2026-05-01T09:54:28.999Z</time></trkpt><trkpt lat="44.21949841854719" lon="11.320919794985807"><ele>822.0</ele><time>2026-05-01T09:54:29.999Z</time></trkpt><trkpt lat="44.21934104037706" lon="11.320866176865612"><ele>822.0</ele><time>2026-05-01T09:54:30.999Z</time></trkpt><trkpt lat="44.2192394491996" lon="11.320770482987985"><ele>822.0</ele><time>2026-05-01T09:54:31.999Z</time></trkpt><trkpt lat="44.21916772164725" lon="11.32066753008449"><ele>822.0</ele><time>2026-05-01T09:54:32.999Z</time></trkpt><trkpt lat="44.21908574734427" lon="11.32057022160118"><ele>822.0</ele><time>2026-05-01T09:54:33.999Z</time></trkpt><trkpt lat="44.21903244038059" lon="11.320439714345213"><ele>822.0</ele><time>2026-05-01T09:54:34.999Z</time></trkpt><trkpt lat="44.21897407844742" lon="11.32030865028309"><ele>822.8</ele><time>2026-05-01T09:54:35.999Z</time></trkpt><trkpt lat="44.21890110402024" lon="11.320202393935057"><ele>823.6</ele><time>2026-05-01T09:54:36.999Z</time></trkpt><trkpt lat="44.218807052255535" lon="11.320142924124868"><ele>824.4</ele><time>2026-05-01T09:54:37.999Z</time></trkpt><trkpt lat="44.218700912192446" lon="11.32014338747252"><ele>825.1999999999999</ele><time>2026-05-01T09:54:38.999Z</time></trkpt><trkpt lat="44.21860309335138" lon="11.320191945047616"><ele>826.0</ele><time>2026-05-01T09:54:39.999Z</time></trkpt><trkpt lat="44.2184904098278" lon="11.320250490164286"><ele>826.0</ele><time>2026-05-01T09:54:40.999Z</time></trkpt><trkpt lat="44.21837732332609" lon="11.320330270908176"><ele>826.0</ele><time>2026-05-01T09:54:41.999Z</time></trkpt><trkpt lat="44.21825726399171" lon="11.320408441084316"><ele>826.0</ele><time>2026-05-01T09:54:42.999Z</time></trkpt><trkpt lat="44.21813306026278" lon="11.320472366842239"><ele>826.0</ele><time>2026-05-01T09:54:43.999Z</time></trkpt><trkpt lat="44.218013684803026" lon="11.320544147585553"><ele>823.25</ele><time>2026-05-01T09:54:44.999Z</time></trkpt><trkpt lat="44.21789486037133" lon="11.320599345752184"><ele>820.5</ele><time>2026-05-01T09:54:45.999Z</time></trkpt><trkpt lat="44.21778045812142" lon="11.320684443314157"><ele>817.75</ele><time>2026-05-01T09:54:46.999Z</time></trkpt><trkpt lat="44.21766535673731" lon="11.320793644660995"><ele>815.0</ele><time>2026-05-01T09:54:47.999Z</time></trkpt><trkpt lat="44.217554835078964" lon="11.320909946682495"><ele>815.0</ele><time>2026-05-01T09:54:48.999Z</time></trkpt><trkpt lat="44.21744627349129" lon="11.321026910428246"><ele>815.0</ele><time>2026-05-01T09:54:49.999Z</time></trkpt><trkpt lat="44.217338536976584" lon="11.321142278417769"><ele>815.0</ele><time>2026-05-01T09:54:50.999Z</time></trkpt><trkpt lat="44.217230510053966" lon="11.321256742685318"><ele>815.0</ele><time>2026-05-01T09:54:51.999Z</time></trkpt><trkpt lat="44.21711891188926" lon="11.32137384579682"><ele>815.75</ele><time>2026-05-01T09:54:52.999Z</time></trkpt><trkpt lat="44.21700165093512" lon="11.32149233366528"><ele>816.5</ele><time>2026-05-01T09:54:53.999Z</time></trkpt><trkpt lat="44.21688008347922" lon="11.32161305946939"><ele>817.25</ele><time>2026-05-01T09:54:54.999Z</time></trkpt><trkpt lat="44.21675952175173" lon="11.321735932624494"><ele>818.0</ele><time>2026-05-01T09:54:55.999Z</time></trkpt><trkpt lat="44.21663897852872" lon="11.321857475521464"><ele>818.0</ele><time>2026-05-01T09:54:56.999Z</time></trkpt><trkpt lat="44.21651442301608" lon="11.321972557608857"><ele>818.0</ele><time>2026-05-01T09:54:57.999Z</time></trkpt><trkpt lat="44.21639000705739" lon="11.322072539872421"><ele>818.0</ele><time>2026-05-01T09:54:58.999Z</time></trkpt><trkpt lat="44.21626504893766" lon="11.322157544005334"><ele>818.0</ele><time>2026-05-01T09:54:59.999Z</time></trkpt><trkpt lat="44.21613364741938" lon="11.32223645137643"><ele>818.75</ele><time>2026-05-01T09:55:00.999Z</time></trkpt><trkpt lat="44.21599820208238" lon="11.32229986042476"><ele>819.5</ele><time>2026-05-01T09:55:01.999Z</time></trkpt><trkpt lat="44.21586189816867" lon="11.322357359932012"><ele>820.25</ele><time>2026-05-01T09:55:02.999Z</time></trkpt><trkpt lat="44.215722119725804" lon="11.32240206982952"><ele>821.0</ele><time>2026-05-01T09:55:03.999Z</time></trkpt><trkpt lat="44.215581552203425" lon="11.322441967737273"><ele>821.0</ele><time>2026-05-01T09:55:04.999Z</time></trkpt><trkpt lat="44.215434185633995" lon="11.322480530833264"><ele>821.0</ele><time>2026-05-01T09:55:05.999Z</time></trkpt><trkpt lat="44.21528812379782" lon="11.322521179165916"><ele>821.0</ele><time>2026-05-01T09:55:06.999Z</time></trkpt><trkpt lat="44.2151437479737" lon="11.322566106805214"><ele>821.0</ele><time>2026-05-01T09:55:07.999Z</time></trkpt><trkpt lat="44.21500594711188" lon="11.32260445098666"><ele>821.0</ele><time>2026-05-01T09:55:08.999Z</time></trkpt><trkpt lat="44.214876425052196" lon="11.322636448258669"><ele>821.0</ele><time>2026-05-01T09:55:09.999Z</time></trkpt><trkpt lat="44.21475922506361" lon="11.322667383822123"><ele>821.0</ele><time>2026-05-01T09:55:10.999Z</time></trkpt><trkpt lat="44.214646036182394" lon="11.32269717071617"><ele>821.0</ele><time>2026-05-01T09:55:11.999Z</time></trkpt><trkpt lat="44.214547542073426" lon="11.322730916917163"><ele>819.8</ele><time>2026-05-01T09:55:13Z</time></trkpt><trkpt lat="44.214451825671865" lon="11.322758496751641"><ele>818.5999999999999</ele><time>2026-05-01T09:55:14Z</time></trkpt><trkpt lat="44.21435980584343" lon="11.32277978290796"><ele>817.4</ele><time>2026-05-01T09:55:15Z</time></trkpt><trkpt lat="44.21426956445206" lon="11.322802315864624"><ele>816.2</ele><time>2026-05-01T09:55:16Z</time></trkpt><trkpt lat="44.2141816511729" lon="11.32282312143608"><ele>815.0</ele><time>2026-05-01T09:55:17Z</time></trkpt><trkpt lat="44.214102471561084" lon="11.322847761614728"><ele>815.0</ele><time>2026-05-01T09:55:18Z</time></trkpt><trkpt lat="44.21402994690986" lon="11.322865677519246"><ele>815.0</ele><time>2026-05-01T09:55:19Z</time></trkpt><trkpt lat="44.21396811614393" lon="11.322885613396286"><ele>815.0</ele><time>2026-05-01T09:55:20Z</time></trkpt><trkpt lat="44.21385475223629" lon="11.322940510868756"><ele>815.0</ele><time>2026-05-01T09:55:22Z</time></trkpt><trkpt lat="44.21374479865915" lon="11.3229902501561"><ele>815.0</ele><time>2026-05-01T09:55:24Z</time></trkpt><trkpt lat="44.213671144635775" lon="11.323024397096125"><ele>815.8</ele><time>2026-05-01T09:55:26Z</time></trkpt><trkpt lat="44.21355778199463" lon="11.323071412460962"><ele>816.6</ele><time>2026-05-01T09:55:28Z</time></trkpt><trkpt lat="44.21347331252173" lon="11.323116746137474"><ele>817.4000000000001</ele><time>2026-05-01T09:55:29Z</time></trkpt><trkpt lat="44.213375366462316" lon="11.323168013246036"><ele>818.2</ele><time>2026-05-01T09:55:30Z</time></trkpt><trkpt lat="44.21327470738991" lon="11.323222061709385"><ele>819.0</ele><time>2026-05-01T09:55:31Z</time></trkpt><trkpt lat="44.21316153803296" lon="11.3232847225168"><ele>817.5</ele><time>2026-05-01T09:55:32Z</time></trkpt><trkpt lat="44.213040472269476" lon="11.323349466077936"><ele>816.0</ele><time>2026-05-01T09:55:33Z</time></trkpt><trkpt lat="44.21291460536649" lon="11.323417302202948"><ele>814.5</ele><time>2026-05-01T09:55:34Z</time></trkpt><trkpt lat="44.212787227931635" lon="11.32349073099158"><ele>813.0</ele><time>2026-05-01T09:55:35Z</time></trkpt><trkpt lat="44.21265032024602" lon="11.323566654503221"><ele>813.0</ele><time>2026-05-01T09:55:36Z</time></trkpt><trkpt lat="44.21251362810704" lon="11.323639323345681"><ele>813.0</ele><time>2026-05-01T09:55:37Z</time></trkpt><trkpt lat="44.21238471610062" lon="11.323707159914026"><ele>813.0</ele><time>2026-05-01T09:55:38Z</time></trkpt><trkpt lat="44.21226009818361" lon="11.32377557787801"><ele>813.0</ele><time>2026-05-01T09:55:39Z</time></trkpt><trkpt lat="44.21214972438668" lon="11.323833994041166"><ele>813.5999999999999</ele><time>2026-05-01T09:55:40Z</time></trkpt><trkpt lat="44.21206210226005" lon="11.323880289525427"><ele>814.1999999999999</ele><time>2026-05-01T09:55:41Z</time></trkpt><trkpt lat="44.21196086424092" lon="11.323932669120408"><ele>814.8</ele><time>2026-05-01T09:55:42Z</time></trkpt><trkpt lat="44.21185026272" lon="11.32399032435535"><ele>815.4</ele><time>2026-05-01T09:55:43Z</time></trkpt><trkpt lat="44.21173849290909" lon="11.324052378771407"><ele>816.0</ele><time>2026-05-01T09:55:44Z</time></trkpt><trkpt lat="44.21161584173235" lon="11.324105781351458"><ele>814.0</ele><time>2026-05-01T09:55:45Z</time></trkpt><trkpt lat="44.21148772403789" lon="11.324161043318748"><ele>812.0</ele><time>2026-05-01T09:55:46Z</time></trkpt><trkpt lat="44.211352811797624" lon="11.324217198041309"><ele>810.0</ele><time>2026-05-01T09:55:47Z</time></trkpt><trkpt lat="44.2112155312614" lon="11.324273438100095"><ele>808.0</ele><time>2026-05-01T09:55:48Z</time></trkpt><trkpt lat="44.2110755084691" lon="11.324332832576223"><ele>808.0</ele><time>2026-05-01T09:55:49Z</time></trkpt><trkpt lat="44.21093431023082" lon="11.32439322500699"><ele>808.0</ele><time>2026-05-01T09:55:50Z</time></trkpt><trkpt lat="44.21078982582598" lon="11.324453153824349"><ele>808.0</ele><time>2026-05-01T09:55:51Z</time></trkpt><trkpt lat="44.21064395624147" lon="11.324511310277524"><ele>805.0</ele><time>2026-05-01T09:55:52Z</time></trkpt><trkpt lat="44.21049454010463" lon="11.32456992216515"><ele>802.0</ele><time>2026-05-01T09:55:53Z</time></trkpt><trkpt lat="44.21034499877805" lon="11.324621240878468"><ele>799.0</ele><time>2026-05-01T09:55:54Z</time></trkpt><trkpt lat="44.21019322701259" lon="11.324654188288761"><ele>799.0</ele><time>2026-05-01T09:55:55Z</time></trkpt><trkpt lat="44.210038586781565" lon="11.32466572373806"><ele>799.0</ele><time>2026-05-01T09:55:56Z</time></trkpt><trkpt lat="44.20988449186959" lon="11.324671110397588"><ele>799.0</ele><time>2026-05-01T09:55:57Z</time></trkpt><trkpt lat="44.20973281526248" lon="11.324679312874954"><ele>799.3333333333333</ele><time>2026-05-01T09:55:58Z</time></trkpt><trkpt lat="44.20958215728384" lon="11.324694114099634"><ele>799.6666666666667</ele><time>2026-05-01T09:55:59Z</time></trkpt><trkpt lat="44.20943191549636" lon="11.324716613953331"><ele>800.0</ele><time>2026-05-01T09:56:00Z</time></trkpt><trkpt lat="44.20928120753864" lon="11.324769871011643"><ele>802.6666666666667</ele><time>2026-05-01T09:56:01Z</time></trkpt><trkpt lat="44.20913602397029" lon="11.324832539952684"><ele>805.3333333333333</ele><time>2026-05-01T09:56:02Z</time></trkpt><trkpt lat="44.20899129455816" lon="11.32489575901658"><ele>808.0</ele><time>2026-05-01T09:56:03Z</time></trkpt><trkpt lat="44.20884523305" lon="11.32495823497279"><ele>808.0</ele><time>2026-05-01T09:56:04Z</time></trkpt><trkpt lat="44.20870072125729" lon="11.325013869626227"><ele>808.0</ele><time>2026-05-01T09:56:05Z</time></trkpt><trkpt lat="44.20855449405597" lon="11.325066403930077"><ele>808.0</ele><time>2026-05-01T09:56:06Z</time></trkpt><trkpt lat="44.20840272181139" lon="11.325127117492205"><ele>808.0</ele><time>2026-05-01T09:56:06.999Z</time></trkpt><trkpt lat="44.20825281173441" lon="11.325183398633083"><ele>808.0</ele><time>2026-05-01T09:56:07.999Z</time></trkpt><trkpt lat="44.20809869403923" lon="11.325241883834217"><ele>808.0</ele><time>2026-05-01T09:56:08.999Z</time></trkpt><trkpt lat="44.20794344039445" lon="11.325303498081093"><ele>806.6666666666666</ele><time>2026-05-01T09:56:09.999Z</time></trkpt><trkpt lat="44.2077879608678" lon="11.325364925426054"><ele>805.3333333333333</ele><time>2026-05-01T09:56:10.999Z</time></trkpt><trkpt lat="44.20763038150901" lon="11.32542123429004"><ele>804.0</ele><time>2026-05-01T09:56:11.999Z</time></trkpt><trkpt lat="44.20746884547347" lon="11.325469472159094"><ele>803.6666666666667</ele><time>2026-05-01T09:56:12.999Z</time></trkpt><trkpt lat="44.20731131226562" lon="11.325520394099595"><ele>803.3333333333334</ele><time>2026-05-01T09:56:13.999Z</time></trkpt><trkpt lat="44.20715289701044" lon="11.325573092398898"><ele>803.0</ele><time>2026-05-01T09:56:14.999Z</time></trkpt><trkpt lat="44.20699443493008" lon="11.325626318238431"><ele>803.0</ele><time>2026-05-01T09:56:15.999Z</time></trkpt><trkpt lat="44.206837566117464" lon="11.325679081503853"><ele>803.0</ele><time>2026-05-01T09:56:16.999Z</time></trkpt><trkpt lat="44.2066831022273" lon="11.32572864355996"><ele>803.0</ele><time>2026-05-01T09:56:17.999Z</time></trkpt><trkpt lat="44.2065324116455" lon="11.325777907935496"><ele>802.75</ele><time>2026-05-01T09:56:18.999Z</time></trkpt><trkpt lat="44.206390763411775" lon="11.325836103969246"><ele>802.5</ele><time>2026-05-01T09:56:19.999Z</time></trkpt><trkpt lat="44.206259992329564" lon="11.325906007566322"><ele>802.25</ele><time>2026-05-01T09:56:20.999Z</time></trkpt><trkpt lat="44.20613535804668" lon="11.325976457220612"><ele>802.0</ele><time>2026-05-01T09:56:21.999Z</time></trkpt><trkpt lat="44.20600759366475" lon="11.326038655585357"><ele>802.0</ele><time>2026-05-01T09:56:22.999Z</time></trkpt><trkpt lat="44.20587968699846" lon="11.326098064231026"><ele>802.0</ele><time>2026-05-01T09:56:23.999Z</time></trkpt><trkpt lat="44.20576362509211" lon="11.326166671746188"><ele>802.0</ele><time>2026-05-01T09:56:24.999Z</time></trkpt><trkpt lat="44.20565941926929" lon="11.326237240537566"><ele>802.0</ele><time>2026-05-01T09:56:25.999Z</time></trkpt><trkpt lat="44.20556318221981" lon="11.326300108590829"><ele>801.9999999999999</ele><time>2026-05-01T09:56:26.999Z</time></trkpt><trkpt lat="44.20547237717172" lon="11.326356485668342"><ele>802.0</ele><time>2026-05-01T09:56:27.999Z</time></trkpt><trkpt lat="44.20539025723246" lon="11.326395584852428"><ele>802.0</ele><time>2026-05-01T09:56:28.999Z</time></trkpt><trkpt lat="44.20530565082614" lon="11.326400342225352"><ele>802.0</ele><time>2026-05-01T09:56:29.999Z</time></trkpt><trkpt lat="44.20522205780934" lon="11.326360023902247"><ele>801.9999999999999</ele><time>2026-05-01T09:56:30.999Z</time></trkpt><trkpt lat="44.20514916041267" lon="11.3262898782547"><ele>802.0</ele><time>2026-05-01T09:56:31.999Z</time></trkpt><trkpt lat="44.205064193783926" lon="11.326289967641568"><ele>802.0</ele><time>2026-05-01T09:56:32.999Z</time></trkpt><trkpt lat="44.20499510636714" lon="11.326356144072303"><ele>802.0</ele><time>2026-05-01T09:56:33.999Z</time></trkpt><trkpt lat="44.20497378078024" lon="11.326472575360597"><ele>802.0</ele><time>2026-05-01T09:56:34.999Z</time></trkpt><trkpt lat="44.20494523661146" lon="11.326577112564655"><ele>802.0</ele><time>2026-05-01T09:56:35.999Z</time></trkpt><trkpt lat="44.204826030750986" lon="11.32660674511413"><ele>802.0</ele><time>2026-05-01T09:56:36.999Z</time></trkpt><trkpt lat="44.20472165453007" lon="11.32662846972428"><ele>803.0</ele><time>2026-05-01T09:56:37.999Z</time></trkpt><trkpt lat="44.20461624856914" lon="11.326653882407781"><ele>804.0</ele><time>2026-05-01T09:56:38.999Z</time></trkpt><trkpt lat="44.20452440702621" lon="11.326688754669815"><ele>805.0</ele><time>2026-05-01T09:56:39.999Z</time></trkpt><trkpt lat="44.20445191086047" lon="11.326718937277388"><ele>806.0</ele><time>2026-05-01T09:56:40.999Z</time></trkpt><trkpt lat="44.20435272040989" lon="11.326774968557206"><ele>807.0</ele><time>2026-05-01T09:56:42.999Z</time></trkpt><trkpt lat="44.20429223265918" lon="11.326861005711791"><ele>807.0</ele><time>2026-05-01T09:56:44.999Z</time></trkpt><trkpt lat="44.20423602107676" lon="11.327016689735101"><ele>807.0</ele><time>2026-05-01T09:59:09.999Z</time></trkpt><trkpt lat="44.20420651913749" lon="11.327129073032362"><ele>807.0</ele><time>2026-05-01T09:59:10.999Z</time></trkpt><trkpt lat="44.20416639109339" lon="11.327244717607863"><ele>807.0</ele><time>2026-05-01T09:59:11.999Z</time></trkpt><trkpt lat="44.20411489919861" lon="11.327373532588545"><ele>807.0</ele><time>2026-05-01T09:59:12.999Z</time></trkpt><trkpt lat="44.204056200385025" lon="11.32751769682801"><ele>811.25</ele><time>2026-05-01T09:59:13.999Z</time></trkpt><trkpt lat="44.20398786978055" lon="11.327652165907327"><ele>815.5</ele><time>2026-05-01T09:59:14.999Z</time></trkpt><trkpt lat="44.20390366149839" lon="11.327777436044025"><ele>819.75</ele><time>2026-05-01T09:59:15.999Z</time></trkpt><trkpt lat="44.203810464337415" lon="11.327894735982294"><ele>824.0</ele><time>2026-05-01T09:59:16.999Z</time></trkpt><trkpt lat="44.20371022151586" lon="11.32801491559212"><ele>821.5</ele><time>2026-05-01T09:59:17.999Z</time></trkpt><trkpt lat="44.20360854117387" lon="11.328136171559464"><ele>819.0</ele><time>2026-05-01T09:59:18.999Z</time></trkpt><trkpt lat="44.20351098986744" lon="11.328258719839056"><ele>816.5</ele><time>2026-05-01T09:59:19.999Z</time></trkpt><trkpt lat="44.2034093680035" lon="11.328361148769137"><ele>814.0</ele><time>2026-05-01T09:59:20.999Z</time></trkpt><trkpt lat="44.20329212172238" lon="11.328437225242032"><ele>816.75</ele><time>2026-05-01T09:59:21.999Z</time></trkpt><trkpt lat="44.203163092505385" lon="11.32848396642176"><ele>819.5</ele><time>2026-05-01T09:59:22.999Z</time></trkpt><trkpt lat="44.20302850714659" lon="11.328500718743024"><ele>822.25</ele><time>2026-05-01T09:59:23.999Z</time></trkpt><trkpt lat="44.202901951135914" lon="11.328511881917002"><ele>825.0</ele><time>2026-05-01T09:59:25Z</time></trkpt><trkpt lat="44.20278367225865" lon="11.328548031084779"><ele>825.0</ele><time>2026-05-01T09:59:26Z</time></trkpt><trkpt lat="44.20268661802153" lon="11.328632484363641"><ele>825.0</ele><time>2026-05-01T09:59:27Z</time></trkpt><trkpt lat="44.20262385833378" lon="11.328776274792084"><ele>825.0</ele><time>2026-05-01T09:59:28Z</time></trkpt><trkpt lat="44.20260110666951" lon="11.328945989297885"><ele>825.0</ele><time>2026-05-01T09:59:29Z</time></trkpt><trkpt lat="44.20260315030488" lon="11.329108060909151"><ele>826.25</ele><time>2026-05-01T09:59:30Z</time></trkpt><trkpt lat="44.202588382894575" lon="11.329219244687648"><ele>827.5</ele><time>2026-05-01T09:59:31Z</time></trkpt><trkpt lat="44.20243030012065" lon="11.329457246947166"><ele>828.75</ele><time>2026-05-01T09:59:33Z</time></trkpt><trkpt lat="44.2023290795644" lon="11.329508496298343"><ele>830.0</ele><time>2026-05-01T09:59:34Z</time></trkpt><trkpt lat="44.20220996252108" lon="11.329569054523017"><ele>830.0</ele><time>2026-05-01T09:59:35Z</time></trkpt><trkpt lat="44.202091669974315" lon="11.329624763990191"><ele>830.0</ele><time>2026-05-01T09:59:36Z</time></trkpt><trkpt lat="44.201962293624" lon="11.329660024788017"><ele>830.0</ele><time>2026-05-01T09:59:37Z</time></trkpt><trkpt lat="44.20183072075048" lon="11.329658002859597"><ele>830.0</ele><time>2026-05-01T09:59:38Z</time></trkpt><trkpt lat="44.201695264248315" lon="11.329651317015633"><ele>830.0</ele><time>2026-05-01T09:59:39Z</time></trkpt><trkpt lat="44.201555288788384" lon="11.329689332853473"><ele>830.0</ele><time>2026-05-01T09:59:40Z</time></trkpt><trkpt lat="44.20142115946077" lon="11.329743125435419"><ele>830.0</ele><time>2026-05-01T09:59:41Z</time></trkpt><trkpt lat="44.20129741120851" lon="11.32983325906901"><ele>830.0</ele><time>2026-05-01T09:59:42Z</time></trkpt><trkpt lat="44.20118679102593" lon="11.329959545635647"><ele>827.6666666666667</ele><time>2026-05-01T09:59:43Z</time></trkpt><trkpt lat="44.201086539854714" lon="11.330124310967875"><ele>825.3333333333333</ele><time>2026-05-01T09:59:44Z</time></trkpt><trkpt lat="44.200993273675714" lon="11.330300052197055"><ele>823.0</ele><time>2026-05-01T09:59:45Z</time></trkpt><trkpt lat="44.20090410843644" lon="11.330460250823178"><ele>817.75</ele><time>2026-05-01T09:59:46Z</time></trkpt><trkpt lat="44.20082145917274" lon="11.33063206495188"><ele>812.5</ele><time>2026-05-01T09:59:47Z</time></trkpt><trkpt lat="44.20075200532909" lon="11.330802652304232"><ele>807.25</ele><time>2026-05-01T09:59:48Z</time></trkpt><trkpt lat="44.20072715840367" lon="11.3309893600795"><ele>802.0</ele><time>2026-05-01T09:59:49Z</time></trkpt><trkpt lat="44.20076130135122" lon="11.331182624735185"><ele>802.0</ele><time>2026-05-01T09:59:50Z</time></trkpt><trkpt lat="44.20082747480974" lon="11.331383345189332"><ele>802.0</ele><time>2026-05-01T09:59:51Z</time></trkpt><trkpt lat="44.200825123122286" lon="11.331562994623642"><ele>802.0</ele><time>2026-05-01T09:59:52Z</time></trkpt><trkpt lat="44.20075077636392" lon="11.331708752066026"><ele>802.0</ele><time>2026-05-01T09:59:53Z</time></trkpt><trkpt lat="44.20065774495965" lon="11.33186356394805"><ele>800.75</ele><time>2026-05-01T09:59:54Z</time></trkpt><trkpt lat="44.200576739697574" lon="11.331970417006955"><ele>799.5</ele><time>2026-05-01T09:59:55Z</time></trkpt><trkpt lat="44.20048651314238" lon="11.33202466351411"><ele>798.25</ele><time>2026-05-01T09:59:56Z</time></trkpt><trkpt lat="44.20035808826567" lon="11.331985937862287"><ele>797.0</ele><time>2026-05-01T09:59:57Z</time></trkpt><trkpt lat="44.200233925193146" lon="11.331905030200678"><ele>797.0</ele><time>2026-05-01T09:59:58Z</time></trkpt><trkpt lat="44.20013056106008" lon="11.331817553449905"><ele>797.0</ele><time>2026-05-01T09:59:59Z</time></trkpt><trkpt lat="44.2000585246479" lon="11.331694059759132"><ele>797.0</ele><time>2026-05-01T10:00:00Z</time></trkpt><trkpt lat="44.20002421928005" lon="11.331532485652826"><ele>797.0</ele><time>2026-05-01T10:00:01Z</time></trkpt><trkpt lat="44.19999975692675" lon="11.331373862040136"><ele>797.6</ele><time>2026-05-01T10:00:02Z</time></trkpt><trkpt lat="44.199933447833686" lon="11.331269758512391"><ele>798.2</ele><time>2026-05-01T10:00:03Z</time></trkpt><trkpt lat="44.19982947475828" lon="11.3312457303776"><ele>798.8</ele><time>2026-05-01T10:00:04Z</time></trkpt><trkpt lat="44.199720901849616" lon="11.33129595424666"><ele>799.4</ele><time>2026-05-01T10:00:05Z</time></trkpt><trkpt lat="44.19964267955197" lon="11.331413232659859"><ele>800.0</ele><time>2026-05-01T10:00:06Z</time></trkpt><trkpt lat="44.1996074330203" lon="11.331569296257335"><ele>800.0</ele><time>2026-05-01T10:00:07Z</time></trkpt><trkpt lat="44.19958677701236" lon="11.331757248173894"><ele>800.0</ele><time>2026-05-01T10:00:08Z</time></trkpt><trkpt lat="44.19956612655555" lon="11.331950336498702"><ele>800.0</ele><time>2026-05-01T10:00:09Z</time></trkpt><trkpt lat="44.19949481724959" lon="11.332121503753868"><ele>800.0</ele><time>2026-05-01T10:00:10Z</time></trkpt><trkpt lat="44.19939361392414" lon="11.33225939334774"><ele>795.75</ele><time>2026-05-01T10:00:11Z</time></trkpt><trkpt lat="44.199291958810036" lon="11.33239344065754"><ele>791.5</ele><time>2026-05-01T10:00:12Z</time></trkpt><trkpt lat="44.199195192994786" lon="11.332526492516871"><ele>787.25</ele><time>2026-05-01T10:00:13Z</time></trkpt><trkpt lat="44.19911308750385" lon="11.332670676479836"><ele>783.0</ele><time>2026-05-01T10:00:14Z</time></trkpt><trkpt lat="44.19902101168404" lon="11.332786428069486"><ele>785.0</ele><time>2026-05-01T10:00:15Z</time></trkpt><trkpt lat="44.198933637493575" lon="11.332905165653337"><ele>787.0</ele><time>2026-05-01T10:00:16Z</time></trkpt><trkpt lat="44.198848809878456" lon="11.333023784260812"><ele>789.0</ele><time>2026-05-01T10:00:17Z</time></trkpt><trkpt lat="44.198771546973134" lon="11.333138978210773"><ele>791.0</ele><time>2026-05-01T10:00:18Z</time></trkpt><trkpt lat="44.19869916873887" lon="11.333238694115279"><ele>786.25</ele><time>2026-05-01T10:00:19Z</time></trkpt><trkpt lat="44.19860527788263" lon="11.33328396609249"><ele>781.5</ele><time>2026-05-01T10:00:20Z</time></trkpt><trkpt lat="44.19848895473645" lon="11.333275052046282"><ele>776.75</ele><time>2026-05-01T10:00:21Z</time></trkpt><trkpt lat="44.198363374323016" lon="11.333258903444916"><ele>772.0</ele><time>2026-05-01T10:00:21.999Z</time></trkpt><trkpt lat="44.19823468625855" lon="11.333230380989445"><ele>771.75</ele><time>2026-05-01T10:00:22.999Z</time></trkpt><trkpt lat="44.19810051165987" lon="11.33320083624357"><ele>771.5</ele><time>2026-05-01T10:00:23.999Z</time></trkpt><trkpt lat="44.19796086826148" lon="11.333177622715336"><ele>771.25</ele><time>2026-05-01T10:00:24.999Z</time></trkpt><trkpt lat="44.19781577871169" lon="11.333147497869241"><ele>771.0</ele><time>2026-05-01T10:00:25.999Z</time></trkpt><trkpt lat="44.197677314413504" lon="11.33313610245416"><ele>771.0</ele><time>2026-05-01T10:00:26.999Z</time></trkpt><trkpt lat="44.1975420835915" lon="11.333154418769439"><ele>771.0</ele><time>2026-05-01T10:00:27.999Z</time></trkpt><trkpt lat="44.197409207937824" lon="11.333206727604217"><ele>771.0</ele><time>2026-05-01T10:00:28.999Z</time></trkpt><trkpt lat="44.19727813930283" lon="11.333282650783273"><ele>771.0</ele><time>2026-05-01T10:00:29.999Z</time></trkpt><trkpt lat="44.19714195797623" lon="11.33333910605498"><ele>771.75</ele><time>2026-05-01T10:00:30.999Z</time></trkpt><trkpt lat="44.197008962592825" lon="11.33336627627722"><ele>772.5</ele><time>2026-05-01T10:00:31.999Z</time></trkpt><trkpt lat="44.1968679960767" lon="11.333361537437433"><ele>773.25</ele><time>2026-05-01T10:00:32.999Z</time></trkpt><trkpt lat="44.19671373757335" lon="11.333341681846957"><ele>774.0</ele><time>2026-05-01T10:00:33.999Z</time></trkpt><trkpt lat="44.196545839394325" lon="11.33336575841664"><ele>775.0</ele><time>2026-05-01T10:00:34.999Z</time></trkpt><trkpt lat="44.19637776984841" lon="11.33339850610528"><ele>776.0</ele><time>2026-05-01T10:00:35.999Z</time></trkpt><trkpt lat="44.196214271330824" lon="11.333458550416768"><ele>777.0</ele><time>2026-05-01T10:00:36.999Z</time></trkpt><trkpt lat="44.19604925606286" lon="11.333503662547198"><ele>777.0</ele><time>2026-05-01T10:00:37.999Z</time></trkpt><trkpt lat="44.19589206053511" lon="11.333562452914348"><ele>777.0</ele><time>2026-05-01T10:00:38.999Z</time></trkpt><trkpt lat="44.19575074281353" lon="11.333616832503317"><ele>777.0</ele><time>2026-05-01T10:00:39.999Z</time></trkpt><trkpt lat="44.19561678740409" lon="11.33368689354484"><ele>779.5</ele><time>2026-05-01T10:00:40.999Z</time></trkpt><trkpt lat="44.1954914833993" lon="11.333692430993278"><ele>782.0</ele><time>2026-05-01T10:00:41.999Z</time></trkpt><trkpt lat="44.19535060221942" lon="11.333723862927279"><ele>784.5</ele><time>2026-05-01T10:00:42.999Z</time></trkpt><trkpt lat="44.19520959452449" lon="11.333706455839444"><ele>787.0</ele><time>2026-05-01T10:00:43.999Z</time></trkpt><trkpt lat="44.1950671541404" lon="11.333679710352955"><ele>787.0</ele><time>2026-05-01T10:00:44.999Z</time></trkpt><trkpt lat="44.19493114595561" lon="11.333656871954135"><ele>787.0</ele><time>2026-05-01T10:00:45.999Z</time></trkpt><trkpt lat="44.19479636960346" lon="11.333638683914765"><ele>787.0</ele><time>2026-05-01T10:00:46.999Z</time></trkpt><trkpt lat="44.194662521863" lon="11.333634178635076"><ele>787.0</ele><time>2026-05-01T10:00:47.999Z</time></trkpt><trkpt lat="44.19453243323291" lon="11.333646823694712"><ele>786.5</ele><time>2026-05-01T10:00:48.999Z</time></trkpt><trkpt lat="44.194403332006374" lon="11.333667022194016"><ele>786.0</ele><time>2026-05-01T10:00:49.999Z</time></trkpt><trkpt lat="44.194282364621856" lon="11.333703334913727"><ele>785.5</ele><time>2026-05-01T10:00:50.999Z</time></trkpt><trkpt lat="44.19416929987444" lon="11.333750349280345"><ele>785.0</ele><time>2026-05-01T10:00:51.999Z</time></trkpt><trkpt lat="44.19405648624894" lon="11.333795095350292"><ele>784.25</ele><time>2026-05-01T10:00:52.999Z</time></trkpt><trkpt lat="44.193950801202476" lon="11.333835750232042"><ele>783.5</ele><time>2026-05-01T10:00:53.999Z</time></trkpt><trkpt lat="44.19384847049393" lon="11.333909143676223"><ele>782.75</ele><time>2026-05-01T10:00:54.999Z</time></trkpt><trkpt lat="44.1937598876977" lon="11.3340196589601"><ele>782.0</ele><time>2026-05-01T10:00:55.999Z</time></trkpt><trkpt lat="44.193665455670384" lon="11.334118408329187"><ele>782.0</ele><time>2026-05-01T10:00:56.999Z</time></trkpt><trkpt lat="44.19357991924683" lon="11.33422504510292"><ele>782.0</ele><time>2026-05-01T10:00:57.999Z</time></trkpt><trkpt lat="44.19349242969204" lon="11.334320148055518"><ele>782.0</ele><time>2026-05-01T10:00:58.999Z</time></trkpt><trkpt lat="44.19340200354115" lon="11.33438801000089"><ele>782.0</ele><time>2026-05-01T10:00:59.999Z</time></trkpt><trkpt lat="44.193315223239175" lon="11.334421599611153"><ele>782.0</ele><time>2026-05-01T10:01:00.999Z</time></trkpt><trkpt lat="44.19324480605453" lon="11.334355453740548"><ele>782.0000000000001</ele><time>2026-05-01T10:01:01.999Z</time></trkpt><trkpt lat="44.193212487540286" lon="11.334246337643386"><ele>782.0</ele><time>2026-05-01T10:01:02.999Z</time></trkpt><trkpt lat="44.193177997091844" lon="11.33414886469797"><ele>782.0</ele><time>2026-05-01T10:01:03.999Z</time></trkpt><trkpt lat="44.19313370668164" lon="11.334060419294497"><ele>782.0</ele><time>2026-05-01T10:01:04.999Z</time></trkpt><trkpt lat="44.19308425966803" lon="11.333967482061688"><ele>782.0000000000001</ele><time>2026-05-01T10:01:05.999Z</time></trkpt><trkpt lat="44.19302728322203" lon="11.333870633616158"><ele>782.0</ele><time>2026-05-01T10:01:06.999Z</time></trkpt><trkpt lat="44.192961460020726" lon="11.333771382197906"><ele>786.8</ele><time>2026-05-01T10:01:07.999Z</time></trkpt><trkpt lat="44.19288692430165" lon="11.33367208584578"><ele>791.6</ele><time>2026-05-01T10:01:08.999Z</time></trkpt><trkpt lat="44.192802596709896" lon="11.333586876732305"><ele>796.4</ele><time>2026-05-01T10:01:09.999Z</time></trkpt><trkpt lat="44.19270859706305" lon="11.333534089979857"><ele>801.1999999999999</ele><time>2026-05-01T10:01:10.999Z</time></trkpt><trkpt lat="44.19260530686067" lon="11.333532210186705"><ele>806.0</ele><time>2026-05-01T10:01:11.999Z</time></trkpt><trkpt lat="44.19248962440623" lon="11.333577454756497"><ele>806.0</ele><time>2026-05-01T10:01:12.999Z</time></trkpt><trkpt lat="44.19234631614719" lon="11.333622633287817"><ele>806.0</ele><time>2026-05-01T10:01:13.999Z</time></trkpt><trkpt lat="44.192182831645304" lon="11.333711483078696"><ele>806.0</ele><time>2026-05-01T10:01:14.999Z</time></trkpt><trkpt lat="44.1920023587644" lon="11.33379954407487"><ele>803.6666666666667</ele><time>2026-05-01T10:01:15.999Z</time></trkpt><trkpt lat="44.1918052897992" lon="11.333898829512105"><ele>801.3333333333333</ele><time>2026-05-01T10:01:16.999Z</time></trkpt><trkpt lat="44.191593429816386" lon="11.334014431560558"><ele>799.0</ele><time>2026-05-01T10:01:17.999Z</time></trkpt><trkpt lat="44.191409286995246" lon="11.334177959525524"><ele>805.0</ele><time>2026-05-01T10:01:18.999Z</time></trkpt><trkpt lat="44.19121482067133" lon="11.334319477855729"><ele>811.0</ele><time>2026-05-01T10:01:19.999Z</time></trkpt><trkpt lat="44.19102094744402" lon="11.334435591455216"><ele>817.0</ele><time>2026-05-01T10:01:20.999Z</time></trkpt><trkpt lat="44.190805765253955" lon="11.334507390321715"><ele>823.0</ele><time>2026-05-01T10:01:21.999Z</time></trkpt><trkpt lat="44.19057251452438" lon="11.33458032053474"><ele>829.0</ele><time>2026-05-01T10:01:22.999Z</time></trkpt><trkpt lat="44.190365109253214" lon="11.334650037343875"><ele>822.0</ele><time>2026-05-01T10:01:23.999Z</time></trkpt><trkpt lat="44.190192120113544" lon="11.334732868170432"><ele>815.0</ele><time>2026-05-01T10:01:24.999Z</time></trkpt><trkpt lat="44.190043329785915" lon="11.334783364188205"><ele>808.0</ele><time>2026-05-01T10:01:25.999Z</time></trkpt><trkpt lat="44.18992505372026" lon="11.334795821408523"><ele>807.25</ele><time>2026-05-01T10:01:26.999Z</time></trkpt><trkpt lat="44.18982577597256" lon="11.334801362506854"><ele>806.5</ele><time>2026-05-01T10:01:27.999Z</time></trkpt><trkpt lat="44.18973640329397" lon="11.33476003615906"><ele>805.75</ele><time>2026-05-01T10:01:28.999Z</time></trkpt><trkpt lat="44.18964011721786" lon="11.334677498145098"><ele>805.0</ele><time>2026-05-01T10:01:29.999Z</time></trkpt><trkpt lat="44.189569163768645" lon="11.334498586688499"><ele>809.3333333333333</ele><time>2026-05-01T10:01:31Z</time></trkpt><trkpt lat="44.18950369204889" lon="11.33428488363726"><ele>813.6666666666667</ele><time>2026-05-01T10:01:32Z</time></trkpt><trkpt lat="44.18942225070919" lon="11.33404913696083"><ele>818.0</ele><time>2026-05-01T10:01:33Z</time></trkpt><trkpt lat="44.189319012143486" lon="11.333802861768577"><ele>822.6666666666667</ele><time>2026-05-01T10:01:34Z</time></trkpt><trkpt lat="44.189221079390705" lon="11.33356386511545"><ele>827.3333333333333</ele><time>2026-05-01T10:01:35Z</time></trkpt><trkpt lat="44.18911516690982" lon="11.333360471365179"><ele>832.0</ele><time>2026-05-01T10:01:36Z</time></trkpt><trkpt lat="44.18896965353075" lon="11.333212066762501"><ele>832.0</ele><time>2026-05-01T10:01:37Z</time></trkpt><trkpt lat="44.18879939999225" lon="11.333121789761657"><ele>832.0</ele><time>2026-05-01T10:01:38Z</time></trkpt><trkpt lat="44.18861516310051" lon="11.333054856198482"><ele>832.0</ele><time>2026-05-01T10:01:39Z</time></trkpt><trkpt lat="44.18843772506973" lon="11.332969327553675"><ele>837.3333333333333</ele><time>2026-05-01T10:01:40Z</time></trkpt><trkpt lat="44.188273389564856" lon="11.332881133238155"><ele>842.6666666666667</ele><time>2026-05-01T10:01:41Z</time></trkpt><trkpt lat="44.18811296638055" lon="11.332818094612866"><ele>848.0</ele><time>2026-05-01T10:01:42Z</time></trkpt><trkpt lat="44.18794571139381" lon="11.332824404774113"><ele>849.3333333333334</ele><time>2026-05-01T10:01:43Z</time></trkpt><trkpt lat="44.18778712235416" lon="11.332850445369722"><ele>850.6666666666667</ele><time>2026-05-01T10:01:44Z</time></trkpt><trkpt lat="44.18762994405741" lon="11.332896960989125"><ele>852.0</ele><time>2026-05-01T10:01:45Z</time></trkpt><trkpt lat="44.18749604317224" lon="11.333009918916044"><ele>851.6666666666667</ele><time>2026-05-01T10:01:46Z</time></trkpt><trkpt lat="44.187381146376076" lon="11.333154167000524"><ele>851.3333333333334</ele><time>2026-05-01T10:01:47Z</time></trkpt><trkpt lat="44.18728917486648" lon="11.333346525500668"><ele>851.0</ele><time>2026-05-01T10:01:48Z</time></trkpt><trkpt lat="44.18719114989415" lon="11.333514205616584"><ele>851.0</ele><time>2026-05-01T10:01:49Z</time></trkpt><trkpt lat="44.1870832564424" lon="11.333612724746846"><ele>851.0</ele><time>2026-05-01T10:01:50Z</time></trkpt><trkpt lat="44.186961804624865" lon="11.333606919723886"><ele>851.0</ele><time>2026-05-01T10:01:51Z</time></trkpt><trkpt lat="44.186806466890125" lon="11.333621056631985"><ele>851.0</ele><time>2026-05-01T10:01:52Z</time></trkpt><trkpt lat="44.18664010764458" lon="11.333663976826239"><ele>853.0</ele><time>2026-05-01T10:01:53Z</time></trkpt><trkpt lat="44.186484837657645" lon="11.333740772202104"><ele>855.0</ele><time>2026-05-01T10:01:54Z</time></trkpt><trkpt lat="44.1863483378527" lon="11.333884775089423"><ele>857.0</ele><time>2026-05-01T10:01:55Z</time></trkpt><trkpt lat="44.18625022112035" lon="11.334053578412112"><ele>857.0</ele><time>2026-05-01T10:01:56Z</time></trkpt><trkpt lat="44.18615859296811" lon="11.334243201524025"><ele>857.0</ele><time>2026-05-01T10:01:57Z</time></trkpt><trkpt lat="44.186061158536354" lon="11.334378225153962"><ele>857.0</ele><time>2026-05-01T10:01:58Z</time></trkpt><trkpt lat="44.185934207540605" lon="11.334399482482779"><ele>857.0</ele><time>2026-05-01T10:01:59Z</time></trkpt><trkpt lat="44.185789541597266" lon="11.33439768316741"><ele>862.3333333333334</ele><time>2026-05-01T10:02:00Z</time></trkpt><trkpt lat="44.185620360438946" lon="11.33436477012794"><ele>867.6666666666667</ele><time>2026-05-01T10:02:01Z</time></trkpt><trkpt lat="44.185438291636615" lon="11.334337101812649"><ele>873.0</ele><time>2026-05-01T10:02:02Z</time></trkpt><trkpt lat="44.18528222827124" lon="11.334306629859695"><ele>873.0</ele><time>2026-05-01T10:02:03Z</time></trkpt><trkpt lat="44.18512493649299" lon="11.334327065612422"><ele>873.0</ele><time>2026-05-01T10:02:04Z</time></trkpt><trkpt lat="44.18497759098521" lon="11.334469635851486"><ele>873.0</ele><time>2026-05-01T10:02:05Z</time></trkpt><trkpt lat="44.18479949918655" lon="11.33463345565368"><ele>871.0</ele><time>2026-05-01T10:02:06Z</time></trkpt><trkpt lat="44.18463685522117" lon="11.334788784092789"><ele>869.0</ele><time>2026-05-01T10:02:07Z</time></trkpt><trkpt lat="44.18447337351257" lon="11.334878966121362"><ele>867.0</ele><time>2026-05-01T10:02:08Z</time></trkpt><trkpt lat="44.18431724194195" lon="11.334968655225513"><ele>867.0</ele><time>2026-05-01T10:02:09Z</time></trkpt><trkpt lat="44.18406018620499" lon="11.335117564331485"><ele>867.0</ele><time>2026-05-01T10:02:10Z</time></trkpt><trkpt lat="44.183872477177786" lon="11.335204213525424"><ele>871.0</ele><time>2026-05-01T10:02:11Z</time></trkpt><trkpt lat="44.18368759628467" lon="11.335266222901355"><ele>875.0</ele><time>2026-05-01T10:02:12Z</time></trkpt><trkpt lat="44.183504528840444" lon="11.335268963851604"><ele>879.0</ele><time>2026-05-01T10:02:13Z</time></trkpt><trkpt lat="44.18331075292325" lon="11.33526441480401"><ele>881.3333333333333</ele><time>2026-05-01T10:02:14Z</time></trkpt><trkpt lat="44.18311349098834" lon="11.335220447714445"><ele>883.6666666666666</ele><time>2026-05-01T10:02:15Z</time></trkpt><trkpt lat="44.18292352722967" lon="11.335180760382801"><ele>886.0</ele><time>2026-05-01T10:02:16Z</time></trkpt><trkpt lat="44.18272462518738" lon="11.335179849181268"><ele>886.0</ele><time>2026-05-01T10:02:17Z</time></trkpt><trkpt lat="44.18253072733033" lon="11.335262422911132"><ele>886.0</ele><time>2026-05-01T10:02:18Z</time></trkpt><trkpt lat="44.18233139017117" lon="11.335372001230853"><ele>886.0</ele><time>2026-05-01T10:02:19Z</time></trkpt><trkpt lat="44.18212185614614" lon="11.335440155581605"><ele>888.0</ele><time>2026-05-01T10:02:20Z</time></trkpt><trkpt lat="44.181938654291" lon="11.335490619863839"><ele>890.0</ele><time>2026-05-01T10:02:21Z</time></trkpt><trkpt lat="44.18175290846919" lon="11.335506550290656"><ele>892.0</ele><time>2026-05-01T10:02:21.999Z</time></trkpt><trkpt lat="44.18159283997792" lon="11.335492481670878"><ele>892.3333333333333</ele><time>2026-05-01T10:02:22.999Z</time></trkpt><trkpt lat="44.18147531787891" lon="11.335404188402103"><ele>892.6666666666667</ele><time>2026-05-01T10:02:23.999Z</time></trkpt><trkpt lat="44.18137984957973" lon="11.335266550893914"><ele>893.0</ele><time>2026-05-01T10:02:24.999Z</time></trkpt><trkpt lat="44.18122463998926" lon="11.335101020851182"><ele>893.0</ele><time>2026-05-01T10:02:25.999Z</time></trkpt><trkpt lat="44.181074667759184" lon="11.334948334315566"><ele>893.0</ele><time>2026-05-01T10:02:26.999Z</time></trkpt><trkpt lat="44.180905314920466" lon="11.334887756014249"><ele>893.0</ele><time>2026-05-01T10:02:27.999Z</time></trkpt><trkpt lat="44.180708574416485" lon="11.33488305721448"><ele>894.5</ele><time>2026-05-01T10:02:28.999Z</time></trkpt><trkpt lat="44.18048227941697" lon="11.334914480951626"><ele>896.0</ele><time>2026-05-01T10:02:29.999Z</time></trkpt><trkpt lat="44.18025060603633" lon="11.334946791823128"><ele>896.0</ele><time>2026-05-01T10:02:30.999Z</time></trkpt><trkpt lat="44.180048332585685" lon="11.334973493781716"><ele>896.0</ele><time>2026-05-01T10:02:31.999Z</time></trkpt><trkpt lat="44.17985782005237" lon="11.335031048847991"><ele>896.0</ele><time>2026-05-01T10:02:32.999Z</time></trkpt><trkpt lat="44.17968544498913" lon="11.335128262106384"><ele>904.3333333333334</ele><time>2026-05-01T10:02:33.999Z</time></trkpt><trkpt lat="44.17950588374593" lon="11.33521073383212"><ele>912.6666666666667</ele><time>2026-05-01T10:02:34.999Z</time></trkpt><trkpt lat="44.17937050559956" lon="11.33532468346303"><ele>921.0</ele><time>2026-05-01T10:02:35.999Z</time></trkpt><trkpt lat="44.17922538095917" lon="11.335432583742783"><ele>915.75</ele><time>2026-05-01T10:02:36.999Z</time></trkpt><trkpt lat="44.17914825923741" lon="11.335569055938677"><ele>910.5</ele><time>2026-05-01T10:02:37.999Z</time></trkpt><trkpt lat="44.17912567642029" lon="11.335711875148277"><ele>905.25</ele><time>2026-05-01T10:02:38.999Z</time></trkpt><trkpt lat="44.179126924673504" lon="11.335862022087634"><ele>900.0</ele><time>2026-05-01T10:02:39.999Z</time></trkpt><trkpt lat="44.17914207123605" lon="11.336038868880532"><ele>900.0</ele><time>2026-05-01T10:02:40.999Z</time></trkpt><trkpt lat="44.17915123617941" lon="11.33621172219736"><ele>900.0</ele><time>2026-05-01T10:02:41.999Z</time></trkpt><trkpt lat="44.17915533039026" lon="11.336379175629864"><ele>900.0</ele><time>2026-05-01T10:02:42.999Z</time></trkpt><trkpt lat="44.179089824352104" lon="11.336511643227023"><ele>900.0</ele><time>2026-05-01T10:02:43.999Z</time></trkpt><trkpt lat="44.17901897713715" lon="11.336627114005775"><ele>902.75</ele><time>2026-05-01T10:02:44.999Z</time></trkpt><trkpt lat="44.178923093751685" lon="11.33672903772578"><ele>905.5</ele><time>2026-05-01T10:02:45.999Z</time></trkpt><trkpt lat="44.17882326852507" lon="11.336795595107366"><ele>908.25</ele><time>2026-05-01T10:02:46.999Z</time></trkpt><trkpt lat="44.1787024328426" lon="11.336785919818503"><ele>911.0</ele><time>2026-05-01T10:02:47.999Z</time></trkpt><trkpt lat="44.178618369131534" lon="11.33664964847755"><ele>911.0</ele><time>2026-05-01T10:02:48.999Z</time></trkpt><trkpt lat="44.17851487036191" lon="11.336518916986003"><ele>911.0</ele><time>2026-05-01T10:02:49.999Z</time></trkpt><trkpt lat="44.1784159646885" lon="11.336365943745385"><ele>911.0</ele><time>2026-05-01T10:02:50.999Z</time></trkpt><trkpt lat="44.178299256195444" lon="11.336232024435434"><ele>911.0</ele><time>2026-05-01T10:02:51.999Z</time></trkpt><trkpt lat="44.17816607850118" lon="11.336138907243443"><ele>920.0</ele><time>2026-05-01T10:02:52.999Z</time></trkpt><trkpt lat="44.17801491849037" lon="11.336119214789411"><ele>929.0</ele><time>2026-05-01T10:02:53.999Z</time></trkpt><trkpt lat="44.17786023851334" lon="11.336183366288973"><ele>938.0</ele><time>2026-05-01T10:02:54.999Z</time></trkpt><trkpt lat="44.17770685183334" lon="11.33629973569199"><ele>941.0</ele><time>2026-05-01T10:02:55.999Z</time></trkpt><trkpt lat="44.177562307865195" lon="11.33642946255262"><ele>944.0</ele><time>2026-05-01T10:02:56.999Z</time></trkpt><trkpt lat="44.17742838145568" lon="11.336573984515184"><ele>947.0</ele><time>2026-05-01T10:02:57.999Z</time></trkpt><trkpt lat="44.177308079355555" lon="11.336727003315273"><ele>947.0</ele><time>2026-05-01T10:02:58.999Z</time></trkpt><trkpt lat="44.177208395192125" lon="11.336892955557179"><ele>947.0</ele><time>2026-05-01T10:02:59.999Z</time></trkpt><trkpt lat="44.177159409093264" lon="11.337075817200075"><ele>947.0</ele><time>2026-05-01T10:03:00.999Z</time></trkpt><trkpt lat="44.17717659815818" lon="11.337272987447587"><ele>947.0</ele><time>2026-05-01T10:03:01.999Z</time></trkpt><trkpt lat="44.17725758188099" lon="11.337450941635776"><ele>944.75</ele><time>2026-05-01T10:03:02.999Z</time></trkpt><trkpt lat="44.177281496980115" lon="11.337626401262675"><ele>942.5</ele><time>2026-05-01T10:03:03.999Z</time></trkpt><trkpt lat="44.177231278512224" lon="11.337786735444006"><ele>940.25</ele><time>2026-05-01T10:03:04.999Z</time></trkpt><trkpt lat="44.177158929094446" lon="11.33796584307175"><ele>938.0</ele><time>2026-05-01T10:03:05.999Z</time></trkpt><trkpt lat="44.17706553297474" lon="11.338089605380057"><ele>935.75</ele><time>2026-05-01T10:03:06.999Z</time></trkpt><trkpt lat="44.17695695668668" lon="11.338184752081558"><ele>933.5</ele><time>2026-05-01T10:03:07.999Z</time></trkpt><trkpt lat="44.176831274634765" lon="11.338227527527861"><ele>931.25</ele><time>2026-05-01T10:03:08.999Z</time></trkpt><trkpt lat="44.176724870786465" lon="11.33820328080575"><ele>929.0</ele><time>2026-05-01T10:03:09.999Z</time></trkpt><trkpt lat="44.176625659033554" lon="11.338120989618453"><ele>933.5</ele><time>2026-05-01T10:03:10.999Z</time></trkpt><trkpt lat="44.17651581591762" lon="11.338040312911538"><ele>938.0</ele><time>2026-05-01T10:03:11.999Z</time></trkpt><trkpt lat="44.17638921436806" lon="11.337967875595842"><ele>942.5</ele><time>2026-05-01T10:03:12.999Z</time></trkpt><trkpt lat="44.176256741728025" lon="11.337898022321504"><ele>947.0</ele><time>2026-05-01T10:03:13.999Z</time></trkpt><trkpt lat="44.17611718109992" lon="11.337819530006994"><ele>947.0</ele><time>2026-05-01T10:03:14.999Z</time></trkpt><trkpt lat="44.17597804449636" lon="11.33772546948565"><ele>947.0</ele><time>2026-05-01T10:03:15.999Z</time></trkpt><trkpt lat="44.17585070281612" lon="11.337611994641609"><ele>947.0</ele><time>2026-05-01T10:03:16.999Z</time></trkpt><trkpt lat="44.17575065691917" lon="11.337454558950904"><ele>945.6666666666667</ele><time>2026-05-01T10:03:17.999Z</time></trkpt><trkpt lat="44.17567576148191" lon="11.337282112446829"><ele>944.3333333333333</ele><time>2026-05-01T10:03:18.999Z</time></trkpt><trkpt lat="44.17559299787183" lon="11.337089799416356"><ele>943.0</ele><time>2026-05-01T10:03:19.999Z</time></trkpt><trkpt lat="44.17550328953972" lon="11.336902259258952"><ele>946.0</ele><time>2026-05-01T10:03:20.999Z</time></trkpt><trkpt lat="44.17537178879007" lon="11.336756291734934"><ele>949.0</ele><time>2026-05-01T10:03:21.999Z</time></trkpt><trkpt lat="44.1752260256582" lon="11.336642948707599"><ele>952.0</ele><time>2026-05-01T10:03:22.999Z</time></trkpt><trkpt lat="44.17507926733155" lon="11.336564401708163"><ele>952.0</ele><time>2026-05-01T10:03:23.999Z</time></trkpt><trkpt lat="44.17492948216767" lon="11.336548266349558"><ele>952.0</ele><time>2026-05-01T10:03:24.999Z</time></trkpt><trkpt lat="44.17477329282575" lon="11.336601458718004"><ele>952.0</ele><time>2026-05-01T10:03:25.999Z</time></trkpt><trkpt lat="44.174625415514654" lon="11.336699651924379"><ele>954.3333333333333</ele><time>2026-05-01T10:03:26.999Z</time></trkpt><trkpt lat="44.174489906569306" lon="11.336810788315619"><ele>956.6666666666667</ele><time>2026-05-01T10:03:27.999Z</time></trkpt><trkpt lat="44.17436088558527" lon="11.336919749078042"><ele>959.0</ele><time>2026-05-01T10:03:28.999Z</time></trkpt><trkpt lat="44.174236290687894" lon="11.33703110689888"><ele>959.0</ele><time>2026-05-01T10:03:29.999Z</time></trkpt><trkpt lat="44.17411143593456" lon="11.337142663941863"><ele>959.0</ele><time>2026-05-01T10:03:30.999Z</time></trkpt><trkpt lat="44.17398738431651" lon="11.337244289569309"><ele>959.0</ele><time>2026-05-01T10:03:31.999Z</time></trkpt><trkpt lat="44.173866186438325" lon="11.337353106128479"><ele>959.0</ele><time>2026-05-01T10:03:32.999Z</time></trkpt><trkpt lat="44.17375869382143" lon="11.337483945385259"><ele>960.5</ele><time>2026-05-01T10:03:33.999Z</time></trkpt><trkpt lat="44.1736765453527" lon="11.3376437061383"><ele>962.0</ele><time>2026-05-01T10:03:34.999Z</time></trkpt><trkpt lat="44.17360990282344" lon="11.337806014036147"><ele>963.5</ele><time>2026-05-01T10:03:36Z</time></trkpt><trkpt lat="44.1735573118638" lon="11.337952522096131"><ele>965.0</ele><time>2026-05-01T10:03:37Z</time></trkpt><trkpt lat="44.173499079967044" lon="11.338071440957169"><ele>965.0000000000001</ele><time>2026-05-01T10:03:38Z</time></trkpt><trkpt lat="44.17343928414991" lon="11.33816256268416"><ele>965.0</ele><time>2026-05-01T10:03:39Z</time></trkpt><trkpt lat="44.17337717950032" lon="11.338228957790397"><ele>965.0</ele><time>2026-05-01T10:03:40Z</time></trkpt><trkpt lat="44.17331336133111" lon="11.338276658953312"><ele>965.0</ele><time>2026-05-01T10:03:41Z</time></trkpt><trkpt lat="44.173213191271095" lon="11.338318228241926"><ele>965.0000000000001</ele><time>2026-05-01T10:03:43Z</time></trkpt><trkpt lat="44.173143433318344" lon="11.338340806828057"><ele>965.0</ele><time>2026-05-01T10:03:45Z</time></trkpt><trkpt lat="44.17307632825436" lon="11.338387194340696"><ele>964.4285714285713</ele><time>2026-05-01T10:03:48Z</time></trkpt><trkpt lat="44.17305926996438" lon="11.33848453664498"><ele>963.8571428571429</ele><time>2026-05-01T10:03:49Z</time></trkpt><trkpt lat="44.17300380382626" lon="11.33856197113997"><ele>963.2857142857142</ele><time>2026-05-01T10:03:52Z</time></trkpt><trkpt lat="44.173058144400294" lon="11.338625932825453"><ele>962.7142857142857</ele><time>2026-05-01T10:05:11.999Z</time></trkpt><trkpt lat="44.172981228808865" lon="11.338547716457013"><ele>962.1428571428571</ele><time>2026-05-01T10:08:07.999Z</time></trkpt><trkpt lat="44.17292205861964" lon="11.338587001168719"><ele>961.5714285714286</ele><time>2026-05-01T10:08:16.999Z</time></trkpt><trkpt lat="44.172878675938314" lon="11.338656659371242"><ele>961.0</ele><time>2026-05-01T10:08:26.999Z</time></trkpt><trkpt lat="44.17284796096335" lon="11.338735540513634"><ele>960.9999999999999</ele><time>2026-05-01T10:08:33.999Z</time></trkpt><trkpt lat="44.1728002493179" lon="11.338793715047812"><ele>961.0</ele><time>2026-05-01T10:08:42.999Z</time></trkpt><trkpt lat="44.172784114267934" lon="11.338881891186286"><ele>961.0</ele><time>2026-05-01T10:08:51.999Z</time></trkpt><trkpt lat="44.17275852099499" lon="11.338964873351022"><ele>961.0</ele><time>2026-05-01T10:09:07.999Z</time></trkpt><trkpt lat="44.172711503794346" lon="11.338865122450512"><ele>960.9999999999999</ele><time>2026-05-01T10:09:18.999Z</time></trkpt><trkpt lat="44.17281825037699" lon="11.338880369607566"><ele>961.0</ele><time>2026-05-01T10:09:29.999Z</time></trkpt><trkpt lat="44.17275923606188" lon="11.338987226469909"><ele>961.0</ele><time>2026-05-01T10:09:34.999Z</time></trkpt><trkpt lat="44.17280779139216" lon="11.338880596283495"><ele>960.9999999999999</ele><time>2026-05-01T10:12:41.404Z</time></trkpt><trkpt lat="44.17272801411572" lon="11.338858417205437"><ele>961.0</ele><time>2026-05-01T10:25:39.013Z</time></trkpt><trkpt lat="44.172782888271065" lon="11.338808608887842"><ele>961.0</ele><time>2026-05-01T10:25:51.99Z</time></trkpt><trkpt lat="44.17284233505189" lon="11.338774828177288"><ele>960.9999999999999</ele><time>2026-05-01T10:26:02.001Z</time></trkpt><trkpt lat="44.172918965860596" lon="11.338749034851721"><ele>961.0</ele><time>2026-05-01T10:26:15Z</time></trkpt><trkpt lat="44.17297194180083" lon="11.338698012137478"><ele>961.0</ele><time>2026-05-01T10:26:23Z</time></trkpt><trkpt lat="44.172977148614045" lon="11.33860592851255"><ele>961.0</ele><time>2026-05-01T10:26:30Z</time></trkpt><trkpt lat="44.17291345627706" lon="11.338611244167868"><ele>960.9999999999999</ele><time>2026-05-01T10:29:39.999Z</time></trkpt><trkpt lat="44.17284922176892" lon="11.338658390481704"><ele>961.0</ele><time>2026-05-01T10:29:48.999Z</time></trkpt><trkpt lat="44.172791165538854" lon="11.338606084635895"><ele>961.0</ele><time>2026-05-01T10:29:55.999Z</time></trkpt><trkpt lat="44.17274789598959" lon="11.33852293184827"><ele>960.9999999999999</ele><time>2026-05-01T10:30:02.999Z</time></trkpt><trkpt lat="44.17270909309244" lon="11.338448528016109"><ele>961.0</ele><time>2026-05-01T10:30:09Z</time></trkpt><trkpt lat="44.172670608604555" lon="11.338364296062899"><ele>961.0</ele><time>2026-05-01T10:30:15Z</time></trkpt><trkpt lat="44.17268786878168" lon="11.338452849270798"><ele>961.0</ele><time>2026-05-01T10:31:28.999Z</time></trkpt><trkpt lat="44.1727163045406" lon="11.338542714795059"><ele>960.9999999999999</ele><time>2026-05-01T10:31:38.999Z</time></trkpt><trkpt lat="44.17271877104333" lon="11.33863667955912"><ele>961.0</ele><time>2026-05-01T10:31:46.999Z</time></trkpt><trkpt lat="44.17274423397383" lon="11.338722118830674"><ele>961.0</ele><time>2026-05-01T10:31:53.999Z</time></trkpt><trkpt lat="44.17278413732959" lon="11.338798371353295"><ele>960.9999999999999</ele><time>2026-05-01T10:32:01.999Z</time></trkpt><trkpt lat="44.17284991616619" lon="11.338817771665713"><ele>961.0</ele><time>2026-05-01T10:32:28Z</time></trkpt><trkpt lat="44.172915878119824" lon="11.338774979297966"><ele>961.0</ele><time>2026-05-01T10:32:36Z</time></trkpt><trkpt lat="44.172975987731654" lon="11.338734503493423"><ele>960.9999999999999</ele><time>2026-05-01T10:32:42Z</time></trkpt><trkpt lat="44.172986899285135" lon="11.338628780481299"><ele>961.0</ele><time>2026-05-01T10:32:49Z</time></trkpt><trkpt lat="44.172963840306544" lon="11.338498512785652"><ele>961.0</ele><time>2026-05-01T10:38:49Z</time></trkpt><trkpt lat="44.1729653090608" lon="11.338403277183593"><ele>961.0</ele><time>2026-05-01T10:38:53Z</time></trkpt><trkpt lat="44.172915310141455" lon="11.338326709336725"><ele>960.9999999999999</ele><time>2026-05-01T10:38:55Z</time></trkpt><trkpt lat="44.17283880615924" lon="11.338308682017589"><ele>961.0</ele><time>2026-05-01T10:38:56Z</time></trkpt><trkpt lat="44.17275385940494" lon="11.338287317580356"><ele>961.0</ele><time>2026-05-01T10:38:57Z</time></trkpt><trkpt lat="44.17267490004118" lon="11.338230486439626"><ele>960.9999999999999</ele><time>2026-05-01T10:38:58Z</time></trkpt><trkpt lat="44.172601714826136" lon="11.338129854699961"><ele>960.9999999999999</ele><time>2026-05-01T10:38:59Z</time></trkpt><trkpt lat="44.17254331689647" lon="11.337991520009691"><ele>961.0</ele><time>2026-05-01T10:39:00Z</time></trkpt><trkpt lat="44.17249481527603" lon="11.33783495414095"><ele>961.0</ele><time>2026-05-01T10:39:01Z</time></trkpt><trkpt lat="44.17244468860331" lon="11.33768625474483"><ele>961.0</ele><time>2026-05-01T10:39:02Z</time></trkpt><trkpt lat="44.17238918253166" lon="11.337547362810648"><ele>960.9999999999999</ele><time>2026-05-01T10:39:03Z</time></trkpt><trkpt lat="44.17232999513754" lon="11.337413739217327"><ele>960.9999999999999</ele><time>2026-05-01T10:39:04Z</time></trkpt><trkpt lat="44.172287748578825" lon="11.33728048473482"><ele>961.0</ele><time>2026-05-01T10:39:05Z</time></trkpt><trkpt lat="44.172267578209144" lon="11.337135037537909"><ele>961.0</ele><time>2026-05-01T10:39:06Z</time></trkpt><trkpt lat="44.17226453639622" lon="11.336984262851564"><ele>955.75</ele><time>2026-05-01T10:39:07Z</time></trkpt><trkpt lat="44.17225746857792" lon="11.336821614881108"><ele>950.5</ele><time>2026-05-01T10:39:08Z</time></trkpt><trkpt lat="44.17223615630384" lon="11.33666267204029"><ele>945.25</ele><time>2026-05-01T10:39:09Z</time></trkpt><trkpt lat="44.17219760386938" lon="11.336508499652018"><ele>940.0</ele><time>2026-05-01T10:39:09.999Z</time></trkpt><trkpt lat="44.172146843162444" lon="11.336363784546764"><ele>940.0</ele><time>2026-05-01T10:39:10.999Z</time></trkpt><trkpt lat="44.172083900119766" lon="11.33622841335032"><ele>940.0</ele><time>2026-05-01T10:39:11.999Z</time></trkpt><trkpt lat="44.17202228803372" lon="11.336091494642693"><ele>940.0</ele><time>2026-05-01T10:39:12.999Z</time></trkpt><trkpt lat="44.17196261650618" lon="11.335952063667786"><ele>940.0</ele><time>2026-05-01T10:39:13.999Z</time></trkpt><trkpt lat="44.17190303874839" lon="11.335812753933721"><ele>940.0</ele><time>2026-05-01T10:39:14.999Z</time></trkpt><trkpt lat="44.171845337084655" lon="11.335672859932407"><ele>940.0</ele><time>2026-05-01T10:39:15.999Z</time></trkpt><trkpt lat="44.171786365644" lon="11.33553050429205"><ele>940.0</ele><time>2026-05-01T10:39:16.999Z</time></trkpt><trkpt lat="44.171726681187515" lon="11.335386506727518"><ele>940.0</ele><time>2026-05-01T10:39:17.999Z</time></trkpt><trkpt lat="44.17166242235438" lon="11.335246622955612"><ele>940.25</ele><time>2026-05-01T10:39:18.999Z</time></trkpt><trkpt lat="44.17159422915202" lon="11.335109934696453"><ele>940.5</ele><time>2026-05-01T10:39:19.999Z</time></trkpt><trkpt lat="44.17152363763264" lon="11.33497749471287"><ele>940.75</ele><time>2026-05-01T10:39:20.999Z</time></trkpt><trkpt lat="44.171449392797506" lon="11.334847864981635"><ele>941.0</ele><time>2026-05-01T10:39:21.999Z</time></trkpt><trkpt lat="44.17137389831102" lon="11.334722068902185"><ele>937.0</ele><time>2026-05-01T10:39:22.999Z</time></trkpt><trkpt lat="44.171295205460446" lon="11.334596383841562"><ele>933.0</ele><time>2026-05-01T10:39:23.999Z</time></trkpt><trkpt lat="44.17121119927992" lon="11.334464626946465"><ele>929.0</ele><time>2026-05-01T10:39:24.999Z</time></trkpt><trkpt lat="44.17112646971674" lon="11.334324995259065"><ele>925.0</ele><time>2026-05-01T10:39:25.999Z</time></trkpt><trkpt lat="44.17104408704948" lon="11.334175861123454"><ele>925.0</ele><time>2026-05-01T10:39:26.999Z</time></trkpt><trkpt lat="44.1709736766334" lon="11.33402533521362"><ele>925.0</ele><time>2026-05-01T10:39:27.999Z</time></trkpt><trkpt lat="44.170930287047426" lon="11.333854561696814"><ele>925.0</ele><time>2026-05-01T10:39:28.999Z</time></trkpt><trkpt lat="44.17090541429818" lon="11.333671387422777"><ele>925.0</ele><time>2026-05-01T10:39:29.999Z</time></trkpt><trkpt lat="44.17088633789024" lon="11.33348486607433"><ele>925.25</ele><time>2026-05-01T10:39:30.999Z</time></trkpt><trkpt lat="44.1708650343193" lon="11.333312771160703"><ele>925.5</ele><time>2026-05-01T10:39:31.999Z</time></trkpt><trkpt lat="44.1708361558556" lon="11.333153100092154"><ele>925.75</ele><time>2026-05-01T10:39:32.999Z</time></trkpt><trkpt lat="44.170787810418126" lon="11.332956665169311"><ele>926.0</ele><time>2026-05-01T10:39:33.999Z</time></trkpt><trkpt lat="44.17074289096856" lon="11.332790474189423"><ele>925.75</ele><time>2026-05-01T10:39:34.999Z</time></trkpt><trkpt lat="44.17068487015539" lon="11.332648513017284"><ele>925.5</ele><time>2026-05-01T10:39:35.999Z</time></trkpt><trkpt lat="44.170604351088045" lon="11.332540271173928"><ele>925.25</ele><time>2026-05-01T10:39:36.999Z</time></trkpt><trkpt lat="44.17049236288627" lon="11.332487385259443"><ele>925.0</ele><time>2026-05-01T10:39:37.999Z</time></trkpt><trkpt lat="44.17036723882683" lon="11.332476384675193"><ele>925.0</ele><time>2026-05-01T10:39:38.999Z</time></trkpt><trkpt lat="44.170242367588465" lon="11.332506879063297"><ele>925.0</ele><time>2026-05-01T10:39:39.999Z</time></trkpt><trkpt lat="44.17010606276087" lon="11.332569789747543"><ele>925.0</ele><time>2026-05-01T10:39:40.999Z</time></trkpt><trkpt lat="44.16998131761268" lon="11.332626335006786"><ele>925.0</ele><time>2026-05-01T10:39:41.999Z</time></trkpt><trkpt lat="44.16982811876361" lon="11.332701077362998"><ele>922.6666666666666</ele><time>2026-05-01T10:39:42.999Z</time></trkpt><trkpt lat="44.16967796046775" lon="11.33275231377483"><ele>920.3333333333333</ele><time>2026-05-01T10:39:43.999Z</time></trkpt><trkpt lat="44.169530249526396" lon="11.33281650852175"><ele>918.0</ele><time>2026-05-01T10:39:44.999Z</time></trkpt><trkpt lat="44.16939191723706" lon="11.332891460951158"><ele>918.0</ele><time>2026-05-01T10:39:45.999Z</time></trkpt><trkpt lat="44.16924163259769" lon="11.332893841127358"><ele>918.0</ele><time>2026-05-01T10:39:46.999Z</time></trkpt><trkpt lat="44.1690890836491" lon="11.332876187657435"><ele>918.0</ele><time>2026-05-01T10:39:47.999Z</time></trkpt><trkpt lat="44.168931156542534" lon="11.332831288222234"><ele>914.3333333333333</ele><time>2026-05-01T10:39:48.999Z</time></trkpt><trkpt lat="44.168768649231936" lon="11.332779810797362"><ele>910.6666666666666</ele><time>2026-05-01T10:39:49.999Z</time></trkpt><trkpt lat="44.168603964541575" lon="11.332742300971823"><ele>907.0</ele><time>2026-05-01T10:39:50.999Z</time></trkpt><trkpt lat="44.16844244454989" lon="11.332686298890644"><ele>907.0</ele><time>2026-05-01T10:39:51.999Z</time></trkpt><trkpt lat="44.168292872682336" lon="11.332631063147424"><ele>907.0</ele><time>2026-05-01T10:39:52.999Z</time></trkpt><trkpt lat="44.16815769760171" lon="11.332582020198428"><ele>907.0</ele><time>2026-05-01T10:39:53.999Z</time></trkpt><trkpt lat="44.16802703439814" lon="11.332532651830407"><ele>907.0</ele><time>2026-05-01T10:39:54.999Z</time></trkpt><trkpt lat="44.16791454901089" lon="11.33249335805915"><ele>903.0</ele><time>2026-05-01T10:39:55.999Z</time></trkpt><trkpt lat="44.16780811415875" lon="11.33247744442909"><ele>899.0</ele><time>2026-05-01T10:39:56.999Z</time></trkpt><trkpt lat="44.167705584398185" lon="11.332530639203684"><ele>895.0</ele><time>2026-05-01T10:39:57.999Z</time></trkpt><trkpt lat="44.16761438770324" lon="11.332659268084658"><ele>891.0</ele><time>2026-05-01T10:39:58.999Z</time></trkpt><trkpt lat="44.16753473189059" lon="11.332823196922611"><ele>891.0</ele><time>2026-05-01T10:39:59.999Z</time></trkpt><trkpt lat="44.16742815310152" lon="11.332957329625918"><ele>891.0</ele><time>2026-05-01T10:40:00.999Z</time></trkpt><trkpt lat="44.16733691845738" lon="11.333096215029043"><ele>891.0</ele><time>2026-05-01T10:40:01.999Z</time></trkpt><trkpt lat="44.16726303387671" lon="11.33323731466677"><ele>891.0</ele><time>2026-05-01T10:40:02.999Z</time></trkpt><trkpt lat="44.167183987782735" lon="11.333349113939237"><ele>888.5</ele><time>2026-05-01T10:40:03.999Z</time></trkpt><trkpt lat="44.16714189009597" lon="11.333484896821322"><ele>886.0</ele><time>2026-05-01T10:40:04.999Z</time></trkpt><trkpt lat="44.167135910764074" lon="11.333652153520488"><ele>883.5</ele><time>2026-05-01T10:40:05.999Z</time></trkpt><trkpt lat="44.16717516855457" lon="11.333827100857405"><ele>881.0</ele><time>2026-05-01T10:40:06.999Z</time></trkpt><trkpt lat="44.16724869344241" lon="11.333982426360555"><ele>880.8</ele><time>2026-05-01T10:40:07.999Z</time></trkpt><trkpt lat="44.16733385557722" lon="11.334121544579899"><ele>880.5999999999999</ele><time>2026-05-01T10:40:08.999Z</time></trkpt><trkpt lat="44.167408057907316" lon="11.334250099763942"><ele>880.4</ele><time>2026-05-01T10:40:09.999Z</time></trkpt><trkpt lat="44.16746382875501" lon="11.334363069774229"><ele>880.2</ele><time>2026-05-01T10:40:10.999Z</time></trkpt><trkpt lat="44.16750659546157" lon="11.33446448571521"><ele>880.0</ele><time>2026-05-01T10:40:11.999Z</time></trkpt><trkpt lat="44.167521290434465" lon="11.334582248546967"><ele>880.0</ele><time>2026-05-01T10:40:12.999Z</time></trkpt><trkpt lat="44.16749544475195" lon="11.334710472472873"><ele>880.0</ele><time>2026-05-01T10:40:13.999Z</time></trkpt><trkpt lat="44.16743271322505" lon="11.33483089192417"><ele>880.0</ele><time>2026-05-01T10:40:14.999Z</time></trkpt><trkpt lat="44.16731344912454" lon="11.334888134196344"><ele>880.0</ele><time>2026-05-01T10:40:15.999Z</time></trkpt><trkpt lat="44.167203865123106" lon="11.334984802722175"><ele>877.0</ele><time>2026-05-01T10:40:16.999Z</time></trkpt><trkpt lat="44.167092786016944" lon="11.335079992639347"><ele>874.0</ele><time>2026-05-01T10:40:17.999Z</time></trkpt><trkpt lat="44.16698434182275" lon="11.33517370683476"><ele>871.0</ele><time>2026-05-01T10:40:18.999Z</time></trkpt><trkpt lat="44.166877537723046" lon="11.335267724517351"><ele>868.0</ele><time>2026-05-01T10:40:19.999Z</time></trkpt><trkpt lat="44.166767844383166" lon="11.335364285696976"><ele>868.0</ele><time>2026-05-01T10:40:20.999Z</time></trkpt><trkpt lat="44.16666273834" lon="11.335456808493769"><ele>868.0</ele><time>2026-05-01T10:40:21.999Z</time></trkpt><trkpt lat="44.1665665476068" lon="11.335570827810766"><ele>868.0</ele><time>2026-05-01T10:40:22.999Z</time></trkpt><trkpt lat="44.16645538194834" lon="11.335642018036884"><ele>868.0</ele><time>2026-05-01T10:40:23.999Z</time></trkpt><trkpt lat="44.16635700706015" lon="11.335731591049873"><ele>866.5</ele><time>2026-05-01T10:40:24.999Z</time></trkpt><trkpt lat="44.166260524490475" lon="11.335820052081791"><ele>865.0</ele><time>2026-05-01T10:40:25.999Z</time></trkpt><trkpt lat="44.16617414531952" lon="11.33592125584519"><ele>863.5</ele><time>2026-05-01T10:40:26.999Z</time></trkpt><trkpt lat="44.16607589267942" lon="11.336001030306415"><ele>862.0</ele><time>2026-05-01T10:40:27.999Z</time></trkpt><trkpt lat="44.165969892460375" lon="11.33605193059702"><ele>862.0</ele><time>2026-05-01T10:40:28.999Z</time></trkpt><trkpt lat="44.1658677799994" lon="11.336111786124102"><ele>862.0</ele><time>2026-05-01T10:40:29.999Z</time></trkpt><trkpt lat="44.16576190729785" lon="11.336153131007373"><ele>862.0</ele><time>2026-05-01T10:40:30.999Z</time></trkpt><trkpt lat="44.16566772930925" lon="11.336174420238793"><ele>862.0</ele><time>2026-05-01T10:40:31.999Z</time></trkpt><trkpt lat="44.1655808524104" lon="11.336174773061964"><ele>862.0</ele><time>2026-05-01T10:40:33Z</time></trkpt><trkpt lat="44.165510646978035" lon="11.336135745957966"><ele>860.0</ele><time>2026-05-01T10:40:34Z</time></trkpt><trkpt lat="44.16546119850497" lon="11.336045571588635"><ele>858.0</ele><time>2026-05-01T10:40:35Z</time></trkpt><trkpt lat="44.165445873204206" lon="11.335902629121337"><ele>856.0</ele><time>2026-05-01T10:40:36Z</time></trkpt><trkpt lat="44.16544441729551" lon="11.335748385545319"><ele>854.0</ele><time>2026-05-01T10:40:37Z</time></trkpt><trkpt lat="44.165436819844835" lon="11.335585632356368"><ele>852.0</ele><time>2026-05-01T10:40:38Z</time></trkpt><trkpt lat="44.165416908203284" lon="11.335423021915975"><ele>851.8</ele><time>2026-05-01T10:40:39Z</time></trkpt><trkpt lat="44.16539821439062" lon="11.335258579674047"><ele>851.6</ele><time>2026-05-01T10:40:40Z</time></trkpt><trkpt lat="44.165370232762044" lon="11.3351072348381"><ele>851.4</ele><time>2026-05-01T10:40:41Z</time></trkpt><trkpt lat="44.16531970258455" lon="11.334973837362142"><ele>851.1999999999999</ele><time>2026-05-01T10:40:42Z</time></trkpt><trkpt lat="44.16525247067599" lon="11.334858313450962"><ele>851.0</ele><time>2026-05-01T10:40:43Z</time></trkpt><trkpt lat="44.165177432585516" lon="11.334750942327574"><ele>850.5999999999999</ele><time>2026-05-01T10:40:44Z</time></trkpt><trkpt lat="44.16510526412825" lon="11.334649765616728"><ele>850.2</ele><time>2026-05-01T10:40:45Z</time></trkpt><trkpt lat="44.16503643501908" lon="11.334546508707808"><ele>849.8</ele><time>2026-05-01T10:40:46Z</time></trkpt><trkpt lat="44.16497172008348" lon="11.334442528476547"><ele>849.4000000000001</ele><time>2026-05-01T10:40:47Z</time></trkpt><trkpt lat="44.16490729262395" lon="11.334338858087591"><ele>849.0</ele><time>2026-05-01T10:40:48Z</time></trkpt><trkpt lat="44.16483779900195" lon="11.33423923645893"><ele>849.0</ele><time>2026-05-01T10:40:49Z</time></trkpt><trkpt lat="44.16477044768887" lon="11.33413417577219"><ele>849.0</ele><time>2026-05-01T10:40:50Z</time></trkpt><trkpt lat="44.16470607934183" lon="11.334027800310295"><ele>849.0</ele><time>2026-05-01T10:40:51Z</time></trkpt><trkpt lat="44.164649342286644" lon="11.333911165636279"><ele>849.0</ele><time>2026-05-01T10:40:52Z</time></trkpt><trkpt lat="44.16460000700302" lon="11.33378701577241"><ele>849.0</ele><time>2026-05-01T10:40:53Z</time></trkpt><trkpt lat="44.16456510712849" lon="11.333646038754042"><ele>848.5</ele><time>2026-05-01T10:40:54Z</time></trkpt><trkpt lat="44.16454183218574" lon="11.333492703086945"><ele>848.0</ele><time>2026-05-01T10:40:55Z</time></trkpt><trkpt lat="44.164517597729564" lon="11.3333325558779"><ele>847.5</ele><time>2026-05-01T10:40:56Z</time></trkpt><trkpt lat="44.164488884424046" lon="11.333174317886357"><ele>847.0</ele><time>2026-05-01T10:40:57Z</time></trkpt><trkpt lat="44.16444362399661" lon="11.333028252284668"><ele>848.5</ele><time>2026-05-01T10:40:58Z</time></trkpt><trkpt lat="44.16437400811969" lon="11.33290696945158"><ele>850.0</ele><time>2026-05-01T10:40:59Z</time></trkpt><trkpt lat="44.1642701831047" lon="11.332802405656807"><ele>851.5</ele><time>2026-05-01T10:41:00Z</time></trkpt><trkpt lat="44.16416650031858" lon="11.332696285956713"><ele>853.0</ele><time>2026-05-01T10:41:01Z</time></trkpt><trkpt lat="44.164093554554604" lon="11.332545684777642"><ele>852.5</ele><time>2026-05-01T10:41:02Z</time></trkpt><trkpt lat="44.16400608778581" lon="11.332413127233572"><ele>852.0</ele><time>2026-05-01T10:41:03Z</time></trkpt><trkpt lat="44.163935348620896" lon="11.332262200710394"><ele>851.5</ele><time>2026-05-01T10:41:04Z</time></trkpt><trkpt lat="44.16385895791615" lon="11.332115834767624"><ele>851.0</ele><time>2026-05-01T10:41:05Z</time></trkpt><trkpt lat="44.16377288840972" lon="11.331974374253436"><ele>851.0</ele><time>2026-05-01T10:41:06Z</time></trkpt><trkpt lat="44.16367186610768" lon="11.331855911106539"><ele>851.0</ele><time>2026-05-01T10:41:07Z</time></trkpt><trkpt lat="44.163560694151535" lon="11.331758586789265"><ele>851.0</ele><time>2026-05-01T10:41:08Z</time></trkpt><trkpt lat="44.163441257747586" lon="11.331676046687488"><ele>851.0</ele><time>2026-05-01T10:41:09Z</time></trkpt><trkpt lat="44.16331988743549" lon="11.331591276119862"><ele>850.25</ele><time>2026-05-01T10:41:10Z</time></trkpt><trkpt lat="44.163194895976964" lon="11.331500529242833"><ele>849.5</ele><time>2026-05-01T10:41:10.999Z</time></trkpt><trkpt lat="44.1630721684294" lon="11.331412539890447"><ele>848.75</ele><time>2026-05-01T10:41:11.999Z</time></trkpt><trkpt lat="44.16297335150988" lon="11.331299349501297"><ele>848.0</ele><time>2026-05-01T10:41:12.999Z</time></trkpt><trkpt lat="44.162866389061094" lon="11.331226555996711"><ele>849.5</ele><time>2026-05-01T10:41:13.999Z</time></trkpt><trkpt lat="44.16283250185754" lon="11.33106565628504"><ele>851.0</ele><time>2026-05-01T10:41:14.999Z</time></trkpt><trkpt lat="44.16280910812295" lon="11.330902539061698"><ele>852.5</ele><time>2026-05-01T10:41:15.999Z</time></trkpt><trkpt lat="44.162853931824074" lon="11.330717089232065"><ele>854.0</ele><time>2026-05-01T10:41:16.999Z</time></trkpt><trkpt lat="44.16289432366079" lon="11.330543214542507"><ele>856.75</ele><time>2026-05-01T10:41:17.999Z</time></trkpt><trkpt lat="44.16290059171669" lon="11.330359330279459"><ele>859.5</ele><time>2026-05-01T10:41:18.999Z</time></trkpt><trkpt lat="44.16286323588795" lon="11.330170903568401"><ele>862.25</ele><time>2026-05-01T10:41:19.999Z</time></trkpt><trkpt lat="44.16278721688437" lon="11.329994739806855"><ele>865.0</ele><time>2026-05-01T10:41:20.999Z</time></trkpt><trkpt lat="44.162686715529084" lon="11.32984808070217"><ele>865.0</ele><time>2026-05-01T10:41:21.999Z</time></trkpt><trkpt lat="44.1625671561417" lon="11.329742623354969"><ele>865.0</ele><time>2026-05-01T10:41:22.999Z</time></trkpt><trkpt lat="44.162423357488855" lon="11.329679786023586"><ele>865.0</ele><time>2026-05-01T10:41:23.999Z</time></trkpt><trkpt lat="44.162273848350296" lon="11.329667609296921"><ele>865.0</ele><time>2026-05-01T10:41:24.999Z</time></trkpt><trkpt lat="44.1621291123842" lon="11.32965427888492"><ele>869.0</ele><time>2026-05-01T10:41:25.999Z</time></trkpt><trkpt lat="44.16199045650977" lon="11.329630459735624"><ele>873.0</ele><time>2026-05-01T10:41:26.999Z</time></trkpt><trkpt lat="44.161871039116356" lon="11.329591220547545"><ele>877.0</ele><time>2026-05-01T10:41:27.999Z</time></trkpt><trkpt lat="44.16172765310614" lon="11.329519920464042"><ele>881.0</ele><time>2026-05-01T10:41:28.999Z</time></trkpt><trkpt lat="44.16161287941832" lon="11.329444069881907"><ele>879.25</ele><time>2026-05-01T10:41:29.999Z</time></trkpt><trkpt lat="44.16151032651165" lon="11.329356168101702"><ele>877.5</ele><time>2026-05-01T10:41:30.999Z</time></trkpt><trkpt lat="44.16142193232748" lon="11.329244413521014"><ele>875.75</ele><time>2026-05-01T10:41:31.999Z</time></trkpt><trkpt lat="44.16136813291368" lon="11.329093802626932"><ele>874.0</ele><time>2026-05-01T10:41:32.999Z</time></trkpt><trkpt lat="44.16131993308337" lon="11.328938553284642"><ele>876.0</ele><time>2026-05-01T10:41:33.999Z</time></trkpt><trkpt lat="44.16129373704805" lon="11.328744611196697"><ele>878.0</ele><time>2026-05-01T10:41:34.999Z</time></trkpt><trkpt lat="44.161270027696375" lon="11.328542680732227"><ele>880.0</ele><time>2026-05-01T10:41:35.999Z</time></trkpt><trkpt lat="44.16124167952101" lon="11.328337907091257"><ele>882.0</ele><time>2026-05-01T10:41:36.999Z</time></trkpt><trkpt lat="44.161210562480825" lon="11.328132689925187"><ele>882.3333333333333</ele><time>2026-05-01T10:41:37.999Z</time></trkpt><trkpt lat="44.161168990273296" lon="11.327931386805599"><ele>882.6666666666666</ele><time>2026-05-01T10:41:38.999Z</time></trkpt><trkpt lat="44.16111794994798" lon="11.327731818667067"><ele>883.0</ele><time>2026-05-01T10:41:39.999Z</time></trkpt><trkpt lat="44.161055498491216" lon="11.327531504126457"><ele>883.0</ele><time>2026-05-01T10:41:40.999Z</time></trkpt><trkpt lat="44.16097923917661" lon="11.327334828222954"><ele>883.0</ele><time>2026-05-01T10:41:41.999Z</time></trkpt><trkpt lat="44.16089750319876" lon="11.327135516025347"><ele>883.0</ele><time>2026-05-01T10:41:42.999Z</time></trkpt><trkpt lat="44.160813925637775" lon="11.326939803833955"><ele>882.6666666666666</ele><time>2026-05-01T10:41:43.999Z</time></trkpt><trkpt lat="44.160724305588374" lon="11.326744475750738"><ele>882.3333333333333</ele><time>2026-05-01T10:41:44.999Z</time></trkpt><trkpt lat="44.1606386947877" lon="11.326538345932226"><ele>882.0</ele><time>2026-05-01T10:41:45.999Z</time></trkpt><trkpt lat="44.16055922634944" lon="11.326326264233328"><ele>882.0</ele><time>2026-05-01T10:41:46.999Z</time></trkpt><trkpt lat="44.160482371874906" lon="11.326109815455796"><ele>882.0</ele><time>2026-05-01T10:41:47.999Z</time></trkpt><trkpt lat="44.1604101696198" lon="11.32588829555396"><ele>882.0</ele><time>2026-05-01T10:41:48.999Z</time></trkpt><trkpt lat="44.160341629273" lon="11.325667202263467"><ele>884.6666666666667</ele><time>2026-05-01T10:41:49.999Z</time></trkpt><trkpt lat="44.16028000782295" lon="11.325457582326747"><ele>887.3333333333334</ele><time>2026-05-01T10:41:50.999Z</time></trkpt><trkpt lat="44.16021337008403" lon="11.325238187587924"><ele>890.0</ele><time>2026-05-01T10:41:51.999Z</time></trkpt><trkpt lat="44.160151854021414" lon="11.325028647068335"><ele>890.0</ele><time>2026-05-01T10:41:52.999Z</time></trkpt><trkpt lat="44.16009418809637" lon="11.324816514274861"><ele>890.0</ele><time>2026-05-01T10:41:53.999Z</time></trkpt><trkpt lat="44.1600406569059" lon="11.324606814707195"><ele>890.0</ele><time>2026-05-01T10:41:54.999Z</time></trkpt><trkpt lat="44.15998743793346" lon="11.324400619586976"><ele>890.3333333333334</ele><time>2026-05-01T10:41:55.999Z</time></trkpt><trkpt lat="44.15993250101893" lon="11.324196691141251"><ele>890.6666666666667</ele><time>2026-05-01T10:41:56.999Z</time></trkpt><trkpt lat="44.1598572726723" lon="11.324011802980063"><ele>891.0</ele><time>2026-05-01T10:41:57.999Z</time></trkpt><trkpt lat="44.15975474016144" lon="11.323856991255767"><ele>893.0</ele><time>2026-05-01T10:41:58.999Z</time></trkpt><trkpt lat="44.15963569683319" lon="11.323740965636677"><ele>895.0</ele><time>2026-05-01T10:41:59.999Z</time></trkpt><trkpt lat="44.159514107015134" lon="11.323653669824841"><ele>897.0</ele><time>2026-05-01T10:42:00.999Z</time></trkpt><trkpt lat="44.15939655093624" lon="11.323576885891665"><ele>899.0</ele><time>2026-05-01T10:42:01.999Z</time></trkpt><trkpt lat="44.15928303631903" lon="11.323504234209638"><ele>899.0</ele><time>2026-05-01T10:42:02.999Z</time></trkpt><trkpt lat="44.159170085332995" lon="11.323436439706894"><ele>899.0</ele><time>2026-05-01T10:42:03.999Z</time></trkpt><trkpt lat="44.15905422134077" lon="11.323363036039307"><ele>899.0</ele><time>2026-05-01T10:42:04.999Z</time></trkpt><trkpt lat="44.158953043781246" lon="11.32323439220101"><ele>899.0</ele><time>2026-05-01T10:42:05.999Z</time></trkpt><trkpt lat="44.15884688560376" lon="11.323118055980085"><ele>900.2</ele><time>2026-05-01T10:42:06.999Z</time></trkpt><trkpt lat="44.158762780295405" lon="11.323005148921693"><ele>901.4000000000001</ele><time>2026-05-01T10:42:07.999Z</time></trkpt><trkpt lat="44.158675554022544" lon="11.322926039444907"><ele>902.6</ele><time>2026-05-01T10:42:08.999Z</time></trkpt><trkpt lat="44.1586017393433" lon="11.32284045307151"><ele>903.8</ele><time>2026-05-01T10:42:09.999Z</time></trkpt><trkpt lat="44.15851704907979" lon="11.322775526793162"><ele>905.0</ele><time>2026-05-01T10:42:10.999Z</time></trkpt><trkpt lat="44.15842956815997" lon="11.322719202994561"><ele>905.0</ele><time>2026-05-01T10:42:11.999Z</time></trkpt><trkpt lat="44.158332629114" lon="11.322667273406566"><ele>905.0</ele><time>2026-05-01T10:42:12.999Z</time></trkpt><trkpt lat="44.15822824935609" lon="11.322626514489935"><ele>905.0</ele><time>2026-05-01T10:42:13.999Z</time></trkpt><trkpt lat="44.158104157524825" lon="11.322628467346055"><ele>905.0</ele><time>2026-05-01T10:42:14.999Z</time></trkpt><trkpt lat="44.15797735442592" lon="11.322669334278464"><ele>905.25</ele><time>2026-05-01T10:42:15.999Z</time></trkpt><trkpt lat="44.15785247122021" lon="11.322745569728248"><ele>905.5</ele><time>2026-05-01T10:42:16.999Z</time></trkpt><trkpt lat="44.157733787052656" lon="11.322857603096766"><ele>905.75</ele><time>2026-05-01T10:42:17.999Z</time></trkpt><trkpt lat="44.15761424516618" lon="11.322996472695896"><ele>906.0</ele><time>2026-05-01T10:42:18.999Z</time></trkpt><trkpt lat="44.15749331721567" lon="11.323135965841455"><ele>904.3333333333333</ele><time>2026-05-01T10:42:19.999Z</time></trkpt><trkpt lat="44.157359005986756" lon="11.323253982621578"><ele>902.6666666666666</ele><time>2026-05-01T10:42:20.999Z</time></trkpt><trkpt lat="44.157212142025514" lon="11.323336917580038"><ele>901.0</ele><time>2026-05-01T10:42:21.999Z</time></trkpt><trkpt lat="44.157059678276376" lon="11.323393057245248"><ele>901.0</ele><time>2026-05-01T10:42:22.999Z</time></trkpt><trkpt lat="44.1568974848137" lon="11.323399343146841"><ele>901.0</ele><time>2026-05-01T10:42:23.999Z</time></trkpt><trkpt lat="44.15674906913947" lon="11.323330708834389"><ele>901.0</ele><time>2026-05-01T10:42:24.999Z</time></trkpt><trkpt lat="44.15660232034731" lon="11.323260985497168"><ele>900.3333333333333</ele><time>2026-05-01T10:42:25.999Z</time></trkpt><trkpt lat="44.15645708107887" lon="11.323178756526685"><ele>899.6666666666667</ele><time>2026-05-01T10:42:26.999Z</time></trkpt><trkpt lat="44.15632056119795" lon="11.323109731906502"><ele>899.0</ele><time>2026-05-01T10:42:27.999Z</time></trkpt><trkpt lat="44.15610244405586" lon="11.323140054460525"><ele>899.0</ele><time>2026-05-01T10:42:28.999Z</time></trkpt><trkpt lat="44.15593316259572" lon="11.323204993424165"><ele>899.0</ele><time>2026-05-01T10:42:29.999Z</time></trkpt><trkpt lat="44.15577146123921" lon="11.323335645092286"><ele>899.0</ele><time>2026-05-01T10:42:30.999Z</time></trkpt><trkpt lat="44.15562855072212" lon="11.323517541236894"><ele>897.6666666666667</ele><time>2026-05-01T10:42:31.999Z</time></trkpt><trkpt lat="44.15550560573172" lon="11.323748718580298"><ele>896.3333333333333</ele><time>2026-05-01T10:42:32.999Z</time></trkpt><trkpt lat="44.155382031010454" lon="11.324001081816565"><ele>895.0</ele><time>2026-05-01T10:42:33.999Z</time></trkpt><trkpt lat="44.15523480406772" lon="11.324231857489838"><ele>895.0</ele><time>2026-05-01T10:42:34.999Z</time></trkpt><trkpt lat="44.15504749017713" lon="11.324364743766877"><ele>895.0</ele><time>2026-05-01T10:42:35.999Z</time></trkpt><trkpt lat="44.15490654022124" lon="11.324554436916161"><ele>895.0</ele><time>2026-05-01T10:42:36.999Z</time></trkpt><trkpt lat="44.154789016361335" lon="11.324737010337687"><ele>894.0</ele><time>2026-05-01T10:42:37.999Z</time></trkpt><trkpt lat="44.154712687039975" lon="11.324930792246992"><ele>893.0</ele><time>2026-05-01T10:42:39Z</time></trkpt><trkpt lat="44.15462804249571" lon="11.325073848443258"><ele>892.0</ele><time>2026-05-01T10:42:40Z</time></trkpt><trkpt lat="44.15452754929453" lon="11.325165170285574"><ele>891.0</ele><time>2026-05-01T10:42:41Z</time></trkpt><trkpt lat="44.15442268594328" lon="11.32516737892919"><ele>891.0</ele><time>2026-05-01T10:42:42Z</time></trkpt><trkpt lat="44.154301976657635" lon="11.325156526284447"><ele>891.0</ele><time>2026-05-01T10:42:43Z</time></trkpt><trkpt lat="44.154159099963685" lon="11.325117960228031"><ele>891.0</ele><time>2026-05-01T10:42:44Z</time></trkpt><trkpt lat="44.15402030454245" lon="11.325063476230273"><ele>891.0</ele><time>2026-05-01T10:42:45Z</time></trkpt><trkpt lat="44.15388934788605" lon="11.324990483119402"><ele>892.25</ele><time>2026-05-01T10:42:46Z</time></trkpt><trkpt lat="44.15376268811361" lon="11.324890485618035"><ele>893.5</ele><time>2026-05-01T10:42:47Z</time></trkpt><trkpt lat="44.15364043536607" lon="11.324779863789376"><ele>894.75</ele><time>2026-05-01T10:42:48Z</time></trkpt><trkpt lat="44.15350893277958" lon="11.324677588217963"><ele>896.0</ele><time>2026-05-01T10:42:49Z</time></trkpt><trkpt lat="44.15337780864968" lon="11.324564510505056"><ele>896.0</ele><time>2026-05-01T10:42:50Z</time></trkpt><trkpt lat="44.153247406527164" lon="11.324481172214886"><ele>896.0</ele><time>2026-05-01T10:42:51Z</time></trkpt><trkpt lat="44.153115024617165" lon="11.324428808390396"><ele>896.0</ele><time>2026-05-01T10:42:52Z</time></trkpt><trkpt lat="44.15298302224396" lon="11.324401637561072"><ele>896.0</ele><time>2026-05-01T10:42:53Z</time></trkpt><trkpt lat="44.15284973265929" lon="11.324428953717387"><ele>898.6666666666667</ele><time>2026-05-01T10:42:54Z</time></trkpt><trkpt lat="44.15271861228835" lon="11.324512018814803"><ele>901.3333333333333</ele><time>2026-05-01T10:42:55Z</time></trkpt><trkpt lat="44.15258167528056" lon="11.324649621351009"><ele>904.0</ele><time>2026-05-01T10:42:56Z</time></trkpt><trkpt lat="44.15241853623828" lon="11.324763518444312"><ele>902.3333333333333</ele><time>2026-05-01T10:42:57Z</time></trkpt><trkpt lat="44.15223945067753" lon="11.32491144881576"><ele>900.6666666666667</ele><time>2026-05-01T10:42:58Z</time></trkpt><trkpt lat="44.15204739520358" lon="11.325070415572043"><ele>899.0</ele><time>2026-05-01T10:42:59Z</time></trkpt><trkpt lat="44.151856033233436" lon="11.325229007075231"><ele>899.0</ele><time>2026-05-01T10:43:00Z</time></trkpt><trkpt lat="44.15167132517513" lon="11.325410479259595"><ele>899.0</ele><time>2026-05-01T10:43:01Z</time></trkpt><trkpt lat="44.151484740068014" lon="11.32556864489416"><ele>899.0</ele><time>2026-05-01T10:43:02Z</time></trkpt><trkpt lat="44.15130125566592" lon="11.325720799122177"><ele>895.0</ele><time>2026-05-01T10:43:03Z</time></trkpt><trkpt lat="44.15111526676846" lon="11.32583417665479"><ele>891.0</ele><time>2026-05-01T10:43:04Z</time></trkpt><trkpt lat="44.15092342007273" lon="11.325846143716833"><ele>887.0</ele><time>2026-05-01T10:43:05Z</time></trkpt><trkpt lat="44.15072498233127" lon="11.325858469518955"><ele>890.0</ele><time>2026-05-01T10:43:06Z</time></trkpt><trkpt lat="44.1505147712341" lon="11.325858148590735"><ele>893.0</ele><time>2026-05-01T10:43:06.999Z</time></trkpt><trkpt lat="44.15030264364147" lon="11.3258703021773"><ele>896.0</ele><time>2026-05-01T10:43:07.999Z</time></trkpt><trkpt lat="44.150100644969555" lon="11.325861831963898"><ele>896.0</ele><time>2026-05-01T10:43:08.999Z</time></trkpt><trkpt lat="44.14991144786745" lon="11.325859502494305"><ele>896.0</ele><time>2026-05-01T10:43:09.999Z</time></trkpt><trkpt lat="44.14973623622178" lon="11.325860402129216"><ele>896.0</ele><time>2026-05-01T10:43:10.999Z</time></trkpt><trkpt lat="44.14957047940315" lon="11.325894933953998"><ele>900.0</ele><time>2026-05-01T10:43:11.999Z</time></trkpt><trkpt lat="44.14941304089198" lon="11.3260051512215"><ele>904.0</ele><time>2026-05-01T10:43:12.999Z</time></trkpt><trkpt lat="44.149264438324785" lon="11.326173181767524"><ele>908.0</ele><time>2026-05-01T10:43:13.999Z</time></trkpt><trkpt lat="44.14911522758697" lon="11.32634219600661"><ele>907.0</ele><time>2026-05-01T10:43:14.999Z</time></trkpt><trkpt lat="44.148968274150114" lon="11.32651115543297"><ele>906.0</ele><time>2026-05-01T10:43:15.999Z</time></trkpt><trkpt lat="44.148838723205415" lon="11.326698493000574"><ele>905.0</ele><time>2026-05-01T10:43:16.999Z</time></trkpt><trkpt lat="44.148713688541044" lon="11.32687962497837"><ele>905.0</ele><time>2026-05-01T10:43:17.999Z</time></trkpt><trkpt lat="44.14858791246722" lon="11.327047694698859"><ele>905.0</ele><time>2026-05-01T10:43:18.999Z</time></trkpt><trkpt lat="44.148462907634055" lon="11.32720556616753"><ele>905.0</ele><time>2026-05-01T10:43:19.999Z</time></trkpt><trkpt lat="44.14833216087221" lon="11.327340863830404"><ele>900.25</ele><time>2026-05-01T10:43:20.999Z</time></trkpt><trkpt lat="44.1482044914888" lon="11.327447960934805"><ele>895.5</ele><time>2026-05-01T10:43:21.999Z</time></trkpt><trkpt lat="44.1480713375073" lon="11.327495412843463"><ele>890.75</ele><time>2026-05-01T10:43:22.999Z</time></trkpt><trkpt lat="44.147936469463986" lon="11.327457368591157"><ele>886.0</ele><time>2026-05-01T10:43:23.999Z</time></trkpt><trkpt lat="44.1478071887473" lon="11.327348699962249"><ele>886.0</ele><time>2026-05-01T10:43:24.999Z</time></trkpt><trkpt lat="44.14764817586395" lon="11.327243614284972"><ele>886.0</ele><time>2026-05-01T10:43:25.999Z</time></trkpt><trkpt lat="44.14747603378577" lon="11.327167369857605"><ele>886.0</ele><time>2026-05-01T10:43:26.999Z</time></trkpt><trkpt lat="44.147284084977315" lon="11.32713358613412"><ele>887.6666666666666</ele><time>2026-05-01T10:43:27.999Z</time></trkpt><trkpt lat="44.147080765132294" lon="11.327163735317665"><ele>889.3333333333333</ele><time>2026-05-01T10:43:28.999Z</time></trkpt><trkpt lat="44.14688292871455" lon="11.327180278868202"><ele>891.0</ele><time>2026-05-01T10:43:29.999Z</time></trkpt><trkpt lat="44.14669664326342" lon="11.327152117810352"><ele>887.0</ele><time>2026-05-01T10:43:30.999Z</time></trkpt><trkpt lat="44.146519791770665" lon="11.327060901348627"><ele>883.0</ele><time>2026-05-01T10:43:31.999Z</time></trkpt><trkpt lat="44.146333002195526" lon="11.326940149746717"><ele>879.0</ele><time>2026-05-01T10:43:32.999Z</time></trkpt><trkpt lat="44.14614090450696" lon="11.32682858786945"><ele>879.0</ele><time>2026-05-01T10:43:33.999Z</time></trkpt><trkpt lat="44.14595428987804" lon="11.326700485359142"><ele>879.0</ele><time>2026-05-01T10:43:34.999Z</time></trkpt><trkpt lat="44.14576230203533" lon="11.326596810061659"><ele>879.0</ele><time>2026-05-01T10:43:35.999Z</time></trkpt><trkpt lat="44.145560929690156" lon="11.32655589884167"><ele>879.6666666666667</ele><time>2026-05-01T10:43:36.999Z</time></trkpt><trkpt lat="44.14535628424524" lon="11.326576243997286"><ele>880.3333333333334</ele><time>2026-05-01T10:43:37.999Z</time></trkpt><trkpt lat="44.145155057093845" lon="11.326654260542357"><ele>881.0</ele><time>2026-05-01T10:43:38.999Z</time></trkpt><trkpt lat="44.144972235646" lon="11.326782244045528"><ele>881.6666666666667</ele><time>2026-05-01T10:43:39.999Z</time></trkpt><trkpt lat="44.1448361865603" lon="11.3269707056866"><ele>882.3333333333333</ele><time>2026-05-01T10:43:40.999Z</time></trkpt><trkpt lat="44.14473991305964" lon="11.327181537222454"><ele>883.0</ele><time>2026-05-01T10:43:41.999Z</time></trkpt><trkpt lat="44.14465165101603" lon="11.327369852087534"><ele>880.0</ele><time>2026-05-01T10:43:42.999Z</time></trkpt><trkpt lat="44.144548437994345" lon="11.32748368842909"><ele>877.0</ele><time>2026-05-01T10:43:43.999Z</time></trkpt><trkpt lat="44.14442899547691" lon="11.327538616477728"><ele>874.0</ele><time>2026-05-01T10:43:44.999Z</time></trkpt><trkpt lat="44.1442989048152" lon="11.32750722608722"><ele>871.0</ele><time>2026-05-01T10:43:45.999Z</time></trkpt><trkpt lat="44.14414367638917" lon="11.327431827465203"><ele>869.3333333333333</ele><time>2026-05-01T10:43:46.999Z</time></trkpt><trkpt lat="44.14396928514227" lon="11.327356738167806"><ele>867.6666666666667</ele><time>2026-05-01T10:43:47.999Z</time></trkpt><trkpt lat="44.143803838033826" lon="11.327258220017422"><ele>866.0</ele><time>2026-05-01T10:43:48.999Z</time></trkpt><trkpt lat="44.143635447137015" lon="11.32717970538767"><ele>868.0</ele><time>2026-05-01T10:43:49.999Z</time></trkpt><trkpt lat="44.14346600235263" lon="11.327129199850035"><ele>870.0</ele><time>2026-05-01T10:43:50.999Z</time></trkpt><trkpt lat="44.14329850319792" lon="11.327122292126502"><ele>872.0</ele><time>2026-05-01T10:43:51.999Z</time></trkpt><trkpt lat="44.14313158599966" lon="11.327143447198038"><ele>872.0</ele><time>2026-05-01T10:43:52.999Z</time></trkpt><trkpt lat="44.14296222334865" lon="11.327166470046418"><ele>872.0</ele><time>2026-05-01T10:43:53.999Z</time></trkpt><trkpt lat="44.14280010341455" lon="11.327199797391343"><ele>872.0</ele><time>2026-05-01T10:43:54.999Z</time></trkpt><trkpt lat="44.14263801388302" lon="11.327251207525476"><ele>869.6666666666667</ele><time>2026-05-01T10:43:55.999Z</time></trkpt><trkpt lat="44.142476776333" lon="11.327314313486431"><ele>867.3333333333333</ele><time>2026-05-01T10:43:56.999Z</time></trkpt><trkpt lat="44.142324580501224" lon="11.32739742640144"><ele>865.0</ele><time>2026-05-01T10:43:57.999Z</time></trkpt><trkpt lat="44.14217700159637" lon="11.327506345676008"><ele>865.0</ele><time>2026-05-01T10:43:58.999Z</time></trkpt><trkpt lat="44.14203251721294" lon="11.327627958886868"><ele>865.0</ele><time>2026-05-01T10:43:59.999Z</time></trkpt><trkpt lat="44.14189894915132" lon="11.327743403175507"><ele>865.0</ele><time>2026-05-01T10:44:00.999Z</time></trkpt><trkpt lat="44.14177043606801" lon="11.32784832277573"><ele>865.0</ele><time>2026-05-01T10:44:01.999Z</time></trkpt><trkpt lat="44.14165104317306" lon="11.327941591169806"><ele>865.0</ele><time>2026-05-01T10:44:02.999Z</time></trkpt><trkpt lat="44.14153501171962" lon="11.32803119323932"><ele>865.0</ele><time>2026-05-01T10:44:03.999Z</time></trkpt><trkpt lat="44.14142290725256" lon="11.328120473534561"><ele>865.0</ele><time>2026-05-01T10:44:04.999Z</time></trkpt><trkpt lat="44.141312747944525" lon="11.32820940845023"><ele>863.5</ele><time>2026-05-01T10:44:05.999Z</time></trkpt><trkpt lat="44.14120115885609" lon="11.32830121652641"><ele>862.0</ele><time>2026-05-01T10:44:06.999Z</time></trkpt><trkpt lat="44.141091221579394" lon="11.328394865980554"><ele>860.5</ele><time>2026-05-01T10:44:07.999Z</time></trkpt><trkpt lat="44.14097859262808" lon="11.328461792622946"><ele>859.0</ele><time>2026-05-01T10:44:08.999Z</time></trkpt><trkpt lat="44.140881093746856" lon="11.328541311621086"><ele>859.0</ele><time>2026-05-01T10:44:09.999Z</time></trkpt><trkpt lat="44.14078626951483" lon="11.328583791698028"><ele>859.0000000000001</ele><time>2026-05-01T10:44:10.999Z</time></trkpt><trkpt lat="44.14068953432367" lon="11.328565160237044"><ele>859.0000000000001</ele><time>2026-05-01T10:44:11.999Z</time></trkpt><trkpt lat="44.1405903092375" lon="11.328499771553197"><ele>859.0</ele><time>2026-05-01T10:44:12.999Z</time></trkpt><trkpt lat="44.14053293168719" lon="11.328335349977909"><ele>859.0</ele><time>2026-05-01T10:44:13.999Z</time></trkpt><trkpt lat="44.14050560251483" lon="11.328160583111682"><ele>855.25</ele><time>2026-05-01T10:44:14.999Z</time></trkpt><trkpt lat="44.1404695430387" lon="11.327988089543723"><ele>851.5</ele><time>2026-05-01T10:44:15.999Z</time></trkpt><trkpt lat="44.14048333632108" lon="11.327822406276589"><ele>847.75</ele><time>2026-05-01T10:44:16.999Z</time></trkpt><trkpt lat="44.140519524819915" lon="11.327677532406899"><ele>844.0</ele><time>2026-05-01T10:44:17.999Z</time></trkpt><trkpt lat="44.14058968895541" lon="11.327537379248575"><ele>844.0</ele><time>2026-05-01T10:44:18.999Z</time></trkpt><trkpt lat="44.14069578115688" lon="11.32742091023836"><ele>844.0</ele><time>2026-05-01T10:44:19.999Z</time></trkpt><trkpt lat="44.14081968998533" lon="11.327334865609393"><ele>844.0</ele><time>2026-05-01T10:44:20.999Z</time></trkpt><trkpt lat="44.14093621004143" lon="11.327242284180867"><ele>844.0</ele><time>2026-05-01T10:44:21.999Z</time></trkpt><trkpt lat="44.141044790917974" lon="11.327145063400764"><ele>844.5</ele><time>2026-05-01T10:44:22.999Z</time></trkpt><trkpt lat="44.14115206168479" lon="11.327052832932985"><ele>845.0</ele><time>2026-05-01T10:44:23.999Z</time></trkpt><trkpt lat="44.141249478144054" lon="11.326945488142877"><ele>845.5</ele><time>2026-05-01T10:44:24.999Z</time></trkpt><trkpt lat="44.141311716832256" lon="11.326778101531836"><ele>846.0</ele><time>2026-05-01T10:44:25.999Z</time></trkpt><trkpt lat="44.14133857810508" lon="11.326581236834745"><ele>846.0</ele><time>2026-05-01T10:44:26.999Z</time></trkpt><trkpt lat="44.14131391749062" lon="11.32637288760082"><ele>846.0</ele><time>2026-05-01T10:44:27.999Z</time></trkpt><trkpt lat="44.14125743098334" lon="11.326171252522116"><ele>846.0</ele><time>2026-05-01T10:44:28.999Z</time></trkpt><trkpt lat="44.14119158297598" lon="11.325988579753055"><ele>846.0</ele><time>2026-05-01T10:44:29.999Z</time></trkpt><trkpt lat="44.14113583238506" lon="11.325817995435507"><ele>846.0</ele><time>2026-05-01T10:44:30.999Z</time></trkpt><trkpt lat="44.1410824704659" lon="11.325659096728504"><ele>846.0</ele><time>2026-05-01T10:44:31.999Z</time></trkpt><trkpt lat="44.14103835402383" lon="11.325495942522208"><ele>846.0</ele><time>2026-05-01T10:44:32.999Z</time></trkpt><trkpt lat="44.141032323131846" lon="11.325326809691218"><ele>845.5</ele><time>2026-05-01T10:44:33.999Z</time></trkpt><trkpt lat="44.14107317318804" lon="11.325150542626078"><ele>845.0</ele><time>2026-05-01T10:44:34.999Z</time></trkpt><trkpt lat="44.14112690868295" lon="11.324974248338615"><ele>844.5</ele><time>2026-05-01T10:44:35.999Z</time></trkpt><trkpt lat="44.141177562985824" lon="11.324798407851937"><ele>844.0</ele><time>2026-05-01T10:44:36.999Z</time></trkpt><trkpt lat="44.14121254092437" lon="11.324605678309586"><ele>843.25</ele><time>2026-05-01T10:44:37.999Z</time></trkpt><trkpt lat="44.1412465378946" lon="11.324410742895076"><ele>842.5</ele><time>2026-05-01T10:44:38.999Z</time></trkpt><trkpt lat="44.141269731405295" lon="11.324213024639889"><ele>841.75</ele><time>2026-05-01T10:44:39.998Z</time></trkpt><trkpt lat="44.141273279850665" lon="11.324006926325271"><ele>841.0</ele><time>2026-05-01T10:44:40.998Z</time></trkpt><trkpt lat="44.14126548007085" lon="11.323803939428103"><ele>841.0</ele><time>2026-05-01T10:44:41.998Z</time></trkpt><trkpt lat="44.14123856888696" lon="11.323600520699685"><ele>841.0</ele><time>2026-05-01T10:44:42.998Z</time></trkpt><trkpt lat="44.14117502608575" lon="11.323404550689373"><ele>841.0</ele><time>2026-05-01T10:44:43.998Z</time></trkpt><trkpt lat="44.141087865421575" lon="11.323215548445575"><ele>842.3333333333333</ele><time>2026-05-01T10:44:45Z</time></trkpt><trkpt lat="44.141008491360935" lon="11.323016123834298"><ele>843.6666666666667</ele><time>2026-05-01T10:44:46Z</time></trkpt><trkpt lat="44.14093719127548" lon="11.322809140011202"><ele>845.0</ele><time>2026-05-01T10:44:47Z</time></trkpt><trkpt lat="44.140862457923475" lon="11.322599978459435"><ele>845.0</ele><time>2026-05-01T10:44:48Z</time></trkpt><trkpt lat="44.14079303233055" lon="11.32238167138023"><ele>845.0</ele><time>2026-05-01T10:44:49Z</time></trkpt><trkpt lat="44.140717542246406" lon="11.322172708148122"><ele>845.0</ele><time>2026-05-01T10:44:50Z</time></trkpt><trkpt lat="44.14064708592036" lon="11.321983245533891"><ele>843.25</ele><time>2026-05-01T10:44:51Z</time></trkpt><trkpt lat="44.14058014587582" lon="11.321826420742909"><ele>841.5</ele><time>2026-05-01T10:44:52Z</time></trkpt><trkpt lat="44.14048170097797" lon="11.321711841458832"><ele>839.75</ele><time>2026-05-01T10:44:53Z</time></trkpt><trkpt lat="44.140339836332885" lon="11.32166494319398"><ele>838.0</ele><time>2026-05-01T10:44:54Z</time></trkpt><trkpt lat="44.14018460610894" lon="11.321661252844235"><ele>838.0</ele><time>2026-05-01T10:44:55Z</time></trkpt><trkpt lat="44.14004360805982" lon="11.32165447551538"><ele>838.0</ele><time>2026-05-01T10:44:56Z</time></trkpt><trkpt lat="44.13991883683506" lon="11.321595065230811"><ele>838.0</ele><time>2026-05-01T10:44:57Z</time></trkpt><trkpt lat="44.139797673933714" lon="11.321511056937245"><ele>838.0</ele><time>2026-05-01T10:44:58Z</time></trkpt><trkpt lat="44.13969843145648" lon="11.321364765608415"><ele>836.0</ele><time>2026-05-01T10:44:59Z</time></trkpt><trkpt lat="44.139589306470405" lon="11.321233037600392"><ele>834.0</ele><time>2026-05-01T10:45:00Z</time></trkpt><trkpt lat="44.13950331675336" lon="11.321104832817023"><ele>832.0</ele><time>2026-05-01T10:45:01Z</time></trkpt><trkpt lat="44.13941472403232" lon="11.32098607576355"><ele>830.0</ele><time>2026-05-01T10:45:02Z</time></trkpt><trkpt lat="44.139324925841514" lon="11.320869974018812"><ele>830.0</ele><time>2026-05-01T10:45:03Z</time></trkpt><trkpt lat="44.13922716395662" lon="11.320765348546479"><ele>830.0</ele><time>2026-05-01T10:45:03.999Z</time></trkpt><trkpt lat="44.1391256883588" lon="11.320676671459447"><ele>830.0</ele><time>2026-05-01T10:45:04.999Z</time></trkpt><trkpt lat="44.13902310467061" lon="11.32060247765726"><ele>830.0</ele><time>2026-05-01T10:45:05.999Z</time></trkpt><trkpt lat="44.13893093688454" lon="11.320525854080854"><ele>828.6</ele><time>2026-05-01T10:45:06.999Z</time></trkpt><trkpt lat="44.138855987349906" lon="11.320451710464054"><ele>827.2</ele><time>2026-05-01T10:45:07.999Z</time></trkpt><trkpt lat="44.13879458633203" lon="11.320373105755118"><ele>825.8</ele><time>2026-05-01T10:45:08.999Z</time></trkpt><trkpt lat="44.13874467670252" lon="11.32027580174939"><ele>824.4</ele><time>2026-05-01T10:45:09.999Z</time></trkpt><trkpt lat="44.138715579662936" lon="11.320150306367974"><ele>823.0</ele><time>2026-05-01T10:45:10.999Z</time></trkpt><trkpt lat="44.13871983216319" lon="11.319997682677228"><ele>823.0</ele><time>2026-05-01T10:45:11.999Z</time></trkpt><trkpt lat="44.13874608570059" lon="11.319827761564852"><ele>823.0</ele><time>2026-05-01T10:45:12.999Z</time></trkpt><trkpt lat="44.13877248547867" lon="11.319637074960912"><ele>823.0</ele><time>2026-05-01T10:45:13.999Z</time></trkpt><trkpt lat="44.13879269448344" lon="11.319422161378819"><ele>823.0</ele><time>2026-05-01T10:45:14.999Z</time></trkpt><trkpt lat="44.13880865199023" lon="11.319180832540574"><ele>821.3333333333333</ele><time>2026-05-01T10:45:15.999Z</time></trkpt><trkpt lat="44.13881622186609" lon="11.318935645585556"><ele>819.6666666666667</ele><time>2026-05-01T10:45:16.999Z</time></trkpt><trkpt lat="44.13881818898275" lon="11.318703203393893"><ele>818.0</ele><time>2026-05-01T10:45:17.999Z</time></trkpt><trkpt lat="44.13882149344669" lon="11.318473251478537"><ele>818.0</ele><time>2026-05-01T10:45:18.999Z</time></trkpt><trkpt lat="44.138835272795724" lon="11.318235273532556"><ele>818.0</ele><time>2026-05-01T10:45:19.999Z</time></trkpt><trkpt lat="44.13885018744662" lon="11.318015995519858"><ele>818.0</ele><time>2026-05-01T10:45:20.999Z</time></trkpt><trkpt lat="44.13887091512633" lon="11.317806853684269"><ele>819.0</ele><time>2026-05-01T10:45:21.999Z</time></trkpt><trkpt lat="44.13886605879014" lon="11.317616136638126"><ele>820.0</ele><time>2026-05-01T10:45:22.999Z</time></trkpt><trkpt lat="44.138830504792104" lon="11.317452075142793"><ele>821.0</ele><time>2026-05-01T10:45:23.999Z</time></trkpt><trkpt lat="44.1387862367281" lon="11.31730344590243"><ele>822.0</ele><time>2026-05-01T10:45:24.999Z</time></trkpt><trkpt lat="44.138734128811784" lon="11.317138630299729"><ele>824.5</ele><time>2026-05-01T10:45:25.999Z</time></trkpt><trkpt lat="44.13867098077941" lon="11.316963281862646"><ele>827.0</ele><time>2026-05-01T10:45:26.999Z</time></trkpt><trkpt lat="44.13861328647006" lon="11.316780557985064"><ele>829.5</ele><time>2026-05-01T10:45:27.999Z</time></trkpt><trkpt lat="44.13855405350163" lon="11.316590632264706"><ele>832.0</ele><time>2026-05-01T10:45:28.999Z</time></trkpt><trkpt lat="44.13849817676316" lon="11.316390938723517"><ele>832.6666666666666</ele><time>2026-05-01T10:45:29.999Z</time></trkpt><trkpt lat="44.1384638342511" lon="11.316174927059011"><ele>833.3333333333333</ele><time>2026-05-01T10:45:30.999Z</time></trkpt><trkpt lat="44.138444144607455" lon="11.315948702014731"><ele>834.0</ele><time>2026-05-01T10:45:31.999Z</time></trkpt><trkpt lat="44.13842615835139" lon="11.315704438447304"><ele>835.0</ele><time>2026-05-01T10:45:32.999Z</time></trkpt><trkpt lat="44.138406466343966" lon="11.315451988161549"><ele>836.0</ele><time>2026-05-01T10:45:33.999Z</time></trkpt><trkpt lat="44.138390861424" lon="11.31519369718735"><ele>837.0</ele><time>2026-05-01T10:45:34.999Z</time></trkpt><trkpt lat="44.13837798715195" lon="11.314938893169058"><ele>836.6666666666667</ele><time>2026-05-01T10:45:35.999Z</time></trkpt><trkpt lat="44.138372987274394" lon="11.31468261603202"><ele>836.3333333333334</ele><time>2026-05-01T10:45:36.999Z</time></trkpt><trkpt lat="44.13836809290484" lon="11.314435301770397"><ele>836.0</ele><time>2026-05-01T10:45:37.999Z</time></trkpt><trkpt lat="44.13836274185621" lon="11.31419020491157"><ele>836.0</ele><time>2026-05-01T10:45:38.999Z</time></trkpt><trkpt lat="44.138393792279395" lon="11.313946125146572"><ele>836.0</ele><time>2026-05-01T10:45:39.999Z</time></trkpt><trkpt lat="44.138409155898366" lon="11.313695907327357"><ele>836.0</ele><time>2026-05-01T10:45:40.999Z</time></trkpt><trkpt lat="44.138451068124375" lon="11.313458363369792"><ele>836.0</ele><time>2026-05-01T10:45:41.999Z</time></trkpt><trkpt lat="44.13849350678438" lon="11.313219519281356"><ele>836.0</ele><time>2026-05-01T10:45:42.999Z</time></trkpt><trkpt lat="44.13852120276158" lon="11.312998004326264"><ele>836.0</ele><time>2026-05-01T10:45:43.999Z</time></trkpt><trkpt lat="44.13851959670909" lon="11.312790118540464"><ele>837.3333333333334</ele><time>2026-05-01T10:45:44.999Z</time></trkpt><trkpt lat="44.13845812599955" lon="11.312594249158115"><ele>838.6666666666667</ele><time>2026-05-01T10:45:45.999Z</time></trkpt><trkpt lat="44.13833871087695" lon="11.312436368244594"><ele>840.0</ele><time>2026-05-01T10:45:46.999Z</time></trkpt><trkpt lat="44.1382100005386" lon="11.312285566024048"><ele>842.25</ele><time>2026-05-01T10:45:47.999Z</time></trkpt><trkpt lat="44.13814759941943" lon="11.31209906209099"><ele>844.5</ele><time>2026-05-01T10:45:48.999Z</time></trkpt><trkpt lat="44.13818834412688" lon="11.311927363708179"><ele>846.75</ele><time>2026-05-01T10:45:49.999Z</time></trkpt><trkpt lat="44.13823818064064" lon="11.311737083894013"><ele>849.0</ele><time>2026-05-01T10:45:50.999Z</time></trkpt><trkpt lat="44.13827895186305" lon="11.311531312065325"><ele>851.6666666666667</ele><time>2026-05-01T10:45:51.999Z</time></trkpt><trkpt lat="44.1383305737105" lon="11.311340917278008"><ele>854.3333333333334</ele><time>2026-05-01T10:45:52.999Z</time></trkpt><trkpt lat="44.138345610358" lon="11.311129118283224"><ele>857.0</ele><time>2026-05-01T10:45:53.999Z</time></trkpt><trkpt lat="44.13829197705767" lon="11.310893259758835"><ele>855.0</ele><time>2026-05-01T10:45:54.999Z</time></trkpt><trkpt lat="44.13819955532254" lon="11.31064775625716"><ele>853.0</ele><time>2026-05-01T10:45:55.999Z</time></trkpt><trkpt lat="44.13810353915426" lon="11.310402015334354"><ele>851.0</ele><time>2026-05-01T10:45:56.999Z</time></trkpt><trkpt lat="44.13802163080497" lon="11.310146938054954"><ele>851.0</ele><time>2026-05-01T10:45:57.999Z</time></trkpt><trkpt lat="44.13797448070558" lon="11.309892554751016"><ele>851.0</ele><time>2026-05-01T10:45:58.999Z</time></trkpt><trkpt lat="44.13793527097121" lon="11.309666883924391"><ele>851.0</ele><time>2026-05-01T10:45:59.999Z</time></trkpt><trkpt lat="44.13789324111954" lon="11.309460594544785"><ele>852.0</ele><time>2026-05-01T10:46:00.999Z</time></trkpt><trkpt lat="44.137847912974415" lon="11.309263940210654"><ele>853.0</ele><time>2026-05-01T10:46:01.999Z</time></trkpt><trkpt lat="44.13778089383345" lon="11.309095390077365"><ele>854.0</ele><time>2026-05-01T10:46:02.999Z</time></trkpt><trkpt lat="44.13766078308548" lon="11.308980093863838"><ele>855.0</ele><time>2026-05-01T10:46:03.999Z</time></trkpt><trkpt lat="44.137508836261816" lon="11.308900050567022"><ele>856.3333333333333</ele><time>2026-05-01T10:46:04.999Z</time></trkpt><trkpt lat="44.13735096742021" lon="11.308818772888625"><ele>857.6666666666666</ele><time>2026-05-01T10:46:05.999Z</time></trkpt><trkpt lat="44.13719849519304" lon="11.308724659512189"><ele>859.0</ele><time>2026-05-01T10:46:06.999Z</time></trkpt><trkpt lat="44.13705100464019" lon="11.308624315062925"><ele>859.0</ele><time>2026-05-01T10:46:07.999Z</time></trkpt><trkpt lat="44.136909684620015" lon="11.308524204084035"><ele>859.0</ele><time>2026-05-01T10:46:08.999Z</time></trkpt><trkpt lat="44.13678113384895" lon="11.308438230249024"><ele>859.0</ele><time>2026-05-01T10:46:09.999Z</time></trkpt><trkpt lat="44.13667058529199" lon="11.308347678634822"><ele>859.0</ele><time>2026-05-01T10:46:10.999Z</time></trkpt><trkpt lat="44.136597113548774" lon="11.308223710120174"><ele>858.25</ele><time>2026-05-01T10:46:11.999Z</time></trkpt><trkpt lat="44.13651956496335" lon="11.308108242130494"><ele>857.5</ele><time>2026-05-01T10:46:12.999Z</time></trkpt><trkpt lat="44.136452343667315" lon="11.30796367656873"><ele>856.75</ele><time>2026-05-01T10:46:13.999Z</time></trkpt><trkpt lat="44.13638676713325" lon="11.307810961249805"><ele>856.0</ele><time>2026-05-01T10:46:14.999Z</time></trkpt><trkpt lat="44.136323432091224" lon="11.307653193936638"><ele>856.0</ele><time>2026-05-01T10:46:15.999Z</time></trkpt><trkpt lat="44.136265488060666" lon="11.30748692001837"><ele>856.0</ele><time>2026-05-01T10:46:16.999Z</time></trkpt><trkpt lat="44.136221107942625" lon="11.307306439243629"><ele>856.0</ele><time>2026-05-01T10:46:17.999Z</time></trkpt><trkpt lat="44.13617957210434" lon="11.307119744348652"><ele>856.0</ele><time>2026-05-01T10:46:18.999Z</time></trkpt><trkpt lat="44.136119361483345" lon="11.306935782507999"><ele>858.3333333333333</ele><time>2026-05-01T10:46:19.999Z</time></trkpt><trkpt lat="44.1360323144445" lon="11.306764896020608"><ele>860.6666666666667</ele><time>2026-05-01T10:46:20.999Z</time></trkpt><trkpt lat="44.13592985858087" lon="11.306603913717812"><ele>863.0</ele><time>2026-05-01T10:46:21.999Z</time></trkpt><trkpt lat="44.135823188364654" lon="11.306445636985764"><ele>869.6666666666667</ele><time>2026-05-01T10:46:22.999Z</time></trkpt><trkpt lat="44.135699988405555" lon="11.306314506479675"><ele>876.3333333333333</ele><time>2026-05-01T10:46:23.999Z</time></trkpt><trkpt lat="44.13554991526931" lon="11.306234307448495"><ele>883.0</ele><time>2026-05-01T10:46:24.999Z</time></trkpt><trkpt lat="44.135385860910255" lon="11.306199446814935"><ele>883.0</ele><time>2026-05-01T10:46:25.999Z</time></trkpt><trkpt lat="44.135220298475325" lon="11.306182157795575"><ele>883.0</ele><time>2026-05-01T10:46:26.999Z</time></trkpt><trkpt lat="44.13505917405597" lon="11.306123019477893"><ele>883.0</ele><time>2026-05-01T10:46:27.999Z</time></trkpt><trkpt lat="44.13489409881098" lon="11.306084344420066"><ele>879.0</ele><time>2026-05-01T10:46:28.999Z</time></trkpt><trkpt lat="44.134731130975794" lon="11.306046618862956"><ele>875.0</ele><time>2026-05-01T10:46:29.999Z</time></trkpt><trkpt lat="44.13457592276014" lon="11.306006168515294"><ele>871.0</ele><time>2026-05-01T10:46:30.999Z</time></trkpt><trkpt lat="44.13442958092261" lon="11.305944278472701"><ele>871.0</ele><time>2026-05-01T10:46:31.999Z</time></trkpt><trkpt lat="44.13429415109887" lon="11.305850517886512"><ele>871.0</ele><time>2026-05-01T10:46:32.999Z</time></trkpt><trkpt lat="44.13414973512436" lon="11.305781764500997"><ele>871.0</ele><time>2026-05-01T10:46:33.999Z</time></trkpt><trkpt lat="44.134058988483055" lon="11.305606181762514"><ele>875.25</ele><time>2026-05-01T10:46:34.999Z</time></trkpt><trkpt lat="44.13395014612213" lon="11.305509488480931"><ele>879.5</ele><time>2026-05-01T10:46:35.999Z</time></trkpt><trkpt lat="44.133883474795546" lon="11.305359978391888"><ele>883.75</ele><time>2026-05-01T10:46:36.999Z</time></trkpt><trkpt lat="44.13385785849825" lon="11.305186579752387"><ele>888.0</ele><time>2026-05-01T10:46:37.999Z</time></trkpt><trkpt lat="44.13386161650367" lon="11.30500906266444"><ele>888.0</ele><time>2026-05-01T10:46:38.999Z</time></trkpt><trkpt lat="44.13383024196185" lon="11.304834660794015"><ele>888.0</ele><time>2026-05-01T10:46:39.999Z</time></trkpt><trkpt lat="44.13374263499242" lon="11.304704223285002"><ele>888.0</ele><time>2026-05-01T10:46:40.999Z</time></trkpt><trkpt lat="44.13361522410167" lon="11.304648586402315"><ele>888.0</ele><time>2026-05-01T10:46:41.999Z</time></trkpt><trkpt lat="44.13348239245201" lon="11.304677830576972"><ele>888.0</ele><time>2026-05-01T10:46:42.998Z</time></trkpt><trkpt lat="44.13335722895848" lon="11.304788078474253"><ele>888.0</ele><time>2026-05-01T10:46:43.998Z</time></trkpt><trkpt lat="44.13322075426711" lon="11.30488230488881"><ele>888.0</ele><time>2026-05-01T10:46:44.998Z</time></trkpt><trkpt lat="44.133067378467366" lon="11.304948058685346"><ele>890.3333333333333</ele><time>2026-05-01T10:46:45.998Z</time></trkpt><trkpt lat="44.132898931920316" lon="11.30499684591581"><ele>892.6666666666666</ele><time>2026-05-01T10:46:46.998Z</time></trkpt><trkpt lat="44.13272238017698" lon="11.305022591085883"><ele>895.0</ele><time>2026-05-01T10:46:47.998Z</time></trkpt><trkpt lat="44.132544543440396" lon="11.30504061439509"><ele>892.3333333333333</ele><time>2026-05-01T10:46:48.998Z</time></trkpt><trkpt lat="44.13237690925974" lon="11.30505068448815"><ele>889.6666666666667</ele><time>2026-05-01T10:46:49.998Z</time></trkpt><trkpt lat="44.13223412597981" lon="11.304990968588898"><ele>887.0</ele><time>2026-05-01T10:46:50.999Z</time></trkpt><trkpt lat="44.13209005982366" lon="11.304897979810484"><ele>887.0</ele><time>2026-05-01T10:46:51.999Z</time></trkpt><trkpt lat="44.13193703656011" lon="11.304794313557371"><ele>887.0</ele><time>2026-05-01T10:46:52.999Z</time></trkpt><trkpt lat="44.131786146919424" lon="11.304664515023266"><ele>887.0</ele><time>2026-05-01T10:46:53.999Z</time></trkpt><trkpt lat="44.13163222742985" lon="11.304529072110238"><ele>892.0</ele><time>2026-05-01T10:46:54.999Z</time></trkpt><trkpt lat="44.13147015006753" lon="11.304417346459982"><ele>897.0</ele><time>2026-05-01T10:46:55.999Z</time></trkpt><trkpt lat="44.13129475159848" lon="11.304336506190571"><ele>902.0</ele><time>2026-05-01T10:46:56.999Z</time></trkpt><trkpt lat="44.131116196949435" lon="11.304279244907015"><ele>902.0</ele><time>2026-05-01T10:46:57.999Z</time></trkpt><trkpt lat="44.130934260831644" lon="11.304227080957387"><ele>902.0</ele><time>2026-05-01T10:46:58.999Z</time></trkpt><trkpt lat="44.13075416895054" lon="11.304174439056045"><ele>902.0</ele><time>2026-05-01T10:46:59.999Z</time></trkpt><trkpt lat="44.13057269029223" lon="11.304122836047316"><ele>900.0</ele><time>2026-05-01T10:47:00.999Z</time></trkpt><trkpt lat="44.13039575917608" lon="11.30406886375461"><ele>898.0</ele><time>2026-05-01T10:47:01.999Z</time></trkpt><trkpt lat="44.130220668810914" lon="11.30399230705962"><ele>896.0</ele><time>2026-05-01T10:47:02.999Z</time></trkpt><trkpt lat="44.13004788796838" lon="11.303902292923299"><ele>903.3333333333334</ele><time>2026-05-01T10:47:03.999Z</time></trkpt><trkpt lat="44.12987379005786" lon="11.303814337534654"><ele>910.6666666666667</ele><time>2026-05-01T10:47:04.999Z</time></trkpt><trkpt lat="44.1297036827118" lon="11.303734945313883"><ele>918.0</ele><time>2026-05-01T10:47:05.999Z</time></trkpt><trkpt lat="44.12954052755666" lon="11.303667752037557"><ele>918.0</ele><time>2026-05-01T10:47:06.999Z</time></trkpt><trkpt lat="44.129388661547274" lon="11.303641666330973"><ele>918.0</ele><time>2026-05-01T10:47:07.999Z</time></trkpt><trkpt lat="44.129251177300496" lon="11.303667269812422"><ele>918.0</ele><time>2026-05-01T10:47:08.999Z</time></trkpt><trkpt lat="44.1291283678073" lon="11.303659539832648"><ele>918.0</ele><time>2026-05-01T10:47:09.999Z</time></trkpt><trkpt lat="44.12904496433204" lon="11.303525178401912"><ele>920.3333333333333</ele><time>2026-05-01T10:47:10.999Z</time></trkpt><trkpt lat="44.12899746127519" lon="11.303340418579193"><ele>922.6666666666666</ele><time>2026-05-01T10:47:11.999Z</time></trkpt><trkpt lat="44.12893198891205" lon="11.303140729262838"><ele>925.0</ele><time>2026-05-01T10:47:12.999Z</time></trkpt><trkpt lat="44.128868260322804" lon="11.302929077563562"><ele>925.0</ele><time>2026-05-01T10:47:13.999Z</time></trkpt><trkpt lat="44.12875028606483" lon="11.302743630713497"><ele>925.0</ele><time>2026-05-01T10:47:14.999Z</time></trkpt><trkpt lat="44.12859938452379" lon="11.302588431288733"><ele>925.0</ele><time>2026-05-01T10:47:15.999Z</time></trkpt><trkpt lat="44.12842876898171" lon="11.30245521736313"><ele>925.0</ele><time>2026-05-01T10:47:16.999Z</time></trkpt><trkpt lat="44.12824947786655" lon="11.302354405169012"><ele>925.0</ele><time>2026-05-01T10:47:17.999Z</time></trkpt><trkpt lat="44.12807122182192" lon="11.302267044400997"><ele>925.0</ele><time>2026-05-01T10:47:18.999Z</time></trkpt><trkpt lat="44.127904118465985" lon="11.302152332074316"><ele>926.6666666666666</ele><time>2026-05-01T10:47:19.999Z</time></trkpt><trkpt lat="44.12773656771233" lon="11.302046474204515"><ele>928.3333333333333</ele><time>2026-05-01T10:47:20.999Z</time></trkpt><trkpt lat="44.12758667328635" lon="11.301918353194658"><ele>930.0</ele><time>2026-05-01T10:47:21.999Z</time></trkpt><trkpt lat="44.12744793774056" lon="11.301764495495549"><ele>930.6666666666667</ele><time>2026-05-01T10:47:22.999Z</time></trkpt><trkpt lat="44.127308328552985" lon="11.301607222941529"><ele>931.3333333333334</ele><time>2026-05-01T10:47:23.999Z</time></trkpt><trkpt lat="44.127165006497485" lon="11.301466220428361"><ele>932.0</ele><time>2026-05-01T10:47:24.999Z</time></trkpt><trkpt lat="44.12703462998547" lon="11.30131458971975"><ele>932.0</ele><time>2026-05-01T10:47:25.999Z</time></trkpt><trkpt lat="44.12690282723881" lon="11.301178126703824"><ele>932.0</ele><time>2026-05-01T10:47:26.999Z</time></trkpt><trkpt lat="44.12676149780933" lon="11.301053581490569"><ele>932.0</ele><time>2026-05-01T10:47:27.999Z</time></trkpt><trkpt lat="44.12661470207044" lon="11.300917485979946"><ele>928.0</ele><time>2026-05-01T10:47:28.999Z</time></trkpt><trkpt lat="44.12645775185848" lon="11.300828418537202"><ele>924.0</ele><time>2026-05-01T10:47:29.999Z</time></trkpt><trkpt lat="44.126297095269564" lon="11.300744350533476"><ele>920.0</ele><time>2026-05-01T10:47:30.999Z</time></trkpt><trkpt lat="44.12612622815085" lon="11.300699091679647"><ele>920.0</ele><time>2026-05-01T10:47:31.999Z</time></trkpt><trkpt lat="44.1259507570115" lon="11.300688561207995"><ele>920.0</ele><time>2026-05-01T10:47:32.999Z</time></trkpt><trkpt lat="44.125777728923" lon="11.300646433478045"><ele>920.0</ele><time>2026-05-01T10:47:33.999Z</time></trkpt><trkpt lat="44.125601341728235" lon="11.300624372115255"><ele>917.3333333333334</ele><time>2026-05-01T10:47:34.999Z</time></trkpt><trkpt lat="44.12542359064497" lon="11.300604151344004"><ele>914.6666666666667</ele><time>2026-05-01T10:47:35.999Z</time></trkpt><trkpt lat="44.125246914827194" lon="11.300583400221452"><ele>912.0</ele><time>2026-05-01T10:47:36.999Z</time></trkpt><trkpt lat="44.1250706801353" lon="11.300586501059415"><ele>912.3333333333333</ele><time>2026-05-01T10:47:37.999Z</time></trkpt><trkpt lat="44.124895891219" lon="11.300542307046364"><ele>912.6666666666666</ele><time>2026-05-01T10:47:38.999Z</time></trkpt><trkpt lat="44.12472173463077" lon="11.300546845905739"><ele>913.0</ele><time>2026-05-01T10:47:39.999Z</time></trkpt><trkpt lat="44.12455403785639" lon="11.300612066381252"><ele>913.0</ele><time>2026-05-01T10:47:40.999Z</time></trkpt><trkpt lat="44.124386142672186" lon="11.300649143709503"><ele>913.0</ele><time>2026-05-01T10:47:41.999Z</time></trkpt><trkpt lat="44.12422953164016" lon="11.300717902818127"><ele>913.0</ele><time>2026-05-01T10:47:42.999Z</time></trkpt><trkpt lat="44.12407502042921" lon="11.300780731345444"><ele>913.3333333333333</ele><time>2026-05-01T10:47:43.999Z</time></trkpt><trkpt lat="44.12391752055894" lon="11.300815098285096"><ele>913.6666666666667</ele><time>2026-05-01T10:47:44.999Z</time></trkpt><trkpt lat="44.12375052431857" lon="11.30079868984816"><ele>914.0</ele><time>2026-05-01T10:47:45.999Z</time></trkpt><trkpt lat="44.12357978659509" lon="11.300768268816114"><ele>914.0</ele><time>2026-05-01T10:47:46.999Z</time></trkpt><trkpt lat="44.12340187204794" lon="11.300759132839419"><ele>914.0</ele><time>2026-05-01T10:47:47.999Z</time></trkpt><trkpt lat="44.12323107297864" lon="11.300704112467445"><ele>914.0</ele><time>2026-05-01T10:47:48.999Z</time></trkpt><trkpt lat="44.12306290458875" lon="11.300704762936922"><ele>909.0</ele><time>2026-05-01T10:47:49.999Z</time></trkpt><trkpt lat="44.12291663476794" lon="11.300627543332256"><ele>904.0</ele><time>2026-05-01T10:47:50.999Z</time></trkpt><trkpt lat="44.122792924132526" lon="11.30049006590874"><ele>899.0</ele><time>2026-05-01T10:47:51.999Z</time></trkpt><trkpt lat="44.12269250611463" lon="11.300310530360925"><ele>899.0</ele><time>2026-05-01T10:47:52.999Z</time></trkpt><trkpt lat="44.12261728998833" lon="11.30009363517207"><ele>899.0</ele><time>2026-05-01T10:47:53.999Z</time></trkpt><trkpt lat="44.12254401184316" lon="11.299874671089286"><ele>899.0</ele><time>2026-05-01T10:47:54.999Z</time></trkpt><trkpt lat="44.122459645262595" lon="11.299666259446349"><ele>893.6666666666667</ele><time>2026-05-01T10:47:55.999Z</time></trkpt><trkpt lat="44.12237552486306" lon="11.29946365516351"><ele>888.3333333333333</ele><time>2026-05-01T10:47:56.999Z</time></trkpt><trkpt lat="44.12229212966456" lon="11.299263775886864"><ele>883.0</ele><time>2026-05-01T10:47:57.999Z</time></trkpt><trkpt lat="44.12221260835275" lon="11.299072052477367"><ele>883.6666666666666</ele><time>2026-05-01T10:47:58.999Z</time></trkpt><trkpt lat="44.12213312914973" lon="11.298885000358752"><ele>884.3333333333333</ele><time>2026-05-01T10:47:59.999Z</time></trkpt><trkpt lat="44.12205850639633" lon="11.298698186816946"><ele>885.0</ele><time>2026-05-01T10:48:00.999Z</time></trkpt><trkpt lat="44.12200591775164" lon="11.298497490755372"><ele>885.0</ele><time>2026-05-01T10:48:01.999Z</time></trkpt><trkpt lat="44.121986476479066" lon="11.298272429792917"><ele>885.0</ele><time>2026-05-01T10:48:02.999Z</time></trkpt><trkpt lat="44.12198594717965" lon="11.298032717680158"><ele>885.0</ele><time>2026-05-01T10:48:03.999Z</time></trkpt><trkpt lat="44.12198863423373" lon="11.297776245614356"><ele>885.3333333333333</ele><time>2026-05-01T10:48:04.999Z</time></trkpt><trkpt lat="44.12200288072077" lon="11.297509234893568"><ele>885.6666666666666</ele><time>2026-05-01T10:48:05.999Z</time></trkpt><trkpt lat="44.12202033156663" lon="11.297241424275782"><ele>886.0</ele><time>2026-05-01T10:48:06.999Z</time></trkpt><trkpt lat="44.122033787181216" lon="11.296975627919572"><ele>886.0</ele><time>2026-05-01T10:48:07.999Z</time></trkpt><trkpt lat="44.12204969855926" lon="11.29671979040273"><ele>886.0</ele><time>2026-05-01T10:48:08.999Z</time></trkpt><trkpt lat="44.122059323695574" lon="11.29647597666297"><ele>886.0</ele><time>2026-05-01T10:48:09.999Z</time></trkpt><trkpt lat="44.12204532962513" lon="11.29625258289401"><ele>886.0</ele><time>2026-05-01T10:48:10.999Z</time></trkpt><trkpt lat="44.121985525633576" lon="11.296045994199455"><ele>886.0</ele><time>2026-05-01T10:48:11.999Z</time></trkpt><trkpt lat="44.12187691089326" lon="11.295889008340477"><ele>886.0</ele><time>2026-05-01T10:48:12.999Z</time></trkpt><trkpt lat="44.12171840753461" lon="11.295788159674565"><ele>879.3333333333333</ele><time>2026-05-01T10:48:13.999Z</time></trkpt><trkpt lat="44.12154396804768" lon="11.295703792297868"><ele>872.6666666666667</ele><time>2026-05-01T10:48:14.999Z</time></trkpt><trkpt lat="44.12142004576503" lon="11.295527722233784"><ele>866.0</ele><time>2026-05-01T10:48:15.999Z</time></trkpt><trkpt lat="44.121306001044694" lon="11.295316663424906"><ele>866.0</ele><time>2026-05-01T10:48:16.999Z</time></trkpt><trkpt lat="44.12117627944654" lon="11.295101844565677"><ele>866.0</ele><time>2026-05-01T10:48:17.999Z</time></trkpt><trkpt lat="44.121054206346116" lon="11.294877051079109"><ele>866.0</ele><time>2026-05-01T10:48:18.999Z</time></trkpt><trkpt lat="44.1209357031283" lon="11.294638343053432"><ele>867.6666666666667</ele><time>2026-05-01T10:48:19.999Z</time></trkpt><trkpt lat="44.120832620987656" lon="11.294370950013981"><ele>869.3333333333333</ele><time>2026-05-01T10:48:20.999Z</time></trkpt><trkpt lat="44.12073082946917" lon="11.294087253943495"><ele>871.0</ele><time>2026-05-01T10:48:21.999Z</time></trkpt><trkpt lat="44.120587139151965" lon="11.29381650705748"><ele>866.0</ele><time>2026-05-01T10:48:22.999Z</time></trkpt><trkpt lat="44.12039244870365" lon="11.293560671370676"><ele>861.0</ele><time>2026-05-01T10:48:23.999Z</time></trkpt><trkpt lat="44.12019241191731" lon="11.293293568159855"><ele>860.5</ele><time>2026-05-01T10:48:24.999Z</time></trkpt><trkpt lat="44.11999669117884" lon="11.29308662280143"><ele>860.0</ele><time>2026-05-01T10:48:25.999Z</time></trkpt><trkpt lat="44.11980363037273" lon="11.292865596256277"><ele>860.0</ele><time>2026-05-01T10:48:26.999Z</time></trkpt><trkpt lat="44.11962984092205" lon="11.292660697374913"><ele>860.0</ele><time>2026-05-01T10:48:27.999Z</time></trkpt><trkpt lat="44.119471491200194" lon="11.292465092635016"><ele>860.0</ele><time>2026-05-01T10:48:28.999Z</time></trkpt><trkpt lat="44.11935549255278" lon="11.29224496295954"><ele>860.6666666666667</ele><time>2026-05-01T10:48:29.999Z</time></trkpt><trkpt lat="44.119273849993895" lon="11.292008128338843"><ele>861.3333333333333</ele><time>2026-05-01T10:48:30.999Z</time></trkpt><trkpt lat="44.11922012075204" lon="11.291740598986602"><ele>862.0</ele><time>2026-05-01T10:48:31.999Z</time></trkpt><trkpt lat="44.119210774865955" lon="11.291461272759328"><ele>862.6666666666666</ele><time>2026-05-01T10:48:32.999Z</time></trkpt><trkpt lat="44.11920944112142" lon="11.291154674375083"><ele>863.3333333333333</ele><time>2026-05-01T10:48:33.999Z</time></trkpt><trkpt lat="44.11919073499463" lon="11.290837613672082"><ele>864.0</ele><time>2026-05-01T10:48:34.999Z</time></trkpt><trkpt lat="44.11920082613391" lon="11.290528486786833"><ele>866.0</ele><time>2026-05-01T10:48:35.999Z</time></trkpt><trkpt lat="44.1192013842183" lon="11.290220860493134"><ele>868.0</ele><time>2026-05-01T10:48:36.999Z</time></trkpt><trkpt lat="44.11920428451021" lon="11.289936259959516"><ele>870.0</ele><time>2026-05-01T10:48:37.999Z</time></trkpt><trkpt lat="44.119196239539" lon="11.289685243596145"><ele>869.6666666666667</ele><time>2026-05-01T10:48:38.999Z</time></trkpt><trkpt lat="44.11915288014704" lon="11.28946083083362"><ele>869.3333333333334</ele><time>2026-05-01T10:48:39.999Z</time></trkpt><trkpt lat="44.11904396508419" lon="11.28929379921166"><ele>869.0</ele><time>2026-05-01T10:48:40.999Z</time></trkpt><trkpt lat="44.118877543823004" lon="11.28916745894098"><ele>869.0</ele><time>2026-05-01T10:48:41.999Z</time></trkpt><trkpt lat="44.11868932229622" lon="11.28905585665381"><ele>869.0</ele><time>2026-05-01T10:48:42.999Z</time></trkpt><trkpt lat="44.118506602291866" lon="11.28892101270853"><ele>869.0</ele><time>2026-05-01T10:48:43.999Z</time></trkpt><trkpt lat="44.1183345804343" lon="11.2887729560305"><ele>865.6666666666667</ele><time>2026-05-01T10:48:44.999Z</time></trkpt><trkpt lat="44.118163493569405" lon="11.28862701571804"><ele>862.3333333333333</ele><time>2026-05-01T10:48:45.998Z</time></trkpt><trkpt lat="44.11799827026328" lon="11.288484959241966"><ele>859.0</ele><time>2026-05-01T10:48:46.998Z</time></trkpt><trkpt lat="44.11785862697309" lon="11.28831809918657"><ele>859.0</ele><time>2026-05-01T10:48:47.998Z</time></trkpt><trkpt lat="44.11774251799523" lon="11.28814342699567"><ele>859.0</ele><time>2026-05-01T10:48:48.998Z</time></trkpt><trkpt lat="44.11766459329563" lon="11.287942213746003"><ele>859.0</ele><time>2026-05-01T10:48:49.998Z</time></trkpt><trkpt lat="44.11762588561612" lon="11.287714566969898"><ele>859.3333333333333</ele><time>2026-05-01T10:48:50.998Z</time></trkpt><trkpt lat="44.1175891870804" lon="11.287448398071863"><ele>859.6666666666667</ele><time>2026-05-01T10:48:51.998Z</time></trkpt><trkpt lat="44.11754972931199" lon="11.287183411018685"><ele>860.0</ele><time>2026-05-01T10:48:52.998Z</time></trkpt><trkpt lat="44.11750318649729" lon="11.286935047583887"><ele>861.6666666666667</ele><time>2026-05-01T10:48:53.998Z</time></trkpt><trkpt lat="44.11740262065743" lon="11.286748194288576"><ele>863.3333333333333</ele><time>2026-05-01T10:48:54.998Z</time></trkpt><trkpt lat="44.1172648438363" lon="11.286655588971604"><ele>865.0</ele><time>2026-05-01T10:48:55.998Z</time></trkpt><trkpt lat="44.11711356753099" lon="11.286636010110211"><ele>869.3333333333333</ele><time>2026-05-01T10:48:56.999Z</time></trkpt><trkpt lat="44.116965741010546" lon="11.286722550022843"><ele>873.6666666666667</ele><time>2026-05-01T10:48:57.999Z</time></trkpt><trkpt lat="44.1168516759635" lon="11.286864810710583"><ele>878.0</ele><time>2026-05-01T10:48:58.999Z</time></trkpt><trkpt lat="44.11677147965402" lon="11.287068075058954"><ele>873.6666666666667</ele><time>2026-05-01T10:48:59.999Z</time></trkpt><trkpt lat="44.11671059668719" lon="11.287296896487085"><ele>869.3333333333333</ele><time>2026-05-01T10:49:00.999Z</time></trkpt><trkpt lat="44.11665176782685" lon="11.287521156887493"><ele>865.0</ele><time>2026-05-01T10:49:01.999Z</time></trkpt><trkpt lat="44.11658460830547" lon="11.287733227499444"><ele>865.6666666666666</ele><time>2026-05-01T10:49:02.999Z</time></trkpt><trkpt lat="44.116516140167036" lon="11.28793630646903"><ele>866.3333333333333</ele><time>2026-05-01T10:49:03.999Z</time></trkpt><trkpt lat="44.11644520303189" lon="11.288127038707616"><ele>867.0</ele><time>2026-05-01T10:49:04.999Z</time></trkpt><trkpt lat="44.11633390383704" lon="11.288266528581666"><ele>865.75</ele><time>2026-05-01T10:49:05.999Z</time></trkpt><trkpt lat="44.11621117868264" lon="11.288357444673334"><ele>864.5</ele><time>2026-05-01T10:49:06.999Z</time></trkpt><trkpt lat="44.116066878979346" lon="11.288367673265407"><ele>863.25</ele><time>2026-05-01T10:49:07.999Z</time></trkpt><trkpt lat="44.11592120453603" lon="11.288309679031778"><ele>862.0</ele><time>2026-05-01T10:49:08.999Z</time></trkpt><trkpt lat="44.11577429411365" lon="11.288211157858465"><ele>859.6666666666666</ele><time>2026-05-01T10:49:09.999Z</time></trkpt><trkpt lat="44.11565673958598" lon="11.288054130080186"><ele>857.3333333333333</ele><time>2026-05-01T10:49:10.999Z</time></trkpt><trkpt lat="44.11557301159742" lon="11.28785238901351"><ele>855.0</ele><time>2026-05-01T10:49:11.999Z</time></trkpt><trkpt lat="44.11549158992567" lon="11.287621298889714"><ele>855.0</ele><time>2026-05-01T10:49:12.999Z</time></trkpt><trkpt lat="44.115441113331926" lon="11.287371834173111"><ele>855.0</ele><time>2026-05-01T10:49:13.999Z</time></trkpt><trkpt lat="44.11539061338978" lon="11.28713303377583"><ele>855.0</ele><time>2026-05-01T10:49:14.999Z</time></trkpt><trkpt lat="44.11529007040261" lon="11.286921248242983"><ele>856.0</ele><time>2026-05-01T10:49:15.999Z</time></trkpt><trkpt lat="44.115173223220005" lon="11.286724980496285"><ele>857.0</ele><time>2026-05-01T10:49:16.999Z</time></trkpt><trkpt lat="44.115026900607425" lon="11.286565829384164"><ele>858.0</ele><time>2026-05-01T10:49:17.999Z</time></trkpt><trkpt lat="44.1148528085202" lon="11.286463583813727"><ele>859.3333333333333</ele><time>2026-05-01T10:49:18.999Z</time></trkpt><trkpt lat="44.11466880286952" lon="11.286400914158909"><ele>860.6666666666666</ele><time>2026-05-01T10:49:19.999Z</time></trkpt><trkpt lat="44.1144830798495" lon="11.286365537879066"><ele>862.0</ele><time>2026-05-01T10:49:20.999Z</time></trkpt><trkpt lat="44.11430486241084" lon="11.286333829664125"><ele>862.0</ele><time>2026-05-01T10:49:21.999Z</time></trkpt><trkpt lat="44.11413044376222" lon="11.286260517187637"><ele>862.0</ele><time>2026-05-01T10:49:22.999Z</time></trkpt><trkpt lat="44.113960752964736" lon="11.286172911025622"><ele>862.0</ele><time>2026-05-01T10:49:23.999Z</time></trkpt><trkpt lat="44.113791759473614" lon="11.28606158509947"><ele>858.3333333333333</ele><time>2026-05-01T10:49:24.999Z</time></trkpt><trkpt lat="44.113614325915094" lon="11.285949969406788"><ele>854.6666666666667</ele><time>2026-05-01T10:49:25.999Z</time></trkpt><trkpt lat="44.11344766416273" lon="11.285825599129863"><ele>851.0</ele><time>2026-05-01T10:49:26.999Z</time></trkpt><trkpt lat="44.113267729093096" lon="11.285700972896828"><ele>852.3333333333334</ele><time>2026-05-01T10:49:27.999Z</time></trkpt><trkpt lat="44.11309179780079" lon="11.285577818235618"><ele>853.6666666666667</ele><time>2026-05-01T10:49:28.999Z</time></trkpt><trkpt lat="44.11291427654904" lon="11.285452716939217"><ele>855.0</ele><time>2026-05-01T10:49:29.999Z</time></trkpt><trkpt lat="44.112737348326114" lon="11.285327899027676"><ele>855.0</ele><time>2026-05-01T10:49:30.999Z</time></trkpt><trkpt lat="44.11256251232975" lon="11.285206516490504"><ele>855.0</ele><time>2026-05-01T10:49:31.999Z</time></trkpt><trkpt lat="44.11238310780396" lon="11.285115484070188"><ele>855.0</ele><time>2026-05-01T10:49:32.999Z</time></trkpt><trkpt lat="44.1121930344596" lon="11.28508040423778"><ele>854.0</ele><time>2026-05-01T10:49:33.999Z</time></trkpt><trkpt lat="44.112003081079585" lon="11.285076198314858"><ele>853.0</ele><time>2026-05-01T10:49:34.999Z</time></trkpt><trkpt lat="44.111823554247884" lon="11.28504145830538"><ele>852.0</ele><time>2026-05-01T10:49:35.999Z</time></trkpt><trkpt lat="44.1116499162915" lon="11.285019532570013"><ele>850.5</ele><time>2026-05-01T10:49:36.999Z</time></trkpt><trkpt lat="44.11149593828695" lon="11.285017682629835"><ele>849.0</ele><time>2026-05-01T10:49:37.999Z</time></trkpt><trkpt lat="44.11136038634094" lon="11.284946339381534"><ele>847.5</ele><time>2026-05-01T10:49:38.999Z</time></trkpt><trkpt lat="44.11123832515987" lon="11.284855650788678"><ele>846.0</ele><time>2026-05-01T10:49:39.999Z</time></trkpt><trkpt lat="44.111111484399515" lon="11.284782877295319"><ele>847.25</ele><time>2026-05-01T10:49:40.999Z</time></trkpt><trkpt lat="44.11099526101565" lon="11.284681036818762"><ele>848.5</ele><time>2026-05-01T10:49:41.999Z</time></trkpt><trkpt lat="44.11087326731995" lon="11.284578921369377"><ele>849.75</ele><time>2026-05-01T10:49:42.999Z</time></trkpt><trkpt lat="44.11075124917335" lon="11.284480142716795"><ele>851.0</ele><time>2026-05-01T10:49:43.999Z</time></trkpt><trkpt lat="44.11062839451485" lon="11.284383648747179"><ele>851.0</ele><time>2026-05-01T10:49:44.999Z</time></trkpt><trkpt lat="44.11050490973608" lon="11.284284487199166"><ele>851.0</ele><time>2026-05-01T10:49:45.999Z</time></trkpt><trkpt lat="44.11038423725997" lon="11.284184473545386"><ele>851.0</ele><time>2026-05-01T10:49:46.999Z</time></trkpt><trkpt lat="44.110270415982946" lon="11.284087454955985"><ele>851.0</ele><time>2026-05-01T10:49:47.999Z</time></trkpt><trkpt lat="44.11016288658151" lon="11.284005736729952"><ele>851.0000000000001</ele><time>2026-05-01T10:49:48.999Z</time></trkpt><trkpt lat="44.11008398736771" lon="11.283939375965895"><ele>851.0</ele><time>2026-05-01T10:49:49.999Z</time></trkpt><trkpt lat="44.11002177890178" lon="11.283889660720558"><ele>851.0</ele><time>2026-05-01T10:49:50.999Z</time></trkpt><trkpt lat="44.10992303535471" lon="11.283812005158905"><ele>851.0</ele><time>2026-05-01T10:49:52.999Z</time></trkpt><trkpt lat="44.10984537145417" lon="11.283754208980033"><ele>851.0000000000001</ele><time>2026-05-01T10:49:54.999Z</time></trkpt><trkpt lat="44.10977789606318" lon="11.283716414053718"><ele>851.0</ele><time>2026-05-01T10:49:57.999Z</time></trkpt><trkpt lat="44.1097063691725" lon="11.28364599627216"><ele>852.8</ele><time>2026-05-01T10:50:00.999Z</time></trkpt><trkpt lat="44.10962217135889" lon="11.283610905810065"><ele>854.5999999999999</ele><time>2026-05-01T10:50:01.999Z</time></trkpt><trkpt lat="44.10952175560816" lon="11.283580238012254"><ele>856.4</ele><time>2026-05-01T10:50:02.999Z</time></trkpt><trkpt lat="44.109404484814476" lon="11.283571502284808"><ele>858.2</ele><time>2026-05-01T10:50:03.999Z</time></trkpt><trkpt lat="44.10929451043842" lon="11.283541026409354"><ele>860.0</ele><time>2026-05-01T10:50:04.999Z</time></trkpt><trkpt lat="44.10918289445995" lon="11.28351706986184"><ele>861.0</ele><time>2026-05-01T10:50:05.999Z</time></trkpt><trkpt lat="44.109069234293855" lon="11.283477655263033"><ele>862.0</ele><time>2026-05-01T10:50:06.999Z</time></trkpt><trkpt lat="44.108949136305455" lon="11.283459052525806"><ele>863.0</ele><time>2026-05-01T10:50:07.999Z</time></trkpt><trkpt lat="44.1088226219397" lon="11.283454112894523"><ele>864.0</ele><time>2026-05-01T10:50:08.999Z</time></trkpt><trkpt lat="44.108693368338066" lon="11.283462925255204"><ele>864.0</ele><time>2026-05-01T10:50:09.999Z</time></trkpt><trkpt lat="44.10855679419934" lon="11.283494434053912"><ele>864.0</ele><time>2026-05-01T10:50:10.999Z</time></trkpt><trkpt lat="44.10841413023841" lon="11.283562806323248"><ele>864.0</ele><time>2026-05-01T10:50:11.999Z</time></trkpt><trkpt lat="44.108284204681226" lon="11.283668538338393"><ele>864.0</ele><time>2026-05-01T10:50:12.999Z</time></trkpt><trkpt lat="44.10813245058699" lon="11.283715040709367"><ele>867.6666666666667</ele><time>2026-05-01T10:50:13.999Z</time></trkpt><trkpt lat="44.10798813172421" lon="11.283755418128468"><ele>871.3333333333334</ele><time>2026-05-01T10:50:14.999Z</time></trkpt><trkpt lat="44.107830467230265" lon="11.283773695921958"><ele>875.0</ele><time>2026-05-01T10:50:15.999Z</time></trkpt><trkpt lat="44.107678239169076" lon="11.283781798259206"><ele>875.0</ele><time>2026-05-01T10:50:16.999Z</time></trkpt><trkpt lat="44.107521845464035" lon="11.283811064713916"><ele>875.0</ele><time>2026-05-01T10:50:17.999Z</time></trkpt><trkpt lat="44.107370130291635" lon="11.283816045711674"><ele>875.0</ele><time>2026-05-01T10:50:18.999Z</time></trkpt><trkpt lat="44.107222195679626" lon="11.283826758991118"><ele>875.0</ele><time>2026-05-01T10:50:19.999Z</time></trkpt><trkpt lat="44.1070777058012" lon="11.2838302835368"><ele>875.0</ele><time>2026-05-01T10:50:20.999Z</time></trkpt><trkpt lat="44.106936569952744" lon="11.28382324082511"><ele>875.0</ele><time>2026-05-01T10:50:21.999Z</time></trkpt><trkpt lat="44.106799371945556" lon="11.283792751341753"><ele>875.0</ele><time>2026-05-01T10:50:22.999Z</time></trkpt><trkpt lat="44.10666829035489" lon="11.28371081908462"><ele>873.5</ele><time>2026-05-01T10:50:23.999Z</time></trkpt><trkpt lat="44.10653740130018" lon="11.2836364195299"><ele>872.0</ele><time>2026-05-01T10:50:24.999Z</time></trkpt><trkpt lat="44.106415787648274" lon="11.283514920904"><ele>870.5</ele><time>2026-05-01T10:50:25.999Z</time></trkpt><trkpt lat="44.10630422269791" lon="11.2833758378168"><ele>869.0</ele><time>2026-05-01T10:50:26.999Z</time></trkpt><trkpt lat="44.106207118869186" lon="11.283212115089055"><ele>872.3333333333334</ele><time>2026-05-01T10:50:27.999Z</time></trkpt><trkpt lat="44.106113335530054" lon="11.283032359936126"><ele>875.6666666666667</ele><time>2026-05-01T10:50:28.999Z</time></trkpt><trkpt lat="44.10601427623764" lon="11.282845909220484"><ele>879.0</ele><time>2026-05-01T10:50:29.999Z</time></trkpt><trkpt lat="44.10590290729517" lon="11.282655541758347"><ele>879.0</ele><time>2026-05-01T10:50:30.999Z</time></trkpt><trkpt lat="44.10577768579113" lon="11.282465041311726"><ele>879.0</ele><time>2026-05-01T10:50:31.999Z</time></trkpt><trkpt lat="44.10564544690304" lon="11.282266299675824"><ele>879.0</ele><time>2026-05-01T10:50:32.999Z</time></trkpt><trkpt lat="44.10550630823753" lon="11.282061479244371"><ele>879.3333333333333</ele><time>2026-05-01T10:50:33.999Z</time></trkpt><trkpt lat="44.105367214843284" lon="11.281860324082754"><ele>879.6666666666666</ele><time>2026-05-01T10:50:34.999Z</time></trkpt><trkpt lat="44.10522538262158" lon="11.281663745190164"><ele>880.0</ele><time>2026-05-01T10:50:35.999Z</time></trkpt><trkpt lat="44.105086081956856" lon="11.281473707966414"><ele>879.3333333333333</ele><time>2026-05-01T10:50:36.999Z</time></trkpt><trkpt lat="44.10494808278711" lon="11.281286301297943"><ele>878.6666666666667</ele><time>2026-05-01T10:50:37.999Z</time></trkpt><trkpt lat="44.10481042460724" lon="11.281096541907637"><ele>878.0</ele><time>2026-05-01T10:50:38.999Z</time></trkpt><trkpt lat="44.10466360045339" lon="11.280899461928628"><ele>878.0</ele><time>2026-05-01T10:50:39.999Z</time></trkpt><trkpt lat="44.10449344666803" lon="11.280681815154551"><ele>878.0</ele><time>2026-05-01T10:50:40.999Z</time></trkpt><trkpt lat="44.10431844143349" lon="11.280465778474198"><ele>875.5</ele><time>2026-05-01T10:50:41.999Z</time></trkpt><trkpt lat="44.10413716853841" lon="11.280241837968248"><ele>873.0</ele><time>2026-05-01T10:50:42.999Z</time></trkpt><trkpt lat="44.10395387081048" lon="11.280008458253246"><ele>877.5</ele><time>2026-05-01T10:50:43.999Z</time></trkpt><trkpt lat="44.10376483366076" lon="11.279755047347113"><ele>882.0</ele><time>2026-05-01T10:50:44.999Z</time></trkpt><trkpt lat="44.10358633976536" lon="11.279479069559507"><ele>882.0</ele><time>2026-05-01T10:50:45.999Z</time></trkpt><trkpt lat="44.103414282136" lon="11.279191873993259"><ele>882.0</ele><time>2026-05-01T10:50:46.999Z</time></trkpt><trkpt lat="44.10323904821175" lon="11.278916830332035"><ele>882.5</ele><time>2026-05-01T10:50:47.999Z</time></trkpt><trkpt lat="44.10304073573355" lon="11.278680140925077"><ele>883.0</ele><time>2026-05-01T10:50:48.999Z</time></trkpt><trkpt lat="44.10283433434844" lon="11.27850592973288"><ele>883.0</ele><time>2026-05-01T10:50:49.999Z</time></trkpt><trkpt lat="44.10263853782229" lon="11.278346969205675"><ele>883.0</ele><time>2026-05-01T10:50:50.999Z</time></trkpt><trkpt lat="44.102492436248134" lon="11.278189229986602"><ele>883.0</ele><time>2026-05-01T10:50:51.999Z</time></trkpt><trkpt lat="44.1023636341165" lon="11.278073938495861"><ele>884.0</ele><time>2026-05-01T10:50:52.999Z</time></trkpt><trkpt lat="44.102299039827834" lon="11.277896179619363"><ele>885.0</ele><time>2026-05-01T10:50:53.998Z</time></trkpt><trkpt lat="44.10226774078724" lon="11.27770593234333"><ele>886.0</ele><time>2026-05-01T10:50:54.998Z</time></trkpt><trkpt lat="44.10226613066966" lon="11.277481255309059"><ele>887.0</ele><time>2026-05-01T10:50:55.998Z</time></trkpt><trkpt lat="44.10226175432417" lon="11.277219163538433"><ele>887.0</ele><time>2026-05-01T10:50:56.998Z</time></trkpt><trkpt lat="44.10223873573217" lon="11.27695030433674"><ele>887.0</ele><time>2026-05-01T10:50:57.998Z</time></trkpt><trkpt lat="44.10216648161563" lon="11.276693224506637"><ele>887.0</ele><time>2026-05-01T10:50:58.998Z</time></trkpt><trkpt lat="44.102081118934734" lon="11.276461349665865"><ele>890.3333333333334</ele><time>2026-05-01T10:50:59.998Z</time></trkpt><trkpt lat="44.1019870187987" lon="11.276266230831583"><ele>893.6666666666667</ele><time>2026-05-01T10:51:00.998Z</time></trkpt><trkpt lat="44.10188253799081" lon="11.276109249826805"><ele>897.0</ele><time>2026-05-01T10:51:01.998Z</time></trkpt><trkpt lat="44.10176657191878" lon="11.275989702182168"><ele>897.0</ele><time>2026-05-01T10:51:03Z</time></trkpt><trkpt lat="44.10163215473708" lon="11.275943630308785"><ele>897.0</ele><time>2026-05-01T10:51:04Z</time></trkpt><trkpt lat="44.10149145572736" lon="11.275962612083578"><ele>897.0</ele><time>2026-05-01T10:51:05Z</time></trkpt><trkpt lat="44.10135618476921" lon="11.276035943307905"><ele>897.0</ele><time>2026-05-01T10:51:06Z</time></trkpt><trkpt lat="44.10120763447187" lon="11.27607045208602"><ele>896.5</ele><time>2026-05-01T10:51:07Z</time></trkpt><trkpt lat="44.10107512442374" lon="11.276085457242539"><ele>896.0</ele><time>2026-05-01T10:51:08Z</time></trkpt><trkpt lat="44.10093497062358" lon="11.27602773100367"><ele>895.5</ele><time>2026-05-01T10:51:09Z</time></trkpt><trkpt lat="44.10080033724312" lon="11.275929834089645"><ele>895.0</ele><time>2026-05-01T10:51:10Z</time></trkpt><trkpt lat="44.100668595092934" lon="11.275808250091433"><ele>896.6666666666666</ele><time>2026-05-01T10:51:11Z</time></trkpt><trkpt lat="44.10055095065059" lon="11.275628628664315"><ele>898.3333333333333</ele><time>2026-05-01T10:51:12Z</time></trkpt><trkpt lat="44.10043577064525" lon="11.275439284599562"><ele>900.0</ele><time>2026-05-01T10:51:13Z</time></trkpt><trkpt lat="44.10030671480399" lon="11.275260217220602"><ele>900.0</ele><time>2026-05-01T10:51:14Z</time></trkpt><trkpt lat="44.100163286321745" lon="11.275119377328158"><ele>900.0</ele><time>2026-05-01T10:51:15Z</time></trkpt><trkpt lat="44.10000106060725" lon="11.275057500058107"><ele>900.0</ele><time>2026-05-01T10:51:16Z</time></trkpt><trkpt lat="44.09982904346027" lon="11.275053094054742"><ele>901.3333333333333</ele><time>2026-05-01T10:51:17Z</time></trkpt><trkpt lat="44.09964258827808" lon="11.27508908249927"><ele>902.6666666666666</ele><time>2026-05-01T10:51:17.999Z</time></trkpt><trkpt lat="44.09944796291892" lon="11.275097403527267"><ele>904.0</ele><time>2026-05-01T10:51:18.999Z</time></trkpt><trkpt lat="44.09925966126965" lon="11.275078770518698"><ele>906.6666666666666</ele><time>2026-05-01T10:51:19.999Z</time></trkpt><trkpt lat="44.09908086908821" lon="11.275065305156971"><ele>909.3333333333333</ele><time>2026-05-01T10:51:20.999Z</time></trkpt><trkpt lat="44.09890384280234" lon="11.275060567941214"><ele>912.0</ele><time>2026-05-01T10:51:21.999Z</time></trkpt><trkpt lat="44.09874097700063" lon="11.275161674034395"><ele>912.0</ele><time>2026-05-01T10:51:22.999Z</time></trkpt><trkpt lat="44.098600168137" lon="11.275268497121383"><ele>912.0</ele><time>2026-05-01T10:51:23.999Z</time></trkpt><trkpt lat="44.09845842850621" lon="11.27529038860896"><ele>912.0</ele><time>2026-05-01T10:51:24.999Z</time></trkpt><trkpt lat="44.0983134901137" lon="11.275262282867317"><ele>912.0</ele><time>2026-05-01T10:51:25.999Z</time></trkpt><trkpt lat="44.09814831515191" lon="11.275198249279372"><ele>912.6666666666667</ele><time>2026-05-01T10:51:26.999Z</time></trkpt><trkpt lat="44.09797549801097" lon="11.275134560343352"><ele>913.3333333333334</ele><time>2026-05-01T10:51:27.999Z</time></trkpt><trkpt lat="44.0977881087354" lon="11.275084591733275"><ele>914.0</ele><time>2026-05-01T10:51:28.999Z</time></trkpt><trkpt lat="44.09762483090579" lon="11.275016786556604"><ele>914.0</ele><time>2026-05-01T10:51:29.999Z</time></trkpt><trkpt lat="44.09744295529158" lon="11.274982282991239"><ele>914.0</ele><time>2026-05-01T10:51:30.999Z</time></trkpt><trkpt lat="44.09726735486707" lon="11.27495249445374"><ele>914.0</ele><time>2026-05-01T10:51:31.999Z</time></trkpt><trkpt lat="44.09709154954015" lon="11.274951288753146"><ele>915.25</ele><time>2026-05-01T10:51:32.999Z</time></trkpt><trkpt lat="44.0969323055774" lon="11.274980895988852"><ele>916.5</ele><time>2026-05-01T10:51:33.999Z</time></trkpt><trkpt lat="44.09679345566306" lon="11.27504635067046"><ele>917.75</ele><time>2026-05-01T10:51:34.999Z</time></trkpt><trkpt lat="44.09667445246566" lon="11.27512369327394"><ele>919.0</ele><time>2026-05-01T10:51:35.999Z</time></trkpt><trkpt lat="44.0965658460012" lon="11.275176850785442"><ele>919.0</ele><time>2026-05-01T10:51:36.999Z</time></trkpt><trkpt lat="44.09645741977771" lon="11.275203373774957"><ele>919.0000000000001</ele><time>2026-05-01T10:51:37.999Z</time></trkpt><trkpt lat="44.096355538868515" lon="11.275228049275166"><ele>919.0000000000001</ele><time>2026-05-01T10:51:38.999Z</time></trkpt><trkpt lat="44.09625563202003" lon="11.275253913483091"><ele>919.0</ele><time>2026-05-01T10:51:39.999Z</time></trkpt><trkpt lat="44.09615937283452" lon="11.275285253889503"><ele>919.0</ele><time>2026-05-01T10:51:40.999Z</time></trkpt><trkpt lat="44.09606340743697" lon="11.27531262565848"><ele>918.9999999999999</ele><time>2026-05-01T10:51:41.999Z</time></trkpt><trkpt lat="44.09596824791006" lon="11.27531574804486"><ele>919.0</ele><time>2026-05-01T10:51:42.999Z</time></trkpt><trkpt lat="44.095881642681555" lon="11.275324579501554"><ele>919.0</ele><time>2026-05-01T10:51:43.999Z</time></trkpt><trkpt lat="44.09580551773768" lon="11.27532689898288"><ele>919.0</ele><time>2026-05-01T10:51:44.999Z</time></trkpt><trkpt lat="44.0957327348242" lon="11.27534502670909"><ele>918.9999999999999</ele><time>2026-05-01T10:51:45.999Z</time></trkpt><trkpt lat="44.09562104311068" lon="11.275331519818572"><ele>919.0</ele><time>2026-05-01T10:51:47.999Z</time></trkpt><trkpt lat="44.095514753716294" lon="11.27529708237067"><ele>918.4285714285713</ele><time>2026-05-01T10:51:49.999Z</time></trkpt><trkpt lat="44.09540590007036" lon="11.275289298976697"><ele>917.8571428571428</ele><time>2026-05-01T10:51:51.999Z</time></trkpt><trkpt lat="44.09534133444935" lon="11.275289298975656"><ele>917.2857142857142</ele><time>2026-05-01T10:51:52.999Z</time></trkpt><trkpt lat="44.09527273822101" lon="11.275296612081604"><ele>916.7142857142858</ele><time>2026-05-01T10:51:53.999Z</time></trkpt><trkpt lat="44.095201569661974" lon="11.275311268374077"><ele>916.1428571428572</ele><time>2026-05-01T10:51:54.999Z</time></trkpt><trkpt lat="44.09513712877581" lon="11.275331820212427"><ele>915.5714285714287</ele><time>2026-05-01T10:51:55.999Z</time></trkpt><trkpt lat="44.095070996405305" lon="11.275352302705391"><ele>915.0</ele><time>2026-05-01T10:51:56.999Z</time></trkpt><trkpt lat="44.095002960849655" lon="11.27537722077414"><ele>915.0</ele><time>2026-05-01T10:51:57.999Z</time></trkpt><trkpt lat="44.094939008195425" lon="11.2754093647031"><ele>915.0000000000001</ele><time>2026-05-01T10:51:58.999Z</time></trkpt><trkpt lat="44.094888043099346" lon="11.275467486729902"><ele>915.0</ele><time>2026-05-01T10:51:59.999Z</time></trkpt><trkpt lat="44.09482985031355" lon="11.275511228609796"><ele>915.0</ele><time>2026-05-01T10:52:00.999Z</time></trkpt><trkpt lat="44.094773309920946" lon="11.275565745202904"><ele>915.0000000000001</ele><time>2026-05-01T10:52:01.999Z</time></trkpt><trkpt lat="44.09471880384882" lon="11.275625003568138"><ele>915.0</ele><time>2026-05-01T10:52:02.999Z</time></trkpt><trkpt lat="44.09466836838083" lon="11.275689835061947"><ele>915.0</ele><time>2026-05-01T10:52:03.999Z</time></trkpt><trkpt lat="44.094619461209234" lon="11.27576191436654"><ele>913.1666666666666</ele><time>2026-05-01T10:52:04.999Z</time></trkpt><trkpt lat="44.09457806887141" lon="11.275839781909156"><ele>911.3333333333333</ele><time>2026-05-01T10:52:05.999Z</time></trkpt><trkpt lat="44.094539119069296" lon="11.275923069343651"><ele>909.5</ele><time>2026-05-01T10:52:06.999Z</time></trkpt><trkpt lat="44.09450119665635" lon="11.27600470516014"><ele>907.6666666666666</ele><time>2026-05-01T10:52:07.999Z</time></trkpt><trkpt lat="44.09446436415788" lon="11.276089139605194"><ele>905.8333333333333</ele><time>2026-05-01T10:52:08.999Z</time></trkpt><trkpt lat="44.09442912505321" lon="11.276166774276758"><ele>904.0</ele><time>2026-05-01T10:52:09.999Z</time></trkpt><trkpt lat="44.09435627662236" lon="11.276289552054081"><ele>904.0</ele><time>2026-05-01T10:52:11.999Z</time></trkpt><trkpt lat="44.09427188338789" lon="11.276303643905221"><ele>904.0000000000001</ele><time>2026-05-01T10:52:13.999Z</time></trkpt><trkpt lat="44.094219859492526" lon="11.27620438891462"><ele>904.0000000000001</ele><time>2026-05-01T10:52:15.999Z</time></trkpt><trkpt lat="44.09423683771243" lon="11.276052505979893"><ele>904.0</ele><time>2026-05-01T10:52:17.999Z</time></trkpt><trkpt lat="44.09430741287768" lon="11.275918275188777"><ele>904.0</ele><time>2026-05-01T10:52:19.999Z</time></trkpt><trkpt lat="44.09435122923008" lon="11.27585395030399"><ele>904.0</ele><time>2026-05-01T10:52:20.999Z</time></trkpt><trkpt lat="44.094392558302616" lon="11.275785172492307"><ele>904.0</ele><time>2026-05-01T10:52:21.999Z</time></trkpt><trkpt lat="44.094428728408005" lon="11.275709968636578"><ele>904.0</ele><time>2026-05-01T10:52:22.999Z</time></trkpt><trkpt lat="44.0944636808241" lon="11.275632443272272"><ele>904.0</ele><time>2026-05-01T10:52:23.999Z</time></trkpt><trkpt lat="44.09450150834589" lon="11.275554696271103"><ele>904.0</ele><time>2026-05-01T10:52:24.999Z</time></trkpt><trkpt lat="44.09453863895975" lon="11.275476375468392"><ele>904.0</ele><time>2026-05-01T10:52:25.999Z</time></trkpt><trkpt lat="44.09457434933175" lon="11.27539747724583"><ele>904.0</ele><time>2026-05-01T10:52:26.999Z</time></trkpt><trkpt lat="44.094611358743464" lon="11.27531639402004"><ele>904.1666666666666</ele><time>2026-05-01T10:52:27.999Z</time></trkpt><trkpt lat="44.0946501814426" lon="11.275242071003182"><ele>904.3333333333333</ele><time>2026-05-01T10:52:28.999Z</time></trkpt><trkpt lat="44.094692058531024" lon="11.27517111715905"><ele>904.5</ele><time>2026-05-01T10:52:29.999Z</time></trkpt><trkpt lat="44.09477520937306" lon="11.27506834159063"><ele>904.6666666666667</ele><time>2026-05-01T10:52:32Z</time></trkpt><trkpt lat="44.09483738129535" lon="11.275016459398886"><ele>904.8333333333334</ele><time>2026-05-01T10:52:34Z</time></trkpt><trkpt lat="44.09480149838346" lon="11.27490489656598"><ele>905.0</ele><time>2026-05-01T10:52:35Z</time></trkpt><trkpt lat="44.094781538112706" lon="11.274804095982137"><ele>905.3333333333334</ele><time>2026-05-01T10:52:37Z</time></trkpt><trkpt lat="44.09476377932467" lon="11.274701001786738"><ele>905.6666666666667</ele><time>2026-05-01T10:52:39Z</time></trkpt><trkpt lat="44.094757595521905" lon="11.27457392128876"><ele>906.0</ele><time>2026-05-01T10:52:42Z</time></trkpt><trkpt lat="44.094736434534305" lon="11.274452575327787"><ele>906.3333333333333</ele><time>2026-05-01T10:52:45Z</time></trkpt><trkpt lat="44.094710849631696" lon="11.274368870165398"><ele>906.6666666666666</ele><time>2026-05-01T10:52:48Z</time></trkpt><trkpt lat="44.094697482106476" lon="11.274281872174079"><ele>907.0</ele><time>2026-05-01T10:52:52Z</time></trkpt><trkpt lat="44.09466090199382" lon="11.274367020011681"><ele>907.0000000000001</ele><time>2026-05-01T10:53:00.999Z</time></trkpt><trkpt lat="44.094639999474786" lon="11.274462738076137"><ele>907.0</ele><time>2026-05-01T10:53:04.999Z</time></trkpt><trkpt lat="44.09460145216114" lon="11.27455315590928"><ele>907.0000000000001</ele><time>2026-05-01T10:53:05.999Z</time></trkpt><trkpt lat="44.09463807473992" lon="11.274469655095253"><ele>907.0000000000001</ele><time>2026-05-01T10:53:53Z</time></trkpt><trkpt lat="44.09465788691074" lon="11.274380826824844"><ele>907.0</ele><time>2026-05-01T10:54:01Z</time></trkpt><trkpt lat="44.09467780474942" lon="11.274288138306225"><ele>907.0000000000001</ele><time>2026-05-01T10:54:07Z</time></trkpt><trkpt lat="44.09469467282647" lon="11.274203115592215"><ele>907.0000000000001</ele><time>2026-05-01T10:54:13Z</time></trkpt><trkpt lat="44.094767536195235" lon="11.274202890741476"><ele>907.0000000000001</ele><time>2026-05-01T10:54:15Z</time></trkpt><trkpt lat="44.094815640646914" lon="11.274140636367507"><ele>907.0</ele><time>2026-05-01T10:54:25Z</time></trkpt><trkpt lat="44.09486366865246" lon="11.274078366446231"><ele>907.0000000000001</ele><time>2026-05-01T10:54:32Z</time></trkpt><trkpt lat="44.09491763956671" lon="11.27402442171756"><ele>907.0000000000001</ele><time>2026-05-01T10:54:38Z</time></trkpt><trkpt lat="44.09497856056909" lon="11.273977317408612"><ele>907.0</ele><time>2026-05-01T10:54:45Z</time></trkpt><trkpt lat="44.09503659211493" lon="11.273937987636597"><ele>907.0000000000001</ele><time>2026-05-01T10:54:53Z</time></trkpt><trkpt lat="44.0950984956128" lon="11.273957985119006"><ele>907.0000000000001</ele><time>2026-05-01T10:55:21.001Z</time></trkpt><trkpt lat="44.09514154353968" lon="11.274046044469552"><ele>908.857142857143</ele><time>2026-05-01T10:55:26.001Z</time></trkpt><trkpt lat="44.09519495616715" lon="11.274100892381462"><ele>910.7142857142858</ele><time>2026-05-01T10:55:49Z</time></trkpt><trkpt lat="44.095131819343095" lon="11.274077178204179"><ele>912.5714285714286</ele><time>2026-05-01T10:56:01Z</time></trkpt><trkpt lat="44.09507721903853" lon="11.274012552608989"><ele>914.4285714285714</ele><time>2026-05-01T10:56:06Z</time></trkpt><trkpt lat="44.095044946173566" lon="11.273936289021263"><ele>916.2857142857142</ele><time>2026-05-01T10:56:12Z</time></trkpt><trkpt lat="44.09511454563169" lon="11.273934749065706"><ele>918.142857142857</ele><time>2026-05-01T10:56:18Z</time></trkpt><trkpt lat="44.095185990044655" lon="11.273941211072058"><ele>919.9999999999999</ele><time>2026-05-01T10:56:27Z</time></trkpt><trkpt lat="44.09519574407987" lon="11.2738424146928"><ele>919.9999999999999</ele><time>2026-05-01T10:56:33Z</time></trkpt><trkpt lat="44.09520115144631" lon="11.273748487082662"><ele>920.0</ele><time>2026-05-01T10:56:40Z</time></trkpt><trkpt lat="44.09520096298682" lon="11.273647391213451"><ele>919.9999999999999</ele><time>2026-05-01T10:56:47Z</time></trkpt><trkpt lat="44.095205423728295" lon="11.273558362654782"><ele>919.9999999999999</ele><time>2026-05-01T10:56:53Z</time></trkpt><trkpt lat="44.09519709247817" lon="11.273455063684743"><ele>920.0</ele><time>2026-05-01T10:57:00Z</time></trkpt><trkpt lat="44.09523462551785" lon="11.273373625048938"><ele>919.9999999999999</ele><time>2026-05-01T10:57:14.999Z</time></trkpt><trkpt lat="44.09531240225468" lon="11.273335854116455"><ele>919.9999999999999</ele><time>2026-05-01T10:57:19.999Z</time></trkpt><trkpt lat="44.09537226175663" lon="11.273307979902881"><ele>919.9999999999999</ele><time>2026-05-01T10:57:29.001Z</time></trkpt><trkpt lat="44.0954420314866" lon="11.27328893561928"><ele>920.0</ele><time>2026-05-01T10:57:38Z</time></trkpt><trkpt lat="44.09550737538121" lon="11.273276072671631"><ele>919.9999999999999</ele><time>2026-05-01T10:57:46Z</time></trkpt><trkpt lat="44.09557413398243" lon="11.273256794697641"><ele>919.9999999999999</ele><time>2026-05-01T10:57:56Z</time></trkpt><trkpt lat="44.09564178669748" lon="11.273249127826963"><ele>920.0</ele><time>2026-05-01T10:58:04Z</time></trkpt><trkpt lat="44.09567889988056" lon="11.273171504996634"><ele>919.9999999999999</ele><time>2026-05-01T10:58:21Z</time></trkpt><trkpt lat="44.09571658356076" lon="11.273084545207254"><ele>919.9999999999999</ele><time>2026-05-01T10:58:29Z</time></trkpt><trkpt lat="44.09575274695118" lon="11.27300967002709"><ele>922.7142857142856</ele><time>2026-05-01T10:58:37Z</time></trkpt><trkpt lat="44.09578819330605" lon="11.272918967260198"><ele>925.4285714285713</ele><time>2026-05-01T10:58:45Z</time></trkpt><trkpt lat="44.0958220243877" lon="11.27284474319184"><ele>928.1428571428571</ele><time>2026-05-01T10:58:56.999Z</time></trkpt><trkpt lat="44.095856931408726" lon="11.272760782473567"><ele>930.8571428571428</ele><time>2026-05-01T10:59:04.999Z</time></trkpt><trkpt lat="44.09589211062454" lon="11.27268108868572"><ele>933.5714285714284</ele><time>2026-05-01T10:59:14.999Z</time></trkpt><trkpt lat="44.09592666782886" lon="11.272602381956201"><ele>936.2857142857143</ele><time>2026-05-01T10:59:21.999Z</time></trkpt><trkpt lat="44.095962881989294" lon="11.272519282911396"><ele>939.0</ele><time>2026-05-01T10:59:30.001Z</time></trkpt><trkpt lat="44.09599983529894" lon="11.272435153495577"><ele>939.0</ele><time>2026-05-01T10:59:39Z</time></trkpt><trkpt lat="44.0960340069389" lon="11.272359004227644"><ele>939.0</ele><time>2026-05-01T10:59:46Z</time></trkpt><trkpt lat="44.09607138342296" lon="11.272280791153754"><ele>939.0</ele><time>2026-05-01T10:59:54Z</time></trkpt><trkpt lat="44.09607780654612" lon="11.272187185597083"><ele>939.0</ele><time>2026-05-01T11:00:16Z</time></trkpt><trkpt lat="44.096079654473776" lon="11.272096173907151"><ele>939.0</ele><time>2026-05-01T11:00:17Z</time></trkpt><trkpt lat="44.096060231970874" lon="11.271998233425016"><ele>939.0</ele><time>2026-05-01T11:00:23Z</time></trkpt><trkpt lat="44.09607430278188" lon="11.271910758119462"><ele>939.0</ele><time>2026-05-01T11:00:33Z</time></trkpt><trkpt lat="44.09615881711099" lon="11.271905216564667"><ele>939.0</ele><time>2026-05-01T11:00:57Z</time></trkpt><trkpt lat="44.09611538497246" lon="11.27196916468155"><ele>939.0</ele><time>2026-05-01T11:01:17.999Z</time></trkpt><trkpt lat="44.09608114703004" lon="11.272046681276368"><ele>939.0</ele><time>2026-05-01T11:01:24.999Z</time></trkpt><trkpt lat="44.096062254547036" lon="11.272134610466061"><ele>939.0</ele><time>2026-05-01T11:01:32Z</time></trkpt><trkpt lat="44.09602413869146" lon="11.272214621516966"><ele>939.0</ele><time>2026-05-01T11:01:39Z</time></trkpt><trkpt lat="44.09610621123202" lon="11.272273037889075"><ele>939.0</ele><time>2026-05-01T11:01:45Z</time></trkpt><trkpt lat="44.09605232976993" lon="11.272328346187596"><ele>939.0</ele><time>2026-05-01T11:02:03Z</time></trkpt><trkpt lat="44.09601808610394" lon="11.272417920065847"><ele>939.0</ele><time>2026-05-01T11:02:09Z</time></trkpt><trkpt lat="44.09598425697679" lon="11.272493490717551"><ele>939.0</ele><time>2026-05-01T11:02:15Z</time></trkpt><trkpt lat="44.09594353919276" lon="11.272571190776501"><ele>939.0</ele><time>2026-05-01T11:02:21Z</time></trkpt><trkpt lat="44.0959059344469" lon="11.272662605831291"><ele>939.0</ele><time>2026-05-01T11:02:50Z</time></trkpt><trkpt lat="44.095871636868765" lon="11.272746999417459"><ele>939.0</ele><time>2026-05-01T11:02:57Z</time></trkpt><trkpt lat="44.095832901443366" lon="11.272826977713018"><ele>939.0</ele><time>2026-05-01T11:03:03.999Z</time></trkpt><trkpt lat="44.09579959065389" lon="11.27290779910136"><ele>939.0</ele><time>2026-05-01T11:03:09.999Z</time></trkpt><trkpt lat="44.09576295473479" lon="11.272984824084347"><ele>936.8571428571429</ele><time>2026-05-01T11:03:15.999Z</time></trkpt><trkpt lat="44.09572685776863" lon="11.273067086378258"><ele>934.7142857142857</ele><time>2026-05-01T11:03:21.999Z</time></trkpt><trkpt lat="44.09569417458485" lon="11.273144524632164"><ele>932.5714285714286</ele><time>2026-05-01T11:03:26.999Z</time></trkpt><trkpt lat="44.09565938736536" lon="11.27322123137946"><ele>930.4285714285714</ele><time>2026-05-01T11:03:33.999Z</time></trkpt><trkpt lat="44.095595287931275" lon="11.27325934811172"><ele>928.2857142857142</ele><time>2026-05-01T11:03:39Z</time></trkpt><trkpt lat="44.09552779926021" lon="11.27327917800022"><ele>926.1428571428571</ele><time>2026-05-01T11:03:46Z</time></trkpt><trkpt lat="44.095460268530324" lon="11.27329159189502"><ele>924.0</ele><time>2026-05-01T11:03:53Z</time></trkpt><trkpt lat="44.09539092428097" lon="11.273305462999726"><ele>923.4285714285714</ele><time>2026-05-01T11:04:01Z</time></trkpt><trkpt lat="44.09532509900497" lon="11.273341651186072"><ele>922.8571428571429</ele><time>2026-05-01T11:04:08Z</time></trkpt><trkpt lat="44.095256177494534" lon="11.273371404346134"><ele>922.2857142857142</ele><time>2026-05-01T11:04:16Z</time></trkpt><trkpt lat="44.09519177136162" lon="11.27340002600257"><ele>921.7142857142857</ele><time>2026-05-01T11:04:24Z</time></trkpt><trkpt lat="44.09520944917693" lon="11.27352212670145"><ele>921.1428571428571</ele><time>2026-05-01T11:04:32Z</time></trkpt><trkpt lat="44.09520662309942" lon="11.273613230674563"><ele>920.5714285714284</ele><time>2026-05-01T11:04:38Z</time></trkpt><trkpt lat="44.09520593082261" lon="11.27371827623473"><ele>919.9999999999999</ele><time>2026-05-01T11:04:44Z</time></trkpt><trkpt lat="44.09520456957776" lon="11.273819462121944"><ele>919.9999999999999</ele><time>2026-05-01T11:04:50Z</time></trkpt><trkpt lat="44.095203282430205" lon="11.273915140224846"><ele>920.0</ele><time>2026-05-01T11:04:55.999Z</time></trkpt><trkpt lat="44.095136439543005" lon="11.273937359194598"><ele>919.9999999999999</ele><time>2026-05-01T11:05:01.999Z</time></trkpt><trkpt lat="44.09507139314776" lon="11.273929604550382"><ele>919.9999999999999</ele><time>2026-05-01T11:05:07.999Z</time></trkpt><trkpt lat="44.095006137129786" lon="11.273945146750762"><ele>920.0</ele><time>2026-05-01T11:05:14.999Z</time></trkpt><trkpt lat="44.094948912401875" lon="11.274000091029087"><ele>919.9999999999999</ele><time>2026-05-01T11:05:20.999Z</time></trkpt><trkpt lat="44.094887487671514" lon="11.274040195501339"><ele>919.9999999999999</ele><time>2026-05-01T11:05:26.999Z</time></trkpt><trkpt lat="44.09483047757326" lon="11.274086692372213"><ele>918.142857142857</ele><time>2026-05-01T11:05:32.999Z</time></trkpt><trkpt lat="44.09478215840978" lon="11.27414422660639"><ele>916.2857142857142</ele><time>2026-05-01T11:05:39.999Z</time></trkpt><trkpt lat="44.09472371064642" lon="11.274192283215083"><ele>914.4285714285714</ele><time>2026-05-01T11:05:45Z</time></trkpt><trkpt lat="44.09471555441674" lon="11.274292654262654"><ele>912.5714285714286</ele><time>2026-05-01T11:05:52Z</time></trkpt><trkpt lat="44.09473119248338" lon="11.274386184056011"><ele>910.7142857142858</ele><time>2026-05-01T11:05:55Z</time></trkpt><trkpt lat="44.09474032691078" lon="11.274483430439993"><ele>908.857142857143</ele><time>2026-05-01T11:05:59Z</time></trkpt><trkpt lat="44.09473347557614" lon="11.274573943793056"><ele>907.0000000000001</ele><time>2026-05-01T11:07:13.999Z</time></trkpt><trkpt lat="44.09474250898367" lon="11.274473545539598"><ele>906.9999999999999</ele><time>2026-05-01T11:08:16Z</time></trkpt><trkpt lat="44.09465607305517" lon="11.274443000732282"><ele>907.0</ele><time>2026-05-01T11:08:18Z</time></trkpt><trkpt lat="44.09460520154442" lon="11.2745058900258"><ele>907.0</ele><time>2026-05-01T11:08:19Z</time></trkpt><trkpt lat="44.094575794931515" lon="11.274599964847397"><ele>907.0</ele><time>2026-05-01T11:08:20Z</time></trkpt><trkpt lat="44.0945729664737" lon="11.274703407345257"><ele>906.9999999999999</ele><time>2026-05-01T11:08:21Z</time></trkpt><trkpt lat="44.09458832483135" lon="11.274798852489623"><ele>907.0</ele><time>2026-05-01T11:08:22Z</time></trkpt><trkpt lat="44.09462579612881" lon="11.274946820062965"><ele>906.6</ele><time>2026-05-01T11:08:24Z</time></trkpt><trkpt lat="44.094626383088546" lon="11.275080505688761"><ele>906.2</ele><time>2026-05-01T11:08:26Z</time></trkpt><trkpt lat="44.09463005511743" lon="11.275223837659563"><ele>905.8</ele><time>2026-05-01T11:08:28Z</time></trkpt><trkpt lat="44.09456161950821" lon="11.275325710400057"><ele>905.4</ele><time>2026-05-01T11:08:29Z</time></trkpt><trkpt lat="44.09451204061677" lon="11.275430911834102"><ele>905.0</ele><time>2026-05-01T11:08:30Z</time></trkpt><trkpt lat="44.09446068427587" lon="11.275539286698466"><ele>904.8</ele><time>2026-05-01T11:08:31Z</time></trkpt><trkpt lat="44.094401637065346" lon="11.275655036188839"><ele>904.6</ele><time>2026-05-01T11:08:32Z</time></trkpt><trkpt lat="44.09433738137979" lon="11.275780899438939"><ele>904.4000000000001</ele><time>2026-05-01T11:08:33Z</time></trkpt><trkpt lat="44.094275237684165" lon="11.275902702207535"><ele>904.2</ele><time>2026-05-01T11:08:34Z</time></trkpt><trkpt lat="44.09420898297774" lon="11.276018987340478"><ele>904.0</ele><time>2026-05-01T11:08:35Z</time></trkpt><trkpt lat="44.09414882314734" lon="11.276124206680207"><ele>903.9999999999999</ele><time>2026-05-01T11:08:36Z</time></trkpt><trkpt lat="44.094092694542994" lon="11.276218543489957"><ele>904.0</ele><time>2026-05-01T11:08:37Z</time></trkpt><trkpt lat="44.094042690540526" lon="11.276301472963267"><ele>904.0</ele><time>2026-05-01T11:08:38Z</time></trkpt><trkpt lat="44.09400646965103" lon="11.276388748216664"><ele>904.0</ele><time>2026-05-01T11:08:39Z</time></trkpt><trkpt lat="44.09400149214048" lon="11.276486357523654"><ele>903.9999999999999</ele><time>2026-05-01T11:08:40Z</time></trkpt><trkpt lat="44.094038088099296" lon="11.276574120567963"><ele>904.0</ele><time>2026-05-01T11:08:41Z</time></trkpt><trkpt lat="44.09410108121175" lon="11.276617549851531"><ele>904.0</ele><time>2026-05-01T11:08:42Z</time></trkpt><trkpt lat="44.09417090090745" lon="11.276620685405678"><ele>904.0</ele><time>2026-05-01T11:08:43Z</time></trkpt><trkpt lat="44.09423240068917" lon="11.276585755821614"><ele>904.0</ele><time>2026-05-01T11:08:44Z</time></trkpt><trkpt lat="44.0942736490934" lon="11.27651227724598"><ele>904.0</ele><time>2026-05-01T11:08:45Z</time></trkpt><trkpt lat="44.094317521277006" lon="11.276428964543634"><ele>904.0</ele><time>2026-05-01T11:08:46Z</time></trkpt><trkpt lat="44.094366965167694" lon="11.276341103351214"><ele>904.0</ele><time>2026-05-01T11:08:47Z</time></trkpt><trkpt lat="44.09441665206481" lon="11.276246468259195"><ele>904.0</ele><time>2026-05-01T11:08:48Z</time></trkpt><trkpt lat="44.094459698476975" lon="11.276149237372508"><ele>903.9999999999999</ele><time>2026-05-01T11:08:49Z</time></trkpt><trkpt lat="44.0945028256191" lon="11.276054310810949"><ele>904.0</ele><time>2026-05-01T11:08:50Z</time></trkpt><trkpt lat="44.094547114121916" lon="11.275957304444715"><ele>904.0</ele><time>2026-05-01T11:08:51Z</time></trkpt><trkpt lat="44.094597042852435" lon="11.275863725671728"><ele>904.0</ele><time>2026-05-01T11:08:52Z</time></trkpt><trkpt lat="44.094650224510204" lon="11.275771469784525"><ele>903.9999999999999</ele><time>2026-05-01T11:08:53Z</time></trkpt><trkpt lat="44.0947101965977" lon="11.275688860183836"><ele>904.0</ele><time>2026-05-01T11:08:54Z</time></trkpt><trkpt lat="44.09477002016055" lon="11.275611805941287"><ele>904.1666666666666</ele><time>2026-05-01T11:08:55Z</time></trkpt><trkpt lat="44.09482812939862" lon="11.27555197189537"><ele>904.3333333333333</ele><time>2026-05-01T11:08:56Z</time></trkpt><trkpt lat="44.09488463276913" lon="11.275501270439516"><ele>904.5</ele><time>2026-05-01T11:08:56.999Z</time></trkpt><trkpt lat="44.09494416414886" lon="11.27546172960181"><ele>904.6666666666667</ele><time>2026-05-01T11:08:57.999Z</time></trkpt><trkpt lat="44.095059371856216" lon="11.2754067521146"><ele>904.8333333333334</ele><time>2026-05-01T11:08:59.999Z</time></trkpt><trkpt lat="44.09516830983242" lon="11.27535985151731"><ele>905.0</ele><time>2026-05-01T11:09:01.999Z</time></trkpt><trkpt lat="44.095257935382016" lon="11.275354934107849"><ele>906.4285714285713</ele><time>2026-05-01T11:09:03.999Z</time></trkpt><trkpt lat="44.095323986615604" lon="11.275381830650486"><ele>907.8571428571428</ele><time>2026-05-01T11:09:16.999Z</time></trkpt><trkpt lat="44.09537609089154" lon="11.275327906023863"><ele>909.2857142857142</ele><time>2026-05-01T11:10:13Z</time></trkpt><trkpt lat="44.09543454356147" lon="11.275371083818095"><ele>910.7142857142858</ele><time>2026-05-01T11:10:21Z</time></trkpt><trkpt lat="44.095494267639396" lon="11.275402289684209"><ele>912.1428571428572</ele><time>2026-05-01T11:10:28Z</time></trkpt><trkpt lat="44.09553861610885" lon="11.275330976099484"><ele>913.5714285714287</ele><time>2026-05-01T11:10:48Z</time></trkpt><trkpt lat="44.09559408365789" lon="11.27527683026489"><ele>915.0</ele><time>2026-05-01T11:10:55Z</time></trkpt><trkpt lat="44.095640936392684" lon="11.275200613019924"><ele>915.0</ele><time>2026-05-01T11:11:20.071Z</time></trkpt><trkpt lat="44.09559617538248" lon="11.275331515182556"><ele>915.0</ele><time>2026-05-01T11:11:37.342Z</time></trkpt><trkpt lat="44.09555083132012" lon="11.27540564049501"><ele>915.0</ele><time>2026-05-01T11:13:55.997Z</time></trkpt><trkpt lat="44.095512824908056" lon="11.275476898890991"><ele>915.0</ele><time>2026-05-01T11:13:59.997Z</time></trkpt><trkpt lat="44.095454541512936" lon="11.275436983793913"><ele>915.0</ele><time>2026-05-01T11:14:08Z</time></trkpt><trkpt lat="44.095383531339785" lon="11.275444063228157"><ele>915.0</ele><time>2026-05-01T11:14:14Z</time></trkpt><trkpt lat="44.095264572913365" lon="11.275353128357068"><ele>915.0</ele><time>2026-05-01T11:18:53Z</time></trkpt><trkpt lat="44.0951770002222" lon="11.275335323086116"><ele>915.0</ele><time>2026-05-01T11:18:54Z</time></trkpt><trkpt lat="44.09508518696744" lon="11.27536427140338"><ele>915.0</ele><time>2026-05-01T11:18:55Z</time></trkpt><trkpt lat="44.0950007629531" lon="11.27539938988204"><ele>915.0</ele><time>2026-05-01T11:18:55.999Z</time></trkpt><trkpt lat="44.09489655112504" lon="11.27543187599567"><ele>915.0</ele><time>2026-05-01T11:18:56.999Z</time></trkpt><trkpt lat="44.094795760109335" lon="11.27549313912099"><ele>913.0</ele><time>2026-05-01T11:18:57.999Z</time></trkpt><trkpt lat="44.094706342540874" lon="11.27559194838539"><ele>911.0</ele><time>2026-05-01T11:18:58.999Z</time></trkpt><trkpt lat="44.094631237576024" lon="11.27570622524267"><ele>909.0</ele><time>2026-05-01T11:18:59.999Z</time></trkpt><trkpt lat="44.09457352295622" lon="11.275817436195279"><ele>907.0</ele><time>2026-05-01T11:19:00.999Z</time></trkpt><trkpt lat="44.09452681445594" lon="11.275921677198479"><ele>905.0</ele><time>2026-05-01T11:19:01.999Z</time></trkpt><trkpt lat="44.09449103560466" lon="11.276009595641222"><ele>904.8333333333334</ele><time>2026-05-01T11:19:02.999Z</time></trkpt><trkpt lat="44.09445330903475" lon="11.276095892265484"><ele>904.6666666666667</ele><time>2026-05-01T11:19:03.999Z</time></trkpt><trkpt lat="44.09441505530813" lon="11.27617030364153"><ele>904.5</ele><time>2026-05-01T11:19:04.999Z</time></trkpt><trkpt lat="44.094339209918985" lon="11.276271019871526"><ele>904.3333333333333</ele><time>2026-05-01T11:19:06.999Z</time></trkpt><trkpt lat="44.094255430755794" lon="11.276290936600077"><ele>904.1666666666666</ele><time>2026-05-01T11:19:08.999Z</time></trkpt><trkpt lat="44.09415443584793" lon="11.276256330436002"><ele>904.0</ele><time>2026-05-01T11:19:10.999Z</time></trkpt><trkpt lat="44.09405463595037" lon="11.276279879236279"><ele>903.9999999999999</ele><time>2026-05-01T11:19:12.999Z</time></trkpt><trkpt lat="44.09398533762522" lon="11.276402734833905"><ele>904.0</ele><time>2026-05-01T11:19:14.999Z</time></trkpt><trkpt lat="44.094016084378254" lon="11.276567484845494"><ele>904.0</ele><time>2026-05-01T11:19:16.999Z</time></trkpt><trkpt lat="44.094048598791424" lon="11.276647611808826"><ele>904.0</ele><time>2026-05-01T11:19:17.999Z</time></trkpt><trkpt lat="44.0940792273421" lon="11.276735246398479"><ele>903.9999999999999</ele><time>2026-05-01T11:19:18.999Z</time></trkpt><trkpt lat="44.0940954318201" lon="11.276833611696933"><ele>904.0</ele><time>2026-05-01T11:19:19.999Z</time></trkpt><trkpt lat="44.094090943626966" lon="11.276924864284009"><ele>902.8333333333333</ele><time>2026-05-01T11:19:20.999Z</time></trkpt><trkpt lat="44.094070044615655" lon="11.277014006872683"><ele>901.6666666666666</ele><time>2026-05-01T11:19:21.999Z</time></trkpt><trkpt lat="44.09403803610332" lon="11.277105093282932"><ele>900.5</ele><time>2026-05-01T11:19:22.999Z</time></trkpt><trkpt lat="44.093997593372535" lon="11.277198816403416"><ele>899.3333333333333</ele><time>2026-05-01T11:19:23.999Z</time></trkpt><trkpt lat="44.093951464440366" lon="11.27731031409146"><ele>898.1666666666666</ele><time>2026-05-01T11:19:24.999Z</time></trkpt><trkpt lat="44.09390418623209" lon="11.277425929558571"><ele>897.0</ele><time>2026-05-01T11:19:25.999Z</time></trkpt><trkpt lat="44.093856031227475" lon="11.277543683844723"><ele>897.0</ele><time>2026-05-01T11:19:26.999Z</time></trkpt><trkpt lat="44.093807353463234" lon="11.277661699243327"><ele>897.0</ele><time>2026-05-01T11:19:27.999Z</time></trkpt><trkpt lat="44.093756289426445" lon="11.277778756356904"><ele>897.0</ele><time>2026-05-01T11:19:28.999Z</time></trkpt><trkpt lat="44.09369987406472" lon="11.277893068995041"><ele>897.0</ele><time>2026-05-01T11:19:29.999Z</time></trkpt><trkpt lat="44.093640470375284" lon="11.277995243427481"><ele>897.0</ele><time>2026-05-01T11:19:30.999Z</time></trkpt><trkpt lat="44.09357969250535" lon="11.27808697090974"><ele>898.0</ele><time>2026-05-01T11:19:31.999Z</time></trkpt><trkpt lat="44.09350923018511" lon="11.278147219333409"><ele>899.0</ele><time>2026-05-01T11:19:32.999Z</time></trkpt><trkpt lat="44.09345329820093" lon="11.278201767003608"><ele>900.0</ele><time>2026-05-01T11:19:33.999Z</time></trkpt><trkpt lat="44.093494785428064" lon="11.278403480359898"><ele>901.0</ele><time>2026-05-01T11:19:34.999Z</time></trkpt><trkpt lat="44.09351140662207" lon="11.278529112424238"><ele>902.0</ele><time>2026-05-01T11:19:35.999Z</time></trkpt><trkpt lat="44.09353526898825" lon="11.278655019798428"><ele>902.0</ele><time>2026-05-01T11:19:36.999Z</time></trkpt><trkpt lat="44.0935603828399" lon="11.278779795917101"><ele>902.0</ele><time>2026-05-01T11:19:37.999Z</time></trkpt><trkpt lat="44.0936131781801" lon="11.27888031722044"><ele>902.0</ele><time>2026-05-01T11:19:38.999Z</time></trkpt><trkpt lat="44.09370059769623" lon="11.278932158768042"><ele>902.0</ele><time>2026-05-01T11:19:39.999Z</time></trkpt><trkpt lat="44.09379882637324" lon="11.278941232076999"><ele>902.0</ele><time>2026-05-01T11:19:40.999Z</time></trkpt><trkpt lat="44.09389872942345" lon="11.278926849913855"><ele>902.0</ele><time>2026-05-01T11:19:41.999Z</time></trkpt><trkpt lat="44.09399943571401" lon="11.278905867753814"><ele>902.0</ele><time>2026-05-01T11:19:42.999Z</time></trkpt><trkpt lat="44.094101868937116" lon="11.27888696555807"><ele>902.0</ele><time>2026-05-01T11:19:43.999Z</time></trkpt><trkpt lat="44.094204064042145" lon="11.278873260851181"><ele>902.0</ele><time>2026-05-01T11:19:44.999Z</time></trkpt><trkpt lat="44.09430723694824" lon="11.278857066881137"><ele>902.0</ele><time>2026-05-01T11:19:45.999Z</time></trkpt><trkpt lat="44.09441327407334" lon="11.278841881617819"><ele>902.2</ele><time>2026-05-01T11:19:46.999Z</time></trkpt><trkpt lat="44.09451953226129" lon="11.278830223328317"><ele>902.4000000000001</ele><time>2026-05-01T11:19:47.999Z</time></trkpt><trkpt lat="44.09462748556435" lon="11.27883317758158"><ele>902.5999999999999</ele><time>2026-05-01T11:19:48.999Z</time></trkpt><trkpt lat="44.09472830079909" lon="11.278872590682825"><ele>902.8</ele><time>2026-05-01T11:19:49.999Z</time></trkpt><trkpt lat="44.09481154147978" lon="11.278957984543048"><ele>903.0</ele><time>2026-05-01T11:19:50.999Z</time></trkpt><trkpt lat="44.09487087187583" lon="11.279073422492884"><ele>902.0</ele><time>2026-05-01T11:19:51.999Z</time></trkpt><trkpt lat="44.094896911826595" lon="11.279214385042962"><ele>901.0</ele><time>2026-05-01T11:19:52.999Z</time></trkpt><trkpt lat="44.094894531095356" lon="11.279370361982606"><ele>900.0</ele><time>2026-05-01T11:19:53.999Z</time></trkpt><trkpt lat="44.09486031036996" lon="11.27952650618279"><ele>899.0</ele><time>2026-05-01T11:19:54.999Z</time></trkpt><trkpt lat="44.0948010029281" lon="11.27967572843446"><ele>897.75</ele><time>2026-05-01T11:19:55.999Z</time></trkpt><trkpt lat="44.09471556013571" lon="11.279817990515584"><ele>896.5</ele><time>2026-05-01T11:19:56.999Z</time></trkpt><trkpt lat="44.09462097774779" lon="11.279963023177727"><ele>895.25</ele><time>2026-05-01T11:19:57.999Z</time></trkpt><trkpt lat="44.09452326553594" lon="11.280116609711174"><ele>894.0</ele><time>2026-05-01T11:19:58.999Z</time></trkpt><trkpt lat="44.09442330268425" lon="11.280278419698067"><ele>894.0</ele><time>2026-05-01T11:19:59.999Z</time></trkpt><trkpt lat="44.09432624166656" lon="11.280433811379256"><ele>894.0</ele><time>2026-05-01T11:20:00.999Z</time></trkpt><trkpt lat="44.09424171259624" lon="11.280585854083705"><ele>894.0</ele><time>2026-05-01T11:20:01.999Z</time></trkpt><trkpt lat="44.09419043459634" lon="11.280756699124664"><ele>894.0</ele><time>2026-05-01T11:20:02.999Z</time></trkpt><trkpt lat="44.09419358117389" lon="11.280943719238422"><ele>891.75</ele><time>2026-05-01T11:20:03.999Z</time></trkpt><trkpt lat="44.094233981104864" lon="11.281137949132939"><ele>889.5</ele><time>2026-05-01T11:20:04.999Z</time></trkpt><trkpt lat="44.09428267241677" lon="11.281336686788674"><ele>887.25</ele><time>2026-05-01T11:20:05.999Z</time></trkpt><trkpt lat="44.094314739180156" lon="11.28153694377555"><ele>885.0</ele><time>2026-05-01T11:20:06.999Z</time></trkpt><trkpt lat="44.094327259605016" lon="11.281729295915852"><ele>884.25</ele><time>2026-05-01T11:20:07.999Z</time></trkpt><trkpt lat="44.09433252725643" lon="11.281915658145197"><ele>883.5</ele><time>2026-05-01T11:20:08.999Z</time></trkpt><trkpt lat="44.09428604871164" lon="11.282101739846675"><ele>882.75</ele><time>2026-05-01T11:20:09.999Z</time></trkpt><trkpt lat="44.09424494583749" lon="11.282312075233175"><ele>882.0</ele><time>2026-05-01T11:20:10.999Z</time></trkpt><trkpt lat="44.094202599020385" lon="11.282524557128914"><ele>879.6666666666667</ele><time>2026-05-01T11:20:11.999Z</time></trkpt><trkpt lat="44.09417111072961" lon="11.282747194571309"><ele>877.3333333333334</ele><time>2026-05-01T11:20:12.999Z</time></trkpt><trkpt lat="44.094147200749894" lon="11.28297565919275"><ele>875.0</ele><time>2026-05-01T11:20:13.999Z</time></trkpt><trkpt lat="44.09412723388844" lon="11.283205635173074"><ele>872.6666666666667</ele><time>2026-05-01T11:20:14.999Z</time></trkpt><trkpt lat="44.094118909573616" lon="11.283435781334044"><ele>870.3333333333333</ele><time>2026-05-01T11:20:15.999Z</time></trkpt><trkpt lat="44.09413049012197" lon="11.283670271163668"><ele>868.0</ele><time>2026-05-01T11:20:16.999Z</time></trkpt><trkpt lat="44.09416412100592" lon="11.283899701876832"><ele>864.6666666666666</ele><time>2026-05-01T11:20:17.999Z</time></trkpt><trkpt lat="44.094191341045864" lon="11.284135337375785"><ele>861.3333333333333</ele><time>2026-05-01T11:20:19Z</time></trkpt><trkpt lat="44.09415694625204" lon="11.284322881978222"><ele>858.0</ele><time>2026-05-01T11:20:20Z</time></trkpt><trkpt lat="44.0940816507907" lon="11.284521457440574"><ele>870.6666666666667</ele><time>2026-05-01T11:20:21Z</time></trkpt><trkpt lat="44.09406492283015" lon="11.28478034978994"><ele>883.3333333333334</ele><time>2026-05-01T11:20:22Z</time></trkpt><trkpt lat="44.094063741022055" lon="11.285047049409908"><ele>896.0</ele><time>2026-05-01T11:20:23Z</time></trkpt><trkpt lat="44.09404376122715" lon="11.285312683935576"><ele>896.0</ele><time>2026-05-01T11:20:24Z</time></trkpt><trkpt lat="44.0940220538656" lon="11.285573679795288"><ele>896.0</ele><time>2026-05-01T11:20:25Z</time></trkpt><trkpt lat="44.09403458523136" lon="11.285783591119607"><ele>896.0</ele><time>2026-05-01T11:20:26Z</time></trkpt><trkpt lat="44.09409854829235" lon="11.285965360940711"><ele>879.6666666666667</ele><time>2026-05-01T11:20:27Z</time></trkpt><trkpt lat="44.09419057505642" lon="11.286170562548495"><ele>863.3333333333333</ele><time>2026-05-01T11:20:28Z</time></trkpt><trkpt lat="44.094287206171145" lon="11.286366909150397"><ele>847.0</ele><time>2026-05-01T11:20:29Z</time></trkpt><trkpt lat="44.094396895678535" lon="11.286530189283173"><ele>846.5</ele><time>2026-05-01T11:20:30Z</time></trkpt><trkpt lat="44.094492272309004" lon="11.286684438409994"><ele>846.0</ele><time>2026-05-01T11:20:31Z</time></trkpt><trkpt lat="44.09450976368214" lon="11.286878646130065"><ele>845.5</ele><time>2026-05-01T11:20:32Z</time></trkpt><trkpt lat="44.094502559437615" lon="11.28706103749357"><ele>845.0</ele><time>2026-05-01T11:20:33Z</time></trkpt><trkpt lat="44.094467745420076" lon="11.287258980215913"><ele>844.3333333333334</ele><time>2026-05-01T11:20:34Z</time></trkpt><trkpt lat="44.09443052172949" lon="11.287461433742932"><ele>843.6666666666667</ele><time>2026-05-01T11:20:35Z</time></trkpt><trkpt lat="44.0943577676852" lon="11.28764090512665"><ele>843.0</ele><time>2026-05-01T11:20:36Z</time></trkpt><trkpt lat="44.09426710130542" lon="11.287832797134469"><ele>843.0</ele><time>2026-05-01T11:20:37Z</time></trkpt><trkpt lat="44.09421120170548" lon="11.288051097473573"><ele>843.0</ele><time>2026-05-01T11:20:38Z</time></trkpt><trkpt lat="44.0941854038991" lon="11.288291880251188"><ele>843.0</ele><time>2026-05-01T11:20:39Z</time></trkpt><trkpt lat="44.094193283206536" lon="11.288536815016094"><ele>839.3333333333333</ele><time>2026-05-01T11:20:40Z</time></trkpt><trkpt lat="44.094194451874394" lon="11.28876939850846"><ele>835.6666666666666</ele><time>2026-05-01T11:20:41Z</time></trkpt><trkpt lat="44.09419080593223" lon="11.288968324565795"><ele>832.0</ele><time>2026-05-01T11:20:42Z</time></trkpt><trkpt lat="44.09413481208907" lon="11.28914839947966"><ele>836.3333333333333</ele><time>2026-05-01T11:20:43Z</time></trkpt><trkpt lat="44.094045591689444" lon="11.28929913805335"><ele>840.6666666666667</ele><time>2026-05-01T11:20:44Z</time></trkpt><trkpt lat="44.09394500676272" lon="11.289480685042928"><ele>845.0</ele><time>2026-05-01T11:20:45Z</time></trkpt><trkpt lat="44.093818423877195" lon="11.289644104798874"><ele>837.0</ele><time>2026-05-01T11:20:46Z</time></trkpt><trkpt lat="44.09370447305551" lon="11.289832295196774"><ele>829.0</ele><time>2026-05-01T11:20:47Z</time></trkpt><trkpt lat="44.09359972624208" lon="11.290045393560693"><ele>821.0</ele><time>2026-05-01T11:20:48Z</time></trkpt><trkpt lat="44.09351359360757" lon="11.290277979451202"><ele>821.0</ele><time>2026-05-01T11:20:49Z</time></trkpt><trkpt lat="44.093428508358464" lon="11.29052086078636"><ele>821.0</ele><time>2026-05-01T11:20:50Z</time></trkpt><trkpt lat="44.09334258574821" lon="11.290763165470162"><ele>821.0</ele><time>2026-05-01T11:20:51Z</time></trkpt><trkpt lat="44.09325324259" lon="11.2909979857237"><ele>822.0</ele><time>2026-05-01T11:20:52Z</time></trkpt><trkpt lat="44.09316574020781" lon="11.291224352490138"><ele>823.0</ele><time>2026-05-01T11:20:53Z</time></trkpt><trkpt lat="44.09308883505395" lon="11.291445687076926"><ele>824.0</ele><time>2026-05-01T11:20:54Z</time></trkpt><trkpt lat="44.09303644232608" lon="11.29167989380936"><ele>824.0</ele><time>2026-05-01T11:20:54.999Z</time></trkpt><trkpt lat="44.09301665163498" lon="11.291935835770628"><ele>824.0</ele><time>2026-05-01T11:20:55.999Z</time></trkpt><trkpt lat="44.09299952655319" lon="11.292193585537877"><ele>824.0</ele><time>2026-05-01T11:20:56.999Z</time></trkpt><trkpt lat="44.09297993286661" lon="11.292446457926534"><ele>818.3333333333334</ele><time>2026-05-01T11:20:57.999Z</time></trkpt><trkpt lat="44.09296431997168" lon="11.292690635182899"><ele>812.6666666666667</ele><time>2026-05-01T11:20:58.999Z</time></trkpt><trkpt lat="44.09296730904252" lon="11.292924658745273"><ele>807.0</ele><time>2026-05-01T11:20:59.999Z</time></trkpt><trkpt lat="44.092982776991775" lon="11.293155089872716"><ele>803.0</ele><time>2026-05-01T11:21:00.999Z</time></trkpt><trkpt lat="44.093000475052705" lon="11.29338739183958"><ele>799.0</ele><time>2026-05-01T11:21:01.999Z</time></trkpt><trkpt lat="44.09301892816402" lon="11.293603712172997"><ele>795.0</ele><time>2026-05-01T11:21:02.999Z</time></trkpt><trkpt lat="44.09303799835627" lon="11.293817845079166"><ele>793.25</ele><time>2026-05-01T11:21:03.999Z</time></trkpt><trkpt lat="44.09301089567118" lon="11.294014253414895"><ele>791.5</ele><time>2026-05-01T11:21:04.999Z</time></trkpt><trkpt lat="44.092941811911196" lon="11.294166967247804"><ele>789.75</ele><time>2026-05-01T11:21:05.999Z</time></trkpt><trkpt lat="44.092847287645036" lon="11.294333439246895"><ele>788.0</ele><time>2026-05-01T11:21:06.999Z</time></trkpt><trkpt lat="44.09274981395892" lon="11.294524883618584"><ele>788.0</ele><time>2026-05-01T11:21:07.999Z</time></trkpt><trkpt lat="44.092639898719185" lon="11.29471229614875"><ele>788.0</ele><time>2026-05-01T11:21:08.999Z</time></trkpt><trkpt lat="44.09253833748852" lon="11.294901103534892"><ele>788.0</ele><time>2026-05-01T11:21:09.999Z</time></trkpt><trkpt lat="44.092442242809575" lon="11.295070471137416"><ele>795.25</ele><time>2026-05-01T11:21:10.999Z</time></trkpt><trkpt lat="44.09237105226763" lon="11.295221627962583"><ele>802.5</ele><time>2026-05-01T11:21:11.999Z</time></trkpt><trkpt lat="44.09234365889709" lon="11.295392547338814"><ele>809.75</ele><time>2026-05-01T11:21:12.999Z</time></trkpt><trkpt lat="44.092368757699965" lon="11.29559630907274"><ele>817.0</ele><time>2026-05-01T11:21:13.999Z</time></trkpt><trkpt lat="44.09241543380711" lon="11.295802441210343"><ele>802.6666666666666</ele><time>2026-05-01T11:21:14.999Z</time></trkpt><trkpt lat="44.092459915662126" lon="11.29601883607036"><ele>788.3333333333333</ele><time>2026-05-01T11:21:15.999Z</time></trkpt><trkpt lat="44.092450294074936" lon="11.29623962177079"><ele>774.0</ele><time>2026-05-01T11:21:16.999Z</time></trkpt><trkpt lat="44.09242856798646" lon="11.296432602121682"><ele>781.5</ele><time>2026-05-01T11:21:17.999Z</time></trkpt><trkpt lat="44.09239010519327" lon="11.296589510482756"><ele>789.0</ele><time>2026-05-01T11:21:18.999Z</time></trkpt><trkpt lat="44.09233854050585" lon="11.296725503396628"><ele>796.5</ele><time>2026-05-01T11:21:19.999Z</time></trkpt><trkpt lat="44.09220294647354" lon="11.296688688620623"><ele>804.0</ele><time>2026-05-01T11:21:20.999Z</time></trkpt><trkpt lat="44.09212545567645" lon="11.296739384132339"><ele>804.0</ele><time>2026-05-01T11:21:21.999Z</time></trkpt><trkpt lat="44.092059756161234" lon="11.296825403802279"><ele>804.0</ele><time>2026-05-01T11:21:22.999Z</time></trkpt><trkpt lat="44.09200885651979" lon="11.296938898868657"><ele>804.0</ele><time>2026-05-01T11:21:23.999Z</time></trkpt><trkpt lat="44.092053420856956" lon="11.297104089716848"><ele>804.0</ele><time>2026-05-01T11:21:24.999Z</time></trkpt><trkpt lat="44.09211306362964" lon="11.297233909769474"><ele>804.0</ele><time>2026-05-01T11:21:25.999Z</time></trkpt><trkpt lat="44.092183900595984" lon="11.29736196944278"><ele>802.0</ele><time>2026-05-01T11:21:26.999Z</time></trkpt><trkpt lat="44.09222255930726" lon="11.297515982659153"><ele>800.0</ele><time>2026-05-01T11:21:27.999Z</time></trkpt><trkpt lat="44.092244162148" lon="11.297654398535483"><ele>798.0</ele><time>2026-05-01T11:21:28.999Z</time></trkpt><trkpt lat="44.09220403279279" lon="11.297777264318418"><ele>796.0</ele><time>2026-05-01T11:21:29.999Z</time></trkpt><trkpt lat="44.092125409284606" lon="11.297869509622615"><ele>794.0</ele><time>2026-05-01T11:21:30.999Z</time></trkpt><trkpt lat="44.0920260219026" lon="11.297954817241948"><ele>794.0</ele><time>2026-05-01T11:21:31.999Z</time></trkpt><trkpt lat="44.09191803647687" lon="11.298070952092115"><ele>794.0</ele><time>2026-05-01T11:21:32.999Z</time></trkpt><trkpt lat="44.09180275691864" lon="11.298165792583266"><ele>794.0</ele><time>2026-05-01T11:21:33.999Z</time></trkpt><trkpt lat="44.09170517418302" lon="11.298268745547222"><ele>794.0</ele><time>2026-05-01T11:21:34.999Z</time></trkpt><trkpt lat="44.09165978807284" lon="11.298416324447638"><ele>789.75</ele><time>2026-05-01T11:21:35.999Z</time></trkpt><trkpt lat="44.09169222985341" lon="11.29858717564884"><ele>785.5</ele><time>2026-05-01T11:21:36.999Z</time></trkpt><trkpt lat="44.09176750573117" lon="11.2987474173128"><ele>781.25</ele><time>2026-05-01T11:21:37.999Z</time></trkpt><trkpt lat="44.091814478578684" lon="11.298915256504676"><ele>777.0</ele><time>2026-05-01T11:21:38.999Z</time></trkpt><trkpt lat="44.09180786152165" lon="11.299091313975639"><ele>775.0</ele><time>2026-05-01T11:21:39.999Z</time></trkpt><trkpt lat="44.09175632219069" lon="11.299280704746234"><ele>773.0</ele><time>2026-05-01T11:21:40.999Z</time></trkpt><trkpt lat="44.09169283764861" lon="11.299492745371078"><ele>771.0</ele><time>2026-05-01T11:21:41.999Z</time></trkpt><trkpt lat="44.09164630690798" lon="11.299681401159436"><ele>770.5</ele><time>2026-05-01T11:21:42.999Z</time></trkpt><trkpt lat="44.09164118205528" lon="11.299839389191483"><ele>770.0</ele><time>2026-05-01T11:21:43.999Z</time></trkpt><trkpt lat="44.091717956586685" lon="11.299979986792536"><ele>769.5</ele><time>2026-05-01T11:21:44.999Z</time></trkpt><trkpt lat="44.091842428510276" lon="11.300112513194348"><ele>769.0</ele><time>2026-05-01T11:21:45.999Z</time></trkpt><trkpt lat="44.0920064057117" lon="11.300242646968853"><ele>769.0</ele><time>2026-05-01T11:21:46.999Z</time></trkpt><trkpt lat="44.09217006464677" lon="11.300429838588327"><ele>769.0</ele><time>2026-05-01T11:21:47.999Z</time></trkpt><trkpt lat="44.09232083329843" lon="11.30059559517542"><ele>769.0</ele><time>2026-05-01T11:21:48.999Z</time></trkpt><trkpt lat="44.092410451232745" lon="11.300788650339863"><ele>766.0</ele><time>2026-05-01T11:21:49.999Z</time></trkpt><trkpt lat="44.092445373671204" lon="11.301022283885624"><ele>763.0</ele><time>2026-05-01T11:21:50.999Z</time></trkpt><trkpt lat="44.09249001806785" lon="11.301281178989495"><ele>760.0</ele><time>2026-05-01T11:21:51.999Z</time></trkpt><trkpt lat="44.09253454972112" lon="11.30154516156748"><ele>760.0</ele><time>2026-05-01T11:21:52.999Z</time></trkpt><trkpt lat="44.092579453262594" lon="11.301811348699077"><ele>760.0</ele><time>2026-05-01T11:21:53.999Z</time></trkpt><trkpt lat="44.09262787130986" lon="11.302091083772837"><ele>760.0</ele><time>2026-05-01T11:21:54.999Z</time></trkpt><trkpt lat="44.092675869615476" lon="11.30236900048054"><ele>762.6666666666667</ele><time>2026-05-01T11:21:55.999Z</time></trkpt><trkpt lat="44.09273491667191" lon="11.302647732074249"><ele>765.3333333333334</ele><time>2026-05-01T11:21:56.999Z</time></trkpt><trkpt lat="44.09277724121994" lon="11.302937412366653"><ele>768.0</ele><time>2026-05-01T11:21:57.999Z</time></trkpt><trkpt lat="44.0928227578619" lon="11.303226755007872"><ele>768.3333333333333</ele><time>2026-05-01T11:21:58.999Z</time></trkpt><trkpt lat="44.09286385447368" lon="11.303506515620173"><ele>768.6666666666666</ele><time>2026-05-01T11:21:59.999Z</time></trkpt><trkpt lat="44.092907855797975" lon="11.303758484973196"><ele>769.0</ele><time>2026-05-01T11:22:00.999Z</time></trkpt><trkpt lat="44.0929607037058" lon="11.303978476770586"><ele>769.0</ele><time>2026-05-01T11:22:01.999Z</time></trkpt><trkpt lat="44.093055279934376" lon="11.304152729199869"><ele>769.0</ele><time>2026-05-01T11:22:02.999Z</time></trkpt><trkpt lat="44.093191500475974" lon="11.304264954786909"><ele>769.0</ele><time>2026-05-01T11:22:03.999Z</time></trkpt><trkpt lat="44.09331955396333" lon="11.304368321534298"><ele>765.0</ele><time>2026-05-01T11:22:04.999Z</time></trkpt><trkpt lat="44.09340523807966" lon="11.30451678840895"><ele>761.0</ele><time>2026-05-01T11:22:05.999Z</time></trkpt><trkpt lat="44.09344077174795" lon="11.304705005238267"><ele>757.0</ele><time>2026-05-01T11:22:06.999Z</time></trkpt><trkpt lat="44.093476761815296" lon="11.304934701167118"><ele>753.0</ele><time>2026-05-01T11:22:07.999Z</time></trkpt><trkpt lat="44.09352774947628" lon="11.305179855863328"><ele>753.0</ele><time>2026-05-01T11:22:08.999Z</time></trkpt><trkpt lat="44.093563131359296" lon="11.30540308215395"><ele>753.0</ele><time>2026-05-01T11:22:09.999Z</time></trkpt><trkpt lat="44.09359196845082" lon="11.305584601866908"><ele>753.0</ele><time>2026-05-01T11:22:10.999Z</time></trkpt><trkpt lat="44.0935780318591" lon="11.305734511716368"><ele>753.0</ele><time>2026-05-01T11:22:11.999Z</time></trkpt><trkpt lat="44.09354768258527" lon="11.305860248703162"><ele>753.5</ele><time>2026-05-01T11:22:12.999Z</time></trkpt><trkpt lat="44.093427693426996" lon="11.305924809639645"><ele>754.0</ele><time>2026-05-01T11:22:13.999Z</time></trkpt><trkpt lat="44.09330750936538" lon="11.306021677267665"><ele>754.5</ele><time>2026-05-01T11:22:14.999Z</time></trkpt><trkpt lat="44.093168124011015" lon="11.306107963206806"><ele>755.0</ele><time>2026-05-01T11:22:15.999Z</time></trkpt><trkpt lat="44.093024091444086" lon="11.306215022973836"><ele>755.0</ele><time>2026-05-01T11:22:16.999Z</time></trkpt><trkpt lat="44.09287834717194" lon="11.306308013510497"><ele>755.0</ele><time>2026-05-01T11:22:17.999Z</time></trkpt><trkpt lat="44.09272735209927" lon="11.306303414479324"><ele>755.0</ele><time>2026-05-01T11:22:18.999Z</time></trkpt><trkpt lat="44.09257866440993" lon="11.306237164458235"><ele>755.0</ele><time>2026-05-01T11:22:19.998Z</time></trkpt><trkpt lat="44.09243037687772" lon="11.306179067147498"><ele>755.0</ele><time>2026-05-01T11:22:20.998Z</time></trkpt><trkpt lat="44.09230674746258" lon="11.30611214513242"><ele>755.0</ele><time>2026-05-01T11:22:21.998Z</time></trkpt><trkpt lat="44.092192931423526" lon="11.3061255141842"><ele>755.0</ele><time>2026-05-01T11:22:22.998Z</time></trkpt><trkpt lat="44.092082470637614" lon="11.306227900151972"><ele>753.6666666666666</ele><time>2026-05-01T11:22:23.998Z</time></trkpt><trkpt lat="44.09198823954764" lon="11.306389417192571"><ele>752.3333333333334</ele><time>2026-05-01T11:22:25Z</time></trkpt><trkpt lat="44.091922718091915" lon="11.306592551078946"><ele>751.0</ele><time>2026-05-01T11:22:26Z</time></trkpt><trkpt lat="44.091823146820495" lon="11.306795794287392"><ele>751.0</ele><time>2026-05-01T11:22:27Z</time></trkpt><trkpt lat="44.09173494241957" lon="11.307019031110908"><ele>751.0</ele><time>2026-05-01T11:22:28Z</time></trkpt><trkpt lat="44.09162246442087" lon="11.307233962053438"><ele>751.0</ele><time>2026-05-01T11:22:29Z</time></trkpt><trkpt lat="44.091528211941984" lon="11.307461493890138"><ele>751.6666666666667</ele><time>2026-05-01T11:22:30Z</time></trkpt><trkpt lat="44.09148227998217" lon="11.307708005837643"><ele>752.3333333333334</ele><time>2026-05-01T11:22:31Z</time></trkpt><trkpt lat="44.091478997638745" lon="11.307956234118736"><ele>753.0</ele><time>2026-05-01T11:22:32Z</time></trkpt><trkpt lat="44.09152566133256" lon="11.308199729638229"><ele>742.6666666666666</ele><time>2026-05-01T11:22:33Z</time></trkpt><trkpt lat="44.09161865608694" lon="11.308429913010437"><ele>732.3333333333333</ele><time>2026-05-01T11:22:34Z</time></trkpt><trkpt lat="44.091753745304416" lon="11.308627180668518"><ele>722.0</ele><time>2026-05-01T11:22:35Z</time></trkpt><trkpt lat="44.091896972961344" lon="11.308798787584097"><ele>724.3333333333333</ele><time>2026-05-01T11:22:36Z</time></trkpt><trkpt lat="44.092023951164265" lon="11.308964204922422"><ele>726.6666666666666</ele><time>2026-05-01T11:22:37Z</time></trkpt><trkpt lat="44.09205755059924" lon="11.309163021788187"><ele>729.0</ele><time>2026-05-01T11:22:38Z</time></trkpt><trkpt lat="44.09206624739042" lon="11.309370823090594"><ele>729.0</ele><time>2026-05-01T11:22:39Z</time></trkpt><trkpt lat="44.09210150560201" lon="11.309610643455876"><ele>729.0</ele><time>2026-05-01T11:22:40Z</time></trkpt><trkpt lat="44.09213032934031" lon="11.309858763423662"><ele>729.0</ele><time>2026-05-01T11:22:41Z</time></trkpt><trkpt lat="44.09221713845838" lon="11.310065547953139"><ele>729.25</ele><time>2026-05-01T11:22:42Z</time></trkpt><trkpt lat="44.092296163136176" lon="11.310228343917885"><ele>729.5</ele><time>2026-05-01T11:22:43Z</time></trkpt><trkpt lat="44.09230600643663" lon="11.310376023061115"><ele>729.75</ele><time>2026-05-01T11:22:44Z</time></trkpt><trkpt lat="44.09220057766032" lon="11.310510132900761"><ele>730.0</ele><time>2026-05-01T11:22:45Z</time></trkpt><trkpt lat="44.09213022837363" lon="11.310706723477944"><ele>730.0</ele><time>2026-05-01T11:22:46Z</time></trkpt><trkpt lat="44.09206002616378" lon="11.310946897878967"><ele>730.0</ele><time>2026-05-01T11:22:47Z</time></trkpt><trkpt lat="44.0919730145286" lon="11.3111732788816"><ele>730.0</ele><time>2026-05-01T11:22:48Z</time></trkpt><trkpt lat="44.09190828129569" lon="11.31135587893672"><ele>726.75</ele><time>2026-05-01T11:22:49Z</time></trkpt><trkpt lat="44.091879117286226" lon="11.311518563718398"><ele>723.5</ele><time>2026-05-01T11:22:50Z</time></trkpt><trkpt lat="44.09190085383449" lon="11.311688489765736"><ele>720.25</ele><time>2026-05-01T11:22:51Z</time></trkpt><trkpt lat="44.091998436461495" lon="11.311843204035926"><ele>717.0</ele><time>2026-05-01T11:22:52Z</time></trkpt><trkpt lat="44.092132836807494" lon="11.311962011243658"><ele>717.0</ele><time>2026-05-01T11:22:53Z</time></trkpt><trkpt lat="44.092248293211874" lon="11.312102349794364"><ele>717.0</ele><time>2026-05-01T11:22:54Z</time></trkpt><trkpt lat="44.09231356530931" lon="11.312276902403136"><ele>717.0</ele><time>2026-05-01T11:22:55Z</time></trkpt><trkpt lat="44.09231546772066" lon="11.312485607450023"><ele>717.0</ele><time>2026-05-01T11:22:55.999Z</time></trkpt><trkpt lat="44.09231931558413" lon="11.312674141025633"><ele>716.5</ele><time>2026-05-01T11:22:56.999Z</time></trkpt><trkpt lat="44.09233252236736" lon="11.312829390095493"><ele>716.0</ele><time>2026-05-01T11:22:57.999Z</time></trkpt><trkpt lat="44.0923809865171" lon="11.312963746034344"><ele>715.5</ele><time>2026-05-01T11:22:58.999Z</time></trkpt><trkpt lat="44.092510104210334" lon="11.31300569596522"><ele>715.0</ele><time>2026-05-01T11:22:59.999Z</time></trkpt><trkpt lat="44.09266322690827" lon="11.313013418211035"><ele>710.6666666666667</ele><time>2026-05-01T11:23:00.999Z</time></trkpt><trkpt lat="44.092822644275365" lon="11.313029331730977"><ele>706.3333333333334</ele><time>2026-05-01T11:23:01.999Z</time></trkpt><trkpt lat="44.09299516242521" lon="11.313051583417908"><ele>702.0</ele><time>2026-05-01T11:23:02.999Z</time></trkpt><trkpt lat="44.093167389113304" lon="11.313081515077114"><ele>699.75</ele><time>2026-05-01T11:23:03.999Z</time></trkpt><trkpt lat="44.09332524469311" lon="11.313103942711116"><ele>697.5</ele><time>2026-05-01T11:23:04.999Z</time></trkpt><trkpt lat="44.09346976046812" lon="11.313126424902254"><ele>695.25</ele><time>2026-05-01T11:23:05.999Z</time></trkpt><trkpt lat="44.093593337474374" lon="11.313206387971311"><ele>693.0</ele><time>2026-05-01T11:23:06.999Z</time></trkpt><trkpt lat="44.09365492589971" lon="11.313376838518064"><ele>693.0</ele><time>2026-05-01T11:23:07.999Z</time></trkpt><trkpt lat="44.093710850515464" lon="11.313563821320102"><ele>693.0</ele><time>2026-05-01T11:23:08.999Z</time></trkpt><trkpt lat="44.09377873356807" lon="11.313764349105904"><ele>693.0</ele><time>2026-05-01T11:23:09.999Z</time></trkpt><trkpt lat="44.09383238647879" lon="11.313963244360826"><ele>695.75</ele><time>2026-05-01T11:23:10.999Z</time></trkpt><trkpt lat="44.09388747788805" lon="11.314152658361468"><ele>698.5</ele><time>2026-05-01T11:23:11.999Z</time></trkpt><trkpt lat="44.09393571320194" lon="11.314314825135712"><ele>701.25</ele><time>2026-05-01T11:23:12.999Z</time></trkpt><trkpt lat="44.09399840601734" lon="11.31444890958377"><ele>704.0</ele><time>2026-05-01T11:23:13.999Z</time></trkpt><trkpt lat="44.09409328126261" lon="11.31453998339563"><ele>695.5</ele><time>2026-05-01T11:23:14.999Z</time></trkpt><trkpt lat="44.09422074940656" lon="11.314549804731717"><ele>687.0</ele><time>2026-05-01T11:23:15.999Z</time></trkpt><trkpt lat="44.094363893479745" lon="11.31450875545922"><ele>678.5</ele><time>2026-05-01T11:23:16.999Z</time></trkpt><trkpt lat="44.09451726192283" lon="11.314467846297399"><ele>670.0</ele><time>2026-05-01T11:23:17.999Z</time></trkpt><trkpt lat="44.09467899247957" lon="11.314420478786488"><ele>670.0</ele><time>2026-05-01T11:23:18.999Z</time></trkpt><trkpt lat="44.09483479480035" lon="11.314374240365265"><ele>670.0</ele><time>2026-05-01T11:23:19.999Z</time></trkpt><trkpt lat="44.09498739945495" lon="11.314381200052553"><ele>670.0</ele><time>2026-05-01T11:23:20.999Z</time></trkpt><trkpt lat="44.0951362731818" lon="11.314425021688432"><ele>665.0</ele><time>2026-05-01T11:23:21.999Z</time></trkpt><trkpt lat="44.09528521630136" lon="11.314514034623572"><ele>660.0</ele><time>2026-05-01T11:23:22.999Z</time></trkpt><trkpt lat="44.095451945827065" lon="11.314576069108755"><ele>655.0</ele><time>2026-05-01T11:23:23.999Z</time></trkpt><trkpt lat="44.09561381110909" lon="11.314597843295541"><ele>655.0</ele><time>2026-05-01T11:23:24.999Z</time></trkpt><trkpt lat="44.09575444694371" lon="11.314592000572746"><ele>655.0</ele><time>2026-05-01T11:23:25.999Z</time></trkpt><trkpt lat="44.09586159818852" lon="11.314635969104607"><ele>655.0</ele><time>2026-05-01T11:23:26.999Z</time></trkpt><trkpt lat="44.095945531602574" lon="11.314673903541438"><ele>655.0</ele><time>2026-05-01T11:23:27.999Z</time></trkpt><trkpt lat="44.095984162874565" lon="11.314783743220996"><ele>655.0</ele><time>2026-05-01T11:23:28.999Z</time></trkpt><trkpt lat="44.09596678728173" lon="11.314924550727373"><ele>655.0</ele><time>2026-05-01T11:23:29.999Z</time></trkpt><trkpt lat="44.09591853421112" lon="11.31508416105198"><ele>655.0</ele><time>2026-05-01T11:23:30.999Z</time></trkpt><trkpt lat="44.09583668108081" lon="11.315237550672007"><ele>655.0</ele><time>2026-05-01T11:23:31.999Z</time></trkpt><trkpt lat="44.09576807249379" lon="11.31538654046152"><ele>655.0</ele><time>2026-05-01T11:23:32.999Z</time></trkpt><trkpt lat="44.095742727827435" lon="11.315555989478417"><ele>654.75</ele><time>2026-05-01T11:23:33.999Z</time></trkpt><trkpt lat="44.095775149375" lon="11.31575082093203"><ele>654.5</ele><time>2026-05-01T11:23:34.999Z</time></trkpt><trkpt lat="44.095847654669626" lon="11.315950615296833"><ele>654.25</ele><time>2026-05-01T11:23:35.999Z</time></trkpt><trkpt lat="44.095891402342815" lon="11.316141262462706"><ele>654.0</ele><time>2026-05-01T11:23:36.999Z</time></trkpt><trkpt lat="44.0958694014701" lon="11.316334948525192"><ele>655.0</ele><time>2026-05-01T11:23:37.999Z</time></trkpt><trkpt lat="44.09586472885987" lon="11.316513531943992"><ele>656.0</ele><time>2026-05-01T11:23:38.999Z</time></trkpt><trkpt lat="44.09592976568194" lon="11.316683030768633"><ele>657.0</ele><time>2026-05-01T11:23:39.999Z</time></trkpt><trkpt lat="44.09603129235876" lon="11.316818853058402"><ele>658.0</ele><time>2026-05-01T11:23:40.999Z</time></trkpt><trkpt lat="44.09618017292629" lon="11.316902887785298"><ele>658.0</ele><time>2026-05-01T11:23:41.999Z</time></trkpt><trkpt lat="44.09634598347482" lon="11.31694354999494"><ele>658.0</ele><time>2026-05-01T11:23:42.999Z</time></trkpt><trkpt lat="44.09649026506726" lon="11.317022826954977"><ele>658.0</ele><time>2026-05-01T11:23:43.999Z</time></trkpt><trkpt lat="44.0966111189376" lon="11.317155888413069"><ele>656.5</ele><time>2026-05-01T11:23:44.999Z</time></trkpt><trkpt lat="44.09673375463726" lon="11.317222240472901"><ele>655.0</ele><time>2026-05-01T11:23:45.999Z</time></trkpt><trkpt lat="44.09689067739422" lon="11.317201231023601"><ele>653.5</ele><time>2026-05-01T11:23:46.999Z</time></trkpt><trkpt lat="44.09704771011979" lon="11.317187925564836"><ele>652.0</ele><time>2026-05-01T11:23:47.999Z</time></trkpt><trkpt lat="44.09717621373456" lon="11.317287566977912"><ele>652.0</ele><time>2026-05-01T11:23:48.999Z</time></trkpt><trkpt lat="44.097320687105864" lon="11.317355429663303"><ele>652.0</ele><time>2026-05-01T11:23:49.999Z</time></trkpt><trkpt lat="44.09744056811453" lon="11.317429080750033"><ele>652.0</ele><time>2026-05-01T11:23:50.999Z</time></trkpt><trkpt lat="44.09752263710459" lon="11.317545428864781"><ele>652.0</ele><time>2026-05-01T11:23:51.999Z</time></trkpt><trkpt lat="44.097549857941694" lon="11.317699908085086"><ele>649.2</ele><time>2026-05-01T11:23:52.999Z</time></trkpt><trkpt lat="44.09757789031065" lon="11.31784586985731"><ele>646.4000000000001</ele><time>2026-05-01T11:23:53.999Z</time></trkpt><trkpt lat="44.09759134354227" lon="11.317989963579947"><ele>643.5999999999999</ele><time>2026-05-01T11:23:54.999Z</time></trkpt><trkpt lat="44.09761223433657" lon="11.318128044567528"><ele>640.8</ele><time>2026-05-01T11:23:55.999Z</time></trkpt><trkpt lat="44.09766716248215" lon="11.318243611925528"><ele>638.0</ele><time>2026-05-01T11:23:56.999Z</time></trkpt><trkpt lat="44.097746621974466" lon="11.318321690287583"><ele>638.0</ele><time>2026-05-01T11:23:57.999Z</time></trkpt><trkpt lat="44.09784231777978" lon="11.31832695946575"><ele>638.0</ele><time>2026-05-01T11:23:58.999Z</time></trkpt><trkpt lat="44.097949253399754" lon="11.318303743156441"><ele>638.0</ele><time>2026-05-01T11:23:59.999Z</time></trkpt><trkpt lat="44.098044076195336" lon="11.318228113757861"><ele>638.0</ele><time>2026-05-01T11:24:00.999Z</time></trkpt><trkpt lat="44.09809641290507" lon="11.318087844390611"><ele>638.0</ele><time>2026-05-01T11:24:01.999Z</time></trkpt><trkpt lat="44.09810124883324" lon="11.317937363926312"><ele>633.5</ele><time>2026-05-01T11:24:02.999Z</time></trkpt><trkpt lat="44.098058783306556" lon="11.317788152938437"><ele>629.0</ele><time>2026-05-01T11:24:03.999Z</time></trkpt><trkpt lat="44.097981169244036" lon="11.317645417967382"><ele>624.5</ele><time>2026-05-01T11:24:04.999Z</time></trkpt><trkpt lat="44.09787440630091" lon="11.317502144315739"><ele>620.0</ele><time>2026-05-01T11:24:05.999Z</time></trkpt><trkpt lat="44.0977601631175" lon="11.317346582712048"><ele>613.3333333333333</ele><time>2026-05-01T11:24:06.999Z</time></trkpt><trkpt lat="44.09763961177103" lon="11.317176325264382"><ele>606.6666666666666</ele><time>2026-05-01T11:24:07.999Z</time></trkpt><trkpt lat="44.09751488085056" lon="11.316995503107915"><ele>600.0</ele><time>2026-05-01T11:24:08.999Z</time></trkpt><trkpt lat="44.09742150753149" lon="11.316852684933329"><ele>603.0</ele><time>2026-05-01T11:24:09.999Z</time></trkpt><trkpt lat="44.097318707633676" lon="11.316658753396043"><ele>606.0</ele><time>2026-05-01T11:24:10.999Z</time></trkpt><trkpt lat="44.097232617020346" lon="11.316473051147769"><ele>609.0</ele><time>2026-05-01T11:24:11.999Z</time></trkpt><trkpt lat="44.0971408195627" lon="11.316311062901445"><ele>609.0</ele><time>2026-05-01T11:24:12.999Z</time></trkpt><trkpt lat="44.09701101379446" lon="11.316208067708404"><ele>609.0</ele><time>2026-05-01T11:24:13.999Z</time></trkpt><trkpt lat="44.096892243821905" lon="11.316134844148609"><ele>609.0</ele><time>2026-05-01T11:24:14.999Z</time></trkpt><trkpt lat="44.096801354506695" lon="11.31606210484495"><ele>609.0</ele><time>2026-05-01T11:24:15.999Z</time></trkpt><trkpt lat="44.096722338229085" lon="11.315955212119624"><ele>609.0</ele><time>2026-05-01T11:24:16.999Z</time></trkpt><trkpt lat="44.09669063053144" lon="11.31582668966514"><ele>609.0</ele><time>2026-05-01T11:24:17.999Z</time></trkpt><trkpt lat="44.09669409989133" lon="11.315700898894821"><ele>609.0</ele><time>2026-05-01T11:24:18.999Z</time></trkpt><trkpt lat="44.096777169738566" lon="11.315603837660387"><ele>609.0</ele><time>2026-05-01T11:24:19.999Z</time></trkpt><trkpt lat="44.09688569941405" lon="11.315454798483193"><ele>609.0</ele><time>2026-05-01T11:24:20.998Z</time></trkpt><trkpt lat="44.09696285519377" lon="11.315293247516172"><ele>611.6666666666666</ele><time>2026-05-01T11:24:21.998Z</time></trkpt><trkpt lat="44.097062018399875" lon="11.3151090136407"><ele>614.3333333333333</ele><time>2026-05-01T11:24:22.998Z</time></trkpt><trkpt lat="44.097150854740455" lon="11.314902565126143"><ele>617.0</ele><time>2026-05-01T11:24:23.998Z</time></trkpt><trkpt lat="44.09721872295783" lon="11.31470726140131"><ele>617.0</ele><time>2026-05-01T11:24:24.998Z</time></trkpt><trkpt lat="44.09725194715706" lon="11.314530386670963"><ele>617.0</ele><time>2026-05-01T11:24:25.998Z</time></trkpt><trkpt lat="44.09727674902934" lon="11.31437189510445"><ele>617.0</ele><time>2026-05-01T11:24:26.998Z</time></trkpt><trkpt lat="44.09732186173558" lon="11.314260140238282"><ele>617.0</ele><time>2026-05-01T11:24:27.998Z</time></trkpt><trkpt lat="44.09739828629262" lon="11.314196461643172"><ele>617.0</ele><time>2026-05-01T11:24:28.998Z</time></trkpt><trkpt lat="44.097481485229245" lon="11.314168184111303"><ele>617.2</ele><time>2026-05-01T11:24:29.998Z</time></trkpt><trkpt lat="44.09755580509965" lon="11.314245890463209"><ele>617.4000000000001</ele><time>2026-05-01T11:24:31Z</time></trkpt><trkpt lat="44.09758343412868" lon="11.314385901608198"><ele>617.5999999999999</ele><time>2026-05-01T11:24:32Z</time></trkpt><trkpt lat="44.09757167865922" lon="11.314536364788445"><ele>617.8</ele><time>2026-05-01T11:24:33Z</time></trkpt><trkpt lat="44.0974734142831" lon="11.314647770460619"><ele>618.0</ele><time>2026-05-01T11:24:34Z</time></trkpt><trkpt lat="44.097414840990155" lon="11.314811847232207"><ele>608.0</ele><time>2026-05-01T11:24:35Z</time></trkpt><trkpt lat="44.09742145153871" lon="11.314976959658887"><ele>598.0</ele><time>2026-05-01T11:24:36Z</time></trkpt><trkpt lat="44.097479432192586" lon="11.315119748728446"><ele>588.0</ele><time>2026-05-01T11:24:37Z</time></trkpt><trkpt lat="44.09759507610486" lon="11.315207938212604"><ele>578.0</ele><time>2026-05-01T11:24:38Z</time></trkpt><trkpt lat="44.097772073720584" lon="11.315212420110706"><ele>578.0</ele><time>2026-05-01T11:24:39Z</time></trkpt><trkpt lat="44.097963119439086" lon="11.315223314156352"><ele>578.0</ele><time>2026-05-01T11:24:40Z</time></trkpt><trkpt lat="44.09814973618818" lon="11.315297125399761"><ele>578.0</ele><time>2026-05-01T11:24:41Z</time></trkpt><trkpt lat="44.09833861781272" lon="11.315368308370536"><ele>576.6666666666666</ele><time>2026-05-01T11:24:42Z</time></trkpt><trkpt lat="44.098502674393245" lon="11.315509365612906"><ele>575.3333333333334</ele><time>2026-05-01T11:24:43Z</time></trkpt><trkpt lat="44.09868075055629" lon="11.31568780763191"><ele>574.0</ele><time>2026-05-01T11:24:44Z</time></trkpt><trkpt lat="44.09889364502753" lon="11.315886880380937"><ele>566.5</ele><time>2026-05-01T11:24:45Z</time></trkpt><trkpt lat="44.09910223620068" lon="11.31610145743643"><ele>559.0</ele><time>2026-05-01T11:24:46Z</time></trkpt><trkpt lat="44.09929768395187" lon="11.316294275533483"><ele>561.6666666666667</ele><time>2026-05-01T11:24:47Z</time></trkpt><trkpt lat="44.099470966281096" lon="11.31646989120206"><ele>564.3333333333334</ele><time>2026-05-01T11:24:48Z</time></trkpt><trkpt lat="44.09960433881179" lon="11.31665373630146"><ele>567.0</ele><time>2026-05-01T11:24:49Z</time></trkpt><trkpt lat="44.09971761968188" lon="11.316816975928097"><ele>567.0</ele><time>2026-05-01T11:24:50Z</time></trkpt><trkpt lat="44.099825456831255" lon="11.316965649703437"><ele>567.0</ele><time>2026-05-01T11:24:51Z</time></trkpt><trkpt lat="44.099872890595485" lon="11.317129658962973"><ele>567.0</ele><time>2026-05-01T11:24:52Z</time></trkpt><trkpt lat="44.09989368268192" lon="11.317287764995635"><ele>567.0</ele><time>2026-05-01T11:24:53Z</time></trkpt><trkpt lat="44.09987280972257" lon="11.317460511944207"><ele>569.25</ele><time>2026-05-01T11:24:53.999Z</time></trkpt><trkpt lat="44.09983109538438" lon="11.317652810947415"><ele>571.5</ele><time>2026-05-01T11:24:54.999Z</time></trkpt><trkpt lat="44.09975612510468" lon="11.317827726279194"><ele>573.75</ele><time>2026-05-01T11:24:55.999Z</time></trkpt><trkpt lat="44.09964803402964" lon="11.317940035417623"><ele>576.0</ele><time>2026-05-01T11:24:56.999Z</time></trkpt><trkpt lat="44.09955206997031" lon="11.318046937825557"><ele>573.25</ele><time>2026-05-01T11:24:57.999Z</time></trkpt><trkpt lat="44.099495806056595" lon="11.318163167025368"><ele>570.5</ele><time>2026-05-01T11:24:58.999Z</time></trkpt><trkpt lat="44.099514942590126" lon="11.31830593445659"><ele>567.75</ele><time>2026-05-01T11:24:59.999Z</time></trkpt><trkpt lat="44.0995960801319" lon="11.318435530587209"><ele>565.0</ele><time>2026-05-01T11:25:00.999Z</time></trkpt><trkpt lat="44.09971361256274" lon="11.318522422526618"><ele>565.0</ele><time>2026-05-01T11:25:01.999Z</time></trkpt><trkpt lat="44.09985558275682" lon="11.318610050610559"><ele>565.0</ele><time>2026-05-01T11:25:02.999Z</time></trkpt><trkpt lat="44.09995802498728" lon="11.318766446422897"><ele>565.0</ele><time>2026-05-01T11:25:03.999Z</time></trkpt><trkpt lat="44.10004388969304" lon="11.318947424374338"><ele>556.6666666666667</ele><time>2026-05-01T11:25:04.999Z</time></trkpt><trkpt lat="44.10012547269671" lon="11.319133755748208"><ele>548.3333333333334</ele><time>2026-05-01T11:25:05.999Z</time></trkpt><trkpt lat="44.10016229317199" lon="11.319349372652344"><ele>540.0</ele><time>2026-05-01T11:25:06.999Z</time></trkpt><trkpt lat="44.10015917526806" lon="11.319549522766996"><ele>544.25</ele><time>2026-05-01T11:25:07.999Z</time></trkpt><trkpt lat="44.10016909445844" lon="11.319735125877386"><ele>548.5</ele><time>2026-05-01T11:25:08.999Z</time></trkpt><trkpt lat="44.100193715716074" lon="11.319897422429138"><ele>552.75</ele><time>2026-05-01T11:25:09.999Z</time></trkpt><trkpt lat="44.10028634180066" lon="11.320021654124433"><ele>557.0</ele><time>2026-05-01T11:25:10.999Z</time></trkpt><trkpt lat="44.10043459011278" lon="11.320104921813416"><ele>557.0</ele><time>2026-05-01T11:25:11.999Z</time></trkpt><trkpt lat="44.10060796255019" lon="11.32018861149843"><ele>557.0</ele><time>2026-05-01T11:25:12.999Z</time></trkpt><trkpt lat="44.100734871390195" lon="11.320355514624437"><ele>557.0</ele><time>2026-05-01T11:25:13.999Z</time></trkpt><trkpt lat="44.10082292268031" lon="11.320542791599522"><ele>548.0</ele><time>2026-05-01T11:25:14.999Z</time></trkpt><trkpt lat="44.10089803467526" lon="11.320748119719255"><ele>539.0</ele><time>2026-05-01T11:25:15.999Z</time></trkpt><trkpt lat="44.10097575049799" lon="11.320961466184631"><ele>530.0</ele><time>2026-05-01T11:25:16.999Z</time></trkpt><trkpt lat="44.1010275922345" lon="11.321193446671657"><ele>535.0</ele><time>2026-05-01T11:25:17.999Z</time></trkpt><trkpt lat="44.10109914242151" lon="11.321416069370375"><ele>540.0</ele><time>2026-05-01T11:25:18.999Z</time></trkpt><trkpt lat="44.10119753590561" lon="11.321624163776928"><ele>545.0</ele><time>2026-05-01T11:25:19.999Z</time></trkpt><trkpt lat="44.10132552610609" lon="11.32180665111036"><ele>545.0</ele><time>2026-05-01T11:25:20.999Z</time></trkpt><trkpt lat="44.10142131886656" lon="11.322017838919235"><ele>545.0</ele><time>2026-05-01T11:25:21.999Z</time></trkpt><trkpt lat="44.10146452866851" lon="11.322249557753088"><ele>545.0</ele><time>2026-05-01T11:25:22.999Z</time></trkpt><trkpt lat="44.1015178412667" lon="11.32249164969333"><ele>534.3333333333333</ele><time>2026-05-01T11:25:23.999Z</time></trkpt><trkpt lat="44.101605292782786" lon="11.322699106375795"><ele>523.6666666666666</ele><time>2026-05-01T11:25:24.999Z</time></trkpt><trkpt lat="44.10170097173394" lon="11.322892539504899"><ele>513.0</ele><time>2026-05-01T11:25:25.999Z</time></trkpt><trkpt lat="44.101758356815786" lon="11.323112596617664"><ele>513.0</ele><time>2026-05-01T11:25:26.999Z</time></trkpt><trkpt lat="44.10177886669893" lon="11.323342262200233"><ele>513.0</ele><time>2026-05-01T11:25:27.999Z</time></trkpt><trkpt lat="44.101794184069796" lon="11.323583342115693"><ele>513.0</ele><time>2026-05-01T11:25:28.999Z</time></trkpt><trkpt lat="44.10181900737971" lon="11.323832064448517"><ele>511.33333333333337</ele><time>2026-05-01T11:25:29.999Z</time></trkpt><trkpt lat="44.1018443898333" lon="11.324082303190119"><ele>509.6666666666667</ele><time>2026-05-01T11:25:30.999Z</time></trkpt><trkpt lat="44.10187719993577" lon="11.324310909610542"><ele>508.0</ele><time>2026-05-01T11:25:31.999Z</time></trkpt><trkpt lat="44.10191228945223" lon="11.324516913706145"><ele>508.0</ele><time>2026-05-01T11:25:32.999Z</time></trkpt><trkpt lat="44.101973028847944" lon="11.32467578059813"><ele>508.0</ele><time>2026-05-01T11:25:33.999Z</time></trkpt><trkpt lat="44.10206196114083" lon="11.32480397963033"><ele>508.0</ele><time>2026-05-01T11:25:34.999Z</time></trkpt><trkpt lat="44.10219347554457" lon="11.324881644121447"><ele>508.0</ele><time>2026-05-01T11:25:35.999Z</time></trkpt><trkpt lat="44.102338045638405" lon="11.324934519010661"><ele>506.0</ele><time>2026-05-01T11:25:36.999Z</time></trkpt><trkpt lat="44.10248762969659" lon="11.324988103759065"><ele>504.0</ele><time>2026-05-01T11:25:37.999Z</time></trkpt><trkpt lat="44.10261364718951" lon="11.325102018814217"><ele>502.0</ele><time>2026-05-01T11:25:38.999Z</time></trkpt><trkpt lat="44.10271097923509" lon="11.325208118539837"><ele>500.0</ele><time>2026-05-01T11:25:39.999Z</time></trkpt><trkpt lat="44.10278195235767" lon="11.32535450623094"><ele>500.0</ele><time>2026-05-01T11:25:40.999Z</time></trkpt><trkpt lat="44.10287286827053" lon="11.325521650459969"><ele>500.0</ele><time>2026-05-01T11:25:41.999Z</time></trkpt><trkpt lat="44.102964692929305" lon="11.325701861708854"><ele>500.0</ele><time>2026-05-01T11:25:42.999Z</time></trkpt><trkpt lat="44.10309148393382" lon="11.325848648104957"><ele>499.0</ele><time>2026-05-01T11:25:43.999Z</time></trkpt><trkpt lat="44.103210798312766" lon="11.32600244651473"><ele>498.0</ele><time>2026-05-01T11:25:44.999Z</time></trkpt><trkpt lat="44.10327221320805" lon="11.326216300436101"><ele>497.0</ele><time>2026-05-01T11:25:45.999Z</time></trkpt><trkpt lat="44.10334736734387" lon="11.326442501181749"><ele>497.0</ele><time>2026-05-01T11:25:46.999Z</time></trkpt><trkpt lat="44.103431983067324" lon="11.326673001797134"><ele>497.0</ele><time>2026-05-01T11:25:47.999Z</time></trkpt><trkpt lat="44.103512098783874" lon="11.326925452435136"><ele>497.0</ele><time>2026-05-01T11:25:48.999Z</time></trkpt><trkpt lat="44.10359727763073" lon="11.327187192967987"><ele>499.3333333333333</ele><time>2026-05-01T11:25:49.999Z</time></trkpt><trkpt lat="44.103681784965545" lon="11.32745596865925"><ele>501.66666666666663</ele><time>2026-05-01T11:25:50.999Z</time></trkpt><trkpt lat="44.10375000824179" lon="11.327726714669227"><ele>504.0</ele><time>2026-05-01T11:25:51.999Z</time></trkpt><trkpt lat="44.103823108815654" lon="11.327960846764954"><ele>504.5</ele><time>2026-05-01T11:25:52.999Z</time></trkpt><trkpt lat="44.10388106872436" lon="11.328151459356752"><ele>505.0</ele><time>2026-05-01T11:25:53.999Z</time></trkpt><trkpt lat="44.10391152605149" lon="11.328331318583315"><ele>505.5</ele><time>2026-05-01T11:25:54.999Z</time></trkpt><trkpt lat="44.10390495378389" lon="11.32851805088374"><ele>506.0</ele><time>2026-05-01T11:25:55.999Z</time></trkpt><trkpt lat="44.10385440236103" lon="11.328715168071406"><ele>505.3333333333333</ele><time>2026-05-01T11:25:56.999Z</time></trkpt><trkpt lat="44.10381518598301" lon="11.328946532254221"><ele>504.66666666666663</ele><time>2026-05-01T11:25:57.999Z</time></trkpt><trkpt lat="44.10380899313037" lon="11.329184271080043"><ele>504.0</ele><time>2026-05-01T11:25:58.999Z</time></trkpt><trkpt lat="44.10387588991665" lon="11.329432173877661"><ele>504.0</ele><time>2026-05-01T11:25:59.999Z</time></trkpt><trkpt lat="44.10394852344326" lon="11.329691752572858"><ele>504.0</ele><time>2026-05-01T11:26:00.999Z</time></trkpt><trkpt lat="44.103952699437926" lon="11.329957569777308"><ele>504.0</ele><time>2026-05-01T11:26:01.999Z</time></trkpt><trkpt lat="44.10395883932391" lon="11.330230702903041"><ele>505.33333333333337</ele><time>2026-05-01T11:26:02.999Z</time></trkpt><trkpt lat="44.10398172983211" lon="11.330502200208452"><ele>506.6666666666667</ele><time>2026-05-01T11:26:03.999Z</time></trkpt><trkpt lat="44.10395943736009" lon="11.330774633549828"><ele>508.0</ele><time>2026-05-01T11:26:04.999Z</time></trkpt><trkpt lat="44.103919879765535" lon="11.331042885458066"><ele>508.0</ele><time>2026-05-01T11:26:05.999Z</time></trkpt><trkpt lat="44.10385463549722" lon="11.331301669488795"><ele>508.0</ele><time>2026-05-01T11:26:06.999Z</time></trkpt><trkpt lat="44.103813807335264" lon="11.331566395550633"><ele>508.0</ele><time>2026-05-01T11:26:07.999Z</time></trkpt><trkpt lat="44.10380956686391" lon="11.331833235698614"><ele>505.33333333333337</ele><time>2026-05-01T11:26:08.999Z</time></trkpt><trkpt lat="44.10384476225536" lon="11.33210330570267"><ele>502.66666666666663</ele><time>2026-05-01T11:26:09.999Z</time></trkpt><trkpt lat="44.10388029688557" lon="11.332384285239204"><ele>500.0</ele><time>2026-05-01T11:26:10.999Z</time></trkpt><trkpt lat="44.10385057594908" lon="11.33265702919543"><ele>500.0</ele><time>2026-05-01T11:26:11.999Z</time></trkpt><trkpt lat="44.10384055817489" lon="11.33292585078978"><ele>500.0</ele><time>2026-05-01T11:26:12.999Z</time></trkpt><trkpt lat="44.10383459285937" lon="11.333188229547039"><ele>500.0</ele><time>2026-05-01T11:26:13.999Z</time></trkpt><trkpt lat="44.103889022640104" lon="11.333444529696052"><ele>500.0</ele><time>2026-05-01T11:26:14.999Z</time></trkpt><trkpt lat="44.10397508948307" lon="11.333702103037924"><ele>500.0</ele><time>2026-05-01T11:26:15.999Z</time></trkpt><trkpt lat="44.104023406696086" lon="11.333959332180019"><ele>500.0</ele><time>2026-05-01T11:26:16.999Z</time></trkpt><trkpt lat="44.10406203036266" lon="11.334192319922757"><ele>500.66666666666663</ele><time>2026-05-01T11:26:17.999Z</time></trkpt><trkpt lat="44.104056780069925" lon="11.334416499215784"><ele>501.33333333333337</ele><time>2026-05-01T11:26:18.999Z</time></trkpt><trkpt lat="44.10405069480103" lon="11.334639333655065"><ele>502.0</ele><time>2026-05-01T11:26:19.999Z</time></trkpt><trkpt lat="44.10407190315966" lon="11.334851645621525"><ele>502.0</ele><time>2026-05-01T11:26:20.998Z</time></trkpt><trkpt lat="44.104060878422516" lon="11.335052648686194"><ele>502.0</ele><time>2026-05-01T11:26:21.998Z</time></trkpt><trkpt lat="44.10402620072951" lon="11.335233472385552"><ele>502.0</ele><time>2026-05-01T11:26:22.998Z</time></trkpt><trkpt lat="44.10397324771392" lon="11.335407285397917"><ele>502.0</ele><time>2026-05-01T11:26:23.998Z</time></trkpt><trkpt lat="44.1039375856562" lon="11.335588839596964"><ele>500.0</ele><time>2026-05-01T11:26:24.998Z</time></trkpt><trkpt lat="44.10391145565949" lon="11.335768869205431"><ele>498.0</ele><time>2026-05-01T11:26:25.998Z</time></trkpt><trkpt lat="44.10389663100435" lon="11.335953836567738"><ele>496.0</ele><time>2026-05-01T11:26:26.998Z</time></trkpt><trkpt lat="44.10388764801714" lon="11.336136301376259"><ele>494.0</ele><time>2026-05-01T11:26:27.998Z</time></trkpt><trkpt lat="44.103894415128835" lon="11.336312466609023"><ele>492.0</ele><time>2026-05-01T11:26:28.998Z</time></trkpt><trkpt lat="44.10390143566369" lon="11.336484145149177"><ele>490.0</ele><time>2026-05-01T11:26:29.998Z</time></trkpt><trkpt lat="44.10391010452825" lon="11.336643894925285"><ele>488.0</ele><time>2026-05-01T11:26:30.998Z</time></trkpt><trkpt lat="44.103895061108155" lon="11.336781802220687"><ele>486.0</ele><time>2026-05-01T11:26:31.998Z</time></trkpt><trkpt lat="44.10384508190657" lon="11.336889353108928"><ele>484.0</ele><time>2026-05-01T11:26:32.998Z</time></trkpt><trkpt lat="44.10375777232741" lon="11.336949905960578"><ele>484.0</ele><time>2026-05-01T11:26:33.998Z</time></trkpt><trkpt lat="44.103668445799094" lon="11.337034606996625"><ele>484.0</ele><time>2026-05-01T11:26:34.998Z</time></trkpt><trkpt lat="44.103559034041396" lon="11.337088516255218"><ele>484.0</ele><time>2026-05-01T11:26:35.998Z</time></trkpt><trkpt lat="44.103449925506055" lon="11.337130912503437"><ele>484.0</ele><time>2026-05-01T11:26:37Z</time></trkpt><trkpt lat="44.10333065492727" lon="11.337159237877515"><ele>482.25</ele><time>2026-05-01T11:26:38Z</time></trkpt><trkpt lat="44.10321198464679" lon="11.337210578392769"><ele>480.5</ele><time>2026-05-01T11:26:39Z</time></trkpt><trkpt lat="44.103092392613185" lon="11.337302027432125"><ele>478.75</ele><time>2026-05-01T11:26:40Z</time></trkpt><trkpt lat="44.10296948551934" lon="11.337404748655628"><ele>477.0</ele><time>2026-05-01T11:26:41Z</time></trkpt><trkpt lat="44.10284918590468" lon="11.337509383163978"><ele>477.0</ele><time>2026-05-01T11:26:42Z</time></trkpt><trkpt lat="44.1027422713923" lon="11.337611424743923"><ele>477.0</ele><time>2026-05-01T11:26:43Z</time></trkpt><trkpt lat="44.10266275900323" lon="11.337745109388003"><ele>477.0</ele><time>2026-05-01T11:26:44Z</time></trkpt><trkpt lat="44.10262110229905" lon="11.337916730363471"><ele>477.0</ele><time>2026-05-01T11:26:45Z</time></trkpt><trkpt lat="44.10261858766487" lon="11.338108897160632"><ele>476.0</ele><time>2026-05-01T11:26:46Z</time></trkpt><trkpt lat="44.102637809417935" lon="11.338302237814359"><ele>475.0</ele><time>2026-05-01T11:26:47Z</time></trkpt><trkpt lat="44.10265869164498" lon="11.338488852157079"><ele>474.0</ele><time>2026-05-01T11:26:48Z</time></trkpt><trkpt lat="44.10269793120329" lon="11.33866816459765"><ele>473.0</ele><time>2026-05-01T11:26:49Z</time></trkpt><trkpt lat="44.10277360368416" lon="11.338829871303977"><ele>474.5</ele><time>2026-05-01T11:26:50Z</time></trkpt><trkpt lat="44.102869463694525" lon="11.338977583396586"><ele>476.0</ele><time>2026-05-01T11:26:51Z</time></trkpt><trkpt lat="44.102979261520986" lon="11.33912397293988"><ele>477.5</ele><time>2026-05-01T11:26:52Z</time></trkpt><trkpt lat="44.10309425932213" lon="11.33926194195949"><ele>479.0</ele><time>2026-05-01T11:26:53Z</time></trkpt><trkpt lat="44.10321749299539" lon="11.339396338041857"><ele>478.3333333333333</ele><time>2026-05-01T11:26:54Z</time></trkpt><trkpt lat="44.1033409381234" lon="11.33953504357503"><ele>477.66666666666663</ele><time>2026-05-01T11:26:54.999Z</time></trkpt><trkpt lat="44.10345870509023" lon="11.339667112505154"><ele>477.0</ele><time>2026-05-01T11:26:55.999Z</time></trkpt><trkpt lat="44.103547670786575" lon="11.3398192080938"><ele>477.0</ele><time>2026-05-01T11:26:56.999Z</time></trkpt><trkpt lat="44.10362423271239" lon="11.339977289233527"><ele>477.0</ele><time>2026-05-01T11:26:57.999Z</time></trkpt><trkpt lat="44.10364193026262" lon="11.340180625017057"><ele>477.0</ele><time>2026-05-01T11:26:58.999Z</time></trkpt><trkpt lat="44.10363906432601" lon="11.340395749667024"><ele>477.0</ele><time>2026-05-01T11:26:59.999Z</time></trkpt><trkpt lat="44.103637844554" lon="11.340608660457226"><ele>476.33333333333337</ele><time>2026-05-01T11:27:00.999Z</time></trkpt><trkpt lat="44.10366143319604" lon="11.340802723810388"><ele>475.6666666666667</ele><time>2026-05-01T11:27:01.999Z</time></trkpt><trkpt lat="44.10373018009426" lon="11.340988119327614"><ele>475.0</ele><time>2026-05-01T11:27:02.999Z</time></trkpt><trkpt lat="44.10384408719266" lon="11.341145888283922"><ele>475.0</ele><time>2026-05-01T11:27:03.999Z</time></trkpt><trkpt lat="44.103981157789704" lon="11.341273347920373"><ele>475.0</ele><time>2026-05-01T11:27:04.999Z</time></trkpt><trkpt lat="44.10412773316189" lon="11.34139932891729"><ele>475.0</ele><time>2026-05-01T11:27:05.999Z</time></trkpt><trkpt lat="44.1042643697095" lon="11.341549352987407"><ele>470.33333333333337</ele><time>2026-05-01T11:27:06.999Z</time></trkpt><trkpt lat="44.10439425447497" lon="11.341725871591091"><ele>465.66666666666663</ele><time>2026-05-01T11:27:07.999Z</time></trkpt><trkpt lat="44.10451921520335" lon="11.341919322588819"><ele>461.0</ele><time>2026-05-01T11:27:08.999Z</time></trkpt><trkpt lat="44.10465159294773" lon="11.342108663412581"><ele>461.66666666666663</ele><time>2026-05-01T11:27:09.999Z</time></trkpt><trkpt lat="44.10480492825346" lon="11.342268914798886"><ele>462.33333333333337</ele><time>2026-05-01T11:27:10.999Z</time></trkpt><trkpt lat="44.104973387008165" lon="11.342398724192941"><ele>463.0</ele><time>2026-05-01T11:27:11.999Z</time></trkpt><trkpt lat="44.10514849413082" lon="11.342522443475264"><ele>463.0</ele><time>2026-05-01T11:27:12.999Z</time></trkpt><trkpt lat="44.10531451614865" lon="11.34267466499832"><ele>463.0</ele><time>2026-05-01T11:27:13.999Z</time></trkpt><trkpt lat="44.10546687029374" lon="11.342864130657029"><ele>463.0</ele><time>2026-05-01T11:27:14.999Z</time></trkpt><trkpt lat="44.10561510859735" lon="11.343065970473633"><ele>462.33333333333337</ele><time>2026-05-01T11:27:15.999Z</time></trkpt><trkpt lat="44.105767720297386" lon="11.343273302376202"><ele>461.66666666666663</ele><time>2026-05-01T11:27:16.999Z</time></trkpt><trkpt lat="44.1059246491756" lon="11.343484213335564"><ele>461.0</ele><time>2026-05-01T11:27:17.999Z</time></trkpt><trkpt lat="44.10608404211187" lon="11.343691409923768"><ele>463.0</ele><time>2026-05-01T11:27:18.999Z</time></trkpt><trkpt lat="44.10623901022461" lon="11.343891690355175"><ele>465.0</ele><time>2026-05-01T11:27:19.999Z</time></trkpt><trkpt lat="44.106389320127114" lon="11.344087260637782"><ele>467.0</ele><time>2026-05-01T11:27:20.999Z</time></trkpt><trkpt lat="44.10652948075135" lon="11.344277892964605"><ele>465.3333333333333</ele><time>2026-05-01T11:27:21.999Z</time></trkpt><trkpt lat="44.10665075054965" lon="11.344478415661516"><ele>463.66666666666663</ele><time>2026-05-01T11:27:22.999Z</time></trkpt><trkpt lat="44.10674497155803" lon="11.34470280214651"><ele>462.0</ele><time>2026-05-01T11:27:23.999Z</time></trkpt><trkpt lat="44.106807136193396" lon="11.344942727406357"><ele>462.0</ele><time>2026-05-01T11:27:24.999Z</time></trkpt><trkpt lat="44.106846603172684" lon="11.345186590424612"><ele>462.0</ele><time>2026-05-01T11:27:25.999Z</time></trkpt><trkpt lat="44.10685422698601" lon="11.345431106599266"><ele>462.0</ele><time>2026-05-01T11:27:26.999Z</time></trkpt><trkpt lat="44.106835209911864" lon="11.345675206747776"><ele>460.66666666666663</ele><time>2026-05-01T11:27:27.999Z</time></trkpt><trkpt lat="44.10680326022922" lon="11.34591731556582"><ele>459.3333333333333</ele><time>2026-05-01T11:27:28.999Z</time></trkpt><trkpt lat="44.10677215598339" lon="11.346158677200835"><ele>458.0</ele><time>2026-05-01T11:27:29.999Z</time></trkpt><trkpt lat="44.10675378080135" lon="11.34640153272177"><ele>458.0</ele><time>2026-05-01T11:27:30.999Z</time></trkpt><trkpt lat="44.10674781065968" lon="11.346650578103915"><ele>458.0</ele><time>2026-05-01T11:27:31.999Z</time></trkpt><trkpt lat="44.106740914220175" lon="11.346899354656433"><ele>458.0</ele><time>2026-05-01T11:27:32.999Z</time></trkpt><trkpt lat="44.106734943367805" lon="11.347148861205852"><ele>457.0</ele><time>2026-05-01T11:27:33.999Z</time></trkpt><trkpt lat="44.10672625768339" lon="11.347394129981149"><ele>456.0</ele><time>2026-05-01T11:27:34.999Z</time></trkpt><trkpt lat="44.10671712416803" lon="11.347636636481422"><ele>455.0</ele><time>2026-05-01T11:27:35.999Z</time></trkpt><trkpt lat="44.10671073756941" lon="11.347879330934346"><ele>454.3333333333333</ele><time>2026-05-01T11:27:36.999Z</time></trkpt><trkpt lat="44.10670249855015" lon="11.3481195275303"><ele>453.66666666666663</ele><time>2026-05-01T11:27:37.999Z</time></trkpt><trkpt lat="44.106698040721916" lon="11.348361726245582"><ele>453.0</ele><time>2026-05-01T11:27:38.999Z</time></trkpt><trkpt lat="44.10670670320463" lon="11.348605674831367"><ele>453.0</ele><time>2026-05-01T11:27:39.999Z</time></trkpt><trkpt lat="44.10674465738384" lon="11.348846280825825"><ele>453.0</ele><time>2026-05-01T11:27:40.999Z</time></trkpt><trkpt lat="44.10682132317392" lon="11.349070371362547"><ele>453.0</ele><time>2026-05-01T11:27:41.999Z</time></trkpt><trkpt lat="44.106926518270285" lon="11.34927226365911"><ele>454.33333333333337</ele><time>2026-05-01T11:27:42.999Z</time></trkpt><trkpt lat="44.107057078160885" lon="11.349446114107774"><ele>455.6666666666667</ele><time>2026-05-01T11:27:43.999Z</time></trkpt><trkpt lat="44.10720471871547" lon="11.349595158008333"><ele>457.0</ele><time>2026-05-01T11:27:44.999Z</time></trkpt><trkpt lat="44.10735506607634" lon="11.349749168645003"><ele>454.0</ele><time>2026-05-01T11:27:45.999Z</time></trkpt><trkpt lat="44.10749744425438" lon="11.349921873194731"><ele>451.0</ele><time>2026-05-01T11:27:46.999Z</time></trkpt><trkpt lat="44.107634013027614" lon="11.350107395433692"><ele>448.0</ele><time>2026-05-01T11:27:47.999Z</time></trkpt><trkpt lat="44.10777729514615" lon="11.350280779171898"><ele>448.0</ele><time>2026-05-01T11:27:48.999Z</time></trkpt><trkpt lat="44.10793148096083" lon="11.350424040838982"><ele>448.0</ele><time>2026-05-01T11:27:49.999Z</time></trkpt><trkpt lat="44.10809277646888" lon="11.350536634496935"><ele>448.0</ele><time>2026-05-01T11:27:50.999Z</time></trkpt><trkpt lat="44.10824448875408" lon="11.350649760292603"><ele>447.0</ele><time>2026-05-01T11:27:51.999Z</time></trkpt><trkpt lat="44.1083771471457" lon="11.350790547148973"><ele>446.0</ele><time>2026-05-01T11:27:52.999Z</time></trkpt><trkpt lat="44.10848461875447" lon="11.350961389429681"><ele>445.0</ele><time>2026-05-01T11:27:53.999Z</time></trkpt><trkpt lat="44.1085665184136" lon="11.351148935221367"><ele>445.0</ele><time>2026-05-01T11:27:54.999Z</time></trkpt><trkpt lat="44.10860687890903" lon="11.351333539368982"><ele>445.0</ele><time>2026-05-01T11:27:55.999Z</time></trkpt><trkpt lat="44.108618125968945" lon="11.351495413510786"><ele>445.0</ele><time>2026-05-01T11:27:56.999Z</time></trkpt><trkpt lat="44.10860571820795" lon="11.351639817803203"><ele>445.0</ele><time>2026-05-01T11:27:57.999Z</time></trkpt><trkpt lat="44.10859755301817" lon="11.351760905637349"><ele>445.0</ele><time>2026-05-01T11:27:58.999Z</time></trkpt><trkpt lat="44.10860542521426" lon="11.351861939241271"><ele>444.8</ele><time>2026-05-01T11:27:59.999Z</time></trkpt><trkpt lat="44.10865153727313" lon="11.351938817414243"><ele>444.6</ele><time>2026-05-01T11:28:00.999Z</time></trkpt><trkpt lat="44.10877763537701" lon="11.351926760960835"><ele>444.4</ele><time>2026-05-01T11:28:02.999Z</time></trkpt><trkpt lat="44.10886628545434" lon="11.351841930747357"><ele>444.2</ele><time>2026-05-01T11:28:03.999Z</time></trkpt><trkpt lat="44.10897633313694" lon="11.351790627801371"><ele>444.0</ele><time>2026-05-01T11:28:04.999Z</time></trkpt><trkpt lat="44.10909771366068" lon="11.351765448900384"><ele>443.5</ele><time>2026-05-01T11:28:05.999Z</time></trkpt><trkpt lat="44.109223264771714" lon="11.351741039505086"><ele>443.0</ele><time>2026-05-01T11:28:06.999Z</time></trkpt><trkpt lat="44.109353293680286" lon="11.3517117856054"><ele>442.5</ele><time>2026-05-01T11:28:07.999Z</time></trkpt><trkpt lat="44.10948645414222" lon="11.351682956380444"><ele>442.0</ele><time>2026-05-01T11:28:08.999Z</time></trkpt><trkpt lat="44.10962246942525" lon="11.351655616600613"><ele>442.0</ele><time>2026-05-01T11:28:09.999Z</time></trkpt><trkpt lat="44.109759648385044" lon="11.351621472307652"><ele>442.0</ele><time>2026-05-01T11:28:10.999Z</time></trkpt><trkpt lat="44.10989262758795" lon="11.351588085761309"><ele>442.0</ele><time>2026-05-01T11:28:11.999Z</time></trkpt><trkpt lat="44.11001293300068" lon="11.351564233994416"><ele>442.0</ele><time>2026-05-01T11:28:12.999Z</time></trkpt><trkpt lat="44.110116743647055" lon="11.35157972884369"><ele>442.25</ele><time>2026-05-01T11:28:13.999Z</time></trkpt><trkpt lat="44.11020810706009" lon="11.35166379809057"><ele>442.5</ele><time>2026-05-01T11:28:14.999Z</time></trkpt><trkpt lat="44.11028428239477" lon="11.351796595566835"><ele>442.75</ele><time>2026-05-01T11:28:15.999Z</time></trkpt><trkpt lat="44.11033267767722" lon="11.35197065201235"><ele>443.0</ele><time>2026-05-01T11:28:16.999Z</time></trkpt><trkpt lat="44.1103795463781" lon="11.352152734933739"><ele>442.3333333333333</ele><time>2026-05-01T11:28:17.999Z</time></trkpt><trkpt lat="44.11043344061467" lon="11.35233110040264"><ele>441.66666666666663</ele><time>2026-05-01T11:28:18.999Z</time></trkpt><trkpt lat="44.110494200875465" lon="11.352501219950387"><ele>441.0</ele><time>2026-05-01T11:28:19.999Z</time></trkpt><trkpt lat="44.11057826911116" lon="11.352727536564489"><ele>441.0</ele><time>2026-05-01T11:28:20.999Z</time></trkpt><trkpt lat="44.11067282779499" lon="11.35290809400755"><ele>441.0</ele><time>2026-05-01T11:28:21.999Z</time></trkpt><trkpt lat="44.1107825687768" lon="11.353078094343571"><ele>441.0</ele><time>2026-05-01T11:28:22.999Z</time></trkpt><trkpt lat="44.11090797378575" lon="11.353232045185852"><ele>441.66666666666663</ele><time>2026-05-01T11:28:23.999Z</time></trkpt><trkpt lat="44.111031826147354" lon="11.353375501640931"><ele>442.3333333333333</ele><time>2026-05-01T11:28:24.998Z</time></trkpt><trkpt lat="44.11117473589756" lon="11.353551950380151"><ele>443.0</ele><time>2026-05-01T11:28:25.998Z</time></trkpt><trkpt lat="44.11132022844858" lon="11.353702176514538"><ele>443.0</ele><time>2026-05-01T11:28:26.998Z</time></trkpt><trkpt lat="44.111465458457424" lon="11.353857351444182"><ele>443.0</ele><time>2026-05-01T11:28:27.998Z</time></trkpt><trkpt lat="44.111608528737136" lon="11.354017479508402"><ele>443.0</ele><time>2026-05-01T11:28:28.998Z</time></trkpt><trkpt lat="44.1117474469457" lon="11.35418434048621"><ele>443.66666666666663</ele><time>2026-05-01T11:28:29.998Z</time></trkpt><trkpt lat="44.11186482614212" lon="11.354377966484442"><ele>444.33333333333337</ele><time>2026-05-01T11:28:30.998Z</time></trkpt><trkpt lat="44.11192427962106" lon="11.354624536100888"><ele>445.0</ele><time>2026-05-01T11:28:31.998Z</time></trkpt><trkpt lat="44.11196973954585" lon="11.354875032552787"><ele>443.6666666666667</ele><time>2026-05-01T11:28:32.998Z</time></trkpt><trkpt lat="44.112019838771715" lon="11.355130979627333"><ele>442.33333333333337</ele><time>2026-05-01T11:28:33.998Z</time></trkpt><trkpt lat="44.11204715010976" lon="11.355391568908495"><ele>441.0</ele><time>2026-05-01T11:28:34.998Z</time></trkpt><trkpt lat="44.112080703997655" lon="11.35565408208467"><ele>441.0</ele><time>2026-05-01T11:28:35.998Z</time></trkpt><trkpt lat="44.11211277266754" lon="11.355914295575314"><ele>441.0</ele><time>2026-05-01T11:28:36.998Z</time></trkpt><trkpt lat="44.11215194102582" lon="11.356172261250492"><ele>441.0</ele><time>2026-05-01T11:28:37.998Z</time></trkpt><trkpt lat="44.112215441462176" lon="11.356427272392736"><ele>440.66666666666663</ele><time>2026-05-01T11:28:38.998Z</time></trkpt><trkpt lat="44.112296505371496" lon="11.356671614221657"><ele>440.3333333333333</ele><time>2026-05-01T11:28:39.998Z</time></trkpt><trkpt lat="44.11239142397885" lon="11.356909607590671"><ele>440.0</ele><time>2026-05-01T11:28:40.998Z</time></trkpt><trkpt lat="44.11250424508597" lon="11.357132059130032"><ele>439.0</ele><time>2026-05-01T11:28:41.998Z</time></trkpt><trkpt lat="44.11263140059226" lon="11.357344440225997"><ele>438.0</ele><time>2026-05-01T11:28:43Z</time></trkpt><trkpt lat="44.11277860359541" lon="11.357525054194857"><ele>437.0</ele><time>2026-05-01T11:28:44Z</time></trkpt><trkpt lat="44.11294909407773" lon="11.357680329827717"><ele>437.0</ele><time>2026-05-01T11:28:45Z</time></trkpt><trkpt lat="44.113115092581886" lon="11.357827185267656"><ele>437.0</ele><time>2026-05-01T11:28:46Z</time></trkpt><trkpt lat="44.11328478571585" lon="11.35797627526359"><ele>437.0</ele><time>2026-05-01T11:28:47Z</time></trkpt><trkpt lat="44.11345219762703" lon="11.358129810186126"><ele>436.66666666666663</ele><time>2026-05-01T11:28:48Z</time></trkpt><trkpt lat="44.11361618699381" lon="11.358283227595612"><ele>436.33333333333337</ele><time>2026-05-01T11:28:49Z</time></trkpt><trkpt lat="44.11377889897874" lon="11.35844450084868"><ele>436.0</ele><time>2026-05-01T11:28:50Z</time></trkpt><trkpt lat="44.11393716127506" lon="11.358609990081744"><ele>436.0</ele><time>2026-05-01T11:28:51Z</time></trkpt><trkpt lat="44.11404482396164" lon="11.358837319197349"><ele>436.0</ele><time>2026-05-01T11:28:52Z</time></trkpt><trkpt lat="44.114148578405256" lon="11.359070543637094"><ele>436.0</ele><time>2026-05-01T11:28:53Z</time></trkpt><trkpt lat="44.114248417932096" lon="11.359306314941158"><ele>435.6666666666667</ele><time>2026-05-01T11:28:54Z</time></trkpt><trkpt lat="44.114360648925654" lon="11.359531214586383"><ele>435.33333333333337</ele><time>2026-05-01T11:28:55Z</time></trkpt><trkpt lat="44.11445645160326" lon="11.359765957990342"><ele>435.0</ele><time>2026-05-01T11:28:56Z</time></trkpt><trkpt lat="44.11455767831971" lon="11.3600020024575"><ele>435.0</ele><time>2026-05-01T11:28:57Z</time></trkpt><trkpt lat="44.11465444261051" lon="11.360235141256425"><ele>435.0</ele><time>2026-05-01T11:28:58Z</time></trkpt><trkpt lat="44.114752906688395" lon="11.360469353136509"><ele>435.0</ele><time>2026-05-01T11:28:59Z</time></trkpt><trkpt lat="44.11485159457731" lon="11.360700974462096"><ele>434.66666666666663</ele><time>2026-05-01T11:28:59.999Z</time></trkpt><trkpt lat="44.11495188688173" lon="11.360920030519694"><ele>434.3333333333333</ele><time>2026-05-01T11:29:00.999Z</time></trkpt><trkpt lat="44.115063838127504" lon="11.361121129281406"><ele>434.0</ele><time>2026-05-01T11:29:01.999Z</time></trkpt><trkpt lat="44.11519047663069" lon="11.361308199945926"><ele>433.0</ele><time>2026-05-01T11:29:02.999Z</time></trkpt><trkpt lat="44.11533098600452" lon="11.361478941558616"><ele>432.0</ele><time>2026-05-01T11:29:03.999Z</time></trkpt><trkpt lat="44.11547741920391" lon="11.36164131370055"><ele>431.0</ele><time>2026-05-01T11:29:04.999Z</time></trkpt><trkpt lat="44.11562920756675" lon="11.361787726452537"><ele>432.66666666666663</ele><time>2026-05-01T11:29:05.999Z</time></trkpt><trkpt lat="44.115786009705005" lon="11.361925197520549"><ele>434.33333333333337</ele><time>2026-05-01T11:29:06.999Z</time></trkpt><trkpt lat="44.11593138293495" lon="11.36205617057388"><ele>436.0</ele><time>2026-05-01T11:29:07.999Z</time></trkpt><trkpt lat="44.116066720748414" lon="11.362183734178055"><ele>434.5</ele><time>2026-05-01T11:29:08.999Z</time></trkpt><trkpt lat="44.11619486038642" lon="11.362302628398655"><ele>433.0</ele><time>2026-05-01T11:29:09.999Z</time></trkpt><trkpt lat="44.116319145777595" lon="11.36241873231555"><ele>431.5</ele><time>2026-05-01T11:29:10.999Z</time></trkpt><trkpt lat="44.11643222687564" lon="11.362529327251991"><ele>430.0</ele><time>2026-05-01T11:29:11.999Z</time></trkpt><trkpt lat="44.11653658052764" lon="11.362630610024524"><ele>430.6</ele><time>2026-05-01T11:29:12.999Z</time></trkpt><trkpt lat="44.11663336176191" lon="11.362714503085645"><ele>431.2</ele><time>2026-05-01T11:29:13.999Z</time></trkpt><trkpt lat="44.116732466429895" lon="11.362781558579176"><ele>431.79999999999995</ele><time>2026-05-01T11:29:14.999Z</time></trkpt><trkpt lat="44.11682595960466" lon="11.36283144554572"><ele>432.4</ele><time>2026-05-01T11:29:15.999Z</time></trkpt><trkpt lat="44.11690153336354" lon="11.3628855304924"><ele>433.0</ele><time>2026-05-01T11:29:16.999Z</time></trkpt><trkpt lat="44.116962165382496" lon="11.362966361246816"><ele>432.4</ele><time>2026-05-01T11:29:17.999Z</time></trkpt><trkpt lat="44.11701216371654" lon="11.363076273640095"><ele>431.79999999999995</ele><time>2026-05-01T11:29:18.999Z</time></trkpt><trkpt lat="44.11707969338176" lon="11.363160533742493"><ele>431.2</ele><time>2026-05-01T11:29:19.999Z</time></trkpt><trkpt lat="44.11705594747407" lon="11.36334991192074"><ele>430.6</ele><time>2026-05-01T11:29:20.999Z</time></trkpt><trkpt lat="44.11706180309383" lon="11.363500686293484"><ele>430.0</ele><time>2026-05-01T11:29:21.999Z</time></trkpt><trkpt lat="44.11704901350431" lon="11.36365533290559"><ele>430.0</ele><time>2026-05-01T11:29:22.999Z</time></trkpt><trkpt lat="44.117048851642174" lon="11.363816779033913"><ele>430.0</ele><time>2026-05-01T11:29:23.999Z</time></trkpt><trkpt lat="44.11704805505379" lon="11.364001313194878"><ele>430.0</ele><time>2026-05-01T11:29:24.999Z</time></trkpt><trkpt lat="44.117046941921735" lon="11.36421667591189"><ele>430.0</ele><time>2026-05-01T11:29:25.999Z</time></trkpt><trkpt lat="44.11706085576451" lon="11.364462536971994"><ele>429.6666666666667</ele><time>2026-05-01T11:29:26.999Z</time></trkpt><trkpt lat="44.11704503760819" lon="11.364713268775409"><ele>429.33333333333337</ele><time>2026-05-01T11:29:27.999Z</time></trkpt><trkpt lat="44.117025877457245" lon="11.364963006608965"><ele>429.0</ele><time>2026-05-01T11:29:28.999Z</time></trkpt><trkpt lat="44.116992274385055" lon="11.365212842730225"><ele>429.0</ele><time>2026-05-01T11:29:29.999Z</time></trkpt><trkpt lat="44.11694323652763" lon="11.365468716563639"><ele>429.0</ele><time>2026-05-01T11:29:30.999Z</time></trkpt><trkpt lat="44.1168801980706" lon="11.365730844901487"><ele>429.0</ele><time>2026-05-01T11:29:31.999Z</time></trkpt><trkpt lat="44.11681253756243" lon="11.365997957720367"><ele>428.66666666666663</ele><time>2026-05-01T11:29:32.999Z</time></trkpt><trkpt lat="44.11674430096655" lon="11.366276229384962"><ele>428.3333333333333</ele><time>2026-05-01T11:29:33.999Z</time></trkpt><trkpt lat="44.116673071009096" lon="11.366559749784988"><ele>428.0</ele><time>2026-05-01T11:29:34.999Z</time></trkpt><trkpt lat="44.11660319455618" lon="11.366846593471383"><ele>427.66666666666663</ele><time>2026-05-01T11:29:35.999Z</time></trkpt><trkpt lat="44.1165413356919" lon="11.367145179352214"><ele>427.33333333333337</ele><time>2026-05-01T11:29:36.999Z</time></trkpt><trkpt lat="44.116494065617054" lon="11.367447495333446"><ele>427.0</ele><time>2026-05-01T11:29:37.999Z</time></trkpt><trkpt lat="44.11646497810082" lon="11.36775237238393"><ele>427.0</ele><time>2026-05-01T11:29:38.999Z</time></trkpt><trkpt lat="44.11645612116395" lon="11.368067622186976"><ele>427.0</ele><time>2026-05-01T11:29:39.999Z</time></trkpt><trkpt lat="44.11646336044427" lon="11.368381159891861"><ele>427.0</ele><time>2026-05-01T11:29:40.999Z</time></trkpt><trkpt lat="44.116491209298836" lon="11.36869465253451"><ele>427.0</ele><time>2026-05-01T11:29:41.999Z</time></trkpt><trkpt lat="44.11653313905445" lon="11.369014755489863"><ele>425.5</ele><time>2026-05-01T11:29:42.999Z</time></trkpt><trkpt lat="44.11657698432841" lon="11.369336095553491"><ele>424.0</ele><time>2026-05-01T11:29:43.999Z</time></trkpt><trkpt lat="44.11662104320754" lon="11.369665748910055"><ele>424.0</ele><time>2026-05-01T11:29:44.999Z</time></trkpt><trkpt lat="44.11666358977818" lon="11.369995870764926"><ele>424.0</ele><time>2026-05-01T11:29:45.999Z</time></trkpt><trkpt lat="44.11670599924836" lon="11.370329299829924"><ele>423.0</ele><time>2026-05-01T11:29:46.999Z</time></trkpt><trkpt lat="44.11674419477727" lon="11.370662289978982"><ele>422.0</ele><time>2026-05-01T11:29:47.999Z</time></trkpt><trkpt lat="44.11678001302313" lon="11.370991561355602"><ele>422.0</ele><time>2026-05-01T11:29:48.999Z</time></trkpt><trkpt lat="44.11681233242276" lon="11.371321219820594"><ele>422.0</ele><time>2026-05-01T11:29:49.999Z</time></trkpt><trkpt lat="44.11683070915992" lon="11.371652367708924"><ele>422.0</ele><time>2026-05-01T11:29:50.999Z</time></trkpt><trkpt lat="44.11681947013655" lon="11.371987000739894"><ele>422.0</ele><time>2026-05-01T11:29:51.999Z</time></trkpt><trkpt lat="44.116778479274394" lon="11.372315231651244"><ele>422.0</ele><time>2026-05-01T11:29:52.999Z</time></trkpt><trkpt lat="44.116728331887025" lon="11.372637150499964"><ele>422.0</ele><time>2026-05-01T11:29:53.999Z</time></trkpt><trkpt lat="44.11668107708896" lon="11.372948672184812"><ele>421.66666666666663</ele><time>2026-05-01T11:29:54.999Z</time></trkpt><trkpt lat="44.1166434584376" lon="11.373252050439195"><ele>421.33333333333337</ele><time>2026-05-01T11:29:55.999Z</time></trkpt><trkpt lat="44.11662101001857" lon="11.373552234532065"><ele>421.0</ele><time>2026-05-01T11:29:56.999Z</time></trkpt><trkpt lat="44.11662099948032" lon="11.373853008896113"><ele>421.0</ele><time>2026-05-01T11:29:57.999Z</time></trkpt><trkpt lat="44.116649934814255" lon="11.374155858772347"><ele>421.0</ele><time>2026-05-01T11:29:58.999Z</time></trkpt><trkpt lat="44.11670427093353" lon="11.374446433948387"><ele>421.0</ele><time>2026-05-01T11:29:59.999Z</time></trkpt><trkpt lat="44.11677563027571" lon="11.374730239382416"><ele>420.6666666666667</ele><time>2026-05-01T11:30:00.999Z</time></trkpt><trkpt lat="44.11686844597744" lon="11.374986118082987"><ele>420.33333333333337</ele><time>2026-05-01T11:30:01.999Z</time></trkpt><trkpt lat="44.1169660075204" lon="11.375188359901648"><ele>420.0</ele><time>2026-05-01T11:30:02.999Z</time></trkpt><trkpt lat="44.11706250235367" lon="11.375339780944087"><ele>420.0</ele><time>2026-05-01T11:30:03.999Z</time></trkpt><trkpt lat="44.11715560424229" lon="11.375477258095543"><ele>420.0</ele><time>2026-05-01T11:30:04.999Z</time></trkpt><trkpt lat="44.11722736197944" lon="11.375610316461767"><ele>420.0</ele><time>2026-05-01T11:30:05.999Z</time></trkpt><trkpt lat="44.11727113228302" lon="11.37574900869647"><ele>420.0</ele><time>2026-05-01T11:30:06.999Z</time></trkpt><trkpt lat="44.11728079840556" lon="11.37589521743132"><ele>420.2</ele><time>2026-05-01T11:30:07.999Z</time></trkpt><trkpt lat="44.11726367402594" lon="11.376033279346842"><ele>420.4</ele><time>2026-05-01T11:30:08.999Z</time></trkpt><trkpt lat="44.11723021325166" lon="11.376174079975701"><ele>420.6</ele><time>2026-05-01T11:30:09.999Z</time></trkpt><trkpt lat="44.11719327518637" lon="11.376322738977326"><ele>420.8</ele><time>2026-05-01T11:30:10.999Z</time></trkpt><trkpt lat="44.11715978777135" lon="11.376476114089824"><ele>421.0</ele><time>2026-05-01T11:30:11.999Z</time></trkpt><trkpt lat="44.117129231100435" lon="11.376637789854481"><ele>421.0</ele><time>2026-05-01T11:30:12.999Z</time></trkpt><trkpt lat="44.11710136201551" lon="11.376800533258397"><ele>421.0</ele><time>2026-05-01T11:30:13.999Z</time></trkpt><trkpt lat="44.11708285539728" lon="11.376967975247883"><ele>421.0</ele><time>2026-05-01T11:30:14.999Z</time></trkpt><trkpt lat="44.11708054209266" lon="11.377137082193604"><ele>421.0</ele><time>2026-05-01T11:30:15.999Z</time></trkpt><trkpt lat="44.11709666711422" lon="11.37730441531401"><ele>421.0</ele><time>2026-05-01T11:30:16.999Z</time></trkpt><trkpt lat="44.11712368438363" lon="11.37746743400239"><ele>421.0</ele><time>2026-05-01T11:30:17.999Z</time></trkpt><trkpt lat="44.11715096055645" lon="11.377626728458647"><ele>421.0</ele><time>2026-05-01T11:30:18.999Z</time></trkpt><trkpt lat="44.11717384271693" lon="11.377787418905807"><ele>421.0</ele><time>2026-05-01T11:30:19.999Z</time></trkpt><trkpt lat="44.1171929767893" lon="11.377946523682674"><ele>421.0</ele><time>2026-05-01T11:30:20.999Z</time></trkpt><trkpt lat="44.11720617720684" lon="11.378100042126917"><ele>421.0</ele><time>2026-05-01T11:30:21.999Z</time></trkpt><trkpt lat="44.117219182997275" lon="11.378252683875578"><ele>421.0</ele><time>2026-05-01T11:30:22.999Z</time></trkpt><trkpt lat="44.11723210958591" lon="11.378400170328767"><ele>421.0</ele><time>2026-05-01T11:30:23.999Z</time></trkpt><trkpt lat="44.11724792965884" lon="11.378543500678443"><ele>421.0</ele><time>2026-05-01T11:30:24.999Z</time></trkpt><trkpt lat="44.117268018402335" lon="11.378685695423817"><ele>421.0</ele><time>2026-05-01T11:30:25.998Z</time></trkpt><trkpt lat="44.11729047282596" lon="11.378824323312156"><ele>421.0</ele><time>2026-05-01T11:30:26.998Z</time></trkpt><trkpt lat="44.11731199221957" lon="11.378959717732737"><ele>421.0</ele><time>2026-05-01T11:30:27.998Z</time></trkpt><trkpt lat="44.11733659981371" lon="11.379095242936083"><ele>421.0</ele><time>2026-05-01T11:30:28.998Z</time></trkpt><trkpt lat="44.11735712736932" lon="11.379222303719686"><ele>421.0</ele><time>2026-05-01T11:30:29.998Z</time></trkpt><trkpt lat="44.11737218713803" lon="11.379339137917441"><ele>420.50000000000006</ele><time>2026-05-01T11:30:30.998Z</time></trkpt><trkpt lat="44.11738049529541" lon="11.37945178297282"><ele>420.0</ele><time>2026-05-01T11:30:31.998Z</time></trkpt><trkpt lat="44.11735735523382" lon="11.379559129850612"><ele>419.5</ele><time>2026-05-01T11:30:32.998Z</time></trkpt><trkpt lat="44.11730129827955" lon="11.37965304550065"><ele>419.0</ele><time>2026-05-01T11:30:33.998Z</time></trkpt><trkpt lat="44.11721965853908" lon="11.379716850454825"><ele>418.50000000000006</ele><time>2026-05-01T11:30:34.999Z</time></trkpt><trkpt lat="44.11711768545627" lon="11.379748336762342"><ele>418.0</ele><time>2026-05-01T11:30:35.999Z</time></trkpt><trkpt lat="44.117013227811796" lon="11.37978163554535"><ele>418.0</ele><time>2026-05-01T11:30:36.999Z</time></trkpt><trkpt lat="44.116899446418955" lon="11.379821857132695"><ele>418.0</ele><time>2026-05-01T11:30:37.999Z</time></trkpt><trkpt lat="44.11677952180915" lon="11.37986600889739"><ele>418.0</ele><time>2026-05-01T11:30:38.999Z</time></trkpt><trkpt lat="44.11666006732014" lon="11.379905541322875"><ele>418.0</ele><time>2026-05-01T11:30:39.999Z</time></trkpt><trkpt lat="44.11653637241447" lon="11.379953672583838"><ele>418.25</ele><time>2026-05-01T11:30:40.999Z</time></trkpt><trkpt lat="44.1164105408328" lon="11.379998295646944"><ele>418.5</ele><time>2026-05-01T11:30:41.999Z</time></trkpt><trkpt lat="44.11628556227984" lon="11.380045667954837"><ele>418.75</ele><time>2026-05-01T11:30:42.999Z</time></trkpt><trkpt lat="44.11615991761126" lon="11.380087308280418"><ele>419.0</ele><time>2026-05-01T11:30:43.999Z</time></trkpt><trkpt lat="44.11603186581305" lon="11.3801297400291"><ele>419.0</ele><time>2026-05-01T11:30:44.999Z</time></trkpt><trkpt lat="44.1159074184464" lon="11.380177585554721"><ele>419.0</ele><time>2026-05-01T11:30:45.999Z</time></trkpt><trkpt lat="44.11578132257129" lon="11.380216185344379"><ele>419.0</ele><time>2026-05-01T11:30:46.999Z</time></trkpt><trkpt lat="44.11565385129732" lon="11.380190352033216"><ele>419.0</ele><time>2026-05-01T11:30:47.999Z</time></trkpt><trkpt lat="44.11553297198017" lon="11.380164452955466"><ele>420.5</ele><time>2026-05-01T11:30:49.001Z</time></trkpt><trkpt lat="44.11540958420888" lon="11.380146937504751"><ele>422.0</ele><time>2026-05-01T11:30:50.001Z</time></trkpt><trkpt lat="44.11528972446282" lon="11.380132325537732"><ele>423.5</ele><time>2026-05-01T11:30:51.001Z</time></trkpt><trkpt lat="44.11516706392299" lon="11.380165783700289"><ele>425.0</ele><time>2026-05-01T11:30:52.001Z</time></trkpt><trkpt lat="44.11504942535806" lon="11.38024423438202"><ele>425.0</ele><time>2026-05-01T11:30:53.001Z</time></trkpt><trkpt lat="44.11493318491085" lon="11.380343833351484"><ele>425.0</ele><time>2026-05-01T11:30:54.001Z</time></trkpt><trkpt lat="44.11482053545366" lon="11.38044475396275"><ele>425.0</ele><time>2026-05-01T11:30:55.001Z</time></trkpt><trkpt lat="44.11470804577795" lon="11.380554235894367"><ele>425.0</ele><time>2026-05-01T11:30:56.001Z</time></trkpt><trkpt lat="44.114595444927026" lon="11.380667168399437"><ele>425.5</ele><time>2026-05-01T11:30:57.001Z</time></trkpt><trkpt lat="44.114479740289305" lon="11.380769621222342"><ele>426.0</ele><time>2026-05-01T11:30:58.001Z</time></trkpt><trkpt lat="44.11435345278511" lon="11.380840855619875"><ele>426.5</ele><time>2026-05-01T11:30:59.001Z</time></trkpt><trkpt lat="44.114222307302526" lon="11.380878367572974"><ele>427.0</ele><time>2026-05-01T11:31:00.001Z</time></trkpt><trkpt lat="44.114091152774904" lon="11.380888046768035"><ele>426.0</ele><time>2026-05-01T11:31:01.001Z</time></trkpt><trkpt lat="44.11395988449735" lon="11.380855623130802"><ele>425.0</ele><time>2026-05-01T11:31:02.001Z</time></trkpt><trkpt lat="44.1138345520354" lon="11.380798614108697"><ele>424.0</ele><time>2026-05-01T11:31:03.001Z</time></trkpt><trkpt lat="44.1137089344565" lon="11.380721544679535"><ele>423.0</ele><time>2026-05-01T11:31:04Z</time></trkpt><trkpt lat="44.113579111644015" lon="11.380639793007974"><ele>423.0</ele><time>2026-05-01T11:31:05Z</time></trkpt><trkpt lat="44.11344483572877" lon="11.380560898209676"><ele>423.0</ele><time>2026-05-01T11:31:06Z</time></trkpt><trkpt lat="44.113304582087515" lon="11.380479229792979"><ele>423.0</ele><time>2026-05-01T11:31:07Z</time></trkpt><trkpt lat="44.11316103461263" lon="11.380399919382464"><ele>424.66666666666663</ele><time>2026-05-01T11:31:08Z</time></trkpt><trkpt lat="44.11301234259098" lon="11.380319808803197"><ele>426.3333333333333</ele><time>2026-05-01T11:31:09Z</time></trkpt><trkpt lat="44.112861255987035" lon="11.38023332254677"><ele>428.0</ele><time>2026-05-01T11:31:10Z</time></trkpt><trkpt lat="44.11270630174424" lon="11.38014222856797"><ele>428.0</ele><time>2026-05-01T11:31:11Z</time></trkpt><trkpt lat="44.11255323427773" lon="11.380051848360944"><ele>428.0</ele><time>2026-05-01T11:31:12Z</time></trkpt><trkpt lat="44.11239431725797" lon="11.379956929508465"><ele>428.0</ele><time>2026-05-01T11:31:13Z</time></trkpt><trkpt lat="44.1122296937177" lon="11.379865859526305"><ele>427.3333333333333</ele><time>2026-05-01T11:31:14Z</time></trkpt><trkpt lat="44.11206362342418" lon="11.379779755833347"><ele>426.66666666666663</ele><time>2026-05-01T11:31:15Z</time></trkpt><trkpt lat="44.11189938369936" lon="11.37969395299889"><ele>426.0</ele><time>2026-05-01T11:31:16Z</time></trkpt><trkpt lat="44.11173569332868" lon="11.379620351684078"><ele>428.66666666666663</ele><time>2026-05-01T11:31:17Z</time></trkpt><trkpt lat="44.11156826574954" lon="11.379592585931004"><ele>431.3333333333333</ele><time>2026-05-01T11:31:18Z</time></trkpt><trkpt lat="44.11138944937438" lon="11.379614142737214"><ele>434.0</ele><time>2026-05-01T11:31:19Z</time></trkpt><trkpt lat="44.11121014096993" lon="11.379667244400077"><ele>433.3333333333333</ele><time>2026-05-01T11:31:20Z</time></trkpt><trkpt lat="44.11103159754322" lon="11.379727353615653"><ele>432.66666666666663</ele><time>2026-05-01T11:31:21Z</time></trkpt><trkpt lat="44.110855071736374" lon="11.379788002558104"><ele>432.0</ele><time>2026-05-01T11:31:22Z</time></trkpt><trkpt lat="44.110678745066835" lon="11.379846426875314"><ele>432.0</ele><time>2026-05-01T11:31:23Z</time></trkpt><trkpt lat="44.1105027437342" lon="11.379905998161695"><ele>432.0</ele><time>2026-05-01T11:31:24Z</time></trkpt><trkpt lat="44.11032901320017" lon="11.379965634936568"><ele>432.0</ele><time>2026-05-01T11:31:25Z</time></trkpt><trkpt lat="44.110155248703286" lon="11.380024258039539"><ele>432.0</ele><time>2026-05-01T11:31:26Z</time></trkpt><trkpt lat="44.10998493565525" lon="11.380066960811522"><ele>432.0</ele><time>2026-05-01T11:31:27Z</time></trkpt><trkpt lat="44.10981602544597" lon="11.380075705880401"><ele>432.0</ele><time>2026-05-01T11:31:28Z</time></trkpt><trkpt lat="44.109643191741355" lon="11.380044117001725"><ele>431.0</ele><time>2026-05-01T11:31:29Z</time></trkpt><trkpt lat="44.109472893628286" lon="11.37997449970582"><ele>430.0</ele><time>2026-05-01T11:31:30Z</time></trkpt><trkpt lat="44.10930186150449" lon="11.379882426635405"><ele>429.0</ele><time>2026-05-01T11:31:31Z</time></trkpt><trkpt lat="44.10911528329891" lon="11.37978574877481"><ele>428.33333333333337</ele><time>2026-05-01T11:31:32Z</time></trkpt><trkpt lat="44.10896322660583" lon="11.379726104683396"><ele>427.6666666666667</ele><time>2026-05-01T11:31:33Z</time></trkpt><trkpt lat="44.10878601088235" lon="11.379642231438337"><ele>427.0</ele><time>2026-05-01T11:31:34Z</time></trkpt><trkpt lat="44.10860777741094" lon="11.379552763055614"><ele>428.0</ele><time>2026-05-01T11:31:35Z</time></trkpt><trkpt lat="44.10842719221777" lon="11.379463835311185"><ele>429.0</ele><time>2026-05-01T11:31:36Z</time></trkpt><trkpt lat="44.10824088195415" lon="11.379378441162478"><ele>430.0</ele><time>2026-05-01T11:31:37Z</time></trkpt><trkpt lat="44.10805142761242" lon="11.379294573287494"><ele>430.0</ele><time>2026-05-01T11:31:38Z</time></trkpt><trkpt lat="44.10786878771334" lon="11.379202665461401"><ele>430.0</ele><time>2026-05-01T11:31:39Z</time></trkpt><trkpt lat="44.10768751653745" lon="11.379112227863075"><ele>430.0</ele><time>2026-05-01T11:31:40Z</time></trkpt><trkpt lat="44.10750853758739" lon="11.3790164941901"><ele>429.6666666666667</ele><time>2026-05-01T11:31:41Z</time></trkpt><trkpt lat="44.10733017187433" lon="11.378931991432832"><ele>429.33333333333337</ele><time>2026-05-01T11:31:42Z</time></trkpt><trkpt lat="44.10715035419805" lon="11.378850337326757"><ele>429.0</ele><time>2026-05-01T11:31:43Z</time></trkpt><trkpt lat="44.10697337964696" lon="11.378768785411618"><ele>431.0</ele><time>2026-05-01T11:31:44Z</time></trkpt><trkpt lat="44.10679613874086" lon="11.378697475862019"><ele>433.0</ele><time>2026-05-01T11:31:45Z</time></trkpt><trkpt lat="44.10662085932753" lon="11.37863328095193"><ele>435.0</ele><time>2026-05-01T11:31:46Z</time></trkpt><trkpt lat="44.10644111577017" lon="11.37857831699689"><ele>435.0</ele><time>2026-05-01T11:31:47Z</time></trkpt><trkpt lat="44.10626243098129" lon="11.378537089264295"><ele>435.0</ele><time>2026-05-01T11:31:48Z</time></trkpt><trkpt lat="44.106080331911656" lon="11.378496883912014"><ele>435.0</ele><time>2026-05-01T11:31:49Z</time></trkpt><trkpt lat="44.105897914815095" lon="11.378467445376439"><ele>436.0</ele><time>2026-05-01T11:31:50Z</time></trkpt><trkpt lat="44.10571415343599" lon="11.378440210077581"><ele>437.0</ele><time>2026-05-01T11:31:51Z</time></trkpt><trkpt lat="44.10553151719202" lon="11.378409129936884"><ele>438.0</ele><time>2026-05-01T11:31:52Z</time></trkpt><trkpt lat="44.10534406193154" lon="11.378377199500038"><ele>438.0</ele><time>2026-05-01T11:31:53Z</time></trkpt><trkpt lat="44.10515482542715" lon="11.378358798656928"><ele>438.0</ele><time>2026-05-01T11:31:54Z</time></trkpt><trkpt lat="44.104963780354005" lon="11.378331398951772"><ele>438.0</ele><time>2026-05-01T11:31:55Z</time></trkpt><trkpt lat="44.10478115438774" lon="11.378306983301412"><ele>438.33333333333337</ele><time>2026-05-01T11:31:56Z</time></trkpt><trkpt lat="44.10459478392918" lon="11.378286116934394"><ele>438.6666666666667</ele><time>2026-05-01T11:31:57Z</time></trkpt><trkpt lat="44.10440932281942" lon="11.378260757220017"><ele>439.0</ele><time>2026-05-01T11:31:58Z</time></trkpt><trkpt lat="44.104224811959156" lon="11.378231510473443"><ele>439.0</ele><time>2026-05-01T11:31:59Z</time></trkpt><trkpt lat="44.10403968592029" lon="11.378203990692663"><ele>439.0</ele><time>2026-05-01T11:32:00Z</time></trkpt><trkpt lat="44.10385509642197" lon="11.378172217105893"><ele>439.0</ele><time>2026-05-01T11:32:01Z</time></trkpt><trkpt lat="44.10366966131485" lon="11.37814427552525"><ele>439.0</ele><time>2026-05-01T11:32:02Z</time></trkpt><trkpt lat="44.10348910767614" lon="11.378111850500511"><ele>439.0</ele><time>2026-05-01T11:32:03Z</time></trkpt><trkpt lat="44.103306163715644" lon="11.378086398015947"><ele>439.0</ele><time>2026-05-01T11:32:04Z</time></trkpt><trkpt lat="44.10311727438786" lon="11.378066968770458"><ele>439.33333333333337</ele><time>2026-05-01T11:32:05Z</time></trkpt><trkpt lat="44.1029375155483" lon="11.378042519036276"><ele>439.66666666666663</ele><time>2026-05-01T11:32:06Z</time></trkpt><trkpt lat="44.10274989476073" lon="11.378039727299672"><ele>440.0</ele><time>2026-05-01T11:32:07Z</time></trkpt><trkpt lat="44.10255662173842" lon="11.378062655010497"><ele>440.3333333333333</ele><time>2026-05-01T11:32:08Z</time></trkpt><trkpt lat="44.10236814462394" lon="11.378104671136946"><ele>440.66666666666663</ele><time>2026-05-01T11:32:09Z</time></trkpt><trkpt lat="44.102181945199085" lon="11.37816598506209"><ele>441.0</ele><time>2026-05-01T11:32:10Z</time></trkpt><trkpt lat="44.1019947049965" lon="11.378258363842079"><ele>441.0</ele><time>2026-05-01T11:32:11Z</time></trkpt><trkpt lat="44.10180927326092" lon="11.37836081581762"><ele>441.0</ele><time>2026-05-01T11:32:12Z</time></trkpt><trkpt lat="44.101632432769186" lon="11.378493165357385"><ele>441.0</ele><time>2026-05-01T11:32:13Z</time></trkpt><trkpt lat="44.101457761041104" lon="11.378624088915332"><ele>441.66666666666663</ele><time>2026-05-01T11:32:14Z</time></trkpt><trkpt lat="44.10128162855449" lon="11.378751766785632"><ele>442.3333333333333</ele><time>2026-05-01T11:32:15Z</time></trkpt><trkpt lat="44.101098766367365" lon="11.37886071054075"><ele>443.0</ele><time>2026-05-01T11:32:16Z</time></trkpt><trkpt lat="44.100925490509916" lon="11.3789999987284"><ele>443.0</ele><time>2026-05-01T11:32:17Z</time></trkpt><trkpt lat="44.10075012620097" lon="11.379126389535768"><ele>443.0</ele><time>2026-05-01T11:32:18Z</time></trkpt><trkpt lat="44.100570804040395" lon="11.37924671460846"><ele>443.0</ele><time>2026-05-01T11:32:19Z</time></trkpt><trkpt lat="44.10039304399921" lon="11.379376748488019"><ele>444.3333333333333</ele><time>2026-05-01T11:32:20Z</time></trkpt><trkpt lat="44.10021313918238" lon="11.379506024278152"><ele>445.66666666666663</ele><time>2026-05-01T11:32:21Z</time></trkpt><trkpt lat="44.10003984824504" lon="11.379624217366509"><ele>447.0</ele><time>2026-05-01T11:32:22Z</time></trkpt><trkpt lat="44.09986157933609" lon="11.379742308977182"><ele>447.0</ele><time>2026-05-01T11:32:23Z</time></trkpt><trkpt lat="44.09968570392747" lon="11.37985952588674"><ele>447.0</ele><time>2026-05-01T11:32:24Z</time></trkpt><trkpt lat="44.09950099322401" lon="11.379963968276508"><ele>447.0</ele><time>2026-05-01T11:32:25Z</time></trkpt><trkpt lat="44.09932511025285" lon="11.380079642787901"><ele>447.0</ele><time>2026-05-01T11:32:26Z</time></trkpt><trkpt lat="44.0991540553882" lon="11.380215092534582"><ele>447.0</ele><time>2026-05-01T11:32:27Z</time></trkpt><trkpt lat="44.09897393998154" lon="11.380317048777242"><ele>447.0</ele><time>2026-05-01T11:32:28Z</time></trkpt><trkpt lat="44.098791777597505" lon="11.38042120733172"><ele>447.66666666666663</ele><time>2026-05-01T11:32:29Z</time></trkpt><trkpt lat="44.098615160850954" lon="11.38051996946912"><ele>448.3333333333333</ele><time>2026-05-01T11:32:29.999Z</time></trkpt><trkpt lat="44.0984421022987" lon="11.380622789824711"><ele>449.0</ele><time>2026-05-01T11:32:30.999Z</time></trkpt><trkpt lat="44.0982709136071" lon="11.380726740732063"><ele>451.66666666666663</ele><time>2026-05-01T11:32:31.999Z</time></trkpt><trkpt lat="44.09810067347577" lon="11.380820136781448"><ele>454.33333333333337</ele><time>2026-05-01T11:32:32.999Z</time></trkpt><trkpt lat="44.097913411757276" lon="11.380843696776708"><ele>457.0</ele><time>2026-05-01T11:32:33.999Z</time></trkpt><trkpt lat="44.097729293166104" lon="11.3808440244572"><ele>457.0</ele><time>2026-05-01T11:32:34.999Z</time></trkpt><trkpt lat="44.09754049165429" lon="11.38081609088853"><ele>457.0</ele><time>2026-05-01T11:32:35.999Z</time></trkpt><trkpt lat="44.09734065786227" lon="11.38079762400636"><ele>457.0</ele><time>2026-05-01T11:32:36.999Z</time></trkpt><trkpt lat="44.09714930975053" lon="11.380752070209127"><ele>460.33333333333337</ele><time>2026-05-01T11:32:37.999Z</time></trkpt><trkpt lat="44.09696259998567" lon="11.38077091906344"><ele>463.66666666666663</ele><time>2026-05-01T11:32:38.999Z</time></trkpt><trkpt lat="44.09678295552729" lon="11.380858488422405"><ele>467.0</ele><time>2026-05-01T11:32:39.999Z</time></trkpt><trkpt lat="44.09660987176148" lon="11.381000932406732"><ele>469.66666666666663</ele><time>2026-05-01T11:32:40.999Z</time></trkpt><trkpt lat="44.09643791971586" lon="11.381138590056702"><ele>472.33333333333337</ele><time>2026-05-01T11:32:41.999Z</time></trkpt><trkpt lat="44.09626035515415" lon="11.381258362587694"><ele>475.0</ele><time>2026-05-01T11:32:42.999Z</time></trkpt><trkpt lat="44.096083935406085" lon="11.381374838983277"><ele>475.0</ele><time>2026-05-01T11:32:43.999Z</time></trkpt><trkpt lat="44.09591587528389" lon="11.381498276014883"><ele>475.0</ele><time>2026-05-01T11:32:44.999Z</time></trkpt><trkpt lat="44.09577501658051" lon="11.381669368937253"><ele>475.0</ele><time>2026-05-01T11:32:45.999Z</time></trkpt><trkpt lat="44.09567360459185" lon="11.381880715853695"><ele>476.33333333333337</ele><time>2026-05-01T11:32:46.999Z</time></trkpt><trkpt lat="44.09561185240625" lon="11.382104327743717"><ele>477.66666666666663</ele><time>2026-05-01T11:32:47.999Z</time></trkpt><trkpt lat="44.095573931875656" lon="11.382305813450126"><ele>479.0</ele><time>2026-05-01T11:32:48.999Z</time></trkpt><trkpt lat="44.09548817135787" lon="11.382444028428239"><ele>479.0</ele><time>2026-05-01T11:32:49.999Z</time></trkpt><trkpt lat="44.09537063958333" lon="11.382518511211721"><ele>479.0</ele><time>2026-05-01T11:32:50.999Z</time></trkpt><trkpt lat="44.09523659478223" lon="11.382514349113624"><ele>479.0</ele><time>2026-05-01T11:32:51.999Z</time></trkpt><trkpt lat="44.095104807714236" lon="11.382480036670326"><ele>479.0</ele><time>2026-05-01T11:32:52.999Z</time></trkpt><trkpt lat="44.09496010041242" lon="11.382447681545402"><ele>481.3333333333333</ele><time>2026-05-01T11:32:54Z</time></trkpt><trkpt lat="44.09481406394951" lon="11.382367206901181"><ele>483.66666666666663</ele><time>2026-05-01T11:32:55Z</time></trkpt><trkpt lat="44.094666984145796" lon="11.382269635088196"><ele>486.0</ele><time>2026-05-01T11:32:56Z</time></trkpt><trkpt lat="44.09452641538098" lon="11.382153600025955"><ele>489.0</ele><time>2026-05-01T11:32:57Z</time></trkpt><trkpt lat="44.094407871640016" lon="11.38202620877326"><ele>492.0</ele><time>2026-05-01T11:32:58Z</time></trkpt><trkpt lat="44.09429484960306" lon="11.38193226645836"><ele>495.0</ele><time>2026-05-01T11:32:59Z</time></trkpt><trkpt lat="44.094170421243774" lon="11.38190828834394"><ele>498.0</ele><time>2026-05-01T11:33:00Z</time></trkpt><trkpt lat="44.09404491940233" lon="11.381977138147722"><ele>499.5</ele><time>2026-05-01T11:33:01Z</time></trkpt><trkpt lat="44.09394776544638" lon="11.382134473205333"><ele>501.0</ele><time>2026-05-01T11:33:02Z</time></trkpt><trkpt lat="44.09387274502698" lon="11.382310536645114"><ele>502.5</ele><time>2026-05-01T11:33:03Z</time></trkpt><trkpt lat="44.09380616551918" lon="11.382494439404606"><ele>504.0</ele><time>2026-05-01T11:33:04Z</time></trkpt><trkpt lat="44.093745871198855" lon="11.382684353111724"><ele>504.0</ele><time>2026-05-01T11:33:05Z</time></trkpt><trkpt lat="44.09365169970081" lon="11.382844252535236"><ele>504.0</ele><time>2026-05-01T11:33:06Z</time></trkpt><trkpt lat="44.09354822403049" lon="11.382988476588933"><ele>504.0</ele><time>2026-05-01T11:33:07Z</time></trkpt><trkpt lat="44.09341143764757" lon="11.383110385501563"><ele>502.0</ele><time>2026-05-01T11:33:08Z</time></trkpt><trkpt lat="44.09326076582479" lon="11.383220560835115"><ele>500.0</ele><time>2026-05-01T11:33:09Z</time></trkpt><trkpt lat="44.09312047756401" lon="11.383310368845715"><ele>498.0</ele><time>2026-05-01T11:33:10Z</time></trkpt><trkpt lat="44.09300231380065" lon="11.383385028942008"><ele>498.0</ele><time>2026-05-01T11:33:11Z</time></trkpt><trkpt lat="44.09288231270189" lon="11.383372243714906"><ele>498.0</ele><time>2026-05-01T11:33:12Z</time></trkpt><trkpt lat="44.09277295525732" lon="11.383279563915517"><ele>498.0</ele><time>2026-05-01T11:33:13Z</time></trkpt><trkpt lat="44.092723809741756" lon="11.383084031523598"><ele>498.0</ele><time>2026-05-01T11:33:14Z</time></trkpt><trkpt lat="44.09263458430893" lon="11.382911236865713"><ele>499.25</ele><time>2026-05-01T11:33:15Z</time></trkpt><trkpt lat="44.09251438413177" lon="11.38280114518449"><ele>500.5</ele><time>2026-05-01T11:33:16Z</time></trkpt><trkpt lat="44.092367941337685" lon="11.382793347748773"><ele>501.75</ele><time>2026-05-01T11:33:17Z</time></trkpt><trkpt lat="44.09222322031727" lon="11.382842771222213"><ele>503.0</ele><time>2026-05-01T11:33:18Z</time></trkpt><trkpt lat="44.092107445082384" lon="11.382802141767009"><ele>503.0</ele><time>2026-05-01T11:33:19Z</time></trkpt><trkpt lat="44.09202485422475" lon="11.38266199607219"><ele>503.0</ele><time>2026-05-01T11:33:20Z</time></trkpt><trkpt lat="44.09203823991461" lon="11.382443664778016"><ele>503.0</ele><time>2026-05-01T11:33:21Z</time></trkpt><trkpt lat="44.09205885130786" lon="11.382250530842754"><ele>503.0</ele><time>2026-05-01T11:33:22Z</time></trkpt><trkpt lat="44.09207931079039" lon="11.382061131027758"><ele>505.66666666666663</ele><time>2026-05-01T11:33:23Z</time></trkpt><trkpt lat="44.092012057156055" lon="11.381878421723407"><ele>508.33333333333337</ele><time>2026-05-01T11:33:24Z</time></trkpt><trkpt lat="44.09187704647731" lon="11.381750895092376"><ele>511.0</ele><time>2026-05-01T11:33:25Z</time></trkpt><trkpt lat="44.09170512336379" lon="11.381657600680596"><ele>509.33333333333337</ele><time>2026-05-01T11:33:26Z</time></trkpt><trkpt lat="44.09150536719414" lon="11.381612120029422"><ele>507.66666666666663</ele><time>2026-05-01T11:33:27Z</time></trkpt><trkpt lat="44.0913064303013" lon="11.381595780390374"><ele>506.0</ele><time>2026-05-01T11:33:28Z</time></trkpt><trkpt lat="44.091139669309214" lon="11.381498393089135"><ele>507.3333333333333</ele><time>2026-05-01T11:33:29Z</time></trkpt><trkpt lat="44.09099068510748" lon="11.38134218455662"><ele>508.66666666666663</ele><time>2026-05-01T11:33:30Z</time></trkpt><trkpt lat="44.0908442440565" lon="11.381119027287864"><ele>510.0</ele><time>2026-05-01T11:33:31Z</time></trkpt><trkpt lat="44.0906843925744" lon="11.380880634828006"><ele>510.0</ele><time>2026-05-01T11:33:32Z</time></trkpt><trkpt lat="44.09054038403037" lon="11.380622581408996"><ele>510.0</ele><time>2026-05-01T11:33:33Z</time></trkpt><trkpt lat="44.09042091740094" lon="11.380368618325296"><ele>513.3333333333334</ele><time>2026-05-01T11:33:34Z</time></trkpt><trkpt lat="44.090319583574804" lon="11.38014753788295"><ele>516.6666666666667</ele><time>2026-05-01T11:33:35Z</time></trkpt><trkpt lat="44.090257835023124" lon="11.379919009573804"><ele>520.0</ele><time>2026-05-01T11:33:36Z</time></trkpt><trkpt lat="44.09019784814291" lon="11.379722129765677"><ele>523.0</ele><time>2026-05-01T11:33:37Z</time></trkpt><trkpt lat="44.09008641067698" lon="11.379584361724099"><ele>526.0</ele><time>2026-05-01T11:33:38Z</time></trkpt><trkpt lat="44.089916766568834" lon="11.37950006518686"><ele>529.0</ele><time>2026-05-01T11:33:39Z</time></trkpt><trkpt lat="44.089718369323236" lon="11.379456552284529"><ele>529.0</ele><time>2026-05-01T11:33:40Z</time></trkpt><trkpt lat="44.08957004100858" lon="11.379374580822763"><ele>529.0</ele><time>2026-05-01T11:33:41Z</time></trkpt><trkpt lat="44.089460336727996" lon="11.379236845696152"><ele>529.0</ele><time>2026-05-01T11:33:42Z</time></trkpt><trkpt lat="44.089359819849435" lon="11.379035125507986"><ele>531.3333333333334</ele><time>2026-05-01T11:33:43Z</time></trkpt><trkpt lat="44.08924948172106" lon="11.37882127796215"><ele>533.6666666666666</ele><time>2026-05-01T11:33:44Z</time></trkpt><trkpt lat="44.089147930846636" lon="11.378648057129695"><ele>536.0</ele><time>2026-05-01T11:33:45Z</time></trkpt><trkpt lat="44.089026435791574" lon="11.378575665581938"><ele>538.0</ele><time>2026-05-01T11:33:46Z</time></trkpt><trkpt lat="44.08888855475689" lon="11.378584461722724"><ele>540.0</ele><time>2026-05-01T11:33:47Z</time></trkpt><trkpt lat="44.08872724057644" lon="11.378667122462048"><ele>542.0</ele><time>2026-05-01T11:33:48Z</time></trkpt><trkpt lat="44.08855295044372" lon="11.378768023697896"><ele>542.0</ele><time>2026-05-01T11:33:49Z</time></trkpt><trkpt lat="44.088338102038065" lon="11.378846156386842"><ele>542.0</ele><time>2026-05-01T11:33:50Z</time></trkpt><trkpt lat="44.08812695261438" lon="11.378926990172841"><ele>542.0</ele><time>2026-05-01T11:33:51Z</time></trkpt><trkpt lat="44.087931934058155" lon="11.378944529495179"><ele>542.3333333333333</ele><time>2026-05-01T11:33:52Z</time></trkpt><trkpt lat="44.08776001399986" lon="11.378880989902274"><ele>542.6666666666666</ele><time>2026-05-01T11:33:53Z</time></trkpt><trkpt lat="44.08757577965128" lon="11.378769072117482"><ele>543.0</ele><time>2026-05-01T11:33:54Z</time></trkpt><trkpt lat="44.08738832585397" lon="11.378648720356821"><ele>545.0</ele><time>2026-05-01T11:33:55Z</time></trkpt><trkpt lat="44.08720186543309" lon="11.37855682553269"><ele>547.0</ele><time>2026-05-01T11:33:56Z</time></trkpt><trkpt lat="44.08702541709262" lon="11.378446992355599"><ele>549.0</ele><time>2026-05-01T11:33:57Z</time></trkpt><trkpt lat="44.08685710090397" lon="11.37835170158583"><ele>549.0</ele><time>2026-05-01T11:33:58Z</time></trkpt><trkpt lat="44.08668896556575" lon="11.378288805304102"><ele>549.0</ele><time>2026-05-01T11:33:59Z</time></trkpt><trkpt lat="44.08651984656606" lon="11.37827810658775"><ele>549.0</ele><time>2026-05-01T11:34:00Z</time></trkpt><trkpt lat="44.086348228651886" lon="11.37830286390011"><ele>550.3333333333334</ele><time>2026-05-01T11:34:01Z</time></trkpt><trkpt lat="44.08617600159722" lon="11.378358389213197"><ele>551.6666666666667</ele><time>2026-05-01T11:34:02Z</time></trkpt><trkpt lat="44.08600616014627" lon="11.378426338466467"><ele>553.0</ele><time>2026-05-01T11:34:03Z</time></trkpt><trkpt lat="44.085836691642044" lon="11.37849858756161"><ele>556.3333333333334</ele><time>2026-05-01T11:34:04Z</time></trkpt><trkpt lat="44.08566744233279" lon="11.37856180006693"><ele>559.6666666666666</ele><time>2026-05-01T11:34:05Z</time></trkpt><trkpt lat="44.0854954524572" lon="11.378621414731182"><ele>563.0</ele><time>2026-05-01T11:34:06Z</time></trkpt><trkpt lat="44.08532259768727" lon="11.378684250920221"><ele>563.0</ele><time>2026-05-01T11:34:07Z</time></trkpt><trkpt lat="44.08516123228907" lon="11.378767173554971"><ele>563.0</ele><time>2026-05-01T11:34:08Z</time></trkpt><trkpt lat="44.085013266999404" lon="11.37889195497488"><ele>563.0</ele><time>2026-05-01T11:34:09Z</time></trkpt><trkpt lat="44.08488850228066" lon="11.379071492528132"><ele>565.3333333333333</ele><time>2026-05-01T11:34:10Z</time></trkpt><trkpt lat="44.08477807582081" lon="11.379277753501954"><ele>567.6666666666666</ele><time>2026-05-01T11:34:11Z</time></trkpt><trkpt lat="44.08465725606682" lon="11.379475344407803"><ele>570.0</ele><time>2026-05-01T11:34:12Z</time></trkpt><trkpt lat="44.08454511208734" lon="11.379666745748766"><ele>568.3333333333334</ele><time>2026-05-01T11:34:13Z</time></trkpt><trkpt lat="44.08443726106561" lon="11.379837786699081"><ele>566.6666666666667</ele><time>2026-05-01T11:34:14Z</time></trkpt><trkpt lat="44.08432567206002" lon="11.379975257382318"><ele>565.0</ele><time>2026-05-01T11:34:15Z</time></trkpt><trkpt lat="44.08420389250052" lon="11.380074106876894"><ele>566.5</ele><time>2026-05-01T11:34:16Z</time></trkpt><trkpt lat="44.08408778201597" lon="11.38015952702986"><ele>568.0</ele><time>2026-05-01T11:34:17Z</time></trkpt><trkpt lat="44.083956925415066" lon="11.380152145198767"><ele>569.5</ele><time>2026-05-01T11:34:18Z</time></trkpt><trkpt lat="44.08383741363108" lon="11.380037514784144"><ele>571.0</ele><time>2026-05-01T11:34:19Z</time></trkpt><trkpt lat="44.08370803194095" lon="11.379934221525595"><ele>571.0</ele><time>2026-05-01T11:34:20Z</time></trkpt><trkpt lat="44.083587148824826" lon="11.379799994625783"><ele>571.0</ele><time>2026-05-01T11:34:21Z</time></trkpt><trkpt lat="44.08345723482741" lon="11.379681451515863"><ele>571.0</ele><time>2026-05-01T11:34:22Z</time></trkpt><trkpt lat="44.08331967049287" lon="11.379588904581304"><ele>576.3333333333334</ele><time>2026-05-01T11:34:23Z</time></trkpt><trkpt lat="44.083174195606496" lon="11.379536651296414"><ele>581.6666666666666</ele><time>2026-05-01T11:34:24Z</time></trkpt><trkpt lat="44.083024845806385" lon="11.37953013280934"><ele>587.0</ele><time>2026-05-01T11:34:25Z</time></trkpt><trkpt lat="44.08288129689803" lon="11.379602115617145"><ele>585.6666666666666</ele><time>2026-05-01T11:34:26Z</time></trkpt><trkpt lat="44.08274600799625" lon="11.379715017986076"><ele>584.3333333333334</ele><time>2026-05-01T11:34:27Z</time></trkpt><trkpt lat="44.08262214494513" lon="11.379853817590082"><ele>583.0</ele><time>2026-05-01T11:34:28Z</time></trkpt><trkpt lat="44.082511009063374" lon="11.380017413989933"><ele>588.3333333333334</ele><time>2026-05-01T11:34:29Z</time></trkpt><trkpt lat="44.082423471781" lon="11.380206114118241"><ele>593.6666666666666</ele><time>2026-05-01T11:34:29.999Z</time></trkpt><trkpt lat="44.082307450710495" lon="11.380371361077382"><ele>599.0</ele><time>2026-05-01T11:34:30.999Z</time></trkpt><trkpt lat="44.08232196928891" lon="11.380640418655805"><ele>599.0</ele><time>2026-05-01T11:34:31.999Z</time></trkpt><trkpt lat="44.08229577458278" lon="11.380872007535382"><ele>599.0</ele><time>2026-05-01T11:34:32.999Z</time></trkpt><trkpt lat="44.08226932067397" lon="11.38111125092837"><ele>599.0</ele><time>2026-05-01T11:34:33.999Z</time></trkpt><trkpt lat="44.08223603741347" lon="11.381342195260386"><ele>599.0</ele><time>2026-05-01T11:34:34.999Z</time></trkpt><trkpt lat="44.082209149738404" lon="11.381567331255756"><ele>599.0</ele><time>2026-05-01T11:34:35.999Z</time></trkpt><trkpt lat="44.082221370421955" lon="11.381791300586507"><ele>599.0</ele><time>2026-05-01T11:34:36.999Z</time></trkpt><trkpt lat="44.082296228709524" lon="11.381999523860713"><ele>599.0</ele><time>2026-05-01T11:34:37.999Z</time></trkpt><trkpt lat="44.08241573386455" lon="11.38217267501447"><ele>599.0</ele><time>2026-05-01T11:34:38.999Z</time></trkpt><trkpt lat="44.08255522973593" lon="11.382321276187886"><ele>599.0</ele><time>2026-05-01T11:34:39.999Z</time></trkpt><trkpt lat="44.08267870135419" lon="11.382480101493877"><ele>598.0</ele><time>2026-05-01T11:34:40.999Z</time></trkpt><trkpt lat="44.08276280054039" lon="11.38267258791786"><ele>597.0</ele><time>2026-05-01T11:34:41.999Z</time></trkpt><trkpt lat="44.08280237577092" lon="11.382896083805521"><ele>596.0</ele><time>2026-05-01T11:34:42.999Z</time></trkpt><trkpt lat="44.08275503217513" lon="11.383125824388797"><ele>596.0</ele><time>2026-05-01T11:34:43.999Z</time></trkpt><trkpt lat="44.08270518673996" lon="11.38334146897765"><ele>596.0</ele><time>2026-05-01T11:34:44.999Z</time></trkpt><trkpt lat="44.08263136934615" lon="11.383524457686171"><ele>596.0</ele><time>2026-05-01T11:34:45.999Z</time></trkpt><trkpt lat="44.08252174002644" lon="11.383632080354458"><ele>596.0</ele><time>2026-05-01T11:34:46.999Z</time></trkpt><trkpt lat="44.0823904165664" lon="11.383676741174016"><ele>598.6666666666666</ele><time>2026-05-01T11:34:47.999Z</time></trkpt><trkpt lat="44.082243340012994" lon="11.383654225351306"><ele>601.3333333333334</ele><time>2026-05-01T11:34:48.999Z</time></trkpt><trkpt lat="44.08211734341584" lon="11.383548136345102"><ele>604.0</ele><time>2026-05-01T11:34:49.999Z</time></trkpt><trkpt lat="44.082009373168155" lon="11.383389869246535"><ele>604.0</ele><time>2026-05-01T11:34:50.999Z</time></trkpt><trkpt lat="44.08190710814596" lon="11.38323354455326"><ele>604.0</ele><time>2026-05-01T11:34:51.999Z</time></trkpt><trkpt lat="44.081792662305254" lon="11.38317996599907"><ele>604.0</ele><time>2026-05-01T11:34:52.999Z</time></trkpt><trkpt lat="44.08166159313275" lon="11.383216564408423"><ele>604.0</ele><time>2026-05-01T11:34:53.999Z</time></trkpt><trkpt lat="44.08153681026271" lon="11.38332070948716"><ele>605.3333333333334</ele><time>2026-05-01T11:34:54.999Z</time></trkpt><trkpt lat="44.081392279361175" lon="11.38345725551796"><ele>606.6666666666666</ele><time>2026-05-01T11:34:55.999Z</time></trkpt><trkpt lat="44.081229700594186" lon="11.38352112309441"><ele>608.0</ele><time>2026-05-01T11:34:56.999Z</time></trkpt><trkpt lat="44.08107429069603" lon="11.383572727265378"><ele>608.0</ele><time>2026-05-01T11:34:57.999Z</time></trkpt><trkpt lat="44.08093486486364" lon="11.38357851493273"><ele>608.0</ele><time>2026-05-01T11:34:58.999Z</time></trkpt><trkpt lat="44.080809667792316" lon="11.383473660386386"><ele>608.0</ele><time>2026-05-01T11:35:00Z</time></trkpt><trkpt lat="44.08072021755574" lon="11.383310078555299"><ele>608.0</ele><time>2026-05-01T11:35:01Z</time></trkpt><trkpt lat="44.08065796764623" lon="11.383091962092973"><ele>611.6666666666666</ele><time>2026-05-01T11:35:02Z</time></trkpt><trkpt lat="44.08063653878792" lon="11.382864848242518"><ele>615.3333333333334</ele><time>2026-05-01T11:35:03Z</time></trkpt><trkpt lat="44.08066527489975" lon="11.382645510322996"><ele>619.0</ele><time>2026-05-01T11:35:04Z</time></trkpt><trkpt lat="44.08075760064175" lon="11.382446624523817"><ele>619.6666666666667</ele><time>2026-05-01T11:35:05Z</time></trkpt><trkpt lat="44.080851475948144" lon="11.382226575047891"><ele>620.3333333333334</ele><time>2026-05-01T11:35:06Z</time></trkpt><trkpt lat="44.080909220934146" lon="11.381971644856218"><ele>621.0</ele><time>2026-05-01T11:35:07Z</time></trkpt><trkpt lat="44.08094374931454" lon="11.381699660755938"><ele>621.0</ele><time>2026-05-01T11:35:08Z</time></trkpt><trkpt lat="44.080954678056465" lon="11.381422570467496"><ele>621.0</ele><time>2026-05-01T11:35:09Z</time></trkpt><trkpt lat="44.08093443265835" lon="11.381157217562862"><ele>621.0</ele><time>2026-05-01T11:35:10Z</time></trkpt><trkpt lat="44.08086838352317" lon="11.380918670853559"><ele>626.3333333333334</ele><time>2026-05-01T11:35:11Z</time></trkpt><trkpt lat="44.08073538476724" lon="11.380731538120369"><ele>631.6666666666667</ele><time>2026-05-01T11:35:12Z</time></trkpt><trkpt lat="44.08059524195751" lon="11.380541670707256"><ele>637.0</ele><time>2026-05-01T11:35:13Z</time></trkpt><trkpt lat="44.08043891273465" lon="11.380307915111496"><ele>637.75</ele><time>2026-05-01T11:35:14Z</time></trkpt><trkpt lat="44.08030804747508" lon="11.380132713167576"><ele>638.5</ele><time>2026-05-01T11:35:15Z</time></trkpt><trkpt lat="44.0802624082316" lon="11.37997270302076"><ele>639.25</ele><time>2026-05-01T11:35:16Z</time></trkpt><trkpt lat="44.08029038791182" lon="11.379821598384208"><ele>640.0</ele><time>2026-05-01T11:35:17Z</time></trkpt><trkpt lat="44.08036932108243" lon="11.379664275052034"><ele>641.25</ele><time>2026-05-01T11:35:18Z</time></trkpt><trkpt lat="44.08046372398063" lon="11.379494766811458"><ele>642.5</ele><time>2026-05-01T11:35:19Z</time></trkpt><trkpt lat="44.080522149774254" lon="11.379355725561878"><ele>643.75</ele><time>2026-05-01T11:35:20Z</time></trkpt><trkpt lat="44.080550275314046" lon="11.379218580680307"><ele>645.0</ele><time>2026-05-01T11:35:21Z</time></trkpt><trkpt lat="44.08050048017207" lon="11.379072092482229"><ele>645.0</ele><time>2026-05-01T11:35:22Z</time></trkpt><trkpt lat="44.080397701977446" lon="11.378992189525476"><ele>645.0</ele><time>2026-05-01T11:35:23Z</time></trkpt><trkpt lat="44.08028658552939" lon="11.379025468550994"><ele>645.0</ele><time>2026-05-01T11:35:24Z</time></trkpt><trkpt lat="44.0801983277739" lon="11.379136823764277"><ele>645.0</ele><time>2026-05-01T11:35:25Z</time></trkpt><trkpt lat="44.080126750944785" lon="11.3793048588996"><ele>645.0</ele><time>2026-05-01T11:35:26Z</time></trkpt><trkpt lat="44.08005039325521" lon="11.37947884899382"><ele>645.0</ele><time>2026-05-01T11:35:27Z</time></trkpt><trkpt lat="44.07995678411456" lon="11.379633594886984"><ele>645.0</ele><time>2026-05-01T11:35:28Z</time></trkpt><trkpt lat="44.07984602929501" lon="11.379779682344315"><ele>645.0</ele><time>2026-05-01T11:35:29Z</time></trkpt><trkpt lat="44.07972704066443" lon="11.3799358817253"><ele>650.3333333333334</ele><time>2026-05-01T11:35:30Z</time></trkpt><trkpt lat="44.07960628951699" lon="11.380098069625522"><ele>655.6666666666667</ele><time>2026-05-01T11:35:31Z</time></trkpt><trkpt lat="44.07947158371443" lon="11.380241618445877"><ele>661.0</ele><time>2026-05-01T11:35:32Z</time></trkpt><trkpt lat="44.07933894408965" lon="11.380356947591302"><ele>661.0</ele><time>2026-05-01T11:35:33Z</time></trkpt><trkpt lat="44.079204067242976" lon="11.380407240422388"><ele>661.0</ele><time>2026-05-01T11:35:34Z</time></trkpt><trkpt lat="44.07904705529199" lon="11.380457368329512"><ele>661.0</ele><time>2026-05-01T11:35:35Z</time></trkpt><trkpt lat="44.07888498617327" lon="11.380527188228426"><ele>662.3333333333334</ele><time>2026-05-01T11:35:36Z</time></trkpt><trkpt lat="44.078727956419634" lon="11.380611504378129"><ele>663.6666666666666</ele><time>2026-05-01T11:35:37Z</time></trkpt><trkpt lat="44.07858769792799" lon="11.3807592793789"><ele>665.0</ele><time>2026-05-01T11:35:38Z</time></trkpt><trkpt lat="44.078466504006755" lon="11.380965507793505"><ele>665.0</ele><time>2026-05-01T11:35:39Z</time></trkpt><trkpt lat="44.07833934512305" lon="11.381206173048383"><ele>665.0</ele><time>2026-05-01T11:35:40Z</time></trkpt><trkpt lat="44.07820724442232" lon="11.381440396128596"><ele>665.0</ele><time>2026-05-01T11:35:41Z</time></trkpt><trkpt lat="44.0780657556079" lon="11.381673831742804"><ele>668.6666666666666</ele><time>2026-05-01T11:35:42Z</time></trkpt><trkpt lat="44.07791936365726" lon="11.381905170880236"><ele>672.3333333333334</ele><time>2026-05-01T11:35:43Z</time></trkpt><trkpt lat="44.077784556598175" lon="11.382132515772874"><ele>676.0</ele><time>2026-05-01T11:35:44Z</time></trkpt><trkpt lat="44.07768300555189" lon="11.382391421504655"><ele>676.0</ele><time>2026-05-01T11:35:45Z</time></trkpt><trkpt lat="44.07762248996852" lon="11.382665827776892"><ele>676.0</ele><time>2026-05-01T11:35:46Z</time></trkpt><trkpt lat="44.077631839023226" lon="11.382915430266284"><ele>676.0</ele><time>2026-05-01T11:35:47Z</time></trkpt><trkpt lat="44.077600646823726" lon="11.383117159251308"><ele>679.0</ele><time>2026-05-01T11:35:48Z</time></trkpt><trkpt lat="44.07748882343744" lon="11.383249272159615"><ele>682.0</ele><time>2026-05-01T11:35:49Z</time></trkpt><trkpt lat="44.07733437709175" lon="11.383346124925916"><ele>685.0</ele><time>2026-05-01T11:35:50Z</time></trkpt><trkpt lat="44.07717138111893" lon="11.383472037206648"><ele>685.0</ele><time>2026-05-01T11:35:51Z</time></trkpt><trkpt lat="44.07702880277561" lon="11.383604200825365"><ele>685.0</ele><time>2026-05-01T11:35:52Z</time></trkpt><trkpt lat="44.07688668577875" lon="11.383682618848036"><ele>685.0</ele><time>2026-05-01T11:35:53Z</time></trkpt><trkpt lat="44.07673973440555" lon="11.383654558103922"><ele>684.6666666666667</ele><time>2026-05-01T11:35:54Z</time></trkpt><trkpt lat="44.07659872687788" lon="11.38357979783396"><ele>684.3333333333334</ele><time>2026-05-01T11:35:55Z</time></trkpt><trkpt lat="44.07642945432801" lon="11.383517320365872"><ele>684.0</ele><time>2026-05-01T11:35:56Z</time></trkpt><trkpt lat="44.076258569815955" lon="11.383420674058511"><ele>684.0</ele><time>2026-05-01T11:35:57Z</time></trkpt><trkpt lat="44.076112641651555" lon="11.383354347617582"><ele>684.0</ele><time>2026-05-01T11:35:58Z</time></trkpt><trkpt lat="44.075986848609986" lon="11.38333915704932"><ele>684.0</ele><time>2026-05-01T11:35:59Z</time></trkpt><trkpt lat="44.07586397842329" lon="11.383422054964843"><ele>684.0</ele><time>2026-05-01T11:36:00Z</time></trkpt><trkpt lat="44.07573939719635" lon="11.383582707219674"><ele>682.6666666666666</ele><time>2026-05-01T11:36:01Z</time></trkpt><trkpt lat="44.07557754041971" lon="11.383725344688287"><ele>681.3333333333333</ele><time>2026-05-01T11:36:02Z</time></trkpt><trkpt lat="44.07539364195055" lon="11.383861870407685"><ele>680.0</ele><time>2026-05-01T11:36:03Z</time></trkpt><trkpt lat="44.07522644878471" lon="11.383945089826248"><ele>680.0</ele><time>2026-05-01T11:36:04Z</time></trkpt><trkpt lat="44.075074667064676" lon="11.383918917178407"><ele>680.0</ele><time>2026-05-01T11:36:05Z</time></trkpt><trkpt lat="44.07491715970512" lon="11.383927328966584"><ele>680.0</ele><time>2026-05-01T11:36:06Z</time></trkpt><trkpt lat="44.07478240905063" lon="11.383931714295382"><ele>680.0</ele><time>2026-05-01T11:36:07Z</time></trkpt><trkpt lat="44.074659455131275" lon="11.384049113461199"><ele>688.6666666666666</ele><time>2026-05-01T11:36:08Z</time></trkpt><trkpt lat="44.074545294883414" lon="11.38424420577391"><ele>697.3333333333334</ele><time>2026-05-01T11:36:09Z</time></trkpt><trkpt lat="44.07443465179614" lon="11.384430104855422"><ele>706.0</ele><time>2026-05-01T11:36:10Z</time></trkpt><trkpt lat="44.07433108152764" lon="11.384563641179547"><ele>702.5</ele><time>2026-05-01T11:36:11Z</time></trkpt><trkpt lat="44.07426615451827" lon="11.384710155045626"><ele>699.0</ele><time>2026-05-01T11:36:12Z</time></trkpt><trkpt lat="44.07425990200173" lon="11.384902224951711"><ele>695.5</ele><time>2026-05-01T11:36:13Z</time></trkpt><trkpt lat="44.07426612729627" lon="11.385106028029252"><ele>692.0</ele><time>2026-05-01T11:36:14Z</time></trkpt><trkpt lat="44.07421442092846" lon="11.385250224324729"><ele>692.0</ele><time>2026-05-01T11:36:15Z</time></trkpt><trkpt lat="44.0741285693905" lon="11.385353247256443"><ele>692.0</ele><time>2026-05-01T11:36:16Z</time></trkpt><trkpt lat="44.07400339681752" lon="11.385349330916396"><ele>692.0</ele><time>2026-05-01T11:36:17Z</time></trkpt><trkpt lat="44.073888197135986" lon="11.385228090438874"><ele>692.0</ele><time>2026-05-01T11:36:18Z</time></trkpt><trkpt lat="44.073741354501486" lon="11.385139010683373"><ele>694.25</ele><time>2026-05-01T11:36:19Z</time></trkpt><trkpt lat="44.073597486002626" lon="11.385106535461052"><ele>696.5</ele><time>2026-05-01T11:36:20Z</time></trkpt><trkpt lat="44.073475010195395" lon="11.385190772939838"><ele>698.75</ele><time>2026-05-01T11:36:21Z</time></trkpt><trkpt lat="44.07337824327325" lon="11.385354817218028"><ele>701.0</ele><time>2026-05-01T11:36:22Z</time></trkpt><trkpt lat="44.07331627528" lon="11.385592936436028"><ele>707.3333333333333</ele><time>2026-05-01T11:36:23Z</time></trkpt><trkpt lat="44.073262635608835" lon="11.38585020019543"><ele>713.6666666666666</ele><time>2026-05-01T11:36:24Z</time></trkpt><trkpt lat="44.073217193077745" lon="11.386077925304896"><ele>720.0</ele><time>2026-05-01T11:36:25Z</time></trkpt><trkpt lat="44.07322897726537" lon="11.386284206130506"><ele>716.25</ele><time>2026-05-01T11:36:26Z</time></trkpt><trkpt lat="44.07330390759917" lon="11.386479909128902"><ele>712.5</ele><time>2026-05-01T11:36:27Z</time></trkpt><trkpt lat="44.07335809892993" lon="11.386640515824004"><ele>708.75</ele><time>2026-05-01T11:36:28Z</time></trkpt><trkpt lat="44.073358173068485" lon="11.386778756324277"><ele>705.0</ele><time>2026-05-01T11:36:29Z</time></trkpt><trkpt lat="44.07327314113102" lon="11.386852204716217"><ele>708.75</ele><time>2026-05-01T11:36:30Z</time></trkpt><trkpt lat="44.073166469480974" lon="11.386847753655697"><ele>712.5</ele><time>2026-05-01T11:36:30.999Z</time></trkpt><trkpt lat="44.073072139960104" lon="11.386714688158957"><ele>716.25</ele><time>2026-05-01T11:36:31.999Z</time></trkpt><trkpt lat="44.07294344047438" lon="11.38662232411353"><ele>720.0</ele><time>2026-05-01T11:36:32.999Z</time></trkpt><trkpt lat="44.07281517292822" lon="11.386515505720489"><ele>720.0</ele><time>2026-05-01T11:36:33.999Z</time></trkpt><trkpt lat="44.072677738818605" lon="11.386410814897983"><ele>720.0</ele><time>2026-05-01T11:36:34.999Z</time></trkpt><trkpt lat="44.072534291935334" lon="11.386280757977964"><ele>720.0</ele><time>2026-05-01T11:36:35.999Z</time></trkpt><trkpt lat="44.072389296770204" lon="11.38611340481441"><ele>720.75</ele><time>2026-05-01T11:36:36.999Z</time></trkpt><trkpt lat="44.07226297991065" lon="11.385951766249814"><ele>721.5</ele><time>2026-05-01T11:36:37.999Z</time></trkpt><trkpt lat="44.07214394185997" lon="11.385865227917026"><ele>722.25</ele><time>2026-05-01T11:36:38.999Z</time></trkpt><trkpt lat="44.072025459720464" lon="11.385890627336716"><ele>723.0</ele><time>2026-05-01T11:36:39.999Z</time></trkpt><trkpt lat="44.071905020070496" lon="11.386004335760026"><ele>723.0</ele><time>2026-05-01T11:36:40.999Z</time></trkpt><trkpt lat="44.07179224536347" lon="11.3861624116649"><ele>723.0</ele><time>2026-05-01T11:36:41.999Z</time></trkpt><trkpt lat="44.07168874533278" lon="11.386318652585796"><ele>723.0</ele><time>2026-05-01T11:36:42.999Z</time></trkpt><trkpt lat="44.071592537527756" lon="11.386434291982868"><ele>723.0</ele><time>2026-05-01T11:36:43.999Z</time></trkpt><trkpt lat="44.071470405762916" lon="11.386466045910595"><ele>718.3333333333334</ele><time>2026-05-01T11:36:44.999Z</time></trkpt><trkpt lat="44.071323079109554" lon="11.386385004418418"><ele>713.6666666666667</ele><time>2026-05-01T11:36:45.999Z</time></trkpt><trkpt lat="44.07115515957482" lon="11.386247896507342"><ele>709.0</ele><time>2026-05-01T11:36:46.999Z</time></trkpt><trkpt lat="44.07096974451579" lon="11.386062986122269"><ele>697.5</ele><time>2026-05-01T11:36:47.999Z</time></trkpt><trkpt lat="44.07077384822093" lon="11.385842660132175"><ele>686.0</ele><time>2026-05-01T11:36:48.999Z</time></trkpt><trkpt lat="44.07062477261664" lon="11.385565448849905"><ele>687.6666666666666</ele><time>2026-05-01T11:36:49.999Z</time></trkpt><trkpt lat="44.070500347270624" lon="11.38529997783498"><ele>689.3333333333334</ele><time>2026-05-01T11:36:50.999Z</time></trkpt><trkpt lat="44.07041732420255" lon="11.385017065294067"><ele>691.0</ele><time>2026-05-01T11:36:51.999Z</time></trkpt><trkpt lat="44.07031772224886" lon="11.384756846621592"><ele>692.6666666666667</ele><time>2026-05-01T11:36:52.999Z</time></trkpt><trkpt lat="44.0702394226959" lon="11.384492441455407"><ele>694.3333333333334</ele><time>2026-05-01T11:36:53.999Z</time></trkpt><trkpt lat="44.07016671156756" lon="11.38423290287484"><ele>696.0</ele><time>2026-05-01T11:36:54.999Z</time></trkpt><trkpt lat="44.07010870269809" lon="11.383976301305479"><ele>695.3333333333334</ele><time>2026-05-01T11:36:55.999Z</time></trkpt><trkpt lat="44.07002467505241" lon="11.383743344200061"><ele>694.6666666666667</ele><time>2026-05-01T11:36:56.999Z</time></trkpt><trkpt lat="44.069897814345595" lon="11.383571578797518"><ele>694.0</ele><time>2026-05-01T11:36:57.999Z</time></trkpt><trkpt lat="44.06972868096742" lon="11.383479256010027"><ele>694.0</ele><time>2026-05-01T11:36:58.999Z</time></trkpt><trkpt lat="44.069529272495934" lon="11.383437524621888"><ele>694.0</ele><time>2026-05-01T11:36:59.999Z</time></trkpt><trkpt lat="44.06935311502115" lon="11.383313532452265"><ele>694.0</ele><time>2026-05-01T11:37:00.999Z</time></trkpt><trkpt lat="44.06918942070308" lon="11.383221622865292"><ele>693.5</ele><time>2026-05-01T11:37:01.999Z</time></trkpt><trkpt lat="44.06905841463976" lon="11.383114933843995"><ele>693.0</ele><time>2026-05-01T11:37:02.999Z</time></trkpt><trkpt lat="44.06894090491102" lon="11.3830661702418"><ele>692.5</ele><time>2026-05-01T11:37:03.999Z</time></trkpt><trkpt lat="44.068827144474994" lon="11.383090158764558"><ele>692.0</ele><time>2026-05-01T11:37:04.999Z</time></trkpt><trkpt lat="44.06871217146984" lon="11.383221768467891"><ele>692.0</ele><time>2026-05-01T11:37:06Z</time></trkpt><trkpt lat="44.06863397165152" lon="11.38340582586879"><ele>692.0</ele><time>2026-05-01T11:37:07Z</time></trkpt><trkpt lat="44.068609767895715" lon="11.383637396790098"><ele>692.0</ele><time>2026-05-01T11:37:08Z</time></trkpt><trkpt lat="44.06861886073803" lon="11.38391559421252"><ele>692.0</ele><time>2026-05-01T11:37:09Z</time></trkpt><trkpt lat="44.06861111262193" lon="11.384218881341056"><ele>692.0</ele><time>2026-05-01T11:37:10Z</time></trkpt><trkpt lat="44.068580126388284" lon="11.384527719198923"><ele>692.0</ele><time>2026-05-01T11:37:11Z</time></trkpt><trkpt lat="44.068532020022715" lon="11.384825295864063"><ele>690.5</ele><time>2026-05-01T11:37:12Z</time></trkpt><trkpt lat="44.06846813268021" lon="11.38513245613978"><ele>689.0</ele><time>2026-05-01T11:37:13Z</time></trkpt><trkpt lat="44.06838496685566" lon="11.385448550918515"><ele>688.0</ele><time>2026-05-01T11:37:14Z</time></trkpt><trkpt lat="44.068305585137395" lon="11.385762019966384"><ele>687.0</ele><time>2026-05-01T11:37:15Z</time></trkpt><trkpt lat="44.068241868584344" lon="11.386039804515407"><ele>686.0</ele><time>2026-05-01T11:37:16Z</time></trkpt><trkpt lat="44.06819921761752" lon="11.386294145542498"><ele>690.0</ele><time>2026-05-01T11:37:17Z</time></trkpt><trkpt lat="44.06814218584648" lon="11.386503157864507"><ele>694.0</ele><time>2026-05-01T11:37:18Z</time></trkpt><trkpt lat="44.068063363713215" lon="11.386663544063369"><ele>698.0</ele><time>2026-05-01T11:37:19Z</time></trkpt><trkpt lat="44.06793148237742" lon="11.38670654323429"><ele>702.0</ele><time>2026-05-01T11:37:20Z</time></trkpt><trkpt lat="44.06778284088457" lon="11.386771045640101"><ele>702.0</ele><time>2026-05-01T11:37:21Z</time></trkpt><trkpt lat="44.067623929969706" lon="11.38685323425753"><ele>702.0</ele><time>2026-05-01T11:37:22Z</time></trkpt><trkpt lat="44.067480270642584" lon="11.386928670450798"><ele>702.0</ele><time>2026-05-01T11:37:23Z</time></trkpt><trkpt lat="44.0673711904575" lon="11.387024244053054"><ele>705.75</ele><time>2026-05-01T11:37:24Z</time></trkpt><trkpt lat="44.06732279918133" lon="11.38716535695024"><ele>709.5</ele><time>2026-05-01T11:37:25Z</time></trkpt><trkpt lat="44.06731128407081" lon="11.387340667840236"><ele>713.25</ele><time>2026-05-01T11:37:26Z</time></trkpt><trkpt lat="44.06731253295095" lon="11.387526100524887"><ele>717.0</ele><time>2026-05-01T11:37:27Z</time></trkpt><trkpt lat="44.067271387533104" lon="11.38770862002334"><ele>717.0</ele><time>2026-05-01T11:37:28Z</time></trkpt><trkpt lat="44.06722057498578" lon="11.387903111225468"><ele>717.0</ele><time>2026-05-01T11:37:29Z</time></trkpt><trkpt lat="44.067170077262304" lon="11.388113932244812"><ele>717.0</ele><time>2026-05-01T11:37:30Z</time></trkpt><trkpt lat="44.06709714485384" lon="11.38831102970382"><ele>713.6666666666666</ele><time>2026-05-01T11:37:31Z</time></trkpt><trkpt lat="44.06701208902309" lon="11.388513243902189"><ele>710.3333333333333</ele><time>2026-05-01T11:37:32Z</time></trkpt><trkpt lat="44.066917165262154" lon="11.38871350770154"><ele>707.0</ele><time>2026-05-01T11:37:33Z</time></trkpt><trkpt lat="44.066794565247356" lon="11.388890644117462"><ele>706.0</ele><time>2026-05-01T11:37:34Z</time></trkpt><trkpt lat="44.066667887344416" lon="11.389062692041815"><ele>705.0</ele><time>2026-05-01T11:37:35Z</time></trkpt><trkpt lat="44.066548372251795" lon="11.389241884831966"><ele>704.0</ele><time>2026-05-01T11:37:36Z</time></trkpt><trkpt lat="44.0664144446577" lon="11.389386054926803"><ele>710.0</ele><time>2026-05-01T11:37:37Z</time></trkpt><trkpt lat="44.066280018308056" lon="11.389497920071245"><ele>716.0</ele><time>2026-05-01T11:37:38Z</time></trkpt><trkpt lat="44.0661360109563" lon="11.389554472074353"><ele>722.0</ele><time>2026-05-01T11:37:39Z</time></trkpt><trkpt lat="44.06599448020072" lon="11.389618240830146"><ele>722.0</ele><time>2026-05-01T11:37:40Z</time></trkpt><trkpt lat="44.065881569243274" lon="11.389673135954293"><ele>722.0</ele><time>2026-05-01T11:37:41Z</time></trkpt><trkpt lat="44.06580939336885" lon="11.389812370422685"><ele>722.0</ele><time>2026-05-01T11:37:42Z</time></trkpt><trkpt lat="44.06578241465558" lon="11.390004853145598"><ele>722.0</ele><time>2026-05-01T11:37:43Z</time></trkpt><trkpt lat="44.065765108271094" lon="11.390189433201506"><ele>726.5</ele><time>2026-05-01T11:37:44Z</time></trkpt><trkpt lat="44.065718296182126" lon="11.390348330215051"><ele>731.0</ele><time>2026-05-01T11:37:45Z</time></trkpt><trkpt lat="44.065607248378086" lon="11.390446079784446"><ele>735.5</ele><time>2026-05-01T11:37:46Z</time></trkpt><trkpt lat="44.06551773586151" lon="11.390593085820383"><ele>740.0</ele><time>2026-05-01T11:37:47Z</time></trkpt><trkpt lat="44.06543786606113" lon="11.390757123865678"><ele>741.3333333333333</ele><time>2026-05-01T11:37:48Z</time></trkpt><trkpt lat="44.06538278961908" lon="11.390954803501343"><ele>742.6666666666666</ele><time>2026-05-01T11:37:49Z</time></trkpt><trkpt lat="44.06534998590047" lon="11.391179135665835"><ele>744.0</ele><time>2026-05-01T11:37:50Z</time></trkpt><trkpt lat="44.06531603946059" lon="11.391405536529303"><ele>740.3333333333334</ele><time>2026-05-01T11:37:51Z</time></trkpt><trkpt lat="44.06527792111368" lon="11.391633662330296"><ele>736.6666666666667</ele><time>2026-05-01T11:37:52Z</time></trkpt><trkpt lat="44.065229794005575" lon="11.39183750806834"><ele>733.0</ele><time>2026-05-01T11:37:53Z</time></trkpt><trkpt lat="44.06514024466402" lon="11.39198857743568"><ele>733.0</ele><time>2026-05-01T11:37:54Z</time></trkpt><trkpt lat="44.06504861501791" lon="11.39214968274926"><ele>733.0</ele><time>2026-05-01T11:37:55Z</time></trkpt><trkpt lat="44.06493356035153" lon="11.392303144997474"><ele>733.0</ele><time>2026-05-01T11:37:56Z</time></trkpt><trkpt lat="44.06482046456548" lon="11.392464886673626"><ele>727.25</ele><time>2026-05-01T11:37:57Z</time></trkpt><trkpt lat="44.06469891184089" lon="11.392612347262178"><ele>721.5</ele><time>2026-05-01T11:37:58Z</time></trkpt><trkpt lat="44.064562621244555" lon="11.392721639228766"><ele>715.75</ele><time>2026-05-01T11:37:59Z</time></trkpt><trkpt lat="44.06444450651308" lon="11.392799177251703"><ele>710.0</ele><time>2026-05-01T11:38:00Z</time></trkpt><trkpt lat="44.064346952570524" lon="11.392852916383656"><ele>710.0</ele><time>2026-05-01T11:38:01Z</time></trkpt><trkpt lat="44.064245235430455" lon="11.39282193153323"><ele>710.0</ele><time>2026-05-01T11:38:02Z</time></trkpt><trkpt lat="44.06416545501959" lon="11.392724233917978"><ele>710.0</ele><time>2026-05-01T11:38:03Z</time></trkpt><trkpt lat="44.06411193879306" lon="11.3925675415544"><ele>710.0</ele><time>2026-05-01T11:38:04Z</time></trkpt><trkpt lat="44.064046799403485" lon="11.392399779351335"><ele>710.5</ele><time>2026-05-01T11:38:05Z</time></trkpt><trkpt lat="44.063950956596784" lon="11.392254702763175"><ele>711.0</ele><time>2026-05-01T11:38:06Z</time></trkpt><trkpt lat="44.06382906417308" lon="11.392133608588331"><ele>711.5</ele><time>2026-05-01T11:38:07Z</time></trkpt><trkpt lat="44.06369927833994" lon="11.392015303683948"><ele>712.0</ele><time>2026-05-01T11:38:08Z</time></trkpt><trkpt lat="44.063578777549985" lon="11.391888638771432"><ele>712.0</ele><time>2026-05-01T11:38:09Z</time></trkpt><trkpt lat="44.06347853691901" lon="11.391739640962971"><ele>712.0</ele><time>2026-05-01T11:38:10Z</time></trkpt><trkpt lat="44.06339697101032" lon="11.391602210367408"><ele>712.0</ele><time>2026-05-01T11:38:11Z</time></trkpt><trkpt lat="44.063306320124035" lon="11.391501283377558"><ele>712.0</ele><time>2026-05-01T11:38:12Z</time></trkpt><trkpt lat="44.06320569416045" lon="11.391454928333378"><ele>713.8</ele><time>2026-05-01T11:38:13Z</time></trkpt><trkpt lat="44.06310141434183" lon="11.39146453607031"><ele>715.6</ele><time>2026-05-01T11:38:14Z</time></trkpt><trkpt lat="44.06302269911924" lon="11.391540145194362"><ele>717.4</ele><time>2026-05-01T11:38:15Z</time></trkpt><trkpt lat="44.06298269408833" lon="11.391661418130775"><ele>719.1999999999999</ele><time>2026-05-01T11:38:16Z</time></trkpt><trkpt lat="44.06299543575916" lon="11.391808157016262"><ele>721.0</ele><time>2026-05-01T11:38:17Z</time></trkpt><trkpt lat="44.063030840389054" lon="11.391957608821459"><ele>721.0</ele><time>2026-05-01T11:38:18Z</time></trkpt><trkpt lat="44.06307140671215" lon="11.392119444240027"><ele>721.0</ele><time>2026-05-01T11:38:19Z</time></trkpt><trkpt lat="44.063100509823926" lon="11.392299968200684"><ele>721.0</ele><time>2026-05-01T11:38:20Z</time></trkpt><trkpt lat="44.06310072671016" lon="11.39248674106115"><ele>721.0</ele><time>2026-05-01T11:38:21Z</time></trkpt><trkpt lat="44.0631076956725" lon="11.392660509124505"><ele>727.5</ele><time>2026-05-01T11:38:22Z</time></trkpt><trkpt lat="44.063072254998325" lon="11.392842046570388"><ele>734.0</ele><time>2026-05-01T11:38:23Z</time></trkpt><trkpt lat="44.06301797171895" lon="11.39303993698214"><ele>740.5</ele><time>2026-05-01T11:38:24Z</time></trkpt><trkpt lat="44.06301216601164" lon="11.393259241166131"><ele>747.0</ele><time>2026-05-01T11:38:25Z</time></trkpt><trkpt lat="44.06299399874769" lon="11.393487340822197"><ele>748.3333333333334</ele><time>2026-05-01T11:38:26Z</time></trkpt><trkpt lat="44.06293176059799" lon="11.393700397881469"><ele>749.6666666666667</ele><time>2026-05-01T11:38:27Z</time></trkpt><trkpt lat="44.0628999316077" lon="11.393926137813423"><ele>751.0</ele><time>2026-05-01T11:38:28Z</time></trkpt><trkpt lat="44.062874777493306" lon="11.394149533018595"><ele>748.25</ele><time>2026-05-01T11:38:28.999Z</time></trkpt><trkpt lat="44.0628892335798" lon="11.394375544780656"><ele>745.5</ele><time>2026-05-01T11:38:29.999Z</time></trkpt><trkpt lat="44.06290412643739" lon="11.394568891825541"><ele>742.75</ele><time>2026-05-01T11:38:30.999Z</time></trkpt><trkpt lat="44.06287254119639" lon="11.394727770027433"><ele>740.0</ele><time>2026-05-01T11:38:31.999Z</time></trkpt><trkpt lat="44.06281619182048" lon="11.39484993746839"><ele>743.0</ele><time>2026-05-01T11:38:32.999Z</time></trkpt><trkpt lat="44.06270328972729" lon="11.394905341805234"><ele>746.0</ele><time>2026-05-01T11:38:33.999Z</time></trkpt><trkpt lat="44.06257924216434" lon="11.394994215044383"><ele>749.0</ele><time>2026-05-01T11:38:34.999Z</time></trkpt><trkpt lat="44.06244619796484" lon="11.395063782502909"><ele>752.0</ele><time>2026-05-01T11:38:35.999Z</time></trkpt><trkpt lat="44.062295978311326" lon="11.395135958594762"><ele>752.0</ele><time>2026-05-01T11:38:36.999Z</time></trkpt><trkpt lat="44.062139452633225" lon="11.395210125368324"><ele>752.0</ele><time>2026-05-01T11:38:37.999Z</time></trkpt><trkpt lat="44.06198678880363" lon="11.39530564853751"><ele>752.0</ele><time>2026-05-01T11:38:38.999Z</time></trkpt><trkpt lat="44.06184511507269" lon="11.395406397073558"><ele>745.5</ele><time>2026-05-01T11:38:39.999Z</time></trkpt><trkpt lat="44.06172966508455" lon="11.395519635058658"><ele>739.0</ele><time>2026-05-01T11:38:40.999Z</time></trkpt><trkpt lat="44.06165135395357" lon="11.395665027916783"><ele>732.5</ele><time>2026-05-01T11:38:41.999Z</time></trkpt><trkpt lat="44.06161648976421" lon="11.395842515843741"><ele>726.0</ele><time>2026-05-01T11:38:42.999Z</time></trkpt><trkpt lat="44.06167423970009" lon="11.396021898301838"><ele>726.0</ele><time>2026-05-01T11:38:43.999Z</time></trkpt><trkpt lat="44.06170159277528" lon="11.396195429163035"><ele>726.0</ele><time>2026-05-01T11:38:44.999Z</time></trkpt><trkpt lat="44.0616995352234" lon="11.396339493827822"><ele>726.0</ele><time>2026-05-01T11:38:45.999Z</time></trkpt><trkpt lat="44.06160757473694" lon="11.396457802031543"><ele>726.0</ele><time>2026-05-01T11:38:46.999Z</time></trkpt><trkpt lat="44.061496897984505" lon="11.396546654579673"><ele>728.25</ele><time>2026-05-01T11:38:47.999Z</time></trkpt><trkpt lat="44.06138135986142" lon="11.396656991431918"><ele>730.5</ele><time>2026-05-01T11:38:48.999Z</time></trkpt><trkpt lat="44.06127748626206" lon="11.396789557066434"><ele>732.75</ele><time>2026-05-01T11:38:49.999Z</time></trkpt><trkpt lat="44.06119536481156" lon="11.396947122233184"><ele>735.0</ele><time>2026-05-01T11:38:50.999Z</time></trkpt><trkpt lat="44.061150717237894" lon="11.397124612210131"><ele>732.25</ele><time>2026-05-01T11:38:51.999Z</time></trkpt><trkpt lat="44.06110087298883" lon="11.397263372985876"><ele>729.5</ele><time>2026-05-01T11:38:52.999Z</time></trkpt><trkpt lat="44.061001674963784" lon="11.397282526893795"><ele>726.75</ele><time>2026-05-01T11:38:53.999Z</time></trkpt><trkpt lat="44.06088747505085" lon="11.397251455122603"><ele>724.0</ele><time>2026-05-01T11:38:54.999Z</time></trkpt><trkpt lat="44.06077627680393" lon="11.397159964692218"><ele>728.5</ele><time>2026-05-01T11:38:55.999Z</time></trkpt><trkpt lat="44.060664382998816" lon="11.397060080843017"><ele>733.0</ele><time>2026-05-01T11:38:56.999Z</time></trkpt><trkpt lat="44.06054022728503" lon="11.397024404694907"><ele>737.5</ele><time>2026-05-01T11:38:57.999Z</time></trkpt><trkpt lat="44.06041162969705" lon="11.397073677583768"><ele>742.0</ele><time>2026-05-01T11:38:58.999Z</time></trkpt><trkpt lat="44.06028988088867" lon="11.39720218503922"><ele>742.0</ele><time>2026-05-01T11:38:59.999Z</time></trkpt><trkpt lat="44.06018049656043" lon="11.397360129726604"><ele>742.0</ele><time>2026-05-01T11:39:00.999Z</time></trkpt><trkpt lat="44.06009978808727" lon="11.397530767128188"><ele>742.0</ele><time>2026-05-01T11:39:01.999Z</time></trkpt><trkpt lat="44.0600654185564" lon="11.397716941153698"><ele>742.0</ele><time>2026-05-01T11:39:02.999Z</time></trkpt><trkpt lat="44.06008075515471" lon="11.397906058761151"><ele>739.75</ele><time>2026-05-01T11:39:03.999Z</time></trkpt><trkpt lat="44.06003990334181" lon="11.398051014345702"><ele>737.5</ele><time>2026-05-01T11:39:04.999Z</time></trkpt><trkpt lat="44.059927283824294" lon="11.398115327094763"><ele>735.25</ele><time>2026-05-01T11:39:05.999Z</time></trkpt><trkpt lat="44.059789033359884" lon="11.398120880205607"><ele>733.0</ele><time>2026-05-01T11:39:06.999Z</time></trkpt><trkpt lat="44.059649521704074" lon="11.398015804675426"><ele>740.6666666666667</ele><time>2026-05-01T11:39:07.999Z</time></trkpt><trkpt lat="44.05950825216252" lon="11.397902797032426"><ele>748.3333333333334</ele><time>2026-05-01T11:39:08.999Z</time></trkpt><trkpt lat="44.05936523561588" lon="11.39779805948354"><ele>756.0</ele><time>2026-05-01T11:39:09.999Z</time></trkpt><trkpt lat="44.05921290386143" lon="11.397728855298654"><ele>755.3333333333334</ele><time>2026-05-01T11:39:10.999Z</time></trkpt><trkpt lat="44.05904722902939" lon="11.397744903388626"><ele>754.6666666666667</ele><time>2026-05-01T11:39:12Z</time></trkpt><trkpt lat="44.05887898162598" lon="11.397811843984675"><ele>754.0</ele><time>2026-05-01T11:39:13Z</time></trkpt><trkpt lat="44.05872335069952" lon="11.39789814572238"><ele>754.0</ele><time>2026-05-01T11:39:14Z</time></trkpt><trkpt lat="44.05856553662497" lon="11.397917862139337"><ele>754.0</ele><time>2026-05-01T11:39:15Z</time></trkpt><trkpt lat="44.0584165840131" lon="11.397892551158076"><ele>754.0</ele><time>2026-05-01T11:39:16Z</time></trkpt><trkpt lat="44.058267265253875" lon="11.397823744704514"><ele>748.3333333333334</ele><time>2026-05-01T11:39:17Z</time></trkpt><trkpt lat="44.058116061245954" lon="11.397750567511498"><ele>742.6666666666666</ele><time>2026-05-01T11:39:18Z</time></trkpt><trkpt lat="44.057979813529286" lon="11.397663525303978"><ele>737.0</ele><time>2026-05-01T11:39:19Z</time></trkpt><trkpt lat="44.05788373909105" lon="11.397517766530735"><ele>737.0</ele><time>2026-05-01T11:39:20Z</time></trkpt><trkpt lat="44.057777833804515" lon="11.397382079075165"><ele>737.0</ele><time>2026-05-01T11:39:21Z</time></trkpt><trkpt lat="44.057722549766" lon="11.397193267313074"><ele>737.0</ele><time>2026-05-01T11:39:22Z</time></trkpt><trkpt lat="44.05770532830825" lon="11.397009081459704"><ele>737.0</ele><time>2026-05-01T11:39:23Z</time></trkpt><trkpt lat="44.05769673195786" lon="11.396820733330612"><ele>740.0</ele><time>2026-05-01T11:39:24Z</time></trkpt><trkpt lat="44.0577177673055" lon="11.396629114921897"><ele>743.0</ele><time>2026-05-01T11:39:25Z</time></trkpt><trkpt lat="44.057696242784516" lon="11.396435492564228"><ele>746.0</ele><time>2026-05-01T11:39:26Z</time></trkpt><trkpt lat="44.05761465969675" lon="11.396236793477843"><ele>749.0</ele><time>2026-05-01T11:39:27Z</time></trkpt><trkpt lat="44.057535753488274" lon="11.396038114520994"><ele>744.6666666666666</ele><time>2026-05-01T11:39:28Z</time></trkpt><trkpt lat="44.05746255929659" lon="11.395842616682865"><ele>740.3333333333334</ele><time>2026-05-01T11:39:29Z</time></trkpt><trkpt lat="44.05739651796281" lon="11.39564970331224"><ele>736.0</ele><time>2026-05-01T11:39:30Z</time></trkpt><trkpt lat="44.057340258583054" lon="11.395467758065765"><ele>736.0</ele><time>2026-05-01T11:39:31Z</time></trkpt><trkpt lat="44.057292123651855" lon="11.395305471896512"><ele>736.0</ele><time>2026-05-01T11:39:32Z</time></trkpt><trkpt lat="44.05727246516522" lon="11.395154015507037"><ele>736.0</ele><time>2026-05-01T11:39:33Z</time></trkpt><trkpt lat="44.05731472201052" lon="11.395025667596022"><ele>736.0</ele><time>2026-05-01T11:39:34Z</time></trkpt><trkpt lat="44.057398244095914" lon="11.394926386066059"><ele>736.0</ele><time>2026-05-01T11:39:35Z</time></trkpt><trkpt lat="44.05750499831328" lon="11.394876146103126"><ele>741.5999999999999</ele><time>2026-05-01T11:39:36Z</time></trkpt><trkpt lat="44.0576068908922" lon="11.3948437016082"><ele>747.2</ele><time>2026-05-01T11:39:37Z</time></trkpt><trkpt lat="44.05766609883686" lon="11.394761918702487"><ele>752.8</ele><time>2026-05-01T11:39:38Z</time></trkpt><trkpt lat="44.0576735619321" lon="11.394623655737343"><ele>758.4000000000001</ele><time>2026-05-01T11:39:39Z</time></trkpt><trkpt lat="44.05763012452937" lon="11.39449100347359"><ele>764.0</ele><time>2026-05-01T11:39:40Z</time></trkpt><trkpt lat="44.05753447437215" lon="11.394397216752921"><ele>762.25</ele><time>2026-05-01T11:39:41Z</time></trkpt><trkpt lat="44.05742535331418" lon="11.39432417143485"><ele>760.5</ele><time>2026-05-01T11:39:42Z</time></trkpt><trkpt lat="44.05732027198133" lon="11.39423510736876"><ele>758.75</ele><time>2026-05-01T11:39:43Z</time></trkpt><trkpt lat="44.05721400928107" lon="11.394135424911376"><ele>757.0</ele><time>2026-05-01T11:39:44Z</time></trkpt><trkpt lat="44.05709587767084" lon="11.394047354004575"><ele>757.0</ele><time>2026-05-01T11:39:45Z</time></trkpt><trkpt lat="44.056972611792006" lon="11.393979271977472"><ele>757.0</ele><time>2026-05-01T11:39:46Z</time></trkpt><trkpt lat="44.0568629305536" lon="11.393889652700075"><ele>757.0</ele><time>2026-05-01T11:39:47Z</time></trkpt><trkpt lat="44.056764813144675" lon="11.393803182415489"><ele>757.0</ele><time>2026-05-01T11:39:48Z</time></trkpt><trkpt lat="44.05673805088789" lon="11.393660971757079"><ele>762.5</ele><time>2026-05-01T11:39:49Z</time></trkpt><trkpt lat="44.05679427370828" lon="11.393514855457068"><ele>768.0</ele><time>2026-05-01T11:39:50Z</time></trkpt><trkpt lat="44.05682784824302" lon="11.39335971511017"><ele>773.5</ele><time>2026-05-01T11:39:51Z</time></trkpt><trkpt lat="44.056843848259575" lon="11.393203305191129"><ele>779.0</ele><time>2026-05-01T11:39:52Z</time></trkpt><trkpt lat="44.05681006536538" lon="11.393057574725658"><ele>776.0</ele><time>2026-05-01T11:39:53Z</time></trkpt><trkpt lat="44.05672401347915" lon="11.392965734735016"><ele>773.0</ele><time>2026-05-01T11:39:54Z</time></trkpt><trkpt lat="44.05662338920885" lon="11.392944596535903"><ele>770.0</ele><time>2026-05-01T11:39:55Z</time></trkpt><trkpt lat="44.05652880526073" lon="11.393043117869535"><ele>767.0</ele><time>2026-05-01T11:39:56Z</time></trkpt><trkpt lat="44.05644480540976" lon="11.393156650257216"><ele>764.0</ele><time>2026-05-01T11:39:57Z</time></trkpt><trkpt lat="44.05634550076083" lon="11.393240165867354"><ele>764.0</ele><time>2026-05-01T11:39:58Z</time></trkpt><trkpt lat="44.05623556401014" lon="11.393300834263457"><ele>764.0</ele><time>2026-05-01T11:39:59Z</time></trkpt><trkpt lat="44.05612893567658" lon="11.393294115240558"><ele>764.0</ele><time>2026-05-01T11:40:00Z</time></trkpt><trkpt lat="44.05601977750435" lon="11.393236471721822"><ele>764.0</ele><time>2026-05-01T11:40:01Z</time></trkpt><trkpt lat="44.05598372166381" lon="11.393075291793346"><ele>765.75</ele><time>2026-05-01T11:40:02Z</time></trkpt><trkpt lat="44.05590589508294" lon="11.392925361224693"><ele>767.5</ele><time>2026-05-01T11:40:03Z</time></trkpt><trkpt lat="44.055849365453405" lon="11.39274924634312"><ele>769.25</ele><time>2026-05-01T11:40:04Z</time></trkpt><trkpt lat="44.055769572991466" lon="11.392575461200577"><ele>771.0</ele><time>2026-05-01T11:40:05Z</time></trkpt><trkpt lat="44.0556912942487" lon="11.39238724015517"><ele>771.0</ele><time>2026-05-01T11:40:06Z</time></trkpt><trkpt lat="44.05561575617522" lon="11.392191231788333"><ele>771.0</ele><time>2026-05-01T11:40:07Z</time></trkpt><trkpt lat="44.05553679450584" lon="11.39199056154991"><ele>771.0</ele><time>2026-05-01T11:40:08Z</time></trkpt><trkpt lat="44.05545417959995" lon="11.391798197417673"><ele>775.6666666666667</ele><time>2026-05-01T11:40:09Z</time></trkpt><trkpt lat="44.05537548459813" lon="11.391607752493869"><ele>780.3333333333334</ele><time>2026-05-01T11:40:10Z</time></trkpt><trkpt lat="44.055319860349826" lon="11.39141027448441"><ele>785.0</ele><time>2026-05-01T11:40:11Z</time></trkpt><trkpt lat="44.05531575753945" lon="11.391188860708697"><ele>788.3333333333334</ele><time>2026-05-01T11:40:12Z</time></trkpt><trkpt lat="44.05533344459317" lon="11.39098170197648"><ele>791.6666666666667</ele><time>2026-05-01T11:40:13Z</time></trkpt><trkpt lat="44.05533244424282" lon="11.3907620548497"><ele>795.0</ele><time>2026-05-01T11:40:14Z</time></trkpt><trkpt lat="44.05534021177747" lon="11.390550401552106"><ele>797.8</ele><time>2026-05-01T11:40:15Z</time></trkpt><trkpt lat="44.05532369188419" lon="11.39036280576001"><ele>800.6</ele><time>2026-05-01T11:40:16Z</time></trkpt><trkpt lat="44.05530339469025" lon="11.39020443134161"><ele>803.4000000000001</ele><time>2026-05-01T11:40:17Z</time></trkpt><trkpt lat="44.05528096680656" lon="11.390077862668013"><ele>806.2</ele><time>2026-05-01T11:40:18Z</time></trkpt><trkpt lat="44.05521503172283" lon="11.389998171134454"><ele>809.0</ele><time>2026-05-01T11:40:19Z</time></trkpt><trkpt lat="44.05512615056898" lon="11.389995849902093"><ele>809.0</ele><time>2026-05-01T11:40:20Z</time></trkpt><trkpt lat="44.05505329888654" lon="11.390083032203961"><ele>809.0</ele><time>2026-05-01T11:40:21Z</time></trkpt><trkpt lat="44.054999058067594" lon="11.390194929727663"><ele>809.0</ele><time>2026-05-01T11:40:22Z</time></trkpt><trkpt lat="44.05495379419949" lon="11.390315229066694"><ele>809.0</ele><time>2026-05-01T11:40:23Z</time></trkpt><trkpt lat="44.05489923276281" lon="11.390443259950787"><ele>809.0</ele><time>2026-05-01T11:40:24Z</time></trkpt><trkpt lat="44.05481849196523" lon="11.390545415633293"><ele>806.75</ele><time>2026-05-01T11:40:25Z</time></trkpt><trkpt lat="44.05472017053053" lon="11.390623789047552"><ele>804.5</ele><time>2026-05-01T11:40:26Z</time></trkpt><trkpt lat="44.05460079242812" lon="11.390644426071518"><ele>802.25</ele><time>2026-05-01T11:40:27Z</time></trkpt><trkpt lat="44.05447124373214" lon="11.39063058364542"><ele>800.0</ele><time>2026-05-01T11:40:27.999Z</time></trkpt><trkpt lat="44.05434218511159" lon="11.390602848283633"><ele>800.0</ele><time>2026-05-01T11:40:28.999Z</time></trkpt><trkpt lat="44.05420425752374" lon="11.390568395998182"><ele>800.0</ele><time>2026-05-01T11:40:29.999Z</time></trkpt><trkpt lat="44.0540605316638" lon="11.390513536123732"><ele>800.0</ele><time>2026-05-01T11:40:30.999Z</time></trkpt><trkpt lat="44.053896371058805" lon="11.3904524965523"><ele>810.0</ele><time>2026-05-01T11:40:31.999Z</time></trkpt><trkpt lat="44.05370194192422" lon="11.390403047758197"><ele>820.0</ele><time>2026-05-01T11:40:32.999Z</time></trkpt><trkpt lat="44.05348725503977" lon="11.390370782381844"><ele>830.0</ele><time>2026-05-01T11:40:33.999Z</time></trkpt><trkpt lat="44.05328907509804" lon="11.390384712968487"><ele>826.6666666666667</ele><time>2026-05-01T11:40:34.999Z</time></trkpt><trkpt lat="44.05309820698843" lon="11.390449909381221"><ele>823.3333333333333</ele><time>2026-05-01T11:40:35.999Z</time></trkpt><trkpt lat="44.0529034172625" lon="11.39053671420333"><ele>820.0</ele><time>2026-05-01T11:40:36.999Z</time></trkpt><trkpt lat="44.05270504858794" lon="11.390555929783417"><ele>820.0</ele><time>2026-05-01T11:40:37.999Z</time></trkpt><trkpt lat="44.05252588730591" lon="11.390482435087598"><ele>820.0</ele><time>2026-05-01T11:40:38.999Z</time></trkpt><trkpt lat="44.05233250673216" lon="11.390416862444456"><ele>820.0</ele><time>2026-05-01T11:40:39.999Z</time></trkpt><trkpt lat="44.05214559180282" lon="11.390302386664372"><ele>820.0</ele><time>2026-05-01T11:40:40.999Z</time></trkpt><trkpt lat="44.0519523205063" lon="11.39020624439406"><ele>820.0</ele><time>2026-05-01T11:40:41.999Z</time></trkpt><trkpt lat="44.0517582881183" lon="11.390115986548672"><ele>820.0</ele><time>2026-05-01T11:40:42.999Z</time></trkpt><trkpt lat="44.05155984270452" lon="11.39005897069962"><ele>820.0</ele><time>2026-05-01T11:40:43.999Z</time></trkpt><trkpt lat="44.051360231069026" lon="11.3900713274465"><ele>820.0</ele><time>2026-05-01T11:40:44.999Z</time></trkpt><trkpt lat="44.051165810386124" lon="11.39011566764018"><ele>820.0</ele><time>2026-05-01T11:40:45.999Z</time></trkpt><trkpt lat="44.05098645654548" lon="11.3900553967355"><ele>820.0</ele><time>2026-05-01T11:40:46.999Z</time></trkpt><trkpt lat="44.05081438730261" lon="11.38994556243587"><ele>820.0</ele><time>2026-05-01T11:40:47.999Z</time></trkpt><trkpt lat="44.05063343264153" lon="11.389823603228905"><ele>820.0</ele><time>2026-05-01T11:40:48.999Z</time></trkpt><trkpt lat="44.05044825816875" lon="11.389718075607819"><ele>829.3333333333333</ele><time>2026-05-01T11:40:49.999Z</time></trkpt><trkpt lat="44.05025412962425" lon="11.389649851473976"><ele>838.6666666666667</ele><time>2026-05-01T11:40:50.999Z</time></trkpt><trkpt lat="44.05005839175625" lon="11.389609486312052"><ele>848.0</ele><time>2026-05-01T11:40:51.999Z</time></trkpt><trkpt lat="44.049863305098064" lon="11.389589894181311"><ele>846.6666666666667</ele><time>2026-05-01T11:40:52.999Z</time></trkpt><trkpt lat="44.04966772409036" lon="11.389624148902948"><ele>845.3333333333333</ele><time>2026-05-01T11:40:53.999Z</time></trkpt><trkpt lat="44.049478192194684" lon="11.389716697389874"><ele>844.0</ele><time>2026-05-01T11:40:54.999Z</time></trkpt><trkpt lat="44.04930768115575" lon="11.389845304487968"><ele>844.0</ele><time>2026-05-01T11:40:55.999Z</time></trkpt><trkpt lat="44.04915956900627" lon="11.389976754717718"><ele>844.0</ele><time>2026-05-01T11:40:56.999Z</time></trkpt><trkpt lat="44.049047728291306" lon="11.390106241559801"><ele>844.0</ele><time>2026-05-01T11:40:57.999Z</time></trkpt><trkpt lat="44.04896866638053" lon="11.390268704572367"><ele>845.6666666666666</ele><time>2026-05-01T11:40:58.999Z</time></trkpt><trkpt lat="44.04893944096092" lon="11.390483776774554"><ele>847.3333333333333</ele><time>2026-05-01T11:40:59.999Z</time></trkpt><trkpt lat="44.04892099800067" lon="11.390720512206668"><ele>849.0</ele><time>2026-05-01T11:41:00.999Z</time></trkpt><trkpt lat="44.04882272432099" lon="11.390914438929906"><ele>849.0</ele><time>2026-05-01T11:41:01.999Z</time></trkpt><trkpt lat="44.048741550164735" lon="11.391119446636862"><ele>849.0</ele><time>2026-05-01T11:41:02.999Z</time></trkpt><trkpt lat="44.04866085592391" lon="11.391306668306381"><ele>849.0</ele><time>2026-05-01T11:41:03.999Z</time></trkpt><trkpt lat="44.048617024043054" lon="11.391507764678602"><ele>849.0</ele><time>2026-05-01T11:41:04.999Z</time></trkpt><trkpt lat="44.04857083603545" lon="11.391652276670643"><ele>849.0</ele><time>2026-05-01T11:41:05.999Z</time></trkpt><trkpt lat="44.04850730620435" lon="11.391720734811889"><ele>849.0</ele><time>2026-05-01T11:41:06.999Z</time></trkpt><trkpt lat="44.04842276268195" lon="11.391617758327735"><ele>849.0</ele><time>2026-05-01T11:41:08.999Z</time></trkpt><trkpt lat="44.04841342261718" lon="11.391479966679931"><ele>849.0</ele><time>2026-05-01T11:41:09.999Z</time></trkpt><trkpt lat="44.04840709262823" lon="11.391304325015678"><ele>849.0</ele><time>2026-05-01T11:41:10.999Z</time></trkpt><trkpt lat="44.0483666701287" lon="11.391105934595483"><ele>849.0</ele><time>2026-05-01T11:41:11.999Z</time></trkpt><trkpt lat="44.04830412638902" lon="11.390907817404104"><ele>849.0</ele><time>2026-05-01T11:41:12.999Z</time></trkpt><trkpt lat="44.04822689774964" lon="11.390710746410123"><ele>850.3333333333333</ele><time>2026-05-01T11:41:13.999Z</time></trkpt><trkpt lat="44.04814482840524" lon="11.390521835074786"><ele>851.6666666666666</ele><time>2026-05-01T11:41:14.999Z</time></trkpt><trkpt lat="44.048045040803636" lon="11.390363077145349"><ele>853.0</ele><time>2026-05-01T11:41:15.999Z</time></trkpt><trkpt lat="44.04791861390781" lon="11.390272072130035"><ele>852.25</ele><time>2026-05-01T11:41:16.999Z</time></trkpt><trkpt lat="44.047762285739125" lon="11.390284035445738"><ele>851.5</ele><time>2026-05-01T11:41:18Z</time></trkpt><trkpt lat="44.0476175079035" lon="11.390353500953093"><ele>850.75</ele><time>2026-05-01T11:41:19Z</time></trkpt><trkpt lat="44.04750116568667" lon="11.39045084413393"><ele>850.0</ele><time>2026-05-01T11:41:20Z</time></trkpt><trkpt lat="44.047408716774044" lon="11.390534240140427"><ele>850.0</ele><time>2026-05-01T11:41:21Z</time></trkpt><trkpt lat="44.04731976195116" lon="11.390562895295162"><ele>850.0</ele><time>2026-05-01T11:41:22Z</time></trkpt><trkpt lat="44.04724610055913" lon="11.390507582824586"><ele>850.0</ele><time>2026-05-01T11:41:23Z</time></trkpt><trkpt lat="44.04721144368598" lon="11.390399152149095"><ele>850.0</ele><time>2026-05-01T11:41:24Z</time></trkpt><trkpt lat="44.04720336087684" lon="11.39026545540365"><ele>850.0</ele><time>2026-05-01T11:41:25Z</time></trkpt><trkpt lat="44.04720216342351" lon="11.390103462271988"><ele>851.5</ele><time>2026-05-01T11:41:26Z</time></trkpt><trkpt lat="44.04719518225864" lon="11.389940581756578"><ele>853.0</ele><time>2026-05-01T11:41:27Z</time></trkpt><trkpt lat="44.04718630010166" lon="11.389775211323034"><ele>854.5</ele><time>2026-05-01T11:41:28Z</time></trkpt><trkpt lat="44.04717519650772" lon="11.38961134288564"><ele>856.0</ele><time>2026-05-01T11:41:29Z</time></trkpt><trkpt lat="44.04715822928073" lon="11.389445622139176"><ele>858.8</ele><time>2026-05-01T11:41:30Z</time></trkpt><trkpt lat="44.047133205022256" lon="11.389348250117932"><ele>861.5999999999999</ele><time>2026-05-01T11:41:31Z</time></trkpt><trkpt lat="44.0470997618407" lon="11.389213300402433"><ele>864.4</ele><time>2026-05-01T11:41:32Z</time></trkpt><trkpt lat="44.047076510781054" lon="11.389077105538997"><ele>867.2</ele><time>2026-05-01T11:41:33Z</time></trkpt><trkpt lat="44.04707669187023" lon="11.388949484374429"><ele>870.0</ele><time>2026-05-01T11:41:34Z</time></trkpt><trkpt lat="44.0470889358998" lon="11.3888210423283"><ele>871.8333333333334</ele><time>2026-05-01T11:41:35Z</time></trkpt><trkpt lat="44.04710703804177" lon="11.388732570420856"><ele>873.6666666666667</ele><time>2026-05-01T11:41:36Z</time></trkpt><trkpt lat="44.047127888853396" lon="11.388622963901206"><ele>875.5</ele><time>2026-05-01T11:42:19Z</time></trkpt><trkpt lat="44.04712698635644" lon="11.388473189603161"><ele>877.3333333333334</ele><time>2026-05-01T11:42:21Z</time></trkpt><trkpt lat="44.04711295976949" lon="11.38834962819999"><ele>879.1666666666667</ele><time>2026-05-01T11:42:23Z</time></trkpt><trkpt lat="44.04710393272982" lon="11.388250952393951"><ele>881.0</ele><time>2026-05-01T11:42:25Z</time></trkpt><trkpt lat="44.04707928723433" lon="11.388162084669874"><ele>881.0</ele><time>2026-05-01T11:42:28Z</time></trkpt><trkpt lat="44.04712725935685" lon="11.388228919204336"><ele>881.0</ele><time>2026-05-01T11:43:52Z</time></trkpt><trkpt lat="44.047198269802585" lon="11.388244517569191"><ele>881.0</ele><time>2026-05-01T11:44:00Z</time></trkpt><trkpt lat="44.047264588633446" lon="11.388267217804442"><ele>881.0</ele><time>2026-05-01T11:44:08Z</time></trkpt><trkpt lat="44.04733051503475" lon="11.38827475494786"><ele>881.0</ele><time>2026-05-01T11:44:16Z</time></trkpt><trkpt lat="44.04738964432587" lon="11.388305117405775"><ele>881.0</ele><time>2026-05-01T11:44:24Z</time></trkpt><trkpt lat="44.047449511481126" lon="11.388345657221143"><ele>881.0</ele><time>2026-05-01T11:44:33.999Z</time></trkpt><trkpt lat="44.04749559565918" lon="11.388408716432155"><ele>881.7142857142857</ele><time>2026-05-01T11:44:40.999Z</time></trkpt><trkpt lat="44.04752932488049" lon="11.388487825079588"><ele>882.4285714285714</ele><time>2026-05-01T11:44:46.999Z</time></trkpt><trkpt lat="44.04756361396388" lon="11.388576594817971"><ele>883.1428571428571</ele><time>2026-05-01T11:44:53.999Z</time></trkpt><trkpt lat="44.047558057636515" lon="11.388671187935932"><ele>883.8571428571429</ele><time>2026-05-01T11:45:00.999Z</time></trkpt><trkpt lat="44.04752144797224" lon="11.38875673799685"><ele>884.5714285714287</ele><time>2026-05-01T11:45:09.999Z</time></trkpt><trkpt lat="44.04746617480428" lon="11.388821996861184"><ele>885.2857142857143</ele><time>2026-05-01T11:45:16.999Z</time></trkpt><trkpt lat="44.04741931233244" lon="11.388882024965898"><ele>886.0</ele><time>2026-05-01T11:45:23.999Z</time></trkpt><trkpt lat="44.04739566408747" lon="11.388972524856143"><ele>886.0</ele><time>2026-05-01T11:45:31Z</time></trkpt><trkpt lat="44.04741392099248" lon="11.388877274674185"><ele>886.0</ele><time>2026-05-01T11:46:22Z</time></trkpt><trkpt lat="44.04746857645722" lon="11.38880651740211"><ele>886.0</ele><time>2026-05-01T11:46:28Z</time></trkpt><trkpt lat="44.047516542206985" lon="11.38872212031284"><ele>886.0</ele><time>2026-05-01T11:46:33.999Z</time></trkpt><trkpt lat="44.04753064478578" lon="11.388627177425203"><ele>886.0</ele><time>2026-05-01T11:46:39.999Z</time></trkpt><trkpt lat="44.04750638022356" lon="11.388529858506557"><ele>886.0</ele><time>2026-05-01T11:46:45.999Z</time></trkpt><trkpt lat="44.047468604617414" lon="11.388456613982747"><ele>886.0</ele><time>2026-05-01T11:46:51.999Z</time></trkpt><trkpt lat="44.047422476229855" lon="11.388384361867235"><ele>885.2857142857143</ele><time>2026-05-01T11:46:57.999Z</time></trkpt><trkpt lat="44.047360032427875" lon="11.388332246127774"><ele>884.5714285714287</ele><time>2026-05-01T11:47:04.999Z</time></trkpt><trkpt lat="44.0472935501092" lon="11.388292035495011"><ele>883.8571428571429</ele><time>2026-05-01T11:47:10.999Z</time></trkpt><trkpt lat="44.04722022911167" lon="11.388274367547968"><ele>883.1428571428571</ele><time>2026-05-01T11:47:16.999Z</time></trkpt><trkpt lat="44.047159662135115" lon="11.388248950891542"><ele>882.4285714285714</ele><time>2026-05-01T11:47:21.999Z</time></trkpt><trkpt lat="44.0471052900949" lon="11.388188250654952"><ele>881.7142857142857</ele><time>2026-05-01T11:47:27.999Z</time></trkpt><trkpt lat="44.047041301754284" lon="11.38814566805889"><ele>881.0</ele><time>2026-05-01T11:47:37Z</time></trkpt><trkpt lat="44.04698281448221" lon="11.38810855184337"><ele>881.0</ele><time>2026-05-01T11:47:44Z</time></trkpt><trkpt lat="44.04689234563004" lon="11.388034112755456"><ele>880.9999999999999</ele><time>2026-05-01T12:11:43Z</time></trkpt><trkpt lat="44.04683444272716" lon="11.387985156976695"><ele>880.9999999999999</ele><time>2026-05-01T12:11:45Z</time></trkpt><trkpt lat="44.04676851016236" lon="11.38794313435861"><ele>881.0</ele><time>2026-05-01T12:11:49Z</time></trkpt><trkpt lat="44.0466034547757" lon="11.38788053170264"><ele>881.0</ele><time>2026-05-01T12:12:04Z</time></trkpt><trkpt lat="44.04653254624419" lon="11.387839892398853"><ele>880.0</ele><time>2026-05-01T12:12:05Z</time></trkpt><trkpt lat="44.04645432822292" lon="11.38779495655078"><ele>878.9999999999999</ele><time>2026-05-01T12:12:06Z</time></trkpt><trkpt lat="44.04636176880306" lon="11.387740721923327"><ele>877.9999999999999</ele><time>2026-05-01T12:12:07Z</time></trkpt><trkpt lat="44.04626174384255" lon="11.387677555542023"><ele>877.0</ele><time>2026-05-01T12:12:08Z</time></trkpt><trkpt lat="44.04616104282574" lon="11.38759874126054"><ele>876.0</ele><time>2026-05-01T12:12:09Z</time></trkpt><trkpt lat="44.046063753064" lon="11.387503178181934"><ele>876.0</ele><time>2026-05-01T12:12:10Z</time></trkpt><trkpt lat="44.045974940025516" lon="11.38740657079854"><ele>875.9999999999999</ele><time>2026-05-01T12:12:11Z</time></trkpt><trkpt lat="44.04588254692187" lon="11.387327175902875"><ele>875.9999999999999</ele><time>2026-05-01T12:12:12Z</time></trkpt><trkpt lat="44.045774572631686" lon="11.387293595869295"><ele>876.0</ele><time>2026-05-01T12:12:13Z</time></trkpt><trkpt lat="44.04566174527608" lon="11.38731138451652"><ele>876.0</ele><time>2026-05-01T12:12:14Z</time></trkpt><trkpt lat="44.045537032167196" lon="11.387360577532224"><ele>874.75</ele><time>2026-05-01T12:12:15Z</time></trkpt><trkpt lat="44.045410539601" lon="11.38737771844404"><ele>873.5</ele><time>2026-05-01T12:12:16Z</time></trkpt><trkpt lat="44.045273872004614" lon="11.38744462101068"><ele>872.25</ele><time>2026-05-01T12:12:17Z</time></trkpt><trkpt lat="44.045144160590105" lon="11.387499526853594"><ele>871.0</ele><time>2026-05-01T12:12:18Z</time></trkpt><trkpt lat="44.045018309631715" lon="11.387544580309486"><ele>869.75</ele><time>2026-05-01T12:12:18.999Z</time></trkpt><trkpt lat="44.0449038720346" lon="11.38761454935817"><ele>868.5</ele><time>2026-05-01T12:12:19.999Z</time></trkpt><trkpt lat="44.04479065966585" lon="11.387691211258847"><ele>867.25</ele><time>2026-05-01T12:12:20.999Z</time></trkpt><trkpt lat="44.04468708579242" lon="11.387753970369396"><ele>866.0</ele><time>2026-05-01T12:12:21.999Z</time></trkpt><trkpt lat="44.04459985820917" lon="11.387789014439626"><ele>866.0</ele><time>2026-05-01T12:12:22.999Z</time></trkpt><trkpt lat="44.044518777442015" lon="11.38778794029744"><ele>865.9999999999999</ele><time>2026-05-01T12:12:23.999Z</time></trkpt><trkpt lat="44.04445873589544" lon="11.387694683528112"><ele>865.9999999999999</ele><time>2026-05-01T12:12:24.999Z</time></trkpt><trkpt lat="44.04443643553979" lon="11.387552600650519"><ele>866.0</ele><time>2026-05-01T12:12:25.999Z</time></trkpt><trkpt lat="44.04446978816428" lon="11.387382614840618"><ele>866.0</ele><time>2026-05-01T12:12:26.999Z</time></trkpt><trkpt lat="44.04449127407778" lon="11.387209565622538"><ele>862.0</ele><time>2026-05-01T12:12:27.999Z</time></trkpt><trkpt lat="44.04447842194541" lon="11.387037482530358"><ele>858.0</ele><time>2026-05-01T12:12:28.999Z</time></trkpt><trkpt lat="44.04447865723662" lon="11.386866115741427"><ele>854.0</ele><time>2026-05-01T12:12:29.999Z</time></trkpt><trkpt lat="44.04453704492434" lon="11.386689746644862"><ele>850.0</ele><time>2026-05-01T12:12:30.999Z</time></trkpt><trkpt lat="44.04465033447966" lon="11.38655721919516"><ele>850.0</ele><time>2026-05-01T12:12:31.999Z</time></trkpt><trkpt lat="44.044708512901444" lon="11.386512779967317"><ele>850.0</ele><time>2026-05-01T12:12:32.999Z</time></trkpt><trkpt lat="44.044837011101976" lon="11.386449904658608"><ele>850.0</ele><time>2026-05-01T12:12:33.999Z</time></trkpt><trkpt lat="44.044973382856426" lon="11.386376129921906"><ele>850.0</ele><time>2026-05-01T12:12:34.999Z</time></trkpt><trkpt lat="44.04508516816784" lon="11.38623077014568"><ele>849.0</ele><time>2026-05-01T12:12:35.999Z</time></trkpt><trkpt lat="44.04513403388017" lon="11.386062066718875"><ele>848.0</ele><time>2026-05-01T12:12:36.999Z</time></trkpt><trkpt lat="44.04520964858201" lon="11.385930319539176"><ele>847.0</ele><time>2026-05-01T12:12:37.999Z</time></trkpt><trkpt lat="44.04529347318927" lon="11.385859156619416"><ele>846.0</ele><time>2026-05-01T12:12:38.999Z</time></trkpt><trkpt lat="44.04539287401981" lon="11.38576472043163"><ele>846.0</ele><time>2026-05-01T12:12:39.999Z</time></trkpt><trkpt lat="44.04547741755895" lon="11.385672631362619"><ele>846.0</ele><time>2026-05-01T12:12:40.999Z</time></trkpt><trkpt lat="44.045516770837544" lon="11.385567479537226"><ele>846.0</ele><time>2026-05-01T12:12:41.999Z</time></trkpt><trkpt lat="44.0454921618308" lon="11.385457440701485"><ele>846.0</ele><time>2026-05-01T12:12:42.999Z</time></trkpt><trkpt lat="44.04541404248754" lon="11.385404850049591"><ele>846.0</ele><time>2026-05-01T12:12:43.999Z</time></trkpt><trkpt lat="44.045318315593" lon="11.38540914652463"><ele>842.5</ele><time>2026-05-01T12:12:44.999Z</time></trkpt><trkpt lat="44.0452169816368" lon="11.385456591481283"><ele>839.0</ele><time>2026-05-01T12:12:45.999Z</time></trkpt><trkpt lat="44.04508965916405" lon="11.385444641820747"><ele>835.5</ele><time>2026-05-01T12:12:47Z</time></trkpt><trkpt lat="44.04494989551905" lon="11.385350891414591"><ele>832.0</ele><time>2026-05-01T12:12:48Z</time></trkpt><trkpt lat="44.04482288295391" lon="11.385317184805661"><ele>832.25</ele><time>2026-05-01T12:12:49Z</time></trkpt><trkpt lat="44.04471433328782" lon="11.385336486356222"><ele>832.5</ele><time>2026-05-01T12:12:50Z</time></trkpt><trkpt lat="44.04459708496263" lon="11.385442264623974"><ele>832.75</ele><time>2026-05-01T12:12:51Z</time></trkpt><trkpt lat="44.04447441131404" lon="11.38562202205713"><ele>833.0</ele><time>2026-05-01T12:12:52Z</time></trkpt><trkpt lat="44.04437092847896" lon="11.385783229447483"><ele>833.0</ele><time>2026-05-01T12:12:53Z</time></trkpt><trkpt lat="44.04425006823334" lon="11.385864434152973"><ele>833.0</ele><time>2026-05-01T12:12:54Z</time></trkpt><trkpt lat="44.044111622209506" lon="11.385870226254168"><ele>833.0</ele><time>2026-05-01T12:12:55Z</time></trkpt><trkpt lat="44.04395625594953" lon="11.385890902965995"><ele>833.0</ele><time>2026-05-01T12:12:56Z</time></trkpt><trkpt lat="44.04378101963186" lon="11.385950718899226"><ele>830.6666666666667</ele><time>2026-05-01T12:12:57Z</time></trkpt><trkpt lat="44.043634744442535" lon="11.386089108476819"><ele>828.3333333333333</ele><time>2026-05-01T12:12:58Z</time></trkpt><trkpt lat="44.04349913834464" lon="11.386241532103535"><ele>826.0</ele><time>2026-05-01T12:12:59Z</time></trkpt><trkpt lat="44.04336442097282" lon="11.386387505036664"><ele>819.75</ele><time>2026-05-01T12:13:00Z</time></trkpt><trkpt lat="44.04326391964599" lon="11.386504129074003"><ele>813.5</ele><time>2026-05-01T12:13:01Z</time></trkpt><trkpt lat="44.0431524609877" lon="11.386633489583083"><ele>807.25</ele><time>2026-05-01T12:13:02Z</time></trkpt><trkpt lat="44.043077769365496" lon="11.386738706645698"><ele>801.0</ele><time>2026-05-01T12:13:03Z</time></trkpt><trkpt lat="44.0429766992362" lon="11.386726153228308"><ele>801.0</ele><time>2026-05-01T12:13:05Z</time></trkpt><trkpt lat="44.04296448919372" lon="11.386608958462835"><ele>801.0</ele><time>2026-05-01T12:13:06Z</time></trkpt><trkpt lat="44.043035254075924" lon="11.386547543731098"><ele>801.0</ele><time>2026-05-01T12:13:07Z</time></trkpt><trkpt lat="44.04314879327202" lon="11.386405976720766"><ele>801.0</ele><time>2026-05-01T12:13:09Z</time></trkpt><trkpt lat="44.043292630122274" lon="11.386201383208686"><ele>802.5</ele><time>2026-05-01T12:13:10Z</time></trkpt><trkpt lat="44.0434645759327" lon="11.385931386958429"><ele>804.0</ele><time>2026-05-01T12:13:11Z</time></trkpt><trkpt lat="44.04361203777064" lon="11.385650567277045"><ele>795.5</ele><time>2026-05-01T12:13:12Z</time></trkpt><trkpt lat="44.04371983574668" lon="11.38536910112554"><ele>787.0</ele><time>2026-05-01T12:13:13Z</time></trkpt><trkpt lat="44.04380637673475" lon="11.385065666756471"><ele>787.0</ele><time>2026-05-01T12:13:14Z</time></trkpt><trkpt lat="44.04388514830507" lon="11.384803604892422"><ele>787.0</ele><time>2026-05-01T12:13:15Z</time></trkpt><trkpt lat="44.04395683425051" lon="11.38460241179656"><ele>787.0</ele><time>2026-05-01T12:13:16Z</time></trkpt><trkpt lat="44.044049919346605" lon="11.384428723978946"><ele>789.4000000000001</ele><time>2026-05-01T12:13:17Z</time></trkpt><trkpt lat="44.04414926031791" lon="11.384287579197132"><ele>791.8000000000001</ele><time>2026-05-01T12:13:18Z</time></trkpt><trkpt lat="44.04422990802249" lon="11.384183927393615"><ele>794.2</ele><time>2026-05-01T12:13:19Z</time></trkpt><trkpt lat="44.04429317564297" lon="11.384046699661303"><ele>796.6</ele><time>2026-05-01T12:13:20Z</time></trkpt><trkpt lat="44.04429377990006" lon="11.383949132728933"><ele>799.0</ele><time>2026-05-01T12:13:21Z</time></trkpt><trkpt lat="44.044156169443234" lon="11.383852813810105"><ele>791.5</ele><time>2026-05-01T12:13:22Z</time></trkpt><trkpt lat="44.04407204588901" lon="11.38386881595487"><ele>784.0</ele><time>2026-05-01T12:13:23Z</time></trkpt><trkpt lat="44.04399229601607" lon="11.383962877628766"><ele>776.5</ele><time>2026-05-01T12:13:24Z</time></trkpt><trkpt lat="44.04388106053651" lon="11.384094245916652"><ele>769.0</ele><time>2026-05-01T12:13:25Z</time></trkpt><trkpt lat="44.04373416491702" lon="11.384282373828496"><ele>769.0</ele><time>2026-05-01T12:13:26Z</time></trkpt><trkpt lat="44.04361574853654" lon="11.38446317265269"><ele>769.0</ele><time>2026-05-01T12:13:27Z</time></trkpt><trkpt lat="44.04351396815164" lon="11.38464992917664"><ele>769.0</ele><time>2026-05-01T12:13:28Z</time></trkpt><trkpt lat="44.04341676056429" lon="11.38483100341165"><ele>766.8000000000001</ele><time>2026-05-01T12:13:29Z</time></trkpt><trkpt lat="44.04333875580066" lon="11.38499804633864"><ele>764.6</ele><time>2026-05-01T12:13:30Z</time></trkpt><trkpt lat="44.04329186636696" lon="11.38510612175845"><ele>762.4</ele><time>2026-05-01T12:13:31Z</time></trkpt><trkpt lat="44.04323198998764" lon="11.385221133260963"><ele>760.2</ele><time>2026-05-01T12:13:32Z</time></trkpt><trkpt lat="44.04315517057035" lon="11.385225188061188"><ele>758.0</ele><time>2026-05-01T12:13:33Z</time></trkpt><trkpt lat="44.043114211302594" lon="11.385034128154606"><ele>758.0</ele><time>2026-05-01T12:13:35Z</time></trkpt><trkpt lat="44.04318891459595" lon="11.384886983952091"><ele>758.0</ele><time>2026-05-01T12:13:36Z</time></trkpt><trkpt lat="44.04326539685634" lon="11.38471579253285"><ele>758.0</ele><time>2026-05-01T12:13:37Z</time></trkpt><trkpt lat="44.04334781200153" lon="11.384533765170843"><ele>758.0</ele><time>2026-05-01T12:13:38Z</time></trkpt><trkpt lat="44.043476403697206" lon="11.384311967386775"><ele>756.5</ele><time>2026-05-01T12:13:39Z</time></trkpt><trkpt lat="44.04359963768889" lon="11.384057570236074"><ele>755.0</ele><time>2026-05-01T12:13:40Z</time></trkpt><trkpt lat="44.04372228501145" lon="11.383784384284139"><ele>755.0</ele><time>2026-05-01T12:13:41Z</time></trkpt><trkpt lat="44.043853042903066" lon="11.38356141597425"><ele>755.0</ele><time>2026-05-01T12:13:42Z</time></trkpt><trkpt lat="44.04396087213215" lon="11.383321239296807"><ele>755.0</ele><time>2026-05-01T12:13:43Z</time></trkpt><trkpt lat="44.044038876482965" lon="11.383079945611449"><ele>753.3333333333333</ele><time>2026-05-01T12:13:44Z</time></trkpt><trkpt lat="44.04411022091601" lon="11.382825010562888"><ele>751.6666666666666</ele><time>2026-05-01T12:13:45Z</time></trkpt><trkpt lat="44.044156006177545" lon="11.382500322870014"><ele>750.0</ele><time>2026-05-01T12:13:46Z</time></trkpt><trkpt lat="44.04418658554317" lon="11.382180416785983"><ele>756.6666666666667</ele><time>2026-05-01T12:13:47Z</time></trkpt><trkpt lat="44.04421127804224" lon="11.381867232588991"><ele>763.3333333333334</ele><time>2026-05-01T12:13:48Z</time></trkpt><trkpt lat="44.044226961096165" lon="11.381571900981116"><ele>770.0</ele><time>2026-05-01T12:13:49Z</time></trkpt><trkpt lat="44.04423259006448" lon="11.381396093506767"><ele>771.75</ele><time>2026-05-01T12:13:50Z</time></trkpt><trkpt lat="44.04423138386772" lon="11.381254436259919"><ele>773.5</ele><time>2026-05-01T12:13:51Z</time></trkpt><trkpt lat="44.04419073723369" lon="11.381083073763184"><ele>775.25</ele><time>2026-05-01T12:13:52Z</time></trkpt><trkpt lat="44.04406752763748" lon="11.380999851694932"><ele>777.0</ele><time>2026-05-01T12:13:53Z</time></trkpt><trkpt lat="44.043954683099095" lon="11.380921123319217"><ele>769.0</ele><time>2026-05-01T12:13:54Z</time></trkpt><trkpt lat="44.04378407212651" lon="11.380877075227382"><ele>761.0</ele><time>2026-05-01T12:13:55Z</time></trkpt><trkpt lat="44.043624773391215" lon="11.380829327734494"><ele>753.0</ele><time>2026-05-01T12:13:56Z</time></trkpt><trkpt lat="44.04350283813978" lon="11.38072121657079"><ele>753.0</ele><time>2026-05-01T12:13:57Z</time></trkpt><trkpt lat="44.04345008470958" lon="11.380540386442718"><ele>753.0</ele><time>2026-05-01T12:13:58Z</time></trkpt><trkpt lat="44.04344261851786" lon="11.380327425203776"><ele>753.0</ele><time>2026-05-01T12:13:59Z</time></trkpt><trkpt lat="44.04344615172599" lon="11.380111337383878"><ele>753.0</ele><time>2026-05-01T12:14:00Z</time></trkpt><trkpt lat="44.04342372186124" lon="11.379869170398203"><ele>756.75</ele><time>2026-05-01T12:14:01Z</time></trkpt><trkpt lat="44.043387352371326" lon="11.37964746061628"><ele>760.5</ele><time>2026-05-01T12:14:02Z</time></trkpt><trkpt lat="44.043338592725995" lon="11.37945245383287"><ele>764.25</ele><time>2026-05-01T12:14:03Z</time></trkpt><trkpt lat="44.04327872355407" lon="11.379311707892658"><ele>768.0</ele><time>2026-05-01T12:14:04Z</time></trkpt><trkpt lat="44.04319764913935" lon="11.379204684589583"><ele>769.5</ele><time>2026-05-01T12:14:05Z</time></trkpt><trkpt lat="44.04309812721489" lon="11.379129949095244"><ele>771.0</ele><time>2026-05-01T12:14:06Z</time></trkpt><trkpt lat="44.042959662562744" lon="11.379153739309315"><ele>772.5</ele><time>2026-05-01T12:14:07Z</time></trkpt><trkpt lat="44.04280471411632" lon="11.379238213040633"><ele>774.0</ele><time>2026-05-01T12:14:08Z</time></trkpt><trkpt lat="44.04262198324472" lon="11.379308797622151"><ele>772.0</ele><time>2026-05-01T12:14:09Z</time></trkpt><trkpt lat="44.04244196868628" lon="11.379355838208562"><ele>770.0</ele><time>2026-05-01T12:14:10Z</time></trkpt><trkpt lat="44.042278129155335" lon="11.379368374737606"><ele>768.0</ele><time>2026-05-01T12:14:11Z</time></trkpt><trkpt lat="44.04211949797983" lon="11.379480967936686"><ele>764.0</ele><time>2026-05-01T12:14:12Z</time></trkpt><trkpt lat="44.04197530217719" lon="11.379691219165414"><ele>760.0</ele><time>2026-05-01T12:14:13Z</time></trkpt><trkpt lat="44.041871772603535" lon="11.379925277382739"><ele>756.0</ele><time>2026-05-01T12:14:14Z</time></trkpt><trkpt lat="44.04177586622524" lon="11.38013968191937"><ele>756.0</ele><time>2026-05-01T12:14:15Z</time></trkpt><trkpt lat="44.04169584595354" lon="11.380300439951435"><ele>756.0</ele><time>2026-05-01T12:14:16Z</time></trkpt><trkpt lat="44.04160463306683" lon="11.380429720066108"><ele>756.0</ele><time>2026-05-01T12:14:17Z</time></trkpt><trkpt lat="44.04152095155707" lon="11.380402064986283"><ele>756.0</ele><time>2026-05-01T12:14:17.999Z</time></trkpt><trkpt lat="44.041441760468366" lon="11.380314093862571"><ele>748.25</ele><time>2026-05-01T12:14:18.999Z</time></trkpt><trkpt lat="44.04138321768233" lon="11.380192843536614"><ele>740.5</ele><time>2026-05-01T12:14:19.999Z</time></trkpt><trkpt lat="44.04125254469974" lon="11.380014381742148"><ele>732.75</ele><time>2026-05-01T12:14:20.999Z</time></trkpt><trkpt lat="44.04115212474645" lon="11.379878816080543"><ele>725.0</ele><time>2026-05-01T12:14:21.999Z</time></trkpt><trkpt lat="44.04109344174416" lon="11.379745463856038"><ele>726.5</ele><time>2026-05-01T12:14:22.999Z</time></trkpt><trkpt lat="44.0410896214394" lon="11.37960581524227"><ele>728.0</ele><time>2026-05-01T12:14:23.999Z</time></trkpt><trkpt lat="44.04119548958674" lon="11.379483751446205"><ele>729.5</ele><time>2026-05-01T12:14:24.999Z</time></trkpt><trkpt lat="44.04128896115017" lon="11.37931553799582"><ele>731.0</ele><time>2026-05-01T12:14:25.999Z</time></trkpt><trkpt lat="44.041376875490336" lon="11.37916226826871"><ele>731.0</ele><time>2026-05-01T12:14:26.999Z</time></trkpt><trkpt lat="44.04142191046408" lon="11.379000607065056"><ele>731.0</ele><time>2026-05-01T12:14:27.999Z</time></trkpt><trkpt lat="44.04139497738307" lon="11.378833072059136"><ele>731.0</ele><time>2026-05-01T12:14:28.999Z</time></trkpt><trkpt lat="44.04133808856002" lon="11.378687388005323"><ele>731.0</ele><time>2026-05-01T12:14:29.999Z</time></trkpt><trkpt lat="44.04122189625214" lon="11.37856825800733"><ele>732.75</ele><time>2026-05-01T12:14:30.999Z</time></trkpt><trkpt lat="44.04109098137873" lon="11.378481090774855"><ele>734.5</ele><time>2026-05-01T12:14:31.999Z</time></trkpt><trkpt lat="44.040977864927974" lon="11.378398408323749"><ele>736.25</ele><time>2026-05-01T12:14:32.999Z</time></trkpt><trkpt lat="44.0408650347556" lon="11.378318091656961"><ele>738.0</ele><time>2026-05-01T12:14:33.999Z</time></trkpt><trkpt lat="44.04076587312528" lon="11.378236067665524"><ele>727.25</ele><time>2026-05-01T12:14:34.999Z</time></trkpt><trkpt lat="44.04069566850608" lon="11.378110412795884"><ele>716.5</ele><time>2026-05-01T12:14:35.999Z</time></trkpt><trkpt lat="44.040676260167324" lon="11.377962302737437"><ele>705.75</ele><time>2026-05-01T12:14:36.999Z</time></trkpt><trkpt lat="44.04070761899295" lon="11.377796817702004"><ele>695.0</ele><time>2026-05-01T12:14:37.999Z</time></trkpt><trkpt lat="44.040787968568175" lon="11.377638543653472"><ele>703.75</ele><time>2026-05-01T12:14:38.999Z</time></trkpt><trkpt lat="44.0408881286803" lon="11.37750819566679"><ele>712.5</ele><time>2026-05-01T12:14:39.999Z</time></trkpt><trkpt lat="44.04099910989741" lon="11.37741123454656"><ele>721.25</ele><time>2026-05-01T12:14:40.999Z</time></trkpt><trkpt lat="44.041083232400155" lon="11.377328569383913"><ele>730.0</ele><time>2026-05-01T12:14:41.999Z</time></trkpt><trkpt lat="44.041168097352106" lon="11.37726521380311"><ele>730.0</ele><time>2026-05-01T12:14:42.999Z</time></trkpt><trkpt lat="44.04124224307852" lon="11.377189712293916"><ele>730.0</ele><time>2026-05-01T12:14:43.999Z</time></trkpt><trkpt lat="44.041291756878124" lon="11.377073555755548"><ele>730.0</ele><time>2026-05-01T12:14:44.999Z</time></trkpt><trkpt lat="44.04129238197365" lon="11.376935635124926"><ele>730.0</ele><time>2026-05-01T12:14:45.999Z</time></trkpt><trkpt lat="44.04123883036485" lon="11.376809659446305"><ele>730.0</ele><time>2026-05-01T12:14:46.999Z</time></trkpt><trkpt lat="44.041140929682975" lon="11.376722734590402"><ele>730.6</ele><time>2026-05-01T12:14:47.999Z</time></trkpt><trkpt lat="44.041031802706264" lon="11.376662216925437"><ele>731.2</ele><time>2026-05-01T12:14:48.999Z</time></trkpt><trkpt lat="44.040933928447814" lon="11.376645922381703"><ele>731.8</ele><time>2026-05-01T12:14:49.999Z</time></trkpt><trkpt lat="44.040849616554134" lon="11.376586102477567"><ele>732.4</ele><time>2026-05-01T12:14:50.999Z</time></trkpt><trkpt lat="44.04079943065958" lon="11.376469767520899"><ele>733.0</ele><time>2026-05-01T12:14:52Z</time></trkpt><trkpt lat="44.04081768997919" lon="11.376313638191089"><ele>733.0</ele><time>2026-05-01T12:14:53Z</time></trkpt><trkpt lat="44.040812446741036" lon="11.376151897029562"><ele>733.0</ele><time>2026-05-01T12:14:54Z</time></trkpt><trkpt lat="44.04081148852981" lon="11.375914221642693"><ele>733.0</ele><time>2026-05-01T12:14:55Z</time></trkpt><trkpt lat="44.040813374785564" lon="11.375689172226972"><ele>733.0</ele><time>2026-05-01T12:14:56Z</time></trkpt><trkpt lat="44.040809085224126" lon="11.375514013377941"><ele>728.75</ele><time>2026-05-01T12:14:57Z</time></trkpt><trkpt lat="44.04078877838515" lon="11.375380061408526"><ele>724.5</ele><time>2026-05-01T12:14:58Z</time></trkpt><trkpt lat="44.040720076499895" lon="11.375298979385253"><ele>720.25</ele><time>2026-05-01T12:14:59Z</time></trkpt><trkpt lat="44.04055506754408" lon="11.37530653724099"><ele>716.0</ele><time>2026-05-01T12:15:00Z</time></trkpt><trkpt lat="44.04042792567093" lon="11.375368737307417"><ele>716.0</ele><time>2026-05-01T12:15:01Z</time></trkpt><trkpt lat="44.040301061962616" lon="11.375354945280877"><ele>716.0</ele><time>2026-05-01T12:15:02Z</time></trkpt><trkpt lat="44.04014000550623" lon="11.375253400759096"><ele>716.0</ele><time>2026-05-01T12:15:03Z</time></trkpt><trkpt lat="44.03998863511023" lon="11.37525415023053"><ele>711.3333333333333</ele><time>2026-05-01T12:15:04Z</time></trkpt><trkpt lat="44.03980165683052" lon="11.375341818903967"><ele>706.6666666666666</ele><time>2026-05-01T12:15:05Z</time></trkpt><trkpt lat="44.03957032553654" lon="11.375385415656119"><ele>702.0</ele><time>2026-05-01T12:15:06Z</time></trkpt><trkpt lat="44.03932650221246" lon="11.375463607231943"><ele>699.5</ele><time>2026-05-01T12:15:07Z</time></trkpt><trkpt lat="44.03907107531141" lon="11.37553762326126"><ele>697.0</ele><time>2026-05-01T12:15:08Z</time></trkpt><trkpt lat="44.03887438623631" lon="11.37567658963954"><ele>697.0</ele><time>2026-05-01T12:15:09Z</time></trkpt><trkpt lat="44.03867879504384" lon="11.375816323491538"><ele>697.0</ele><time>2026-05-01T12:15:10Z</time></trkpt><trkpt lat="44.03852018494059" lon="11.375968079123592"><ele>697.0</ele><time>2026-05-01T12:15:11Z</time></trkpt><trkpt lat="44.03839347992387" lon="11.376102635718585"><ele>692.0</ele><time>2026-05-01T12:15:12Z</time></trkpt><trkpt lat="44.03827674554378" lon="11.376225292308417"><ele>687.0</ele><time>2026-05-01T12:15:13Z</time></trkpt><trkpt lat="44.03816852248049" lon="11.376311776885379"><ele>682.0</ele><time>2026-05-01T12:15:14Z</time></trkpt><trkpt lat="44.03805945987669" lon="11.37633864087907"><ele>677.0</ele><time>2026-05-01T12:15:15Z</time></trkpt><trkpt lat="44.03796287863529" lon="11.376258372755425"><ele>677.0</ele><time>2026-05-01T12:15:16Z</time></trkpt><trkpt lat="44.03785124156292" lon="11.376119704788671"><ele>677.0</ele><time>2026-05-01T12:15:17Z</time></trkpt><trkpt lat="44.03775594955324" lon="11.375919321901618"><ele>677.0</ele><time>2026-05-01T12:15:18Z</time></trkpt><trkpt lat="44.03766131771694" lon="11.375653547199798"><ele>677.3333333333333</ele><time>2026-05-01T12:15:19Z</time></trkpt><trkpt lat="44.03754680197137" lon="11.375374150249467"><ele>677.6666666666666</ele><time>2026-05-01T12:15:20Z</time></trkpt><trkpt lat="44.03746591434488" lon="11.375111648754142"><ele>678.0</ele><time>2026-05-01T12:15:21Z</time></trkpt><trkpt lat="44.03738457616619" lon="11.37491324860871"><ele>673.5999999999999</ele><time>2026-05-01T12:15:22Z</time></trkpt><trkpt lat="44.03729539666286" lon="11.374782754145484"><ele>669.1999999999999</ele><time>2026-05-01T12:15:23Z</time></trkpt><trkpt lat="44.03719791153294" lon="11.374725745564886"><ele>664.8</ele><time>2026-05-01T12:15:24Z</time></trkpt><trkpt lat="44.03713691300505" lon="11.374635562469372"><ele>660.4</ele><time>2026-05-01T12:15:25Z</time></trkpt><trkpt lat="44.03711419360178" lon="11.37453306054742"><ele>656.0</ele><time>2026-05-01T12:15:26Z</time></trkpt><trkpt lat="44.03719473693898" lon="11.374417526992493"><ele>654.0</ele><time>2026-05-01T12:15:27Z</time></trkpt><trkpt lat="44.03732960438942" lon="11.374389573500215"><ele>652.0</ele><time>2026-05-01T12:15:28Z</time></trkpt><trkpt lat="44.03744968426374" lon="11.374459168416978"><ele>650.0</ele><time>2026-05-01T12:15:29Z</time></trkpt><trkpt lat="44.03756472837159" lon="11.3745219877961"><ele>648.0</ele><time>2026-05-01T12:15:30Z</time></trkpt><trkpt lat="44.037659417601034" lon="11.37449640793448"><ele>653.25</ele><time>2026-05-01T12:15:31Z</time></trkpt><trkpt lat="44.03771979111562" lon="11.374385848211512"><ele>658.5</ele><time>2026-05-01T12:15:32Z</time></trkpt><trkpt lat="44.03772459280104" lon="11.374229896219772"><ele>663.75</ele><time>2026-05-01T12:15:33Z</time></trkpt><trkpt lat="44.03765466732476" lon="11.374096077774405"><ele>669.0</ele><time>2026-05-01T12:15:34Z</time></trkpt><trkpt lat="44.03753337650179" lon="11.37403450873775"><ele>662.0</ele><time>2026-05-01T12:15:35Z</time></trkpt><trkpt lat="44.037385488684464" lon="11.374071111194123"><ele>655.0</ele><time>2026-05-01T12:15:36Z</time></trkpt><trkpt lat="44.03720886685599" lon="11.374169942516872"><ele>648.0</ele><time>2026-05-01T12:15:37Z</time></trkpt><trkpt lat="44.03700518182006" lon="11.37424806383078"><ele>648.0</ele><time>2026-05-01T12:15:38Z</time></trkpt><trkpt lat="44.036844326269424" lon="11.374336220570653"><ele>648.0</ele><time>2026-05-01T12:15:39Z</time></trkpt><trkpt lat="44.03672152142072" lon="11.374396153169934"><ele>648.0</ele><time>2026-05-01T12:15:40Z</time></trkpt><trkpt lat="44.03662662937113" lon="11.374507971478254"><ele>648.0</ele><time>2026-05-01T12:15:41Z</time></trkpt><trkpt lat="44.036571358677364" lon="11.374670788223337"><ele>650.6666666666666</ele><time>2026-05-01T12:15:42Z</time></trkpt><trkpt lat="44.03657812675632" lon="11.374886358491468"><ele>653.3333333333333</ele><time>2026-05-01T12:15:43Z</time></trkpt><trkpt lat="44.03664433098387" lon="11.37507565378639"><ele>656.0</ele><time>2026-05-01T12:15:44Z</time></trkpt><trkpt lat="44.03675994379459" lon="11.37525667020666"><ele>656.0</ele><time>2026-05-01T12:15:45Z</time></trkpt><trkpt lat="44.03688893507981" lon="11.37538267536499"><ele>656.0</ele><time>2026-05-01T12:15:46Z</time></trkpt><trkpt lat="44.03701442655432" lon="11.37546836857669"><ele>656.0</ele><time>2026-05-01T12:15:47Z</time></trkpt><trkpt lat="44.037076753377725" lon="11.375588547602991"><ele>656.0</ele><time>2026-05-01T12:15:48Z</time></trkpt><trkpt lat="44.037059927657374" lon="11.375757209798588"><ele>651.6666666666666</ele><time>2026-05-01T12:15:49Z</time></trkpt><trkpt lat="44.03701777096494" lon="11.375950033782214"><ele>647.3333333333334</ele><time>2026-05-01T12:15:50Z</time></trkpt><trkpt lat="44.036962964917905" lon="11.376180570504951"><ele>643.0</ele><time>2026-05-01T12:15:51Z</time></trkpt><trkpt lat="44.03692418884975" lon="11.37640554482268"><ele>642.1999999999999</ele><time>2026-05-01T12:15:52Z</time></trkpt><trkpt lat="44.03689462976021" lon="11.376605911291456"><ele>641.4</ele><time>2026-05-01T12:15:53Z</time></trkpt><trkpt lat="44.036856493830165" lon="11.376752706346785"><ele>640.5999999999999</ele><time>2026-05-01T12:15:54Z</time></trkpt><trkpt lat="44.03683653091065" lon="11.376852205125063"><ele>639.8</ele><time>2026-05-01T12:15:55Z</time></trkpt><trkpt lat="44.03676881417622" lon="11.376883711798007"><ele>639.0</ele><time>2026-05-01T12:15:56Z</time></trkpt><trkpt lat="44.036687474083415" lon="11.376832048003898"><ele>639.0</ele><time>2026-05-01T12:15:57Z</time></trkpt><trkpt lat="44.03664811761439" lon="11.376699588805357"><ele>639.0</ele><time>2026-05-01T12:15:58Z</time></trkpt><trkpt lat="44.03667241657704" lon="11.376525543638458"><ele>639.0</ele><time>2026-05-01T12:15:59Z</time></trkpt><trkpt lat="44.03673015385948" lon="11.376304953167072"><ele>639.0</ele><time>2026-05-01T12:16:00Z</time></trkpt><trkpt lat="44.036781239761595" lon="11.376046747926397"><ele>640.0</ele><time>2026-05-01T12:16:01Z</time></trkpt><trkpt lat="44.03681083382705" lon="11.375861110682917"><ele>641.0</ele><time>2026-05-01T12:16:02Z</time></trkpt><trkpt lat="44.036776937768956" lon="11.375716904019614"><ele>642.0</ele><time>2026-05-01T12:16:03Z</time></trkpt><trkpt lat="44.03668943607844" lon="11.37560000842315"><ele>643.0</ele><time>2026-05-01T12:16:04Z</time></trkpt><trkpt lat="44.03654772265257" lon="11.375480946390995"><ele>636.3333333333334</ele><time>2026-05-01T12:16:05Z</time></trkpt><trkpt lat="44.03636937548095" lon="11.375368480930847"><ele>629.6666666666666</ele><time>2026-05-01T12:16:06Z</time></trkpt><trkpt lat="44.03621157758947" lon="11.375229007107215"><ele>623.0</ele><time>2026-05-01T12:16:07Z</time></trkpt><trkpt lat="44.03610196357802" lon="11.37508539290451"><ele>623.0</ele><time>2026-05-01T12:16:08Z</time></trkpt><trkpt lat="44.036041929214534" lon="11.37492125079242"><ele>623.0</ele><time>2026-05-01T12:16:09Z</time></trkpt><trkpt lat="44.0360216383866" lon="11.374743842692043"><ele>623.0</ele><time>2026-05-01T12:16:10Z</time></trkpt><trkpt lat="44.03600881787207" lon="11.374544842519747"><ele>623.0</ele><time>2026-05-01T12:16:11Z</time></trkpt><trkpt lat="44.03601792102045" lon="11.374365811102628"><ele>623.75</ele><time>2026-05-01T12:16:12Z</time></trkpt><trkpt lat="44.0359748814104" lon="11.374214955709919"><ele>624.5</ele><time>2026-05-01T12:16:13Z</time></trkpt><trkpt lat="44.03586914664721" lon="11.374111140463405"><ele>625.25</ele><time>2026-05-01T12:16:14Z</time></trkpt><trkpt lat="44.03573371471021" lon="11.374071668784334"><ele>626.0</ele><time>2026-05-01T12:16:15Z</time></trkpt><trkpt lat="44.03559839134368" lon="11.374103436854849"><ele>629.0</ele><time>2026-05-01T12:16:16Z</time></trkpt><trkpt lat="44.03548819396847" lon="11.374202236453604"><ele>632.0</ele><time>2026-05-01T12:16:17Z</time></trkpt><trkpt lat="44.035410580933636" lon="11.374370994236651"><ele>635.0</ele><time>2026-05-01T12:16:18Z</time></trkpt><trkpt lat="44.03534363328105" lon="11.374604493057332"><ele>631.3333333333333</ele><time>2026-05-01T12:16:18.999Z</time></trkpt><trkpt lat="44.03522604669537" lon="11.374771649907526"><ele>627.6666666666666</ele><time>2026-05-01T12:16:19.999Z</time></trkpt><trkpt lat="44.035089333901894" lon="11.374929094530106"><ele>624.0</ele><time>2026-05-01T12:16:20.999Z</time></trkpt><trkpt lat="44.03492317251587" lon="11.37512431058407"><ele>623.3333333333334</ele><time>2026-05-01T12:16:21.999Z</time></trkpt><trkpt lat="44.03477240589105" lon="11.37533279112463"><ele>622.6666666666667</ele><time>2026-05-01T12:16:22.999Z</time></trkpt><trkpt lat="44.03460356599598" lon="11.375497527136607"><ele>622.0</ele><time>2026-05-01T12:16:23.999Z</time></trkpt><trkpt lat="44.034464435098" lon="11.375655721029053"><ele>619.75</ele><time>2026-05-01T12:16:24.999Z</time></trkpt><trkpt lat="44.03433805292448" lon="11.375753836961026"><ele>617.5</ele><time>2026-05-01T12:16:25.999Z</time></trkpt><trkpt lat="44.03421309161456" lon="11.37579782877321"><ele>615.25</ele><time>2026-05-01T12:16:26.999Z</time></trkpt><trkpt lat="44.03408759823282" lon="11.375816204308068"><ele>613.0</ele><time>2026-05-01T12:16:27.999Z</time></trkpt><trkpt lat="44.03396537116568" lon="11.37576411518666"><ele>611.5</ele><time>2026-05-01T12:16:28.999Z</time></trkpt><trkpt lat="44.03382408823861" lon="11.375716336398161"><ele>610.0</ele><time>2026-05-01T12:16:29.999Z</time></trkpt><trkpt lat="44.03368471183932" lon="11.375679455349758"><ele>608.5</ele><time>2026-05-01T12:16:30.999Z</time></trkpt><trkpt lat="44.033549242982055" lon="11.375626335775484"><ele>607.0</ele><time>2026-05-01T12:16:31.999Z</time></trkpt><trkpt lat="44.03340867286847" lon="11.375605141365751"><ele>608.3333333333334</ele><time>2026-05-01T12:16:32.999Z</time></trkpt><trkpt lat="44.033257387975276" lon="11.375645933804"><ele>609.6666666666666</ele><time>2026-05-01T12:16:33.999Z</time></trkpt><trkpt lat="44.03310259706499" lon="11.375756297920665"><ele>611.0</ele><time>2026-05-01T12:16:34.999Z</time></trkpt><trkpt lat="44.03298037606616" lon="11.375928436657118"><ele>611.0</ele><time>2026-05-01T12:16:35.999Z</time></trkpt><trkpt lat="44.032897077702444" lon="11.376132471242412"><ele>611.0</ele><time>2026-05-01T12:16:36.999Z</time></trkpt><trkpt lat="44.03284817504687" lon="11.37633860477867"><ele>611.0</ele><time>2026-05-01T12:16:37.999Z</time></trkpt><trkpt lat="44.03279161680928" lon="11.376516029993343"><ele>607.75</ele><time>2026-05-01T12:16:38.999Z</time></trkpt><trkpt lat="44.0327317349162" lon="11.376654468795168"><ele>604.5</ele><time>2026-05-01T12:16:39.999Z</time></trkpt><trkpt lat="44.03263234861591" lon="11.376750455216659"><ele>601.25</ele><time>2026-05-01T12:16:40.999Z</time></trkpt><trkpt lat="44.03250598712128" lon="11.376816870436132"><ele>598.0</ele><time>2026-05-01T12:16:41.999Z</time></trkpt><trkpt lat="44.03235096665" lon="11.376853339547635"><ele>596.3333333333334</ele><time>2026-05-01T12:16:42.999Z</time></trkpt><trkpt lat="44.03216889682329" lon="11.376881490772272"><ele>594.6666666666666</ele><time>2026-05-01T12:16:43.999Z</time></trkpt><trkpt lat="44.03197098203796" lon="11.376908256409997"><ele>593.0</ele><time>2026-05-01T12:16:44.999Z</time></trkpt><trkpt lat="44.03175506985166" lon="11.376939321596897"><ele>593.3333333333333</ele><time>2026-05-01T12:16:45.999Z</time></trkpt><trkpt lat="44.03153584060993" lon="11.376921178563695"><ele>593.6666666666666</ele><time>2026-05-01T12:16:46.999Z</time></trkpt><trkpt lat="44.03133014170665" lon="11.376894554230947"><ele>594.0</ele><time>2026-05-01T12:16:47.999Z</time></trkpt><trkpt lat="44.03114201766701" lon="11.376878726935226"><ele>594.0</ele><time>2026-05-01T12:16:48.999Z</time></trkpt><trkpt lat="44.0309849049528" lon="11.376876352076694"><ele>594.0</ele><time>2026-05-01T12:16:49.999Z</time></trkpt><trkpt lat="44.03084600379845" lon="11.376887207740394"><ele>594.0</ele><time>2026-05-01T12:16:50.999Z</time></trkpt><trkpt lat="44.030740104996624" lon="11.376950372970072"><ele>594.0</ele><time>2026-05-01T12:16:51.999Z</time></trkpt><trkpt lat="44.03067511509199" lon="11.377082432726505"><ele>591.25</ele><time>2026-05-01T12:16:52.999Z</time></trkpt><trkpt lat="44.030650958156784" lon="11.377277388506633"><ele>588.5</ele><time>2026-05-01T12:16:53.999Z</time></trkpt><trkpt lat="44.030628772238444" lon="11.377484662432737"><ele>585.75</ele><time>2026-05-01T12:16:54.999Z</time></trkpt><trkpt lat="44.03056755301584" lon="11.377623680730997"><ele>583.0</ele><time>2026-05-01T12:16:55.999Z</time></trkpt><trkpt lat="44.0304626295133" lon="11.377690704649515"><ele>583.0</ele><time>2026-05-01T12:16:56.999Z</time></trkpt><trkpt lat="44.03031962206536" lon="11.377757721313069"><ele>583.0</ele><time>2026-05-01T12:16:58Z</time></trkpt><trkpt lat="44.03021013192302" lon="11.3779109049896"><ele>583.0</ele><time>2026-05-01T12:16:59Z</time></trkpt><trkpt lat="44.03014019568415" lon="11.378111267167332"><ele>580.5</ele><time>2026-05-01T12:17:00Z</time></trkpt><trkpt lat="44.030058452087964" lon="11.378265445970072"><ele>578.0</ele><time>2026-05-01T12:17:01Z</time></trkpt><trkpt lat="44.029947355054546" lon="11.37834593340633"><ele>575.5</ele><time>2026-05-01T12:17:02Z</time></trkpt><trkpt lat="44.029808951757545" lon="11.378368866792464"><ele>573.0</ele><time>2026-05-01T12:17:03Z</time></trkpt><trkpt lat="44.02966763443638" lon="11.37830913803543"><ele>571.3333333333334</ele><time>2026-05-01T12:17:04Z</time></trkpt><trkpt lat="44.02951032869125" lon="11.378204511354918"><ele>569.6666666666667</ele><time>2026-05-01T12:17:05Z</time></trkpt><trkpt lat="44.02935523947937" lon="11.378080143022547"><ele>568.0</ele><time>2026-05-01T12:17:06Z</time></trkpt><trkpt lat="44.02925624481514" lon="11.377908796582632"><ele>568.0</ele><time>2026-05-01T12:17:07Z</time></trkpt><trkpt lat="44.02918437658537" lon="11.377756026696936"><ele>568.0</ele><time>2026-05-01T12:17:08Z</time></trkpt><trkpt lat="44.02921233986433" lon="11.377560638025823"><ele>568.0</ele><time>2026-05-01T12:17:09Z</time></trkpt><trkpt lat="44.029232920220636" lon="11.377364933734878"><ele>568.0</ele><time>2026-05-01T12:17:10Z</time></trkpt><trkpt lat="44.029238314669655" lon="11.377199574184448"><ele>566.6666666666667</ele><time>2026-05-01T12:17:11Z</time></trkpt><trkpt lat="44.02915771732292" lon="11.377047517713399"><ele>565.3333333333334</ele><time>2026-05-01T12:17:12Z</time></trkpt><trkpt lat="44.0290100582591" lon="11.376952908487162"><ele>564.0</ele><time>2026-05-01T12:17:13Z</time></trkpt><trkpt lat="44.028831944808246" lon="11.376927843662852"><ele>564.0</ele><time>2026-05-01T12:17:14Z</time></trkpt><trkpt lat="44.028639418872196" lon="11.376901393805234"><ele>564.0</ele><time>2026-05-01T12:17:15Z</time></trkpt><trkpt lat="44.028466749873246" lon="11.376755504965281"><ele>564.0</ele><time>2026-05-01T12:17:16Z</time></trkpt><trkpt lat="44.02827954868517" lon="11.376597259519597"><ele>561.6666666666666</ele><time>2026-05-01T12:17:17Z</time></trkpt><trkpt lat="44.02808455214816" lon="11.376450110296913"><ele>559.3333333333333</ele><time>2026-05-01T12:17:18Z</time></trkpt><trkpt lat="44.027928258379085" lon="11.37631269175123"><ele>557.0</ele><time>2026-05-01T12:17:19Z</time></trkpt><trkpt lat="44.027801698870284" lon="11.37617003040011"><ele>557.0</ele><time>2026-05-01T12:17:20Z</time></trkpt><trkpt lat="44.02771899270816" lon="11.375996537086417"><ele>557.0</ele><time>2026-05-01T12:17:21Z</time></trkpt><trkpt lat="44.02767686528788" lon="11.375788583891111"><ele>557.0</ele><time>2026-05-01T12:17:22Z</time></trkpt><trkpt lat="44.02759575587456" lon="11.375618127004872"><ele>552.6666666666666</ele><time>2026-05-01T12:17:23Z</time></trkpt><trkpt lat="44.02745247853365" lon="11.375483309901036"><ele>548.3333333333334</ele><time>2026-05-01T12:17:24Z</time></trkpt><trkpt lat="44.02723808700269" lon="11.375353276808477"><ele>544.0</ele><time>2026-05-01T12:17:25Z</time></trkpt><trkpt lat="44.02699417899769" lon="11.37520006405504"><ele>544.0</ele><time>2026-05-01T12:17:26Z</time></trkpt><trkpt lat="44.02673405840397" lon="11.37499715366978"><ele>544.0</ele><time>2026-05-01T12:17:27Z</time></trkpt><trkpt lat="44.02650684345574" lon="11.374786326855174"><ele>538.6666666666667</ele><time>2026-05-01T12:17:28Z</time></trkpt><trkpt lat="44.026331245512736" lon="11.374614154444425"><ele>533.3333333333334</ele><time>2026-05-01T12:17:29Z</time></trkpt><trkpt lat="44.026151590214404" lon="11.374423828863053"><ele>528.0</ele><time>2026-05-01T12:17:30Z</time></trkpt><trkpt lat="44.02606308352941" lon="11.374286001033042"><ele>528.0</ele><time>2026-05-01T12:17:31Z</time></trkpt><trkpt lat="44.025964572853226" lon="11.374061411111802"><ele>528.0</ele><time>2026-05-01T12:17:32Z</time></trkpt><trkpt lat="44.025908253984184" lon="11.373860719008816"><ele>528.0</ele><time>2026-05-01T12:17:33Z</time></trkpt><trkpt lat="44.02591274835327" lon="11.37368471481366"><ele>526.0</ele><time>2026-05-01T12:17:34Z</time></trkpt><trkpt lat="44.02598221630611" lon="11.373547840392707"><ele>524.0</ele><time>2026-05-01T12:17:35Z</time></trkpt><trkpt lat="44.0260813521423" lon="11.373327107509276"><ele>522.0</ele><time>2026-05-01T12:17:36Z</time></trkpt><trkpt lat="44.02620413042796" lon="11.373122531278609"><ele>520.5</ele><time>2026-05-01T12:17:37Z</time></trkpt><trkpt lat="44.02632515929718" lon="11.372978175302343"><ele>519.0</ele><time>2026-05-01T12:17:38Z</time></trkpt><trkpt lat="44.026472921814374" lon="11.372928533530132"><ele>517.5</ele><time>2026-05-01T12:17:39Z</time></trkpt><trkpt lat="44.02660892205513" lon="11.372909252188892"><ele>516.0</ele><time>2026-05-01T12:17:40Z</time></trkpt><trkpt lat="44.026754055425776" lon="11.372857707656726"><ele>516.0</ele><time>2026-05-01T12:17:41Z</time></trkpt><trkpt lat="44.02686593672225" lon="11.372726650731265"><ele>516.0</ele><time>2026-05-01T12:17:42Z</time></trkpt><trkpt lat="44.026928626399624" lon="11.372519580986186"><ele>516.0</ele><time>2026-05-01T12:17:43Z</time></trkpt><trkpt lat="44.027019632749855" lon="11.372353558211433"><ele>516.0</ele><time>2026-05-01T12:17:44Z</time></trkpt><trkpt lat="44.0271374234571" lon="11.372277007378287"><ele>516.0</ele><time>2026-05-01T12:17:45Z</time></trkpt><trkpt lat="44.02727548182081" lon="11.372197602451694"><ele>516.0</ele><time>2026-05-01T12:17:46Z</time></trkpt><trkpt lat="44.027395232534495" lon="11.372071957732658"><ele>516.0</ele><time>2026-05-01T12:17:47Z</time></trkpt><trkpt lat="44.02742406108599" lon="11.371871272352756"><ele>515.0</ele><time>2026-05-01T12:17:48Z</time></trkpt><trkpt lat="44.027375314434906" lon="11.371710888839491"><ele>514.0</ele><time>2026-05-01T12:17:49Z</time></trkpt><trkpt lat="44.02738453370297" lon="11.371574543367325"><ele>513.0</ele><time>2026-05-01T12:17:50Z</time></trkpt><trkpt lat="44.027476386274365" lon="11.371480041437536"><ele>512.0</ele><time>2026-05-01T12:17:51Z</time></trkpt><trkpt lat="44.02761842297436" lon="11.371388347746288"><ele>503.66666666666663</ele><time>2026-05-01T12:17:52Z</time></trkpt><trkpt lat="44.02775235455122" lon="11.371272022329714"><ele>495.33333333333337</ele><time>2026-05-01T12:17:53Z</time></trkpt><trkpt lat="44.02791920722756" lon="11.371140580209415"><ele>487.0</ele><time>2026-05-01T12:17:54Z</time></trkpt><trkpt lat="44.02807405982822" lon="11.370992286609312"><ele>487.0</ele><time>2026-05-01T12:17:55Z</time></trkpt><trkpt lat="44.02824836641907" lon="11.37090537254667"><ele>487.0</ele><time>2026-05-01T12:17:56Z</time></trkpt><trkpt lat="44.028413417067036" lon="11.370838557041594"><ele>487.0</ele><time>2026-05-01T12:17:57Z</time></trkpt><trkpt lat="44.02856376376369" lon="11.370784949263468"><ele>489.6</ele><time>2026-05-01T12:17:58Z</time></trkpt><trkpt lat="44.02871216433956" lon="11.37078942548869"><ele>492.20000000000005</ele><time>2026-05-01T12:17:59Z</time></trkpt><trkpt lat="44.0288356839831" lon="11.370821870710287"><ele>494.8</ele><time>2026-05-01T12:18:00Z</time></trkpt><trkpt lat="44.02890466819828" lon="11.370839502308215"><ele>497.4</ele><time>2026-05-01T12:18:01Z</time></trkpt><trkpt lat="44.028993443100106" lon="11.370785278031374"><ele>500.0</ele><time>2026-05-01T12:18:02Z</time></trkpt><trkpt lat="44.02901176086456" lon="11.370661188522632"><ele>500.0</ele><time>2026-05-01T12:18:03Z</time></trkpt><trkpt lat="44.02897747044561" lon="11.370558347370661"><ele>500.0</ele><time>2026-05-01T12:18:04Z</time></trkpt><trkpt lat="44.02887968561926" lon="11.370494136385254"><ele>500.0</ele><time>2026-05-01T12:18:05Z</time></trkpt><trkpt lat="44.02872907434542" lon="11.370498996819537"><ele>500.0</ele><time>2026-05-01T12:18:06Z</time></trkpt><trkpt lat="44.028555349282094" lon="11.370512767160815"><ele>491.3333333333333</ele><time>2026-05-01T12:18:07Z</time></trkpt><trkpt lat="44.028393449855216" lon="11.370491264254733"><ele>482.66666666666663</ele><time>2026-05-01T12:18:08Z</time></trkpt><trkpt lat="44.0282018118832" lon="11.370493580372461"><ele>474.0</ele><time>2026-05-01T12:18:09Z</time></trkpt><trkpt lat="44.028021372280435" lon="11.370516209033012"><ele>478.33333333333337</ele><time>2026-05-01T12:18:10Z</time></trkpt><trkpt lat="44.027853297908194" lon="11.370592254150056"><ele>482.6666666666667</ele><time>2026-05-01T12:18:11Z</time></trkpt><trkpt lat="44.027665661303274" lon="11.370674260049382"><ele>487.0</ele><time>2026-05-01T12:18:12Z</time></trkpt><trkpt lat="44.02747934491636" lon="11.370694765810645"><ele>484.0</ele><time>2026-05-01T12:18:13Z</time></trkpt><trkpt lat="44.027300050449796" lon="11.37071494788045"><ele>481.0</ele><time>2026-05-01T12:18:14Z</time></trkpt><trkpt lat="44.0271221623137" lon="11.37071972086413"><ele>478.0</ele><time>2026-05-01T12:18:15Z</time></trkpt><trkpt lat="44.02695147717761" lon="11.37073068140733"><ele>478.0</ele><time>2026-05-01T12:18:16Z</time></trkpt><trkpt lat="44.02677929532769" lon="11.370745814926543"><ele>478.0</ele><time>2026-05-01T12:18:17Z</time></trkpt><trkpt lat="44.02661610762478" lon="11.370758009526991"><ele>478.0</ele><time>2026-05-01T12:18:18Z</time></trkpt><trkpt lat="44.02647227480845" lon="11.370726974711971"><ele>476.75</ele><time>2026-05-01T12:18:18.999Z</time></trkpt><trkpt lat="44.026353228094735" lon="11.370621954150458"><ele>475.5</ele><time>2026-05-01T12:18:19.999Z</time></trkpt><trkpt lat="44.02626015919668" lon="11.370548502917677"><ele>474.25</ele><time>2026-05-01T12:18:20.999Z</time></trkpt><trkpt lat="44.02614548884575" lon="11.370477805498336"><ele>473.0</ele><time>2026-05-01T12:18:21.999Z</time></trkpt><trkpt lat="44.026047591840545" lon="11.37038903734911"><ele>471.99999999999994</ele><time>2026-05-01T12:18:22.999Z</time></trkpt><trkpt lat="44.02595337517291" lon="11.370311453275654"><ele>471.0</ele><time>2026-05-01T12:18:23.999Z</time></trkpt><trkpt lat="44.02587006996367" lon="11.370246444046867"><ele>470.0</ele><time>2026-05-01T12:18:24.999Z</time></trkpt><trkpt lat="44.02580702972425" lon="11.370178408808929"><ele>469.0</ele><time>2026-05-01T12:18:25.999Z</time></trkpt><trkpt lat="44.02573350623618" lon="11.370125792142577"><ele>467.99999999999994</ele><time>2026-05-01T12:18:26.999Z</time></trkpt><trkpt lat="44.025664991961385" lon="11.370064126468861"><ele>467.0</ele><time>2026-05-01T12:18:27.999Z</time></trkpt><trkpt lat="44.02559064275807" lon="11.370008683583652"><ele>465.20000000000005</ele><time>2026-05-01T12:18:28.999Z</time></trkpt><trkpt lat="44.025508966932335" lon="11.369953963828678"><ele>463.40000000000003</ele><time>2026-05-01T12:18:29.999Z</time></trkpt><trkpt lat="44.02541285509034" lon="11.369895643348672"><ele>461.59999999999997</ele><time>2026-05-01T12:18:30.999Z</time></trkpt><trkpt lat="44.02530178513086" lon="11.369839291183595"><ele>459.79999999999995</ele><time>2026-05-01T12:18:31.999Z</time></trkpt><trkpt lat="44.02517983024078" lon="11.369801904166332"><ele>458.0</ele><time>2026-05-01T12:18:32.999Z</time></trkpt><trkpt lat="44.02505017894557" lon="11.369768645948954"><ele>457.0</ele><time>2026-05-01T12:18:33.999Z</time></trkpt><trkpt lat="44.02491611999456" lon="11.369740359933617"><ele>456.0</ele><time>2026-05-01T12:18:34.999Z</time></trkpt><trkpt lat="44.02478265592702" lon="11.3697149648293"><ele>455.0</ele><time>2026-05-01T12:18:35.999Z</time></trkpt><trkpt lat="44.024636891433595" lon="11.369690144288908"><ele>454.0</ele><time>2026-05-01T12:18:36.999Z</time></trkpt><trkpt lat="44.02448665188642" lon="11.369671363730966"><ele>454.0</ele><time>2026-05-01T12:18:37.999Z</time></trkpt><trkpt lat="44.02434365770683" lon="11.369662883365677"><ele>454.0</ele><time>2026-05-01T12:18:38.999Z</time></trkpt><trkpt lat="44.024211664975056" lon="11.369700294475853"><ele>454.0</ele><time>2026-05-01T12:18:39.999Z</time></trkpt><trkpt lat="44.02408910730361" lon="11.36976655352097"><ele>454.0</ele><time>2026-05-01T12:18:40.999Z</time></trkpt><trkpt lat="44.02399757087436" lon="11.369960915982531"><ele>451.75</ele><time>2026-05-01T12:18:41.999Z</time></trkpt><trkpt lat="44.02388511028307" lon="11.37011188128857"><ele>449.5</ele><time>2026-05-01T12:18:42.999Z</time></trkpt><trkpt lat="44.02377497638604" lon="11.370235856152147"><ele>447.25</ele><time>2026-05-01T12:18:43.999Z</time></trkpt><trkpt lat="44.02365665528754" lon="11.370312269642048"><ele>445.0</ele><time>2026-05-01T12:18:44.999Z</time></trkpt><trkpt lat="44.02351718063454" lon="11.370357965162771"><ele>445.0</ele><time>2026-05-01T12:18:45.999Z</time></trkpt><trkpt lat="44.02336982835779" lon="11.370398644101176"><ele>445.0</ele><time>2026-05-01T12:18:46.999Z</time></trkpt><trkpt lat="44.02322595814269" lon="11.370433190869486"><ele>445.0</ele><time>2026-05-01T12:18:47.999Z</time></trkpt><trkpt lat="44.02309302208924" lon="11.370466475132886"><ele>445.0</ele><time>2026-05-01T12:18:48.999Z</time></trkpt><trkpt lat="44.02296104631616" lon="11.370497852156557"><ele>440.75</ele><time>2026-05-01T12:18:49.999Z</time></trkpt><trkpt lat="44.02283234767882" lon="11.37053063961535"><ele>436.5</ele><time>2026-05-01T12:18:50.999Z</time></trkpt><trkpt lat="44.02271105465345" lon="11.370562820707548"><ele>432.25</ele><time>2026-05-01T12:18:51.999Z</time></trkpt><trkpt lat="44.022595187820045" lon="11.37057982521466"><ele>428.0</ele><time>2026-05-01T12:18:52.999Z</time></trkpt><trkpt lat="44.02248204986665" lon="11.370567196037564"><ele>427.5</ele><time>2026-05-01T12:18:53.999Z</time></trkpt><trkpt lat="44.02238314653983" lon="11.370501875795004"><ele>427.0</ele><time>2026-05-01T12:18:54.999Z</time></trkpt><trkpt lat="44.02226768908549" lon="11.370431212105286"><ele>426.5</ele><time>2026-05-01T12:18:55.999Z</time></trkpt><trkpt lat="44.02212933864599" lon="11.370393836810297"><ele>426.0</ele><time>2026-05-01T12:18:56.999Z</time></trkpt><trkpt lat="44.02199758582025" lon="11.370415982718203"><ele>426.0</ele><time>2026-05-01T12:18:57.999Z</time></trkpt><trkpt lat="44.0218870752878" lon="11.370469184759841"><ele>426.0</ele><time>2026-05-01T12:18:58.999Z</time></trkpt><trkpt lat="44.02180972431579" lon="11.370520164069344"><ele>426.0</ele><time>2026-05-01T12:18:59.999Z</time></trkpt><trkpt lat="44.02173735335708" lon="11.370540118227487"><ele>426.0</ele><time>2026-05-01T12:19:00.999Z</time></trkpt><trkpt lat="44.02165312572957" lon="11.370583661557246"><ele>426.0</ele><time>2026-05-01T12:19:03Z</time></trkpt><trkpt lat="44.02156101370007" lon="11.370615542208666"><ele>423.8</ele><time>2026-05-01T12:19:53Z</time></trkpt><trkpt lat="44.02148137902455" lon="11.370630229605775"><ele>421.6</ele><time>2026-05-01T12:19:54Z</time></trkpt><trkpt lat="44.0213877947544" lon="11.37061436783486"><ele>419.4</ele><time>2026-05-01T12:19:55Z</time></trkpt><trkpt lat="44.02128203914216" lon="11.370576115062441"><ele>417.2</ele><time>2026-05-01T12:19:56Z</time></trkpt><trkpt lat="44.02117227992057" lon="11.370522829238743"><ele>415.0</ele><time>2026-05-01T12:19:57Z</time></trkpt><trkpt lat="44.02106142555937" lon="11.370457285204282"><ele>415.0</ele><time>2026-05-01T12:19:58Z</time></trkpt><trkpt lat="44.020958310828014" lon="11.37038104654467"><ele>415.0</ele><time>2026-05-01T12:19:59Z</time></trkpt><trkpt lat="44.02086361241252" lon="11.370291252410949"><ele>415.0</ele><time>2026-05-01T12:20:00Z</time></trkpt><trkpt lat="44.02077250876119" lon="11.370195794743287"><ele>415.0</ele><time>2026-05-01T12:20:01Z</time></trkpt><trkpt lat="44.02069481769374" lon="11.3700790986103"><ele>411.5</ele><time>2026-05-01T12:20:02Z</time></trkpt><trkpt lat="44.02060486136732" lon="11.369990744039836"><ele>408.0</ele><time>2026-05-01T12:20:03Z</time></trkpt><trkpt lat="44.02048449539223" lon="11.369952195591738"><ele>404.5</ele><time>2026-05-01T12:20:04Z</time></trkpt><trkpt lat="44.02034205087655" lon="11.369982084720913"><ele>401.0</ele><time>2026-05-01T12:20:05Z</time></trkpt><trkpt lat="44.02018467217979" lon="11.370008481969611"><ele>401.0</ele><time>2026-05-01T12:20:06Z</time></trkpt><trkpt lat="44.020018948843706" lon="11.370035984686806"><ele>401.0</ele><time>2026-05-01T12:20:07Z</time></trkpt><trkpt lat="44.01985324752826" lon="11.370066917990027"><ele>401.0</ele><time>2026-05-01T12:20:08Z</time></trkpt><trkpt lat="44.019685091382684" lon="11.37012108356114"><ele>397.66666666666663</ele><time>2026-05-01T12:20:09Z</time></trkpt><trkpt lat="44.01950986041484" lon="11.370165398946275"><ele>394.33333333333337</ele><time>2026-05-01T12:20:10Z</time></trkpt><trkpt lat="44.01933618474792" lon="11.370262159114784"><ele>391.0</ele><time>2026-05-01T12:20:11Z</time></trkpt><trkpt lat="44.019175356550214" lon="11.370410942459696"><ele>392.6666666666667</ele><time>2026-05-01T12:20:12Z</time></trkpt><trkpt lat="44.019013419699654" lon="11.370557522805482"><ele>394.33333333333337</ele><time>2026-05-01T12:20:13Z</time></trkpt><trkpt lat="44.018849328712705" lon="11.370658905382893"><ele>396.0</ele><time>2026-05-01T12:20:14Z</time></trkpt><trkpt lat="44.01868506164451" lon="11.370765868626261"><ele>396.0</ele><time>2026-05-01T12:20:15Z</time></trkpt><trkpt lat="44.01854487026116" lon="11.370888913987814"><ele>396.0</ele><time>2026-05-01T12:20:16Z</time></trkpt><trkpt lat="44.01841942135083" lon="11.370966427676764"><ele>396.0</ele><time>2026-05-01T12:20:17Z</time></trkpt><trkpt lat="44.018297394998434" lon="11.370988550515658"><ele>396.0</ele><time>2026-05-01T12:20:18Z</time></trkpt><trkpt lat="44.01817238086565" lon="11.370950098257458"><ele>391.6666666666667</ele><time>2026-05-01T12:20:19Z</time></trkpt><trkpt lat="44.01805107547074" lon="11.3708568668893"><ele>387.33333333333337</ele><time>2026-05-01T12:20:20Z</time></trkpt><trkpt lat="44.017909005000114" lon="11.37073504245628"><ele>383.0</ele><time>2026-05-01T12:20:21Z</time></trkpt><trkpt lat="44.01774814402226" lon="11.370605003958266"><ele>383.33333333333337</ele><time>2026-05-01T12:20:21.999Z</time></trkpt><trkpt lat="44.01759787057927" lon="11.370462686175363"><ele>383.6666666666667</ele><time>2026-05-01T12:20:22.999Z</time></trkpt><trkpt lat="44.01745449218905" lon="11.370350046156998"><ele>384.0</ele><time>2026-05-01T12:20:23.999Z</time></trkpt><trkpt lat="44.01732233532106" lon="11.370282096998878"><ele>384.33333333333337</ele><time>2026-05-01T12:20:24.999Z</time></trkpt><trkpt lat="44.01718237278348" lon="11.370283192229268"><ele>384.6666666666667</ele><time>2026-05-01T12:20:25.999Z</time></trkpt><trkpt lat="44.01702978079981" lon="11.37037341628923"><ele>385.0</ele><time>2026-05-01T12:20:26.999Z</time></trkpt><trkpt lat="44.01685830118246" lon="11.370498403550272"><ele>385.33333333333337</ele><time>2026-05-01T12:20:27.999Z</time></trkpt><trkpt lat="44.016683056731374" lon="11.370610365514855"><ele>385.66666666666663</ele><time>2026-05-01T12:20:28.999Z</time></trkpt><trkpt lat="44.016531497230424" lon="11.370736493860667"><ele>386.0</ele><time>2026-05-01T12:20:29.999Z</time></trkpt><trkpt lat="44.01642235188855" lon="11.370908359586823"><ele>386.5</ele><time>2026-05-01T12:20:30.999Z</time></trkpt><trkpt lat="44.01634384256319" lon="11.371114969116334"><ele>387.0</ele><time>2026-05-01T12:20:31.999Z</time></trkpt><trkpt lat="44.01625253038035" lon="11.37123352892703"><ele>387.5</ele><time>2026-05-01T12:20:32.999Z</time></trkpt><trkpt lat="44.01612799530374" lon="11.371248727561898"><ele>388.0</ele><time>2026-05-01T12:20:33.999Z</time></trkpt><trkpt lat="44.01599681442647" lon="11.371195614682335"><ele>388.0</ele><time>2026-05-01T12:20:34.999Z</time></trkpt><trkpt lat="44.01585523530369" lon="11.371066586917083"><ele>388.0</ele><time>2026-05-01T12:20:35.999Z</time></trkpt><trkpt lat="44.015689945915646" lon="11.371012356258191"><ele>388.0</ele><time>2026-05-01T12:20:36.999Z</time></trkpt><trkpt lat="44.01551873905007" lon="11.371079270881566"><ele>386.0</ele><time>2026-05-01T12:20:37.999Z</time></trkpt><trkpt lat="44.0153571649446" lon="11.371199876869793"><ele>384.0</ele><time>2026-05-01T12:20:38.999Z</time></trkpt><trkpt lat="44.015207235311316" lon="11.371276588539686"><ele>382.0</ele><time>2026-05-01T12:20:39.999Z</time></trkpt><trkpt lat="44.01503713270402" lon="11.371263296732282"><ele>378.3333333333333</ele><time>2026-05-01T12:20:40.999Z</time></trkpt><trkpt lat="44.014846008671505" lon="11.371190875312253"><ele>374.6666666666667</ele><time>2026-05-01T12:20:41.999Z</time></trkpt><trkpt lat="44.014637486275085" lon="11.371152059827429"><ele>371.0</ele><time>2026-05-01T12:20:42.999Z</time></trkpt><trkpt lat="44.014441057101095" lon="11.371047645143186"><ele>371.0</ele><time>2026-05-01T12:20:43.999Z</time></trkpt><trkpt lat="44.014265471295154" lon="11.370885371094397"><ele>371.0</ele><time>2026-05-01T12:20:44.999Z</time></trkpt><trkpt lat="44.01408892176217" lon="11.370778832318873"><ele>371.0</ele><time>2026-05-01T12:20:45.999Z</time></trkpt><trkpt lat="44.01392242420435" lon="11.37069254083939"><ele>369.6666666666667</ele><time>2026-05-01T12:20:46.999Z</time></trkpt><trkpt lat="44.013766944614794" lon="11.370595913864534"><ele>368.3333333333333</ele><time>2026-05-01T12:20:47.999Z</time></trkpt><trkpt lat="44.013638975887304" lon="11.370427052555497"><ele>367.0</ele><time>2026-05-01T12:20:48.999Z</time></trkpt><trkpt lat="44.01352640120875" lon="11.370184691816577"><ele>366.5</ele><time>2026-05-01T12:20:49.999Z</time></trkpt><trkpt lat="44.01342394655939" lon="11.369892657256058"><ele>366.0</ele><time>2026-05-01T12:20:50.999Z</time></trkpt><trkpt lat="44.013318966036735" lon="11.369593786631064"><ele>360.0</ele><time>2026-05-01T12:20:51.999Z</time></trkpt><trkpt lat="44.01319572680197" lon="11.369322561999386"><ele>354.0</ele><time>2026-05-01T12:20:52.999Z</time></trkpt><trkpt lat="44.013031384916644" lon="11.36909027340953"><ele>354.0</ele><time>2026-05-01T12:20:53.999Z</time></trkpt><trkpt lat="44.01285145348514" lon="11.368893523599583"><ele>354.0</ele><time>2026-05-01T12:20:54.999Z</time></trkpt><trkpt lat="44.012682195898996" lon="11.36870658156819"><ele>354.0</ele><time>2026-05-01T12:20:55.999Z</time></trkpt><trkpt lat="44.01253501949222" lon="11.368534787534184"><ele>353.6666666666667</ele><time>2026-05-01T12:20:56.999Z</time></trkpt><trkpt lat="44.01237966449223" lon="11.368398060923575"><ele>353.33333333333337</ele><time>2026-05-01T12:20:57.999Z</time></trkpt><trkpt lat="44.01220546760252" lon="11.368343733151182"><ele>353.0</ele><time>2026-05-01T12:20:58.999Z</time></trkpt><trkpt lat="44.012014099161185" lon="11.368361206614278"><ele>353.0</ele><time>2026-05-01T12:20:59.999Z</time></trkpt><trkpt lat="44.01181652240499" lon="11.368373935441271"><ele>353.0</ele><time>2026-05-01T12:21:00.999Z</time></trkpt><trkpt lat="44.01162020071316" lon="11.368402517962542"><ele>353.0</ele><time>2026-05-01T12:21:01.999Z</time></trkpt><trkpt lat="44.01143407012743" lon="11.368429616757412"><ele>351.0</ele><time>2026-05-01T12:21:02.999Z</time></trkpt><trkpt lat="44.01125550381278" lon="11.368452086060177"><ele>349.0</ele><time>2026-05-01T12:21:03.999Z</time></trkpt><trkpt lat="44.01108397166493" lon="11.368462857530822"><ele>347.0</ele><time>2026-05-01T12:21:04.999Z</time></trkpt><trkpt lat="44.01092037261589" lon="11.368405956851696"><ele>344.33333333333337</ele><time>2026-05-01T12:21:05.999Z</time></trkpt><trkpt lat="44.01076209477057" lon="11.36832495963178"><ele>341.6666666666667</ele><time>2026-05-01T12:21:06.999Z</time></trkpt><trkpt lat="44.010599152642456" lon="11.368231909289271"><ele>339.0</ele><time>2026-05-01T12:21:07.999Z</time></trkpt><trkpt lat="44.01043717197174" lon="11.368142417379424"><ele>339.0</ele><time>2026-05-01T12:21:09Z</time></trkpt><trkpt lat="44.01027099932482" lon="11.368055145314736"><ele>339.0</ele><time>2026-05-01T12:21:10Z</time></trkpt><trkpt lat="44.01010455735631" lon="11.36797073461239"><ele>339.0</ele><time>2026-05-01T12:21:11Z</time></trkpt><trkpt lat="44.009938685546906" lon="11.367887033005916"><ele>337.6666666666667</ele><time>2026-05-01T12:21:12Z</time></trkpt><trkpt lat="44.00977293735356" lon="11.367803991950936"><ele>336.33333333333337</ele><time>2026-05-01T12:21:13Z</time></trkpt><trkpt lat="44.00960799603526" lon="11.367724465656787"><ele>335.0</ele><time>2026-05-01T12:21:14Z</time></trkpt><trkpt lat="44.009445496229105" lon="11.367643826308727"><ele>335.0</ele><time>2026-05-01T12:21:15Z</time></trkpt><trkpt lat="44.009286170019244" lon="11.367563157019955"><ele>335.0</ele><time>2026-05-01T12:21:16Z</time></trkpt><trkpt lat="44.00912618196793" lon="11.367483302413683"><ele>335.0</ele><time>2026-05-01T12:21:17Z</time></trkpt><trkpt lat="44.008961563296126" lon="11.367404338803302"><ele>333.6666666666667</ele><time>2026-05-01T12:21:18Z</time></trkpt><trkpt lat="44.008792953494506" lon="11.367305180450105"><ele>332.3333333333333</ele><time>2026-05-01T12:21:19Z</time></trkpt><trkpt lat="44.00860871691293" lon="11.367224579328676"><ele>331.0</ele><time>2026-05-01T12:21:20Z</time></trkpt><trkpt lat="44.00841002640485" lon="11.367174592290988"><ele>329.3333333333333</ele><time>2026-05-01T12:21:21Z</time></trkpt><trkpt lat="44.008202424800295" lon="11.367181862282798"><ele>327.6666666666667</ele><time>2026-05-01T12:21:22Z</time></trkpt><trkpt lat="44.00799591325851" lon="11.367172591347769"><ele>326.0</ele><time>2026-05-01T12:21:23Z</time></trkpt><trkpt lat="44.007794608721376" lon="11.36716886968841"><ele>326.0</ele><time>2026-05-01T12:21:24Z</time></trkpt><trkpt lat="44.00759800091412" lon="11.367143391113792"><ele>326.0</ele><time>2026-05-01T12:21:25Z</time></trkpt><trkpt lat="44.00740333156657" lon="11.367075529196107"><ele>326.0</ele><time>2026-05-01T12:21:26Z</time></trkpt><trkpt lat="44.007226171178985" lon="11.366956024874897"><ele>326.0</ele><time>2026-05-01T12:21:27Z</time></trkpt><trkpt lat="44.00706083810092" lon="11.366803838779813"><ele>326.0</ele><time>2026-05-01T12:21:28Z</time></trkpt><trkpt lat="44.00689911467417" lon="11.366642334120753"><ele>326.0</ele><time>2026-05-01T12:21:29Z</time></trkpt><trkpt lat="44.006733401942896" lon="11.366481797411856"><ele>325.6666666666667</ele><time>2026-05-01T12:21:30Z</time></trkpt><trkpt lat="44.00657500607994" lon="11.36633454692096"><ele>325.3333333333333</ele><time>2026-05-01T12:21:31Z</time></trkpt><trkpt lat="44.00642928702925" lon="11.36620116027046"><ele>325.0</ele><time>2026-05-01T12:21:32Z</time></trkpt><trkpt lat="44.006292377052716" lon="11.366085844697785"><ele>325.0</ele><time>2026-05-01T12:21:33Z</time></trkpt><trkpt lat="44.006174247731416" lon="11.365991011282153"><ele>325.0</ele><time>2026-05-01T12:21:34Z</time></trkpt><trkpt lat="44.006085713547705" lon="11.365899679541856"><ele>325.0</ele><time>2026-05-01T12:21:35Z</time></trkpt><trkpt lat="44.00601745517489" lon="11.36584076267958"><ele>325.0</ele><time>2026-05-01T12:21:36Z</time></trkpt><trkpt lat="44.00584714866829" lon="11.366067741879638"><ele>324.5</ele><time>2026-05-01T12:21:38Z</time></trkpt><trkpt lat="44.005782892835626" lon="11.366204269383948"><ele>324.0</ele><time>2026-05-01T12:21:39Z</time></trkpt><trkpt lat="44.00570821781521" lon="11.366349846001917"><ele>323.5</ele><time>2026-05-01T12:21:40Z</time></trkpt><trkpt lat="44.00562674978749" lon="11.366496748285355"><ele>323.0</ele><time>2026-05-01T12:21:41Z</time></trkpt><trkpt lat="44.00554221627911" lon="11.366637167928898"><ele>322.75</ele><time>2026-05-01T12:21:42Z</time></trkpt><trkpt lat="44.00545668126206" lon="11.36677336949757"><ele>322.5</ele><time>2026-05-01T12:21:43Z</time></trkpt><trkpt lat="44.00537326052413" lon="11.366909377041948"><ele>322.25</ele><time>2026-05-01T12:21:44Z</time></trkpt><trkpt lat="44.005290283557834" lon="11.367049088777422"><ele>322.0</ele><time>2026-05-01T12:21:45Z</time></trkpt><trkpt lat="44.0052040791796" lon="11.367181404743988"><ele>322.25</ele><time>2026-05-01T12:21:46Z</time></trkpt><trkpt lat="44.005114953670564" lon="11.367305797459563"><ele>322.5</ele><time>2026-05-01T12:21:47Z</time></trkpt><trkpt lat="44.00502003781075" lon="11.3674212271683"><ele>322.75</ele><time>2026-05-01T12:21:48Z</time></trkpt><trkpt lat="44.004919440704015" lon="11.367529196989771"><ele>323.0</ele><time>2026-05-01T12:21:49Z</time></trkpt><trkpt lat="44.004810192632455" lon="11.367622433085979"><ele>322.5</ele><time>2026-05-01T12:21:50Z</time></trkpt><trkpt lat="44.0046896473333" lon="11.367704183897999"><ele>322.0</ele><time>2026-05-01T12:21:51Z</time></trkpt><trkpt lat="44.00456159716708" lon="11.367771660846223"><ele>321.5</ele><time>2026-05-01T12:21:52Z</time></trkpt><trkpt lat="44.004425147194915" lon="11.367832694551398"><ele>321.0</ele><time>2026-05-01T12:21:53Z</time></trkpt><trkpt lat="44.00428135042519" lon="11.367870440691663"><ele>321.6666666666667</ele><time>2026-05-01T12:21:54Z</time></trkpt><trkpt lat="44.00412462616446" lon="11.367875718194082"><ele>322.33333333333337</ele><time>2026-05-01T12:21:55Z</time></trkpt><trkpt lat="44.003964737670756" lon="11.367853748415124"><ele>323.0</ele><time>2026-05-01T12:21:56Z</time></trkpt><trkpt lat="44.00380688086842" lon="11.367779029479916"><ele>323.0</ele><time>2026-05-01T12:21:57Z</time></trkpt><trkpt lat="44.003638925048755" lon="11.367696378853086"><ele>323.0</ele><time>2026-05-01T12:21:58Z</time></trkpt><trkpt lat="44.00344592720262" lon="11.367593224826104"><ele>323.0</ele><time>2026-05-01T12:21:59Z</time></trkpt><trkpt lat="44.003222309537236" lon="11.367489344787751"><ele>321.0</ele><time>2026-05-01T12:22:00Z</time></trkpt><trkpt lat="44.00298837352765" lon="11.367368155583815"><ele>319.0</ele><time>2026-05-01T12:22:01Z</time></trkpt><trkpt lat="44.00275184891467" lon="11.36724484197415"><ele>318.5</ele><time>2026-05-01T12:22:02Z</time></trkpt><trkpt lat="44.00252931842716" lon="11.367102945697653"><ele>318.0</ele><time>2026-05-01T12:22:03Z</time></trkpt><trkpt lat="44.00230078412083" lon="11.366980661921943"><ele>318.0</ele><time>2026-05-01T12:22:04Z</time></trkpt><trkpt lat="44.002050837378114" lon="11.366846920798015"><ele>318.0</ele><time>2026-05-01T12:22:05Z</time></trkpt><trkpt lat="44.00181541580171" lon="11.366742480032269"><ele>317.3333333333333</ele><time>2026-05-01T12:22:06Z</time></trkpt><trkpt lat="44.001602826566575" lon="11.366607325762134"><ele>316.66666666666663</ele><time>2026-05-01T12:22:07Z</time></trkpt><trkpt lat="44.00140455487934" lon="11.366502071136882"><ele>316.0</ele><time>2026-05-01T12:22:08Z</time></trkpt><trkpt lat="44.00121439554793" lon="11.366401123038575"><ele>315.3333333333333</ele><time>2026-05-01T12:22:09Z</time></trkpt><trkpt lat="44.00103817079176" lon="11.366307572272152"><ele>314.6666666666667</ele><time>2026-05-01T12:22:10Z</time></trkpt><trkpt lat="44.000859519814696" lon="11.366232979935461"><ele>314.0</ele><time>2026-05-01T12:22:11Z</time></trkpt><trkpt lat="44.00068812397911" lon="11.366136973789075"><ele>314.0</ele><time>2026-05-01T12:22:12Z</time></trkpt><trkpt lat="44.00050939530912" lon="11.366044862244529"><ele>314.0</ele><time>2026-05-01T12:22:13Z</time></trkpt><trkpt lat="44.00032472640928" lon="11.36595022166425"><ele>314.0</ele><time>2026-05-01T12:22:14Z</time></trkpt><trkpt lat="44.00013126745133" lon="11.365845860069385"><ele>314.0</ele><time>2026-05-01T12:22:15Z</time></trkpt><trkpt lat="43.9999393373067" lon="11.365738732908843"><ele>314.0</ele><time>2026-05-01T12:22:16Z</time></trkpt><trkpt lat="43.999735612311845" lon="11.365631004609096"><ele>314.0</ele><time>2026-05-01T12:22:17Z</time></trkpt><trkpt lat="43.99952846729187" lon="11.365521391164648"><ele>313.33333333333337</ele><time>2026-05-01T12:22:18Z</time></trkpt><trkpt lat="43.99931929317325" lon="11.365405355322638"><ele>312.6666666666667</ele><time>2026-05-01T12:22:19Z</time></trkpt><trkpt lat="43.99911836556699" lon="11.365298105148828"><ele>312.0</ele><time>2026-05-01T12:22:20Z</time></trkpt><trkpt lat="43.99890850682308" lon="11.365192283899722"><ele>310.5</ele><time>2026-05-01T12:22:21Z</time></trkpt><trkpt lat="43.99870181602912" lon="11.365059458943819"><ele>309.0</ele><time>2026-05-01T12:22:22Z</time></trkpt><trkpt lat="43.998480071327144" lon="11.36495981206678"><ele>308.0</ele><time>2026-05-01T12:22:23Z</time></trkpt><trkpt lat="43.9982848419798" lon="11.364835618641923"><ele>307.0</ele><time>2026-05-01T12:22:24Z</time></trkpt><trkpt lat="43.998068727512866" lon="11.36474271616016"><ele>306.0</ele><time>2026-05-01T12:22:24.999Z</time></trkpt><trkpt lat="43.99785455234699" lon="11.364632028427609"><ele>307.0</ele><time>2026-05-01T12:22:25.999Z</time></trkpt><trkpt lat="43.99764287932946" lon="11.364537467907478"><ele>308.0</ele><time>2026-05-01T12:22:26.999Z</time></trkpt><trkpt lat="43.99743643152415" lon="11.364450956539287"><ele>309.0</ele><time>2026-05-01T12:22:27.999Z</time></trkpt><trkpt lat="43.99723077721524" lon="11.364360611817828"><ele>309.0</ele><time>2026-05-01T12:22:28.999Z</time></trkpt><trkpt lat="43.997024519131955" lon="11.364267850412682"><ele>309.0</ele><time>2026-05-01T12:22:29.999Z</time></trkpt><trkpt lat="43.99681233472835" lon="11.364172069525454"><ele>309.0</ele><time>2026-05-01T12:22:30.999Z</time></trkpt><trkpt lat="43.99659422269644" lon="11.364075477582311"><ele>310.0</ele><time>2026-05-01T12:22:31.999Z</time></trkpt><trkpt lat="43.9963706109998" lon="11.363978153002348"><ele>311.0</ele><time>2026-05-01T12:22:32.999Z</time></trkpt><trkpt lat="43.99614082441814" lon="11.363870367270094"><ele>305.5</ele><time>2026-05-01T12:22:33.999Z</time></trkpt><trkpt lat="43.99591360912823" lon="11.36376505673138"><ele>300.0</ele><time>2026-05-01T12:22:34.999Z</time></trkpt><trkpt lat="43.99568581468036" lon="11.363669063999879"><ele>300.0</ele><time>2026-05-01T12:22:35.999Z</time></trkpt><trkpt lat="43.99545965948199" lon="11.3635668535289"><ele>300.0</ele><time>2026-05-01T12:22:36.999Z</time></trkpt><trkpt lat="43.995237397856336" lon="11.3634718706827"><ele>300.0</ele><time>2026-05-01T12:22:37.999Z</time></trkpt><trkpt lat="43.995020249819746" lon="11.363369387123184"><ele>300.0</ele><time>2026-05-01T12:22:38.999Z</time></trkpt><trkpt lat="43.994801786984254" lon="11.363300959920867"><ele>299.6666666666667</ele><time>2026-05-01T12:22:39.999Z</time></trkpt><trkpt lat="43.99459160705844" lon="11.363273048283494"><ele>299.33333333333337</ele><time>2026-05-01T12:22:40.999Z</time></trkpt><trkpt lat="43.99439498556261" lon="11.363211739395295"><ele>299.0</ele><time>2026-05-01T12:22:41.999Z</time></trkpt><trkpt lat="43.99419615367603" lon="11.363185115367823"><ele>297.0</ele><time>2026-05-01T12:22:42.999Z</time></trkpt><trkpt lat="43.99400680325411" lon="11.363172167814025"><ele>295.0</ele><time>2026-05-01T12:22:43.999Z</time></trkpt><trkpt lat="43.993823688177066" lon="11.36316376647295"><ele>293.0</ele><time>2026-05-01T12:22:44.999Z</time></trkpt><trkpt lat="43.99364490513563" lon="11.363156282003803"><ele>293.0</ele><time>2026-05-01T12:22:45.999Z</time></trkpt><trkpt lat="43.99346924880628" lon="11.363148928388636"><ele>293.0</ele><time>2026-05-01T12:22:46.999Z</time></trkpt><trkpt lat="43.993303298736215" lon="11.363141981112877"><ele>293.0</ele><time>2026-05-01T12:22:47.999Z</time></trkpt><trkpt lat="43.993159544673794" lon="11.363135963043758"><ele>292.0</ele><time>2026-05-01T12:22:48.999Z</time></trkpt><trkpt lat="43.99303392559232" lon="11.363163748644544"><ele>291.0</ele><time>2026-05-01T12:22:49.999Z</time></trkpt><trkpt lat="43.992925572607255" lon="11.363106068193472"><ele>290.0</ele><time>2026-05-01T12:22:50.999Z</time></trkpt><trkpt lat="43.99282724351497" lon="11.363057542772566"><ele>289.0</ele><time>2026-05-01T12:22:51.999Z</time></trkpt><trkpt lat="43.99274491297386" lon="11.363090894261344"><ele>288.0</ele><time>2026-05-01T12:22:52.999Z</time></trkpt><trkpt lat="43.992691281384694" lon="11.36319986824044"><ele>288.0</ele><time>2026-05-01T12:22:53.999Z</time></trkpt><trkpt lat="43.992656334750556" lon="11.363352212410387"><ele>288.0</ele><time>2026-05-01T12:22:54.999Z</time></trkpt><trkpt lat="43.99260576072166" lon="11.363521411645255"><ele>288.0</ele><time>2026-05-01T12:22:55.999Z</time></trkpt><trkpt lat="43.99252178807487" lon="11.363678545724897"><ele>288.0</ele><time>2026-05-01T12:22:56.999Z</time></trkpt><trkpt lat="43.99241208447927" lon="11.363844371619663"><ele>285.0</ele><time>2026-05-01T12:22:57.999Z</time></trkpt><trkpt lat="43.99229880581084" lon="11.364035257019344"><ele>282.0</ele><time>2026-05-01T12:22:58.999Z</time></trkpt><trkpt lat="43.992199616935984" lon="11.36424808487968"><ele>279.0</ele><time>2026-05-01T12:22:59.999Z</time></trkpt><trkpt lat="43.992107231374845" lon="11.364480072111622"><ele>275.6666666666667</ele><time>2026-05-01T12:23:00.999Z</time></trkpt><trkpt lat="43.992014667111675" lon="11.36472839303662"><ele>272.33333333333337</ele><time>2026-05-01T12:23:01.999Z</time></trkpt><trkpt lat="43.99191852702671" lon="11.364985572225105"><ele>269.0</ele><time>2026-05-01T12:23:02.999Z</time></trkpt><trkpt lat="43.99181940967498" lon="11.365249038113447"><ele>269.0</ele><time>2026-05-01T12:23:03.999Z</time></trkpt><trkpt lat="43.99172376959933" lon="11.365504865505622"><ele>269.0</ele><time>2026-05-01T12:23:04.999Z</time></trkpt><trkpt lat="43.99163729789226" lon="11.36574969580839"><ele>269.0</ele><time>2026-05-01T12:23:05.999Z</time></trkpt><trkpt lat="43.99155747240974" lon="11.365970367906973"><ele>266.0</ele><time>2026-05-01T12:23:06.999Z</time></trkpt><trkpt lat="43.99147667038228" lon="11.366182539123184"><ele>263.0</ele><time>2026-05-01T12:23:07.999Z</time></trkpt><trkpt lat="43.99139586799669" lon="11.36639045925228"><ele>260.0</ele><time>2026-05-01T12:23:08.999Z</time></trkpt><trkpt lat="43.991320215066004" lon="11.366597770269209"><ele>257.6666666666667</ele><time>2026-05-01T12:23:09.999Z</time></trkpt><trkpt lat="43.991241541819825" lon="11.366809355300514"><ele>255.33333333333331</ele><time>2026-05-01T12:23:10.999Z</time></trkpt><trkpt lat="43.99116219586789" lon="11.36703202479551"><ele>253.0</ele><time>2026-05-01T12:23:11.999Z</time></trkpt><trkpt lat="43.99108270829824" lon="11.367268890277108"><ele>251.33333333333331</ele><time>2026-05-01T12:23:12.999Z</time></trkpt><trkpt lat="43.99100701484994" lon="11.367518652142126"><ele>249.66666666666669</ele><time>2026-05-01T12:23:13.999Z</time></trkpt><trkpt lat="43.99093188356272" lon="11.367774270066056"><ele>248.0</ele><time>2026-05-01T12:23:15Z</time></trkpt><trkpt lat="43.99085768991948" lon="11.368037057111524"><ele>246.0</ele><time>2026-05-01T12:23:16Z</time></trkpt><trkpt lat="43.99078106529187" lon="11.368302945984343"><ele>244.0</ele><time>2026-05-01T12:23:17Z</time></trkpt><trkpt lat="43.99070159455245" lon="11.368579851810399"><ele>242.0</ele><time>2026-05-01T12:23:18Z</time></trkpt><trkpt lat="43.9906259784671" lon="11.368843396116164"><ele>242.33333333333334</ele><time>2026-05-01T12:23:19Z</time></trkpt><trkpt lat="43.9905593509818" lon="11.36908045315971"><ele>242.66666666666669</ele><time>2026-05-01T12:23:20Z</time></trkpt><trkpt lat="43.99050431054952" lon="11.369288714791352"><ele>243.0</ele><time>2026-05-01T12:23:21Z</time></trkpt><trkpt lat="43.99045711912303" lon="11.369475364907819"><ele>243.0</ele><time>2026-05-01T12:23:22Z</time></trkpt><trkpt lat="43.990417801623245" lon="11.36963774419357"><ele>243.0</ele><time>2026-05-01T12:23:23Z</time></trkpt><trkpt lat="43.99038218463115" lon="11.369773455843676"><ele>243.0</ele><time>2026-05-01T12:23:24Z</time></trkpt><trkpt lat="43.9903563287263" lon="11.369885107941784"><ele>243.0</ele><time>2026-05-01T12:23:25Z</time></trkpt><trkpt lat="43.99035344765444" lon="11.369975735938946"><ele>243.0</ele><time>2026-05-01T12:23:26Z</time></trkpt><trkpt lat="43.990368703989766" lon="11.370061282305192"><ele>243.0</ele><time>2026-05-01T12:23:27Z</time></trkpt><trkpt lat="43.99044779862622" lon="11.370147049990308"><ele>243.57142857142856</ele><time>2026-05-01T12:23:29Z</time></trkpt><trkpt lat="43.99051876610772" lon="11.370158397961287"><ele>244.14285714285717</ele><time>2026-05-01T12:23:31Z</time></trkpt><trkpt lat="43.99057560121744" lon="11.370217282435553"><ele>244.71428571428572</ele><time>2026-05-01T12:23:35Z</time></trkpt><trkpt lat="43.99064459744964" lon="11.370248731100189"><ele>245.28571428571428</ele><time>2026-05-01T12:24:15Z</time></trkpt><trkpt lat="43.99071795138216" lon="11.370272412917249"><ele>245.85714285714283</ele><time>2026-05-01T12:24:17Z</time></trkpt><trkpt lat="43.99079592476611" lon="11.370299278703563"><ele>246.42857142857144</ele><time>2026-05-01T12:24:20Z</time></trkpt><trkpt lat="43.99085341329908" lon="11.370337636796286"><ele>247.0</ele><time>2026-05-01T12:25:23Z</time></trkpt><trkpt lat="43.990916494507104" lon="11.370356973989821"><ele>247.39999999999998</ele><time>2026-05-01T12:25:58Z</time></trkpt><trkpt lat="43.99099959379357" lon="11.370437179907842"><ele>247.79999999999998</ele><time>2026-05-01T12:26:00Z</time></trkpt><trkpt lat="43.99105749850679" lon="11.370498039507282"><ele>248.2</ele><time>2026-05-01T12:26:01Z</time></trkpt><trkpt lat="43.991122030354276" lon="11.370576652892847"><ele>248.6</ele><time>2026-05-01T12:26:02Z</time></trkpt><trkpt lat="43.99120247589153" lon="11.37065961414857"><ele>249.0</ele><time>2026-05-01T12:26:03Z</time></trkpt><trkpt lat="43.99127910182952" lon="11.370727875931097"><ele>250.5</ele><time>2026-05-01T12:26:04Z</time></trkpt><trkpt lat="43.99135458187659" lon="11.3707868263186"><ele>252.0</ele><time>2026-05-01T12:26:05Z</time></trkpt><trkpt lat="43.991427847028284" lon="11.37084513162115"><ele>253.5</ele><time>2026-05-01T12:26:06Z</time></trkpt><trkpt lat="43.99149259760376" lon="11.370903676483703"><ele>255.0</ele><time>2026-05-01T12:26:07Z</time></trkpt><trkpt lat="43.9915961334356" lon="11.370998986778385"><ele>256.5</ele><time>2026-05-01T12:26:09Z</time></trkpt><trkpt lat="43.99164973461487" lon="11.371049784262805"><ele>258.0</ele><time>2026-05-01T12:26:10Z</time></trkpt><trkpt lat="43.991705899834905" lon="11.371103790764364"><ele>257.99999999999994</ele><time>2026-05-01T12:26:11Z</time></trkpt><trkpt lat="43.991764051555556" lon="11.371157668275321"><ele>258.0</ele><time>2026-05-01T12:26:12Z</time></trkpt><trkpt lat="43.991825052367595" lon="11.371211086235597"><ele>258.0</ele><time>2026-05-01T12:26:13Z</time></trkpt><trkpt lat="43.991882087488435" lon="11.371263466264487"><ele>258.0</ele><time>2026-05-01T12:26:14Z</time></trkpt><trkpt lat="43.9919410012646" lon="11.37131969342512"><ele>258.0</ele><time>2026-05-01T12:26:15Z</time></trkpt><trkpt lat="43.99200379332582" lon="11.371385120595537"><ele>257.99999999999994</ele><time>2026-05-01T12:26:16Z</time></trkpt><trkpt lat="43.9920585345185" lon="11.371444548267398"><ele>258.0</ele><time>2026-05-01T12:26:17Z</time></trkpt><trkpt lat="43.992153715895604" lon="11.371549859001359"><ele>259.0</ele><time>2026-05-01T12:26:19Z</time></trkpt><trkpt lat="43.992204195060644" lon="11.371604458326946"><ele>260.0</ele><time>2026-05-01T12:26:20Z</time></trkpt><trkpt lat="43.99228051141084" lon="11.371656752112965"><ele>261.0</ele><time>2026-05-01T12:26:21Z</time></trkpt><trkpt lat="43.9923863082905" lon="11.371756978312835"><ele>262.0</ele><time>2026-05-01T12:26:23Z</time></trkpt><trkpt lat="43.99244038118994" lon="11.371811887837675"><ele>263.0</ele><time>2026-05-01T12:26:24Z</time></trkpt><trkpt lat="43.99250092857043" lon="11.371875206070921"><ele>264.0</ele><time>2026-05-01T12:26:25Z</time></trkpt><trkpt lat="43.99255742030735" lon="11.371933814400117"><ele>264.0</ele><time>2026-05-01T12:26:26Z</time></trkpt><trkpt lat="43.992622230013396" lon="11.372006974966617"><ele>264.0</ele><time>2026-05-01T12:26:27Z</time></trkpt><trkpt lat="43.99268089341889" lon="11.37208311546753"><ele>264.0</ele><time>2026-05-01T12:26:28Z</time></trkpt><trkpt lat="43.99274842549725" lon="11.37215102772548"><ele>264.0</ele><time>2026-05-01T12:26:29Z</time></trkpt><trkpt lat="43.99281368054949" lon="11.372220658674342"><ele>264.0</ele><time>2026-05-01T12:26:30Z</time></trkpt><trkpt lat="43.992870521760686" lon="11.372287671648602"><ele>264.0</ele><time>2026-05-01T12:26:31Z</time></trkpt><trkpt lat="43.99292551861971" lon="11.372361439267085"><ele>265.6666666666667</ele><time>2026-05-01T12:26:31.999Z</time></trkpt><trkpt lat="43.99298254123959" lon="11.372438277371753"><ele>267.3333333333333</ele><time>2026-05-01T12:26:32.999Z</time></trkpt><trkpt lat="43.99303908409491" lon="11.372512019521425"><ele>269.0</ele><time>2026-05-01T12:26:33.999Z</time></trkpt><trkpt lat="43.99309623607261" lon="11.372590712586707"><ele>270.66666666666663</ele><time>2026-05-01T12:26:34.999Z</time></trkpt><trkpt lat="43.99315488832659" lon="11.372666425807394"><ele>272.3333333333333</ele><time>2026-05-01T12:26:35.999Z</time></trkpt><trkpt lat="43.993212995871126" lon="11.372745743854507"><ele>274.0</ele><time>2026-05-01T12:26:36.999Z</time></trkpt><trkpt lat="43.99325812247589" lon="11.372840596392525"><ele>274.00000000000006</ele><time>2026-05-01T12:26:37.999Z</time></trkpt><trkpt lat="43.99332241191859" lon="11.372900332929962"><ele>274.0</ele><time>2026-05-01T12:26:38.999Z</time></trkpt><trkpt lat="43.99337105844481" lon="11.372976767583593"><ele>274.0</ele><time>2026-05-01T12:26:39.999Z</time></trkpt><trkpt lat="43.99342223189501" lon="11.373046214346047"><ele>274.0</ele><time>2026-05-01T12:26:40.999Z</time></trkpt><trkpt lat="43.99347149621915" lon="11.37312084302452"><ele>274.0</ele><time>2026-05-01T12:26:41.999Z</time></trkpt><trkpt lat="43.993523395431204" lon="11.373193997700271"><ele>274.00000000000006</ele><time>2026-05-01T12:26:42.999Z</time></trkpt><trkpt lat="43.9935801533197" lon="11.373267208629827"><ele>274.0</ele><time>2026-05-01T12:26:43.999Z</time></trkpt><trkpt lat="43.9936360343944" lon="11.373340647546813"><ele>274.3333333333333</ele><time>2026-05-01T12:26:44.999Z</time></trkpt><trkpt lat="43.99369738356913" lon="11.373423307454074"><ele>274.66666666666663</ele><time>2026-05-01T12:26:45.999Z</time></trkpt><trkpt lat="43.993758911293426" lon="11.373510415672973"><ele>275.0</ele><time>2026-05-01T12:26:46.999Z</time></trkpt><trkpt lat="43.9938211713389" lon="11.373598649532832"><ele>275.3333333333333</ele><time>2026-05-01T12:26:47.999Z</time></trkpt><trkpt lat="43.993883200811254" lon="11.373688429147824"><ele>275.6666666666667</ele><time>2026-05-01T12:26:48.999Z</time></trkpt><trkpt lat="43.99394733774253" lon="11.373775840015519"><ele>276.0</ele><time>2026-05-01T12:26:49.999Z</time></trkpt><trkpt lat="43.99401278409331" lon="11.373857842216092"><ele>276.6666666666667</ele><time>2026-05-01T12:26:50.999Z</time></trkpt><trkpt lat="43.99407392752086" lon="11.373941365678256"><ele>277.3333333333333</ele><time>2026-05-01T12:26:51.999Z</time></trkpt><trkpt lat="43.994134090622765" lon="11.374025393186477"><ele>278.0</ele><time>2026-05-01T12:26:52.999Z</time></trkpt><trkpt lat="43.99419340091611" lon="11.37410539219349"><ele>278.66666666666663</ele><time>2026-05-01T12:26:53.999Z</time></trkpt><trkpt lat="43.9942507830632" lon="11.374182804655375"><ele>279.3333333333333</ele><time>2026-05-01T12:26:54.999Z</time></trkpt><trkpt lat="43.99428901246689" lon="11.37426377887219"><ele>280.0</ele><time>2026-05-01T12:26:55.999Z</time></trkpt><trkpt lat="43.99437081213495" lon="11.37437719602353"><ele>280.0</ele><time>2026-05-01T12:26:57.999Z</time></trkpt><trkpt lat="43.994441003242684" lon="11.374474248464477"><ele>280.0</ele><time>2026-05-01T12:26:59.999Z</time></trkpt><trkpt lat="43.994492489217365" lon="11.37454543744901"><ele>280.0</ele><time>2026-05-01T12:27:01.999Z</time></trkpt><trkpt lat="43.99455203912107" lon="11.374629439344769"><ele>280.0</ele><time>2026-05-01T12:27:04.999Z</time></trkpt><trkpt lat="43.994669275073996" lon="11.374795933005016"><ele>280.0</ele><time>2026-05-01T12:28:24Z</time></trkpt><trkpt lat="43.99474689809045" lon="11.374903469082927"><ele>281.3333333333333</ele><time>2026-05-01T12:28:26Z</time></trkpt><trkpt lat="43.99481902841271" lon="11.37500279313469"><ele>282.66666666666663</ele><time>2026-05-01T12:28:28Z</time></trkpt><trkpt lat="43.994873830829405" lon="11.375061920142825"><ele>284.0</ele><time>2026-05-01T12:28:29Z</time></trkpt><trkpt lat="43.99493634268757" lon="11.375123803081808"><ele>285.3333333333333</ele><time>2026-05-01T12:28:30Z</time></trkpt><trkpt lat="43.99499620505907" lon="11.375194157640022"><ele>286.6666666666667</ele><time>2026-05-01T12:28:30.999Z</time></trkpt><trkpt lat="43.995043789477386" lon="11.375283569671645"><ele>288.0</ele><time>2026-05-01T12:28:31.999Z</time></trkpt><trkpt lat="43.995108324880775" lon="11.375343176609416"><ele>288.00000000000006</ele><time>2026-05-01T12:28:32.999Z</time></trkpt><trkpt lat="43.995169967504694" lon="11.375387945779634"><ele>288.0</ele><time>2026-05-01T12:28:33.999Z</time></trkpt><trkpt lat="43.99523183651033" lon="11.375423995015444"><ele>288.0</ele><time>2026-05-01T12:28:34.999Z</time></trkpt><trkpt lat="43.99529560180323" lon="11.375444240103182"><ele>288.0</ele><time>2026-05-01T12:28:35.999Z</time></trkpt><trkpt lat="43.99535989332913" lon="11.375457213864193"><ele>288.0</ele><time>2026-05-01T12:28:36.999Z</time></trkpt><trkpt lat="43.99542482279687" lon="11.375467535902414"><ele>288.00000000000006</ele><time>2026-05-01T12:28:37.999Z</time></trkpt><trkpt lat="43.99549059865745" lon="11.375476584988442"><ele>288.0</ele><time>2026-05-01T12:28:38.999Z</time></trkpt><trkpt lat="43.995554994770636" lon="11.375481673595656"><ele>288.0</ele><time>2026-05-01T12:28:39.999Z</time></trkpt><trkpt lat="43.995681522167196" lon="11.375494311565507"><ele>288.0</ele><time>2026-05-01T12:28:41.999Z</time></trkpt><trkpt lat="43.995750034608356" lon="11.375481837214712"><ele>288.0</ele><time>2026-05-01T12:28:42.999Z</time></trkpt><trkpt lat="43.995815838100555" lon="11.375495808963436"><ele>288.0</ele><time>2026-05-01T12:28:43.999Z</time></trkpt><trkpt lat="43.995885633762825" lon="11.37549149379108"><ele>288.0</ele><time>2026-05-01T12:28:44.999Z</time></trkpt><trkpt lat="43.99595009460037" lon="11.3754900092844"><ele>288.0</ele><time>2026-05-01T12:28:45.999Z</time></trkpt><trkpt lat="43.99607572229811" lon="11.375494295307732"><ele>287.0</ele><time>2026-05-01T12:28:47.999Z</time></trkpt><trkpt lat="43.99615313563137" lon="11.375508083479167"><ele>286.0</ele><time>2026-05-01T12:28:48.999Z</time></trkpt><trkpt lat="43.996230385090776" lon="11.37553475063678"><ele>285.0</ele><time>2026-05-01T12:28:49.999Z</time></trkpt><trkpt lat="43.99631656621327" lon="11.375564437023842"><ele>284.0</ele><time>2026-05-01T12:28:50.999Z</time></trkpt><trkpt lat="43.996409628778395" lon="11.37560407886148"><ele>283.0</ele><time>2026-05-01T12:28:51.999Z</time></trkpt><trkpt lat="43.996509625503904" lon="11.375633553238579"><ele>282.0</ele><time>2026-05-01T12:28:52.999Z</time></trkpt><trkpt lat="43.99659795131114" lon="11.375673410866062"><ele>284.4</ele><time>2026-05-01T12:28:53.999Z</time></trkpt><trkpt lat="43.996695286101755" lon="11.375687906498896"><ele>286.79999999999995</ele><time>2026-05-01T12:28:54.999Z</time></trkpt><trkpt lat="43.996798830058275" lon="11.375677153587668"><ele>289.2</ele><time>2026-05-01T12:28:55.999Z</time></trkpt><trkpt lat="43.99689641860793" lon="11.375701311806678"><ele>291.59999999999997</ele><time>2026-05-01T12:28:56.999Z</time></trkpt><trkpt lat="43.9969912836613" lon="11.37574461028994"><ele>294.0</ele><time>2026-05-01T12:28:57.999Z</time></trkpt><trkpt lat="43.997084565986775" lon="11.375801218685424"><ele>294.0</ele><time>2026-05-01T12:28:58.999Z</time></trkpt><trkpt lat="43.99717800169899" lon="11.375874558948652"><ele>294.0</ele><time>2026-05-01T12:28:59.999Z</time></trkpt><trkpt lat="43.99726474252181" lon="11.375949640831141"><ele>294.0</ele><time>2026-05-01T12:29:00.999Z</time></trkpt><trkpt lat="43.99734452111125" lon="11.376028973131167"><ele>294.0</ele><time>2026-05-01T12:29:01.999Z</time></trkpt><trkpt lat="43.99742835604115" lon="11.3761004992075"><ele>294.0</ele><time>2026-05-01T12:29:02.999Z</time></trkpt><trkpt lat="43.99751631121827" lon="11.376164349012889"><ele>295.0</ele><time>2026-05-01T12:29:03.999Z</time></trkpt><trkpt lat="43.99760461703978" lon="11.37623027847504"><ele>296.0</ele><time>2026-05-01T12:29:04.999Z</time></trkpt><trkpt lat="43.99769551410886" lon="11.376308721458724"><ele>297.0</ele><time>2026-05-01T12:29:05.999Z</time></trkpt><trkpt lat="43.9977977847645" lon="11.376356420163688"><ele>298.0</ele><time>2026-05-01T12:29:06.999Z</time></trkpt><trkpt lat="43.99789948329349" lon="11.376404719495957"><ele>299.0</ele><time>2026-05-01T12:29:07.999Z</time></trkpt><trkpt lat="43.997990495493546" lon="11.376461803691218"><ele>299.0</ele><time>2026-05-01T12:29:08.999Z</time></trkpt><trkpt lat="43.998082014394534" lon="11.376525599496265"><ele>299.0</ele><time>2026-05-01T12:29:09.999Z</time></trkpt><trkpt lat="43.99817479746561" lon="11.376573780097795"><ele>299.0</ele><time>2026-05-01T12:29:10.999Z</time></trkpt><trkpt lat="43.99826797656477" lon="11.37663345548165"><ele>299.0</ele><time>2026-05-01T12:29:11.999Z</time></trkpt><trkpt lat="43.99835420363839" lon="11.376722084754462"><ele>299.0</ele><time>2026-05-01T12:29:12.999Z</time></trkpt><trkpt lat="43.99844968732784" lon="11.37678521200658"><ele>299.2</ele><time>2026-05-01T12:29:13.999Z</time></trkpt><trkpt lat="43.99847791766015" lon="11.376931427041818"><ele>299.4</ele><time>2026-05-01T12:29:14.999Z</time></trkpt><trkpt lat="43.998524482757084" lon="11.377058986119826"><ele>299.6</ele><time>2026-05-01T12:29:15.999Z</time></trkpt><trkpt lat="43.998576528729075" lon="11.377143772974776"><ele>299.8</ele><time>2026-05-01T12:29:16.999Z</time></trkpt><trkpt lat="43.99863471133551" lon="11.377215674213495"><ele>300.0</ele><time>2026-05-01T12:29:17.999Z</time></trkpt><trkpt lat="43.99875344745327" lon="11.377204716385291"><ele>300.0</ele><time>2026-05-01T12:29:19.999Z</time></trkpt><trkpt lat="43.99889606024266" lon="11.377267449892667"><ele>300.0</ele><time>2026-05-01T12:29:20.999Z</time></trkpt><trkpt lat="43.99899838546462" lon="11.377392463122593"><ele>300.0</ele><time>2026-05-01T12:29:21.999Z</time></trkpt><trkpt lat="43.99907814225229" lon="11.37750474521307"><ele>300.0</ele><time>2026-05-01T12:29:22.999Z</time></trkpt><trkpt lat="43.99913060551931" lon="11.377602769445488"><ele>298.6</ele><time>2026-05-01T12:29:23.999Z</time></trkpt><trkpt lat="43.99917919852768" lon="11.377689023481068"><ele>297.2</ele><time>2026-05-01T12:29:24.999Z</time></trkpt><trkpt lat="43.999241095426534" lon="11.377775400638887"><ele>295.8</ele><time>2026-05-01T12:29:25.999Z</time></trkpt><trkpt lat="43.99932027265124" lon="11.37787533396368"><ele>294.4</ele><time>2026-05-01T12:29:26.999Z</time></trkpt><trkpt lat="43.999413931271356" lon="11.377972791633637"><ele>293.0</ele><time>2026-05-01T12:29:27.999Z</time></trkpt><trkpt lat="43.99951274397039" lon="11.378056989147156"><ele>296.6</ele><time>2026-05-01T12:29:28.999Z</time></trkpt><trkpt lat="43.99962316430841" lon="11.378129453274012"><ele>300.20000000000005</ele><time>2026-05-01T12:29:29.999Z</time></trkpt><trkpt lat="43.999710255814904" lon="11.37822243024501"><ele>303.8</ele><time>2026-05-01T12:29:30.999Z</time></trkpt><trkpt lat="43.99979142752865" lon="11.378283419237862"><ele>307.40000000000003</ele><time>2026-05-01T12:29:31.999Z</time></trkpt><trkpt lat="43.99988034577811" lon="11.378350228744058"><ele>311.0</ele><time>2026-05-01T12:29:33Z</time></trkpt><trkpt lat="43.9999656920724" lon="11.378415506544355"><ele>311.0</ele><time>2026-05-01T12:29:34Z</time></trkpt><trkpt lat="44.00005324030297" lon="11.378461934474304"><ele>311.0</ele><time>2026-05-01T12:29:35Z</time></trkpt><trkpt lat="44.00012470139729" lon="11.378528850406356"><ele>311.0</ele><time>2026-05-01T12:29:36Z</time></trkpt><trkpt lat="44.000200468910315" lon="11.378593165826823"><ele>311.0</ele><time>2026-05-01T12:29:37Z</time></trkpt><trkpt lat="44.000281675597265" lon="11.378623794091126"><ele>311.0</ele><time>2026-05-01T12:29:38Z</time></trkpt><trkpt lat="44.00035825052159" lon="11.378628863935168"><ele>311.0</ele><time>2026-05-01T12:29:39Z</time></trkpt><trkpt lat="44.0004418699046" lon="11.37860573011871"><ele>311.0</ele><time>2026-05-01T12:29:40Z</time></trkpt><trkpt lat="44.00052535368123" lon="11.378578205606479"><ele>311.0</ele><time>2026-05-01T12:29:41Z</time></trkpt><trkpt lat="44.00058293853261" lon="11.378476617952922"><ele>311.0</ele><time>2026-05-01T12:29:42Z</time></trkpt><trkpt lat="44.00064699149789" lon="11.378406226005358"><ele>311.0</ele><time>2026-05-01T12:29:43Z</time></trkpt><trkpt lat="44.000728150724086" lon="11.378417113978333"><ele>311.0</ele><time>2026-05-01T12:29:44Z</time></trkpt><trkpt lat="44.00084330445329" lon="11.378493103249967"><ele>309.8</ele><time>2026-05-01T12:29:46Z</time></trkpt><trkpt lat="44.000920771563685" lon="11.378563477561077"><ele>308.6</ele><time>2026-05-01T12:29:47Z</time></trkpt><trkpt lat="44.00099919648472" lon="11.378626234573556"><ele>307.4</ele><time>2026-05-01T12:29:48Z</time></trkpt><trkpt lat="44.0010853836093" lon="11.378683700324098"><ele>306.2</ele><time>2026-05-01T12:29:49Z</time></trkpt><trkpt lat="44.00117035912581" lon="11.378721636488816"><ele>305.0</ele><time>2026-05-01T12:29:50Z</time></trkpt><trkpt lat="44.00125616518757" lon="11.37874297740928"><ele>305.0</ele><time>2026-05-01T12:29:51Z</time></trkpt><trkpt lat="44.00134871725711" lon="11.378756963131606"><ele>305.0</ele><time>2026-05-01T12:29:52Z</time></trkpt><trkpt lat="44.00144777382513" lon="11.378764704120782"><ele>305.0</ele><time>2026-05-01T12:29:53Z</time></trkpt><trkpt lat="44.00155412482596" lon="11.378755559396245"><ele>305.0</ele><time>2026-05-01T12:29:54Z</time></trkpt><trkpt lat="44.00167274579635" lon="11.378675806467092"><ele>305.0</ele><time>2026-05-01T12:29:55Z</time></trkpt><trkpt lat="44.001755705741104" lon="11.378537613712727"><ele>305.2</ele><time>2026-05-01T12:29:56Z</time></trkpt><trkpt lat="44.00181923255734" lon="11.378413585587516"><ele>305.4</ele><time>2026-05-01T12:29:57Z</time></trkpt><trkpt lat="44.00187245255071" lon="11.378310507489232"><ele>305.6</ele><time>2026-05-01T12:29:58Z</time></trkpt><trkpt lat="44.00190278578384" lon="11.378184861105817"><ele>305.8</ele><time>2026-05-01T12:29:59Z</time></trkpt><trkpt lat="44.00186679414303" lon="11.37805649368999"><ele>306.0</ele><time>2026-05-01T12:30:00Z</time></trkpt><trkpt lat="44.00184021876021" lon="11.377934877769144"><ele>305.40000000000003</ele><time>2026-05-01T12:30:01Z</time></trkpt><trkpt lat="44.001789787165514" lon="11.377792889120851"><ele>304.8</ele><time>2026-05-01T12:30:02Z</time></trkpt><trkpt lat="44.00172196844511" lon="11.377654304228214"><ele>304.20000000000005</ele><time>2026-05-01T12:30:03Z</time></trkpt><trkpt lat="44.001686674069305" lon="11.377512280931088"><ele>303.6</ele><time>2026-05-01T12:30:04Z</time></trkpt><trkpt lat="44.001645108767455" lon="11.377392084950657"><ele>303.0</ele><time>2026-05-01T12:30:05Z</time></trkpt><trkpt lat="44.0015939104372" lon="11.377281009662816"><ele>299.6666666666667</ele><time>2026-05-01T12:30:06Z</time></trkpt><trkpt lat="44.00155524494232" lon="11.377177017454702"><ele>296.3333333333333</ele><time>2026-05-01T12:30:07Z</time></trkpt><trkpt lat="44.0015210131557" lon="11.377077497199968"><ele>293.0</ele><time>2026-05-01T12:30:08Z</time></trkpt><trkpt lat="44.001492060295064" lon="11.376994297440056"><ele>289.66666666666663</ele><time>2026-05-01T12:30:09Z</time></trkpt><trkpt lat="44.00146263747734" lon="11.376843441637247"><ele>286.3333333333333</ele><time>2026-05-01T12:30:11Z</time></trkpt><trkpt lat="44.001503866628745" lon="11.37672517006759"><ele>283.0</ele><time>2026-05-01T12:30:13Z</time></trkpt><trkpt lat="44.00159376935044" lon="11.376695573836992"><ele>284.66666666666663</ele><time>2026-05-01T12:30:15Z</time></trkpt><trkpt lat="44.00169575259134" lon="11.376667069325952"><ele>286.3333333333333</ele><time>2026-05-01T12:30:17Z</time></trkpt><trkpt lat="44.001762595258064" lon="11.376692113138484"><ele>288.0</ele><time>2026-05-01T12:30:19Z</time></trkpt><trkpt lat="44.001831232764665" lon="11.376747865863374"><ele>289.6666666666667</ele><time>2026-05-01T12:30:21Z</time></trkpt><trkpt lat="44.00191375801083" lon="11.376814996210086"><ele>291.33333333333337</ele><time>2026-05-01T12:30:23Z</time></trkpt><trkpt lat="44.00198177164729" lon="11.376898893430756"><ele>293.0</ele><time>2026-05-01T12:30:25Z</time></trkpt><trkpt lat="44.002101752425844" lon="11.37698641822392"><ele>293.0</ele><time>2026-05-01T12:30:27Z</time></trkpt><trkpt lat="44.002177448811196" lon="11.377013273881738"><ele>293.0</ele><time>2026-05-01T12:30:28Z</time></trkpt><trkpt lat="44.00224853016119" lon="11.377039532934731"><ele>293.0</ele><time>2026-05-01T12:30:29Z</time></trkpt><trkpt lat="44.00231787287211" lon="11.377066361195942"><ele>293.0</ele><time>2026-05-01T12:30:30Z</time></trkpt><trkpt lat="44.00238609527663" lon="11.37709710613631"><ele>293.0</ele><time>2026-05-01T12:30:31Z</time></trkpt><trkpt lat="44.00246373956655" lon="11.377142544421096"><ele>293.0</ele><time>2026-05-01T12:30:31.999Z</time></trkpt><trkpt lat="44.00256995420181" lon="11.377218157662758"><ele>297.0</ele><time>2026-05-01T12:30:32.999Z</time></trkpt><trkpt lat="44.00270922936125" lon="11.377368523065229"><ele>301.0</ele><time>2026-05-01T12:30:33.999Z</time></trkpt><trkpt lat="44.00282882792971" lon="11.377508711600587"><ele>305.0</ele><time>2026-05-01T12:30:34.999Z</time></trkpt><trkpt lat="44.00292740441638" lon="11.377571114121803"><ele>309.0</ele><time>2026-05-01T12:30:35.999Z</time></trkpt><trkpt lat="44.003059233081274" lon="11.377590578733864"><ele>309.0</ele><time>2026-05-01T12:30:36.999Z</time></trkpt><trkpt lat="44.003189382913234" lon="11.377589763613992"><ele>309.0</ele><time>2026-05-01T12:30:37.999Z</time></trkpt><trkpt lat="44.0032990999249" lon="11.37758576405969"><ele>309.0</ele><time>2026-05-01T12:30:38.999Z</time></trkpt><trkpt lat="44.00338912250485" lon="11.377586891785826"><ele>309.0</ele><time>2026-05-01T12:30:39.999Z</time></trkpt><trkpt lat="44.003460846227995" lon="11.377596167356671"><ele>309.0</ele><time>2026-05-01T12:30:40.999Z</time></trkpt><trkpt lat="44.00356389430372" lon="11.377649784563232"><ele>305.8333333333333</ele><time>2026-05-01T12:30:42.999Z</time></trkpt><trkpt lat="44.00366414922926" lon="11.377713770708729"><ele>302.6666666666667</ele><time>2026-05-01T12:30:44.999Z</time></trkpt><trkpt lat="44.003729945872465" lon="11.377744868337485"><ele>299.5</ele><time>2026-05-01T12:30:45.999Z</time></trkpt><trkpt lat="44.00380220786337" lon="11.377762649563962"><ele>296.33333333333337</ele><time>2026-05-01T12:30:46.999Z</time></trkpt><trkpt lat="44.00388425343796" lon="11.377766092952463"><ele>293.1666666666667</ele><time>2026-05-01T12:30:47.999Z</time></trkpt><trkpt lat="44.00397765081281" lon="11.377756760391254"><ele>290.0</ele><time>2026-05-01T12:30:48.999Z</time></trkpt><trkpt lat="44.004076240623924" lon="11.377731691459386"><ele>289.4</ele><time>2026-05-01T12:30:49.999Z</time></trkpt><trkpt lat="44.00417591419885" lon="11.377649402718033"><ele>288.8</ele><time>2026-05-01T12:30:50.999Z</time></trkpt><trkpt lat="44.00422341508526" lon="11.37749764160412"><ele>288.2</ele><time>2026-05-01T12:30:51.999Z</time></trkpt><trkpt lat="44.00418723192672" lon="11.377341279652383"><ele>287.6</ele><time>2026-05-01T12:30:52.999Z</time></trkpt><trkpt lat="44.00416883476706" lon="11.377225689087284"><ele>287.0</ele><time>2026-05-01T12:30:53.999Z</time></trkpt><trkpt lat="44.004140615641674" lon="11.377123910581721"><ele>285.83333333333337</ele><time>2026-05-01T12:30:54.999Z</time></trkpt><trkpt lat="44.00410788966437" lon="11.377029137263573"><ele>284.6666666666667</ele><time>2026-05-01T12:30:55.999Z</time></trkpt><trkpt lat="44.00408940953393" lon="11.376935294437736"><ele>283.5</ele><time>2026-05-01T12:30:56.999Z</time></trkpt><trkpt lat="44.00409366676994" lon="11.376802977703791"><ele>282.3333333333333</ele><time>2026-05-01T12:30:58.999Z</time></trkpt><trkpt lat="44.004144590570476" lon="11.37670419602018"><ele>281.16666666666663</ele><time>2026-05-01T12:31:01.999Z</time></trkpt><trkpt lat="44.00421584081499" lon="11.376674629106834"><ele>280.0</ele><time>2026-05-01T12:33:30.999Z</time></trkpt><trkpt lat="44.00429211469143" lon="11.376644297191318"><ele>280.0</ele><time>2026-05-01T12:33:33.999Z</time></trkpt><trkpt lat="44.004382653166275" lon="11.37661339847965"><ele>280.0</ele><time>2026-05-01T12:33:35.999Z</time></trkpt><trkpt lat="44.00448589802285" lon="11.376596937523946"><ele>280.0</ele><time>2026-05-01T12:33:37.999Z</time></trkpt><trkpt lat="44.00456098883818" lon="11.376595388464423"><ele>280.0</ele><time>2026-05-01T12:33:38.999Z</time></trkpt><trkpt lat="44.00464510711118" lon="11.376593653177965"><ele>280.0</ele><time>2026-05-01T12:33:39.999Z</time></trkpt><trkpt lat="44.004734644277356" lon="11.376589715643037"><ele>280.0</ele><time>2026-05-01T12:33:40.999Z</time></trkpt><trkpt lat="44.004827853119146" lon="11.376579796203744"><ele>280.0</ele><time>2026-05-01T12:33:41.999Z</time></trkpt><trkpt lat="44.00492279133438" lon="11.376546116846834"><ele>280.0</ele><time>2026-05-01T12:33:42.999Z</time></trkpt><trkpt lat="44.00501543176117" lon="11.376511772129716"><ele>280.0</ele><time>2026-05-01T12:33:43.999Z</time></trkpt><trkpt lat="44.0051034766078" lon="11.376479131093614"><ele>280.0</ele><time>2026-05-01T12:33:45Z</time></trkpt><trkpt lat="44.00518543296056" lon="11.376452421556435"><ele>280.0</ele><time>2026-05-01T12:33:46Z</time></trkpt><trkpt lat="44.00526268904828" lon="11.376434319983183"><ele>280.0</ele><time>2026-05-01T12:33:47Z</time></trkpt><trkpt lat="44.00533943321918" lon="11.376403904520933"><ele>278.66666666666663</ele><time>2026-05-01T12:33:48Z</time></trkpt><trkpt lat="44.00540620414955" lon="11.376336622340737"><ele>277.3333333333333</ele><time>2026-05-01T12:33:49Z</time></trkpt><trkpt lat="44.00544150567339" lon="11.376226706521658"><ele>276.0</ele><time>2026-05-01T12:33:50Z</time></trkpt><trkpt lat="44.00543067802158" lon="11.376099812513695"><ele>274.6666666666667</ele><time>2026-05-01T12:33:51Z</time></trkpt><trkpt lat="44.00537813074917" lon="11.375997135902347"><ele>273.33333333333337</ele><time>2026-05-01T12:33:52Z</time></trkpt><trkpt lat="44.005307321381004" lon="11.375916507058758"><ele>272.0</ele><time>2026-05-01T12:33:53Z</time></trkpt><trkpt lat="44.005231448846395" lon="11.375855088351116"><ele>272.0</ele><time>2026-05-01T12:33:54Z</time></trkpt><trkpt lat="44.00513815391986" lon="11.375805391294028"><ele>272.0</ele><time>2026-05-01T12:33:55Z</time></trkpt><trkpt lat="44.00504620572546" lon="11.3757748735666"><ele>272.0</ele><time>2026-05-01T12:33:56Z</time></trkpt><trkpt lat="44.004957350432385" lon="11.375762003559299"><ele>272.0</ele><time>2026-05-01T12:33:57Z</time></trkpt><trkpt lat="44.004852119085015" lon="11.375745053702012"><ele>272.0</ele><time>2026-05-01T12:33:58Z</time></trkpt><trkpt lat="44.004764833064044" lon="11.37572252320488"><ele>271.8</ele><time>2026-05-01T12:33:59Z</time></trkpt><trkpt lat="44.004714831511116" lon="11.375581429850156"><ele>271.6</ele><time>2026-05-01T12:34:01Z</time></trkpt><trkpt lat="44.00473193350872" lon="11.375496908286461"><ele>271.40000000000003</ele><time>2026-05-01T12:34:02Z</time></trkpt><trkpt lat="44.004791092943435" lon="11.375440854019587"><ele>271.2</ele><time>2026-05-01T12:34:03Z</time></trkpt><trkpt lat="44.00488258163771" lon="11.375471177478309"><ele>271.0</ele><time>2026-05-01T12:34:04Z</time></trkpt><trkpt lat="44.00498388109649" lon="11.37539792833373"><ele>272.0</ele><time>2026-05-01T12:34:06Z</time></trkpt><trkpt lat="44.00501208182144" lon="11.375315173828675"><ele>273.0</ele><time>2026-05-01T12:34:07Z</time></trkpt><trkpt lat="44.00492463856523" lon="11.375200500173335"><ele>274.0</ele><time>2026-05-01T12:34:08Z</time></trkpt><trkpt lat="44.0048305405477" lon="11.375084166771575"><ele>275.0</ele><time>2026-05-01T12:34:09Z</time></trkpt><trkpt lat="44.00474939221092" lon="11.374984308268441"><ele>276.0</ele><time>2026-05-01T12:34:10Z</time></trkpt><trkpt lat="44.004580559111844" lon="11.374804646682998"><ele>286.0</ele><time>2026-05-01T12:34:11Z</time></trkpt><trkpt lat="44.00438408078197" lon="11.374635567756417"><ele>296.0</ele><time>2026-05-01T12:34:12Z</time></trkpt><trkpt lat="44.00417320017842" lon="11.374474565201346"><ele>294.2</ele><time>2026-05-01T12:34:13Z</time></trkpt><trkpt lat="44.003996029370846" lon="11.374359126368562"><ele>292.40000000000003</ele><time>2026-05-01T12:34:14Z</time></trkpt><trkpt lat="44.00390573638095" lon="11.37431314042135"><ele>290.6</ele><time>2026-05-01T12:34:15Z</time></trkpt><trkpt lat="44.00383322404727" lon="11.374266920207505"><ele>288.8</ele><time>2026-05-01T12:34:16Z</time></trkpt><trkpt lat="44.003762990694234" lon="11.374233957749125"><ele>287.0</ele><time>2026-05-01T12:34:17Z</time></trkpt><trkpt lat="44.00362345500546" lon="11.374183725326892"><ele>287.0</ele><time>2026-05-01T12:34:19Z</time></trkpt><trkpt lat="44.00353859289099" lon="11.374158935328175"><ele>287.0</ele><time>2026-05-01T12:34:20Z</time></trkpt><trkpt lat="44.00345037322389" lon="11.37411117165856"><ele>287.0</ele><time>2026-05-01T12:34:21Z</time></trkpt><trkpt lat="44.00335743600288" lon="11.374084106994482"><ele>287.0</ele><time>2026-05-01T12:34:22Z</time></trkpt><trkpt lat="44.003260557337285" lon="11.374055894610084"><ele>287.0</ele><time>2026-05-01T12:34:23Z</time></trkpt><trkpt lat="44.00317113541849" lon="11.374032290673908"><ele>285.6</ele><time>2026-05-01T12:34:24Z</time></trkpt><trkpt lat="44.0030739870365" lon="11.374028173823515"><ele>284.2</ele><time>2026-05-01T12:34:25Z</time></trkpt><trkpt lat="44.002979137955755" lon="11.374003905645505"><ele>282.8</ele><time>2026-05-01T12:34:26Z</time></trkpt><trkpt lat="44.00288323526849" lon="11.37395865139398"><ele>281.4</ele><time>2026-05-01T12:34:27Z</time></trkpt><trkpt lat="44.00278110920666" lon="11.373933412495008"><ele>280.0</ele><time>2026-05-01T12:34:27.999Z</time></trkpt><trkpt lat="44.00268294259458" lon="11.37390802007775"><ele>280.0</ele><time>2026-05-01T12:34:28.999Z</time></trkpt><trkpt lat="44.00258613624371" lon="11.373869752783872"><ele>280.0</ele><time>2026-05-01T12:34:29.999Z</time></trkpt><trkpt lat="44.00249155948775" lon="11.373816874777708"><ele>280.0</ele><time>2026-05-01T12:34:30.999Z</time></trkpt><trkpt lat="44.002391397037016" lon="11.373758735097017"><ele>280.0</ele><time>2026-05-01T12:34:31.999Z</time></trkpt><trkpt lat="44.002289295465786" lon="11.373699469880519"><ele>280.0</ele><time>2026-05-01T12:34:32.999Z</time></trkpt><trkpt lat="44.00218898539974" lon="11.373643653170323"><ele>280.0</ele><time>2026-05-01T12:34:33.999Z</time></trkpt><trkpt lat="44.00208553385083" lon="11.373614253232866"><ele>280.0</ele><time>2026-05-01T12:34:34.999Z</time></trkpt><trkpt lat="44.00199556913425" lon="11.373546795988272"><ele>280.0</ele><time>2026-05-01T12:34:35.999Z</time></trkpt><trkpt lat="44.00194339574062" lon="11.373412610650629"><ele>280.0</ele><time>2026-05-01T12:34:36.999Z</time></trkpt><trkpt lat="44.00187433980431" lon="11.373323783732085"><ele>280.0</ele><time>2026-05-01T12:34:37.999Z</time></trkpt><trkpt lat="44.00175673315555" lon="11.373297945215775"><ele>280.0</ele><time>2026-05-01T12:34:38.999Z</time></trkpt><trkpt lat="44.00162576837452" lon="11.373294974285601"><ele>280.0</ele><time>2026-05-01T12:34:39.999Z</time></trkpt><trkpt lat="44.0014980366719" lon="11.373233570280508"><ele>280.0</ele><time>2026-05-01T12:34:40.999Z</time></trkpt><trkpt lat="44.00139129237976" lon="11.373124787174136"><ele>280.0</ele><time>2026-05-01T12:34:41.999Z</time></trkpt><trkpt lat="44.00135530972087" lon="11.372958792719754"><ele>280.0</ele><time>2026-05-01T12:34:42.999Z</time></trkpt><trkpt lat="44.001308717028756" lon="11.372826424508268"><ele>280.0</ele><time>2026-05-01T12:34:43.999Z</time></trkpt><trkpt lat="44.00125561150689" lon="11.372727302484025"><ele>280.0</ele><time>2026-05-01T12:34:44.999Z</time></trkpt><trkpt lat="44.001213696385925" lon="11.372641538658193"><ele>280.0</ele><time>2026-05-01T12:34:45.999Z</time></trkpt><trkpt lat="44.0011631469269" lon="11.372552130877024"><ele>280.0</ele><time>2026-05-01T12:34:46.999Z</time></trkpt><trkpt lat="44.00104418543115" lon="11.372523685289341"><ele>280.0</ele><time>2026-05-01T12:34:47.999Z</time></trkpt><trkpt lat="44.0009273518536" lon="11.372502329449002"><ele>280.0</ele><time>2026-05-01T12:34:48.999Z</time></trkpt><trkpt lat="44.00079307329733" lon="11.372479154030998"><ele>280.0</ele><time>2026-05-01T12:34:49.999Z</time></trkpt><trkpt lat="44.000725919240594" lon="11.372403482189734"><ele>280.0</ele><time>2026-05-01T12:34:50.999Z</time></trkpt><trkpt lat="44.000661585703085" lon="11.37232212773968"><ele>280.0</ele><time>2026-05-01T12:34:51.999Z</time></trkpt><trkpt lat="44.00055147784893" lon="11.372077913649"><ele>278.0</ele><time>2026-05-01T12:34:52.999Z</time></trkpt><trkpt lat="44.000496839048104" lon="11.371947758079903"><ele>276.0</ele><time>2026-05-01T12:34:53.999Z</time></trkpt><trkpt lat="44.00044485060918" lon="11.37184483899452"><ele>274.0</ele><time>2026-05-01T12:34:54.999Z</time></trkpt><trkpt lat="44.000412634425395" lon="11.371766137131633"><ele>272.0</ele><time>2026-05-01T12:34:55.999Z</time></trkpt><trkpt lat="44.00052059493944" lon="11.371679361554573"><ele>270.0</ele><time>2026-05-01T12:34:58.999Z</time></trkpt><trkpt lat="44.00060161981429" lon="11.371684377039829"><ele>270.0</ele><time>2026-05-01T12:35:00.999Z</time></trkpt><trkpt lat="44.0006948597885" lon="11.371673114448953"><ele>270.0</ele><time>2026-05-01T12:35:02.999Z</time></trkpt><trkpt lat="44.00077070223847" lon="11.371673120722466"><ele>270.0</ele><time>2026-05-01T12:35:03.999Z</time></trkpt><trkpt lat="44.00084033471278" lon="11.371650797720942"><ele>270.0</ele><time>2026-05-01T12:35:04.999Z</time></trkpt><trkpt lat="44.00090675808446" lon="11.371569130910233"><ele>270.0</ele><time>2026-05-01T12:35:05.999Z</time></trkpt><trkpt lat="44.000988703697985" lon="11.371478646152227"><ele>270.0</ele><time>2026-05-01T12:35:06.999Z</time></trkpt><trkpt lat="44.00102008496661" lon="11.37135123333691"><ele>271.6</ele><time>2026-05-01T12:35:07.999Z</time></trkpt><trkpt lat="44.00103462431762" lon="11.371216445779547"><ele>273.2</ele><time>2026-05-01T12:35:08.999Z</time></trkpt><trkpt lat="44.001019738733966" lon="11.371074882999828"><ele>274.8</ele><time>2026-05-01T12:35:09.999Z</time></trkpt><trkpt lat="44.00097704174411" lon="11.37092897713757"><ele>276.4</ele><time>2026-05-01T12:35:10.999Z</time></trkpt><trkpt lat="44.000924015989604" lon="11.370775385532738"><ele>278.0</ele><time>2026-05-01T12:35:11.999Z</time></trkpt><trkpt lat="44.000853754809675" lon="11.370634633820485"><ele>278.0</ele><time>2026-05-01T12:35:12.999Z</time></trkpt><trkpt lat="44.000789973812644" lon="11.370491997978503"><ele>278.0</ele><time>2026-05-01T12:35:13.999Z</time></trkpt><trkpt lat="44.00072930045885" lon="11.370350880498917"><ele>278.0</ele><time>2026-05-01T12:35:14.999Z</time></trkpt><trkpt lat="44.000675164576805" lon="11.370218849899695"><ele>278.0</ele><time>2026-05-01T12:35:15.999Z</time></trkpt><trkpt lat="44.0006329385767" lon="11.370095989507195"><ele>278.0</ele><time>2026-05-01T12:35:16.999Z</time></trkpt><trkpt lat="44.00060006738309" lon="11.369970591470231"><ele>278.0</ele><time>2026-05-01T12:35:17.999Z</time></trkpt><trkpt lat="44.00062261851847" lon="11.369828555062258"><ele>278.0</ele><time>2026-05-01T12:35:18.999Z</time></trkpt><trkpt lat="44.00067093703868" lon="11.369723743077014"><ele>278.0</ele><time>2026-05-01T12:35:19.999Z</time></trkpt><trkpt lat="44.00073710942352" lon="11.369652374236033"><ele>278.0</ele><time>2026-05-01T12:35:21.999Z</time></trkpt><trkpt lat="44.0006756834008" lon="11.369503302743738"><ele>278.0</ele><time>2026-05-01T12:35:22.999Z</time></trkpt><trkpt lat="44.000577078544765" lon="11.369446938025211"><ele>280.0</ele><time>2026-05-01T12:35:23.999Z</time></trkpt><trkpt lat="44.000470263399464" lon="11.369372798068788"><ele>282.0</ele><time>2026-05-01T12:35:24.999Z</time></trkpt><trkpt lat="44.00036446420669" lon="11.36930474711498"><ele>284.0</ele><time>2026-05-01T12:35:25.999Z</time></trkpt><trkpt lat="44.00025725785957" lon="11.369218044744278"><ele>286.0</ele><time>2026-05-01T12:35:26.999Z</time></trkpt><trkpt lat="44.000150385067855" lon="11.369106246071222"><ele>286.0</ele><time>2026-05-01T12:35:27.999Z</time></trkpt><trkpt lat="44.00006043162702" lon="11.368954307722479"><ele>286.0</ele><time>2026-05-01T12:35:28.999Z</time></trkpt><trkpt lat="43.9999440007751" lon="11.368828796776436"><ele>286.0</ele><time>2026-05-01T12:35:29.999Z</time></trkpt><trkpt lat="43.99985182007316" lon="11.368670997545623"><ele>286.0</ele><time>2026-05-01T12:35:30.999Z</time></trkpt><trkpt lat="43.99974819653846" lon="11.36852554628547"><ele>289.25</ele><time>2026-05-01T12:35:31.999Z</time></trkpt><trkpt lat="43.99963792947198" lon="11.368406415938503"><ele>292.5</ele><time>2026-05-01T12:35:32.999Z</time></trkpt><trkpt lat="43.99953653138051" lon="11.36826401607786"><ele>295.75</ele><time>2026-05-01T12:35:33.999Z</time></trkpt><trkpt lat="43.9994040074163" lon="11.368168677300481"><ele>299.0</ele><time>2026-05-01T12:35:34.999Z</time></trkpt><trkpt lat="43.99927477017508" lon="11.368093811880481"><ele>296.6666666666667</ele><time>2026-05-01T12:35:35.999Z</time></trkpt><trkpt lat="43.999136259697806" lon="11.36802718266098"><ele>294.3333333333333</ele><time>2026-05-01T12:35:36.999Z</time></trkpt><trkpt lat="43.99899070412788" lon="11.367958175999641"><ele>292.0</ele><time>2026-05-01T12:35:37.999Z</time></trkpt><trkpt lat="43.998835735091546" lon="11.367883383560544"><ele>292.0</ele><time>2026-05-01T12:35:38.999Z</time></trkpt><trkpt lat="43.99867166814057" lon="11.367801993309355"><ele>292.0</ele><time>2026-05-01T12:35:39.999Z</time></trkpt><trkpt lat="43.99850242779188" lon="11.367718036748936"><ele>292.0</ele><time>2026-05-01T12:35:40.999Z</time></trkpt><trkpt lat="43.99832223338542" lon="11.36762864606496"><ele>292.0</ele><time>2026-05-01T12:35:41.999Z</time></trkpt><trkpt lat="43.998136644970735" lon="11.367537649102541"><ele>292.0</ele><time>2026-05-01T12:35:42.999Z</time></trkpt><trkpt lat="43.99796448903574" lon="11.3674533119647"><ele>292.0</ele><time>2026-05-01T12:35:43.999Z</time></trkpt><trkpt lat="43.99780814824873" lon="11.367378102863903"><ele>292.0</ele><time>2026-05-01T12:35:44.999Z</time></trkpt><trkpt lat="43.99766518286705" lon="11.367309425347077"><ele>292.0</ele><time>2026-05-01T12:35:45.999Z</time></trkpt><trkpt lat="43.99755171074614" lon="11.367254915815472"><ele>292.0</ele><time>2026-05-01T12:35:46.999Z</time></trkpt><trkpt lat="43.99747274197581" lon="11.367219277343047"><ele>292.0</ele><time>2026-05-01T12:35:47.999Z</time></trkpt><trkpt lat="43.99741299712129" lon="11.367178085218205"><ele>292.0</ele><time>2026-05-01T12:35:48.999Z</time></trkpt><trkpt lat="43.997336134295665" lon="11.367098832200897"><ele>292.66666666666663</ele><time>2026-05-01T12:35:51Z</time></trkpt><trkpt lat="43.99726432778458" lon="11.366977893540767"><ele>293.3333333333333</ele><time>2026-05-01T12:35:53Z</time></trkpt><trkpt lat="43.997218071694675" lon="11.366909779488184"><ele>294.0</ele><time>2026-05-01T12:35:54Z</time></trkpt><trkpt lat="43.99716710585554" lon="11.366844554577565"><ele>294.6666666666667</ele><time>2026-05-01T12:35:55Z</time></trkpt><trkpt lat="43.99709755163848" lon="11.366756645280482"><ele>295.33333333333337</ele><time>2026-05-01T12:35:57Z</time></trkpt><trkpt lat="43.997045501797906" lon="11.366692332338861"><ele>296.0</ele><time>2026-05-01T12:35:59Z</time></trkpt><trkpt lat="43.99699230000342" lon="11.366628228337587"><ele>296.0</ele><time>2026-05-01T12:36:01Z</time></trkpt><trkpt lat="43.996932697040634" lon="11.366712932025033"><ele>296.0</ele><time>2026-05-01T12:36:02Z</time></trkpt><trkpt lat="43.99698027036884" lon="11.366618785181432"><ele>296.0</ele><time>2026-05-01T12:36:04Z</time></trkpt><trkpt lat="43.99690385282597" lon="11.366551996025073"><ele>296.0</ele><time>2026-05-01T12:36:08Z</time></trkpt><trkpt lat="43.996829117792736" lon="11.366446822993684"><ele>296.0</ele><time>2026-05-01T12:36:10Z</time></trkpt><trkpt lat="43.99675869425934" lon="11.366377185858509"><ele>295.5</ele><time>2026-05-01T12:36:12Z</time></trkpt><trkpt lat="43.99670379958969" lon="11.366328327552676"><ele>295.0</ele><time>2026-05-01T12:36:14Z</time></trkpt><trkpt lat="43.996629568065735" lon="11.366276942503788"><ele>294.5</ele><time>2026-05-01T12:36:16Z</time></trkpt><trkpt lat="43.99656801772004" lon="11.366248737440618"><ele>294.0</ele><time>2026-05-01T12:36:17Z</time></trkpt><trkpt lat="43.99649189134619" lon="11.36622058810486"><ele>293.5</ele><time>2026-05-01T12:36:18Z</time></trkpt><trkpt lat="43.996409415893375" lon="11.366186808837385"><ele>293.0</ele><time>2026-05-01T12:36:19Z</time></trkpt><trkpt lat="43.9963394485901" lon="11.366149026716348"><ele>293.0</ele><time>2026-05-01T12:36:20Z</time></trkpt><trkpt lat="43.99627937760398" lon="11.36611717705349"><ele>293.0</ele><time>2026-05-01T12:36:21Z</time></trkpt><trkpt lat="43.996168277579784" lon="11.366046028527231"><ele>293.0</ele><time>2026-05-01T12:36:23Z</time></trkpt><trkpt lat="43.996108199698135" lon="11.365993480781796"><ele>293.0</ele><time>2026-05-01T12:36:24Z</time></trkpt><trkpt lat="43.996052044915864" lon="11.365932778867734"><ele>293.0</ele><time>2026-05-01T12:36:25Z</time></trkpt><trkpt lat="43.99599020853319" lon="11.365896169517434"><ele>293.0</ele><time>2026-05-01T12:36:26Z</time></trkpt><trkpt lat="43.995888989195045" lon="11.365777272298272"><ele>290.8</ele><time>2026-05-01T12:36:28Z</time></trkpt><trkpt lat="43.99582387314895" lon="11.365731471815321"><ele>288.6</ele><time>2026-05-01T12:36:29Z</time></trkpt><trkpt lat="43.99575526852387" lon="11.365687611448827"><ele>286.4</ele><time>2026-05-01T12:36:30Z</time></trkpt><trkpt lat="43.99567762526882" lon="11.365661471430572"><ele>284.2</ele><time>2026-05-01T12:36:30.999Z</time></trkpt><trkpt lat="43.995584758136644" lon="11.365610972411204"><ele>282.0</ele><time>2026-05-01T12:36:31.999Z</time></trkpt><trkpt lat="43.995465820903384" lon="11.365549513858996"><ele>285.2</ele><time>2026-05-01T12:36:32.999Z</time></trkpt><trkpt lat="43.99534830282473" lon="11.365483179660659"><ele>288.4</ele><time>2026-05-01T12:36:33.999Z</time></trkpt><trkpt lat="43.99524607225764" lon="11.365465896978968"><ele>291.6</ele><time>2026-05-01T12:36:34.999Z</time></trkpt><trkpt lat="43.995164996166885" lon="11.36546402645364"><ele>294.8</ele><time>2026-05-01T12:36:35.999Z</time></trkpt><trkpt lat="43.995099885647285" lon="11.365427412655869"><ele>298.0</ele><time>2026-05-01T12:36:36.999Z</time></trkpt><trkpt lat="43.995028041185286" lon="11.365403403979947"><ele>296.8333333333333</ele><time>2026-05-01T12:36:37.999Z</time></trkpt><trkpt lat="43.9949517512101" lon="11.365389112527499"><ele>295.66666666666663</ele><time>2026-05-01T12:36:38.999Z</time></trkpt><trkpt lat="43.99488426813003" lon="11.365365342861862"><ele>294.5</ele><time>2026-05-01T12:36:39.999Z</time></trkpt><trkpt lat="43.994774042946226" lon="11.365307764171483"><ele>293.3333333333333</ele><time>2026-05-01T12:36:41.999Z</time></trkpt><trkpt lat="43.994674109997746" lon="11.365274680914537"><ele>292.1666666666667</ele><time>2026-05-01T12:36:43.999Z</time></trkpt><trkpt lat="43.994607193697036" lon="11.365252528591737"><ele>291.0</ele><time>2026-05-01T12:36:45.999Z</time></trkpt><trkpt lat="43.99453999371976" lon="11.365217914252813"><ele>291.0</ele><time>2026-05-01T12:40:05Z</time></trkpt><trkpt lat="43.99463997833963" lon="11.365268529888194"><ele>291.0</ele><time>2026-05-01T12:40:31.999Z</time></trkpt><trkpt lat="43.99470263143119" lon="11.365287380754259"><ele>291.0</ele><time>2026-05-01T12:40:32.999Z</time></trkpt><trkpt lat="43.994765368064435" lon="11.365309619703226"><ele>291.0</ele><time>2026-05-01T12:40:33.999Z</time></trkpt><trkpt lat="43.994882577933154" lon="11.365349876688757"><ele>291.0</ele><time>2026-05-01T12:40:35.999Z</time></trkpt><trkpt lat="43.99498828539133" lon="11.365391629571457"><ele>292.40000000000003</ele><time>2026-05-01T12:40:37.999Z</time></trkpt><trkpt lat="43.995052506779224" lon="11.365417172399592"><ele>293.8</ele><time>2026-05-01T12:40:38.999Z</time></trkpt><trkpt lat="43.99517179533814" lon="11.365453916910655"><ele>295.20000000000005</ele><time>2026-05-01T12:40:40.999Z</time></trkpt><trkpt lat="43.99529274010804" lon="11.36548251451018"><ele>296.6</ele><time>2026-05-01T12:40:42.999Z</time></trkpt><trkpt lat="43.99535820480594" lon="11.365500411132864"><ele>298.0</ele><time>2026-05-01T12:40:43.999Z</time></trkpt><trkpt lat="43.995427849226395" lon="11.36552769888742"><ele>297.0</ele><time>2026-05-01T12:40:44.999Z</time></trkpt><trkpt lat="43.995500363912846" lon="11.36553658496628"><ele>296.0</ele><time>2026-05-01T12:40:45.999Z</time></trkpt><trkpt lat="43.99556790410202" lon="11.365573631935394"><ele>295.0</ele><time>2026-05-01T12:40:46.999Z</time></trkpt><trkpt lat="43.995694482204144" lon="11.365689365547917"><ele>294.0</ele><time>2026-05-01T12:40:47.999Z</time></trkpt><trkpt lat="43.99581890879196" lon="11.365763412123895"><ele>293.0</ele><time>2026-05-01T12:40:48.999Z</time></trkpt><trkpt lat="43.99593126305733" lon="11.36583579740704"><ele>293.0</ele><time>2026-05-01T12:40:49.999Z</time></trkpt><trkpt lat="43.99601177970195" lon="11.365947961390278"><ele>293.0</ele><time>2026-05-01T12:40:50.999Z</time></trkpt><trkpt lat="43.9961021379235" lon="11.366042923713527"><ele>293.0</ele><time>2026-05-01T12:40:51.999Z</time></trkpt><trkpt lat="43.99620166703147" lon="11.366120154949435"><ele>293.0</ele><time>2026-05-01T12:40:52.999Z</time></trkpt><trkpt lat="43.99630253469324" lon="11.36615728744876"><ele>293.0</ele><time>2026-05-01T12:40:53.999Z</time></trkpt><trkpt lat="43.99638360872787" lon="11.366221831189337"><ele>293.0</ele><time>2026-05-01T12:40:54.999Z</time></trkpt><trkpt lat="43.996467517702634" lon="11.366259975038975"><ele>293.0</ele><time>2026-05-01T12:40:55.999Z</time></trkpt><trkpt lat="43.99655685989466" lon="11.366276251089294"><ele>293.0</ele><time>2026-05-01T12:40:56.999Z</time></trkpt><trkpt lat="43.99662923650361" lon="11.36631984271979"><ele>293.0</ele><time>2026-05-01T12:40:57.999Z</time></trkpt><trkpt lat="43.996708071463885" lon="11.366367695657456"><ele>293.0</ele><time>2026-05-01T12:40:58.999Z</time></trkpt><trkpt lat="43.99677039971767" lon="11.366444548645932"><ele>293.0</ele><time>2026-05-01T12:40:59.999Z</time></trkpt><trkpt lat="43.99683824035904" lon="11.366514663674147"><ele>293.6</ele><time>2026-05-01T12:41:00.999Z</time></trkpt><trkpt lat="43.99690969193993" lon="11.366592142110461"><ele>294.20000000000005</ele><time>2026-05-01T12:41:01.999Z</time></trkpt><trkpt lat="43.9969787276631" lon="11.366672957586987"><ele>294.8</ele><time>2026-05-01T12:41:02.999Z</time></trkpt><trkpt lat="43.99704801309078" lon="11.366757245771852"><ele>295.40000000000003</ele><time>2026-05-01T12:41:03.999Z</time></trkpt><trkpt lat="43.99711506723439" lon="11.366840098185879"><ele>296.0</ele><time>2026-05-01T12:41:04.999Z</time></trkpt><trkpt lat="43.99717903694193" lon="11.366923040474742"><ele>296.0</ele><time>2026-05-01T12:41:05.999Z</time></trkpt><trkpt lat="43.997238912219366" lon="11.367006339737587"><ele>296.0</ele><time>2026-05-01T12:41:06.999Z</time></trkpt><trkpt lat="43.99729792798531" lon="11.367093844814748"><ele>296.0</ele><time>2026-05-01T12:41:07.999Z</time></trkpt><trkpt lat="43.997358164503" lon="11.367177682357072"><ele>296.0</ele><time>2026-05-01T12:41:08.999Z</time></trkpt><trkpt lat="43.99744494606759" lon="11.367255466438216"><ele>296.0</ele><time>2026-05-01T12:41:09.999Z</time></trkpt><trkpt lat="43.99755198793105" lon="11.36728885821755"><ele>295.2</ele><time>2026-05-01T12:41:10.999Z</time></trkpt><trkpt lat="43.997640645069225" lon="11.367340140551532"><ele>294.40000000000003</ele><time>2026-05-01T12:41:11.999Z</time></trkpt><trkpt lat="43.99773566549852" lon="11.367380987955686"><ele>293.6</ele><time>2026-05-01T12:41:12.999Z</time></trkpt><trkpt lat="43.99783801560815" lon="11.367426525214288"><ele>292.8</ele><time>2026-05-01T12:41:13.999Z</time></trkpt><trkpt lat="43.99793841486278" lon="11.367475557733268"><ele>292.0</ele><time>2026-05-01T12:41:14.999Z</time></trkpt><trkpt lat="43.99803832281739" lon="11.367527468081406"><ele>292.0</ele><time>2026-05-01T12:41:15.999Z</time></trkpt><trkpt lat="43.998141858805226" lon="11.367597054948163"><ele>292.0</ele><time>2026-05-01T12:41:16.999Z</time></trkpt><trkpt lat="43.99825346179436" lon="11.367643803061293"><ele>292.0</ele><time>2026-05-01T12:41:17.999Z</time></trkpt><trkpt lat="43.998371045057944" lon="11.367701856550365"><ele>292.0</ele><time>2026-05-01T12:41:18.999Z</time></trkpt><trkpt lat="43.998486486947606" lon="11.367759124841012"><ele>295.75</ele><time>2026-05-01T12:41:19.999Z</time></trkpt><trkpt lat="43.998593050965276" lon="11.36781198907774"><ele>299.5</ele><time>2026-05-01T12:41:20.999Z</time></trkpt><trkpt lat="43.99870308651847" lon="11.36786657532227"><ele>303.25</ele><time>2026-05-01T12:41:21.999Z</time></trkpt><trkpt lat="43.998810008087275" lon="11.367936397379342"><ele>307.0</ele><time>2026-05-01T12:41:22.999Z</time></trkpt><trkpt lat="43.99892067118456" lon="11.367979866780352"><ele>307.0</ele><time>2026-05-01T12:41:23.999Z</time></trkpt><trkpt lat="43.9990262275927" lon="11.368022074856736"><ele>307.0</ele><time>2026-05-01T12:41:24.999Z</time></trkpt><trkpt lat="43.99912983159223" lon="11.36806315046162"><ele>307.0</ele><time>2026-05-01T12:41:25.999Z</time></trkpt><trkpt lat="43.99923137502504" lon="11.368104183452706"><ele>307.0</ele><time>2026-05-01T12:41:26.999Z</time></trkpt><trkpt lat="43.99932865941953" lon="11.368173700111953"><ele>307.0</ele><time>2026-05-01T12:41:27.999Z</time></trkpt><trkpt lat="43.999436875143786" lon="11.368217820552369"><ele>305.0</ele><time>2026-05-01T12:41:28.999Z</time></trkpt><trkpt lat="43.99953047124864" lon="11.368298501150498"><ele>303.0</ele><time>2026-05-01T12:41:29.999Z</time></trkpt><trkpt lat="43.99962063116842" lon="11.368389767924256"><ele>301.0</ele><time>2026-05-01T12:41:30.999Z</time></trkpt><trkpt lat="43.99969081466523" lon="11.368510671572063"><ele>299.0</ele><time>2026-05-01T12:41:31.999Z</time></trkpt><trkpt lat="43.999774048022296" lon="11.368627502133968"><ele>299.0</ele><time>2026-05-01T12:41:32.999Z</time></trkpt><trkpt lat="43.99985974811502" lon="11.36874755507906"><ele>299.0</ele><time>2026-05-01T12:41:33.999Z</time></trkpt><trkpt lat="43.99995573470323" lon="11.368845635876903"><ele>299.0</ele><time>2026-05-01T12:41:34.999Z</time></trkpt><trkpt lat="44.00003158865862" lon="11.368979772051532"><ele>299.0</ele><time>2026-05-01T12:41:35.999Z</time></trkpt><trkpt lat="44.00011828418659" lon="11.369102570059663"><ele>295.75</ele><time>2026-05-01T12:41:36.999Z</time></trkpt><trkpt lat="44.00020642212842" lon="11.369223374898526"><ele>292.5</ele><time>2026-05-01T12:41:37.999Z</time></trkpt><trkpt lat="44.000303917575714" lon="11.369325962067242"><ele>289.25</ele><time>2026-05-01T12:41:38.999Z</time></trkpt><trkpt lat="44.000417312516404" lon="11.369393602228696"><ele>286.0</ele><time>2026-05-01T12:41:39.999Z</time></trkpt><trkpt lat="44.000517837679055" lon="11.369447877974261"><ele>286.0</ele><time>2026-05-01T12:41:40.999Z</time></trkpt><trkpt lat="44.00059909146172" lon="11.369499494282183"><ele>286.0</ele><time>2026-05-01T12:41:41.999Z</time></trkpt><trkpt lat="44.00066505855405" lon="11.369541020043803"><ele>286.0</ele><time>2026-05-01T12:41:42.999Z</time></trkpt><trkpt lat="44.00075244342291" lon="11.369619240264255"><ele>286.0</ele><time>2026-05-01T12:41:44.999Z</time></trkpt><trkpt lat="44.00061405175674" lon="11.369763623463976"><ele>286.0</ele><time>2026-05-01T12:41:45.999Z</time></trkpt><trkpt lat="44.000574296992625" lon="11.36995091127863"><ele>284.66666666666663</ele><time>2026-05-01T12:41:47.999Z</time></trkpt><trkpt lat="44.000577236671056" lon="11.370063094915883"><ele>283.3333333333333</ele><time>2026-05-01T12:41:48.999Z</time></trkpt><trkpt lat="44.00062182407434" lon="11.370181645037333"><ele>282.0</ele><time>2026-05-01T12:41:49.999Z</time></trkpt><trkpt lat="44.00066473398929" lon="11.370282694889337"><ele>280.6666666666667</ele><time>2026-05-01T12:41:50.999Z</time></trkpt><trkpt lat="44.00070611441641" lon="11.370382173658765"><ele>279.33333333333337</ele><time>2026-05-01T12:41:51.999Z</time></trkpt><trkpt lat="44.000741105397466" lon="11.37046592334956"><ele>278.0</ele><time>2026-05-01T12:41:52.999Z</time></trkpt><trkpt lat="44.00077614860896" lon="11.370549798169518"><ele>278.0</ele><time>2026-05-01T12:41:53.999Z</time></trkpt><trkpt lat="44.000806892164626" lon="11.370652680350862"><ele>278.0</ele><time>2026-05-01T12:41:54.999Z</time></trkpt><trkpt lat="44.00085334118923" lon="11.37075330011854"><ele>278.0</ele><time>2026-05-01T12:41:56.998Z</time></trkpt><trkpt lat="44.00089631725417" lon="11.370878747912556"><ele>278.0</ele><time>2026-05-01T12:41:58.998Z</time></trkpt><trkpt lat="44.00095856088208" lon="11.371038644096268"><ele>278.0</ele><time>2026-05-01T12:42:00.998Z</time></trkpt><trkpt lat="44.000992818677865" lon="11.371137681157055"><ele>278.0</ele><time>2026-05-01T12:42:01.998Z</time></trkpt><trkpt lat="44.001008722815676" lon="11.371244609432672"><ele>278.0</ele><time>2026-05-01T12:42:02.998Z</time></trkpt><trkpt lat="44.00099850103611" lon="11.371372764053152"><ele>278.0</ele><time>2026-05-01T12:42:03.998Z</time></trkpt><trkpt lat="44.000938324900474" lon="11.371480200324942"><ele>278.0</ele><time>2026-05-01T12:42:04.998Z</time></trkpt><trkpt lat="44.00087184683662" lon="11.371568827309355"><ele>278.0</ele><time>2026-05-01T12:42:05.998Z</time></trkpt><trkpt lat="44.000784610783725" lon="11.371611599366178"><ele>276.4</ele><time>2026-05-01T12:42:06.998Z</time></trkpt><trkpt lat="44.000695422900776" lon="11.371612680013023"><ele>274.8</ele><time>2026-05-01T12:42:08Z</time></trkpt><trkpt lat="44.00059065460023" lon="11.371626479939646"><ele>273.2</ele><time>2026-05-01T12:42:09Z</time></trkpt><trkpt lat="44.000498169911275" lon="11.371638661252602"><ele>271.6</ele><time>2026-05-01T12:42:10Z</time></trkpt><trkpt lat="44.00042315895616" lon="11.371642029923358"><ele>270.0</ele><time>2026-05-01T12:42:11Z</time></trkpt><trkpt lat="44.00033054397219" lon="11.371650487643274"><ele>270.0</ele><time>2026-05-01T12:42:13Z</time></trkpt><trkpt lat="44.00026591277662" lon="11.371656389774527"><ele>270.0</ele><time>2026-05-01T12:42:14Z</time></trkpt><trkpt lat="44.000171696611204" lon="11.371664913288207"><ele>270.0</ele><time>2026-05-01T12:42:15Z</time></trkpt><trkpt lat="44.00004161070869" lon="11.371676692314988"><ele>270.0</ele><time>2026-05-01T12:42:17Z</time></trkpt><trkpt lat="43.99994732903883" lon="11.371685682860674"><ele>270.0</ele><time>2026-05-01T12:42:18Z</time></trkpt><trkpt lat="43.99984638740576" lon="11.371695569805075"><ele>270.0</ele><time>2026-05-01T12:42:19Z</time></trkpt><trkpt lat="43.999754531917944" lon="11.371726443366185"><ele>270.0</ele><time>2026-05-01T12:42:20Z</time></trkpt><trkpt lat="43.99965645153453" lon="11.37173769192134"><ele>270.0</ele><time>2026-05-01T12:42:21Z</time></trkpt><trkpt lat="43.999559106662055" lon="11.371727348237192"><ele>270.0</ele><time>2026-05-01T12:42:22Z</time></trkpt><trkpt lat="43.99946454178502" lon="11.371760429412873"><ele>270.0</ele><time>2026-05-01T12:42:23Z</time></trkpt><trkpt lat="43.999370731706556" lon="11.371767778782203"><ele>270.0</ele><time>2026-05-01T12:42:24Z</time></trkpt><trkpt lat="43.99928201758597" lon="11.371754736516873"><ele>270.0</ele><time>2026-05-01T12:42:25Z</time></trkpt><trkpt lat="43.9992113816596" lon="11.37174983498707"><ele>270.0</ele><time>2026-05-01T12:42:26Z</time></trkpt><trkpt lat="43.99908778759223" lon="11.371744257773033"><ele>270.0</ele><time>2026-05-01T12:42:28Z</time></trkpt><trkpt lat="43.99901681940398" lon="11.371700859029346"><ele>270.0</ele><time>2026-05-01T12:42:30Z</time></trkpt><trkpt lat="43.99906691466243" lon="11.371789280710852"><ele>270.0</ele><time>2026-05-01T12:42:34.999Z</time></trkpt><trkpt lat="43.999153664586785" lon="11.37179849566028"><ele>270.0</ele><time>2026-05-01T12:42:36.999Z</time></trkpt><trkpt lat="43.999305840732866" lon="11.371809840781657"><ele>270.0</ele><time>2026-05-01T12:44:24Z</time></trkpt><trkpt lat="43.99939480201827" lon="11.371796648032742"><ele>270.0</ele><time>2026-05-01T12:44:25Z</time></trkpt><trkpt lat="43.99949177299743" lon="11.371780640991675"><ele>270.0</ele><time>2026-05-01T12:44:26Z</time></trkpt><trkpt lat="43.99959746250466" lon="11.371769466493205"><ele>270.0</ele><time>2026-05-01T12:44:27Z</time></trkpt><trkpt lat="43.99970967663524" lon="11.371757930570514"><ele>270.0</ele><time>2026-05-01T12:44:28Z</time></trkpt><trkpt lat="43.99981727960287" lon="11.371746837460876"><ele>270.0</ele><time>2026-05-01T12:44:29Z</time></trkpt><trkpt lat="43.99991936696171" lon="11.371736107689818"><ele>270.0</ele><time>2026-05-01T12:44:30Z</time></trkpt><trkpt lat="44.00002058918655" lon="11.371726622311728"><ele>270.0</ele><time>2026-05-01T12:44:31Z</time></trkpt><trkpt lat="44.000105744628534" lon="11.371720404231386"><ele>270.0</ele><time>2026-05-01T12:44:32Z</time></trkpt><trkpt lat="44.00017118794727" lon="11.371711703234949"><ele>270.0</ele><time>2026-05-01T12:44:32.999Z</time></trkpt><trkpt lat="44.000273791258145" lon="11.371701894167744"><ele>270.0</ele><time>2026-05-01T12:44:34.999Z</time></trkpt><trkpt lat="44.00037874408433" lon="11.371692391447057"><ele>270.0</ele><time>2026-05-01T12:44:36.999Z</time></trkpt><trkpt lat="44.000430462715016" lon="11.371887033318787"><ele>270.0</ele><time>2026-05-01T12:44:37.999Z</time></trkpt><trkpt lat="44.000486279488946" lon="11.371984946247423"><ele>270.0</ele><time>2026-05-01T12:44:38.999Z</time></trkpt><trkpt lat="44.000535804176685" lon="11.37209109710799"><ele>269.8</ele><time>2026-05-01T12:44:39.999Z</time></trkpt><trkpt lat="44.00058433456137" lon="11.372198266579206"><ele>269.6</ele><time>2026-05-01T12:44:40.999Z</time></trkpt><trkpt lat="44.00063638835932" lon="11.372308942785256"><ele>269.4</ele><time>2026-05-01T12:44:41.999Z</time></trkpt><trkpt lat="44.00070228967684" lon="11.372413323887958"><ele>269.2</ele><time>2026-05-01T12:44:42.999Z</time></trkpt><trkpt lat="44.00077535127313" lon="11.372498716793801"><ele>269.0</ele><time>2026-05-01T12:44:43.999Z</time></trkpt><trkpt lat="44.0008535860112" lon="11.372537974133479"><ele>270.83333333333337</ele><time>2026-05-01T12:44:44.999Z</time></trkpt><trkpt lat="44.00092749304286" lon="11.372528738469656"><ele>272.6666666666667</ele><time>2026-05-01T12:44:45.999Z</time></trkpt><trkpt lat="44.00100070892759" lon="11.372548406489958"><ele>274.5</ele><time>2026-05-01T12:44:46.999Z</time></trkpt><trkpt lat="44.001079149106936" lon="11.372565573909247"><ele>276.3333333333333</ele><time>2026-05-01T12:44:47.999Z</time></trkpt><trkpt lat="44.00115988728685" lon="11.372599285641135"><ele>278.16666666666663</ele><time>2026-05-01T12:44:48.999Z</time></trkpt><trkpt lat="44.00123562408691" lon="11.372658823113676"><ele>280.0</ele><time>2026-05-01T12:44:49.999Z</time></trkpt><trkpt lat="44.00125680677125" lon="11.37278692663113"><ele>280.0</ele><time>2026-05-01T12:44:50.999Z</time></trkpt><trkpt lat="44.00129866162588" lon="11.372901246036871"><ele>280.0</ele><time>2026-05-01T12:44:51.999Z</time></trkpt><trkpt lat="44.001343179747685" lon="11.373023683085938"><ele>280.0</ele><time>2026-05-01T12:44:52.999Z</time></trkpt><trkpt lat="44.001394644517866" lon="11.373145759449043"><ele>280.0</ele><time>2026-05-01T12:44:53.999Z</time></trkpt><trkpt lat="44.00148437225106" lon="11.373270861074909"><ele>280.0</ele><time>2026-05-01T12:44:54.999Z</time></trkpt><trkpt lat="44.00162546377248" lon="11.37332252241659"><ele>280.0</ele><time>2026-05-01T12:44:55.999Z</time></trkpt><trkpt lat="44.00175581036478" lon="11.373323031109653"><ele>280.0</ele><time>2026-05-01T12:44:56.999Z</time></trkpt><trkpt lat="44.0018673195907" lon="11.373354626952723"><ele>280.0</ele><time>2026-05-01T12:44:57.999Z</time></trkpt><trkpt lat="44.001947655903926" lon="11.373466071415702"><ele>280.0</ele><time>2026-05-01T12:44:58.999Z</time></trkpt><trkpt lat="44.002050540329286" lon="11.373641959420308"><ele>280.0</ele><time>2026-05-01T12:44:59.999Z</time></trkpt><trkpt lat="44.002220921263394" lon="11.373690433608147"><ele>280.0</ele><time>2026-05-01T12:45:00.999Z</time></trkpt><trkpt lat="44.00235784400489" lon="11.37378927576813"><ele>280.0</ele><time>2026-05-01T12:45:01.999Z</time></trkpt><trkpt lat="44.00249266083201" lon="11.373845850475915"><ele>280.0</ele><time>2026-05-01T12:45:02.999Z</time></trkpt><trkpt lat="44.002617925964906" lon="11.373911950343526"><ele>280.0</ele><time>2026-05-01T12:45:03.999Z</time></trkpt><trkpt lat="44.002751282106" lon="11.373962765966496"><ele>280.0</ele><time>2026-05-01T12:45:04.999Z</time></trkpt><trkpt lat="44.00288961539913" lon="11.374002217777406"><ele>280.0</ele><time>2026-05-01T12:45:05.999Z</time></trkpt><trkpt lat="44.00302477267638" lon="11.374030897133528"><ele>280.0</ele><time>2026-05-01T12:45:06.999Z</time></trkpt><trkpt lat="44.003146541118326" lon="11.374059035962778"><ele>280.0</ele><time>2026-05-01T12:45:07.999Z</time></trkpt><trkpt lat="44.00326141814423" lon="11.374094893246868"><ele>280.0</ele><time>2026-05-01T12:45:08.999Z</time></trkpt><trkpt lat="44.0033720564766" lon="11.37412734470746"><ele>280.0</ele><time>2026-05-01T12:45:09.999Z</time></trkpt><trkpt lat="44.003479621057494" lon="11.374156909541501"><ele>281.4</ele><time>2026-05-01T12:45:10.999Z</time></trkpt><trkpt lat="44.00357640632991" lon="11.374191894380953"><ele>282.8</ele><time>2026-05-01T12:45:11.999Z</time></trkpt><trkpt lat="44.00368523865734" lon="11.374251562548329"><ele>284.2</ele><time>2026-05-01T12:45:12.999Z</time></trkpt><trkpt lat="44.003797168674396" lon="11.37429209500659"><ele>285.6</ele><time>2026-05-01T12:45:13.999Z</time></trkpt><trkpt lat="44.003898006078195" lon="11.374351617216401"><ele>287.0</ele><time>2026-05-01T12:45:14.999Z</time></trkpt><trkpt lat="44.003996226875124" lon="11.37441251791217"><ele>287.0</ele><time>2026-05-01T12:45:15.999Z</time></trkpt><trkpt lat="44.00408561257613" lon="11.374466169183128"><ele>287.0</ele><time>2026-05-01T12:45:16.999Z</time></trkpt><trkpt lat="44.00418251540609" lon="11.374527783283465"><ele>287.0</ele><time>2026-05-01T12:45:17.999Z</time></trkpt><trkpt lat="44.00427879574518" lon="11.374596515969028"><ele>287.0</ele><time>2026-05-01T12:45:18.999Z</time></trkpt><trkpt lat="44.00437717326261" lon="11.374673149060547"><ele>287.0</ele><time>2026-05-01T12:45:19.999Z</time></trkpt><trkpt lat="44.00447780889159" lon="11.374756995176837"><ele>284.25</ele><time>2026-05-01T12:45:20.999Z</time></trkpt><trkpt lat="44.00461899897843" lon="11.374862230779696"><ele>281.5</ele><time>2026-05-01T12:45:21.999Z</time></trkpt><trkpt lat="44.00470718810039" lon="11.374980422855703"><ele>278.75</ele><time>2026-05-01T12:45:22.999Z</time></trkpt><trkpt lat="44.004800389939206" lon="11.375092404514278"><ele>276.0</ele><time>2026-05-01T12:45:23.999Z</time></trkpt><trkpt lat="44.004876578704426" lon="11.375187130285509"><ele>276.0</ele><time>2026-05-01T12:45:24.999Z</time></trkpt><trkpt lat="44.004929878014906" lon="11.375262464558643"><ele>276.0</ele><time>2026-05-01T12:45:25.999Z</time></trkpt><trkpt lat="44.00498488642442" lon="11.375396698666822"><ele>276.0</ele><time>2026-05-01T12:45:27.999Z</time></trkpt><trkpt lat="44.00488432848852" lon="11.37540620901118"><ele>276.0</ele><time>2026-05-01T12:45:31.999Z</time></trkpt><trkpt lat="44.004807911293526" lon="11.375412712963861"><ele>276.0</ele><time>2026-05-01T12:45:32.999Z</time></trkpt><trkpt lat="44.004794539986236" lon="11.375584082251276"><ele>275.3333333333333</ele><time>2026-05-01T12:45:33.999Z</time></trkpt><trkpt lat="44.00479500979272" lon="11.375685249423142"><ele>274.6666666666667</ele><time>2026-05-01T12:45:34.999Z</time></trkpt><trkpt lat="44.00476159810714" lon="11.375775407000226"><ele>274.0</ele><time>2026-05-01T12:45:35.999Z</time></trkpt><trkpt lat="44.004854264885786" lon="11.375793338521436"><ele>273.33333333333337</ele><time>2026-05-01T12:45:36.999Z</time></trkpt><trkpt lat="44.004951718579676" lon="11.375797159064753"><ele>272.6666666666667</ele><time>2026-05-01T12:45:37.999Z</time></trkpt><trkpt lat="44.0050428804543" lon="11.375814408682988"><ele>272.0</ele><time>2026-05-01T12:45:38.999Z</time></trkpt><trkpt lat="44.005140476137456" lon="11.375849794976602"><ele>272.0</ele><time>2026-05-01T12:45:39.999Z</time></trkpt><trkpt lat="44.00522791377841" lon="11.375902162149703"><ele>272.0</ele><time>2026-05-01T12:45:40.999Z</time></trkpt><trkpt lat="44.00530628771882" lon="11.375968509919769"><ele>272.0</ele><time>2026-05-01T12:45:41.999Z</time></trkpt><trkpt lat="44.005368649345954" lon="11.376065192086438"><ele>272.0</ele><time>2026-05-01T12:45:42.999Z</time></trkpt><trkpt lat="44.00539828471483" lon="11.376187436653671"><ele>272.0</ele><time>2026-05-01T12:45:43.999Z</time></trkpt><trkpt lat="44.005397124890074" lon="11.376299983013952"><ele>273.6</ele><time>2026-05-01T12:45:44.999Z</time></trkpt><trkpt lat="44.00534015784558" lon="11.376367236368484"><ele>275.2</ele><time>2026-05-01T12:45:45.999Z</time></trkpt><trkpt lat="44.005255569834944" lon="11.376410114973874"><ele>276.8</ele><time>2026-05-01T12:45:46.999Z</time></trkpt><trkpt lat="44.00514967387495" lon="11.376416598477563"><ele>278.4</ele><time>2026-05-01T12:45:47.999Z</time></trkpt><trkpt lat="44.0050451318962" lon="11.37645300684921"><ele>280.0</ele><time>2026-05-01T12:45:48.999Z</time></trkpt><trkpt lat="44.00491439801639" lon="11.376501474042438"><ele>280.0</ele><time>2026-05-01T12:45:49.999Z</time></trkpt><trkpt lat="44.00480570375508" lon="11.376535492590534"><ele>280.0</ele><time>2026-05-01T12:45:50.999Z</time></trkpt><trkpt lat="44.00466982517888" lon="11.376546953857002"><ele>280.0</ele><time>2026-05-01T12:45:51.999Z</time></trkpt><trkpt lat="44.00454976834109" lon="11.376549483582556"><ele>280.0</ele><time>2026-05-01T12:45:52.999Z</time></trkpt><trkpt lat="44.00443924543217" lon="11.376552792430873"><ele>280.0</ele><time>2026-05-01T12:45:53.999Z</time></trkpt><trkpt lat="44.004351236738025" lon="11.376574965343117"><ele>280.0</ele><time>2026-05-01T12:45:54.999Z</time></trkpt><trkpt lat="44.00427454873898" lon="11.37660346273378"><ele>280.0</ele><time>2026-05-01T12:45:55.999Z</time></trkpt><trkpt lat="44.00421278467974" lon="11.376631312764152"><ele>280.0</ele><time>2026-05-01T12:45:56.999Z</time></trkpt><trkpt lat="44.00413846820693" lon="11.376678867089732"><ele>280.0</ele><time>2026-05-01T12:45:58.999Z</time></trkpt><trkpt lat="44.004112338899965" lon="11.376785508392986"><ele>280.0</ele><time>2026-05-01T12:47:16Z</time></trkpt><trkpt lat="44.00412142775641" lon="11.376904404611167"><ele>279.0</ele><time>2026-05-01T12:47:17Z</time></trkpt><trkpt lat="44.004149483930874" lon="11.377010636722611"><ele>278.0</ele><time>2026-05-01T12:47:18Z</time></trkpt><trkpt lat="44.00410076126397" lon="11.377132484295192"><ele>277.0</ele><time>2026-05-01T12:47:19Z</time></trkpt><trkpt lat="44.00411841160522" lon="11.377220197162867"><ele>276.0</ele><time>2026-05-01T12:47:20Z</time></trkpt><trkpt lat="44.00414864143694" lon="11.377368898839253"><ele>275.0</ele><time>2026-05-01T12:47:22Z</time></trkpt><trkpt lat="44.004159640937175" lon="11.377496546922497"><ele>278.0</ele><time>2026-05-01T12:47:24Z</time></trkpt><trkpt lat="44.004121225109344" lon="11.377637821149401"><ele>281.0</ele><time>2026-05-01T12:47:26Z</time></trkpt><trkpt lat="44.00403625698244" lon="11.377692511499879"><ele>284.0</ele><time>2026-05-01T12:47:27Z</time></trkpt><trkpt lat="44.00393617606407" lon="11.377717162697426"><ele>287.0</ele><time>2026-05-01T12:47:28Z</time></trkpt><trkpt lat="44.00382402525563" lon="11.377718867582193"><ele>290.0</ele><time>2026-05-01T12:47:29Z</time></trkpt><trkpt lat="44.00370023588064" lon="11.377684303250376"><ele>290.0</ele><time>2026-05-01T12:47:30Z</time></trkpt><trkpt lat="44.00358905735686" lon="11.377615102232568"><ele>290.0</ele><time>2026-05-01T12:47:31Z</time></trkpt><trkpt lat="44.003489135485616" lon="11.377557254955104"><ele>290.0</ele><time>2026-05-01T12:47:32Z</time></trkpt><trkpt lat="44.00339202026493" lon="11.377537629363037"><ele>290.0</ele><time>2026-05-01T12:47:33Z</time></trkpt><trkpt lat="44.00329554883618" lon="11.377539634753779"><ele>290.0</ele><time>2026-05-01T12:47:34Z</time></trkpt><trkpt lat="44.003196712302625" lon="11.377543124115062"><ele>293.8</ele><time>2026-05-01T12:47:35Z</time></trkpt><trkpt lat="44.00310000621473" lon="11.377546334767375"><ele>297.6</ele><time>2026-05-01T12:47:36Z</time></trkpt><trkpt lat="44.00299742096392" lon="11.377535383662524"><ele>301.4</ele><time>2026-05-01T12:47:37Z</time></trkpt><trkpt lat="44.00289835706788" lon="11.37750577957968"><ele>305.2</ele><time>2026-05-01T12:47:38Z</time></trkpt><trkpt lat="44.00279984880627" lon="11.377427027184199"><ele>309.0</ele><time>2026-05-01T12:47:39Z</time></trkpt><trkpt lat="44.0027282438228" lon="11.377329960574775"><ele>309.0</ele><time>2026-05-01T12:47:40Z</time></trkpt><trkpt lat="44.00266103624602" lon="11.3772466454409"><ele>309.0</ele><time>2026-05-01T12:47:41Z</time></trkpt><trkpt lat="44.00258820090896" lon="11.377179557055701"><ele>309.0</ele><time>2026-05-01T12:47:42Z</time></trkpt><trkpt lat="44.00251775577945" lon="11.377125790452334"><ele>309.0</ele><time>2026-05-01T12:47:43Z</time></trkpt><trkpt lat="44.00245328367567" lon="11.377086235235298"><ele>309.0</ele><time>2026-05-01T12:47:44Z</time></trkpt><trkpt lat="44.00238373129428" lon="11.377046807998063"><ele>309.0</ele><time>2026-05-01T12:47:45Z</time></trkpt><trkpt lat="44.00231795044779" lon="11.3770182996593"><ele>305.8</ele><time>2026-05-01T12:47:46Z</time></trkpt><trkpt lat="44.00224272535179" lon="11.37698964742554"><ele>302.59999999999997</ele><time>2026-05-01T12:47:47Z</time></trkpt><trkpt lat="44.00216009958759" lon="11.376959123461019"><ele>299.4</ele><time>2026-05-01T12:47:48Z</time></trkpt><trkpt lat="44.00208085147169" lon="11.376928301101858"><ele>296.2</ele><time>2026-05-01T12:47:49Z</time></trkpt><trkpt lat="44.001991373041335" lon="11.376833903919048"><ele>293.0</ele><time>2026-05-01T12:47:50Z</time></trkpt><trkpt lat="44.001914884124524" lon="11.376759796776888"><ele>293.0</ele><time>2026-05-01T12:47:51Z</time></trkpt><trkpt lat="44.001838887809825" lon="11.376698439754577"><ele>293.0</ele><time>2026-05-01T12:47:52Z</time></trkpt><trkpt lat="44.00177828810317" lon="11.376660591188012"><ele>293.0</ele><time>2026-05-01T12:47:53Z</time></trkpt><trkpt lat="44.001673102648084" lon="11.376634392761074"><ele>293.0</ele><time>2026-05-01T12:47:55Z</time></trkpt><trkpt lat="44.00158812847536" lon="11.376657634163154"><ele>293.0</ele><time>2026-05-01T12:47:57Z</time></trkpt><trkpt lat="44.00150955876101" lon="11.37670927867358"><ele>293.0</ele><time>2026-05-01T12:47:58.999Z</time></trkpt><trkpt lat="44.00145397898563" lon="11.37682244993915"><ele>292.0</ele><time>2026-05-01T12:49:05Z</time></trkpt><trkpt lat="44.00146025662713" lon="11.376983744997867"><ele>291.0</ele><time>2026-05-01T12:49:07Z</time></trkpt><trkpt lat="44.001487746549294" lon="11.377072485820717"><ele>290.0</ele><time>2026-05-01T12:49:08Z</time></trkpt><trkpt lat="44.00153600261567" lon="11.377197626579862"><ele>289.0</ele><time>2026-05-01T12:49:10Z</time></trkpt><trkpt lat="44.001570342088435" lon="11.377284560952662"><ele>288.0</ele><time>2026-05-01T12:49:12Z</time></trkpt><trkpt lat="44.00163722567738" lon="11.377293133215337"><ele>287.0</ele><time>2026-05-01T12:49:13Z</time></trkpt><trkpt lat="44.001618562797354" lon="11.377422089095644"><ele>287.0</ele><time>2026-05-01T12:49:15Z</time></trkpt><trkpt lat="44.00165641199048" lon="11.37753153942305"><ele>287.0</ele><time>2026-05-01T12:49:17Z</time></trkpt><trkpt lat="44.001709964125034" lon="11.377683709673825"><ele>287.0</ele><time>2026-05-01T12:49:19Z</time></trkpt><trkpt lat="44.001742421643506" lon="11.377770682233688"><ele>287.0</ele><time>2026-05-01T12:49:20Z</time></trkpt><trkpt lat="44.00177700372662" lon="11.377861762402192"><ele>287.0</ele><time>2026-05-01T12:49:21Z</time></trkpt><trkpt lat="44.001809281265835" lon="11.37794931064876"><ele>287.0</ele><time>2026-05-01T12:49:22Z</time></trkpt><trkpt lat="44.0018360543465" lon="11.37803914486653"><ele>290.0</ele><time>2026-05-01T12:49:23Z</time></trkpt><trkpt lat="44.00185265293" lon="11.378129826462716"><ele>293.0</ele><time>2026-05-01T12:49:24Z</time></trkpt><trkpt lat="44.00186064925983" lon="11.378231905973006"><ele>296.0</ele><time>2026-05-01T12:49:25Z</time></trkpt><trkpt lat="44.00181202010577" lon="11.378327044343719"><ele>299.0</ele><time>2026-05-01T12:49:26Z</time></trkpt><trkpt lat="44.001771948076765" lon="11.378425856061153"><ele>302.0</ele><time>2026-05-01T12:49:27Z</time></trkpt><trkpt lat="44.00172147384894" lon="11.378516894721837"><ele>305.0</ele><time>2026-05-01T12:49:28Z</time></trkpt><trkpt lat="44.001663656059655" lon="11.378601282960476"><ele>305.0</ele><time>2026-05-01T12:49:29Z</time></trkpt><trkpt lat="44.00159472176668" lon="11.378676418248654"><ele>305.0</ele><time>2026-05-01T12:49:30Z</time></trkpt><trkpt lat="44.0014965019208" lon="11.378716081917023"><ele>305.0</ele><time>2026-05-01T12:49:31Z</time></trkpt><trkpt lat="44.00141180583546" lon="11.378715373071342"><ele>305.0</ele><time>2026-05-01T12:49:32Z</time></trkpt><trkpt lat="44.001325926728214" lon="11.378706826294602"><ele>305.0</ele><time>2026-05-01T12:49:33Z</time></trkpt><trkpt lat="44.00123662615083" lon="11.37869091923913"><ele>305.0</ele><time>2026-05-01T12:49:34Z</time></trkpt><trkpt lat="44.001166593035855" lon="11.378670613176801"><ele>305.0</ele><time>2026-05-01T12:49:35Z</time></trkpt><trkpt lat="44.00109619304916" lon="11.378640024611652"><ele>305.0</ele><time>2026-05-01T12:49:36Z</time></trkpt><trkpt lat="44.00101794325114" lon="11.378587859824826"><ele>305.0</ele><time>2026-05-01T12:49:37Z</time></trkpt><trkpt lat="44.00094687132961" lon="11.378531142727873"><ele>305.0</ele><time>2026-05-01T12:49:38Z</time></trkpt><trkpt lat="44.00087624045439" lon="11.378468649447743"><ele>305.0</ele><time>2026-05-01T12:49:39Z</time></trkpt><trkpt lat="44.00081803133033" lon="11.37841864405572"><ele>306.0</ele><time>2026-05-01T12:49:40Z</time></trkpt><trkpt lat="44.000729064150235" lon="11.378379091493795"><ele>307.0</ele><time>2026-05-01T12:49:42Z</time></trkpt><trkpt lat="44.00066153738841" lon="11.378387359198411"><ele>308.0</ele><time>2026-05-01T12:49:44Z</time></trkpt><trkpt lat="44.00058999124497" lon="11.37842822959568"><ele>309.0</ele><time>2026-05-01T12:49:46Z</time></trkpt><trkpt lat="44.00050161779763" lon="11.378522104987866"><ele>310.0</ele><time>2026-05-01T12:49:48Z</time></trkpt><trkpt lat="44.000439145978305" lon="11.378575264407424"><ele>311.0</ele><time>2026-05-01T12:49:49Z</time></trkpt><trkpt lat="44.0003524899444" lon="11.37858822736323"><ele>311.0</ele><time>2026-05-01T12:49:50Z</time></trkpt><trkpt lat="44.00026641185439" lon="11.378575736842707"><ele>311.0</ele><time>2026-05-01T12:49:51Z</time></trkpt><trkpt lat="44.00017466192305" lon="11.378528245331777"><ele>311.0</ele><time>2026-05-01T12:49:52Z</time></trkpt><trkpt lat="44.00009071657642" lon="11.378461998120116"><ele>311.0</ele><time>2026-05-01T12:49:52.999Z</time></trkpt><trkpt lat="44.00002052699413" lon="11.378406015035758"><ele>311.0</ele><time>2026-05-01T12:49:53.999Z</time></trkpt><trkpt lat="43.999953472515784" lon="11.378352532276484"><ele>311.0</ele><time>2026-05-01T12:49:54.999Z</time></trkpt><trkpt lat="43.99988609515181" lon="11.378302072039114"><ele>311.0</ele><time>2026-05-01T12:49:55.999Z</time></trkpt><trkpt lat="43.99981451931334" lon="11.378248293014275"><ele>311.0</ele><time>2026-05-01T12:49:56.999Z</time></trkpt><trkpt lat="43.99973890242521" lon="11.37819147759465"><ele>311.0</ele><time>2026-05-01T12:49:57.999Z</time></trkpt><trkpt lat="43.99966087630665" lon="11.378130939556035"><ele>311.0</ele><time>2026-05-01T12:49:58.999Z</time></trkpt><trkpt lat="43.99958019148256" lon="11.378065881241143"><ele>311.0</ele><time>2026-05-01T12:49:59.999Z</time></trkpt><trkpt lat="43.99949434021984" lon="11.377992141885088"><ele>308.8</ele><time>2026-05-01T12:50:00.999Z</time></trkpt><trkpt lat="43.999405975583656" lon="11.377903045815307"><ele>306.6</ele><time>2026-05-01T12:50:01.999Z</time></trkpt><trkpt lat="43.999318914497024" lon="11.377795322762609"><ele>304.4</ele><time>2026-05-01T12:50:02.999Z</time></trkpt><trkpt lat="43.99924466958594" lon="11.377695199732184"><ele>302.2</ele><time>2026-05-01T12:50:03.999Z</time></trkpt><trkpt lat="43.999176604507205" lon="11.377603067156093"><ele>300.0</ele><time>2026-05-01T12:50:04.999Z</time></trkpt><trkpt lat="43.99911550060194" lon="11.37751193998802"><ele>300.0</ele><time>2026-05-01T12:50:05.999Z</time></trkpt><trkpt lat="43.99905461057234" lon="11.377419666890628"><ele>300.0</ele><time>2026-05-01T12:50:06.999Z</time></trkpt><trkpt lat="43.99899063059093" lon="11.377331312081258"><ele>300.0</ele><time>2026-05-01T12:50:07.999Z</time></trkpt><trkpt lat="43.99891981712765" lon="11.37724887014562"><ele>300.0</ele><time>2026-05-01T12:50:08.999Z</time></trkpt><trkpt lat="43.99884917347588" lon="11.377197822811336"><ele>300.0</ele><time>2026-05-01T12:50:09.999Z</time></trkpt><trkpt lat="43.99876543294587" lon="11.377131242382678"><ele>300.0</ele><time>2026-05-01T12:50:10.999Z</time></trkpt><trkpt lat="43.99869023463115" lon="11.377107652542072"><ele>297.25</ele><time>2026-05-01T12:50:11.999Z</time></trkpt><trkpt lat="43.998689629748945" lon="11.376740064896516"><ele>294.5</ele><time>2026-05-01T12:50:12.999Z</time></trkpt><trkpt lat="43.99859906799117" lon="11.376707833928696"><ele>291.75</ele><time>2026-05-01T12:50:13.999Z</time></trkpt><trkpt lat="43.99851542975678" lon="11.376678838845704"><ele>289.0</ele><time>2026-05-01T12:50:14.999Z</time></trkpt><trkpt lat="43.99841768923034" lon="11.376617125425577"><ele>291.5</ele><time>2026-05-01T12:50:15.999Z</time></trkpt><trkpt lat="43.99828228999632" lon="11.37661611003199"><ele>294.0</ele><time>2026-05-01T12:50:16.999Z</time></trkpt><trkpt lat="43.99817275827555" lon="11.37653780892833"><ele>296.5</ele><time>2026-05-01T12:50:17.999Z</time></trkpt><trkpt lat="43.99806139115558" lon="11.37645933572611"><ele>299.0</ele><time>2026-05-01T12:50:18.999Z</time></trkpt><trkpt lat="43.99795378066104" lon="11.376386789393036"><ele>297.75</ele><time>2026-05-01T12:50:19.999Z</time></trkpt><trkpt lat="43.997840441968705" lon="11.37632419902763"><ele>296.5</ele><time>2026-05-01T12:50:20.999Z</time></trkpt><trkpt lat="43.99772032351734" lon="11.376273201768514"><ele>295.25</ele><time>2026-05-01T12:50:21.999Z</time></trkpt><trkpt lat="43.99759311798303" lon="11.376184677135852"><ele>294.0</ele><time>2026-05-01T12:50:22.999Z</time></trkpt><trkpt lat="43.99748522364271" lon="11.376093633025546"><ele>294.0</ele><time>2026-05-01T12:50:23.999Z</time></trkpt><trkpt lat="43.99737963281171" lon="11.376004524618153"><ele>294.0</ele><time>2026-05-01T12:50:24.999Z</time></trkpt><trkpt lat="43.9972783050091" lon="11.375919012089064"><ele>294.0</ele><time>2026-05-01T12:50:25.999Z</time></trkpt><trkpt lat="43.99718918844756" lon="11.375845840452822"><ele>294.0</ele><time>2026-05-01T12:50:26.999Z</time></trkpt><trkpt lat="43.99710589367153" lon="11.375780724776412"><ele>294.0</ele><time>2026-05-01T12:50:27.999Z</time></trkpt><trkpt lat="43.99702295901362" lon="11.375722486631274"><ele>294.0</ele><time>2026-05-01T12:50:28.999Z</time></trkpt><trkpt lat="43.99693827659615" lon="11.375677201972904"><ele>294.0</ele><time>2026-05-01T12:50:29.999Z</time></trkpt><trkpt lat="43.99684611086001" lon="11.375654237627064"><ele>294.0</ele><time>2026-05-01T12:50:31Z</time></trkpt><trkpt lat="43.99675636358666" lon="11.375647561475311"><ele>294.0</ele><time>2026-05-01T12:50:32Z</time></trkpt><trkpt lat="43.99665753784004" lon="11.375636648024729"><ele>294.0</ele><time>2026-05-01T12:50:33Z</time></trkpt><trkpt lat="43.99656413227172" lon="11.375619913037278"><ele>294.8</ele><time>2026-05-01T12:50:34Z</time></trkpt><trkpt lat="43.9964608929983" lon="11.375582984047615"><ele>295.59999999999997</ele><time>2026-05-01T12:50:35Z</time></trkpt><trkpt lat="43.9963583610716" lon="11.37554253606359"><ele>296.4</ele><time>2026-05-01T12:50:36Z</time></trkpt><trkpt lat="43.99625791110369" lon="11.375505010721009"><ele>297.2</ele><time>2026-05-01T12:50:37Z</time></trkpt><trkpt lat="43.99616958016365" lon="11.375480410507935"><ele>298.0</ele><time>2026-05-01T12:50:38Z</time></trkpt><trkpt lat="43.99609159383031" lon="11.375469040965209"><ele>295.5</ele><time>2026-05-01T12:50:39Z</time></trkpt><trkpt lat="43.99602166331906" lon="11.375461797414042"><ele>293.0</ele><time>2026-05-01T12:50:41Z</time></trkpt><trkpt lat="43.995876591314115" lon="11.37545318303477"><ele>290.5</ele><time>2026-05-01T12:52:01.999Z</time></trkpt><trkpt lat="43.99576244809406" lon="11.375443814770303"><ele>288.0</ele><time>2026-05-01T12:52:03.999Z</time></trkpt><trkpt lat="43.995642585333194" lon="11.375432075789082"><ele>288.0</ele><time>2026-05-01T12:52:05.999Z</time></trkpt><trkpt lat="43.995576621672214" lon="11.375426976625715"><ele>288.0</ele><time>2026-05-01T12:52:06.999Z</time></trkpt><trkpt lat="43.99545339241974" lon="11.375417339923235"><ele>288.0</ele><time>2026-05-01T12:52:08.999Z</time></trkpt><trkpt lat="43.99535554527066" lon="11.375402676425427"><ele>288.0</ele><time>2026-05-01T12:52:10.999Z</time></trkpt><trkpt lat="43.99523227745265" lon="11.375358302968191"><ele>288.0</ele><time>2026-05-01T12:52:12.999Z</time></trkpt><trkpt lat="43.99515856676436" lon="11.375306668199583"><ele>288.0</ele><time>2026-05-01T12:52:13.999Z</time></trkpt><trkpt lat="43.995049146170416" lon="11.375204482892274"><ele>288.0</ele><time>2026-05-01T12:52:15.999Z</time></trkpt><trkpt lat="43.99499096742125" lon="11.375140762674802"><ele>288.0</ele><time>2026-05-01T12:52:16.999Z</time></trkpt><trkpt lat="43.99494064513289" lon="11.37508215720041"><ele>288.0</ele><time>2026-05-01T12:52:17.999Z</time></trkpt><trkpt lat="43.9948860274811" lon="11.375017461882429"><ele>288.0</ele><time>2026-05-01T12:52:18.999Z</time></trkpt><trkpt lat="43.994831174118865" lon="11.374950745877944"><ele>288.0</ele><time>2026-05-01T12:52:19.999Z</time></trkpt><trkpt lat="43.9947764597558" lon="11.37487913820648"><ele>289.1666666666667</ele><time>2026-05-01T12:52:20.999Z</time></trkpt><trkpt lat="43.994729423455546" lon="11.374814367861106"><ele>290.3333333333333</ele><time>2026-05-01T12:52:21.999Z</time></trkpt><trkpt lat="43.994653261966505" lon="11.374707133324584"><ele>291.5</ele><time>2026-05-01T12:52:23.999Z</time></trkpt><trkpt lat="43.99458995168219" lon="11.374617222676298"><ele>292.66666666666663</ele><time>2026-05-01T12:52:25.999Z</time></trkpt><trkpt lat="43.994545821541784" lon="11.37455455092561"><ele>293.8333333333333</ele><time>2026-05-01T12:52:27.999Z</time></trkpt><trkpt lat="43.99447831970844" lon="11.37446067431318"><ele>295.0</ele><time>2026-05-01T12:52:59Z</time></trkpt><trkpt lat="43.99440105914551" lon="11.374353847042995"><ele>294.3333333333333</ele><time>2026-05-01T12:53:01Z</time></trkpt><trkpt lat="43.99433265670972" lon="11.37425910027206"><ele>293.66666666666663</ele><time>2026-05-01T12:53:03Z</time></trkpt><trkpt lat="43.994264873328994" lon="11.374164883621436"><ele>293.0</ele><time>2026-05-01T12:53:05Z</time></trkpt><trkpt lat="43.99418336022035" lon="11.374051583105404"><ele>292.3333333333333</ele><time>2026-05-01T12:53:07Z</time></trkpt><trkpt lat="43.994136825198694" lon="11.373987074267394"><ele>291.6666666666667</ele><time>2026-05-01T12:53:08Z</time></trkpt><trkpt lat="43.994086170058964" lon="11.373917833020663"><ele>291.0</ele><time>2026-05-01T12:53:09Z</time></trkpt><trkpt lat="43.994033222354496" lon="11.37384545803813"><ele>288.5</ele><time>2026-05-01T12:53:10Z</time></trkpt><trkpt lat="43.99397983617251" lon="11.373772483700263"><ele>286.0</ele><time>2026-05-01T12:53:11Z</time></trkpt><trkpt lat="43.99392279298806" lon="11.373695203054803"><ele>283.5</ele><time>2026-05-01T12:53:12Z</time></trkpt><trkpt lat="43.993862062169335" lon="11.373613088663125"><ele>281.0</ele><time>2026-05-01T12:53:13Z</time></trkpt><trkpt lat="43.99379749807641" lon="11.373525791044138"><ele>278.5</ele><time>2026-05-01T12:53:14Z</time></trkpt><trkpt lat="43.99372954521103" lon="11.37343281512382"><ele>276.0</ele><time>2026-05-01T12:53:15Z</time></trkpt><trkpt lat="43.99365511127686" lon="11.373329335578791"><ele>276.0</ele><time>2026-05-01T12:53:16Z</time></trkpt><trkpt lat="43.99357804177611" lon="11.373222192236273"><ele>276.0</ele><time>2026-05-01T12:53:17Z</time></trkpt><trkpt lat="43.99349764703086" lon="11.37310997366707"><ele>276.0</ele><time>2026-05-01T12:53:18Z</time></trkpt><trkpt lat="43.993414745016956" lon="11.372994055747967"><ele>276.0</ele><time>2026-05-01T12:53:19Z</time></trkpt><trkpt lat="43.993333339739586" lon="11.372880230671521"><ele>275.5</ele><time>2026-05-01T12:53:20Z</time></trkpt><trkpt lat="43.99325177014868" lon="11.372766175788897"><ele>275.0</ele><time>2026-05-01T12:53:21Z</time></trkpt><trkpt lat="43.993171717687666" lon="11.372653014258761"><ele>274.5</ele><time>2026-05-01T12:53:22Z</time></trkpt><trkpt lat="43.99308685435183" lon="11.372532680940058"><ele>274.0</ele><time>2026-05-01T12:53:23Z</time></trkpt><trkpt lat="43.99299791448349" lon="11.372409392764853"><ele>274.0</ele><time>2026-05-01T12:53:24Z</time></trkpt><trkpt lat="43.992904873577025" lon="11.372291643780263"><ele>274.0</ele><time>2026-05-01T12:53:25Z</time></trkpt><trkpt lat="43.992806883892676" lon="11.372178487655273"><ele>274.0</ele><time>2026-05-01T12:53:26Z</time></trkpt><trkpt lat="43.99270698720228" lon="11.37206813434851"><ele>274.0</ele><time>2026-05-01T12:53:27Z</time></trkpt><trkpt lat="43.99260618239316" lon="11.371956105371469"><ele>272.25</ele><time>2026-05-01T12:53:28Z</time></trkpt><trkpt lat="43.99250762150807" lon="11.371845054074543"><ele>270.5</ele><time>2026-05-01T12:53:29Z</time></trkpt><trkpt lat="43.99241131916957" lon="11.37173772174383"><ele>268.75</ele><time>2026-05-01T12:53:30Z</time></trkpt><trkpt lat="43.99231424440748" lon="11.371634199931316"><ele>267.0</ele><time>2026-05-01T12:53:31Z</time></trkpt><trkpt lat="43.99221428678148" lon="11.371536548001574"><ele>267.0</ele><time>2026-05-01T12:53:32Z</time></trkpt><trkpt lat="43.992116523477364" lon="11.371444123363974"><ele>267.0</ele><time>2026-05-01T12:53:33Z</time></trkpt><trkpt lat="43.99201645484989" lon="11.371349449709014"><ele>267.0</ele><time>2026-05-01T12:53:34Z</time></trkpt><trkpt lat="43.991924359397586" lon="11.371257971782052"><ele>267.0</ele><time>2026-05-01T12:53:35Z</time></trkpt><trkpt lat="43.99183802784142" lon="11.371172219103547"><ele>265.5</ele><time>2026-05-01T12:53:36Z</time></trkpt><trkpt lat="43.99176265026131" lon="11.371097346949822"><ele>264.0</ele><time>2026-05-01T12:53:37Z</time></trkpt><trkpt lat="43.99169417452972" lon="11.371029324932557"><ele>262.5</ele><time>2026-05-01T12:53:38Z</time></trkpt><trkpt lat="43.99162660094187" lon="11.370965254210972"><ele>261.0</ele><time>2026-05-01T12:53:39Z</time></trkpt><trkpt lat="43.99155990933951" lon="11.370902797971638"><ele>259.5</ele><time>2026-05-01T12:53:40Z</time></trkpt><trkpt lat="43.99148826651987" lon="11.37083925065214"><ele>258.0</ele><time>2026-05-01T12:53:41Z</time></trkpt><trkpt lat="43.99140375672312" lon="11.37076743543615"><ele>258.0</ele><time>2026-05-01T12:53:42Z</time></trkpt><trkpt lat="43.991321209841374" lon="11.370697134289124"><ele>258.0</ele><time>2026-05-01T12:53:43Z</time></trkpt><trkpt lat="43.99125159532967" lon="11.370637877967235"><ele>258.0</ele><time>2026-05-01T12:53:44Z</time></trkpt><trkpt lat="43.99119158068732" lon="11.370586793114452"><ele>258.0</ele><time>2026-05-01T12:53:45Z</time></trkpt><trkpt lat="43.99121083809054" lon="11.370316626600752"><ele>258.0</ele><time>2026-05-01T12:53:47Z</time></trkpt><trkpt lat="43.99125357528826" lon="11.370229635658367"><ele>256.2</ele><time>2026-05-01T12:53:48Z</time></trkpt><trkpt lat="43.99133903574779" lon="11.37020678398845"><ele>254.4</ele><time>2026-05-01T12:53:49Z</time></trkpt><trkpt lat="43.99142444637492" lon="11.370226938254772"><ele>252.59999999999997</ele><time>2026-05-01T12:53:50Z</time></trkpt><trkpt lat="43.99153705585408" lon="11.370219784466826"><ele>250.79999999999998</ele><time>2026-05-01T12:53:51Z</time></trkpt><trkpt lat="43.991658900435816" lon="11.37019230675563"><ele>249.0</ele><time>2026-05-01T12:53:52Z</time></trkpt><trkpt lat="43.99178479454557" lon="11.370219462875216"><ele>248.75</ele><time>2026-05-01T12:53:53Z</time></trkpt><trkpt lat="43.991926018624895" lon="11.370217457058278"><ele>248.5</ele><time>2026-05-01T12:53:54Z</time></trkpt><trkpt lat="43.992069427429456" lon="11.370211934557283"><ele>248.25</ele><time>2026-05-01T12:53:55Z</time></trkpt><trkpt lat="43.99220260268723" lon="11.37021006287728"><ele>248.0</ele><time>2026-05-01T12:53:56Z</time></trkpt><trkpt lat="43.992327523931145" lon="11.370217295739314"><ele>248.0</ele><time>2026-05-01T12:53:57Z</time></trkpt><trkpt lat="43.9924435839525" lon="11.370240494217365"><ele>248.0</ele><time>2026-05-01T12:53:58Z</time></trkpt><trkpt lat="43.992553610752466" lon="11.370290295115167"><ele>248.0</ele><time>2026-05-01T12:53:59Z</time></trkpt><trkpt lat="43.99267562666153" lon="11.370355905410758"><ele>248.0</ele><time>2026-05-01T12:54:00Z</time></trkpt><trkpt lat="43.992791709756084" lon="11.370422738888877"><ele>247.75</ele><time>2026-05-01T12:54:01Z</time></trkpt><trkpt lat="43.992909879803776" lon="11.37049593614438"><ele>247.5</ele><time>2026-05-01T12:54:02Z</time></trkpt><trkpt lat="43.993024495210555" lon="11.370568811999597"><ele>247.25</ele><time>2026-05-01T12:54:03Z</time></trkpt><trkpt lat="43.99315015854642" lon="11.370648892228136"><ele>247.0</ele><time>2026-05-01T12:54:04Z</time></trkpt><trkpt lat="43.993279130999014" lon="11.370730778626488"><ele>248.75</ele><time>2026-05-01T12:54:05Z</time></trkpt><trkpt lat="43.9934051098882" lon="11.370809851086268"><ele>250.5</ele><time>2026-05-01T12:54:06Z</time></trkpt><trkpt lat="43.99354494175217" lon="11.37092022343589"><ele>252.25</ele><time>2026-05-01T12:54:07Z</time></trkpt><trkpt lat="43.99367047441055" lon="11.3709990812203"><ele>254.0</ele><time>2026-05-01T12:54:07.999Z</time></trkpt><trkpt lat="43.99378819886345" lon="11.371069879739169"><ele>254.0</ele><time>2026-05-01T12:54:08.999Z</time></trkpt><trkpt lat="43.993898564170415" lon="11.371135599135162"><ele>253.99999999999997</ele><time>2026-05-01T12:54:09.999Z</time></trkpt><trkpt lat="43.993992667600004" lon="11.371199626052235"><ele>253.99999999999997</ele><time>2026-05-01T12:54:10.999Z</time></trkpt><trkpt lat="43.99409818003673" lon="11.371266351852466"><ele>254.0</ele><time>2026-05-01T12:54:11.999Z</time></trkpt><trkpt lat="43.994196578501686" lon="11.371324891822244"><ele>254.0</ele><time>2026-05-01T12:54:12.999Z</time></trkpt><trkpt lat="43.99429747411876" lon="11.37139017649617"><ele>254.0</ele><time>2026-05-01T12:54:13.999Z</time></trkpt><trkpt lat="43.99439702737222" lon="11.371427803135504"><ele>253.99999999999997</ele><time>2026-05-01T12:54:14.999Z</time></trkpt><trkpt lat="43.994482116922306" lon="11.371502319124929"><ele>253.99999999999997</ele><time>2026-05-01T12:54:16.999Z</time></trkpt><trkpt lat="43.9945986739482" lon="11.371552454321488"><ele>254.0</ele><time>2026-05-01T12:54:18.999Z</time></trkpt><trkpt lat="43.99466262987847" lon="11.371592010598707"><ele>254.0</ele><time>2026-05-01T12:54:19.999Z</time></trkpt><trkpt lat="43.994723713625206" lon="11.371653241102287"><ele>254.00000000000003</ele><time>2026-05-01T12:54:20.999Z</time></trkpt><trkpt lat="43.99479818665558" lon="11.371675851525355"><ele>254.0</ele><time>2026-05-01T12:54:21.999Z</time></trkpt><trkpt lat="43.99486098804013" lon="11.371739929058199"><ele>254.0</ele><time>2026-05-01T12:54:22.999Z</time></trkpt><trkpt lat="43.99493722569166" lon="11.371762365996405"><ele>254.0</ele><time>2026-05-01T12:54:23.999Z</time></trkpt><trkpt lat="43.995003151513934" lon="11.371803627842558"><ele>254.00000000000003</ele><time>2026-05-01T12:54:24.999Z</time></trkpt><trkpt lat="43.99510493952971" lon="11.371867334968133"><ele>254.0</ele><time>2026-05-01T12:54:26.999Z</time></trkpt><trkpt lat="43.995176034916724" lon="11.371911832337247"><ele>254.0</ele><time>2026-05-01T12:54:28.999Z</time></trkpt><trkpt lat="43.9952859455548" lon="11.371811133072955"><ele>253.99999999999997</ele><time>2026-05-01T12:54:31.999Z</time></trkpt><trkpt lat="43.99532940293207" lon="11.371729178226756"><ele>253.99999999999997</ele><time>2026-05-01T12:54:33.999Z</time></trkpt><trkpt lat="43.9954384334686" lon="11.37178257180359"><ele>254.0</ele><time>2026-05-01T12:54:35.999Z</time></trkpt><trkpt lat="43.99550417995342" lon="11.3718219978462"><ele>254.0</ele><time>2026-05-01T12:54:37.999Z</time></trkpt><trkpt lat="43.99557060206122" lon="11.371867283929419"><ele>254.0</ele><time>2026-05-01T12:54:39.999Z</time></trkpt><trkpt lat="43.99562762588367" lon="11.371904893810033"><ele>254.0</ele><time>2026-05-01T12:54:41.999Z</time></trkpt><trkpt lat="43.99570963903658" lon="11.3719540555407"><ele>254.0</ele><time>2026-05-01T12:54:45Z</time></trkpt><trkpt lat="43.99577237780285" lon="11.371987393235894"><ele>254.0</ele><time>2026-05-01T12:54:55Z</time></trkpt><trkpt lat="43.995858671630955" lon="11.371939079510051"><ele>254.0</ele><time>2026-05-01T12:56:56Z</time></trkpt><trkpt lat="43.99591173653848" lon="11.37188582706753"><ele>254.0</ele><time>2026-05-01T12:57:03Z</time></trkpt><trkpt lat="43.99597626122967" lon="11.371854408827838"><ele>254.0</ele><time>2026-05-01T12:57:10Z</time></trkpt><trkpt lat="43.9960090990784" lon="11.371761441230749"><ele>254.28571428571428</ele><time>2026-05-01T12:57:18Z</time></trkpt><trkpt lat="43.99605643852564" lon="11.371690156956648"><ele>254.57142857142856</ele><time>2026-05-01T12:57:24Z</time></trkpt><trkpt lat="43.99608897694368" lon="11.371610675999161"><ele>254.85714285714283</ele><time>2026-05-01T12:57:30Z</time></trkpt><trkpt lat="43.99614673047038" lon="11.37156424872899"><ele>255.14285714285714</ele><time>2026-05-01T12:57:37Z</time></trkpt><trkpt lat="43.99621984009826" lon="11.371584428329186"><ele>255.4285714285714</ele><time>2026-05-01T12:57:43Z</time></trkpt><trkpt lat="43.99625527929606" lon="11.371507172956724"><ele>255.7142857142857</ele><time>2026-05-01T12:57:51Z</time></trkpt><trkpt lat="43.99627928456982" lon="11.371418985282883"><ele>256.0</ele><time>2026-05-01T12:57:57Z</time></trkpt><trkpt lat="43.99629386285916" lon="11.37133190589753"><ele>255.99999999999997</ele><time>2026-05-01T12:58:07Z</time></trkpt><trkpt lat="43.996256743568495" lon="11.371252694808472"><ele>256.0</ele><time>2026-05-01T12:58:36.999Z</time></trkpt><trkpt lat="43.99631095386714" lon="11.371308766861326"><ele>256.0</ele><time>2026-05-01T12:59:08Z</time></trkpt><trkpt lat="43.99634331706621" lon="11.37119192565992"><ele>256.0</ele><time>2026-05-01T13:00:00.072Z</time></trkpt><trkpt lat="43.99628088114148" lon="11.371179185068453"><ele>255.99999999999997</ele><time>2026-05-01T13:00:22.999Z</time></trkpt><trkpt lat="43.99625011688821" lon="11.371271108237062"><ele>256.0</ele><time>2026-05-01T13:00:34.999Z</time></trkpt><trkpt lat="43.99640105980264" lon="11.371311816885793"><ele>256.0</ele><time>2026-05-01T13:06:40.064Z</time></trkpt><trkpt lat="43.99654658513311" lon="11.371474430511151"><ele>256.0</ele><time>2026-05-01T13:06:42Z</time></trkpt><trkpt lat="43.99642741353568" lon="11.371452866805058"><ele>256.0</ele><time>2026-05-01T13:06:45Z</time></trkpt><trkpt lat="43.9963482206721" lon="11.37145574829301"><ele>256.0</ele><time>2026-05-01T13:06:57Z</time></trkpt><trkpt lat="43.99630516729597" lon="11.371383982498463"><ele>256.0</ele><time>2026-05-01T13:07:05Z</time></trkpt><trkpt lat="43.99631339322774" lon="11.371285870240618"><ele>255.99999999999997</ele><time>2026-05-01T13:07:11.999Z</time></trkpt><trkpt lat="43.996365195734924" lon="11.371220850605972"><ele>256.0</ele><time>2026-05-01T13:07:30.999Z</time></trkpt><trkpt lat="43.996406100582526" lon="11.371139498267391"><ele>256.0</ele><time>2026-05-01T13:07:39.999Z</time></trkpt><trkpt lat="43.99642639565293" lon="11.371231020055513"><ele>255.99999999999997</ele><time>2026-05-01T13:16:57Z</time></trkpt><trkpt lat="43.996469530015744" lon="11.371310706876066"><ele>256.0</ele><time>2026-05-01T13:17:02Z</time></trkpt><trkpt lat="43.996499206638326" lon="11.371388305078534"><ele>256.0</ele><time>2026-05-01T13:17:07Z</time></trkpt><trkpt lat="43.99643994403508" lon="11.37134459114021"><ele>256.0</ele><time>2026-05-01T13:17:41.999Z</time></trkpt><trkpt lat="43.99637169976319" lon="11.371345126876266"><ele>255.99999999999997</ele><time>2026-05-01T13:17:50.999Z</time></trkpt><trkpt lat="43.99633798333574" lon="11.371252433425164"><ele>256.0</ele><time>2026-05-01T13:17:58.999Z</time></trkpt><trkpt lat="43.99626520101662" lon="11.371246831195975"><ele>256.0</ele><time>2026-05-01T13:18:05.999Z</time></trkpt><trkpt lat="43.99623584907358" lon="11.371158512511352"><ele>255.99999999999997</ele><time>2026-05-01T13:18:12.999Z</time></trkpt><trkpt lat="43.996210339151276" lon="11.371072597447986"><ele>256.0</ele><time>2026-05-01T13:18:16.999Z</time></trkpt><trkpt lat="43.99615993162533" lon="11.371016467576657"><ele>256.0</ele><time>2026-05-01T13:18:20.999Z</time></trkpt><trkpt lat="43.996178094578454" lon="11.370911248839674"><ele>256.0</ele><time>2026-05-01T13:18:25.999Z</time></trkpt><trkpt lat="43.99616200025485" lon="11.370826613088388"><ele>255.99999999999997</ele><time>2026-05-01T13:18:30.999Z</time></trkpt><trkpt lat="43.996227887937785" lon="11.370823924131878"><ele>256.0</ele><time>2026-05-01T13:28:02Z</time></trkpt><trkpt lat="43.99628479932705" lon="11.370864902212283"><ele>256.0</ele><time>2026-05-01T13:28:09Z</time></trkpt><trkpt lat="43.99634995464248" lon="11.37090259789462"><ele>255.99999999999997</ele><time>2026-05-01T13:28:16Z</time></trkpt><trkpt lat="43.996383615811105" lon="11.370993467686882"><ele>256.0</ele><time>2026-05-01T13:32:53Z</time></trkpt><trkpt lat="43.99630918220293" lon="11.370985743920652"><ele>256.0</ele><time>2026-05-01T13:32:58.999Z</time></trkpt><trkpt lat="43.99624710634382" lon="11.370962084837442"><ele>256.0</ele><time>2026-05-01T13:33:02.999Z</time></trkpt><trkpt lat="43.9961809350569" lon="11.370937524234147"><ele>255.99999999999997</ele><time>2026-05-01T13:33:07.999Z</time></trkpt><trkpt lat="43.9961562440197" lon="11.3710278281317"><ele>256.0</ele><time>2026-05-01T13:33:13.999Z</time></trkpt><trkpt lat="43.99615402678756" lon="11.371123611008068"><ele>256.0</ele><time>2026-05-01T13:33:18.999Z</time></trkpt><trkpt lat="43.996123788047925" lon="11.371205815790672"><ele>255.99999999999997</ele><time>2026-05-01T13:33:23.999Z</time></trkpt><trkpt lat="43.99608953654193" lon="11.371287630103923"><ele>256.0</ele><time>2026-05-01T13:33:30Z</time></trkpt><trkpt lat="43.99607201576119" lon="11.371386328248217"><ele>256.0</ele><time>2026-05-01T13:34:31Z</time></trkpt><trkpt lat="43.99605828020788" lon="11.371471945883338"><ele>256.0</ele><time>2026-05-01T13:34:40Z</time></trkpt><trkpt lat="43.99609019289811" lon="11.3715534683042"><ele>255.99999999999997</ele><time>2026-05-01T13:34:49Z</time></trkpt><trkpt lat="43.996086023514756" lon="11.371647976567"><ele>256.0</ele><time>2026-05-01T13:34:58.999Z</time></trkpt><trkpt lat="43.99604197045937" lon="11.37171565556094"><ele>256.0</ele><time>2026-05-01T13:35:06.999Z</time></trkpt><trkpt lat="43.99600756746243" lon="11.371791180342306"><ele>255.99999999999997</ele><time>2026-05-01T13:35:14.999Z</time></trkpt><trkpt lat="43.995966021777704" lon="11.371870326763306"><ele>256.0</ele><time>2026-05-01T13:35:21.999Z</time></trkpt><trkpt lat="43.9959171176593" lon="11.371926632132647"><ele>256.0</ele><time>2026-05-01T13:35:27.999Z</time></trkpt><trkpt lat="43.995847385865034" lon="11.371949354374303"><ele>255.60000000000002</ele><time>2026-05-01T13:35:33.999Z</time></trkpt><trkpt lat="43.995773890442756" lon="11.371959226207991"><ele>255.20000000000002</ele><time>2026-05-01T13:35:41Z</time></trkpt><trkpt lat="43.9957232994503" lon="11.371901753239712"><ele>254.79999999999998</ele><time>2026-05-01T13:55:55.999Z</time></trkpt><trkpt lat="43.99563296657521" lon="11.371846586825294"><ele>254.39999999999998</ele><time>2026-05-01T13:55:57.999Z</time></trkpt><trkpt lat="43.99553385036454" lon="11.371773151937997"><ele>254.0</ele><time>2026-05-01T13:55:59.999Z</time></trkpt><trkpt lat="43.995432726958505" lon="11.371724866595523"><ele>254.0</ele><time>2026-05-01T13:56:01.999Z</time></trkpt><trkpt lat="43.995349463460165" lon="11.371677560579426"><ele>254.0</ele><time>2026-05-01T13:56:03.999Z</time></trkpt><trkpt lat="43.99526113180115" lon="11.371820007107262"><ele>254.0</ele><time>2026-05-01T13:56:05.999Z</time></trkpt><trkpt lat="43.9951553976214" lon="11.371848302955236"><ele>254.0</ele><time>2026-05-01T13:56:06.999Z</time></trkpt><trkpt lat="43.99503129134579" lon="11.371779500430131"><ele>254.00000000000003</ele><time>2026-05-01T13:56:08.999Z</time></trkpt><trkpt lat="43.994964418634126" lon="11.371731871323957"><ele>254.0</ele><time>2026-05-01T13:56:09.999Z</time></trkpt><trkpt lat="43.994888007494076" lon="11.371683892416828"><ele>254.0</ele><time>2026-05-01T13:56:10.999Z</time></trkpt><trkpt lat="43.9948079092753" lon="11.371638065654652"><ele>254.0</ele><time>2026-05-01T13:56:11.999Z</time></trkpt><trkpt lat="43.99472403553169" lon="11.37159321821759"><ele>254.00000000000003</ele><time>2026-05-01T13:56:12.999Z</time></trkpt><trkpt lat="43.994636337340125" lon="11.37154436970376"><ele>254.0</ele><time>2026-05-01T13:56:13.999Z</time></trkpt><trkpt lat="43.99455194005362" lon="11.371473037685952"><ele>254.0</ele><time>2026-05-01T13:56:14.999Z</time></trkpt><trkpt lat="43.994454754415685" lon="11.371412929398968"><ele>253.99999999999997</ele><time>2026-05-01T13:56:15.999Z</time></trkpt><trkpt lat="43.994353161398614" lon="11.371350181949435"><ele>253.99999999999997</ele><time>2026-05-01T13:56:16.999Z</time></trkpt><trkpt lat="43.99425139006754" lon="11.371286864731028"><ele>254.0</ele><time>2026-05-01T13:56:17.999Z</time></trkpt><trkpt lat="43.994148573555684" lon="11.371222872800617"><ele>254.0</ele><time>2026-05-01T13:56:18.999Z</time></trkpt><trkpt lat="43.99404148548862" lon="11.371156218181348"><ele>254.0</ele><time>2026-05-01T13:56:19.998Z</time></trkpt><trkpt lat="43.99393355504229" lon="11.371089039158313"><ele>254.0</ele><time>2026-05-01T13:56:20.998Z</time></trkpt><trkpt lat="43.993828795060004" lon="11.371023562232114"><ele>254.0</ele><time>2026-05-01T13:56:21.998Z</time></trkpt><trkpt lat="43.993722531933905" lon="11.370956949288"><ele>254.0</ele><time>2026-05-01T13:56:22.998Z</time></trkpt><trkpt lat="43.993580527845026" lon="11.370888774157411"><ele>254.0</ele><time>2026-05-01T13:56:23.998Z</time></trkpt><trkpt lat="43.99345529162416" lon="11.370808469934301"><ele>254.0</ele><time>2026-05-01T13:56:24.998Z</time></trkpt><trkpt lat="43.993334276096384" lon="11.370739697744156"><ele>254.0</ele><time>2026-05-01T13:56:25.998Z</time></trkpt><trkpt lat="43.99322016344187" lon="11.370642733645957"><ele>254.0</ele><time>2026-05-01T13:56:26.998Z</time></trkpt><trkpt lat="43.9930987357245" lon="11.370565352479773"><ele>252.25</ele><time>2026-05-01T13:56:27.998Z</time></trkpt><trkpt lat="43.992974375449776" lon="11.37050984455207"><ele>250.5</ele><time>2026-05-01T13:56:28.998Z</time></trkpt><trkpt lat="43.992863076207485" lon="11.370435456363813"><ele>248.75</ele><time>2026-05-01T13:56:29.998Z</time></trkpt><trkpt lat="43.99271935800895" lon="11.370346850012531"><ele>247.0</ele><time>2026-05-01T13:56:30.998Z</time></trkpt><trkpt lat="43.99259566953865" lon="11.370274166866185"><ele>247.25</ele><time>2026-05-01T13:56:31.998Z</time></trkpt><trkpt lat="43.992469565269616" lon="11.370211638933519"><ele>247.5</ele><time>2026-05-01T13:56:32.998Z</time></trkpt><trkpt lat="43.99233575393739" lon="11.370178198275193"><ele>247.75</ele><time>2026-05-01T13:56:34Z</time></trkpt><trkpt lat="43.99220567252309" lon="11.370177780352497"><ele>248.0</ele><time>2026-05-01T13:56:35Z</time></trkpt><trkpt lat="43.99207681208056" lon="11.370181170328253"><ele>248.0</ele><time>2026-05-01T13:56:36Z</time></trkpt><trkpt lat="43.99194875304392" lon="11.370188616706768"><ele>248.0</ele><time>2026-05-01T13:56:37Z</time></trkpt><trkpt lat="43.991814852899864" lon="11.37019349690114"><ele>248.0</ele><time>2026-05-01T13:56:38Z</time></trkpt><trkpt lat="43.99168531710268" lon="11.370194657285719"><ele>248.0</ele><time>2026-05-01T13:56:39Z</time></trkpt><trkpt lat="43.99156274674969" lon="11.3701902002929"><ele>248.2</ele><time>2026-05-01T13:56:40Z</time></trkpt><trkpt lat="43.99144413069202" lon="11.370185689187181"><ele>248.4</ele><time>2026-05-01T13:56:41Z</time></trkpt><trkpt lat="43.991340502668876" lon="11.370171269006669"><ele>248.59999999999997</ele><time>2026-05-01T13:56:42Z</time></trkpt><trkpt lat="43.99124349544901" lon="11.370158065330347"><ele>248.79999999999998</ele><time>2026-05-01T13:56:43Z</time></trkpt><trkpt lat="43.991163742672235" lon="11.370163421874954"><ele>249.0</ele><time>2026-05-01T13:56:44Z</time></trkpt><trkpt lat="43.991088356596954" lon="11.370146850657846"><ele>249.0</ele><time>2026-05-01T13:56:45Z</time></trkpt><trkpt lat="43.99102164551237" lon="11.370131225252043"><ele>249.0</ele><time>2026-05-01T13:56:46Z</time></trkpt><trkpt lat="43.99091712908197" lon="11.370108334238813"><ele>249.0</ele><time>2026-05-01T13:56:48Z</time></trkpt><trkpt lat="43.99084996582008" lon="11.370085507200429"><ele>249.0</ele><time>2026-05-01T13:56:50Z</time></trkpt><trkpt lat="43.99078369570606" lon="11.37005936409389"><ele>249.0</ele><time>2026-05-01T13:56:52Z</time></trkpt><trkpt lat="43.99073931376738" lon="11.369990206527294"><ele>249.0</ele><time>2026-05-01T13:56:54Z</time></trkpt><trkpt lat="43.99066432782781" lon="11.369969521323647"><ele>248.33333333333331</ele><time>2026-05-01T13:56:56Z</time></trkpt><trkpt lat="43.99059672961391" lon="11.369960052215276"><ele>247.66666666666666</ele><time>2026-05-01T13:56:59.999Z</time></trkpt><trkpt lat="43.9903250786486" lon="11.369917265117936"><ele>247.0</ele><time>2026-05-01T13:57:01.999Z</time></trkpt><trkpt lat="43.99046897155178" lon="11.370076975485327"><ele>247.0</ele><time>2026-05-01T13:57:56.999Z</time></trkpt><trkpt lat="43.99038729980894" lon="11.369943767200981"><ele>247.0</ele><time>2026-05-01T13:57:58.999Z</time></trkpt><trkpt lat="43.990390474150225" lon="11.369828930503465"><ele>247.0</ele><time>2026-05-01T13:57:59.999Z</time></trkpt><trkpt lat="43.99041970576619" lon="11.369702035629247"><ele>247.0</ele><time>2026-05-01T13:58:00.999Z</time></trkpt><trkpt lat="43.99046913986751" lon="11.3695664929357"><ele>247.0</ele><time>2026-05-01T13:58:01.999Z</time></trkpt><trkpt lat="43.99050841219625" lon="11.369410829447785"><ele>246.0</ele><time>2026-05-01T13:58:02.999Z</time></trkpt><trkpt lat="43.990547734752866" lon="11.369240369143704"><ele>245.0</ele><time>2026-05-01T13:58:03.999Z</time></trkpt><trkpt lat="43.9905926626462" lon="11.369054786376381"><ele>244.0</ele><time>2026-05-01T13:58:04.999Z</time></trkpt><trkpt lat="43.9906444502121" lon="11.368854189179666"><ele>243.0</ele><time>2026-05-01T13:58:05.999Z</time></trkpt><trkpt lat="43.99070432092065" lon="11.36864386620478"><ele>242.66666666666669</ele><time>2026-05-01T13:58:06.999Z</time></trkpt><trkpt lat="43.990770672830955" lon="11.368421829452428"><ele>242.33333333333334</ele><time>2026-05-01T13:58:07.999Z</time></trkpt><trkpt lat="43.99083940013591" lon="11.368190130277549"><ele>242.0</ele><time>2026-05-01T13:58:08.999Z</time></trkpt><trkpt lat="43.99090961822599" lon="11.367951778641428"><ele>244.0</ele><time>2026-05-01T13:58:09.999Z</time></trkpt><trkpt lat="43.99098480667954" lon="11.367705834859844"><ele>246.0</ele><time>2026-05-01T13:58:10.999Z</time></trkpt><trkpt lat="43.99106712676454" lon="11.367446802747589"><ele>248.0</ele><time>2026-05-01T13:58:11.999Z</time></trkpt><trkpt lat="43.991156553658804" lon="11.36718435564578"><ele>249.66666666666669</ele><time>2026-05-01T13:58:12.999Z</time></trkpt><trkpt lat="43.99124852207974" lon="11.366919621858722"><ele>251.33333333333331</ele><time>2026-05-01T13:58:13.999Z</time></trkpt><trkpt lat="43.99134158984668" lon="11.366662309180303"><ele>253.0</ele><time>2026-05-01T13:58:14.999Z</time></trkpt><trkpt lat="43.99143278697293" lon="11.366405339040094"><ele>255.33333333333331</ele><time>2026-05-01T13:58:15.999Z</time></trkpt><trkpt lat="43.991525345555765" lon="11.366152997374572"><ele>257.6666666666667</ele><time>2026-05-01T13:58:16.999Z</time></trkpt><trkpt lat="43.991616390265996" lon="11.365908904317772"><ele>260.0</ele><time>2026-05-01T13:58:17.999Z</time></trkpt><trkpt lat="43.99170573420588" lon="11.365665098857884"><ele>263.0</ele><time>2026-05-01T13:58:18.999Z</time></trkpt><trkpt lat="43.99179196474029" lon="11.365428875461351"><ele>266.0</ele><time>2026-05-01T13:58:19.999Z</time></trkpt><trkpt lat="43.991877668339" lon="11.365188591410774"><ele>269.0</ele><time>2026-05-01T13:58:20.999Z</time></trkpt><trkpt lat="43.99196102036508" lon="11.364952222364458"><ele>269.0</ele><time>2026-05-01T13:58:21.999Z</time></trkpt><trkpt lat="43.992044601554824" lon="11.364724404442239"><ele>269.0</ele><time>2026-05-01T13:58:22.999Z</time></trkpt><trkpt lat="43.992124289897916" lon="11.36450538201311"><ele>269.0</ele><time>2026-05-01T13:58:23.999Z</time></trkpt><trkpt lat="43.9922046359982" lon="11.364298281686445"><ele>272.33333333333337</ele><time>2026-05-01T13:58:24.999Z</time></trkpt><trkpt lat="43.99229029427011" lon="11.364100181799031"><ele>275.6666666666667</ele><time>2026-05-01T13:58:25.999Z</time></trkpt><trkpt lat="43.99238632148151" lon="11.363925452107734"><ele>279.0</ele><time>2026-05-01T13:58:26.999Z</time></trkpt><trkpt lat="43.99248613672424" lon="11.363776560457529"><ele>281.25</ele><time>2026-05-01T13:58:27.998Z</time></trkpt><trkpt lat="43.992580693814354" lon="11.363660259930942"><ele>283.5</ele><time>2026-05-01T13:58:28.998Z</time></trkpt><trkpt lat="43.992672244802264" lon="11.36357258531926"><ele>285.75</ele><time>2026-05-01T13:58:29.998Z</time></trkpt><trkpt lat="43.99277615694126" lon="11.363516527405485"><ele>288.0</ele><time>2026-05-01T13:58:30.998Z</time></trkpt><trkpt lat="43.99288630792099" lon="11.363482411814994"><ele>288.0</ele><time>2026-05-01T13:58:31.998Z</time></trkpt><trkpt lat="43.99298401544834" lon="11.363423072356419"><ele>288.0</ele><time>2026-05-01T13:58:32.998Z</time></trkpt><trkpt lat="43.993038819435256" lon="11.36331121284887"><ele>288.0</ele><time>2026-05-01T13:58:33.998Z</time></trkpt><trkpt lat="43.99303035853794" lon="11.363173715006036"><ele>288.0</ele><time>2026-05-01T13:58:34.998Z</time></trkpt><trkpt lat="43.99297151045584" lon="11.363051109212842"><ele>288.0</ele><time>2026-05-01T13:58:35.998Z</time></trkpt><trkpt lat="43.992872962474735" lon="11.362968675827672"><ele>287.5</ele><time>2026-05-01T13:58:36.998Z</time></trkpt><trkpt lat="43.992802609704846" lon="11.362890302806322"><ele>287.0</ele><time>2026-05-01T13:58:37.998Z</time></trkpt><trkpt lat="43.99288384848835" lon="11.362647685819221"><ele>286.5</ele><time>2026-05-01T13:58:38.998Z</time></trkpt><trkpt lat="43.99292395071729" lon="11.362479755574666"><ele>286.0</ele><time>2026-05-01T13:58:39.999Z</time></trkpt><trkpt lat="43.99296693502246" lon="11.362318351786575"><ele>284.25</ele><time>2026-05-01T13:58:40.999Z</time></trkpt><trkpt lat="43.993022156340004" lon="11.362157602252227"><ele>282.5</ele><time>2026-05-01T13:58:41.999Z</time></trkpt><trkpt lat="43.99307471179022" lon="11.362002219181713"><ele>280.75</ele><time>2026-05-01T13:58:42.999Z</time></trkpt><trkpt lat="43.99313795433114" lon="11.361865946719433"><ele>279.0</ele><time>2026-05-01T13:58:43.999Z</time></trkpt><trkpt lat="43.99322932446811" lon="11.36177334791134"><ele>279.0</ele><time>2026-05-01T13:58:44.999Z</time></trkpt><trkpt lat="43.99333779368073" lon="11.361712676404942"><ele>279.0</ele><time>2026-05-01T13:58:45.999Z</time></trkpt><trkpt lat="43.993463044335364" lon="11.361703573807056"><ele>279.0</ele><time>2026-05-01T13:58:46.999Z</time></trkpt><trkpt lat="43.993603528350555" lon="11.36172650573975"><ele>279.0</ele><time>2026-05-01T13:58:47.999Z</time></trkpt><trkpt lat="43.993749896738954" lon="11.361734498177418"><ele>277.6666666666667</ele><time>2026-05-01T13:58:48.999Z</time></trkpt><trkpt lat="43.9938921030777" lon="11.361677344639036"><ele>276.33333333333337</ele><time>2026-05-01T13:58:49.999Z</time></trkpt><trkpt lat="43.994024718708545" lon="11.361538510947648"><ele>275.0</ele><time>2026-05-01T13:58:50.999Z</time></trkpt><trkpt lat="43.9941248806581" lon="11.361356317504987"><ele>273.75</ele><time>2026-05-01T13:58:51.999Z</time></trkpt><trkpt lat="43.99419060354704" lon="11.361181883687074"><ele>272.5</ele><time>2026-05-01T13:58:52.999Z</time></trkpt><trkpt lat="43.994205579989135" lon="11.360992029113788"><ele>271.25</ele><time>2026-05-01T13:58:53.999Z</time></trkpt><trkpt lat="43.994189864049545" lon="11.360815613518506"><ele>270.0</ele><time>2026-05-01T13:58:54.999Z</time></trkpt><trkpt lat="43.994188249816915" lon="11.360641567475742"><ele>270.0</ele><time>2026-05-01T13:58:55.999Z</time></trkpt><trkpt lat="43.99419523120546" lon="11.360466890196331"><ele>270.0</ele><time>2026-05-01T13:58:56.999Z</time></trkpt><trkpt lat="43.99420964516535" lon="11.3602831228713"><ele>270.0</ele><time>2026-05-01T13:58:57.999Z</time></trkpt><trkpt lat="43.9942278354345" lon="11.360099840908504"><ele>270.0</ele><time>2026-05-01T13:58:58.999Z</time></trkpt><trkpt lat="43.99426981735092" lon="11.359929060534872"><ele>270.0</ele><time>2026-05-01T13:58:59.999Z</time></trkpt><trkpt lat="43.99431172164074" lon="11.359751068882803"><ele>270.0</ele><time>2026-05-01T13:59:00.999Z</time></trkpt><trkpt lat="43.99435351722771" lon="11.359582671232342"><ele>270.0</ele><time>2026-05-01T13:59:01.999Z</time></trkpt><trkpt lat="43.99439050054202" lon="11.359416120517592"><ele>270.0</ele><time>2026-05-01T13:59:02.999Z</time></trkpt><trkpt lat="43.9944145983735" lon="11.35924600211482"><ele>271.75</ele><time>2026-05-01T13:59:03.999Z</time></trkpt><trkpt lat="43.9944265898634" lon="11.359075961092126"><ele>273.5</ele><time>2026-05-01T13:59:04.999Z</time></trkpt><trkpt lat="43.99443659672387" lon="11.358905871605447"><ele>275.25</ele><time>2026-05-01T13:59:05.999Z</time></trkpt><trkpt lat="43.994460994393" lon="11.358743220090565"><ele>277.0</ele><time>2026-05-01T13:59:06.999Z</time></trkpt><trkpt lat="43.994517434539986" lon="11.3586010486656"><ele>278.5</ele><time>2026-05-01T13:59:07.999Z</time></trkpt><trkpt lat="43.9945957802208" lon="11.358485953284653"><ele>280.0</ele><time>2026-05-01T13:59:08.999Z</time></trkpt><trkpt lat="43.994692834991014" lon="11.35839141923981"><ele>281.5</ele><time>2026-05-01T13:59:09.999Z</time></trkpt><trkpt lat="43.9947959051243" lon="11.358302193534927"><ele>283.0</ele><time>2026-05-01T13:59:10.999Z</time></trkpt><trkpt lat="43.99489422798232" lon="11.358201499474957"><ele>283.0</ele><time>2026-05-01T13:59:11.999Z</time></trkpt><trkpt lat="43.9949874813099" lon="11.358090949604968"><ele>283.0</ele><time>2026-05-01T13:59:12.999Z</time></trkpt><trkpt lat="43.995072685143676" lon="11.357966445838487"><ele>283.0</ele><time>2026-05-01T13:59:13.999Z</time></trkpt><trkpt lat="43.99515905307438" lon="11.357841201712334"><ele>283.0</ele><time>2026-05-01T13:59:14.999Z</time></trkpt><trkpt lat="43.99524897945679" lon="11.357721576442312"><ele>285.0</ele><time>2026-05-01T13:59:15.999Z</time></trkpt><trkpt lat="43.99533701335409" lon="11.357602605270547"><ele>287.0</ele><time>2026-05-01T13:59:16.999Z</time></trkpt><trkpt lat="43.99540890493828" lon="11.357475388351723"><ele>289.0</ele><time>2026-05-01T13:59:17.999Z</time></trkpt><trkpt lat="43.995458484801276" lon="11.357343772536085"><ele>291.0</ele><time>2026-05-01T13:59:18.999Z</time></trkpt><trkpt lat="43.99549896956871" lon="11.357208415220331"><ele>291.8333333333333</ele><time>2026-05-01T13:59:19.999Z</time></trkpt><trkpt lat="43.99553547669268" lon="11.357068997467893"><ele>292.6666666666667</ele><time>2026-05-01T13:59:20.999Z</time></trkpt><trkpt lat="43.99557137355168" lon="11.35694782475942"><ele>293.5</ele><time>2026-05-01T13:59:21.999Z</time></trkpt><trkpt lat="43.99560431269466" lon="11.356843477427928"><ele>294.33333333333337</ele><time>2026-05-01T13:59:22.999Z</time></trkpt><trkpt lat="43.99563523410437" lon="11.356751367911004"><ele>295.1666666666667</ele><time>2026-05-01T13:59:23.999Z</time></trkpt><trkpt lat="43.99567138364108" lon="11.356664360161043"><ele>296.0</ele><time>2026-05-01T13:59:24.999Z</time></trkpt><trkpt lat="43.99569978751056" lon="11.356584559387947"><ele>296.0</ele><time>2026-05-01T13:59:25.999Z</time></trkpt><trkpt lat="43.995731484027054" lon="11.356476243192699"><ele>296.0</ele><time>2026-05-01T13:59:27.999Z</time></trkpt><trkpt lat="43.995751472727406" lon="11.356390824808845"><ele>296.0</ele><time>2026-05-01T13:59:32.999Z</time></trkpt><trkpt lat="43.995610620542124" lon="11.356263781445513"><ele>296.0</ele><time>2026-05-01T13:59:34.999Z</time></trkpt><trkpt lat="43.99553130624786" lon="11.356217592129195"><ele>296.0</ele><time>2026-05-01T13:59:35.999Z</time></trkpt><trkpt lat="43.99544294932113" lon="11.356174640380708"><ele>295.8</ele><time>2026-05-01T13:59:36.999Z</time></trkpt><trkpt lat="43.99535505540015" lon="11.356128959275585"><ele>295.6</ele><time>2026-05-01T13:59:37.999Z</time></trkpt><trkpt lat="43.99525806710694" lon="11.356078162269354"><ele>295.4</ele><time>2026-05-01T13:59:38.999Z</time></trkpt><trkpt lat="43.99515759535877" lon="11.356026442470979"><ele>295.2</ele><time>2026-05-01T13:59:39.999Z</time></trkpt><trkpt lat="43.99505776823317" lon="11.355973171011026"><ele>295.0</ele><time>2026-05-01T13:59:40.999Z</time></trkpt><trkpt lat="43.994956121717046" lon="11.355920483393298"><ele>294.6</ele><time>2026-05-01T13:59:41.999Z</time></trkpt><trkpt lat="43.99485214158621" lon="11.35587112076776"><ele>294.2</ele><time>2026-05-01T13:59:42.999Z</time></trkpt><trkpt lat="43.994749658926345" lon="11.355820910895845"><ele>293.8</ele><time>2026-05-01T13:59:43.999Z</time></trkpt><trkpt lat="43.994647598205496" lon="11.355768305972397"><ele>293.4</ele><time>2026-05-01T13:59:44.999Z</time></trkpt><trkpt lat="43.99454272771184" lon="11.35571033772185"><ele>293.0</ele><time>2026-05-01T13:59:45.999Z</time></trkpt><trkpt lat="43.994440369904254" lon="11.355655152116526"><ele>293.0</ele><time>2026-05-01T13:59:46.999Z</time></trkpt><trkpt lat="43.994345847831" lon="11.35560451214943"><ele>293.0</ele><time>2026-05-01T13:59:47.999Z</time></trkpt><trkpt lat="43.99425698383705" lon="11.355557934328319"><ele>293.0</ele><time>2026-05-01T13:59:48.999Z</time></trkpt><trkpt lat="43.99416798397853" lon="11.355508725958563"><ele>293.0</ele><time>2026-05-01T13:59:49.999Z</time></trkpt><trkpt lat="43.9940698519454" lon="11.355461291610274"><ele>293.0</ele><time>2026-05-01T13:59:50.999Z</time></trkpt><trkpt lat="43.99397813551906" lon="11.355400290869168"><ele>292.4</ele><time>2026-05-01T13:59:51.999Z</time></trkpt><trkpt lat="43.99388499326511" lon="11.355349667744802"><ele>291.8</ele><time>2026-05-01T13:59:52.999Z</time></trkpt><trkpt lat="43.99378704393129" lon="11.355299403975831"><ele>291.2</ele><time>2026-05-01T13:59:53.999Z</time></trkpt><trkpt lat="43.99369552714154" lon="11.355247049660658"><ele>290.6</ele><time>2026-05-01T13:59:54.999Z</time></trkpt><trkpt lat="43.99360041399948" lon="11.355183150186262"><ele>290.0</ele><time>2026-05-01T13:59:55.999Z</time></trkpt><trkpt lat="43.99349380335319" lon="11.355144124090742"><ele>290.0</ele><time>2026-05-01T13:59:56.999Z</time></trkpt><trkpt lat="43.99339248933294" lon="11.355086691540057"><ele>290.0</ele><time>2026-05-01T13:59:57.999Z</time></trkpt><trkpt lat="43.99329108368238" lon="11.355034162693602"><ele>290.0</ele><time>2026-05-01T13:59:58.999Z</time></trkpt><trkpt lat="43.993189913523565" lon="11.35497365054843"><ele>290.0</ele><time>2026-05-01T13:59:59.999Z</time></trkpt><trkpt lat="43.99308344136564" lon="11.354914198821753"><ele>290.0</ele><time>2026-05-01T14:00:00.999Z</time></trkpt><trkpt lat="43.99297916062152" lon="11.354846192161691"><ele>289.4</ele><time>2026-05-01T14:00:01.999Z</time></trkpt><trkpt lat="43.992877333269085" lon="11.354779575727589"><ele>288.8</ele><time>2026-05-01T14:00:02.999Z</time></trkpt><trkpt lat="43.99278601188719" lon="11.354713246325847"><ele>288.2</ele><time>2026-05-01T14:00:03.999Z</time></trkpt><trkpt lat="43.99268875726581" lon="11.354653183442565"><ele>287.6</ele><time>2026-05-01T14:00:04.999Z</time></trkpt><trkpt lat="43.99259910185508" lon="11.354594820211553"><ele>287.0</ele><time>2026-05-01T14:00:05.999Z</time></trkpt><trkpt lat="43.99252565974236" lon="11.35455667521867"><ele>286.2</ele><time>2026-05-01T14:00:06.999Z</time></trkpt><trkpt lat="43.99243557387088" lon="11.35450262464263"><ele>285.4</ele><time>2026-05-01T14:00:08.999Z</time></trkpt><trkpt lat="43.99236618264248" lon="11.354471479641292"><ele>284.6</ele><time>2026-05-01T14:00:10.999Z</time></trkpt><trkpt lat="43.99223850681531" lon="11.354390672198772"><ele>283.8</ele><time>2026-05-01T14:00:12.999Z</time></trkpt><trkpt lat="43.992141863225996" lon="11.354318153440511"><ele>283.0</ele><time>2026-05-01T14:00:13.999Z</time></trkpt><trkpt lat="43.992052064156844" lon="11.354260708849758"><ele>283.0</ele><time>2026-05-01T14:00:14.999Z</time></trkpt><trkpt lat="43.99195686961616" lon="11.354198995447453"><ele>283.0</ele><time>2026-05-01T14:00:15.999Z</time></trkpt><trkpt lat="43.99185666927192" lon="11.35413079315486"><ele>283.0</ele><time>2026-05-01T14:00:16.999Z</time></trkpt><trkpt lat="43.99174974459707" lon="11.35406143965898"><ele>283.0</ele><time>2026-05-01T14:00:17.999Z</time></trkpt><trkpt lat="43.99163919927344" lon="11.353990371281515"><ele>282.25</ele><time>2026-05-01T14:00:18.999Z</time></trkpt><trkpt lat="43.99152670255421" lon="11.353914073949122"><ele>281.5</ele><time>2026-05-01T14:00:19.999Z</time></trkpt><trkpt lat="43.9914104514304" lon="11.353837085856135"><ele>280.75</ele><time>2026-05-01T14:00:20.999Z</time></trkpt><trkpt lat="43.99129660245255" lon="11.353758687733194"><ele>280.0</ele><time>2026-05-01T14:00:21.999Z</time></trkpt><trkpt lat="43.991183537928165" lon="11.35367948328354"><ele>280.0</ele><time>2026-05-01T14:00:22.999Z</time></trkpt><trkpt lat="43.991076077923395" lon="11.353605164000582"><ele>280.0</ele><time>2026-05-01T14:00:23.998Z</time></trkpt><trkpt lat="43.99096828087076" lon="11.353529202790323"><ele>280.0</ele><time>2026-05-01T14:00:24.998Z</time></trkpt><trkpt lat="43.990858505531634" lon="11.353449912079709"><ele>280.0</ele><time>2026-05-01T14:00:25.998Z</time></trkpt><trkpt lat="43.990748159052146" lon="11.353367700404906"><ele>279.5</ele><time>2026-05-01T14:00:26.998Z</time></trkpt><trkpt lat="43.99064202294485" lon="11.353294344418554"><ele>279.0</ele><time>2026-05-01T14:00:27.998Z</time></trkpt><trkpt lat="43.990522450394245" lon="11.35320895876836"><ele>278.5</ele><time>2026-05-01T14:00:28.998Z</time></trkpt><trkpt lat="43.99041143747349" lon="11.353134699867965"><ele>278.0</ele><time>2026-05-01T14:00:29.998Z</time></trkpt><trkpt lat="43.99030284138488" lon="11.3530476839367"><ele>277.75</ele><time>2026-05-01T14:00:30.998Z</time></trkpt><trkpt lat="43.99019367199716" lon="11.352966082773294"><ele>277.5</ele><time>2026-05-01T14:00:31.998Z</time></trkpt><trkpt lat="43.990093763054496" lon="11.352863575918096"><ele>277.25</ele><time>2026-05-01T14:00:32.998Z</time></trkpt><trkpt lat="43.990005132199144" lon="11.352747349843504"><ele>277.0</ele><time>2026-05-01T14:00:33.998Z</time></trkpt><trkpt lat="43.98992872213953" lon="11.352617457834473"><ele>276.25</ele><time>2026-05-01T14:00:34.998Z</time></trkpt><trkpt lat="43.98987066343788" lon="11.352468669707"><ele>275.5</ele><time>2026-05-01T14:00:35.998Z</time></trkpt><trkpt lat="43.98982520522375" lon="11.352309348806637"><ele>274.75</ele><time>2026-05-01T14:00:36.998Z</time></trkpt><trkpt lat="43.989797309709104" lon="11.352146931632277"><ele>274.0</ele><time>2026-05-01T14:00:37.998Z</time></trkpt><trkpt lat="43.98978353074913" lon="11.351979756773597"><ele>274.0</ele><time>2026-05-01T14:00:38.998Z</time></trkpt><trkpt lat="43.98977247916801" lon="11.351816470890482"><ele>274.0</ele><time>2026-05-01T14:00:39.998Z</time></trkpt><trkpt lat="43.98977198267113" lon="11.35166695758617"><ele>274.0</ele><time>2026-05-01T14:00:40.998Z</time></trkpt><trkpt lat="43.98977520214306" lon="11.351530264632146"><ele>274.0</ele><time>2026-05-01T14:00:41.998Z</time></trkpt><trkpt lat="43.98977729388205" lon="11.351403921177596"><ele>274.0</ele><time>2026-05-01T14:00:42.998Z</time></trkpt><trkpt lat="43.989782102217994" lon="11.351282179135499"><ele>274.0</ele><time>2026-05-01T14:00:43.998Z</time></trkpt><trkpt lat="43.989791065936735" lon="11.351177516840641"><ele>274.0</ele><time>2026-05-01T14:00:44.998Z</time></trkpt><trkpt lat="43.98981973205613" lon="11.351079942486635"><ele>274.0</ele><time>2026-05-01T14:00:46Z</time></trkpt><trkpt lat="43.98985303842204" lon="11.35100051843951"><ele>274.0</ele><time>2026-05-01T14:00:47Z</time></trkpt><trkpt lat="43.98988597660742" lon="11.350829122324622"><ele>274.0</ele><time>2026-05-01T14:00:49Z</time></trkpt><trkpt lat="43.98984159491048" lon="11.350746224014664"><ele>274.0</ele><time>2026-05-01T14:00:50Z</time></trkpt><trkpt lat="43.98977002858852" lon="11.350694678556955"><ele>274.0</ele><time>2026-05-01T14:00:51Z</time></trkpt><trkpt lat="43.98968500802426" lon="11.35063635881739"><ele>274.0</ele><time>2026-05-01T14:00:52Z</time></trkpt><trkpt lat="43.9896051400221" lon="11.350572728484492"><ele>274.0</ele><time>2026-05-01T14:00:53Z</time></trkpt><trkpt lat="43.98952601151752" lon="11.350495472045298"><ele>274.0</ele><time>2026-05-01T14:00:54Z</time></trkpt><trkpt lat="43.98944847927715" lon="11.3504235683443"><ele>274.0</ele><time>2026-05-01T14:00:55Z</time></trkpt><trkpt lat="43.989368354659845" lon="11.350349117271527"><ele>273.8</ele><time>2026-05-01T14:00:56Z</time></trkpt><trkpt lat="43.98928512204048" lon="11.350280585390779"><ele>273.59999999999997</ele><time>2026-05-01T14:00:57Z</time></trkpt><trkpt lat="43.989202802870196" lon="11.35020712427649"><ele>273.4</ele><time>2026-05-01T14:00:58Z</time></trkpt><trkpt lat="43.98911739046433" lon="11.350133349866617"><ele>273.2</ele><time>2026-05-01T14:00:59Z</time></trkpt><trkpt lat="43.98903238036063" lon="11.350060122101594"><ele>273.0</ele><time>2026-05-01T14:01:00Z</time></trkpt><trkpt lat="43.98894751542679" lon="11.349981787119471"><ele>273.0</ele><time>2026-05-01T14:01:01Z</time></trkpt><trkpt lat="43.988864513434144" lon="11.349900751461593"><ele>273.0</ele><time>2026-05-01T14:01:02Z</time></trkpt><trkpt lat="43.988774168049154" lon="11.349826233523363"><ele>273.0</ele><time>2026-05-01T14:01:03Z</time></trkpt><trkpt lat="43.988677668268416" lon="11.349737256403316"><ele>273.0</ele><time>2026-05-01T14:01:03.999Z</time></trkpt><trkpt lat="43.98858429708192" lon="11.349647847901934"><ele>273.0</ele><time>2026-05-01T14:01:04.999Z</time></trkpt><trkpt lat="43.9884920839288" lon="11.34956160170181"><ele>272.0</ele><time>2026-05-01T14:01:05.999Z</time></trkpt><trkpt lat="43.9883929275557" lon="11.349473804676194"><ele>271.0</ele><time>2026-05-01T14:01:06.999Z</time></trkpt><trkpt lat="43.988296107194095" lon="11.349384923673965"><ele>270.0</ele><time>2026-05-01T14:01:07.999Z</time></trkpt><trkpt lat="43.988197662846964" lon="11.349295427769407"><ele>269.0</ele><time>2026-05-01T14:01:08.999Z</time></trkpt><trkpt lat="43.98810385526234" lon="11.34921137541113"><ele>268.75</ele><time>2026-05-01T14:01:09.999Z</time></trkpt><trkpt lat="43.988006519194435" lon="11.349127295320978"><ele>268.5</ele><time>2026-05-01T14:01:10.999Z</time></trkpt><trkpt lat="43.98790938957396" lon="11.349047370614883"><ele>268.25</ele><time>2026-05-01T14:01:11.999Z</time></trkpt><trkpt lat="43.987814799250955" lon="11.348954752383142"><ele>268.0</ele><time>2026-05-01T14:01:12.999Z</time></trkpt><trkpt lat="43.98761842691812" lon="11.348780408914578"><ele>266.25</ele><time>2026-05-01T14:01:14.999Z</time></trkpt><trkpt lat="43.98751929423891" lon="11.348685216691045"><ele>264.5</ele><time>2026-05-01T14:01:15.999Z</time></trkpt><trkpt lat="43.9874187475117" lon="11.34858372884893"><ele>262.75</ele><time>2026-05-01T14:01:16.999Z</time></trkpt><trkpt lat="43.98731168183889" lon="11.348481721571899"><ele>261.0</ele><time>2026-05-01T14:01:17.999Z</time></trkpt><trkpt lat="43.98719341327284" lon="11.348374452390274"><ele>261.0</ele><time>2026-05-01T14:01:18.999Z</time></trkpt><trkpt lat="43.98707159772336" lon="11.348253163143498"><ele>261.0</ele><time>2026-05-01T14:01:19.999Z</time></trkpt><trkpt lat="43.98695715022043" lon="11.348114778284009"><ele>261.0</ele><time>2026-05-01T14:01:20.999Z</time></trkpt><trkpt lat="43.986849781089205" lon="11.347968726200763"><ele>260.0</ele><time>2026-05-01T14:01:21.999Z</time></trkpt><trkpt lat="43.98675321011651" lon="11.347809446621977"><ele>259.0</ele><time>2026-05-01T14:01:22.999Z</time></trkpt><trkpt lat="43.98667315409768" lon="11.347629164245335"><ele>258.0</ele><time>2026-05-01T14:01:23.999Z</time></trkpt><trkpt lat="43.986604375014274" lon="11.347433928263847"><ele>258.0</ele><time>2026-05-01T14:01:24.999Z</time></trkpt><trkpt lat="43.98653258951988" lon="11.347235699754597"><ele>258.0</ele><time>2026-05-01T14:01:25.999Z</time></trkpt><trkpt lat="43.986453750619944" lon="11.347030782980335"><ele>258.0</ele><time>2026-05-01T14:01:26.999Z</time></trkpt><trkpt lat="43.98637805718726" lon="11.346824273325543"><ele>255.33333333333331</ele><time>2026-05-01T14:01:27.999Z</time></trkpt><trkpt lat="43.986299938778494" lon="11.346614418907162"><ele>252.66666666666666</ele><time>2026-05-01T14:01:28.999Z</time></trkpt><trkpt lat="43.98621982639757" lon="11.346406109724034"><ele>250.0</ele><time>2026-05-01T14:01:29.999Z</time></trkpt><trkpt lat="43.986140434074784" lon="11.34620294861086"><ele>247.66666666666666</ele><time>2026-05-01T14:01:30.999Z</time></trkpt><trkpt lat="43.98606071108173" lon="11.345999938997483"><ele>245.33333333333331</ele><time>2026-05-01T14:01:31.999Z</time></trkpt><trkpt lat="43.98598159441322" lon="11.345797584878385"><ele>243.0</ele><time>2026-05-01T14:01:32.999Z</time></trkpt><trkpt lat="43.98590334610185" lon="11.345600583708409"><ele>243.0</ele><time>2026-05-01T14:01:33.999Z</time></trkpt><trkpt lat="43.98582861825381" lon="11.345405814990587"><ele>243.0</ele><time>2026-05-01T14:01:34.999Z</time></trkpt><trkpt lat="43.985757134382865" lon="11.345214182484096"><ele>243.0</ele><time>2026-05-01T14:01:35.999Z</time></trkpt><trkpt lat="43.98568385303322" lon="11.345026067099749"><ele>243.0</ele><time>2026-05-01T14:01:36.999Z</time></trkpt><trkpt lat="43.98561031569162" lon="11.3448459661759"><ele>243.0</ele><time>2026-05-01T14:01:37.999Z</time></trkpt><trkpt lat="43.98553237250732" lon="11.344665374771917"><ele>243.0</ele><time>2026-05-01T14:01:38.999Z</time></trkpt><trkpt lat="43.98545405650471" lon="11.344480817259782"><ele>240.66666666666669</ele><time>2026-05-01T14:01:39.999Z</time></trkpt><trkpt lat="43.98537630058395" lon="11.344290742999013"><ele>238.33333333333334</ele><time>2026-05-01T14:01:40.999Z</time></trkpt><trkpt lat="43.98529951868903" lon="11.344101616152782"><ele>236.0</ele><time>2026-05-01T14:01:41.999Z</time></trkpt><trkpt lat="43.98522105430269" lon="11.343911297373959"><ele>234.0</ele><time>2026-05-01T14:01:42.999Z</time></trkpt><trkpt lat="43.98514292437296" lon="11.343718118407486"><ele>232.0</ele><time>2026-05-01T14:01:43.999Z</time></trkpt><trkpt lat="43.98506542968423" lon="11.34352702354936"><ele>230.0</ele><time>2026-05-01T14:01:44.999Z</time></trkpt><trkpt lat="43.98499154469907" lon="11.343337968646276"><ele>230.0</ele><time>2026-05-01T14:01:45.999Z</time></trkpt><trkpt lat="43.984925193638965" lon="11.343142644232511"><ele>230.0</ele><time>2026-05-01T14:01:46.999Z</time></trkpt><trkpt lat="43.984827171748584" lon="11.342972711996916"><ele>230.0</ele><time>2026-05-01T14:01:47.999Z</time></trkpt><trkpt lat="43.984924089739636" lon="11.342717679222611"><ele>229.0</ele><time>2026-05-01T14:01:48.999Z</time></trkpt><trkpt lat="43.9849412436996" lon="11.342482676932441"><ele>228.0</ele><time>2026-05-01T14:01:49.999Z</time></trkpt><trkpt lat="43.9849884236967" lon="11.342263747836215"><ele>227.0</ele><time>2026-05-01T14:01:50.999Z</time></trkpt><trkpt lat="43.98503047359992" lon="11.342036989308632"><ele>226.66666666666669</ele><time>2026-05-01T14:01:51.999Z</time></trkpt><trkpt lat="43.985072703401194" lon="11.341803519843893"><ele>226.33333333333331</ele><time>2026-05-01T14:01:52.999Z</time></trkpt><trkpt lat="43.985114065107624" lon="11.341573002499786"><ele>226.0</ele><time>2026-05-01T14:01:53.999Z</time></trkpt><trkpt lat="43.985156089960924" lon="11.341341814744569"><ele>226.66666666666666</ele><time>2026-05-01T14:01:54.999Z</time></trkpt><trkpt lat="43.985198044961415" lon="11.341114134491757"><ele>227.33333333333331</ele><time>2026-05-01T14:01:55.999Z</time></trkpt><trkpt lat="43.985236885746545" lon="11.340889673797417"><ele>228.0</ele><time>2026-05-01T14:01:56.999Z</time></trkpt><trkpt lat="43.98526766767451" lon="11.340674348997167"><ele>229.0</ele><time>2026-05-01T14:01:57.999Z</time></trkpt><trkpt lat="43.985289076410446" lon="11.340479706373404"><ele>230.0</ele><time>2026-05-01T14:01:58.999Z</time></trkpt><trkpt lat="43.98530705760319" lon="11.340300962400212"><ele>231.0</ele><time>2026-05-01T14:01:59.999Z</time></trkpt><trkpt lat="43.98534170953915" lon="11.3401615673388"><ele>232.0</ele><time>2026-05-01T14:02:00.999Z</time></trkpt><trkpt lat="43.98540252241022" lon="11.34004335996232"><ele>232.0</ele><time>2026-05-01T14:02:01.999Z</time></trkpt><trkpt lat="43.98547913426202" lon="11.339948658698733"><ele>232.0</ele><time>2026-05-01T14:02:02.999Z</time></trkpt><trkpt lat="43.985537448686166" lon="11.339833523095622"><ele>232.0</ele><time>2026-05-01T14:02:03.999Z</time></trkpt><trkpt lat="43.9855609900875" lon="11.339717549161644"><ele>232.0</ele><time>2026-05-01T14:02:04.999Z</time></trkpt><trkpt lat="43.985474409550704" lon="11.339615288863001"><ele>232.0</ele><time>2026-05-01T14:02:05.999Z</time></trkpt><trkpt lat="43.9853793305306" lon="11.339548122033177"><ele>233.0</ele><time>2026-05-01T14:02:06.999Z</time></trkpt><trkpt lat="43.985245046011855" lon="11.339588231721343"><ele>234.0</ele><time>2026-05-01T14:02:07.999Z</time></trkpt><trkpt lat="43.98510252364643" lon="11.33960625709153"><ele>235.0</ele><time>2026-05-01T14:02:08.999Z</time></trkpt><trkpt lat="43.98497227778966" lon="11.339546943237291"><ele>236.0</ele><time>2026-05-01T14:02:09.999Z</time></trkpt><trkpt lat="43.984846033443596" lon="11.339421117692858"><ele>237.33333333333334</ele><time>2026-05-01T14:02:10.999Z</time></trkpt><trkpt lat="43.98470936780191" lon="11.339313314147168"><ele>238.66666666666669</ele><time>2026-05-01T14:02:11.999Z</time></trkpt><trkpt lat="43.98456337055189" lon="11.339250691095101"><ele>240.0</ele><time>2026-05-01T14:02:12.999Z</time></trkpt><trkpt lat="43.98440926311949" lon="11.339220652234529"><ele>240.0</ele><time>2026-05-01T14:02:13.999Z</time></trkpt><trkpt lat="43.984253915845365" lon="11.339214950864482"><ele>240.0</ele><time>2026-05-01T14:02:14.999Z</time></trkpt><trkpt lat="43.984101169595824" lon="11.339204369934643"><ele>240.0</ele><time>2026-05-01T14:02:15.999Z</time></trkpt><trkpt lat="43.983952369772304" lon="11.339184342888585"><ele>239.75</ele><time>2026-05-01T14:02:16.999Z</time></trkpt><trkpt lat="43.98380383107766" lon="11.33916420879605"><ele>239.5</ele><time>2026-05-01T14:02:17.999Z</time></trkpt><trkpt lat="43.98366165854988" lon="11.339146767173618"><ele>239.25</ele><time>2026-05-01T14:02:18.999Z</time></trkpt><trkpt lat="43.98352575279219" lon="11.339129121463218"><ele>239.0</ele><time>2026-05-01T14:02:19.999Z</time></trkpt><trkpt lat="43.98339644864071" lon="11.33912522864272"><ele>239.0</ele><time>2026-05-01T14:02:20.999Z</time></trkpt><trkpt lat="43.98326377946932" lon="11.339148391342468"><ele>239.0</ele><time>2026-05-01T14:02:21.999Z</time></trkpt><trkpt lat="43.98312523489124" lon="11.339193863050983"><ele>239.0</ele><time>2026-05-01T14:02:22.999Z</time></trkpt><trkpt lat="43.98299031828168" lon="11.339250883067413"><ele>239.0</ele><time>2026-05-01T14:02:23.999Z</time></trkpt><trkpt lat="43.98286257189942" lon="11.339314543928479"><ele>239.0</ele><time>2026-05-01T14:02:24.999Z</time></trkpt><trkpt lat="43.98273250043672" lon="11.339365461697158"><ele>239.0</ele><time>2026-05-01T14:02:25.999Z</time></trkpt><trkpt lat="43.98260402212143" lon="11.339417492632235"><ele>239.0</ele><time>2026-05-01T14:02:26.999Z</time></trkpt><trkpt lat="43.98247577930545" lon="11.339469888004356"><ele>239.0</ele><time>2026-05-01T14:02:27.999Z</time></trkpt><trkpt lat="43.9823442293778" lon="11.339507884267718"><ele>239.25</ele><time>2026-05-01T14:02:28.999Z</time></trkpt><trkpt lat="43.98220683993585" lon="11.339512542417438"><ele>239.5</ele><time>2026-05-01T14:02:29.999Z</time></trkpt><trkpt lat="43.98206717651621" lon="11.339485027114996"><ele>239.75</ele><time>2026-05-01T14:02:30.999Z</time></trkpt><trkpt lat="43.981928507566685" lon="11.339414066643343"><ele>240.0</ele><time>2026-05-01T14:02:31.999Z</time></trkpt><trkpt lat="43.98179740633451" lon="11.33932226768436"><ele>239.0</ele><time>2026-05-01T14:02:32.999Z</time></trkpt><trkpt lat="43.98166659385031" lon="11.339218978745311"><ele>238.0</ele><time>2026-05-01T14:02:33.999Z</time></trkpt><trkpt lat="43.981534002446686" lon="11.339112294321215"><ele>237.0</ele><time>2026-05-01T14:02:34.999Z</time></trkpt><trkpt lat="43.981400414352066" lon="11.339000608015873"><ele>237.0</ele><time>2026-05-01T14:02:35.999Z</time></trkpt><trkpt lat="43.98126915661273" lon="11.338883074831895"><ele>237.0</ele><time>2026-05-01T14:02:36.999Z</time></trkpt><trkpt lat="43.98113845170982" lon="11.338760214572533"><ele>237.0</ele><time>2026-05-01T14:02:37.998Z</time></trkpt><trkpt lat="43.98100746161193" lon="11.338635275231216"><ele>237.0</ele><time>2026-05-01T14:02:38.998Z</time></trkpt><trkpt lat="43.980879727662526" lon="11.338511061397812"><ele>237.0</ele><time>2026-05-01T14:02:39.998Z</time></trkpt><trkpt lat="43.98074836822432" lon="11.338387656206104"><ele>237.0</ele><time>2026-05-01T14:02:40.998Z</time></trkpt><trkpt lat="43.98061632305473" lon="11.338261767580473"><ele>236.66666666666669</ele><time>2026-05-01T14:02:41.998Z</time></trkpt><trkpt lat="43.98048539996722" lon="11.338141915570208"><ele>236.33333333333334</ele><time>2026-05-01T14:02:42.998Z</time></trkpt><trkpt lat="43.980355479691674" lon="11.338029067994148"><ele>236.0</ele><time>2026-05-01T14:02:43.998Z</time></trkpt><trkpt lat="43.98022336601744" lon="11.33792443943074"><ele>236.0</ele><time>2026-05-01T14:02:44.998Z</time></trkpt><trkpt lat="43.98008993506051" lon="11.33783177766811"><ele>236.0</ele><time>2026-05-01T14:02:45.998Z</time></trkpt><trkpt lat="43.97995658627563" lon="11.337746793993961"><ele>236.0</ele><time>2026-05-01T14:02:46.998Z</time></trkpt><trkpt lat="43.979827451145965" lon="11.337666711343608"><ele>236.0</ele><time>2026-05-01T14:02:47.998Z</time></trkpt><trkpt lat="43.979705924150046" lon="11.337586003549182"><ele>235.25</ele><time>2026-05-01T14:02:48.998Z</time></trkpt><trkpt lat="43.97958718813581" lon="11.337513490847222"><ele>234.5</ele><time>2026-05-01T14:02:49.998Z</time></trkpt><trkpt lat="43.979475514680004" lon="11.3374509007031"><ele>233.75</ele><time>2026-05-01T14:02:50.998Z</time></trkpt><trkpt lat="43.97937064226971" lon="11.337392200102476"><ele>233.0</ele><time>2026-05-01T14:02:51.999Z</time></trkpt><trkpt lat="43.979269680360105" lon="11.337330962949913"><ele>232.75</ele><time>2026-05-01T14:02:52.999Z</time></trkpt><trkpt lat="43.97916241702195" lon="11.337268619465476"><ele>232.5</ele><time>2026-05-01T14:02:53.999Z</time></trkpt><trkpt lat="43.979046429569415" lon="11.337207031598847"><ele>232.25</ele><time>2026-05-01T14:02:54.999Z</time></trkpt><trkpt lat="43.97892116543264" lon="11.337140206610473"><ele>232.0</ele><time>2026-05-01T14:02:55.999Z</time></trkpt><trkpt lat="43.97879266903859" lon="11.33706631049226"><ele>232.0</ele><time>2026-05-01T14:02:56.999Z</time></trkpt><trkpt lat="43.978658221731976" lon="11.336990300692122"><ele>232.0</ele><time>2026-05-01T14:02:57.999Z</time></trkpt><trkpt lat="43.9785192292185" lon="11.336911291842547"><ele>232.0</ele><time>2026-05-01T14:02:58.999Z</time></trkpt><trkpt lat="43.97837458310141" lon="11.336832709171498"><ele>231.66666666666666</ele><time>2026-05-01T14:02:59.999Z</time></trkpt><trkpt lat="43.97822402855735" lon="11.336750595634863"><ele>231.33333333333331</ele><time>2026-05-01T14:03:00.999Z</time></trkpt><trkpt lat="43.97806879504156" lon="11.33666609374779"><ele>231.0</ele><time>2026-05-01T14:03:01.999Z</time></trkpt><trkpt lat="43.97791311749713" lon="11.336579623186124"><ele>231.0</ele><time>2026-05-01T14:03:02.999Z</time></trkpt><trkpt lat="43.977755007815865" lon="11.33649552254465"><ele>231.0</ele><time>2026-05-01T14:03:03.999Z</time></trkpt><trkpt lat="43.977598605242385" lon="11.336406153447943"><ele>231.0</ele><time>2026-05-01T14:03:04.999Z</time></trkpt><trkpt lat="43.97744104597597" lon="11.336310837315237"><ele>231.0</ele><time>2026-05-01T14:03:05.999Z</time></trkpt><trkpt lat="43.97728480093864" lon="11.336215390675655"><ele>231.0</ele><time>2026-05-01T14:03:06.999Z</time></trkpt><trkpt lat="43.977126199982386" lon="11.336120782976716"><ele>231.0</ele><time>2026-05-01T14:03:07.999Z</time></trkpt><trkpt lat="43.976964894087466" lon="11.336026628233393"><ele>231.0</ele><time>2026-05-01T14:03:08.999Z</time></trkpt><trkpt lat="43.97680215184249" lon="11.335928161029821"><ele>231.0</ele><time>2026-05-01T14:03:09.999Z</time></trkpt><trkpt lat="43.97663844929916" lon="11.335827245474452"><ele>231.0</ele><time>2026-05-01T14:03:10.999Z</time></trkpt><trkpt lat="43.97647491836917" lon="11.335727875112529"><ele>231.0</ele><time>2026-05-01T14:03:11.999Z</time></trkpt><trkpt lat="43.976310928144024" lon="11.3356293545185"><ele>231.0</ele><time>2026-05-01T14:03:12.999Z</time></trkpt><trkpt lat="43.97614592332967" lon="11.335529059229097"><ele>231.0</ele><time>2026-05-01T14:03:13.999Z</time></trkpt><trkpt lat="43.97597928478016" lon="11.335429927620561"><ele>230.0</ele><time>2026-05-01T14:03:14.999Z</time></trkpt><trkpt lat="43.97581317576786" lon="11.335328720629324"><ele>229.0</ele><time>2026-05-01T14:03:15.999Z</time></trkpt><trkpt lat="43.97564483502564" lon="11.335223832310627"><ele>228.0</ele><time>2026-05-01T14:03:16.999Z</time></trkpt><trkpt lat="43.97547785622242" lon="11.335116181731497"><ele>228.0</ele><time>2026-05-01T14:03:17.999Z</time></trkpt><trkpt lat="43.975307226543" lon="11.335008765954031"><ele>228.0</ele><time>2026-05-01T14:03:18.999Z</time></trkpt><trkpt lat="43.975134384708355" lon="11.33490408948031"><ele>228.0</ele><time>2026-05-01T14:03:19.999Z</time></trkpt><trkpt lat="43.97496115990424" lon="11.334799059280536"><ele>227.33333333333331</ele><time>2026-05-01T14:03:20.999Z</time></trkpt><trkpt lat="43.974787352479545" lon="11.334694424818439"><ele>226.66666666666666</ele><time>2026-05-01T14:03:21.999Z</time></trkpt><trkpt lat="43.97461215452436" lon="11.334589101864637"><ele>226.0</ele><time>2026-05-01T14:03:22.999Z</time></trkpt><trkpt lat="43.97443562637236" lon="11.334486342287203"><ele>226.0</ele><time>2026-05-01T14:03:23.999Z</time></trkpt><trkpt lat="43.974257850825325" lon="11.334390635620014"><ele>226.0</ele><time>2026-05-01T14:03:24.999Z</time></trkpt><trkpt lat="43.97407872308935" lon="11.334301652958366"><ele>226.0</ele><time>2026-05-01T14:03:25.999Z</time></trkpt><trkpt lat="43.973899324495534" lon="11.334215185824737"><ele>225.66666666666666</ele><time>2026-05-01T14:03:26.999Z</time></trkpt><trkpt lat="43.97371824358476" lon="11.334129956513085"><ele>225.33333333333331</ele><time>2026-05-01T14:03:27.999Z</time></trkpt><trkpt lat="43.97353802965615" lon="11.33404636444648"><ele>225.0</ele><time>2026-05-01T14:03:28.999Z</time></trkpt><trkpt lat="43.97335838264275" lon="11.333961645177698"><ele>224.66666666666669</ele><time>2026-05-01T14:03:29.999Z</time></trkpt><trkpt lat="43.97317854307947" lon="11.33387592362046"><ele>224.33333333333334</ele><time>2026-05-01T14:03:30.999Z</time></trkpt><trkpt lat="43.97299958681866" lon="11.333787549254135"><ele>224.0</ele><time>2026-05-01T14:03:31.999Z</time></trkpt><trkpt lat="43.972820830078774" lon="11.333700016566093"><ele>224.0</ele><time>2026-05-01T14:03:32.999Z</time></trkpt><trkpt lat="43.97264296910516" lon="11.333614152479415"><ele>224.0</ele><time>2026-05-01T14:03:33.999Z</time></trkpt><trkpt lat="43.97246782866948" lon="11.333529351519719"><ele>224.0</ele><time>2026-05-01T14:03:34.999Z</time></trkpt><trkpt lat="43.97229569825748" lon="11.3334452210205"><ele>222.66666666666669</ele><time>2026-05-01T14:03:35.999Z</time></trkpt><trkpt lat="43.972124239639314" lon="11.333359680502731"><ele>221.33333333333331</ele><time>2026-05-01T14:03:36.999Z</time></trkpt><trkpt lat="43.97195394299736" lon="11.333273941814403"><ele>220.0</ele><time>2026-05-01T14:03:37.999Z</time></trkpt><trkpt lat="43.971782184927314" lon="11.33318809146057"><ele>220.0</ele><time>2026-05-01T14:03:38.999Z</time></trkpt><trkpt lat="43.97161031122927" lon="11.333101468641592"><ele>220.0</ele><time>2026-05-01T14:03:39.999Z</time></trkpt><trkpt lat="43.97143720464676" lon="11.33301667432557"><ele>220.0</ele><time>2026-05-01T14:03:40.999Z</time></trkpt><trkpt lat="43.97126335942829" lon="11.332930540203861"><ele>219.66666666666666</ele><time>2026-05-01T14:03:41.999Z</time></trkpt><trkpt lat="43.97109170584083" lon="11.332846295274088"><ele>219.33333333333331</ele><time>2026-05-01T14:03:42.999Z</time></trkpt><trkpt lat="43.970923088905785" lon="11.332762260343673"><ele>219.0</ele><time>2026-05-01T14:03:43.999Z</time></trkpt><trkpt lat="43.97076264304402" lon="11.332684794395048"><ele>218.66666666666669</ele><time>2026-05-01T14:03:44.999Z</time></trkpt><trkpt lat="43.97060994916768" lon="11.332611773277122"><ele>218.33333333333334</ele><time>2026-05-01T14:03:45.999Z</time></trkpt><trkpt lat="43.97046524488785" lon="11.332537559282315"><ele>218.0</ele><time>2026-05-01T14:03:46.999Z</time></trkpt><trkpt lat="43.97033338548992" lon="11.332454168236614"><ele>218.0</ele><time>2026-05-01T14:03:47.999Z</time></trkpt><trkpt lat="43.97021595563527" lon="11.332352762083685"><ele>218.0</ele><time>2026-05-01T14:03:48.999Z</time></trkpt><trkpt lat="43.97011834166932" lon="11.33223477355569"><ele>218.0</ele><time>2026-05-01T14:03:49.999Z</time></trkpt><trkpt lat="43.97003004501945" lon="11.332111156739433"><ele>218.0</ele><time>2026-05-01T14:03:50.999Z</time></trkpt><trkpt lat="43.969961595133334" lon="11.331962507765867"><ele>218.0</ele><time>2026-05-01T14:03:51.999Z</time></trkpt><trkpt lat="43.96993161010959" lon="11.331792650930542"><ele>218.0</ele><time>2026-05-01T14:03:52.999Z</time></trkpt><trkpt lat="43.96995096543079" lon="11.331610742273444"><ele>218.0</ele><time>2026-05-01T14:03:53.999Z</time></trkpt><trkpt lat="43.97000394212156" lon="11.331418287187514"><ele>218.0</ele><time>2026-05-01T14:03:54.999Z</time></trkpt><trkpt lat="43.97006149599435" lon="11.331198767261835"><ele>218.0</ele><time>2026-05-01T14:03:55.999Z</time></trkpt><trkpt lat="43.97011671248003" lon="11.330976157118442"><ele>218.0</ele><time>2026-05-01T14:03:56.999Z</time></trkpt><trkpt lat="43.97015728290448" lon="11.33081663497178"><ele>218.0</ele><time>2026-05-01T14:03:57.999Z</time></trkpt><trkpt lat="43.97021458881394" lon="11.330596758015835"><ele>217.0</ele><time>2026-05-01T14:03:59Z</time></trkpt><trkpt lat="43.97027067478995" lon="11.330374461303082"><ele>216.0</ele><time>2026-05-01T14:04:00Z</time></trkpt><trkpt lat="43.97032711710606" lon="11.330148351094692"><ele>215.0</ele><time>2026-05-01T14:04:01Z</time></trkpt><trkpt lat="43.97037303464649" lon="11.329912995241148"><ele>213.66666666666669</ele><time>2026-05-01T14:04:02Z</time></trkpt><trkpt lat="43.970407055292306" lon="11.329666953266909"><ele>212.33333333333331</ele><time>2026-05-01T14:04:03Z</time></trkpt><trkpt lat="43.97042562892939" lon="11.329413652271933"><ele>211.0</ele><time>2026-05-01T14:04:04Z</time></trkpt><trkpt lat="43.970431129131" lon="11.3291527679126"><ele>209.66666666666666</ele><time>2026-05-01T14:04:05Z</time></trkpt><trkpt lat="43.97043516328771" lon="11.328882651558173"><ele>208.33333333333331</ele><time>2026-05-01T14:04:06Z</time></trkpt><trkpt lat="43.97043474334868" lon="11.328610950476351"><ele>207.0</ele><time>2026-05-01T14:04:07Z</time></trkpt><trkpt lat="43.97044254568354" lon="11.328337805930673"><ele>207.0</ele><time>2026-05-01T14:04:08Z</time></trkpt><trkpt lat="43.970447945635186" lon="11.328051291031102"><ele>207.0</ele><time>2026-05-01T14:04:09Z</time></trkpt><trkpt lat="43.97045280967795" lon="11.327768724422835"><ele>207.0</ele><time>2026-05-01T14:04:10Z</time></trkpt><trkpt lat="43.9704567260365" lon="11.327479898945542"><ele>207.0</ele><time>2026-05-01T14:04:11Z</time></trkpt><trkpt lat="43.970462101976885" lon="11.327182206420547"><ele>207.0</ele><time>2026-05-01T14:04:12Z</time></trkpt><trkpt lat="43.970462332054815" lon="11.326886278178558"><ele>207.0</ele><time>2026-05-01T14:04:13Z</time></trkpt><trkpt lat="43.9704636241336" lon="11.326581979807862"><ele>205.66666666666669</ele><time>2026-05-01T14:04:14Z</time></trkpt><trkpt lat="43.97046850458426" lon="11.326271499155428"><ele>204.33333333333334</ele><time>2026-05-01T14:04:15Z</time></trkpt><trkpt lat="43.97047127751739" lon="11.325960586580427"><ele>203.0</ele><time>2026-05-01T14:04:16Z</time></trkpt><trkpt lat="43.97047451381878" lon="11.325645782766207"><ele>203.0</ele><time>2026-05-01T14:04:17Z</time></trkpt><trkpt lat="43.9704810214678" lon="11.325332092704828"><ele>203.0</ele><time>2026-05-01T14:04:18Z</time></trkpt><trkpt lat="43.97048252405214" lon="11.325028021978248"><ele>203.0</ele><time>2026-05-01T14:04:19Z</time></trkpt><trkpt lat="43.97048105562238" lon="11.32472702219163"><ele>203.0</ele><time>2026-05-01T14:04:20Z</time></trkpt><trkpt lat="43.97048372892437" lon="11.324431728887564"><ele>203.0</ele><time>2026-05-01T14:04:21Z</time></trkpt><trkpt lat="43.97048945168263" lon="11.324138938605667"><ele>203.0</ele><time>2026-05-01T14:04:22Z</time></trkpt><trkpt lat="43.97049306204225" lon="11.323846128242526"><ele>203.33333333333334</ele><time>2026-05-01T14:04:23Z</time></trkpt><trkpt lat="43.97049543227814" lon="11.323555106567992"><ele>203.66666666666669</ele><time>2026-05-01T14:04:24Z</time></trkpt><trkpt lat="43.97048893994729" lon="11.32326558516204"><ele>204.0</ele><time>2026-05-01T14:04:25Z</time></trkpt><trkpt lat="43.97046950829248" lon="11.322977517324656"><ele>204.0</ele><time>2026-05-01T14:04:26Z</time></trkpt><trkpt lat="43.97043619381416" lon="11.322692732332056"><ele>204.0</ele><time>2026-05-01T14:04:27Z</time></trkpt><trkpt lat="43.97039215955738" lon="11.322410743084136"><ele>204.0</ele><time>2026-05-01T14:04:28Z</time></trkpt><trkpt lat="43.970335795206815" lon="11.322131975149151"><ele>204.0</ele><time>2026-05-01T14:04:29Z</time></trkpt><trkpt lat="43.97026981807026" lon="11.321858181759003"><ele>204.0</ele><time>2026-05-01T14:04:30Z</time></trkpt><trkpt lat="43.970190094247066" lon="11.321589652642098"><ele>204.0</ele><time>2026-05-01T14:04:31Z</time></trkpt><trkpt lat="43.97010154780581" lon="11.32132822216328"><ele>203.66666666666669</ele><time>2026-05-01T14:04:32Z</time></trkpt><trkpt lat="43.97000774054131" lon="11.321070098807485"><ele>203.33333333333334</ele><time>2026-05-01T14:04:33Z</time></trkpt><trkpt lat="43.969911452532656" lon="11.320814091680838"><ele>203.0</ele><time>2026-05-01T14:04:34Z</time></trkpt><trkpt lat="43.969815819579225" lon="11.320555603680155"><ele>204.0</ele><time>2026-05-01T14:04:35Z</time></trkpt><trkpt lat="43.969724980274044" lon="11.3202979955167"><ele>205.0</ele><time>2026-05-01T14:04:36Z</time></trkpt><trkpt lat="43.96963394719667" lon="11.320039120753703"><ele>206.0</ele><time>2026-05-01T14:04:37Z</time></trkpt><trkpt lat="43.96954051920851" lon="11.319787140692476"><ele>206.0</ele><time>2026-05-01T14:04:38Z</time></trkpt><trkpt lat="43.96944924681477" lon="11.319543407728883"><ele>206.0</ele><time>2026-05-01T14:04:39Z</time></trkpt><trkpt lat="43.9693678741207" lon="11.31931429142128"><ele>206.0</ele><time>2026-05-01T14:04:40Z</time></trkpt><trkpt lat="43.96929138870458" lon="11.319100499570112"><ele>206.0</ele><time>2026-05-01T14:04:40.999Z</time></trkpt><trkpt lat="43.9692156148848" lon="11.318901640638067"><ele>206.0</ele><time>2026-05-01T14:04:41.999Z</time></trkpt><trkpt lat="43.96914097083286" lon="11.318694011781156"><ele>206.0</ele><time>2026-05-01T14:04:42.999Z</time></trkpt><trkpt lat="43.96906233570284" lon="11.318494183946243"><ele>206.33333333333334</ele><time>2026-05-01T14:04:43.999Z</time></trkpt><trkpt lat="43.968982810614506" lon="11.318284851199783"><ele>206.66666666666669</ele><time>2026-05-01T14:04:44.999Z</time></trkpt><trkpt lat="43.96890394325677" lon="11.318069675195526"><ele>207.0</ele><time>2026-05-01T14:04:45.999Z</time></trkpt><trkpt lat="43.96882520064199" lon="11.317856424744205"><ele>207.0</ele><time>2026-05-01T14:04:46.999Z</time></trkpt><trkpt lat="43.9687446234768" lon="11.317640808422379"><ele>207.0</ele><time>2026-05-01T14:04:47.999Z</time></trkpt><trkpt lat="43.96866337794108" lon="11.317426843620572"><ele>207.0</ele><time>2026-05-01T14:04:48.999Z</time></trkpt><trkpt lat="43.96858041356925" lon="11.317206566783943"><ele>207.0</ele><time>2026-05-01T14:04:49.999Z</time></trkpt><trkpt lat="43.96849640256707" lon="11.316985783865844"><ele>207.0</ele><time>2026-05-01T14:04:50.999Z</time></trkpt><trkpt lat="43.968414586265105" lon="11.316763157868765"><ele>207.0</ele><time>2026-05-01T14:04:51.999Z</time></trkpt><trkpt lat="43.9683299625487" lon="11.31653785998348"><ele>208.0</ele><time>2026-05-01T14:04:52.999Z</time></trkpt><trkpt lat="43.96824568034395" lon="11.316307390240214"><ele>209.0</ele><time>2026-05-01T14:04:53.999Z</time></trkpt><trkpt lat="43.96816328766564" lon="11.316075077733517"><ele>210.0</ele><time>2026-05-01T14:04:54.999Z</time></trkpt><trkpt lat="43.96807790023712" lon="11.315842696339665"><ele>210.0</ele><time>2026-05-01T14:04:55.999Z</time></trkpt><trkpt lat="43.96799333597403" lon="11.315610428865572"><ele>210.0</ele><time>2026-05-01T14:04:56.999Z</time></trkpt><trkpt lat="43.967906242713326" lon="11.31537628982519"><ele>210.0</ele><time>2026-05-01T14:04:58Z</time></trkpt><trkpt lat="43.96781904489796" lon="11.315137275162348"><ele>210.66666666666669</ele><time>2026-05-01T14:04:59Z</time></trkpt><trkpt lat="43.96773075424041" lon="11.314899723407738"><ele>211.33333333333334</ele><time>2026-05-01T14:05:00Z</time></trkpt><trkpt lat="43.96763964842441" lon="11.314655133049325"><ele>212.0</ele><time>2026-05-01T14:05:01Z</time></trkpt><trkpt lat="43.96754695906654" lon="11.314407107782705"><ele>212.0</ele><time>2026-05-01T14:05:02Z</time></trkpt><trkpt lat="43.96744970673538" lon="11.314153869293209"><ele>212.0</ele><time>2026-05-01T14:05:03Z</time></trkpt><trkpt lat="43.96735286432648" lon="11.313899224411088"><ele>212.0</ele><time>2026-05-01T14:05:04Z</time></trkpt><trkpt lat="43.967257308916" lon="11.313639486461595"><ele>212.0</ele><time>2026-05-01T14:05:05Z</time></trkpt><trkpt lat="43.96716224260329" lon="11.313375932726442"><ele>212.0</ele><time>2026-05-01T14:05:06Z</time></trkpt><trkpt lat="43.96706595238093" lon="11.31311190996123"><ele>212.0</ele><time>2026-05-01T14:05:07Z</time></trkpt><trkpt lat="43.96697314115184" lon="11.31285128888595"><ele>212.0</ele><time>2026-05-01T14:05:08Z</time></trkpt><trkpt lat="43.966879867771" lon="11.312591615841654"><ele>212.0</ele><time>2026-05-01T14:05:09Z</time></trkpt><trkpt lat="43.9667837392631" lon="11.312340921089218"><ele>212.0</ele><time>2026-05-01T14:05:10Z</time></trkpt><trkpt lat="43.966670429855824" lon="11.31210524697373"><ele>212.0</ele><time>2026-05-01T14:05:11Z</time></trkpt><trkpt lat="43.9665452046245" lon="11.31188226091895"><ele>212.0</ele><time>2026-05-01T14:05:12Z</time></trkpt><trkpt lat="43.96640176889195" lon="11.31167356024637"><ele>212.0</ele><time>2026-05-01T14:05:13Z</time></trkpt><trkpt lat="43.96624557671912" lon="11.311486609801618"><ele>212.0</ele><time>2026-05-01T14:05:14Z</time></trkpt><trkpt lat="43.96607243405721" lon="11.311328757877455"><ele>212.0</ele><time>2026-05-01T14:05:15Z</time></trkpt><trkpt lat="43.965890089350566" lon="11.311188051129456"><ele>212.0</ele><time>2026-05-01T14:05:16Z</time></trkpt><trkpt lat="43.965695334247215" lon="11.311075585627835"><ele>212.0</ele><time>2026-05-01T14:05:17Z</time></trkpt><trkpt lat="43.96549547766125" lon="11.310982658436265"><ele>212.0</ele><time>2026-05-01T14:05:18Z</time></trkpt><trkpt lat="43.96529272301778" lon="11.310907475436462"><ele>212.0</ele><time>2026-05-01T14:05:19Z</time></trkpt><trkpt lat="43.96509735550357" lon="11.310842861898557"><ele>211.33333333333334</ele><time>2026-05-01T14:05:20Z</time></trkpt><trkpt lat="43.96491215630665" lon="11.310780081556901"><ele>210.66666666666669</ele><time>2026-05-01T14:05:21Z</time></trkpt><trkpt lat="43.964735522389965" lon="11.31071726647978"><ele>210.0</ele><time>2026-05-01T14:05:22Z</time></trkpt><trkpt lat="43.964567386492874" lon="11.310656840417211"><ele>210.0</ele><time>2026-05-01T14:05:23Z</time></trkpt><trkpt lat="43.964402870145086" lon="11.310596869538772"><ele>210.0</ele><time>2026-05-01T14:05:24Z</time></trkpt><trkpt lat="43.964239007721645" lon="11.310533080141342"><ele>210.0</ele><time>2026-05-01T14:05:25Z</time></trkpt><trkpt lat="43.964076790294286" lon="11.310453862310732"><ele>210.66666666666669</ele><time>2026-05-01T14:05:26Z</time></trkpt><trkpt lat="43.96392043803019" lon="11.310353234405369"><ele>211.33333333333334</ele><time>2026-05-01T14:05:27Z</time></trkpt><trkpt lat="43.96377502327783" lon="11.310233922006613"><ele>212.0</ele><time>2026-05-01T14:05:28Z</time></trkpt><trkpt lat="43.96363800233177" lon="11.310096950042961"><ele>212.0</ele><time>2026-05-01T14:05:29Z</time></trkpt><trkpt lat="43.96350809684125" lon="11.309946121524321"><ele>212.0</ele><time>2026-05-01T14:05:30Z</time></trkpt><trkpt lat="43.9633819234205" lon="11.309785990877844"><ele>212.0</ele><time>2026-05-01T14:05:31Z</time></trkpt><trkpt lat="43.96326444090585" lon="11.30961115639056"><ele>213.66666666666669</ele><time>2026-05-01T14:05:32Z</time></trkpt><trkpt lat="43.96315419824723" lon="11.309414308630371"><ele>215.33333333333331</ele><time>2026-05-01T14:05:33Z</time></trkpt><trkpt lat="43.96305635966613" lon="11.30919814432035"><ele>217.0</ele><time>2026-05-01T14:05:34Z</time></trkpt><trkpt lat="43.96296606152537" lon="11.308973106711377"><ele>215.0</ele><time>2026-05-01T14:05:35Z</time></trkpt><trkpt lat="43.96288498323746" lon="11.308736675635686"><ele>213.0</ele><time>2026-05-01T14:05:36Z</time></trkpt><trkpt lat="43.96281415757661" lon="11.308496980459257"><ele>211.0</ele><time>2026-05-01T14:05:37Z</time></trkpt><trkpt lat="43.9627414863041" lon="11.308254087723432"><ele>210.33333333333331</ele><time>2026-05-01T14:05:38Z</time></trkpt><trkpt lat="43.96266641927596" lon="11.308012302351566"><ele>209.66666666666669</ele><time>2026-05-01T14:05:39Z</time></trkpt><trkpt lat="43.962591740748884" lon="11.307771867959161"><ele>209.0</ele><time>2026-05-01T14:05:40Z</time></trkpt><trkpt lat="43.96252129648993" lon="11.307540232417038"><ele>209.66666666666669</ele><time>2026-05-01T14:05:41Z</time></trkpt><trkpt lat="43.96244945335607" lon="11.307314160147522"><ele>210.33333333333331</ele><time>2026-05-01T14:05:42Z</time></trkpt><trkpt lat="43.962373579415384" lon="11.307090796446573"><ele>211.0</ele><time>2026-05-01T14:05:43Z</time></trkpt><trkpt lat="43.9623004756702" lon="11.306865074933853"><ele>211.0</ele><time>2026-05-01T14:05:44Z</time></trkpt><trkpt lat="43.962229557744024" lon="11.306638278268935"><ele>211.0</ele><time>2026-05-01T14:05:45Z</time></trkpt><trkpt lat="43.962158372331864" lon="11.30640778431638"><ele>211.0</ele><time>2026-05-01T14:05:46Z</time></trkpt><trkpt lat="43.9620885883758" lon="11.306174074094686"><ele>211.0</ele><time>2026-05-01T14:05:47Z</time></trkpt><trkpt lat="43.962022276988385" lon="11.305942420184202"><ele>211.0</ele><time>2026-05-01T14:05:48Z</time></trkpt><trkpt lat="43.9619547066105" lon="11.305714099678866"><ele>211.0</ele><time>2026-05-01T14:05:49Z</time></trkpt><trkpt lat="43.961883572633376" lon="11.305491566686314"><ele>211.0</ele><time>2026-05-01T14:05:50Z</time></trkpt><trkpt lat="43.96181232565466" lon="11.305273557292969"><ele>211.0</ele><time>2026-05-01T14:05:51Z</time></trkpt><trkpt lat="43.96174167420854" lon="11.305055597845534"><ele>211.0</ele><time>2026-05-01T14:05:52Z</time></trkpt><trkpt lat="43.96167334073042" lon="11.304845295251125"><ele>211.25</ele><time>2026-05-01T14:05:53Z</time></trkpt><trkpt lat="43.96161003777258" lon="11.30464413228895"><ele>211.5</ele><time>2026-05-01T14:05:54Z</time></trkpt><trkpt lat="43.96155093139623" lon="11.304453941646967"><ele>211.75</ele><time>2026-05-01T14:05:55Z</time></trkpt><trkpt lat="43.961499883474616" lon="11.304274470981571"><ele>212.0</ele><time>2026-05-01T14:05:56Z</time></trkpt><trkpt lat="43.961459586927326" lon="11.304098602955243"><ele>212.0</ele><time>2026-05-01T14:05:57Z</time></trkpt><trkpt lat="43.96143245450368" lon="11.303924457463852"><ele>212.0</ele><time>2026-05-01T14:05:58Z</time></trkpt><trkpt lat="43.96142956412481" lon="11.303746433094647"><ele>212.0</ele><time>2026-05-01T14:05:59Z</time></trkpt><trkpt lat="43.96145101163556" lon="11.303569827794618"><ele>212.0</ele><time>2026-05-01T14:06:00Z</time></trkpt><trkpt lat="43.96150265636546" lon="11.303394344718527"><ele>212.25</ele><time>2026-05-01T14:06:01Z</time></trkpt><trkpt lat="43.961576403907934" lon="11.303221740200057"><ele>212.5</ele><time>2026-05-01T14:06:02Z</time></trkpt><trkpt lat="43.96166153448757" lon="11.303053364437574"><ele>212.75</ele><time>2026-05-01T14:06:03Z</time></trkpt><trkpt lat="43.961746193340744" lon="11.30288476879786"><ele>213.0</ele><time>2026-05-01T14:06:04Z</time></trkpt><trkpt lat="43.9618276620118" lon="11.302709403503691"><ele>212.5</ele><time>2026-05-01T14:06:05Z</time></trkpt><trkpt lat="43.96190650579919" lon="11.302532635209682"><ele>212.0</ele><time>2026-05-01T14:06:06Z</time></trkpt><trkpt lat="43.96198528691703" lon="11.3023562936829"><ele>211.5</ele><time>2026-05-01T14:06:07Z</time></trkpt><trkpt lat="43.962073987106606" lon="11.302194267081696"><ele>211.0</ele><time>2026-05-01T14:06:08Z</time></trkpt><trkpt lat="43.962176620558914" lon="11.302062161839164"><ele>212.0</ele><time>2026-05-01T14:06:09Z</time></trkpt><trkpt lat="43.96229746193299" lon="11.3019668673476"><ele>213.0</ele><time>2026-05-01T14:06:10Z</time></trkpt><trkpt lat="43.96242847348305" lon="11.301907726303213"><ele>214.0</ele><time>2026-05-01T14:06:11Z</time></trkpt><trkpt lat="43.962566793354405" lon="11.301890983840238"><ele>215.0</ele><time>2026-05-01T14:06:12Z</time></trkpt><trkpt lat="43.96270437232232" lon="11.301878803864463"><ele>215.0</ele><time>2026-05-01T14:06:13Z</time></trkpt><trkpt lat="43.96284456227224" lon="11.301871741404723"><ele>215.0</ele><time>2026-05-01T14:06:14Z</time></trkpt><trkpt lat="43.962984485072326" lon="11.301842249306363"><ele>215.0</ele><time>2026-05-01T14:06:15Z</time></trkpt><trkpt lat="43.96312325472361" lon="11.301777468032093"><ele>215.0</ele><time>2026-05-01T14:06:16Z</time></trkpt><trkpt lat="43.96325347225532" lon="11.301677447777362"><ele>215.0</ele><time>2026-05-01T14:06:17Z</time></trkpt><trkpt lat="43.96337350252747" lon="11.301543062809621"><ele>215.0</ele><time>2026-05-01T14:06:18Z</time></trkpt><trkpt lat="43.96348274968058" lon="11.301390035143239"><ele>215.0</ele><time>2026-05-01T14:06:19Z</time></trkpt><trkpt lat="43.96358697700487" lon="11.301239474684369"><ele>215.0</ele><time>2026-05-01T14:06:20Z</time></trkpt><trkpt lat="43.963694347469534" lon="11.301099476542513"><ele>215.0</ele><time>2026-05-01T14:06:21Z</time></trkpt><trkpt lat="43.963805343869076" lon="11.300967432015396"><ele>215.0</ele><time>2026-05-01T14:06:22Z</time></trkpt><trkpt lat="43.963915716902214" lon="11.300835178885578"><ele>215.0</ele><time>2026-05-01T14:06:23Z</time></trkpt><trkpt lat="43.964023504829946" lon="11.300700741332376"><ele>215.0</ele><time>2026-05-01T14:06:24Z</time></trkpt><trkpt lat="43.96413052983165" lon="11.300566091120459"><ele>215.0</ele><time>2026-05-01T14:06:25Z</time></trkpt><trkpt lat="43.96423329746836" lon="11.300436587180696"><ele>215.0</ele><time>2026-05-01T14:06:26Z</time></trkpt><trkpt lat="43.964331277850995" lon="11.300310918661163"><ele>215.0</ele><time>2026-05-01T14:06:27Z</time></trkpt><trkpt lat="43.964425252529274" lon="11.30018887090745"><ele>215.0</ele><time>2026-05-01T14:06:28Z</time></trkpt><trkpt lat="43.964515273516014" lon="11.300075281472228"><ele>215.0</ele><time>2026-05-01T14:06:29Z</time></trkpt><trkpt lat="43.964603771695984" lon="11.29996275788381"><ele>215.0</ele><time>2026-05-01T14:06:30Z</time></trkpt><trkpt lat="43.96468865803671" lon="11.299855663264207"><ele>215.0</ele><time>2026-05-01T14:06:31Z</time></trkpt><trkpt lat="43.96477059889758" lon="11.299742778192112"><ele>215.4</ele><time>2026-05-01T14:06:32Z</time></trkpt><trkpt lat="43.96484453843621" lon="11.299631023086436"><ele>215.8</ele><time>2026-05-01T14:06:33Z</time></trkpt><trkpt lat="43.964905481000045" lon="11.29950653811958"><ele>216.2</ele><time>2026-05-01T14:06:34Z</time></trkpt><trkpt lat="43.96494965230412" lon="11.29936717087702"><ele>216.6</ele><time>2026-05-01T14:06:35Z</time></trkpt><trkpt lat="43.9649750019107" lon="11.299212379893449"><ele>217.0</ele><time>2026-05-01T14:06:36Z</time></trkpt><trkpt lat="43.96497939262525" lon="11.299050970501792"><ele>217.66666666666666</ele><time>2026-05-01T14:06:37Z</time></trkpt><trkpt lat="43.96496828465805" lon="11.298868403602214"><ele>218.33333333333331</ele><time>2026-05-01T14:06:38Z</time></trkpt><trkpt lat="43.96496163433661" lon="11.298649659888826"><ele>219.0</ele><time>2026-05-01T14:06:39Z</time></trkpt><trkpt lat="43.96494533127858" lon="11.29838961915425"><ele>219.0</ele><time>2026-05-01T14:06:39.999Z</time></trkpt><trkpt lat="43.96492968268319" lon="11.298124326146649"><ele>219.0</ele><time>2026-05-01T14:06:40.999Z</time></trkpt><trkpt lat="43.96491179233958" lon="11.29782102846169"><ele>219.0</ele><time>2026-05-01T14:06:41.999Z</time></trkpt><trkpt lat="43.96489337871315" lon="11.297508859462841"><ele>221.0</ele><time>2026-05-01T14:06:42.999Z</time></trkpt><trkpt lat="43.964875712509794" lon="11.297209361668648"><ele>223.0</ele><time>2026-05-01T14:06:43.999Z</time></trkpt><trkpt lat="43.964859382042256" lon="11.296932508789851"><ele>225.0</ele><time>2026-05-01T14:06:44.999Z</time></trkpt><trkpt lat="43.96482955290089" lon="11.296684973937838"><ele>225.0</ele><time>2026-05-01T14:06:45.999Z</time></trkpt><trkpt lat="43.96483717784324" lon="11.296457189288779"><ele>225.0</ele><time>2026-05-01T14:06:46.999Z</time></trkpt><trkpt lat="43.964870000315244" lon="11.296267904062912"><ele>225.0</ele><time>2026-05-01T14:06:47.999Z</time></trkpt><trkpt lat="43.96493385148077" lon="11.296112000670218"><ele>225.0</ele><time>2026-05-01T14:06:48.999Z</time></trkpt><trkpt lat="43.96502863051673" lon="11.296002256077545"><ele>225.25</ele><time>2026-05-01T14:06:49.999Z</time></trkpt><trkpt lat="43.96512959249901" lon="11.295910395734492"><ele>225.5</ele><time>2026-05-01T14:06:50.999Z</time></trkpt><trkpt lat="43.96522689921115" lon="11.29580811278242"><ele>225.75</ele><time>2026-05-01T14:06:51.999Z</time></trkpt><trkpt lat="43.96531930832413" lon="11.295711849238636"><ele>226.0</ele><time>2026-05-01T14:06:52.999Z</time></trkpt><trkpt lat="43.96541143909634" lon="11.295612050171156"><ele>226.5</ele><time>2026-05-01T14:06:53.999Z</time></trkpt><trkpt lat="43.9654997678073" lon="11.295518328161497"><ele>227.0</ele><time>2026-05-01T14:06:54.999Z</time></trkpt><trkpt lat="43.96558780445679" lon="11.295430825807866"><ele>227.5</ele><time>2026-05-01T14:06:55.999Z</time></trkpt><trkpt lat="43.965686635409625" lon="11.29533530305961"><ele>228.0</ele><time>2026-05-01T14:06:56.999Z</time></trkpt><trkpt lat="43.96578773173764" lon="11.295247512695513"><ele>227.75</ele><time>2026-05-01T14:06:57.999Z</time></trkpt><trkpt lat="43.96588659269454" lon="11.295169159417513"><ele>227.5</ele><time>2026-05-01T14:06:58.999Z</time></trkpt><trkpt lat="43.96598599720596" lon="11.295086415978416"><ele>227.25</ele><time>2026-05-01T14:06:59.999Z</time></trkpt><trkpt lat="43.96609196632926" lon="11.294990718530718"><ele>227.0</ele><time>2026-05-01T14:07:00.999Z</time></trkpt><trkpt lat="43.96620642125378" lon="11.29488350906443"><ele>227.0</ele><time>2026-05-01T14:07:01.999Z</time></trkpt><trkpt lat="43.96633479225701" lon="11.29475035511458"><ele>227.0</ele><time>2026-05-01T14:07:03Z</time></trkpt><trkpt lat="43.9664983958395" lon="11.294621969612196"><ele>227.0</ele><time>2026-05-01T14:07:04Z</time></trkpt><trkpt lat="43.96667658420258" lon="11.294464249870092"><ele>225.5</ele><time>2026-05-01T14:07:05Z</time></trkpt><trkpt lat="43.96685853475354" lon="11.294283058452717"><ele>224.0</ele><time>2026-05-01T14:07:06Z</time></trkpt><trkpt lat="43.9670651348712" lon="11.2941145397092"><ele>224.0</ele><time>2026-05-01T14:07:07Z</time></trkpt><trkpt lat="43.96723857638207" lon="11.293967512440515"><ele>224.0</ele><time>2026-05-01T14:07:08Z</time></trkpt><trkpt lat="43.967436528050506" lon="11.293802436585898"><ele>224.0</ele><time>2026-05-01T14:07:09Z</time></trkpt><trkpt lat="43.96763285775756" lon="11.293634496462497"><ele>224.5</ele><time>2026-05-01T14:07:10Z</time></trkpt><trkpt lat="43.96782346611036" lon="11.293463218491976"><ele>225.0</ele><time>2026-05-01T14:07:11Z</time></trkpt><trkpt lat="43.968008770523205" lon="11.29328909232938"><ele>225.0</ele><time>2026-05-01T14:07:12Z</time></trkpt><trkpt lat="43.9681946640533" lon="11.293128900240687"><ele>225.0</ele><time>2026-05-01T14:07:13Z</time></trkpt><trkpt lat="43.96837438921862" lon="11.29297203765584"><ele>225.0</ele><time>2026-05-01T14:07:14Z</time></trkpt><trkpt lat="43.96855366517686" lon="11.292810744898052"><ele>224.66666666666669</ele><time>2026-05-01T14:07:15Z</time></trkpt><trkpt lat="43.968730361058086" lon="11.29265290008526"><ele>224.33333333333334</ele><time>2026-05-01T14:07:16Z</time></trkpt><trkpt lat="43.96890884592383" lon="11.292492905683071"><ele>224.0</ele><time>2026-05-01T14:07:17Z</time></trkpt><trkpt lat="43.9690867706173" lon="11.292334105451562"><ele>224.0</ele><time>2026-05-01T14:07:18Z</time></trkpt><trkpt lat="43.96926205363901" lon="11.292175859201347"><ele>224.0</ele><time>2026-05-01T14:07:19Z</time></trkpt><trkpt lat="43.96943389370015" lon="11.292020113498284"><ele>224.0</ele><time>2026-05-01T14:07:20Z</time></trkpt><trkpt lat="43.96960424462906" lon="11.291866836066712"><ele>224.0</ele><time>2026-05-01T14:07:21Z</time></trkpt><trkpt lat="43.969774769444" lon="11.29171821750729"><ele>224.0</ele><time>2026-05-01T14:07:22Z</time></trkpt><trkpt lat="43.96994324379639" lon="11.291570037743888"><ele>224.0</ele><time>2026-05-01T14:07:23Z</time></trkpt><trkpt lat="43.97010942325325" lon="11.291418364340052"><ele>223.66666666666669</ele><time>2026-05-01T14:07:24Z</time></trkpt><trkpt lat="43.97028460530358" lon="11.291269461479697"><ele>223.33333333333331</ele><time>2026-05-01T14:07:25Z</time></trkpt><trkpt lat="43.97045538413617" lon="11.291112257694605"><ele>223.0</ele><time>2026-05-01T14:07:26Z</time></trkpt><trkpt lat="43.970628773551816" lon="11.290956002149803"><ele>223.0</ele><time>2026-05-01T14:07:27Z</time></trkpt><trkpt lat="43.97080192272544" lon="11.29079980300873"><ele>223.0</ele><time>2026-05-01T14:07:28Z</time></trkpt><trkpt lat="43.97097451364885" lon="11.290641221959323"><ele>223.0</ele><time>2026-05-01T14:07:29Z</time></trkpt><trkpt lat="43.97114967171767" lon="11.290489088886266"><ele>222.66666666666666</ele><time>2026-05-01T14:07:30Z</time></trkpt><trkpt lat="43.97132386255234" lon="11.29033993201973"><ele>222.33333333333331</ele><time>2026-05-01T14:07:31Z</time></trkpt><trkpt lat="43.971493132953896" lon="11.290189490464236"><ele>222.0</ele><time>2026-05-01T14:07:32Z</time></trkpt><trkpt lat="43.971665404970416" lon="11.29003810010283"><ele>222.0</ele><time>2026-05-01T14:07:33Z</time></trkpt><trkpt lat="43.97183203754506" lon="11.289890321934942"><ele>222.0</ele><time>2026-05-01T14:07:34Z</time></trkpt><trkpt lat="43.97199589628813" lon="11.289746400609113"><ele>222.0</ele><time>2026-05-01T14:07:35Z</time></trkpt><trkpt lat="43.972161850845055" lon="11.289607412006603"><ele>222.0</ele><time>2026-05-01T14:07:36Z</time></trkpt><trkpt lat="43.972317408208724" lon="11.289468352763283"><ele>222.0</ele><time>2026-05-01T14:07:37Z</time></trkpt><trkpt lat="43.97246123660999" lon="11.28933855700547"><ele>222.0</ele><time>2026-05-01T14:07:38Z</time></trkpt><trkpt lat="43.97259514668924" lon="11.289218510763659"><ele>222.0</ele><time>2026-05-01T14:07:39Z</time></trkpt><trkpt lat="43.97271853727088" lon="11.289119447027762"><ele>222.0</ele><time>2026-05-01T14:07:40Z</time></trkpt><trkpt lat="43.97283292468392" lon="11.289069759108116"><ele>222.0</ele><time>2026-05-01T14:07:41Z</time></trkpt><trkpt lat="43.97293323678346" lon="11.289048629600133"><ele>222.0</ele><time>2026-05-01T14:07:42Z</time></trkpt><trkpt lat="43.97306727669537" lon="11.289152800415689"><ele>222.0</ele><time>2026-05-01T14:07:43Z</time></trkpt><trkpt lat="43.973185606144696" lon="11.289188770014292"><ele>222.0</ele><time>2026-05-01T14:07:44Z</time></trkpt><trkpt lat="43.97329154712084" lon="11.289140379052462"><ele>222.0</ele><time>2026-05-01T14:07:45Z</time></trkpt><trkpt lat="43.973385188247235" lon="11.289041200639245"><ele>222.0</ele><time>2026-05-01T14:07:46Z</time></trkpt><trkpt lat="43.973430128191964" lon="11.288834524893147"><ele>222.0</ele><time>2026-05-01T14:07:47Z</time></trkpt><trkpt lat="43.97345330174193" lon="11.288643636615987"><ele>222.0</ele><time>2026-05-01T14:07:48Z</time></trkpt><trkpt lat="43.97361108581251" lon="11.288521351544539"><ele>222.0</ele><time>2026-05-01T14:07:49Z</time></trkpt><trkpt lat="43.97376203187133" lon="11.28843407433547"><ele>222.0</ele><time>2026-05-01T14:07:50Z</time></trkpt><trkpt lat="43.97392543933718" lon="11.28838367736457"><ele>222.0</ele><time>2026-05-01T14:07:51Z</time></trkpt><trkpt lat="43.97409142390656" lon="11.288333169287172"><ele>222.0</ele><time>2026-05-01T14:07:52Z</time></trkpt><trkpt lat="43.97427146669131" lon="11.288277802196836"><ele>222.66666666666669</ele><time>2026-05-01T14:07:53Z</time></trkpt><trkpt lat="43.97445805633048" lon="11.288223729742715"><ele>223.33333333333334</ele><time>2026-05-01T14:07:54Z</time></trkpt><trkpt lat="43.97465084100852" lon="11.288176807534088"><ele>224.0</ele><time>2026-05-01T14:07:55Z</time></trkpt><trkpt lat="43.97483998899167" lon="11.2881444694233"><ele>222.66666666666669</ele><time>2026-05-01T14:07:56Z</time></trkpt><trkpt lat="43.97502715257538" lon="11.288125185177636"><ele>221.33333333333331</ele><time>2026-05-01T14:07:57Z</time></trkpt><trkpt lat="43.975215261884294" lon="11.288111330384455"><ele>220.0</ele><time>2026-05-01T14:07:58Z</time></trkpt><trkpt lat="43.97540731746672" lon="11.288106117756222"><ele>220.0</ele><time>2026-05-01T14:07:59Z</time></trkpt><trkpt lat="43.97559795256095" lon="11.28811156962663"><ele>220.0</ele><time>2026-05-01T14:08:00Z</time></trkpt><trkpt lat="43.975790523688474" lon="11.288125664523028"><ele>220.0</ele><time>2026-05-01T14:08:01Z</time></trkpt><trkpt lat="43.97598322126815" lon="11.288149332267837"><ele>220.66666666666666</ele><time>2026-05-01T14:08:02Z</time></trkpt><trkpt lat="43.976180168845985" lon="11.288179672078654"><ele>221.33333333333331</ele><time>2026-05-01T14:08:03Z</time></trkpt><trkpt lat="43.97637752678253" lon="11.288216845034126"><ele>222.0</ele><time>2026-05-01T14:08:04Z</time></trkpt><trkpt lat="43.97657475617344" lon="11.288253599765733"><ele>224.0</ele><time>2026-05-01T14:08:05Z</time></trkpt><trkpt lat="43.97677602865899" lon="11.288291209535355"><ele>226.0</ele><time>2026-05-01T14:08:06Z</time></trkpt><trkpt lat="43.97698095703275" lon="11.288325859879647"><ele>228.0</ele><time>2026-05-01T14:08:07Z</time></trkpt><trkpt lat="43.97718454137519" lon="11.288358426903196"><ele>228.0</ele><time>2026-05-01T14:08:08Z</time></trkpt><trkpt lat="43.97738826722657" lon="11.288388706879019"><ele>228.0</ele><time>2026-05-01T14:08:09Z</time></trkpt><trkpt lat="43.97759517538368" lon="11.288421379075004"><ele>228.0</ele><time>2026-05-01T14:08:10Z</time></trkpt><trkpt lat="43.9778021110193" lon="11.28845224059796"><ele>229.33333333333331</ele><time>2026-05-01T14:08:11Z</time></trkpt><trkpt lat="43.97800913627812" lon="11.28847850746138"><ele>230.66666666666666</ele><time>2026-05-01T14:08:12Z</time></trkpt><trkpt lat="43.97822107761092" lon="11.288497336086165"><ele>232.0</ele><time>2026-05-01T14:08:13Z</time></trkpt><trkpt lat="43.97843072980197" lon="11.288506223128351"><ele>233.66666666666666</ele><time>2026-05-01T14:08:14Z</time></trkpt><trkpt lat="43.97864140630599" lon="11.288508217637121"><ele>235.33333333333331</ele><time>2026-05-01T14:08:15Z</time></trkpt><trkpt lat="43.978850269865895" lon="11.288507245728574"><ele>237.0</ele><time>2026-05-01T14:08:16Z</time></trkpt><trkpt lat="43.979058145568104" lon="11.2884998714291"><ele>237.66666666666669</ele><time>2026-05-01T14:08:17Z</time></trkpt><trkpt lat="43.97926588016667" lon="11.28848213135434"><ele>238.33333333333334</ele><time>2026-05-01T14:08:18Z</time></trkpt><trkpt lat="43.979472484823056" lon="11.288451687049834"><ele>239.0</ele><time>2026-05-01T14:08:19Z</time></trkpt><trkpt lat="43.979674420730184" lon="11.288412255548524"><ele>239.0</ele><time>2026-05-01T14:08:20Z</time></trkpt><trkpt lat="43.97987163628092" lon="11.28836170112225"><ele>239.0</ele><time>2026-05-01T14:08:21Z</time></trkpt><trkpt lat="43.9800633920217" lon="11.288295344674237"><ele>239.0</ele><time>2026-05-01T14:08:22Z</time></trkpt><trkpt lat="43.980250016026936" lon="11.288216199651792"><ele>240.66666666666669</ele><time>2026-05-01T14:08:23Z</time></trkpt><trkpt lat="43.980430171061776" lon="11.288111968981422"><ele>242.33333333333331</ele><time>2026-05-01T14:08:24Z</time></trkpt><trkpt lat="43.9806052370337" lon="11.287995076456065"><ele>244.0</ele><time>2026-05-01T14:08:25Z</time></trkpt><trkpt lat="43.98077526237845" lon="11.287864965332592"><ele>245.66666666666666</ele><time>2026-05-01T14:08:26Z</time></trkpt><trkpt lat="43.98093952614021" lon="11.287720394720587"><ele>247.33333333333331</ele><time>2026-05-01T14:08:27Z</time></trkpt><trkpt lat="43.98109686117439" lon="11.287567249580837"><ele>249.0</ele><time>2026-05-01T14:08:28Z</time></trkpt><trkpt lat="43.98124640025931" lon="11.28740072971191"><ele>247.0</ele><time>2026-05-01T14:08:29Z</time></trkpt><trkpt lat="43.98138773450665" lon="11.287223235118354"><ele>245.0</ele><time>2026-05-01T14:08:30Z</time></trkpt><trkpt lat="43.98152893359301" lon="11.287036730309886"><ele>243.0</ele><time>2026-05-01T14:08:31Z</time></trkpt><trkpt lat="43.98166466126259" lon="11.28684227895194"><ele>244.66666666666669</ele><time>2026-05-01T14:08:32Z</time></trkpt><trkpt lat="43.9817931157539" lon="11.286638364175401"><ele>246.33333333333334</ele><time>2026-05-01T14:08:33Z</time></trkpt><trkpt lat="43.98191631129387" lon="11.286423198721357"><ele>248.0</ele><time>2026-05-01T14:08:34Z</time></trkpt><trkpt lat="43.982029920962766" lon="11.286198540354581"><ele>249.0</ele><time>2026-05-01T14:08:35Z</time></trkpt><trkpt lat="43.982132764470144" lon="11.285966275778335"><ele>250.0</ele><time>2026-05-01T14:08:36Z</time></trkpt><trkpt lat="43.982226510459036" lon="11.285729708137167"><ele>251.0</ele><time>2026-05-01T14:08:37Z</time></trkpt><trkpt lat="43.98230975412043" lon="11.285485581877252"><ele>252.33333333333334</ele><time>2026-05-01T14:08:38Z</time></trkpt><trkpt lat="43.982380926077816" lon="11.285232411337699"><ele>253.66666666666669</ele><time>2026-05-01T14:08:39Z</time></trkpt><trkpt lat="43.982444348350285" lon="11.284971697162678"><ele>255.0</ele><time>2026-05-01T14:08:40Z</time></trkpt><trkpt lat="43.98250150372354" lon="11.284708179390984"><ele>260.0</ele><time>2026-05-01T14:08:41Z</time></trkpt><trkpt lat="43.98254981564071" lon="11.284441572878293"><ele>265.0</ele><time>2026-05-01T14:08:42Z</time></trkpt><trkpt lat="43.982595518688406" lon="11.284159001596887"><ele>270.0</ele><time>2026-05-01T14:08:43Z</time></trkpt><trkpt lat="43.98263447533497" lon="11.283872837358489"><ele>270.6666666666667</ele><time>2026-05-01T14:08:44Z</time></trkpt><trkpt lat="43.98266612962809" lon="11.283582686292458"><ele>271.33333333333337</ele><time>2026-05-01T14:08:44.999Z</time></trkpt><trkpt lat="43.98269029044652" lon="11.283292696851998"><ele>272.0</ele><time>2026-05-01T14:08:45.999Z</time></trkpt><trkpt lat="43.982705191784554" lon="11.28300379631821"><ele>272.33333333333337</ele><time>2026-05-01T14:08:46.999Z</time></trkpt><trkpt lat="43.98271440520511" lon="11.282719003320421"><ele>272.6666666666667</ele><time>2026-05-01T14:08:47.999Z</time></trkpt><trkpt lat="43.98271721121804" lon="11.282441144768768"><ele>273.0</ele><time>2026-05-01T14:08:48.999Z</time></trkpt><trkpt lat="43.982739753939384" lon="11.2821651617284"><ele>274.0</ele><time>2026-05-01T14:08:49.999Z</time></trkpt><trkpt lat="43.982716809451105" lon="11.281890584214562"><ele>275.0</ele><time>2026-05-01T14:08:50.999Z</time></trkpt><trkpt lat="43.982716240204844" lon="11.28162588994105"><ele>276.0</ele><time>2026-05-01T14:08:51.999Z</time></trkpt><trkpt lat="43.9827148080658" lon="11.281360059575452"><ele>276.0</ele><time>2026-05-01T14:08:52.999Z</time></trkpt><trkpt lat="43.98271513330487" lon="11.281100303107712"><ele>276.0</ele><time>2026-05-01T14:08:53.999Z</time></trkpt><trkpt lat="43.98272226781741" lon="11.280849926829555"><ele>276.0</ele><time>2026-05-01T14:08:54.999Z</time></trkpt><trkpt lat="43.982738138466416" lon="11.280599921385045"><ele>268.3333333333333</ele><time>2026-05-01T14:08:55.999Z</time></trkpt><trkpt lat="43.98277100874621" lon="11.280348109484853"><ele>260.66666666666663</ele><time>2026-05-01T14:08:56.999Z</time></trkpt><trkpt lat="43.9828180608582" lon="11.28009133996957"><ele>253.0</ele><time>2026-05-01T14:08:57.999Z</time></trkpt><trkpt lat="43.98286857451903" lon="11.279828809178568"><ele>250.0</ele><time>2026-05-01T14:08:58.999Z</time></trkpt><trkpt lat="43.98292659817219" lon="11.279576457670615"><ele>247.0</ele><time>2026-05-01T14:08:59.999Z</time></trkpt><trkpt lat="43.98298284811549" lon="11.27932374674676"><ele>244.0</ele><time>2026-05-01T14:09:00.999Z</time></trkpt><trkpt lat="43.983039403538655" lon="11.279078330162182"><ele>243.0</ele><time>2026-05-01T14:09:01.999Z</time></trkpt><trkpt lat="43.98309431587374" lon="11.27883432852934"><ele>242.0</ele><time>2026-05-01T14:09:02.999Z</time></trkpt><trkpt lat="43.98314945703707" lon="11.278590470595423"><ele>241.0</ele><time>2026-05-01T14:09:03.999Z</time></trkpt><trkpt lat="43.983203676358485" lon="11.278346462585194"><ele>241.0</ele><time>2026-05-01T14:09:04.999Z</time></trkpt><trkpt lat="43.98325797822344" lon="11.278105933975553"><ele>241.0</ele><time>2026-05-01T14:09:05.999Z</time></trkpt><trkpt lat="43.98331112055027" lon="11.277867672189638"><ele>241.0</ele><time>2026-05-01T14:09:06.999Z</time></trkpt><trkpt lat="43.98336306522567" lon="11.277628960557397"><ele>241.0</ele><time>2026-05-01T14:09:07.999Z</time></trkpt><trkpt lat="43.98341329252077" lon="11.277388172413282"><ele>241.0</ele><time>2026-05-01T14:09:09Z</time></trkpt><trkpt lat="43.983463694835386" lon="11.27714690005723"><ele>241.0</ele><time>2026-05-01T14:09:10Z</time></trkpt><trkpt lat="43.98351423540054" lon="11.276903813057785"><ele>244.0</ele><time>2026-05-01T14:09:11Z</time></trkpt><trkpt lat="43.98356469910233" lon="11.276662713687626"><ele>247.0</ele><time>2026-05-01T14:09:12Z</time></trkpt><trkpt lat="43.983615552720394" lon="11.276421003637214"><ele>250.0</ele><time>2026-05-01T14:09:13Z</time></trkpt><trkpt lat="43.9836674047642" lon="11.27617752378431"><ele>257.3333333333333</ele><time>2026-05-01T14:09:14Z</time></trkpt><trkpt lat="43.98372207868981" lon="11.275938847480516"><ele>264.6666666666667</ele><time>2026-05-01T14:09:15Z</time></trkpt><trkpt lat="43.98377734313967" lon="11.27569876059315"><ele>272.0</ele><time>2026-05-01T14:09:16Z</time></trkpt><trkpt lat="43.983833533591095" lon="11.275454978579967"><ele>272.6666666666667</ele><time>2026-05-01T14:09:17Z</time></trkpt><trkpt lat="43.98389993036481" lon="11.275216010546512"><ele>273.3333333333333</ele><time>2026-05-01T14:09:18Z</time></trkpt><trkpt lat="43.98398687862131" lon="11.27499417769177"><ele>274.0</ele><time>2026-05-01T14:09:19Z</time></trkpt><trkpt lat="43.984093115847436" lon="11.27478978330051"><ele>277.0</ele><time>2026-05-01T14:09:20Z</time></trkpt><trkpt lat="43.984211145463085" lon="11.274600933300084"><ele>280.0</ele><time>2026-05-01T14:09:21Z</time></trkpt><trkpt lat="43.98433740188697" lon="11.274427885288256"><ele>283.0</ele><time>2026-05-01T14:09:22Z</time></trkpt><trkpt lat="43.98446185251481" lon="11.274277621499461"><ele>283.0</ele><time>2026-05-01T14:09:23Z</time></trkpt><trkpt lat="43.984580864881536" lon="11.274145277617803"><ele>283.0</ele><time>2026-05-01T14:09:24Z</time></trkpt><trkpt lat="43.98469917711319" lon="11.274032306563203"><ele>283.0</ele><time>2026-05-01T14:09:25Z</time></trkpt><trkpt lat="43.984815890700936" lon="11.27395266483434"><ele>283.0</ele><time>2026-05-01T14:09:26Z</time></trkpt><trkpt lat="43.98493386926974" lon="11.273882355894452"><ele>283.0</ele><time>2026-05-01T14:09:27Z</time></trkpt><trkpt lat="43.985052197099414" lon="11.273816561628767"><ele>283.0</ele><time>2026-05-01T14:09:28Z</time></trkpt><trkpt lat="43.98517145917712" lon="11.273758035472081"><ele>283.0</ele><time>2026-05-01T14:09:29Z</time></trkpt><trkpt lat="43.985293267349526" lon="11.273710309715621"><ele>283.0</ele><time>2026-05-01T14:09:30Z</time></trkpt><trkpt lat="43.98541607155455" lon="11.273669772533209"><ele>283.0</ele><time>2026-05-01T14:09:31Z</time></trkpt><trkpt lat="43.98553711053148" lon="11.273629160884086"><ele>283.0</ele><time>2026-05-01T14:09:32Z</time></trkpt><trkpt lat="43.98565526485175" lon="11.27358952498644"><ele>283.0</ele><time>2026-05-01T14:09:33Z</time></trkpt><trkpt lat="43.98575890550681" lon="11.2735407991523"><ele>283.0</ele><time>2026-05-01T14:09:34Z</time></trkpt><trkpt lat="43.985837371804266" lon="11.27346685976882"><ele>283.6</ele><time>2026-05-01T14:09:35Z</time></trkpt><trkpt lat="43.98588428131644" lon="11.273359538159333"><ele>284.20000000000005</ele><time>2026-05-01T14:09:36Z</time></trkpt><trkpt lat="43.98589985404996" lon="11.273224931602202"><ele>284.8</ele><time>2026-05-01T14:09:37Z</time></trkpt><trkpt lat="43.98591542923363" lon="11.27309088862445"><ele>285.40000000000003</ele><time>2026-05-01T14:09:38Z</time></trkpt><trkpt lat="43.98595404749786" lon="11.272966719208252"><ele>286.0</ele><time>2026-05-01T14:09:39Z</time></trkpt><trkpt lat="43.986037903677754" lon="11.272866601967399"><ele>284.5</ele><time>2026-05-01T14:09:40Z</time></trkpt><trkpt lat="43.98615190104597" lon="11.272799928075367"><ele>283.0</ele><time>2026-05-01T14:09:41Z</time></trkpt><trkpt lat="43.986270089112814" lon="11.272726590892123"><ele>281.5</ele><time>2026-05-01T14:09:42Z</time></trkpt><trkpt lat="43.986409411434884" lon="11.272636894212672"><ele>280.0</ele><time>2026-05-01T14:09:43Z</time></trkpt><trkpt lat="43.986549093895384" lon="11.272544647763123"><ele>280.0</ele><time>2026-05-01T14:09:44Z</time></trkpt><trkpt lat="43.98669614237331" lon="11.272468185534734"><ele>280.0</ele><time>2026-05-01T14:09:45Z</time></trkpt><trkpt lat="43.986847060013076" lon="11.27235720935386"><ele>280.0</ele><time>2026-05-01T14:09:46Z</time></trkpt><trkpt lat="43.986994454782014" lon="11.272211437814107"><ele>278.66666666666663</ele><time>2026-05-01T14:09:47Z</time></trkpt><trkpt lat="43.98714224753932" lon="11.272069757421333"><ele>277.3333333333333</ele><time>2026-05-01T14:09:48Z</time></trkpt><trkpt lat="43.98728307132501" lon="11.271907771163988"><ele>276.0</ele><time>2026-05-01T14:09:49Z</time></trkpt><trkpt lat="43.98741813436411" lon="11.271728559910192"><ele>276.3333333333333</ele><time>2026-05-01T14:09:50Z</time></trkpt><trkpt lat="43.98754238126258" lon="11.27154081488507"><ele>276.66666666666663</ele><time>2026-05-01T14:09:51Z</time></trkpt><trkpt lat="43.98766198453798" lon="11.271339777213122"><ele>277.0</ele><time>2026-05-01T14:09:52Z</time></trkpt><trkpt lat="43.98777998304978" lon="11.271129519632643"><ele>275.0</ele><time>2026-05-01T14:09:53Z</time></trkpt><trkpt lat="43.98789706167229" lon="11.270916716800535"><ele>273.0</ele><time>2026-05-01T14:09:54Z</time></trkpt><trkpt lat="43.98800678767819" lon="11.27069432524231"><ele>271.0</ele><time>2026-05-01T14:09:55Z</time></trkpt><trkpt lat="43.98811016534926" lon="11.270458922882655"><ele>272.0</ele><time>2026-05-01T14:09:56Z</time></trkpt><trkpt lat="43.988203179579685" lon="11.270218553133606"><ele>273.0</ele><time>2026-05-01T14:09:57Z</time></trkpt><trkpt lat="43.98828674019185" lon="11.269978897943083"><ele>274.0</ele><time>2026-05-01T14:09:58Z</time></trkpt><trkpt lat="43.988362430611986" lon="11.26973823657654"><ele>274.0</ele><time>2026-05-01T14:09:59Z</time></trkpt><trkpt lat="43.98843082578091" lon="11.26948596008864"><ele>274.0</ele><time>2026-05-01T14:10:00Z</time></trkpt><trkpt lat="43.98850971629781" lon="11.269238127267013"><ele>274.0</ele><time>2026-05-01T14:10:01Z</time></trkpt><trkpt lat="43.98856409218482" lon="11.268975357427646"><ele>276.3333333333333</ele><time>2026-05-01T14:10:02Z</time></trkpt><trkpt lat="43.98859545832515" lon="11.268708752198297"><ele>278.6666666666667</ele><time>2026-05-01T14:10:03Z</time></trkpt><trkpt lat="43.98863522930275" lon="11.268445717916043"><ele>281.0</ele><time>2026-05-01T14:10:04Z</time></trkpt><trkpt lat="43.98866537884375" lon="11.26817579425678"><ele>282.0</ele><time>2026-05-01T14:10:05Z</time></trkpt><trkpt lat="43.988704785994535" lon="11.267902808646758"><ele>283.0</ele><time>2026-05-01T14:10:06Z</time></trkpt><trkpt lat="43.98872208408022" lon="11.267619388814325"><ele>284.0</ele><time>2026-05-01T14:10:07Z</time></trkpt><trkpt lat="43.98873313480188" lon="11.267334156604472"><ele>283.6666666666667</ele><time>2026-05-01T14:10:08Z</time></trkpt><trkpt lat="43.98873896317698" lon="11.26705018548648"><ele>283.3333333333333</ele><time>2026-05-01T14:10:09Z</time></trkpt><trkpt lat="43.98874239969375" lon="11.266772459015193"><ele>283.0</ele><time>2026-05-01T14:10:10Z</time></trkpt><trkpt lat="43.98872720229576" lon="11.266480195114749"><ele>282.3333333333333</ele><time>2026-05-01T14:10:11Z</time></trkpt><trkpt lat="43.98873455037443" lon="11.266239938421112"><ele>281.6666666666667</ele><time>2026-05-01T14:10:12Z</time></trkpt><trkpt lat="43.98873224970182" lon="11.265998348909358"><ele>281.0</ele><time>2026-05-01T14:10:13Z</time></trkpt><trkpt lat="43.988729887202666" lon="11.265777081931525"><ele>278.6666666666667</ele><time>2026-05-01T14:10:14Z</time></trkpt><trkpt lat="43.98873874849516" lon="11.265556571493033"><ele>276.3333333333333</ele><time>2026-05-01T14:10:15Z</time></trkpt><trkpt lat="43.98873520500366" lon="11.26533749649965"><ele>274.0</ele><time>2026-05-01T14:10:16Z</time></trkpt><trkpt lat="43.988730243946634" lon="11.265112489614866"><ele>274.0</ele><time>2026-05-01T14:10:17Z</time></trkpt><trkpt lat="43.98870956190702" lon="11.264860335536211"><ele>274.0</ele><time>2026-05-01T14:10:18Z</time></trkpt><trkpt lat="43.988703174574006" lon="11.264596721575403"><ele>274.0</ele><time>2026-05-01T14:10:19Z</time></trkpt><trkpt lat="43.9886913888607" lon="11.264325648990727"><ele>270.66666666666663</ele><time>2026-05-01T14:10:20Z</time></trkpt><trkpt lat="43.98866607693583" lon="11.264054061601783"><ele>267.3333333333333</ele><time>2026-05-01T14:10:21Z</time></trkpt><trkpt lat="43.988636296524966" lon="11.263784086020408"><ele>264.0</ele><time>2026-05-01T14:10:22Z</time></trkpt><trkpt lat="43.98862191979045" lon="11.263509037518775"><ele>258.3333333333333</ele><time>2026-05-01T14:10:23Z</time></trkpt><trkpt lat="43.98858558997158" lon="11.263241846901602"><ele>252.66666666666666</ele><time>2026-05-01T14:10:24Z</time></trkpt><trkpt lat="43.98852810383394" lon="11.262985122601798"><ele>247.0</ele><time>2026-05-01T14:10:25Z</time></trkpt><trkpt lat="43.98848554609823" lon="11.262716745992615"><ele>246.33333333333331</ele><time>2026-05-01T14:10:26Z</time></trkpt><trkpt lat="43.988436921171306" lon="11.262457744114787"><ele>245.66666666666669</ele><time>2026-05-01T14:10:27Z</time></trkpt><trkpt lat="43.98838515758074" lon="11.262207374294292"><ele>245.0</ele><time>2026-05-01T14:10:28Z</time></trkpt><trkpt lat="43.98834875399021" lon="11.261970653664012"><ele>247.5</ele><time>2026-05-01T14:10:29Z</time></trkpt><trkpt lat="43.9882884984027" lon="11.26176593666305"><ele>250.0</ele><time>2026-05-01T14:10:30Z</time></trkpt><trkpt lat="43.988246037445975" lon="11.261581703803472"><ele>252.5</ele><time>2026-05-01T14:10:31Z</time></trkpt><trkpt lat="43.988207239312175" lon="11.261401652393939"><ele>255.0</ele><time>2026-05-01T14:10:32Z</time></trkpt><trkpt lat="43.98815779395996" lon="11.261223997227379"><ele>258.0</ele><time>2026-05-01T14:10:33Z</time></trkpt><trkpt lat="43.98810986717388" lon="11.261024556533787"><ele>261.0</ele><time>2026-05-01T14:10:34Z</time></trkpt><trkpt lat="43.988058638399124" lon="11.260812980035176"><ele>264.0</ele><time>2026-05-01T14:10:35Z</time></trkpt><trkpt lat="43.98800745977544" lon="11.260584767739916"><ele>265.0</ele><time>2026-05-01T14:10:36Z</time></trkpt><trkpt lat="43.9879553352715" lon="11.26034651706493"><ele>266.0</ele><time>2026-05-01T14:10:37Z</time></trkpt><trkpt lat="43.9878954953113" lon="11.260100010990506"><ele>267.0</ele><time>2026-05-01T14:10:38Z</time></trkpt><trkpt lat="43.987832249398856" lon="11.259851784074767"><ele>270.3333333333333</ele><time>2026-05-01T14:10:39Z</time></trkpt><trkpt lat="43.98777650892652" lon="11.259596921065366"><ele>273.66666666666663</ele><time>2026-05-01T14:10:40Z</time></trkpt><trkpt lat="43.98772460207543" lon="11.25933892303964"><ele>277.0</ele><time>2026-05-01T14:10:41Z</time></trkpt><trkpt lat="43.987672480333785" lon="11.259091834705064"><ele>280.3333333333333</ele><time>2026-05-01T14:10:42Z</time></trkpt><trkpt lat="43.98762576055281" lon="11.25886458448296"><ele>283.6666666666667</ele><time>2026-05-01T14:10:43Z</time></trkpt><trkpt lat="43.987589480809675" lon="11.258661902916725"><ele>287.0</ele><time>2026-05-01T14:10:44Z</time></trkpt><trkpt lat="43.98756131854721" lon="11.258460936392531"><ele>287.0</ele><time>2026-05-01T14:10:45Z</time></trkpt><trkpt lat="43.9875427659033" lon="11.258248571926917"><ele>287.0</ele><time>2026-05-01T14:10:46Z</time></trkpt><trkpt lat="43.987531194331694" lon="11.258027638418923"><ele>287.0</ele><time>2026-05-01T14:10:47Z</time></trkpt><trkpt lat="43.987527406895516" lon="11.257801790549873"><ele>289.33333333333337</ele><time>2026-05-01T14:10:48Z</time></trkpt><trkpt lat="43.98753120021114" lon="11.257574733845866"><ele>291.6666666666667</ele><time>2026-05-01T14:10:49Z</time></trkpt><trkpt lat="43.98754570986365" lon="11.257342877934617"><ele>294.0</ele><time>2026-05-01T14:10:50Z</time></trkpt><trkpt lat="43.987571242579655" lon="11.257110675127878"><ele>294.3333333333333</ele><time>2026-05-01T14:10:51Z</time></trkpt><trkpt lat="43.98760663041608" lon="11.256877327671155"><ele>294.66666666666663</ele><time>2026-05-01T14:10:52Z</time></trkpt><trkpt lat="43.98765028759958" lon="11.256644581045984"><ele>295.0</ele><time>2026-05-01T14:10:53Z</time></trkpt><trkpt lat="43.987702996182726" lon="11.256415480329313"><ele>293.66666666666663</ele><time>2026-05-01T14:10:54Z</time></trkpt><trkpt lat="43.98776529398889" lon="11.256193576237663"><ele>292.3333333333333</ele><time>2026-05-01T14:10:55Z</time></trkpt><trkpt lat="43.987835201159335" lon="11.25597237602125"><ele>291.0</ele><time>2026-05-01T14:10:56Z</time></trkpt><trkpt lat="43.98791803945691" lon="11.255759962946023"><ele>289.0</ele><time>2026-05-01T14:10:57Z</time></trkpt><trkpt lat="43.98801454808313" lon="11.255558585493427"><ele>287.0</ele><time>2026-05-01T14:10:58Z</time></trkpt><trkpt lat="43.988117960774446" lon="11.255360968139348"><ele>285.0</ele><time>2026-05-01T14:10:58.999Z</time></trkpt><trkpt lat="43.988225861426685" lon="11.255174796300667"><ele>285.0</ele><time>2026-05-01T14:10:59.999Z</time></trkpt><trkpt lat="43.988342904211265" lon="11.254998268181941"><ele>285.0</ele><time>2026-05-01T14:11:00.999Z</time></trkpt><trkpt lat="43.98846952022055" lon="11.254833092845448"><ele>285.0</ele><time>2026-05-01T14:11:01.999Z</time></trkpt><trkpt lat="43.98860117864838" lon="11.254674774021453"><ele>285.6666666666667</ele><time>2026-05-01T14:11:02.999Z</time></trkpt><trkpt lat="43.98872537839751" lon="11.2544984509231"><ele>286.33333333333337</ele><time>2026-05-01T14:11:03.999Z</time></trkpt><trkpt lat="43.98886892488386" lon="11.254352219313674"><ele>287.0</ele><time>2026-05-01T14:11:04.999Z</time></trkpt><trkpt lat="43.98900110637912" lon="11.25419304176488"><ele>287.0</ele><time>2026-05-01T14:11:05.999Z</time></trkpt><trkpt lat="43.98913793166916" lon="11.254031422268994"><ele>287.0</ele><time>2026-05-01T14:11:06.999Z</time></trkpt><trkpt lat="43.98927737030896" lon="11.253864494866619"><ele>287.0</ele><time>2026-05-01T14:11:07.999Z</time></trkpt><trkpt lat="43.98941905536151" lon="11.253699397353444"><ele>287.33333333333337</ele><time>2026-05-01T14:11:08.999Z</time></trkpt><trkpt lat="43.98956009395402" lon="11.253529101868521"><ele>287.6666666666667</ele><time>2026-05-01T14:11:09.999Z</time></trkpt><trkpt lat="43.98970206229646" lon="11.253356497429493"><ele>288.0</ele><time>2026-05-01T14:11:10.999Z</time></trkpt><trkpt lat="43.9898478229579" lon="11.253188856362438"><ele>288.3333333333333</ele><time>2026-05-01T14:11:11.999Z</time></trkpt><trkpt lat="43.98999539099475" lon="11.253020191300134"><ele>288.66666666666663</ele><time>2026-05-01T14:11:12.999Z</time></trkpt><trkpt lat="43.99014432456775" lon="11.252851422799708"><ele>289.0</ele><time>2026-05-01T14:11:13.999Z</time></trkpt><trkpt lat="43.99029303849462" lon="11.252678399711066"><ele>289.0</ele><time>2026-05-01T14:11:15Z</time></trkpt><trkpt lat="43.9904398312662" lon="11.252506357870848"><ele>289.0</ele><time>2026-05-01T14:11:16Z</time></trkpt><trkpt lat="43.99058551063858" lon="11.252331918713194"><ele>289.0</ele><time>2026-05-01T14:11:17Z</time></trkpt><trkpt lat="43.99073167654845" lon="11.252156904736028"><ele>288.3333333333333</ele><time>2026-05-01T14:11:18Z</time></trkpt><trkpt lat="43.99087916316018" lon="11.25198224454763"><ele>287.6666666666667</ele><time>2026-05-01T14:11:19Z</time></trkpt><trkpt lat="43.991026611456206" lon="11.25181198437191"><ele>287.0</ele><time>2026-05-01T14:11:20Z</time></trkpt><trkpt lat="43.99117391566238" lon="11.251643481784596"><ele>287.0</ele><time>2026-05-01T14:11:21Z</time></trkpt><trkpt lat="43.9913184815781" lon="11.251470470499665"><ele>287.0</ele><time>2026-05-01T14:11:22Z</time></trkpt><trkpt lat="43.9914625992161" lon="11.251297872689616"><ele>287.0</ele><time>2026-05-01T14:11:23Z</time></trkpt><trkpt lat="43.99160528505364" lon="11.251126179482704"><ele>285.33333333333337</ele><time>2026-05-01T14:11:24Z</time></trkpt><trkpt lat="43.99174578030561" lon="11.250951700830242"><ele>283.6666666666667</ele><time>2026-05-01T14:11:25Z</time></trkpt><trkpt lat="43.99188598692012" lon="11.250775172197317"><ele>282.0</ele><time>2026-05-01T14:11:26Z</time></trkpt><trkpt lat="43.992019920761706" lon="11.250588661158949"><ele>279.3333333333333</ele><time>2026-05-01T14:11:27Z</time></trkpt><trkpt lat="43.992145541615415" lon="11.250383512585088"><ele>276.66666666666663</ele><time>2026-05-01T14:11:28Z</time></trkpt><trkpt lat="43.992262205855724" lon="11.250162285390719"><ele>274.0</ele><time>2026-05-01T14:11:29Z</time></trkpt><trkpt lat="43.992366202010764" lon="11.249928306381074"><ele>274.66666666666663</ele><time>2026-05-01T14:11:30Z</time></trkpt><trkpt lat="43.99245892750503" lon="11.249678348576484"><ele>275.3333333333333</ele><time>2026-05-01T14:11:31Z</time></trkpt><trkpt lat="43.99253104723778" lon="11.24941578286175"><ele>276.0</ele><time>2026-05-01T14:11:32Z</time></trkpt><trkpt lat="43.99259748613753" lon="11.249144870713213"><ele>274.3333333333333</ele><time>2026-05-01T14:11:33Z</time></trkpt><trkpt lat="43.99265314855223" lon="11.248868240657453"><ele>272.66666666666663</ele><time>2026-05-01T14:11:34Z</time></trkpt><trkpt lat="43.99269652123115" lon="11.248586263289635"><ele>271.0</ele><time>2026-05-01T14:11:35Z</time></trkpt><trkpt lat="43.99272007432748" lon="11.248299061906708"><ele>269.66666666666663</ele><time>2026-05-01T14:11:36Z</time></trkpt><trkpt lat="43.99272872670037" lon="11.248009859042824"><ele>268.3333333333333</ele><time>2026-05-01T14:11:37Z</time></trkpt><trkpt lat="43.99272131239312" lon="11.247721969308591"><ele>267.0</ele><time>2026-05-01T14:11:38Z</time></trkpt><trkpt lat="43.992695130441696" lon="11.247433081176679"><ele>265.0</ele><time>2026-05-01T14:11:39Z</time></trkpt><trkpt lat="43.99265376518133" lon="11.247148646266709"><ele>263.0</ele><time>2026-05-01T14:11:40Z</time></trkpt><trkpt lat="43.99259834460815" lon="11.246868699586368"><ele>261.0</ele><time>2026-05-01T14:11:41Z</time></trkpt><trkpt lat="43.99252375302781" lon="11.246591457345007"><ele>259.6666666666667</ele><time>2026-05-01T14:11:42Z</time></trkpt><trkpt lat="43.99243476070872" lon="11.246326473931656"><ele>258.33333333333337</ele><time>2026-05-01T14:11:43Z</time></trkpt><trkpt lat="43.99233759415973" lon="11.246070275213617"><ele>257.0</ele><time>2026-05-01T14:11:44Z</time></trkpt><trkpt lat="43.99223677570936" lon="11.24582628641672"><ele>256.0</ele><time>2026-05-01T14:11:45Z</time></trkpt><trkpt lat="43.99213365587539" lon="11.24559054869539"><ele>255.0</ele><time>2026-05-01T14:11:46Z</time></trkpt><trkpt lat="43.99203271316128" lon="11.245365708811581"><ele>254.0</ele><time>2026-05-01T14:11:47Z</time></trkpt><trkpt lat="43.99193439050165" lon="11.24514588523117"><ele>254.0</ele><time>2026-05-01T14:11:48Z</time></trkpt><trkpt lat="43.99184223216451" lon="11.24494196088293"><ele>254.0</ele><time>2026-05-01T14:11:49Z</time></trkpt><trkpt lat="43.99175892162664" lon="11.244759628501898"><ele>254.0</ele><time>2026-05-01T14:11:50Z</time></trkpt><trkpt lat="43.99168177988068" lon="11.2445824903791"><ele>253.25</ele><time>2026-05-01T14:11:51Z</time></trkpt><trkpt lat="43.99160708890633" lon="11.244411617024143"><ele>252.5</ele><time>2026-05-01T14:11:52Z</time></trkpt><trkpt lat="43.991533934175244" lon="11.244248014258117"><ele>251.75</ele><time>2026-05-01T14:11:53Z</time></trkpt><trkpt lat="43.991478848007645" lon="11.244079602000525"><ele>251.0</ele><time>2026-05-01T14:11:54Z</time></trkpt><trkpt lat="43.99139659817773" lon="11.24393026434458"><ele>250.5</ele><time>2026-05-01T14:11:55Z</time></trkpt><trkpt lat="43.991326167340574" lon="11.243759179294628"><ele>250.0</ele><time>2026-05-01T14:11:56Z</time></trkpt><trkpt lat="43.99125047848425" lon="11.243586718654438"><ele>249.5</ele><time>2026-05-01T14:11:57Z</time></trkpt><trkpt lat="43.99117507383943" lon="11.243414168328119"><ele>249.0</ele><time>2026-05-01T14:11:58Z</time></trkpt><trkpt lat="43.99110055975654" lon="11.243239443567056"><ele>250.75</ele><time>2026-05-01T14:11:59Z</time></trkpt><trkpt lat="43.991026989100604" lon="11.243066374965466"><ele>252.5</ele><time>2026-05-01T14:12:00Z</time></trkpt><trkpt lat="43.990950564535694" lon="11.242892212538312"><ele>254.25</ele><time>2026-05-01T14:12:01Z</time></trkpt><trkpt lat="43.990879088865135" lon="11.242728530314242"><ele>256.0</ele><time>2026-05-01T14:12:02Z</time></trkpt><trkpt lat="43.9908118636957" lon="11.242569996955314"><ele>256.0</ele><time>2026-05-01T14:12:03Z</time></trkpt><trkpt lat="43.99074271593466" lon="11.242403057099008"><ele>256.0</ele><time>2026-05-01T14:12:04Z</time></trkpt><trkpt lat="43.990667763004076" lon="11.242229260289536"><ele>256.0</ele><time>2026-05-01T14:12:05Z</time></trkpt><trkpt lat="43.9905834349978" lon="11.242045169021276"><ele>256.0</ele><time>2026-05-01T14:12:06Z</time></trkpt><trkpt lat="43.990501702090775" lon="11.241825207062753"><ele>256.3333333333333</ele><time>2026-05-01T14:12:07Z</time></trkpt><trkpt lat="43.99039998150758" lon="11.241590495167156"><ele>256.6666666666667</ele><time>2026-05-01T14:12:08Z</time></trkpt><trkpt lat="43.990293187484674" lon="11.24134400787407"><ele>257.0</ele><time>2026-05-01T14:12:09Z</time></trkpt><trkpt lat="43.990173336379506" lon="11.241107978486246"><ele>257.33333333333337</ele><time>2026-05-01T14:12:10Z</time></trkpt><trkpt lat="43.990079344410695" lon="11.240847313552255"><ele>257.6666666666667</ele><time>2026-05-01T14:12:11Z</time></trkpt><trkpt lat="43.989970985851365" lon="11.240595628605062"><ele>258.0</ele><time>2026-05-01T14:12:12Z</time></trkpt><trkpt lat="43.98986777383791" lon="11.240355188080294"><ele>258.0</ele><time>2026-05-01T14:12:13Z</time></trkpt><trkpt lat="43.98976066955804" lon="11.240142029296189"><ele>258.0</ele><time>2026-05-01T14:12:14Z</time></trkpt><trkpt lat="43.98966384262169" lon="11.239921317013055"><ele>258.0</ele><time>2026-05-01T14:12:15Z</time></trkpt><trkpt lat="43.98956539914893" lon="11.239693404778023"><ele>258.3333333333333</ele><time>2026-05-01T14:12:16Z</time></trkpt><trkpt lat="43.98947287207103" lon="11.23946012677017"><ele>258.66666666666663</ele><time>2026-05-01T14:12:17Z</time></trkpt><trkpt lat="43.98937557704329" lon="11.239233169302494"><ele>259.0</ele><time>2026-05-01T14:12:18Z</time></trkpt><trkpt lat="43.98929346826481" lon="11.238995667938045"><ele>259.0</ele><time>2026-05-01T14:12:19Z</time></trkpt><trkpt lat="43.98920985312086" lon="11.238766831509787"><ele>259.0</ele><time>2026-05-01T14:12:20Z</time></trkpt><trkpt lat="43.98912209255303" lon="11.23853617061477"><ele>259.0</ele><time>2026-05-01T14:12:21Z</time></trkpt><trkpt lat="43.98906443234782" lon="11.238290440187379"><ele>258.66666666666663</ele><time>2026-05-01T14:12:22Z</time></trkpt><trkpt lat="43.989015525085684" lon="11.238043929944105"><ele>258.3333333333333</ele><time>2026-05-01T14:12:23Z</time></trkpt><trkpt lat="43.98897686875606" lon="11.237798997749088"><ele>258.0</ele><time>2026-05-01T14:12:24Z</time></trkpt><trkpt lat="43.98894966079529" lon="11.237554905385657"><ele>258.0</ele><time>2026-05-01T14:12:25Z</time></trkpt><trkpt lat="43.98893223847596" lon="11.237306677192393"><ele>258.0</ele><time>2026-05-01T14:12:26Z</time></trkpt><trkpt lat="43.988929037497016" lon="11.237062216861373"><ele>258.0</ele><time>2026-05-01T14:12:27Z</time></trkpt><trkpt lat="43.98894050360464" lon="11.236815262837048"><ele>258.3333333333333</ele><time>2026-05-01T14:12:28Z</time></trkpt><trkpt lat="43.988966687610755" lon="11.236570698129647"><ele>258.66666666666663</ele><time>2026-05-01T14:12:29Z</time></trkpt><trkpt lat="43.98900262438648" lon="11.23632312171639"><ele>259.0</ele><time>2026-05-01T14:12:30Z</time></trkpt><trkpt lat="43.98904784535204" lon="11.236077728050065"><ele>259.3333333333333</ele><time>2026-05-01T14:12:31Z</time></trkpt><trkpt lat="43.98910251943099" lon="11.235831476941957"><ele>259.6666666666667</ele><time>2026-05-01T14:12:32Z</time></trkpt><trkpt lat="43.98917140253137" lon="11.235588508985794"><ele>260.0</ele><time>2026-05-01T14:12:33Z</time></trkpt><trkpt lat="43.9892531759739" lon="11.235350727460764"><ele>260.0</ele><time>2026-05-01T14:12:34Z</time></trkpt><trkpt lat="43.98934321918924" lon="11.235110527621245"><ele>260.0</ele><time>2026-05-01T14:12:35Z</time></trkpt><trkpt lat="43.9894369678722" lon="11.234873336365526"><ele>260.0</ele><time>2026-05-01T14:12:36Z</time></trkpt><trkpt lat="43.989530385080045" lon="11.234636934991503"><ele>260.0</ele><time>2026-05-01T14:12:37Z</time></trkpt><trkpt lat="43.9896256598604" lon="11.234402449208382"><ele>260.0</ele><time>2026-05-01T14:12:38Z</time></trkpt><trkpt lat="43.98972110609979" lon="11.234166945220032"><ele>260.0</ele><time>2026-05-01T14:12:39Z</time></trkpt><trkpt lat="43.98981571920453" lon="11.233926012699001"><ele>259.6666666666667</ele><time>2026-05-01T14:12:40Z</time></trkpt><trkpt lat="43.989910237124555" lon="11.233683344723913"><ele>259.3333333333333</ele><time>2026-05-01T14:12:41Z</time></trkpt><trkpt lat="43.99000466145185" lon="11.23344156496312"><ele>259.0</ele><time>2026-05-01T14:12:42Z</time></trkpt><trkpt lat="43.99010158623668" lon="11.23319406644129"><ele>259.66666666666663</ele><time>2026-05-01T14:12:43Z</time></trkpt><trkpt lat="43.99019528866581" lon="11.232951938568274"><ele>260.3333333333333</ele><time>2026-05-01T14:12:44Z</time></trkpt><trkpt lat="43.99028749620365" lon="11.232701611846737"><ele>261.0</ele><time>2026-05-01T14:12:45Z</time></trkpt><trkpt lat="43.99037577188571" lon="11.232444046137855"><ele>260.6666666666667</ele><time>2026-05-01T14:12:46Z</time></trkpt><trkpt lat="43.99044575812702" lon="11.232184486212258"><ele>260.33333333333337</ele><time>2026-05-01T14:12:47Z</time></trkpt><trkpt lat="43.99050346354558" lon="11.231913935620764"><ele>260.0</ele><time>2026-05-01T14:12:48Z</time></trkpt><trkpt lat="43.99054727766685" lon="11.231635450757837"><ele>260.6666666666667</ele><time>2026-05-01T14:12:49Z</time></trkpt><trkpt lat="43.99057602866909" lon="11.231352471410112"><ele>261.3333333333333</ele><time>2026-05-01T14:12:50Z</time></trkpt><trkpt lat="43.990587323344414" lon="11.231068904432668"><ele>262.0</ele><time>2026-05-01T14:12:51Z</time></trkpt><trkpt lat="43.990581332260035" lon="11.23078542351801"><ele>261.66666666666663</ele><time>2026-05-01T14:12:52Z</time></trkpt><trkpt lat="43.99056217775873" lon="11.230500015397773"><ele>261.3333333333333</ele><time>2026-05-01T14:12:53Z</time></trkpt><trkpt lat="43.990526315198416" lon="11.23021714511418"><ele>261.0</ele><time>2026-05-01T14:12:53.999Z</time></trkpt><trkpt lat="43.99047534576347" lon="11.229940401714401"><ele>261.3333333333333</ele><time>2026-05-01T14:12:54.999Z</time></trkpt><trkpt lat="43.990408989912595" lon="11.229669101819654"><ele>261.66666666666663</ele><time>2026-05-01T14:12:55.999Z</time></trkpt><trkpt lat="43.990322468163114" lon="11.229406013317188"><ele>262.0</ele><time>2026-05-01T14:12:56.999Z</time></trkpt><trkpt lat="43.990225225593946" lon="11.229150324441537"><ele>263.66666666666663</ele><time>2026-05-01T14:12:57.999Z</time></trkpt><trkpt lat="43.99011560004926" lon="11.228905386660779"><ele>265.3333333333333</ele><time>2026-05-01T14:12:58.999Z</time></trkpt><trkpt lat="43.989995067689094" lon="11.22867179077125"><ele>267.0</ele><time>2026-05-01T14:12:59.999Z</time></trkpt><trkpt lat="43.98986335877024" lon="11.228451147799566"><ele>267.6666666666667</ele><time>2026-05-01T14:13:00.999Z</time></trkpt><trkpt lat="43.98971768435571" lon="11.22825023881279"><ele>268.33333333333337</ele><time>2026-05-01T14:13:01.999Z</time></trkpt><trkpt lat="43.98955888669195" lon="11.228072407509428"><ele>269.0</ele><time>2026-05-01T14:13:02.999Z</time></trkpt><trkpt lat="43.98938755031266" lon="11.227909760793159"><ele>270.0</ele><time>2026-05-01T14:13:03.999Z</time></trkpt><trkpt lat="43.98921053419952" lon="11.227760287444472"><ele>271.0</ele><time>2026-05-01T14:13:04.999Z</time></trkpt><trkpt lat="43.98902521030357" lon="11.227622724011095"><ele>272.0</ele><time>2026-05-01T14:13:05.999Z</time></trkpt><trkpt lat="43.98883702939244" lon="11.227498115849345"><ele>272.6666666666667</ele><time>2026-05-01T14:13:06.999Z</time></trkpt><trkpt lat="43.98864340593365" lon="11.227385661714877"><ele>273.3333333333333</ele><time>2026-05-01T14:13:07.999Z</time></trkpt><trkpt lat="43.98844852297605" lon="11.227274035079692"><ele>274.0</ele><time>2026-05-01T14:13:08.999Z</time></trkpt><trkpt lat="43.98825454944232" lon="11.22715975398874"><ele>276.3333333333333</ele><time>2026-05-01T14:13:09.999Z</time></trkpt><trkpt lat="43.98806233791166" lon="11.227041710027914"><ele>278.6666666666667</ele><time>2026-05-01T14:13:10.999Z</time></trkpt><trkpt lat="43.98787302031981" lon="11.226922083747263"><ele>281.0</ele><time>2026-05-01T14:13:11.999Z</time></trkpt><trkpt lat="43.98768840055166" lon="11.226791988819265"><ele>281.0</ele><time>2026-05-01T14:13:12.999Z</time></trkpt><trkpt lat="43.987511833966366" lon="11.226644528304439"><ele>281.0</ele><time>2026-05-01T14:13:13.999Z</time></trkpt><trkpt lat="43.987345797989576" lon="11.22647248574592"><ele>281.0</ele><time>2026-05-01T14:13:14.999Z</time></trkpt><trkpt lat="43.98718572722769" lon="11.226284586318974"><ele>282.6666666666667</ele><time>2026-05-01T14:13:15.999Z</time></trkpt><trkpt lat="43.98703441290688" lon="11.226080407382033"><ele>284.3333333333333</ele><time>2026-05-01T14:13:16.999Z</time></trkpt><trkpt lat="43.986888901698705" lon="11.225860363687548"><ele>286.0</ele><time>2026-05-01T14:13:17.999Z</time></trkpt><trkpt lat="43.98674708732781" lon="11.225634734618414"><ele>285.66666666666663</ele><time>2026-05-01T14:13:18.999Z</time></trkpt><trkpt lat="43.98660726289985" lon="11.22540457454985"><ele>285.3333333333333</ele><time>2026-05-01T14:13:19.999Z</time></trkpt><trkpt lat="43.98646869515952" lon="11.225174592081038"><ele>285.0</ele><time>2026-05-01T14:13:21Z</time></trkpt><trkpt lat="43.98633104213931" lon="11.224944858149453"><ele>284.0</ele><time>2026-05-01T14:13:22Z</time></trkpt><trkpt lat="43.986193447208684" lon="11.224718006118879"><ele>283.0</ele><time>2026-05-01T14:13:23Z</time></trkpt><trkpt lat="43.98605530488607" lon="11.224491951499731"><ele>282.0</ele><time>2026-05-01T14:13:24Z</time></trkpt><trkpt lat="43.985919602979855" lon="11.224265066764879"><ele>281.6666666666667</ele><time>2026-05-01T14:13:25Z</time></trkpt><trkpt lat="43.98578484581236" lon="11.224038426773495"><ele>281.33333333333337</ele><time>2026-05-01T14:13:26Z</time></trkpt><trkpt lat="43.9856493950934" lon="11.223812583594343"><ele>281.0</ele><time>2026-05-01T14:13:27Z</time></trkpt><trkpt lat="43.985511121738355" lon="11.223581483626859"><ele>279.33333333333337</ele><time>2026-05-01T14:13:28Z</time></trkpt><trkpt lat="43.9853712707149" lon="11.223344318361777"><ele>277.6666666666667</ele><time>2026-05-01T14:13:29Z</time></trkpt><trkpt lat="43.98522798034796" lon="11.223102766602707"><ele>276.0</ele><time>2026-05-01T14:13:30Z</time></trkpt><trkpt lat="43.985078918648085" lon="11.222856315982902"><ele>274.0</ele><time>2026-05-01T14:13:31Z</time></trkpt><trkpt lat="43.984928066440716" lon="11.222609860860127"><ele>272.0</ele><time>2026-05-01T14:13:32Z</time></trkpt><trkpt lat="43.98477587463955" lon="11.222361254089368"><ele>272.0</ele><time>2026-05-01T14:13:33Z</time></trkpt><trkpt lat="43.984628390174976" lon="11.222111563424427"><ele>272.0</ele><time>2026-05-01T14:13:34Z</time></trkpt><trkpt lat="43.98449765262402" lon="11.22187297908482"><ele>272.0</ele><time>2026-05-01T14:13:35Z</time></trkpt><trkpt lat="43.98438093801933" lon="11.221644531531297"><ele>272.0</ele><time>2026-05-01T14:13:36Z</time></trkpt><trkpt lat="43.98426706087831" lon="11.221416511225229"><ele>272.0</ele><time>2026-05-01T14:13:37Z</time></trkpt><trkpt lat="43.984154841930874" lon="11.221179957950882"><ele>272.0</ele><time>2026-05-01T14:13:38Z</time></trkpt><trkpt lat="43.98403837577176" lon="11.22093121506541"><ele>272.0</ele><time>2026-05-01T14:13:39Z</time></trkpt><trkpt lat="43.98392100236337" lon="11.22067876764534"><ele>272.0</ele><time>2026-05-01T14:13:40Z</time></trkpt><trkpt lat="43.983843190218245" lon="11.220518219769048"><ele>272.0</ele><time>2026-05-01T14:13:41Z</time></trkpt><trkpt lat="43.98373742330977" lon="11.220281837596724"><ele>272.0</ele><time>2026-05-01T14:13:42Z</time></trkpt><trkpt lat="43.98362697554712" lon="11.220047282598905"><ele>272.0</ele><time>2026-05-01T14:13:43Z</time></trkpt><trkpt lat="43.983521576016045" lon="11.219816385022051"><ele>272.0</ele><time>2026-05-01T14:13:44Z</time></trkpt><trkpt lat="43.9834154290238" lon="11.219590242784454"><ele>270.0</ele><time>2026-05-01T14:13:45Z</time></trkpt><trkpt lat="43.98331666346664" lon="11.219369908153755"><ele>268.0</ele><time>2026-05-01T14:13:46Z</time></trkpt><trkpt lat="43.983215262887995" lon="11.219139946205408"><ele>266.0</ele><time>2026-05-01T14:13:47Z</time></trkpt><trkpt lat="43.983110180731394" lon="11.218914100976185"><ele>266.0</ele><time>2026-05-01T14:13:48Z</time></trkpt><trkpt lat="43.983006926486794" lon="11.218691003506185"><ele>266.0</ele><time>2026-05-01T14:13:49Z</time></trkpt><trkpt lat="43.982903439037976" lon="11.218471375036847"><ele>266.0</ele><time>2026-05-01T14:13:50Z</time></trkpt><trkpt lat="43.98280763425098" lon="11.21824994815733"><ele>266.33333333333337</ele><time>2026-05-01T14:13:51Z</time></trkpt><trkpt lat="43.98270883485314" lon="11.218030170274622"><ele>266.6666666666667</ele><time>2026-05-01T14:13:52Z</time></trkpt><trkpt lat="43.98261426925402" lon="11.217831571196784"><ele>267.0</ele><time>2026-05-01T14:13:53Z</time></trkpt><trkpt lat="43.98252674784266" lon="11.217651663374424"><ele>267.0</ele><time>2026-05-01T14:13:54Z</time></trkpt><trkpt lat="43.98245770968286" lon="11.217500078878716"><ele>267.0</ele><time>2026-05-01T14:13:55Z</time></trkpt><trkpt lat="43.9823989568514" lon="11.217369511072468"><ele>267.0</ele><time>2026-05-01T14:13:56Z</time></trkpt><trkpt lat="43.98234643574913" lon="11.21725111075003"><ele>267.0</ele><time>2026-05-01T14:13:57Z</time></trkpt><trkpt lat="43.982295108221955" lon="11.217152447326713"><ele>267.0</ele><time>2026-05-01T14:13:58Z</time></trkpt><trkpt lat="43.9822571008161" lon="11.217065736501244"><ele>267.4</ele><time>2026-05-01T14:13:59Z</time></trkpt><trkpt lat="43.982212258637446" lon="11.216944119042388"><ele>267.79999999999995</ele><time>2026-05-01T14:14:01Z</time></trkpt><trkpt lat="43.982205964091925" lon="11.216827864954364"><ele>268.2</ele><time>2026-05-01T14:14:04Z</time></trkpt><trkpt lat="43.982222079578264" lon="11.21670526811962"><ele>268.59999999999997</ele><time>2026-05-01T14:14:07Z</time></trkpt><trkpt lat="43.98227239556138" lon="11.216553770141694"><ele>269.0</ele><time>2026-05-01T14:14:09Z</time></trkpt><trkpt lat="43.98233032587416" lon="11.216392812868863"><ele>269.4</ele><time>2026-05-01T14:14:11Z</time></trkpt><trkpt lat="43.98237824774447" lon="11.216304330830237"><ele>269.79999999999995</ele><time>2026-05-01T14:14:12Z</time></trkpt><trkpt lat="43.982440990983584" lon="11.216218894010213"><ele>270.20000000000005</ele><time>2026-05-01T14:14:13Z</time></trkpt><trkpt lat="43.982521363881304" lon="11.216144227092324"><ele>270.6</ele><time>2026-05-01T14:14:14Z</time></trkpt><trkpt lat="43.98260080287788" lon="11.216073406606869"><ele>271.0</ele><time>2026-05-01T14:14:15Z</time></trkpt><trkpt lat="43.98268500315155" lon="11.21600168040444"><ele>271.0</ele><time>2026-05-01T14:14:16Z</time></trkpt><trkpt lat="43.98276855572868" lon="11.215930250043792"><ele>271.0</ele><time>2026-05-01T14:14:17Z</time></trkpt><trkpt lat="43.98285032943861" lon="11.215852464664641"><ele>271.0</ele><time>2026-05-01T14:14:18Z</time></trkpt><trkpt lat="43.982932254634676" lon="11.215769165232526"><ele>271.0</ele><time>2026-05-01T14:14:19Z</time></trkpt><trkpt lat="43.983008611884145" lon="11.215674316983991"><ele>271.0</ele><time>2026-05-01T14:14:20Z</time></trkpt><trkpt lat="43.98309003009336" lon="11.21557253233251"><ele>272.6</ele><time>2026-05-01T14:14:21Z</time></trkpt><trkpt lat="43.9831647555283" lon="11.21545996217609"><ele>274.20000000000005</ele><time>2026-05-01T14:14:22Z</time></trkpt><trkpt lat="43.983225764656304" lon="11.215335710661815"><ele>275.79999999999995</ele><time>2026-05-01T14:14:23Z</time></trkpt><trkpt lat="43.98327205303003" lon="11.215202828431748"><ele>277.4</ele><time>2026-05-01T14:14:24Z</time></trkpt><trkpt lat="43.98330628452804" lon="11.21506924236434"><ele>279.0</ele><time>2026-05-01T14:14:25Z</time></trkpt><trkpt lat="43.98332749122688" lon="11.21494899197943"><ele>279.0</ele><time>2026-05-01T14:14:26Z</time></trkpt><trkpt lat="43.98334681314162" lon="11.214837498302268"><ele>279.0</ele><time>2026-05-01T14:14:27Z</time></trkpt><trkpt lat="43.98325441513427" lon="11.214705437504946"><ele>279.0</ele><time>2026-05-01T14:14:28Z</time></trkpt><trkpt lat="43.98326724697927" lon="11.214614234250579"><ele>279.0</ele><time>2026-05-01T14:14:29Z</time></trkpt><trkpt lat="43.983289251798496" lon="11.214451453599825"><ele>279.0</ele><time>2026-05-01T14:14:31Z</time></trkpt><trkpt lat="43.983302562673224" lon="11.21434486241582"><ele>279.0</ele><time>2026-05-01T14:14:32Z</time></trkpt><trkpt lat="43.983317987068965" lon="11.214202031340854"><ele>279.0</ele><time>2026-05-01T14:14:33Z</time></trkpt><trkpt lat="43.98333275742399" lon="11.214053286640507"><ele>279.0</ele><time>2026-05-01T14:14:34Z</time></trkpt><trkpt lat="43.98334590033789" lon="11.213898233228605"><ele>279.0</ele><time>2026-05-01T14:14:35Z</time></trkpt><trkpt lat="43.98335656165476" lon="11.213731469034625"><ele>279.0</ele><time>2026-05-01T14:14:36Z</time></trkpt><trkpt lat="43.983366527440296" lon="11.213551692386833"><ele>279.0</ele><time>2026-05-01T14:14:37Z</time></trkpt><trkpt lat="43.983376433551015" lon="11.213369570413386"><ele>279.0</ele><time>2026-05-01T14:14:38Z</time></trkpt><trkpt lat="43.98339014261968" lon="11.213188791784361"><ele>279.0</ele><time>2026-05-01T14:14:39Z</time></trkpt><trkpt lat="43.98338759099905" lon="11.213001880793804"><ele>279.0</ele><time>2026-05-01T14:14:40Z</time></trkpt><trkpt lat="43.983395537690356" lon="11.212820909834129"><ele>279.0</ele><time>2026-05-01T14:14:41Z</time></trkpt><trkpt lat="43.98341513409045" lon="11.212627856823016"><ele>279.0</ele><time>2026-05-01T14:14:42Z</time></trkpt><trkpt lat="43.98344226677444" lon="11.21244308051089"><ele>279.0</ele><time>2026-05-01T14:14:43Z</time></trkpt><trkpt lat="43.983475973634455" lon="11.212260511435963"><ele>279.0</ele><time>2026-05-01T14:14:44Z</time></trkpt><trkpt lat="43.98351122457786" lon="11.21207663240978"><ele>279.75</ele><time>2026-05-01T14:14:45Z</time></trkpt><trkpt lat="43.9835452284374" lon="11.21189325441323"><ele>280.5</ele><time>2026-05-01T14:14:46Z</time></trkpt><trkpt lat="43.98357849260076" lon="11.211721022132316"><ele>281.25</ele><time>2026-05-01T14:14:47Z</time></trkpt><trkpt lat="43.98361081454493" lon="11.211544379305659"><ele>282.0</ele><time>2026-05-01T14:14:48Z</time></trkpt><trkpt lat="43.983644010970885" lon="11.21136624998167"><ele>284.0</ele><time>2026-05-01T14:14:49Z</time></trkpt><trkpt lat="43.98367679011811" lon="11.211184207085239"><ele>286.0</ele><time>2026-05-01T14:14:49.999Z</time></trkpt><trkpt lat="43.98371159144983" lon="11.210998086079803"><ele>288.0</ele><time>2026-05-01T14:14:50.999Z</time></trkpt><trkpt lat="43.983743649681486" lon="11.210818789478644"><ele>290.0</ele><time>2026-05-01T14:14:51.999Z</time></trkpt><trkpt lat="43.983774661666544" lon="11.210642515025553"><ele>291.0</ele><time>2026-05-01T14:14:52.999Z</time></trkpt><trkpt lat="43.9838059768704" lon="11.210473020509747"><ele>292.0</ele><time>2026-05-01T14:14:53.999Z</time></trkpt><trkpt lat="43.98383631063141" lon="11.210313331304903"><ele>293.0</ele><time>2026-05-01T14:14:54.999Z</time></trkpt><trkpt lat="43.9838773451006" lon="11.210153932329112"><ele>294.0</ele><time>2026-05-01T14:14:55.999Z</time></trkpt><trkpt lat="43.98393371789411" lon="11.210010880103193"><ele>294.0</ele><time>2026-05-01T14:14:56.999Z</time></trkpt><trkpt lat="43.98400476555566" lon="11.209886447067857"><ele>294.0</ele><time>2026-05-01T14:14:57.999Z</time></trkpt><trkpt lat="43.98409813666012" lon="11.209791331177916"><ele>294.0</ele><time>2026-05-01T14:14:58.999Z</time></trkpt><trkpt lat="43.98420268148706" lon="11.20972322265581"><ele>294.0</ele><time>2026-05-01T14:14:59.999Z</time></trkpt><trkpt lat="43.9843141948724" lon="11.209692518505511"><ele>294.0</ele><time>2026-05-01T14:15:00.999Z</time></trkpt><trkpt lat="43.98442782371457" lon="11.209712893400972"><ele>294.0</ele><time>2026-05-01T14:15:01.999Z</time></trkpt><trkpt lat="43.98453923482503" lon="11.209777678560446"><ele>294.0</ele><time>2026-05-01T14:15:02.999Z</time></trkpt><trkpt lat="43.984637236756036" lon="11.20988388836493"><ele>294.0</ele><time>2026-05-01T14:15:03.999Z</time></trkpt><trkpt lat="43.98470784224692" lon="11.210026622163099"><ele>294.0</ele><time>2026-05-01T14:15:04.999Z</time></trkpt><trkpt lat="43.98475234396459" lon="11.210186971629819"><ele>294.0</ele><time>2026-05-01T14:15:05.999Z</time></trkpt><trkpt lat="43.98476267915464" lon="11.210353530892931"><ele>294.0</ele><time>2026-05-01T14:15:06.999Z</time></trkpt><trkpt lat="43.98473563349639" lon="11.210516890249195"><ele>294.0</ele><time>2026-05-01T14:15:07.999Z</time></trkpt><trkpt lat="43.9846729536032" lon="11.21066216748682"><ele>292.0</ele><time>2026-05-01T14:15:08.999Z</time></trkpt><trkpt lat="43.98458738797136" lon="11.210777503295866"><ele>290.0</ele><time>2026-05-01T14:15:09.999Z</time></trkpt><trkpt lat="43.9844830696369" lon="11.210857691043307"><ele>288.0</ele><time>2026-05-01T14:15:10.999Z</time></trkpt><trkpt lat="43.98436224259635" lon="11.210897718971859"><ele>286.0</ele><time>2026-05-01T14:15:11.999Z</time></trkpt><trkpt lat="43.98423385605889" lon="11.210910147466207"><ele>287.3333333333333</ele><time>2026-05-01T14:15:12.999Z</time></trkpt><trkpt lat="43.9840932588579" lon="11.210946188787592"><ele>288.6666666666667</ele><time>2026-05-01T14:15:13.999Z</time></trkpt><trkpt lat="43.98393029515963" lon="11.210905212725052"><ele>290.0</ele><time>2026-05-01T14:15:14.999Z</time></trkpt><trkpt lat="43.98376614521137" lon="11.21090858472904"><ele>290.0</ele><time>2026-05-01T14:15:15.999Z</time></trkpt><trkpt lat="43.98359170483749" lon="11.210916413179444"><ele>290.0</ele><time>2026-05-01T14:15:16.999Z</time></trkpt><trkpt lat="43.983416076728076" lon="11.21090907404894"><ele>290.0</ele><time>2026-05-01T14:15:17.999Z</time></trkpt><trkpt lat="43.98323424256625" lon="11.210924921031012"><ele>291.0</ele><time>2026-05-01T14:15:18.999Z</time></trkpt><trkpt lat="43.983053573418125" lon="11.21093836997857"><ele>292.0</ele><time>2026-05-01T14:15:19.999Z</time></trkpt><trkpt lat="43.982867834956146" lon="11.210950226717138"><ele>293.0</ele><time>2026-05-01T14:15:20.999Z</time></trkpt><trkpt lat="43.98267642942621" lon="11.210956965029837"><ele>293.0</ele><time>2026-05-01T14:15:21.999Z</time></trkpt><trkpt lat="43.98248386061976" lon="11.21096325042611"><ele>293.0</ele><time>2026-05-01T14:15:22.999Z</time></trkpt><trkpt lat="43.982281704460085" lon="11.210973390002362"><ele>293.0</ele><time>2026-05-01T14:15:23.999Z</time></trkpt><trkpt lat="43.9820786383689" lon="11.210984498279842"><ele>293.0</ele><time>2026-05-01T14:15:24.999Z</time></trkpt><trkpt lat="43.98186433188992" lon="11.210993570289235"><ele>293.0</ele><time>2026-05-01T14:15:25.999Z</time></trkpt><trkpt lat="43.981641981615226" lon="11.211010844390556"><ele>293.0</ele><time>2026-05-01T14:15:27Z</time></trkpt><trkpt lat="43.981409722038684" lon="11.21102764896748"><ele>289.5</ele><time>2026-05-01T14:15:28Z</time></trkpt><trkpt lat="43.98116499934551" lon="11.211038788282638"><ele>286.0</ele><time>2026-05-01T14:15:29Z</time></trkpt><trkpt lat="43.98090658950382" lon="11.211045705352937"><ele>293.5</ele><time>2026-05-01T14:15:30Z</time></trkpt><trkpt lat="43.980638419142956" lon="11.21104740233701"><ele>301.0</ele><time>2026-05-01T14:15:31Z</time></trkpt><trkpt lat="43.98037774363526" lon="11.211044707865016"><ele>301.0</ele><time>2026-05-01T14:15:32Z</time></trkpt><trkpt lat="43.98011447137463" lon="11.211040001244783"><ele>301.0</ele><time>2026-05-01T14:15:33Z</time></trkpt><trkpt lat="43.979848990611146" lon="11.211037948479188"><ele>307.0</ele><time>2026-05-01T14:15:34Z</time></trkpt><trkpt lat="43.97958172076623" lon="11.211039491655875"><ele>313.0</ele><time>2026-05-01T14:15:35Z</time></trkpt><trkpt lat="43.979310592837074" lon="11.211041099742804"><ele>313.5</ele><time>2026-05-01T14:15:36Z</time></trkpt><trkpt lat="43.97904043880798" lon="11.211045736065167"><ele>314.0</ele><time>2026-05-01T14:15:37Z</time></trkpt><trkpt lat="43.97877086867938" lon="11.211051787119203"><ele>314.0</ele><time>2026-05-01T14:15:38Z</time></trkpt><trkpt lat="43.9785012209926" lon="11.211058624393704"><ele>314.0</ele><time>2026-05-01T14:15:39Z</time></trkpt><trkpt lat="43.97823184833954" lon="11.211064643930808"><ele>315.5</ele><time>2026-05-01T14:15:40Z</time></trkpt><trkpt lat="43.97796408193528" lon="11.211074072208016"><ele>317.0</ele><time>2026-05-01T14:15:41Z</time></trkpt><trkpt lat="43.97769820031717" lon="11.21108791340653"><ele>319.0</ele><time>2026-05-01T14:15:42Z</time></trkpt><trkpt lat="43.97743623186766" lon="11.211105998046065"><ele>321.0</ele><time>2026-05-01T14:15:43Z</time></trkpt><trkpt lat="43.97717572366898" lon="11.21112015763492"><ele>321.0</ele><time>2026-05-01T14:15:44Z</time></trkpt><trkpt lat="43.976915862967275" lon="11.211130053597685"><ele>321.0</ele><time>2026-05-01T14:15:45Z</time></trkpt><trkpt lat="43.97665483373556" lon="11.211137269511172"><ele>315.5</ele><time>2026-05-01T14:15:46Z</time></trkpt><trkpt lat="43.97639686664941" lon="11.211142780991963"><ele>310.0</ele><time>2026-05-01T14:15:47Z</time></trkpt><trkpt lat="43.97614008418314" lon="11.211146101018052"><ele>310.0</ele><time>2026-05-01T14:15:48Z</time></trkpt><trkpt lat="43.975882760893995" lon="11.21115042175857"><ele>310.0</ele><time>2026-05-01T14:15:49Z</time></trkpt><trkpt lat="43.97562598919787" lon="11.211154541453107"><ele>300.0</ele><time>2026-05-01T14:15:50Z</time></trkpt><trkpt lat="43.9753707831295" lon="11.211156056965532"><ele>290.0</ele><time>2026-05-01T14:15:51Z</time></trkpt><trkpt lat="43.97511517555133" lon="11.211157001507862"><ele>297.5</ele><time>2026-05-01T14:15:52Z</time></trkpt><trkpt lat="43.974861356562684" lon="11.211162299868095"><ele>305.0</ele><time>2026-05-01T14:15:53Z</time></trkpt><trkpt lat="43.97460654829502" lon="11.211167165402925"><ele>305.0</ele><time>2026-05-01T14:15:54Z</time></trkpt><trkpt lat="43.97435498360154" lon="11.211174446384682"><ele>305.0</ele><time>2026-05-01T14:15:55Z</time></trkpt><trkpt lat="43.97410006655341" lon="11.211183854663666"><ele>319.5</ele><time>2026-05-01T14:15:56Z</time></trkpt><trkpt lat="43.973845072124014" lon="11.211185524308664"><ele>334.0</ele><time>2026-05-01T14:15:57Z</time></trkpt><trkpt lat="43.97359068702123" lon="11.211194913465222"><ele>333.0</ele><time>2026-05-01T14:15:58Z</time></trkpt><trkpt lat="43.973332717877284" lon="11.211200211234514"><ele>332.0</ele><time>2026-05-01T14:15:59Z</time></trkpt><trkpt lat="43.97307554627407" lon="11.211208978614923"><ele>332.0</ele><time>2026-05-01T14:16:00Z</time></trkpt><trkpt lat="43.9728167502503" lon="11.211217116853152"><ele>332.0</ele><time>2026-05-01T14:16:01Z</time></trkpt><trkpt lat="43.97255734544409" lon="11.211227229858174"><ele>330.5</ele><time>2026-05-01T14:16:02Z</time></trkpt><trkpt lat="43.97229557632316" lon="11.211233890914169"><ele>329.0</ele><time>2026-05-01T14:16:03Z</time></trkpt><trkpt lat="43.9720354209258" lon="11.21124391175959"><ele>329.0</ele><time>2026-05-01T14:16:04Z</time></trkpt><trkpt lat="43.97176874329173" lon="11.211257462775515"><ele>329.0</ele><time>2026-05-01T14:16:05Z</time></trkpt><trkpt lat="43.97150347437492" lon="11.211268208735246"><ele>329.0</ele><time>2026-05-01T14:16:06Z</time></trkpt><trkpt lat="43.971237068113375" lon="11.21127936579909"><ele>329.0</ele><time>2026-05-01T14:16:07Z</time></trkpt><trkpt lat="43.97096698751462" lon="11.211288326067656"><ele>329.0</ele><time>2026-05-01T14:16:08Z</time></trkpt><trkpt lat="43.97070078114282" lon="11.211298938991836"><ele>329.0</ele><time>2026-05-01T14:16:09Z</time></trkpt><trkpt lat="43.97043312682827" lon="11.211307186092421"><ele>329.0</ele><time>2026-05-01T14:16:10Z</time></trkpt><trkpt lat="43.9701665212909" lon="11.211310610954953"><ele>329.0</ele><time>2026-05-01T14:16:11Z</time></trkpt><trkpt lat="43.96989948941246" lon="11.21131331648628"><ele>328.0</ele><time>2026-05-01T14:16:12Z</time></trkpt><trkpt lat="43.96963235652267" lon="11.211314800850298"><ele>327.0</ele><time>2026-05-01T14:16:13Z</time></trkpt><trkpt lat="43.96936572467888" lon="11.211317605358001"><ele>329.0</ele><time>2026-05-01T14:16:14Z</time></trkpt><trkpt lat="43.96909852760348" lon="11.211316957447972"><ele>331.0</ele><time>2026-05-01T14:16:15Z</time></trkpt><trkpt lat="43.96883060022106" lon="11.21132007929206"><ele>331.0</ele><time>2026-05-01T14:16:16Z</time></trkpt><trkpt lat="43.96856732872255" lon="11.2113222423929"><ele>331.0</ele><time>2026-05-01T14:16:17Z</time></trkpt><trkpt lat="43.96830345968127" lon="11.211321152170674"><ele>333.5</ele><time>2026-05-01T14:16:18Z</time></trkpt><trkpt lat="43.96804310280008" lon="11.211319248232572"><ele>336.0</ele><time>2026-05-01T14:16:19Z</time></trkpt><trkpt lat="43.96778083268257" lon="11.211317342084826"><ele>337.5</ele><time>2026-05-01T14:16:20Z</time></trkpt><trkpt lat="43.967519866879144" lon="11.211315571074346"><ele>339.0</ele><time>2026-05-01T14:16:21Z</time></trkpt><trkpt lat="43.96725797932534" lon="11.211310456913097"><ele>339.0</ele><time>2026-05-01T14:16:22Z</time></trkpt><trkpt lat="43.96699690895478" lon="11.211300554234066"><ele>339.0</ele><time>2026-05-01T14:16:23Z</time></trkpt><trkpt lat="43.96673704675319" lon="11.211283141861692"><ele>337.0</ele><time>2026-05-01T14:16:24Z</time></trkpt><trkpt lat="43.96647596983774" lon="11.211258866856847"><ele>335.0</ele><time>2026-05-01T14:16:25Z</time></trkpt><trkpt lat="43.96621591506363" lon="11.211229082962516"><ele>335.0</ele><time>2026-05-01T14:16:26Z</time></trkpt><trkpt lat="43.96595477867721" lon="11.211193364283318"><ele>335.0</ele><time>2026-05-01T14:16:27Z</time></trkpt><trkpt lat="43.96569388099648" lon="11.211148903655381"><ele>335.0</ele><time>2026-05-01T14:16:28Z</time></trkpt><trkpt lat="43.965432587883605" lon="11.211098291346678"><ele>335.0</ele><time>2026-05-01T14:16:29Z</time></trkpt><trkpt lat="43.965170438223495" lon="11.211042060296643"><ele>341.0</ele><time>2026-05-01T14:16:30Z</time></trkpt><trkpt lat="43.96490696384707" lon="11.21097748160286"><ele>347.0</ele><time>2026-05-01T14:16:31Z</time></trkpt><trkpt lat="43.96464435873603" lon="11.210906887293167"><ele>347.0</ele><time>2026-05-01T14:16:32Z</time></trkpt><trkpt lat="43.964382266390444" lon="11.210827779847346"><ele>347.0</ele><time>2026-05-01T14:16:33Z</time></trkpt><trkpt lat="43.96412152703569" lon="11.210741145509775"><ele>351.0</ele><time>2026-05-01T14:16:34Z</time></trkpt><trkpt lat="43.96385747495012" lon="11.210650204970753"><ele>355.0</ele><time>2026-05-01T14:16:35Z</time></trkpt><trkpt lat="43.96359882527116" lon="11.210550286519615"><ele>351.0</ele><time>2026-05-01T14:16:36Z</time></trkpt><trkpt lat="43.96333949033317" lon="11.210443056586184"><ele>347.0</ele><time>2026-05-01T14:16:37Z</time></trkpt><trkpt lat="43.96308211231357" lon="11.210330986533398"><ele>347.0</ele><time>2026-05-01T14:16:38Z</time></trkpt><trkpt lat="43.96282947935004" lon="11.210210176683173"><ele>347.0</ele><time>2026-05-01T14:16:39Z</time></trkpt><trkpt lat="43.962579070998466" lon="11.210082462004898"><ele>347.0</ele><time>2026-05-01T14:16:40Z</time></trkpt><trkpt lat="43.96233353318539" lon="11.20995336918262"><ele>347.0</ele><time>2026-05-01T14:16:41Z</time></trkpt><trkpt lat="43.9620907136907" lon="11.209824174924826"><ele>347.0</ele><time>2026-05-01T14:16:42Z</time></trkpt><trkpt lat="43.96184829916697" lon="11.209694083430575"><ele>347.0</ele><time>2026-05-01T14:16:43Z</time></trkpt><trkpt lat="43.961606375808955" lon="11.209565853402282"><ele>349.0</ele><time>2026-05-01T14:16:44Z</time></trkpt><trkpt lat="43.96136660609012" lon="11.20943809418539"><ele>351.0</ele><time>2026-05-01T14:16:45Z</time></trkpt><trkpt lat="43.96112523291784" lon="11.20931665119359"><ele>351.0</ele><time>2026-05-01T14:16:46Z</time></trkpt><trkpt lat="43.96088101465255" lon="11.209196723465753"><ele>351.0</ele><time>2026-05-01T14:16:47Z</time></trkpt><trkpt lat="43.96063066003097" lon="11.209075775174867"><ele>360.0</ele><time>2026-05-01T14:16:48Z</time></trkpt><trkpt lat="43.96037319179438" lon="11.20895476339426"><ele>369.0</ele><time>2026-05-01T14:16:49Z</time></trkpt><trkpt lat="43.96011249745777" lon="11.208838422212306"><ele>365.0</ele><time>2026-05-01T14:16:50Z</time></trkpt><trkpt lat="43.959851088799496" lon="11.208727938299106"><ele>361.0</ele><time>2026-05-01T14:16:51Z</time></trkpt><trkpt lat="43.95959070115523" lon="11.208616768513798"><ele>361.0</ele><time>2026-05-01T14:16:51.999Z</time></trkpt><trkpt lat="43.95932038744388" lon="11.208503748001453"><ele>361.0</ele><time>2026-05-01T14:16:52.999Z</time></trkpt><trkpt lat="43.95905437681426" lon="11.20840928056146"><ele>354.5</ele><time>2026-05-01T14:16:53.999Z</time></trkpt><trkpt lat="43.958787071743785" lon="11.20833072820063"><ele>348.0</ele><time>2026-05-01T14:16:54.999Z</time></trkpt><trkpt lat="43.95852481884937" lon="11.208264226866595"><ele>347.0</ele><time>2026-05-01T14:16:55.999Z</time></trkpt><trkpt lat="43.95826458438612" lon="11.208210106022456"><ele>346.0</ele><time>2026-05-01T14:16:56.999Z</time></trkpt><trkpt lat="43.958004890723025" lon="11.208169075272924"><ele>349.0</ele><time>2026-05-01T14:16:57.999Z</time></trkpt><trkpt lat="43.95774473496657" lon="11.208140846849902"><ele>352.0</ele><time>2026-05-01T14:16:58.999Z</time></trkpt><trkpt lat="43.95748540896085" lon="11.208123614435207"><ele>355.5</ele><time>2026-05-01T14:16:59.999Z</time></trkpt><trkpt lat="43.95722266309068" lon="11.208119081421902"><ele>359.0</ele><time>2026-05-01T14:17:00.999Z</time></trkpt><trkpt lat="43.95696035100787" lon="11.208125283791343"><ele>360.5</ele><time>2026-05-01T14:17:01.999Z</time></trkpt><trkpt lat="43.95669752737026" lon="11.208140549593173"><ele>362.0</ele><time>2026-05-01T14:17:02.999Z</time></trkpt><trkpt lat="43.95643468782091" lon="11.208167687248258"><ele>362.0</ele><time>2026-05-01T14:17:03.999Z</time></trkpt><trkpt lat="43.95617098847684" lon="11.208206510801281"><ele>362.0</ele><time>2026-05-01T14:17:04.999Z</time></trkpt><trkpt lat="43.955907497499325" lon="11.208257356298093"><ele>358.0</ele><time>2026-05-01T14:17:05.999Z</time></trkpt><trkpt lat="43.955643163740184" lon="11.20831913128125"><ele>354.0</ele><time>2026-05-01T14:17:06.999Z</time></trkpt><trkpt lat="43.95537943241871" lon="11.208397839658762"><ele>354.0</ele><time>2026-05-01T14:17:07.999Z</time></trkpt><trkpt lat="43.95511496562865" lon="11.208487906956332"><ele>354.0</ele><time>2026-05-01T14:17:08.999Z</time></trkpt><trkpt lat="43.95485334845978" lon="11.20859111216355"><ele>351.0</ele><time>2026-05-01T14:17:09.999Z</time></trkpt><trkpt lat="43.95459609801295" lon="11.208702462073358"><ele>348.0</ele><time>2026-05-01T14:17:10.999Z</time></trkpt><trkpt lat="43.954339576858295" lon="11.208820479231758"><ele>347.5</ele><time>2026-05-01T14:17:11.999Z</time></trkpt><trkpt lat="43.954082895995526" lon="11.20894907487052"><ele>347.0</ele><time>2026-05-01T14:17:12.999Z</time></trkpt><trkpt lat="43.95382660420425" lon="11.209082358378998"><ele>347.0</ele><time>2026-05-01T14:17:13.999Z</time></trkpt><trkpt lat="43.95356990300337" lon="11.209221316166053"><ele>347.0</ele><time>2026-05-01T14:17:14.999Z</time></trkpt><trkpt lat="43.953318681604536" lon="11.209367832166697"><ele>356.0</ele><time>2026-05-01T14:17:15.999Z</time></trkpt><trkpt lat="43.95306935812281" lon="11.209523117797032"><ele>365.0</ele><time>2026-05-01T14:17:16.999Z</time></trkpt><trkpt lat="43.95282239332013" lon="11.209683933826518"><ele>374.0</ele><time>2026-05-01T14:17:17.999Z</time></trkpt><trkpt lat="43.95257869241838" lon="11.209851383640581"><ele>383.0</ele><time>2026-05-01T14:17:18.999Z</time></trkpt><trkpt lat="43.95233789679441" lon="11.210025093862777"><ele>397.0</ele><time>2026-05-01T14:17:19.999Z</time></trkpt><trkpt lat="43.95210068482889" lon="11.210205549011919"><ele>411.0</ele><time>2026-05-01T14:17:20.999Z</time></trkpt><trkpt lat="43.951849236869435" lon="11.210405003673037"><ele>412.5</ele><time>2026-05-01T14:17:22.073Z</time></trkpt><trkpt lat="43.95161943208923" lon="11.210594781460824"><ele>414.0</ele><time>2026-05-01T14:17:23.069Z</time></trkpt><trkpt lat="43.9513939537644" lon="11.210787842815604"><ele>414.0</ele><time>2026-05-01T14:17:24.07Z</time></trkpt><trkpt lat="43.95117317389412" lon="11.210977771166293"><ele>414.0</ele><time>2026-05-01T14:17:25.068Z</time></trkpt><trkpt lat="43.94874545071142" lon="11.213444900661544"><ele>388.0</ele><time>2026-05-01T14:17:29.648Z</time></trkpt><trkpt lat="43.9483593" lon="11.2138636"><ele>395.0</ele><time>2026-05-01T14:17:30.648Z</time></trkpt><trkpt lat="43.94758089651325" lon="11.214707249782911"><ele>407.0</ele><time>2026-05-01T14:17:32.647Z</time></trkpt><trkpt lat="43.9468003800461" lon="11.215553189657635"><ele>427.0</ele><time>2026-05-01T14:17:33.648Z</time></trkpt><trkpt lat="43.946021050823035" lon="11.216398275448293"><ele>451.0</ele><time>2026-05-01T14:17:34.648Z</time></trkpt><trkpt lat="43.945242759565886" lon="11.217243267208113"><ele>457.0</ele><time>2026-05-01T14:17:35.647Z</time></trkpt><trkpt lat="43.94446284635066" lon="11.218088915589231"><ele>452.0</ele><time>2026-05-01T14:17:36.648Z</time></trkpt><trkpt lat="43.943690436048925" lon="11.218947009319027"><ele>442.0</ele><time>2026-05-01T14:17:37.649Z</time></trkpt><trkpt lat="43.9429460025629" lon="11.21984887526825"><ele>403.0</ele><time>2026-05-01T14:17:38.648Z</time></trkpt><trkpt lat="43.94217019990549" lon="11.220700730208492"><ele>372.0</ele><time>2026-05-01T14:17:39.649Z</time></trkpt><trkpt lat="43.94136368010868" lon="11.221494499056822"><ele>360.0</ele><time>2026-05-01T14:17:40.648Z</time></trkpt><trkpt lat="43.94052085102223" lon="11.222210803573196"><ele>364.0</ele><time>2026-05-01T14:17:41.648Z</time></trkpt><trkpt lat="43.93959789420353" lon="11.222696784083857"><ele>348.0</ele><time>2026-05-01T14:17:42.648Z</time></trkpt><trkpt lat="43.93863312328449" lon="11.223003093693784"><ele>375.0</ele><time>2026-05-01T14:17:43.648Z</time></trkpt><trkpt lat="43.937656551229836" lon="11.223232523939162"><ele>350.0</ele><time>2026-05-01T14:17:44.649Z</time></trkpt><trkpt lat="43.93667262199285" lon="11.223363794043252"><ele>350.0</ele><time>2026-05-01T14:17:45.648Z</time></trkpt><trkpt lat="43.93568340512619" lon="11.223335060615172"><ele>375.0</ele><time>2026-05-01T14:17:46.648Z</time></trkpt><trkpt lat="43.93470194972391" lon="11.223172223847309"><ele>370.0</ele><time>2026-05-01T14:17:47.647Z</time></trkpt><trkpt lat="43.933729166230336" lon="11.222910398330063"><ele>379.0</ele><time>2026-05-01T14:17:48.648Z</time></trkpt><trkpt lat="43.932769291548" lon="11.222589549207518"><ele>381.0</ele><time>2026-05-01T14:17:49.645Z</time></trkpt><trkpt lat="43.93181269649171" lon="11.22222706340749"><ele>408.0</ele><time>2026-05-01T14:17:50.647Z</time></trkpt><trkpt lat="43.93086335722049" lon="11.221835757252348"><ele>413.0</ele><time>2026-05-01T14:17:51.648Z</time></trkpt><trkpt lat="43.929923269656335" lon="11.221416171398786"><ele>409.0</ele><time>2026-05-01T14:17:52.646Z</time></trkpt><trkpt lat="43.92899151834354" lon="11.22094448895745"><ele>394.0</ele><time>2026-05-01T14:17:53.648Z</time></trkpt><trkpt lat="43.928062131317" lon="11.220472600713215"><ele>410.0</ele><time>2026-05-01T14:17:54.648Z</time></trkpt><trkpt lat="43.927139592966704" lon="11.219974852957483"><ele>376.0</ele><time>2026-05-01T14:17:55.648Z</time></trkpt><trkpt lat="43.926227591418694" lon="11.219440614870184"><ele>352.0</ele><time>2026-05-01T14:17:56.649Z</time></trkpt><trkpt lat="43.92534755356641" lon="11.218814541144269"><ele>361.0</ele><time>2026-05-01T14:17:57.648Z</time></trkpt><trkpt lat="43.924492783881064" lon="11.218125274927639"><ele>352.0</ele><time>2026-05-01T14:17:58.648Z</time></trkpt><trkpt lat="43.92365518532285" lon="11.217393695176892"><ele>340.0</ele><time>2026-05-01T14:17:59.648Z</time></trkpt><trkpt lat="43.92282278443714" lon="11.216653632756048"><ele>347.0</ele><time>2026-05-01T14:18:00.648Z</time></trkpt><trkpt lat="43.921986122868006" lon="11.215921515892354"><ele>307.0</ele><time>2026-05-01T14:18:01.648Z</time></trkpt><trkpt lat="43.92114202995393" lon="11.215208958187326"><ele>304.0</ele><time>2026-05-01T14:18:02.647Z</time></trkpt><trkpt lat="43.92028740394531" lon="11.214516850569318"><ele>324.0</ele><time>2026-05-01T14:18:03.647Z</time></trkpt><trkpt lat="43.919421809199385" lon="11.213849725901484"><ele>347.0</ele><time>2026-05-01T14:18:04.648Z</time></trkpt><trkpt lat="43.91854851425037" lon="11.213204613491381"><ele>367.0</ele><time>2026-05-01T14:18:05.648Z</time></trkpt><trkpt lat="43.91767044739675" lon="11.212572019086679"><ele>410.0</ele><time>2026-05-01T14:18:06.648Z</time></trkpt><trkpt lat="43.91679092753184" lon="11.211943293537045"><ele>455.0</ele><time>2026-05-01T14:18:07.648Z</time></trkpt><trkpt lat="43.91591138502814" lon="11.211314615908773"><ele>507.0</ele><time>2026-05-01T14:18:08.648Z</time></trkpt><trkpt lat="43.91503261962253" lon="11.210683955142827"><ele>502.0</ele><time>2026-05-01T14:18:09.648Z</time></trkpt><trkpt lat="43.91415643238361" lon="11.210045708398349"><ele>488.0</ele><time>2026-05-01T14:18:10.648Z</time></trkpt><trkpt lat="43.91328478860793" lon="11.209396831018035"><ele>476.0</ele><time>2026-05-01T14:18:11.648Z</time></trkpt><trkpt lat="43.912419692685376" lon="11.208731268399932"><ele>465.0</ele><time>2026-05-01T14:18:12.648Z</time></trkpt><trkpt lat="43.91156467085455" lon="11.20803964659397"><ele>444.0</ele><time>2026-05-01T14:18:13.648Z</time></trkpt><trkpt lat="43.91072646384337" lon="11.207312501125756"><ele>435.0</ele><time>2026-05-01T14:18:14.648Z</time></trkpt><trkpt lat="43.90990376409978" lon="11.206548323296929"><ele>402.0</ele><time>2026-05-01T14:18:15.649Z</time></trkpt><trkpt lat="43.909099323085954" lon="11.205752612087405"><ele>379.0</ele><time>2026-05-01T14:18:16.648Z</time></trkpt><trkpt lat="43.90830845137242" lon="11.204928973478768"><ele>353.0</ele><time>2026-05-01T14:18:17.648Z</time></trkpt><trkpt lat="43.90752512016533" lon="11.20409113190238"><ele>345.0</ele><time>2026-05-01T14:18:18.648Z</time></trkpt><trkpt lat="43.90674388163078" lon="11.203250530344988"><ele>319.0</ele><time>2026-05-01T14:18:19.648Z</time></trkpt><trkpt lat="43.90595660984817" lon="11.202421579131904"><ele>315.0</ele><time>2026-05-01T14:18:20.647Z</time></trkpt><trkpt lat="43.905166017363406" lon="11.201595755879492"><ele>304.0</ele><time>2026-05-01T14:18:21.648Z</time></trkpt><trkpt lat="43.90439223009453" lon="11.200739721765908"><ele>285.0</ele><time>2026-05-01T14:18:22.649Z</time></trkpt><trkpt lat="43.90363359502818" lon="11.199862220843407"><ele>253.0</ele><time>2026-05-01T14:18:23.648Z</time></trkpt><trkpt lat="43.90288199663325" lon="11.19897123544494"><ele>234.0</ele><time>2026-05-01T14:18:24.648Z</time></trkpt><trkpt lat="43.9021322168476" lon="11.198077146836027"><ele>228.0</ele><time>2026-05-01T14:18:25.648Z</time></trkpt><trkpt lat="43.901378292472174" lon="11.19718972795792"><ele>220.0</ele><time>2026-05-01T14:18:26.648Z</time></trkpt><trkpt lat="43.90061529412297" lon="11.19631727677855"><ele>199.0</ele><time>2026-05-01T14:18:27.648Z</time></trkpt><trkpt lat="43.89984640861776" lon="11.195454247335611"><ele>199.0</ele><time>2026-05-01T14:18:28.648Z</time></trkpt><trkpt lat="43.8995016" lon="11.1950684"><ele>199.0</ele><time>2026-05-01T14:18:29.648Z</time></trkpt><trkpt lat="43.89873004350528" lon="11.194210145530436"><ele>206.0</ele><time>2026-05-01T14:18:39.648Z</time></trkpt><trkpt lat="43.89795709993012" lon="11.193354693596364"><ele>194.0</ele><time>2026-05-01T14:18:40.648Z</time></trkpt><trkpt lat="43.897183816130386" lon="11.192500199921911"><ele>202.0</ele><time>2026-05-01T14:18:41.647Z</time></trkpt><trkpt lat="43.896402037944966" lon="11.191660407461194"><ele>179.0</ele><time>2026-05-01T14:18:42.647Z</time></trkpt><trkpt lat="43.895616421175546" lon="11.1908254291243"><ele>175.0</ele><time>2026-05-01T14:18:43.648Z</time></trkpt><trkpt lat="43.89486802340184" lon="11.189937022812323"><ele>143.0</ele><time>2026-05-01T14:18:44.645Z</time></trkpt><trkpt lat="43.890714122584214" lon="11.185092780858755"><ele>136.5</ele><time>2026-05-01T14:21:36.996Z</time></trkpt><trkpt lat="43.89051120983221" lon="11.184830089325414"><ele>130.0</ele><time>2026-05-01T14:21:37.996Z</time></trkpt><trkpt lat="43.890315805088385" lon="11.184566622756973"><ele>130.0</ele><time>2026-05-01T14:21:38.996Z</time></trkpt><trkpt lat="43.890118876873615" lon="11.184314735551128"><ele>130.0</ele><time>2026-05-01T14:21:39.996Z</time></trkpt><trkpt lat="43.889914028273736" lon="11.184071862792575"><ele>121.5</ele><time>2026-05-01T14:21:41Z</time></trkpt><trkpt lat="43.88970506713719" lon="11.183842221778994"><ele>113.0</ele><time>2026-05-01T14:21:42Z</time></trkpt><trkpt lat="43.88949353561354" lon="11.18362100503637"><ele>113.0</ele><time>2026-05-01T14:21:43Z</time></trkpt><trkpt lat="43.88927391961791" lon="11.183404322387355"><ele>113.0</ele><time>2026-05-01T14:21:44Z</time></trkpt><trkpt lat="43.889061733376806" lon="11.183266531121841"><ele>108.0</ele><time>2026-05-01T14:21:45Z</time></trkpt><trkpt lat="43.88882502125653" lon="11.183100420508602"><ele>103.0</ele><time>2026-05-01T14:21:46Z</time></trkpt><trkpt lat="43.888626340458586" lon="11.182865739513822"><ele>102.5</ele><time>2026-05-01T14:21:47Z</time></trkpt><trkpt lat="43.888416048950546" lon="11.182661312825667"><ele>102.0</ele><time>2026-05-01T14:21:48Z</time></trkpt><trkpt lat="43.88817084066509" lon="11.182515331055308"><ele>102.0</ele><time>2026-05-01T14:21:49Z</time></trkpt><trkpt lat="43.887913659025585" lon="11.182376638302808"><ele>102.0</ele><time>2026-05-01T14:21:50Z</time></trkpt><trkpt lat="43.887650160658424" lon="11.182249379176925"><ele>98.0</ele><time>2026-05-01T14:21:51Z</time></trkpt><trkpt lat="43.887378086959835" lon="11.182132864447503"><ele>94.0</ele><time>2026-05-01T14:21:52Z</time></trkpt><trkpt lat="43.88709539851683" lon="11.182033605746769"><ele>94.0</ele><time>2026-05-01T14:21:53Z</time></trkpt><trkpt lat="43.88681554931241" lon="11.181941684660906"><ele>94.0</ele><time>2026-05-01T14:21:54Z</time></trkpt><trkpt lat="43.88655097096321" lon="11.181809591681198"><ele>94.0</ele><time>2026-05-01T14:21:55Z</time></trkpt><trkpt lat="43.88630443052307" lon="11.181633428794878"><ele>94.0</ele><time>2026-05-01T14:21:56Z</time></trkpt><trkpt lat="43.88605683686957" lon="11.181457440329538"><ele>92.5</ele><time>2026-05-01T14:21:57Z</time></trkpt><trkpt lat="43.88578468720788" lon="11.181285174720685"><ele>91.0</ele><time>2026-05-01T14:21:58Z</time></trkpt><trkpt lat="43.88547205763318" lon="11.181133682065498"><ele>91.0</ele><time>2026-05-01T14:21:59Z</time></trkpt><trkpt lat="43.8851611996728" lon="11.181028061618036"><ele>91.0</ele><time>2026-05-01T14:22:00Z</time></trkpt><trkpt lat="43.884808725151586" lon="11.18095792539546"><ele>91.0</ele><time>2026-05-01T14:22:01Z</time></trkpt><trkpt lat="43.88450878446385" lon="11.180928175457986"><ele>91.0</ele><time>2026-05-01T14:22:02Z</time></trkpt><trkpt lat="43.88421837633216" lon="11.180900742526633"><ele>91.0</ele><time>2026-05-01T14:22:03Z</time></trkpt><trkpt lat="43.883947091112596" lon="11.18092669695964"><ele>91.0</ele><time>2026-05-01T14:22:04Z</time></trkpt><trkpt lat="43.88366644447163" lon="11.180954185290645"><ele>91.0</ele><time>2026-05-01T14:22:05Z</time></trkpt><trkpt lat="43.883386093378284" lon="11.18099538944019"><ele>91.0</ele><time>2026-05-01T14:22:06Z</time></trkpt><trkpt lat="43.882845776973916" lon="11.18221994762393"><ele>93.5</ele><time>2026-05-01T14:22:07Z</time></trkpt><trkpt lat="43.882583357906995" lon="11.182298175579286"><ele>96.0</ele><time>2026-05-01T14:22:08Z</time></trkpt><trkpt lat="43.88230721198141" lon="11.182388964315257"><ele>101.0</ele><time>2026-05-01T14:22:09Z</time></trkpt><trkpt lat="43.882044731370144" lon="11.182422233456562"><ele>106.0</ele><time>2026-05-01T14:22:10Z</time></trkpt><trkpt lat="43.881778176067535" lon="11.182456112843298"><ele>110.5</ele><time>2026-05-01T14:22:11Z</time></trkpt><trkpt lat="43.881504511831196" lon="11.182487098357724"><ele>115.0</ele><time>2026-05-01T14:22:12Z</time></trkpt><trkpt lat="43.881244096288775" lon="11.182507118479279"><ele>115.0</ele><time>2026-05-01T14:22:13Z</time></trkpt><trkpt lat="43.88098871260265" lon="11.182527743124203"><ele>115.0</ele><time>2026-05-01T14:22:14Z</time></trkpt><trkpt lat="43.880716999819406" lon="11.182511418170208"><ele>117.5</ele><time>2026-05-01T14:22:15Z</time></trkpt><trkpt lat="43.88045351636746" lon="11.182487762201987"><ele>120.0</ele><time>2026-05-01T14:22:16Z</time></trkpt><trkpt lat="43.880191411837444" lon="11.182457476134276"><ele>134.0</ele><time>2026-05-01T14:22:17Z</time></trkpt><trkpt lat="43.87993022560757" lon="11.18242096165154"><ele>148.0</ele><time>2026-05-01T14:22:18Z</time></trkpt><trkpt lat="43.87965537624711" lon="11.182365756164664"><ele>155.5</ele><time>2026-05-01T14:22:19Z</time></trkpt><trkpt lat="43.87940330249922" lon="11.182304732184916"><ele>163.0</ele><time>2026-05-01T14:22:20Z</time></trkpt><trkpt lat="43.8791482882175" lon="11.18222936029826"><ele>163.0</ele><time>2026-05-01T14:22:21Z</time></trkpt><trkpt lat="43.87888270263617" lon="11.182136895829961"><ele>163.0</ele><time>2026-05-01T14:22:22Z</time></trkpt><trkpt lat="43.87861201496394" lon="11.182026847192029"><ele>181.5</ele><time>2026-05-01T14:22:23Z</time></trkpt><trkpt lat="43.878357945940685" lon="11.181911725973643"><ele>200.0</ele><time>2026-05-01T14:22:24Z</time></trkpt><trkpt lat="43.878108688701786" lon="11.181784519322713"><ele>200.0</ele><time>2026-05-01T14:22:25Z</time></trkpt><trkpt lat="43.877862682682355" lon="11.181646981079219"><ele>200.0</ele><time>2026-05-01T14:22:26Z</time></trkpt><trkpt lat="43.87762125381775" lon="11.181502316592422"><ele>204.0</ele><time>2026-05-01T14:22:27Z</time></trkpt><trkpt lat="43.87737386106696" lon="11.181355925246136"><ele>208.0</ele><time>2026-05-01T14:22:28Z</time></trkpt><trkpt lat="43.87713207481026" lon="11.181213181076878"><ele>208.0</ele><time>2026-05-01T14:22:29Z</time></trkpt><trkpt lat="43.8768569878736" lon="11.18105680077125"><ele>208.0</ele><time>2026-05-01T14:22:30Z</time></trkpt><trkpt lat="43.86579854055826" lon="11.174535257279969"><ele>166.66666666666666</ele><time>2026-05-01T14:23:32.999Z</time></trkpt><trkpt lat="43.865560257836016" lon="11.17466377299828"><ele>125.33333333333333</ele><time>2026-05-01T14:23:33.999Z</time></trkpt><trkpt lat="43.86556949341934" lon="11.174920513596982"><ele>84.0</ele><time>2026-05-01T14:23:34.999Z</time></trkpt><trkpt lat="43.86543855243611" lon="11.175156860116571"><ele>84.0</ele><time>2026-05-01T14:23:35.999Z</time></trkpt><trkpt lat="43.86549316599124" lon="11.175425302752377"><ele>84.0</ele><time>2026-05-01T14:23:36.999Z</time></trkpt><trkpt lat="43.86531218563761" lon="11.175559024965583"><ele>84.0</ele><time>2026-05-01T14:23:37.999Z</time></trkpt><trkpt lat="43.865056651004046" lon="11.175697706147906"><ele>84.5</ele><time>2026-05-01T14:23:38.999Z</time></trkpt><trkpt lat="43.86480835507434" lon="11.175841273783524"><ele>85.0</ele><time>2026-05-01T14:23:39.999Z</time></trkpt><trkpt lat="43.8645104983225" lon="11.175745250736442"><ele>83.5</ele><time>2026-05-01T14:23:40.999Z</time></trkpt><trkpt lat="43.86426056447145" lon="11.175851803774721"><ele>82.0</ele><time>2026-05-01T14:23:41.999Z</time></trkpt><trkpt lat="43.8640096586182" lon="11.175964208433372"><ele>82.0</ele><time>2026-05-01T14:23:42.999Z</time></trkpt><trkpt lat="43.86375992630358" lon="11.176073397819808"><ele>82.0</ele><time>2026-05-01T14:23:43.999Z</time></trkpt><trkpt lat="43.863521408242406" lon="11.176159318785045"><ele>81.0</ele><time>2026-05-01T14:23:44.999Z</time></trkpt><trkpt lat="43.863310788296296" lon="11.17618038672076"><ele>80.0</ele><time>2026-05-01T14:23:45.999Z</time></trkpt><trkpt lat="43.86308219413064" lon="11.176155967416996"><ele>79.0</ele><time>2026-05-01T14:23:47Z</time></trkpt><trkpt lat="43.86280335136334" lon="11.17669661778413"><ele>78.5</ele><time>2026-05-01T14:23:48Z</time></trkpt><trkpt lat="43.86255132033422" lon="11.176782239207393"><ele>78.0</ele><time>2026-05-01T14:23:49Z</time></trkpt><trkpt lat="43.86229976641725" lon="11.176873125726518"><ele>78.0</ele><time>2026-05-01T14:23:50Z</time></trkpt><trkpt lat="43.862044749541234" lon="11.176956446276584"><ele>78.0</ele><time>2026-05-01T14:23:51Z</time></trkpt><trkpt lat="43.86179099632271" lon="11.177032338557893"><ele>78.5</ele><time>2026-05-01T14:23:52Z</time></trkpt><trkpt lat="43.86153501652906" lon="11.177102767787257"><ele>79.0</ele><time>2026-05-01T14:23:53Z</time></trkpt><trkpt lat="43.86127603508421" lon="11.177178646160911"><ele>79.0</ele><time>2026-05-01T14:23:54Z</time></trkpt><trkpt lat="43.861010709766454" lon="11.177252713404526"><ele>79.0</ele><time>2026-05-01T14:23:55Z</time></trkpt><trkpt lat="43.860746467084056" lon="11.177328591040055"><ele>79.5</ele><time>2026-05-01T14:23:56Z</time></trkpt><trkpt lat="43.86050776729441" lon="11.177368037210496"><ele>80.0</ele><time>2026-05-01T14:23:57Z</time></trkpt><trkpt lat="43.86024225874808" lon="11.177417652536787"><ele>79.0</ele><time>2026-05-01T14:23:58Z</time></trkpt><trkpt lat="43.85996567873718" lon="11.177448372638896"><ele>78.0</ele><time>2026-05-01T14:23:59Z</time></trkpt><trkpt lat="43.85969415342731" lon="11.177469712724"><ele>78.0</ele><time>2026-05-01T14:24:00Z</time></trkpt><trkpt lat="43.859422617018616" lon="11.177479471670525"><ele>78.0</ele><time>2026-05-01T14:24:01Z</time></trkpt><trkpt lat="43.85915001552468" lon="11.17748004625856"><ele>77.5</ele><time>2026-05-01T14:24:02Z</time></trkpt><trkpt lat="43.85887730695255" lon="11.177466732422602"><ele>77.0</ele><time>2026-05-01T14:24:03Z</time></trkpt><trkpt lat="43.85860555069568" lon="11.177443233222494"><ele>77.0</ele><time>2026-05-01T14:24:04Z</time></trkpt><trkpt lat="43.85833583305299" lon="11.177404889937055"><ele>77.0</ele><time>2026-05-01T14:24:05Z</time></trkpt><trkpt lat="43.858065097512906" lon="11.177356588059654"><ele>77.0</ele><time>2026-05-01T14:24:06Z</time></trkpt><trkpt lat="43.857797376784646" lon="11.177290181054865"><ele>77.0</ele><time>2026-05-01T14:24:07Z</time></trkpt><trkpt lat="43.85752913831432" lon="11.177206849119537"><ele>75.5</ele><time>2026-05-01T14:24:08Z</time></trkpt><trkpt lat="43.85726153689821" lon="11.177115408610169"><ele>74.0</ele><time>2026-05-01T14:24:09Z</time></trkpt><trkpt lat="43.85699526720014" lon="11.177013008979"><ele>73.0</ele><time>2026-05-01T14:24:10Z</time></trkpt><trkpt lat="43.85673132705879" lon="11.17689758020316"><ele>72.0</ele><time>2026-05-01T14:24:11Z</time></trkpt><trkpt lat="43.85646989461455" lon="11.176769993314995"><ele>72.0</ele><time>2026-05-01T14:24:12Z</time></trkpt><trkpt lat="43.85620942869787" lon="11.176628526523983"><ele>72.0</ele><time>2026-05-01T14:24:13Z</time></trkpt><trkpt lat="43.855954067474435" lon="11.1764814814397"><ele>71.0</ele><time>2026-05-01T14:24:14Z</time></trkpt><trkpt lat="43.855702357943116" lon="11.176326077472144"><ele>70.0</ele><time>2026-05-01T14:24:15Z</time></trkpt><trkpt lat="43.85545636789179" lon="11.176152570154084"><ele>70.0</ele><time>2026-05-01T14:24:16Z</time></trkpt><trkpt lat="43.85521379456492" lon="11.175971850507889"><ele>70.0</ele><time>2026-05-01T14:24:17Z</time></trkpt><trkpt lat="43.854976947839695" lon="11.175781131952599"><ele>67.5</ele><time>2026-05-01T14:24:18Z</time></trkpt><trkpt lat="43.85473889811175" lon="11.175580776373664"><ele>65.0</ele><time>2026-05-01T14:24:19Z</time></trkpt><trkpt lat="43.85450574433443" lon="11.175375858188056"><ele>65.5</ele><time>2026-05-01T14:24:20Z</time></trkpt><trkpt lat="43.85427272733881" lon="11.175166032630475"><ele>66.0</ele><time>2026-05-01T14:24:21Z</time></trkpt><trkpt lat="43.85404069152799" lon="11.174958601507546"><ele>65.0</ele><time>2026-05-01T14:24:22Z</time></trkpt><trkpt lat="43.853808567306935" lon="11.1747520749937"><ele>64.0</ele><time>2026-05-01T14:24:23Z</time></trkpt><trkpt lat="43.853577673267694" lon="11.174549856167419"><ele>63.5</ele><time>2026-05-01T14:24:24Z</time></trkpt><trkpt lat="43.85334212054099" lon="11.174348681708068"><ele>63.0</ele><time>2026-05-01T14:24:25Z</time></trkpt><trkpt lat="43.85311033112299" lon="11.174150947073441"><ele>62.0</ele><time>2026-05-01T14:24:26Z</time></trkpt><trkpt lat="43.85288069865034" lon="11.17395426365166"><ele>61.0</ele><time>2026-05-01T14:24:27Z</time></trkpt><trkpt lat="43.85264965967352" lon="11.173758563178849"><ele>62.5</ele><time>2026-05-01T14:24:28Z</time></trkpt><trkpt lat="43.852417468786605" lon="11.173564689684545"><ele>64.0</ele><time>2026-05-01T14:24:29Z</time></trkpt><trkpt lat="43.85218785970556" lon="11.173373342080577"><ele>64.0</ele><time>2026-05-01T14:24:30Z</time></trkpt><trkpt lat="43.85195600441397" lon="11.173180782880829"><ele>64.0</ele><time>2026-05-01T14:24:31Z</time></trkpt><trkpt lat="43.85172994440987" lon="11.172984544665177"><ele>62.0</ele><time>2026-05-01T14:24:32Z</time></trkpt><trkpt lat="43.851501775744104" lon="11.172789236393413"><ele>60.0</ele><time>2026-05-01T14:24:33Z</time></trkpt><trkpt lat="43.85127792891453" lon="11.172593918825502"><ele>60.0</ele><time>2026-05-01T14:24:34Z</time></trkpt><trkpt lat="43.85105038440442" lon="11.172401454944147"><ele>60.0</ele><time>2026-05-01T14:24:35Z</time></trkpt><trkpt lat="43.85083078385809" lon="11.172205518796073"><ele>59.0</ele><time>2026-05-01T14:24:36Z</time></trkpt><trkpt lat="43.85060554883491" lon="11.172013303882679"><ele>58.0</ele><time>2026-05-01T14:24:37Z</time></trkpt><trkpt lat="43.850378485388596" lon="11.171822399872084"><ele>58.0</ele><time>2026-05-01T14:24:38Z</time></trkpt><trkpt lat="43.85015134205908" lon="11.171625231774192"><ele>58.0</ele><time>2026-05-01T14:24:39Z</time></trkpt><trkpt lat="43.84992283843475" lon="11.17143178111185"><ele>57.5</ele><time>2026-05-01T14:24:40Z</time></trkpt><trkpt lat="43.84969312461173" lon="11.17123654255768"><ele>57.0</ele><time>2026-05-01T14:24:41Z</time></trkpt><trkpt lat="43.849463182848986" lon="11.171037318726773"><ele>57.0</ele><time>2026-05-01T14:24:42Z</time></trkpt><trkpt lat="43.84923251942377" lon="11.170839708696688"><ele>57.0</ele><time>2026-05-01T14:24:43Z</time></trkpt><trkpt lat="43.84899742360108" lon="11.170640645303461"><ele>58.0</ele><time>2026-05-01T14:24:44Z</time></trkpt><trkpt lat="43.84876313390854" lon="11.170444179884749"><ele>59.0</ele><time>2026-05-01T14:24:44.999Z</time></trkpt><trkpt lat="43.84852784348872" lon="11.170244211463242"><ele>58.5</ele><time>2026-05-01T14:24:45.999Z</time></trkpt><trkpt lat="43.84829467385323" lon="11.170044779342733"><ele>58.0</ele><time>2026-05-01T14:24:46.999Z</time></trkpt><trkpt lat="43.84806012154144" lon="11.16984419405933"><ele>57.0</ele><time>2026-05-01T14:24:47.999Z</time></trkpt><trkpt lat="43.84782997704991" lon="11.169646133024054"><ele>56.0</ele><time>2026-05-01T14:24:48.999Z</time></trkpt><trkpt lat="43.84759552109541" lon="11.169446697108151"><ele>55.0</ele><time>2026-05-01T14:24:49.999Z</time></trkpt><trkpt lat="43.84736173152658" lon="11.169248566811813"><ele>54.0</ele><time>2026-05-01T14:24:50.999Z</time></trkpt><trkpt lat="43.84712780298351" lon="11.169049093187327"><ele>55.0</ele><time>2026-05-01T14:24:51.999Z</time></trkpt><trkpt lat="43.84689250177861" lon="11.168848423845041"><ele>56.0</ele><time>2026-05-01T14:24:52.999Z</time></trkpt><trkpt lat="43.846659238407476" lon="11.1686517593133"><ele>54.0</ele><time>2026-05-01T14:24:53.999Z</time></trkpt><trkpt lat="43.846427110671925" lon="11.168455852821902"><ele>52.0</ele><time>2026-05-01T14:24:54.999Z</time></trkpt><trkpt lat="43.84619443808456" lon="11.168260986927164"><ele>51.5</ele><time>2026-05-01T14:24:55.999Z</time></trkpt><trkpt lat="43.8459607205175" lon="11.168065585377523"><ele>51.0</ele><time>2026-05-01T14:24:56.999Z</time></trkpt><trkpt lat="43.845727084799464" lon="11.167866251621914"><ele>51.0</ele><time>2026-05-01T14:24:57.999Z</time></trkpt><trkpt lat="43.84549474258927" lon="11.16766779451155"><ele>51.0</ele><time>2026-05-01T14:24:58.999Z</time></trkpt><trkpt lat="43.84526029752503" lon="11.167468634405932"><ele>50.5</ele><time>2026-05-01T14:24:59.999Z</time></trkpt><trkpt lat="43.84502638087682" lon="11.16726839486139"><ele>50.0</ele><time>2026-05-01T14:25:00.999Z</time></trkpt><trkpt lat="43.84479301347101" lon="11.167070912736294"><ele>50.0</ele><time>2026-05-01T14:25:01.999Z</time></trkpt><trkpt lat="43.84455712268591" lon="11.166871914783137"><ele>50.0</ele><time>2026-05-01T14:25:02.999Z</time></trkpt><trkpt lat="43.844324072185415" lon="11.166675211258966"><ele>49.0</ele><time>2026-05-01T14:25:03.999Z</time></trkpt><trkpt lat="43.844090523493875" lon="11.166476565188272"><ele>48.0</ele><time>2026-05-01T14:25:04.999Z</time></trkpt><trkpt lat="43.843857321133235" lon="11.166277162418687"><ele>48.0</ele><time>2026-05-01T14:25:05.999Z</time></trkpt><trkpt lat="43.843624470522876" lon="11.166077933674432"><ele>48.0</ele><time>2026-05-01T14:25:06.999Z</time></trkpt><trkpt lat="43.843391178154576" lon="11.165876408124536"><ele>47.0</ele><time>2026-05-01T14:25:07.999Z</time></trkpt><trkpt lat="43.84315746291434" lon="11.165674553916704"><ele>46.0</ele><time>2026-05-01T14:25:08.999Z</time></trkpt><trkpt lat="43.842923117585265" lon="11.16547320787541"><ele>46.0</ele><time>2026-05-01T14:25:09.999Z</time></trkpt><trkpt lat="43.84268933447502" lon="11.165273288795388"><ele>46.0</ele><time>2026-05-01T14:25:10.999Z</time></trkpt><trkpt lat="43.84245740921731" lon="11.165077437937642"><ele>45.5</ele><time>2026-05-01T14:25:11.999Z</time></trkpt><trkpt lat="43.842224997863944" lon="11.164878566343024"><ele>45.0</ele><time>2026-05-01T14:25:12.999Z</time></trkpt><trkpt lat="43.84199330697074" lon="11.164681659507817"><ele>45.0</ele><time>2026-05-01T14:25:13.999Z</time></trkpt><trkpt lat="43.84176263751287" lon="11.164487514813125"><ele>45.0</ele><time>2026-05-01T14:25:14.999Z</time></trkpt><trkpt lat="43.84153317228385" lon="11.164293520144962"><ele>45.0</ele><time>2026-05-01T14:25:15.999Z</time></trkpt><trkpt lat="43.84130477102793" lon="11.164100487664538"><ele>45.0</ele><time>2026-05-01T14:25:16.999Z</time></trkpt><trkpt lat="43.84107569288978" lon="11.163903529828566"><ele>43.0</ele><time>2026-05-01T14:25:17.999Z</time></trkpt><trkpt lat="43.84084964679234" lon="11.163711691370999"><ele>41.0</ele><time>2026-05-01T14:25:18.999Z</time></trkpt><trkpt lat="43.84062674245552" lon="11.163517755604559"><ele>41.0</ele><time>2026-05-01T14:25:19.999Z</time></trkpt><trkpt lat="43.8404014679859" lon="11.163323021412628"><ele>41.0</ele><time>2026-05-01T14:25:20.999Z</time></trkpt><trkpt lat="43.840181710745675" lon="11.16312708211993"><ele>41.0</ele><time>2026-05-01T14:25:21.999Z</time></trkpt><trkpt lat="43.83994919124282" lon="11.162938864311666"><ele>41.0</ele><time>2026-05-01T14:25:22.999Z</time></trkpt><trkpt lat="43.83972523424347" lon="11.162747067056543"><ele>41.0</ele><time>2026-05-01T14:25:23.999Z</time></trkpt><trkpt lat="43.83950213944237" lon="11.162554702399245"><ele>41.0</ele><time>2026-05-01T14:25:24.999Z</time></trkpt><trkpt lat="43.83927515623571" lon="11.162362191439732"><ele>41.5</ele><time>2026-05-01T14:25:25.999Z</time></trkpt><trkpt lat="43.8390498235516" lon="11.162166786096295"><ele>42.0</ele><time>2026-05-01T14:25:26.999Z</time></trkpt><trkpt lat="43.838823951617826" lon="11.161973127752633"><ele>42.0</ele><time>2026-05-01T14:25:27.999Z</time></trkpt><trkpt lat="43.838598428331046" lon="11.161782690700234"><ele>42.0</ele><time>2026-05-01T14:25:28.999Z</time></trkpt><trkpt lat="43.83837078535957" lon="11.161591195829779"><ele>43.0</ele><time>2026-05-01T14:25:29.999Z</time></trkpt><trkpt lat="43.8381450758163" lon="11.161399129727426"><ele>44.0</ele><time>2026-05-01T14:25:30.999Z</time></trkpt><trkpt lat="43.83791781289193" lon="11.161206092065298"><ele>44.0</ele><time>2026-05-01T14:25:31.999Z</time></trkpt><trkpt lat="43.837692758887" lon="11.161011100798083"><ele>44.0</ele><time>2026-05-01T14:25:32.999Z</time></trkpt><trkpt lat="43.8374665365462" lon="11.160818727503058"><ele>42.5</ele><time>2026-05-01T14:25:33.999Z</time></trkpt><trkpt lat="43.83723969931278" lon="11.160621405310861"><ele>41.0</ele><time>2026-05-01T14:25:34.999Z</time></trkpt><trkpt lat="43.837013296911486" lon="11.160428930019627"><ele>41.0</ele><time>2026-05-01T14:25:35.999Z</time></trkpt><trkpt lat="43.8367883346822" lon="11.16023519395776"><ele>41.0</ele><time>2026-05-01T14:25:36.999Z</time></trkpt><trkpt lat="43.83656035851278" lon="11.160038287741456"><ele>40.5</ele><time>2026-05-01T14:25:37.999Z</time></trkpt><trkpt lat="43.83633549377537" lon="11.159843887028211"><ele>40.0</ele><time>2026-05-01T14:25:38.999Z</time></trkpt><trkpt lat="43.83610511689976" lon="11.1596468974569"><ele>38.5</ele><time>2026-05-01T14:25:39.999Z</time></trkpt><trkpt lat="43.83587662502605" lon="11.159448913622995"><ele>37.0</ele><time>2026-05-01T14:25:40.999Z</time></trkpt><trkpt lat="43.83564683349402" lon="11.15924935567826"><ele>37.0</ele><time>2026-05-01T14:25:41.999Z</time></trkpt><trkpt lat="43.835415838418996" lon="11.159047285470793"><ele>37.0</ele><time>2026-05-01T14:25:42.999Z</time></trkpt><trkpt lat="43.83518295346261" lon="11.158843387480456"><ele>37.0</ele><time>2026-05-01T14:25:43.999Z</time></trkpt><trkpt lat="43.834952648171" lon="11.15864175893503"><ele>37.0</ele><time>2026-05-01T14:25:44.999Z</time></trkpt><trkpt lat="43.8347204939768" lon="11.158439970507425"><ele>37.0</ele><time>2026-05-01T14:25:45.999Z</time></trkpt><trkpt lat="43.83448620091717" lon="11.158238445797565"><ele>37.0</ele><time>2026-05-01T14:25:46.999Z</time></trkpt><trkpt lat="43.83425330747186" lon="11.15803981027461"><ele>38.0</ele><time>2026-05-01T14:25:47.999Z</time></trkpt><trkpt lat="43.83401879221586" lon="11.157840147737623"><ele>39.0</ele><time>2026-05-01T14:25:48.999Z</time></trkpt><trkpt lat="43.83378470308432" lon="11.157640092088691"><ele>39.0</ele><time>2026-05-01T14:25:49.999Z</time></trkpt><trkpt lat="43.833552600157226" lon="11.157434839034204"><ele>39.0</ele><time>2026-05-01T14:25:50.999Z</time></trkpt><trkpt lat="43.83332220235613" lon="11.157230822967279"><ele>38.0</ele><time>2026-05-01T14:25:52Z</time></trkpt><trkpt lat="43.833091093535664" lon="11.157031316369263"><ele>37.0</ele><time>2026-05-01T14:25:53Z</time></trkpt><trkpt lat="43.83285679615112" lon="11.156833437209539"><ele>38.5</ele><time>2026-05-01T14:25:54Z</time></trkpt><trkpt lat="43.83262401144832" lon="11.156638063169076"><ele>40.0</ele><time>2026-05-01T14:25:55Z</time></trkpt><trkpt lat="43.83238941963397" lon="11.156440013485858"><ele>40.0</ele><time>2026-05-01T14:25:56Z</time></trkpt><trkpt lat="43.832156871969424" lon="11.156243148135392"><ele>40.0</ele><time>2026-05-01T14:25:57Z</time></trkpt><trkpt lat="43.83192350803999" lon="11.156041570221845"><ele>40.5</ele><time>2026-05-01T14:25:58Z</time></trkpt><trkpt lat="43.83169181391462" lon="11.155841434736079"><ele>41.0</ele><time>2026-05-01T14:25:59Z</time></trkpt><trkpt lat="43.83145759956172" lon="11.155640466604902"><ele>39.0</ele><time>2026-05-01T14:26:00Z</time></trkpt><trkpt lat="43.83122680867012" lon="11.155440938383176"><ele>37.0</ele><time>2026-05-01T14:26:01Z</time></trkpt><trkpt lat="43.83099514162809" lon="11.155241877974058"><ele>37.0</ele><time>2026-05-01T14:26:02Z</time></trkpt><trkpt lat="43.83076258879154" lon="11.155046125327834"><ele>37.0</ele><time>2026-05-01T14:26:03Z</time></trkpt><trkpt lat="43.83053246233302" lon="11.154852196682787"><ele>37.0</ele><time>2026-05-01T14:26:04Z</time></trkpt><trkpt lat="43.83030032339965" lon="11.154658281086913"><ele>37.0</ele><time>2026-05-01T14:26:05Z</time></trkpt><trkpt lat="43.83006937912963" lon="11.15446093426103"><ele>38.0</ele><time>2026-05-01T14:26:06Z</time></trkpt><trkpt lat="43.82983912678126" lon="11.15426255066655"><ele>39.0</ele><time>2026-05-01T14:26:07Z</time></trkpt><trkpt lat="43.82961190883353" lon="11.154065267945938"><ele>39.0</ele><time>2026-05-01T14:26:08Z</time></trkpt><trkpt lat="43.829381055931705" lon="11.15386786827884"><ele>39.0</ele><time>2026-05-01T14:26:09Z</time></trkpt><trkpt lat="43.829153301249335" lon="11.153676063354"><ele>39.5</ele><time>2026-05-01T14:26:10Z</time></trkpt><trkpt lat="43.82892255854926" lon="11.153485844629888"><ele>40.0</ele><time>2026-05-01T14:26:11Z</time></trkpt><trkpt lat="43.828690324443485" lon="11.153300304795577"><ele>39.0</ele><time>2026-05-01T14:26:12Z</time></trkpt><trkpt lat="43.82845720654388" lon="11.153118271493753"><ele>38.0</ele><time>2026-05-01T14:26:13Z</time></trkpt><trkpt lat="43.82822268995158" lon="11.152941856404892"><ele>38.0</ele><time>2026-05-01T14:26:14Z</time></trkpt><trkpt lat="43.82798563192614" lon="11.152770649497478"><ele>38.0</ele><time>2026-05-01T14:26:15Z</time></trkpt><trkpt lat="43.82774567913917" lon="11.152604927720303"><ele>38.0</ele><time>2026-05-01T14:26:16Z</time></trkpt><trkpt lat="43.82750309643539" lon="11.15244795862884"><ele>38.0</ele><time>2026-05-01T14:26:17Z</time></trkpt><trkpt lat="43.82725355514406" lon="11.152304004041898"><ele>37.5</ele><time>2026-05-01T14:26:18Z</time></trkpt><trkpt lat="43.826999691860294" lon="11.15217357386216"><ele>37.0</ele><time>2026-05-01T14:26:19Z</time></trkpt><trkpt lat="43.82674198842585" lon="11.152050939430936"><ele>37.0</ele><time>2026-05-01T14:26:20Z</time></trkpt><trkpt lat="43.8264819156316" lon="11.151935175324898"><ele>37.0</ele><time>2026-05-01T14:26:21Z</time></trkpt><trkpt lat="43.82622121870479" lon="11.151830783384217"><ele>37.5</ele><time>2026-05-01T14:26:22Z</time></trkpt><trkpt lat="43.82595621765916" lon="11.151737409433075"><ele>38.0</ele><time>2026-05-01T14:26:23Z</time></trkpt><trkpt lat="43.82568714820516" lon="11.151656461793678"><ele>38.0</ele><time>2026-05-01T14:26:24Z</time></trkpt><trkpt lat="43.82541545517347" lon="11.151588548007394"><ele>38.0</ele><time>2026-05-01T14:26:25Z</time></trkpt><trkpt lat="43.82514312721062" lon="11.151530965218123"><ele>38.0</ele><time>2026-05-01T14:26:26Z</time></trkpt><trkpt lat="43.824870374132246" lon="11.151484900836332"><ele>38.0</ele><time>2026-05-01T14:26:27Z</time></trkpt><trkpt lat="43.82459398354248" lon="11.151449359742704"><ele>38.0</ele><time>2026-05-01T14:26:28Z</time></trkpt><trkpt lat="43.82431515420528" lon="11.151426770108325"><ele>38.0</ele><time>2026-05-01T14:26:29Z</time></trkpt><trkpt lat="43.82403634938722" lon="11.151417437193412"><ele>37.0</ele><time>2026-05-01T14:26:30Z</time></trkpt><trkpt lat="43.823759758800314" lon="11.151418038819045"><ele>36.0</ele><time>2026-05-01T14:26:31Z</time></trkpt><trkpt lat="43.82348141605217" lon="11.151421157372768"><ele>36.0</ele><time>2026-05-01T14:26:32Z</time></trkpt><trkpt lat="43.82320447043529" lon="11.151424468833602"><ele>36.0</ele><time>2026-05-01T14:26:33Z</time></trkpt><trkpt lat="43.82292645262977" lon="11.151423505405152"><ele>36.0</ele><time>2026-05-01T14:26:34Z</time></trkpt><trkpt lat="43.82265195911789" lon="11.151419225826688"><ele>36.0</ele><time>2026-05-01T14:26:35Z</time></trkpt><trkpt lat="43.82237811598586" lon="11.15141554165544"><ele>35.5</ele><time>2026-05-01T14:26:36Z</time></trkpt><trkpt lat="43.822103574131496" lon="11.151414035598831"><ele>35.0</ele><time>2026-05-01T14:26:37Z</time></trkpt><trkpt lat="43.821827648183806" lon="11.151411301875871"><ele>35.0</ele><time>2026-05-01T14:26:38Z</time></trkpt><trkpt lat="43.82155261270426" lon="11.151410001734993"><ele>35.0</ele><time>2026-05-01T14:26:39Z</time></trkpt><trkpt lat="43.821278313799596" lon="11.151405947916965"><ele>35.0</ele><time>2026-05-01T14:26:40Z</time></trkpt><trkpt lat="43.82100574686987" lon="11.151400811201528"><ele>35.0</ele><time>2026-05-01T14:26:41Z</time></trkpt><trkpt lat="43.82073509186516" lon="11.151394037564028"><ele>35.5</ele><time>2026-05-01T14:26:42Z</time></trkpt><trkpt lat="43.8204663844499" lon="11.151391353330851"><ele>36.0</ele><time>2026-05-01T14:26:43Z</time></trkpt><trkpt lat="43.82020045826411" lon="11.151391137690778"><ele>36.0</ele><time>2026-05-01T14:26:43.999Z</time></trkpt><trkpt lat="43.81993576952715" lon="11.151389272996337"><ele>36.0</ele><time>2026-05-01T14:26:44.999Z</time></trkpt><trkpt lat="43.819669012098004" lon="11.15138486706854"><ele>36.0</ele><time>2026-05-01T14:26:45.999Z</time></trkpt><trkpt lat="43.81940254705051" lon="11.151381344631153"><ele>36.0</ele><time>2026-05-01T14:26:46.999Z</time></trkpt><trkpt lat="43.81913755713196" lon="11.15137580829989"><ele>36.5</ele><time>2026-05-01T14:26:47.999Z</time></trkpt><trkpt lat="43.818872278325415" lon="11.15137309396427"><ele>37.0</ele><time>2026-05-01T14:26:48.999Z</time></trkpt><trkpt lat="43.818607452212056" lon="11.151370257181512"><ele>35.5</ele><time>2026-05-01T14:26:49.999Z</time></trkpt><trkpt lat="43.81834195427653" lon="11.151364635714916"><ele>34.0</ele><time>2026-05-01T14:26:50.999Z</time></trkpt><trkpt lat="43.818076430358545" lon="11.151359948160167"><ele>34.0</ele><time>2026-05-01T14:26:51.999Z</time></trkpt><trkpt lat="43.81780912652615" lon="11.15135463411077"><ele>34.0</ele><time>2026-05-01T14:26:52.999Z</time></trkpt><trkpt lat="43.817539339030034" lon="11.151347383263575"><ele>34.5</ele><time>2026-05-01T14:26:53.999Z</time></trkpt><trkpt lat="43.81726687431959" lon="11.151341194477594"><ele>35.0</ele><time>2026-05-01T14:26:54.999Z</time></trkpt><trkpt lat="43.81699327270994" lon="11.151335586088607"><ele>36.0</ele><time>2026-05-01T14:26:55.999Z</time></trkpt><trkpt lat="43.816719005468414" lon="11.15132743316727"><ele>37.0</ele><time>2026-05-01T14:26:56.999Z</time></trkpt><trkpt lat="43.81644593430425" lon="11.151316358737922"><ele>37.0</ele><time>2026-05-01T14:26:57.999Z</time></trkpt><trkpt lat="43.816169297893275" lon="11.151304142673188"><ele>37.0</ele><time>2026-05-01T14:26:58.999Z</time></trkpt><trkpt lat="43.81589301675117" lon="11.151292401104152"><ele>35.5</ele><time>2026-05-01T14:26:59.999Z</time></trkpt><trkpt lat="43.81561744117664" lon="11.15128175162951"><ele>34.0</ele><time>2026-05-01T14:27:00.999Z</time></trkpt><trkpt lat="43.81534452839407" lon="11.151271183262436"><ele>34.0</ele><time>2026-05-01T14:27:01.999Z</time></trkpt><trkpt lat="43.81507220279189" lon="11.151265977034976"><ele>34.0</ele><time>2026-05-01T14:27:02.999Z</time></trkpt><trkpt lat="43.81480283979029" lon="11.1512624187168"><ele>34.0</ele><time>2026-05-01T14:27:03.999Z</time></trkpt><trkpt lat="43.81453425621894" lon="11.151258385357565"><ele>34.0</ele><time>2026-05-01T14:27:04.999Z</time></trkpt><trkpt lat="43.81426834815982" lon="11.151260216380543"><ele>34.0</ele><time>2026-05-01T14:27:05.999Z</time></trkpt><trkpt lat="43.814003174998035" lon="11.151269550415766"><ele>34.0</ele><time>2026-05-01T14:27:06.999Z</time></trkpt><trkpt lat="43.81373540178555" lon="11.151282690786877"><ele>34.0</ele><time>2026-05-01T14:27:07.999Z</time></trkpt><trkpt lat="43.81347105492827" lon="11.151299668747223"><ele>34.0</ele><time>2026-05-01T14:27:08.999Z</time></trkpt><trkpt lat="43.81320819875998" lon="11.151326101258716"><ele>34.0</ele><time>2026-05-01T14:27:09.999Z</time></trkpt><trkpt lat="43.81294472529507" lon="11.151366620739264"><ele>34.0</ele><time>2026-05-01T14:27:10.999Z</time></trkpt><trkpt lat="43.81268280598995" lon="11.15141062650096"><ele>34.5</ele><time>2026-05-01T14:27:11.999Z</time></trkpt><trkpt lat="43.81242278182652" lon="11.151461793192292"><ele>35.0</ele><time>2026-05-01T14:27:12.999Z</time></trkpt><trkpt lat="43.812165994425186" lon="11.151523077719297"><ele>35.0</ele><time>2026-05-01T14:27:13.999Z</time></trkpt><trkpt lat="43.811910116749125" lon="11.151591587897517"><ele>35.0</ele><time>2026-05-01T14:27:14.999Z</time></trkpt><trkpt lat="43.811654816420294" lon="11.151665593434846"><ele>34.5</ele><time>2026-05-01T14:27:15.999Z</time></trkpt><trkpt lat="43.81139797578982" lon="11.151738269311554"><ele>34.0</ele><time>2026-05-01T14:27:16.999Z</time></trkpt><trkpt lat="43.811141100334545" lon="11.151809441847423"><ele>34.0</ele><time>2026-05-01T14:27:17.999Z</time></trkpt><trkpt lat="43.81088310655369" lon="11.151880400310072"><ele>34.0</ele><time>2026-05-01T14:27:18.999Z</time></trkpt><trkpt lat="43.8106242412651" lon="11.151950801615214"><ele>34.0</ele><time>2026-05-01T14:27:19.999Z</time></trkpt><trkpt lat="43.810362037436626" lon="11.152022978921059"><ele>34.0</ele><time>2026-05-01T14:27:20.999Z</time></trkpt><trkpt lat="43.81009982256797" lon="11.152096522150151"><ele>36.0</ele><time>2026-05-01T14:27:21.999Z</time></trkpt><trkpt lat="43.80983424384597" lon="11.152172489723595"><ele>38.0</ele><time>2026-05-01T14:27:22.999Z</time></trkpt><trkpt lat="43.80956598066148" lon="11.15224835329691"><ele>37.0</ele><time>2026-05-01T14:27:23.999Z</time></trkpt><trkpt lat="43.809297635004" lon="11.152323463705814"><ele>36.0</ele><time>2026-05-01T14:27:24.999Z</time></trkpt><trkpt lat="43.8090293105816" lon="11.152399295436027"><ele>36.0</ele><time>2026-05-01T14:27:25.999Z</time></trkpt><trkpt lat="43.808760962078146" lon="11.15247055247567"><ele>36.0</ele><time>2026-05-01T14:27:26.999Z</time></trkpt><trkpt lat="43.80849113540948" lon="11.152540731049335"><ele>35.0</ele><time>2026-05-01T14:27:27.999Z</time></trkpt><trkpt lat="43.80822044058931" lon="11.1526153832612"><ele>34.0</ele><time>2026-05-01T14:27:28.999Z</time></trkpt><trkpt lat="43.807949191365545" lon="11.152691201478007"><ele>34.0</ele><time>2026-05-01T14:27:29.999Z</time></trkpt><trkpt lat="43.807678000001744" lon="11.15276643054848"><ele>34.0</ele><time>2026-05-01T14:27:30.999Z</time></trkpt><trkpt lat="43.80740860307294" lon="11.152842287444102"><ele>34.0</ele><time>2026-05-01T14:27:31.999Z</time></trkpt><trkpt lat="43.80714064801225" lon="11.152916917231689"><ele>34.0</ele><time>2026-05-01T14:27:32.999Z</time></trkpt><trkpt lat="43.80687286944988" lon="11.152991358105927"><ele>33.0</ele><time>2026-05-01T14:27:33.999Z</time></trkpt><trkpt lat="43.80660649390726" lon="11.15306713628943"><ele>32.0</ele><time>2026-05-01T14:27:34.999Z</time></trkpt><trkpt lat="43.806341993107225" lon="11.153143495142269"><ele>32.5</ele><time>2026-05-01T14:27:35.999Z</time></trkpt><trkpt lat="43.80607774924512" lon="11.153220455663055"><ele>33.0</ele><time>2026-05-01T14:27:36.999Z</time></trkpt><trkpt lat="43.805813411859944" lon="11.15329493093215"><ele>33.5</ele><time>2026-05-01T14:27:37.999Z</time></trkpt><trkpt lat="43.80554983987522" lon="11.153368509904444"><ele>34.0</ele><time>2026-05-01T14:27:38.999Z</time></trkpt><trkpt lat="43.8052874871109" lon="11.153442471943428"><ele>35.5</ele><time>2026-05-01T14:27:39.999Z</time></trkpt><trkpt lat="43.805025132488716" lon="11.153515661004944"><ele>37.0</ele><time>2026-05-01T14:27:40.999Z</time></trkpt><trkpt lat="43.804762749276065" lon="11.153589788482842"><ele>37.0</ele><time>2026-05-01T14:27:41.999Z</time></trkpt><trkpt lat="43.804501203897786" lon="11.153662336407379"><ele>37.0</ele><time>2026-05-01T14:27:42.999Z</time></trkpt><trkpt lat="43.804241071626144" lon="11.153738067639388"><ele>36.0</ele><time>2026-05-01T14:27:43.999Z</time></trkpt><trkpt lat="43.80398123825671" lon="11.153815347329637"><ele>35.0</ele><time>2026-05-01T14:27:44.999Z</time></trkpt><trkpt lat="43.80372077913792" lon="11.153885927592523"><ele>34.5</ele><time>2026-05-01T14:27:45.999Z</time></trkpt><trkpt lat="43.80346057635518" lon="11.153954801830103"><ele>34.0</ele><time>2026-05-01T14:27:46.999Z</time></trkpt><trkpt lat="43.803203270595105" lon="11.154029811380209"><ele>34.0</ele><time>2026-05-01T14:27:47.999Z</time></trkpt><trkpt lat="43.8029458326352" lon="11.154104475043063"><ele>34.0</ele><time>2026-05-01T14:27:48.999Z</time></trkpt><trkpt lat="43.80268787199782" lon="11.154174481005514"><ele>35.0</ele><time>2026-05-01T14:27:49.999Z</time></trkpt><trkpt lat="43.80242799312584" lon="11.154241262105705"><ele>36.0</ele><time>2026-05-01T14:27:50.999Z</time></trkpt><trkpt lat="43.80216903644188" lon="11.154310597079382"><ele>36.0</ele><time>2026-05-01T14:27:51.999Z</time></trkpt><trkpt lat="43.80190893580865" lon="11.15438509119763"><ele>36.0</ele><time>2026-05-01T14:27:52.999Z</time></trkpt><trkpt lat="43.80164941171666" lon="11.154461229260605"><ele>36.5</ele><time>2026-05-01T14:27:53.999Z</time></trkpt><trkpt lat="43.80138781762104" lon="11.154537514061985"><ele>37.0</ele><time>2026-05-01T14:27:54.999Z</time></trkpt><trkpt lat="43.80112334833824" lon="11.154612063636938"><ele>35.5</ele><time>2026-05-01T14:27:55.999Z</time></trkpt><trkpt lat="43.800860110301635" lon="11.154685287962785"><ele>34.0</ele><time>2026-05-01T14:27:56.999Z</time></trkpt><trkpt lat="43.80059410255513" lon="11.154758576121363"><ele>34.0</ele><time>2026-05-01T14:27:58Z</time></trkpt><trkpt lat="43.80032603926919" lon="11.154831204307776"><ele>34.0</ele><time>2026-05-01T14:27:59Z</time></trkpt><trkpt lat="43.800057459165764" lon="11.154903968275955"><ele>35.0</ele><time>2026-05-01T14:28:00Z</time></trkpt><trkpt lat="43.799790148633896" lon="11.154979520492159"><ele>36.0</ele><time>2026-05-01T14:28:01Z</time></trkpt><trkpt lat="43.79951942913167" lon="11.15505683540272"><ele>35.5</ele><time>2026-05-01T14:28:02Z</time></trkpt><trkpt lat="43.79924861755524" lon="11.155132302229308"><ele>35.0</ele><time>2026-05-01T14:28:03Z</time></trkpt><trkpt lat="43.79897838307" lon="11.155207561588341"><ele>35.0</ele><time>2026-05-01T14:28:04Z</time></trkpt><trkpt lat="43.7987052248189" lon="11.155284509476166"><ele>35.0</ele><time>2026-05-01T14:28:05Z</time></trkpt><trkpt lat="43.79843199845386" lon="11.155360677021543"><ele>35.5</ele><time>2026-05-01T14:28:06Z</time></trkpt><trkpt lat="43.798159838864" lon="11.155435837605834"><ele>36.0</ele><time>2026-05-01T14:28:07Z</time></trkpt><trkpt lat="43.797887235134525" lon="11.155510878069968"><ele>35.5</ele><time>2026-05-01T14:28:08Z</time></trkpt><trkpt lat="43.79761571526171" lon="11.15558755458936"><ele>35.0</ele><time>2026-05-01T14:28:09Z</time></trkpt><trkpt lat="43.797346455021604" lon="11.155662776308164"><ele>35.0</ele><time>2026-05-01T14:28:10Z</time></trkpt><trkpt lat="43.79707854019186" lon="11.155736255277617"><ele>35.0</ele><time>2026-05-01T14:28:11Z</time></trkpt><trkpt lat="43.79680789727501" lon="11.15581068271896"><ele>35.0</ele><time>2026-05-01T14:28:12Z</time></trkpt><trkpt lat="43.79653612497836" lon="11.155886378325812"><ele>35.0</ele><time>2026-05-01T14:28:13Z</time></trkpt><trkpt lat="43.79626514520281" lon="11.155964756017275"><ele>35.0</ele><time>2026-05-01T14:28:14Z</time></trkpt><trkpt lat="43.795993465912204" lon="11.156043052707634"><ele>35.0</ele><time>2026-05-01T14:28:15Z</time></trkpt><trkpt lat="43.79572068943016" lon="11.156119588216356"><ele>35.0</ele><time>2026-05-01T14:28:16Z</time></trkpt><trkpt lat="43.79544802758813" lon="11.156194686394272"><ele>35.0</ele><time>2026-05-01T14:28:17Z</time></trkpt><trkpt lat="43.795174949939494" lon="11.1562723716362"><ele>35.0</ele><time>2026-05-01T14:28:18Z</time></trkpt><trkpt lat="43.794902340110795" lon="11.156348150406924"><ele>35.0</ele><time>2026-05-01T14:28:19Z</time></trkpt><trkpt lat="43.79463106691229" lon="11.156423198308609"><ele>35.0</ele><time>2026-05-01T14:28:20Z</time></trkpt><trkpt lat="43.7943612657301" lon="11.156497925398671"><ele>35.0</ele><time>2026-05-01T14:28:21Z</time></trkpt><trkpt lat="43.79409175403021" lon="11.156574110891274"><ele>35.5</ele><time>2026-05-01T14:28:22Z</time></trkpt><trkpt lat="43.79382154965818" lon="11.156649578086434"><ele>36.0</ele><time>2026-05-01T14:28:23Z</time></trkpt><trkpt lat="43.79355299883227" lon="11.15672273000598"><ele>37.5</ele><time>2026-05-01T14:28:24Z</time></trkpt><trkpt lat="43.79328333909768" lon="11.15679895655559"><ele>39.0</ele><time>2026-05-01T14:28:25Z</time></trkpt><trkpt lat="43.79301386173072" lon="11.15687281190722"><ele>39.0</ele><time>2026-05-01T14:28:26Z</time></trkpt><trkpt lat="43.79274666152099" lon="11.156948204184584"><ele>39.0</ele><time>2026-05-01T14:28:27Z</time></trkpt><trkpt lat="43.792480378500635" lon="11.157023901418981"><ele>37.5</ele><time>2026-05-01T14:28:28Z</time></trkpt><trkpt lat="43.792214251595574" lon="11.157099076473044"><ele>36.0</ele><time>2026-05-01T14:28:29Z</time></trkpt><trkpt lat="43.79195081105052" lon="11.157173499227703"><ele>36.0</ele><time>2026-05-01T14:28:30Z</time></trkpt><trkpt lat="43.79168992285868" lon="11.15724826596087"><ele>36.0</ele><time>2026-05-01T14:28:31Z</time></trkpt><trkpt lat="43.791427671272466" lon="11.157321074832678"><ele>36.5</ele><time>2026-05-01T14:28:32Z</time></trkpt><trkpt lat="43.791165607415664" lon="11.15739348077585"><ele>37.0</ele><time>2026-05-01T14:28:33Z</time></trkpt><trkpt lat="43.79090143543702" lon="11.157467798842747"><ele>37.0</ele><time>2026-05-01T14:28:34Z</time></trkpt><trkpt lat="43.79063483329651" lon="11.15754074342434"><ele>37.0</ele><time>2026-05-01T14:28:35Z</time></trkpt><trkpt lat="43.79036523385169" lon="11.157612533343707"><ele>37.0</ele><time>2026-05-01T14:28:36Z</time></trkpt><trkpt lat="43.79009561503858" lon="11.157687949319596"><ele>37.0</ele><time>2026-05-01T14:28:37Z</time></trkpt><trkpt lat="43.789825782378585" lon="11.15776510263257"><ele>37.0</ele><time>2026-05-01T14:28:38Z</time></trkpt><trkpt lat="43.789554728885726" lon="11.157842084272621"><ele>37.0</ele><time>2026-05-01T14:28:39Z</time></trkpt><trkpt lat="43.78928512949105" lon="11.157918278592808"><ele>36.5</ele><time>2026-05-01T14:28:40Z</time></trkpt><trkpt lat="43.78901724017585" lon="11.157995065923341"><ele>36.0</ele><time>2026-05-01T14:28:41Z</time></trkpt><trkpt lat="43.7887479374784" lon="11.158070896934248"><ele>36.5</ele><time>2026-05-01T14:28:42Z</time></trkpt><trkpt lat="43.78848000957277" lon="11.158146531158476"><ele>37.0</ele><time>2026-05-01T14:28:43Z</time></trkpt><trkpt lat="43.78821109832035" lon="11.158219936823953"><ele>38.0</ele><time>2026-05-01T14:28:43.999Z</time></trkpt><trkpt lat="43.787946331296446" lon="11.158291248914187"><ele>39.0</ele><time>2026-05-01T14:28:44.999Z</time></trkpt><trkpt lat="43.78767915670756" lon="11.158363248206978"><ele>38.5</ele><time>2026-05-01T14:28:45.999Z</time></trkpt><trkpt lat="43.78741288101069" lon="11.158437532256716"><ele>38.0</ele><time>2026-05-01T14:28:46.999Z</time></trkpt><trkpt lat="43.787151551315475" lon="11.158513496450036"><ele>38.0</ele><time>2026-05-01T14:28:47.999Z</time></trkpt><trkpt lat="43.786889254973005" lon="11.15858897493068"><ele>38.0</ele><time>2026-05-01T14:28:48.999Z</time></trkpt><trkpt lat="43.78662529101304" lon="11.158665581101936"><ele>37.0</ele><time>2026-05-01T14:28:49.999Z</time></trkpt><trkpt lat="43.786361807803104" lon="11.158740041686002"><ele>36.0</ele><time>2026-05-01T14:28:50.999Z</time></trkpt><trkpt lat="43.78609714580468" lon="11.158814835027833"><ele>36.5</ele><time>2026-05-01T14:28:51.999Z</time></trkpt><trkpt lat="43.785835904094995" lon="11.158888446082194"><ele>37.0</ele><time>2026-05-01T14:28:52.999Z</time></trkpt><trkpt lat="43.785574374893585" lon="11.158960959081718"><ele>37.5</ele><time>2026-05-01T14:28:53.999Z</time></trkpt><trkpt lat="43.78531231856756" lon="11.1590352865465"><ele>38.0</ele><time>2026-05-01T14:28:54.999Z</time></trkpt><trkpt lat="43.78505144715615" lon="11.159111003108828"><ele>38.0</ele><time>2026-05-01T14:28:55.999Z</time></trkpt><trkpt lat="43.78479126227816" lon="11.159183533270747"><ele>38.0</ele><time>2026-05-01T14:28:56.999Z</time></trkpt><trkpt lat="43.78453168080572" lon="11.159256864064544"><ele>37.5</ele><time>2026-05-01T14:28:57.999Z</time></trkpt><trkpt lat="43.784273376002325" lon="11.15933550693749"><ele>37.0</ele><time>2026-05-01T14:28:58.999Z</time></trkpt><trkpt lat="43.78401390723744" lon="11.159420476251581"><ele>37.0</ele><time>2026-05-01T14:28:59.999Z</time></trkpt><trkpt lat="43.78375429755075" lon="11.159505478760058"><ele>37.0</ele><time>2026-05-01T14:29:00.999Z</time></trkpt><trkpt lat="43.783492443944965" lon="11.15958999562286"><ele>37.0</ele><time>2026-05-01T14:29:01.999Z</time></trkpt><trkpt lat="43.78322637642853" lon="11.15966783931127"><ele>37.0</ele><time>2026-05-01T14:29:02.999Z</time></trkpt><trkpt lat="43.782959598233454" lon="11.15974043040936"><ele>37.0</ele><time>2026-05-01T14:29:03.999Z</time></trkpt><trkpt lat="43.782691911561706" lon="11.159811326071852"><ele>37.0</ele><time>2026-05-01T14:29:04.999Z</time></trkpt><trkpt lat="43.782422926907884" lon="11.159883291167636"><ele>36.0</ele><time>2026-05-01T14:29:05.999Z</time></trkpt><trkpt lat="43.78215368411122" lon="11.159958048519538"><ele>35.0</ele><time>2026-05-01T14:29:06.999Z</time></trkpt><trkpt lat="43.78188277845968" lon="11.16003161681574"><ele>34.5</ele><time>2026-05-01T14:29:07.999Z</time></trkpt><trkpt lat="43.78161050946602" lon="11.160104409462397"><ele>34.0</ele><time>2026-05-01T14:29:08.999Z</time></trkpt><trkpt lat="43.781338326451994" lon="11.160172691523128"><ele>34.0</ele><time>2026-05-01T14:29:09.999Z</time></trkpt><trkpt lat="43.781066907758884" lon="11.1602393368108"><ele>34.0</ele><time>2026-05-01T14:29:10.999Z</time></trkpt><trkpt lat="43.780796716598054" lon="11.160306620932507"><ele>35.0</ele><time>2026-05-01T14:29:11.999Z</time></trkpt><trkpt lat="43.78052530514414" lon="11.16037802213536"><ele>36.0</ele><time>2026-05-01T14:29:12.999Z</time></trkpt><trkpt lat="43.78025467759553" lon="11.160450854322617"><ele>35.0</ele><time>2026-05-01T14:29:13.999Z</time></trkpt><trkpt lat="43.779983288643955" lon="11.160524679016657"><ele>34.0</ele><time>2026-05-01T14:29:14.999Z</time></trkpt><trkpt lat="43.779712354494386" lon="11.160598164445103"><ele>34.0</ele><time>2026-05-01T14:29:15.999Z</time></trkpt><trkpt lat="43.77944321172828" lon="11.160673101254611"><ele>34.0</ele><time>2026-05-01T14:29:16.999Z</time></trkpt><trkpt lat="43.77917303573869" lon="11.160747847656195"><ele>35.5</ele><time>2026-05-01T14:29:17.999Z</time></trkpt><trkpt lat="43.77890372745053" lon="11.160820770422713"><ele>37.0</ele><time>2026-05-01T14:29:18.999Z</time></trkpt><trkpt lat="43.778636725054085" lon="11.16089479469709"><ele>36.0</ele><time>2026-05-01T14:29:19.999Z</time></trkpt><trkpt lat="43.77837021376165" lon="11.160969351489094"><ele>35.0</ele><time>2026-05-01T14:29:20.999Z</time></trkpt><trkpt lat="43.77810419285425" lon="11.161045211827732"><ele>35.0</ele><time>2026-05-01T14:29:21.999Z</time></trkpt><trkpt lat="43.777839751363615" lon="11.161120319058194"><ele>35.0</ele><time>2026-05-01T14:29:22.999Z</time></trkpt><trkpt lat="43.77757560268737" lon="11.161195055288928"><ele>34.5</ele><time>2026-05-01T14:29:23.999Z</time></trkpt><trkpt lat="43.77731225719977" lon="11.161267938749793"><ele>34.0</ele><time>2026-05-01T14:29:24.999Z</time></trkpt><trkpt lat="43.777049351332934" lon="11.161340784810431"><ele>35.0</ele><time>2026-05-01T14:29:25.999Z</time></trkpt><trkpt lat="43.776789196746286" lon="11.161411372926871"><ele>36.0</ele><time>2026-05-01T14:29:26.999Z</time></trkpt><trkpt lat="43.77652941008239" lon="11.161482140132035"><ele>36.5</ele><time>2026-05-01T14:29:27.999Z</time></trkpt><trkpt lat="43.776269593823784" lon="11.16155474277862"><ele>37.0</ele><time>2026-05-01T14:29:28.999Z</time></trkpt><trkpt lat="43.77601030776404" lon="11.161629034094059"><ele>35.5</ele><time>2026-05-01T14:29:29.999Z</time></trkpt><trkpt lat="43.77575055905446" lon="11.161706574935877"><ele>34.0</ele><time>2026-05-01T14:29:30.999Z</time></trkpt><trkpt lat="43.775491053276745" lon="11.161782321674846"><ele>34.0</ele><time>2026-05-01T14:29:31.999Z</time></trkpt><trkpt lat="43.77523011295379" lon="11.16185596478699"><ele>34.0</ele><time>2026-05-01T14:29:32.999Z</time></trkpt><trkpt lat="43.77496913875842" lon="11.16192670409922"><ele>34.5</ele><time>2026-05-01T14:29:33.999Z</time></trkpt><trkpt lat="43.774707225330104" lon="11.161998612682178"><ele>35.0</ele><time>2026-05-01T14:29:34.999Z</time></trkpt><trkpt lat="43.77444338284993" lon="11.162070181799766"><ele>34.5</ele><time>2026-05-01T14:29:35.999Z</time></trkpt><trkpt lat="43.77418078211207" lon="11.16214328109577"><ele>34.0</ele><time>2026-05-01T14:29:36.999Z</time></trkpt><trkpt lat="43.77391606632312" lon="11.162218998132701"><ele>34.0</ele><time>2026-05-01T14:29:37.999Z</time></trkpt><trkpt lat="43.773650844114954" lon="11.162297171600226"><ele>34.0</ele><time>2026-05-01T14:29:38.999Z</time></trkpt><trkpt lat="43.77338493851401" lon="11.162379594880017"><ele>34.5</ele><time>2026-05-01T14:29:39.999Z</time></trkpt><trkpt lat="43.77312062807152" lon="11.162472685241577"><ele>35.0</ele><time>2026-05-01T14:29:40.999Z</time></trkpt><trkpt lat="43.772856206348166" lon="11.16257250273554"><ele>35.0</ele><time>2026-05-01T14:29:41.999Z</time></trkpt><trkpt lat="43.77259136373007" lon="11.162673497120457"><ele>35.0</ele><time>2026-05-01T14:29:42.999Z</time></trkpt><trkpt lat="43.77232693302924" lon="11.16277392672105"><ele>35.0</ele><time>2026-05-01T14:29:43.999Z</time></trkpt><trkpt lat="43.7720673915435" lon="11.162888534064694"><ele>35.0</ele><time>2026-05-01T14:29:44.999Z</time></trkpt><trkpt lat="43.77181081285749" lon="11.163011700202984"><ele>35.5</ele><time>2026-05-01T14:29:45.999Z</time></trkpt><trkpt lat="43.77155531409531" lon="11.16313462173509"><ele>36.0</ele><time>2026-05-01T14:29:46.999Z</time></trkpt><trkpt lat="43.77130348499746" lon="11.16326216865026"><ele>36.0</ele><time>2026-05-01T14:29:47.999Z</time></trkpt><trkpt lat="43.77105478198627" lon="11.163402609674517"><ele>36.0</ele><time>2026-05-01T14:29:48.999Z</time></trkpt><trkpt lat="43.770808741728196" lon="11.163548890489594"><ele>36.0</ele><time>2026-05-01T14:29:49.999Z</time></trkpt><trkpt lat="43.77056434169528" lon="11.163696224860141"><ele>36.0</ele><time>2026-05-01T14:29:50.999Z</time></trkpt><trkpt lat="43.770324487951136" lon="11.163846714931056"><ele>36.5</ele><time>2026-05-01T14:29:51.999Z</time></trkpt><trkpt lat="43.770084846888615" lon="11.16400396832766"><ele>37.0</ele><time>2026-05-01T14:29:52.999Z</time></trkpt><trkpt lat="43.76984627871285" lon="11.164164404922069"><ele>37.0</ele><time>2026-05-01T14:29:53.999Z</time></trkpt><trkpt lat="43.7696135478671" lon="11.16433237061869"><ele>37.0</ele><time>2026-05-01T14:29:54.999Z</time></trkpt><trkpt lat="43.76937957054093" lon="11.164497985629481"><ele>39.0</ele><time>2026-05-01T14:29:55.999Z</time></trkpt><trkpt lat="43.769147170142375" lon="11.164662963999696"><ele>41.0</ele><time>2026-05-01T14:29:56.999Z</time></trkpt><trkpt lat="43.7689147905044" lon="11.16483388842134"><ele>40.5</ele><time>2026-05-01T14:29:57.999Z</time></trkpt><trkpt lat="43.768679670527085" lon="11.16500720663145"><ele>40.0</ele><time>2026-05-01T14:29:58.999Z</time></trkpt><trkpt lat="43.7684438244206" lon="11.165182850801246"><ele>39.0</ele><time>2026-05-01T14:29:59.999Z</time></trkpt><trkpt lat="43.76820646290411" lon="11.165358675774215"><ele>38.0</ele><time>2026-05-01T14:30:00.999Z</time></trkpt><trkpt lat="43.767967313892036" lon="11.165531071753492"><ele>38.0</ele><time>2026-05-01T14:30:01.999Z</time></trkpt><trkpt lat="43.76772904738323" lon="11.165703144249903"><ele>38.0</ele><time>2026-05-01T14:30:03Z</time></trkpt><trkpt lat="43.767493073146184" lon="11.165878928369157"><ele>37.5</ele><time>2026-05-01T14:30:04Z</time></trkpt><trkpt lat="43.767255384577" lon="11.166053006295197"><ele>37.0</ele><time>2026-05-01T14:30:05Z</time></trkpt><trkpt lat="43.76701104081662" lon="11.166231206996923"><ele>37.0</ele><time>2026-05-01T14:30:06Z</time></trkpt><trkpt lat="43.76676769106418" lon="11.166414084223105"><ele>37.0</ele><time>2026-05-01T14:30:07Z</time></trkpt><trkpt lat="43.76652460266731" lon="11.16659533044034"><ele>37.0</ele><time>2026-05-01T14:30:08Z</time></trkpt><trkpt lat="43.766281508403985" lon="11.166772667130786"><ele>37.0</ele><time>2026-05-01T14:30:09Z</time></trkpt><trkpt lat="43.766035253135904" lon="11.166950869262005"><ele>37.5</ele><time>2026-05-01T14:30:10Z</time></trkpt><trkpt lat="43.76578605196954" lon="11.16713091295121"><ele>38.0</ele><time>2026-05-01T14:30:11Z</time></trkpt><trkpt lat="43.765534772605996" lon="11.167308804752576"><ele>38.0</ele><time>2026-05-01T14:30:12Z</time></trkpt><trkpt lat="43.76528289836793" lon="11.167485932447619"><ele>38.0</ele><time>2026-05-01T14:30:13Z</time></trkpt><trkpt lat="43.76503182761062" lon="11.167664604182029"><ele>37.5</ele><time>2026-05-01T14:30:14Z</time></trkpt><trkpt lat="43.7647822434945" lon="11.16784067347448"><ele>37.0</ele><time>2026-05-01T14:30:15Z</time></trkpt><trkpt lat="43.76453333193047" lon="11.16801186300843"><ele>37.5</ele><time>2026-05-01T14:30:16Z</time></trkpt><trkpt lat="43.76427836415196" lon="11.168178526304322"><ele>38.0</ele><time>2026-05-01T14:30:17Z</time></trkpt><trkpt lat="43.76402104636981" lon="11.168337139532953"><ele>38.5</ele><time>2026-05-01T14:30:18Z</time></trkpt><trkpt lat="43.76376480498702" lon="11.168480786018955"><ele>39.0</ele><time>2026-05-01T14:30:19Z</time></trkpt><trkpt lat="43.7635112189403" lon="11.16861609111802"><ele>39.5</ele><time>2026-05-01T14:30:20Z</time></trkpt><trkpt lat="43.76326468144097" lon="11.168743258730304"><ele>40.0</ele><time>2026-05-01T14:30:21Z</time></trkpt><trkpt lat="43.76301147127664" lon="11.168865977247087"><ele>40.0</ele><time>2026-05-01T14:30:22Z</time></trkpt><trkpt lat="43.76274115614691" lon="11.168990136158085"><ele>40.0</ele><time>2026-05-01T14:30:23Z</time></trkpt><trkpt lat="43.762503506939545" lon="11.169189114109734"><ele>41.0</ele><time>2026-05-01T14:30:24Z</time></trkpt><trkpt lat="43.76221913091448" lon="11.169243155740874"><ele>42.0</ele><time>2026-05-01T14:30:25Z</time></trkpt><trkpt lat="43.76196520026171" lon="11.16934229989472"><ele>41.0</ele><time>2026-05-01T14:30:26Z</time></trkpt><trkpt lat="43.76170845242022" lon="11.169414703940756"><ele>40.0</ele><time>2026-05-01T14:30:27Z</time></trkpt><trkpt lat="43.76144435550974" lon="11.16948953342574"><ele>40.0</ele><time>2026-05-01T14:30:28Z</time></trkpt><trkpt lat="43.761178073480174" lon="11.169554665887317"><ele>40.0</ele><time>2026-05-01T14:30:29Z</time></trkpt><trkpt lat="43.76091067156179" lon="11.16962107878918"><ele>40.0</ele><time>2026-05-01T14:30:30Z</time></trkpt><trkpt lat="43.76063835959109" lon="11.169680544347704"><ele>40.0</ele><time>2026-05-01T14:30:31Z</time></trkpt><trkpt lat="43.76036443760312" lon="11.16973814821714"><ele>40.5</ele><time>2026-05-01T14:30:32Z</time></trkpt><trkpt lat="43.76008852974082" lon="11.169793086072216"><ele>41.0</ele><time>2026-05-01T14:30:33Z</time></trkpt><trkpt lat="43.7598156495336" lon="11.169846283391754"><ele>40.5</ele><time>2026-05-01T14:30:34Z</time></trkpt><trkpt lat="43.75954171630247" lon="11.169897201229892"><ele>40.0</ele><time>2026-05-01T14:30:35Z</time></trkpt><trkpt lat="43.759265636097716" lon="11.169947968633036"><ele>41.0</ele><time>2026-05-01T14:30:36Z</time></trkpt><trkpt lat="43.758990227774504" lon="11.169999030138019"><ele>42.0</ele><time>2026-05-01T14:30:37Z</time></trkpt><trkpt lat="43.75871622420744" lon="11.170051341094833"><ele>41.5</ele><time>2026-05-01T14:30:38Z</time></trkpt><trkpt lat="43.75844384370392" lon="11.170102292722607"><ele>41.0</ele><time>2026-05-01T14:30:39Z</time></trkpt><trkpt lat="43.75816958017035" lon="11.170153307502892"><ele>41.0</ele><time>2026-05-01T14:30:40Z</time></trkpt><trkpt lat="43.757893650784844" lon="11.170203590157953"><ele>41.0</ele><time>2026-05-01T14:30:41Z</time></trkpt><trkpt lat="43.7576159242592" lon="11.170253027401555"><ele>41.0</ele><time>2026-05-01T14:30:41.999Z</time></trkpt><trkpt lat="43.75733899060485" lon="11.170297557570702"><ele>41.0</ele><time>2026-05-01T14:30:42.999Z</time></trkpt><trkpt lat="43.75706116991241" lon="11.170343995168071"><ele>42.0</ele><time>2026-05-01T14:30:43.999Z</time></trkpt><trkpt lat="43.756783020116785" lon="11.170394482720118"><ele>43.0</ele><time>2026-05-01T14:30:44.999Z</time></trkpt><trkpt lat="43.756503727026576" lon="11.17044839585592"><ele>43.0</ele><time>2026-05-01T14:30:45.999Z</time></trkpt><trkpt lat="43.75622442038752" lon="11.170502117509228"><ele>43.0</ele><time>2026-05-01T14:30:46.999Z</time></trkpt><trkpt lat="43.75594709843663" lon="11.170555688261379"><ele>43.5</ele><time>2026-05-01T14:30:47.999Z</time></trkpt><trkpt lat="43.75567233314979" lon="11.170605751133941"><ele>44.0</ele><time>2026-05-01T14:30:48.999Z</time></trkpt><trkpt lat="43.755397754478814" lon="11.170652596491628"><ele>43.5</ele><time>2026-05-01T14:30:49.999Z</time></trkpt><trkpt lat="43.7551234119696" lon="11.170701079650273"><ele>43.0</ele><time>2026-05-01T14:30:50.999Z</time></trkpt><trkpt lat="43.75485061495438" lon="11.170750043721236"><ele>43.0</ele><time>2026-05-01T14:30:51.999Z</time></trkpt><trkpt lat="43.75457803176161" lon="11.17080120009126"><ele>43.0</ele><time>2026-05-01T14:30:52.999Z</time></trkpt><trkpt lat="43.75430698092767" lon="11.170853174345554"><ele>43.5</ele><time>2026-05-01T14:30:53.999Z</time></trkpt><trkpt lat="43.75403785424634" lon="11.170902292483724"><ele>44.0</ele><time>2026-05-01T14:30:54.999Z</time></trkpt><trkpt lat="43.75376833580756" lon="11.170953280603378"><ele>45.0</ele><time>2026-05-01T14:30:55.999Z</time></trkpt><trkpt lat="43.75350077675761" lon="11.17100690725974"><ele>46.0</ele><time>2026-05-01T14:30:56.999Z</time></trkpt><trkpt lat="43.75323211200237" lon="11.171059634138096"><ele>46.0</ele><time>2026-05-01T14:30:57.999Z</time></trkpt><trkpt lat="43.752959786772934" lon="11.171107664409023"><ele>46.0</ele><time>2026-05-01T14:30:58.999Z</time></trkpt><trkpt lat="43.75268692132952" lon="11.17115657582571"><ele>45.5</ele><time>2026-05-01T14:30:59.999Z</time></trkpt><trkpt lat="43.75241317367049" lon="11.171208022705635"><ele>45.0</ele><time>2026-05-01T14:31:00.999Z</time></trkpt><trkpt lat="43.752138141839716" lon="11.17125969104339"><ele>45.0</ele><time>2026-05-01T14:31:01.999Z</time></trkpt><trkpt lat="43.75186306188315" lon="11.171310053551796"><ele>45.0</ele><time>2026-05-01T14:31:02.999Z</time></trkpt><trkpt lat="43.75158878776542" lon="11.171361406846284"><ele>45.0</ele><time>2026-05-01T14:31:03.999Z</time></trkpt><trkpt lat="43.751313979344495" lon="11.17141436327376"><ele>45.0</ele><time>2026-05-01T14:31:04.999Z</time></trkpt><trkpt lat="43.751036755640044" lon="11.171466566451404"><ele>45.5</ele><time>2026-05-01T14:31:05.999Z</time></trkpt><trkpt lat="43.75075886927135" lon="11.171517733506455"><ele>46.0</ele><time>2026-05-01T14:31:06.999Z</time></trkpt><trkpt lat="43.75047986639512" lon="11.171567094735531"><ele>46.5</ele><time>2026-05-01T14:31:07.999Z</time></trkpt><trkpt lat="43.750203087974285" lon="11.171615849138528"><ele>47.0</ele><time>2026-05-01T14:31:08.999Z</time></trkpt><trkpt lat="43.74992565391103" lon="11.171664743613654"><ele>47.0</ele><time>2026-05-01T14:31:09.999Z</time></trkpt><trkpt lat="43.749649397893194" lon="11.171716176924301"><ele>47.0</ele><time>2026-05-01T14:31:10.999Z</time></trkpt><trkpt lat="43.7493740468922" lon="11.171768844836643"><ele>48.0</ele><time>2026-05-01T14:31:11.999Z</time></trkpt><trkpt lat="43.749098121016466" lon="11.171821695220132"><ele>49.0</ele><time>2026-05-01T14:31:12.999Z</time></trkpt><trkpt lat="43.7488235339639" lon="11.17187712030547"><ele>49.0</ele><time>2026-05-01T14:31:13.999Z</time></trkpt><trkpt lat="43.74855173898569" lon="11.171934520358827"><ele>49.0</ele><time>2026-05-01T14:31:14.999Z</time></trkpt><trkpt lat="43.74828270308929" lon="11.171999522662416"><ele>49.0</ele><time>2026-05-01T14:31:15.999Z</time></trkpt><trkpt lat="43.748016582161036" lon="11.172077869332844"><ele>49.0</ele><time>2026-05-01T14:31:16.999Z</time></trkpt><trkpt lat="43.74775289602687" lon="11.172177032964669"><ele>49.0</ele><time>2026-05-01T14:31:17.999Z</time></trkpt><trkpt lat="43.74749320544248" lon="11.17229293946666"><ele>49.0</ele><time>2026-05-01T14:31:18.999Z</time></trkpt><trkpt lat="43.74724002174982" lon="11.172428753108125"><ele>49.0</ele><time>2026-05-01T14:31:19.999Z</time></trkpt><trkpt lat="43.74699220046716" lon="11.172588029898932"><ele>49.0</ele><time>2026-05-01T14:31:20.999Z</time></trkpt><trkpt lat="43.74675173233144" lon="11.17276801330952"><ele>50.5</ele><time>2026-05-01T14:31:21.999Z</time></trkpt><trkpt lat="43.746519417112566" lon="11.172975267528994"><ele>52.0</ele><time>2026-05-01T14:31:22.999Z</time></trkpt><trkpt lat="43.74629965286957" lon="11.17319872098746"><ele>52.0</ele><time>2026-05-01T14:31:23.999Z</time></trkpt><trkpt lat="43.74608806589643" lon="11.173434265107593"><ele>52.0</ele><time>2026-05-01T14:31:24.999Z</time></trkpt><trkpt lat="43.74588536223106" lon="11.173685766314241"><ele>53.0</ele><time>2026-05-01T14:31:25.999Z</time></trkpt><trkpt lat="43.74569334966761" lon="11.173957775571502"><ele>54.0</ele><time>2026-05-01T14:31:26.999Z</time></trkpt><trkpt lat="43.74551698217346" lon="11.174240834230527"><ele>54.0</ele><time>2026-05-01T14:31:27.999Z</time></trkpt><trkpt lat="43.74535428978615" lon="11.17453732725829"><ele>54.0</ele><time>2026-05-01T14:31:28.999Z</time></trkpt><trkpt lat="43.745204278721666" lon="11.17484716896383"><ele>53.5</ele><time>2026-05-01T14:31:29.999Z</time></trkpt><trkpt lat="43.74507167390411" lon="11.175169922746566"><ele>53.0</ele><time>2026-05-01T14:31:30.999Z</time></trkpt><trkpt lat="43.74494643402414" lon="11.175498684285138"><ele>53.5</ele><time>2026-05-01T14:31:31.999Z</time></trkpt><trkpt lat="43.74483499472916" lon="11.175841407366716"><ele>54.0</ele><time>2026-05-01T14:31:32.999Z</time></trkpt><trkpt lat="43.7447329615039" lon="11.176178000454367"><ele>54.0</ele><time>2026-05-01T14:31:33.999Z</time></trkpt><trkpt lat="43.744630808331756" lon="11.17651743069061"><ele>54.0</ele><time>2026-05-01T14:31:34.999Z</time></trkpt><trkpt lat="43.74453205320492" lon="11.176860148864288"><ele>56.5</ele><time>2026-05-01T14:31:35.999Z</time></trkpt><trkpt lat="43.74443624325522" lon="11.177203241888327"><ele>59.0</ele><time>2026-05-01T14:31:36.999Z</time></trkpt><trkpt lat="43.74434124674444" lon="11.177543215967205"><ele>60.0</ele><time>2026-05-01T14:31:37.999Z</time></trkpt><trkpt lat="43.74424381198111" lon="11.177880732949976"><ele>61.0</ele><time>2026-05-01T14:31:38.999Z</time></trkpt><trkpt lat="43.74414464247974" lon="11.178210892603785"><ele>61.0</ele><time>2026-05-01T14:31:39.999Z</time></trkpt><trkpt lat="43.7440332128771" lon="11.178537787113987"><ele>61.0</ele><time>2026-05-01T14:31:40.999Z</time></trkpt><trkpt lat="43.743911807469345" lon="11.178859947784598"><ele>59.0</ele><time>2026-05-01T14:31:41.999Z</time></trkpt><trkpt lat="43.74377130038513" lon="11.179168122350713"><ele>57.0</ele><time>2026-05-01T14:31:42.999Z</time></trkpt><trkpt lat="43.74361498927297" lon="11.179462153497338"><ele>57.5</ele><time>2026-05-01T14:31:43.999Z</time></trkpt><trkpt lat="43.74343974343162" lon="11.1797346856744"><ele>58.0</ele><time>2026-05-01T14:31:44.999Z</time></trkpt><trkpt lat="43.74324694623347" lon="11.179983879872534"><ele>58.0</ele><time>2026-05-01T14:31:45.999Z</time></trkpt><trkpt lat="43.7430423239108" lon="11.18022125947358"><ele>58.0</ele><time>2026-05-01T14:31:46.999Z</time></trkpt><trkpt lat="43.74282319085028" lon="11.180435584041138"><ele>57.5</ele><time>2026-05-01T14:31:47.999Z</time></trkpt><trkpt lat="43.74259913414028" lon="11.18064125690001"><ele>57.0</ele><time>2026-05-01T14:31:48.999Z</time></trkpt><trkpt lat="43.74237242042467" lon="11.18084293421255"><ele>57.0</ele><time>2026-05-01T14:31:49.999Z</time></trkpt><trkpt lat="43.74214778351461" lon="11.18103593714312"><ele>57.0</ele><time>2026-05-01T14:31:50.999Z</time></trkpt><trkpt lat="43.741923913720285" lon="11.181226995749995"><ele>58.0</ele><time>2026-05-01T14:31:51.999Z</time></trkpt><trkpt lat="43.741705114978814" lon="11.181416057896984"><ele>59.0</ele><time>2026-05-01T14:31:52.999Z</time></trkpt><trkpt lat="43.741492491556784" lon="11.1816016871313"><ele>59.0</ele><time>2026-05-01T14:31:53.999Z</time></trkpt><trkpt lat="43.741291225354196" lon="11.181781292008207"><ele>59.0</ele><time>2026-05-01T14:31:54.999Z</time></trkpt><trkpt lat="43.741107000809166" lon="11.18195321892803"><ele>60.333333333333336</ele><time>2026-05-01T14:31:55.999Z</time></trkpt><trkpt lat="43.74093562879585" lon="11.18211262517012"><ele>61.66666666666667</ele><time>2026-05-01T14:31:56.999Z</time></trkpt><trkpt lat="43.74077417820097" lon="11.18225971344949"><ele>63.0</ele><time>2026-05-01T14:31:57.999Z</time></trkpt><trkpt lat="43.740627347478885" lon="11.182378739530936"><ele>63.0</ele><time>2026-05-01T14:31:58.999Z</time></trkpt><trkpt lat="43.740489993222525" lon="11.182468370454583"><ele>63.0</ele><time>2026-05-01T14:31:59.999Z</time></trkpt><trkpt lat="43.74035934084318" lon="11.182530527731888"><ele>63.0</ele><time>2026-05-01T14:32:00.999Z</time></trkpt><trkpt lat="43.74023978185895" lon="11.18255137268453"><ele>63.0</ele><time>2026-05-01T14:32:01.999Z</time></trkpt><trkpt lat="43.74012338280649" lon="11.182541040659332"><ele>64.33333333333333</ele><time>2026-05-01T14:32:02.999Z</time></trkpt><trkpt lat="43.740016889237666" lon="11.182533174481545"><ele>65.66666666666667</ele><time>2026-05-01T14:32:03.999Z</time></trkpt><trkpt lat="43.73991837116803" lon="11.182524992914681"><ele>67.0</ele><time>2026-05-01T14:32:04.999Z</time></trkpt><trkpt lat="43.73983467089113" lon="11.182561663433821"><ele>68.33333333333334</ele><time>2026-05-01T14:32:05.999Z</time></trkpt><trkpt lat="43.739767922091" lon="11.182603907094128"><ele>69.66666666666667</ele><time>2026-05-01T14:32:06.999Z</time></trkpt><trkpt lat="43.73970960138092" lon="11.182650468262894"><ele>71.0</ele><time>2026-05-01T14:32:07.998Z</time></trkpt><trkpt lat="43.7396476326201" lon="11.18269818283512"><ele>71.0</ele><time>2026-05-01T14:32:09Z</time></trkpt><trkpt lat="43.73958874962342" lon="11.182747059145214"><ele>71.0</ele><time>2026-05-01T14:32:10Z</time></trkpt><trkpt lat="43.739491769985726" lon="11.182830695527034"><ele>71.0</ele><time>2026-05-01T14:32:12Z</time></trkpt><trkpt lat="43.73939793835313" lon="11.182886371217906"><ele>71.0</ele><time>2026-05-01T14:32:14Z</time></trkpt><trkpt lat="43.73931689619788" lon="11.18298763457877"><ele>71.0</ele><time>2026-05-01T14:32:16Z</time></trkpt><trkpt lat="43.73921756597602" lon="11.18308532713232"><ele>76.0</ele><time>2026-05-01T14:32:18Z</time></trkpt><trkpt lat="43.739120510999385" lon="11.183175974726574"><ele>76.0</ele><time>2026-05-01T14:32:20Z</time></trkpt><trkpt lat="43.7390446058291" lon="11.18323996262322"><ele>70.0</ele><time>2026-05-01T14:32:22Z</time></trkpt><trkpt lat="43.73898660863926" lon="11.183288129776729"><ele>70.0</ele><time>2026-05-01T14:33:25.999Z</time></trkpt><trkpt lat="43.73894388613405" lon="11.183222234719326"><ele>70.0</ele><time>2026-05-01T14:34:56.999Z</time></trkpt></trkseg><trkseg><trkpt lat="43.738966646085096" lon="11.183471109603"><ele>70.0</ele><time>2026-05-01T15:02:03.999Z</time></trkpt><trkpt lat="43.7389143967787" lon="11.183533204487539"><ele>70.0</ele><time>2026-05-01T15:02:04.999Z</time></trkpt><trkpt lat="43.73886222971161" lon="11.183600403201877"><ele>70.0</ele><time>2026-05-01T15:02:05.999Z</time></trkpt><trkpt lat="43.738811163282435" lon="11.183699141706231"><ele>70.0</ele><time>2026-05-01T15:02:06.999Z</time></trkpt><trkpt lat="43.73876765944074" lon="11.183808164665521"><ele>70.0</ele><time>2026-05-01T15:02:07.999Z</time></trkpt><trkpt lat="43.738649508190896" lon="11.183889493181743"><ele>70.6</ele><time>2026-05-01T15:02:08.999Z</time></trkpt><trkpt lat="43.73862012870161" lon="11.184028952955348"><ele>71.2</ele><time>2026-05-01T15:02:09.999Z</time></trkpt><trkpt lat="43.738588038142446" lon="11.184156647548859"><ele>71.8</ele><time>2026-05-01T15:02:10.999Z</time></trkpt><trkpt lat="43.73853519700918" lon="11.18427059194014"><ele>72.4</ele><time>2026-05-01T15:02:11.999Z</time></trkpt><trkpt lat="43.738460204545994" lon="11.184406913047173"><ele>73.0</ele><time>2026-05-01T15:02:12.999Z</time></trkpt><trkpt lat="43.738356661591354" lon="11.184519856177461"><ele>73.0</ele><time>2026-05-01T15:02:13.999Z</time></trkpt><trkpt lat="43.738261327164835" lon="11.184667151997488"><ele>73.0</ele><time>2026-05-01T15:02:14.999Z</time></trkpt><trkpt lat="43.73817685381161" lon="11.18485275404051"><ele>73.0</ele><time>2026-05-01T15:02:15.999Z</time></trkpt><trkpt lat="43.738025651464575" lon="11.184979385096034"><ele>74.66666666666666</ele><time>2026-05-01T15:02:16.999Z</time></trkpt><trkpt lat="43.73786422632771" lon="11.185116247680853"><ele>76.33333333333333</ele><time>2026-05-01T15:02:17.999Z</time></trkpt><trkpt lat="43.737692771040365" lon="11.18525594016611"><ele>78.0</ele><time>2026-05-01T15:02:18.999Z</time></trkpt><trkpt lat="43.737522054359346" lon="11.185395549077688"><ele>78.0</ele><time>2026-05-01T15:02:19.999Z</time></trkpt><trkpt lat="43.73734494657735" lon="11.185550113441591"><ele>78.0</ele><time>2026-05-01T15:02:20.999Z</time></trkpt><trkpt lat="43.73717115237787" lon="11.185691318003897"><ele>78.0</ele><time>2026-05-01T15:02:21.999Z</time></trkpt><trkpt lat="43.73699659615397" lon="11.185828403505658"><ele>80.66666666666667</ele><time>2026-05-01T15:02:22.999Z</time></trkpt><trkpt lat="43.73681653209906" lon="11.18596669346788"><ele>83.33333333333334</ele><time>2026-05-01T15:02:23.999Z</time></trkpt><trkpt lat="43.736621207004546" lon="11.186110540946933"><ele>86.0</ele><time>2026-05-01T15:02:24.999Z</time></trkpt><trkpt lat="43.73641148306816" lon="11.186251644597053"><ele>86.0</ele><time>2026-05-01T15:02:25.999Z</time></trkpt><trkpt lat="43.73618791208433" lon="11.186376118104393"><ele>86.0</ele><time>2026-05-01T15:02:26.999Z</time></trkpt><trkpt lat="43.73596667883124" lon="11.186492284271068"><ele>83.5</ele><time>2026-05-01T15:02:27.999Z</time></trkpt><trkpt lat="43.73574380689489" lon="11.186611827971017"><ele>81.0</ele><time>2026-05-01T15:02:28.999Z</time></trkpt><trkpt lat="43.73551823274832" lon="11.186730939917972"><ele>81.0</ele><time>2026-05-01T15:02:29.999Z</time></trkpt><trkpt lat="43.735289739144534" lon="11.186855738157927"><ele>81.0</ele><time>2026-05-01T15:02:30.999Z</time></trkpt><trkpt lat="43.73506068349102" lon="11.186976711997481"><ele>83.5</ele><time>2026-05-01T15:02:31.999Z</time></trkpt><trkpt lat="43.73483125422018" lon="11.187100034058188"><ele>86.0</ele><time>2026-05-01T15:02:32.999Z</time></trkpt><trkpt lat="43.73459904753595" lon="11.187231363768557"><ele>81.5</ele><time>2026-05-01T15:02:33.999Z</time></trkpt><trkpt lat="43.73436542550227" lon="11.187345162000655"><ele>77.0</ele><time>2026-05-01T15:02:34.999Z</time></trkpt><trkpt lat="43.73413603494818" lon="11.187457087367939"><ele>77.0</ele><time>2026-05-01T15:02:35.999Z</time></trkpt><trkpt lat="43.73390782282681" lon="11.187574469517223"><ele>77.0</ele><time>2026-05-01T15:02:36.999Z</time></trkpt><trkpt lat="43.73367640110548" lon="11.187691442845258"><ele>74.5</ele><time>2026-05-01T15:02:37.999Z</time></trkpt><trkpt lat="43.73344669064482" lon="11.187807679730588"><ele>72.0</ele><time>2026-05-01T15:02:38.999Z</time></trkpt><trkpt lat="43.73321721234136" lon="11.187938171332764"><ele>72.0</ele><time>2026-05-01T15:02:39.999Z</time></trkpt><trkpt lat="43.73299348424357" lon="11.188076994237585"><ele>72.0</ele><time>2026-05-01T15:02:40.999Z</time></trkpt><trkpt lat="43.73277108459885" lon="11.188234205071662"><ele>76.5</ele><time>2026-05-01T15:02:42Z</time></trkpt><trkpt lat="43.73254979219141" lon="11.188405429593272"><ele>81.0</ele><time>2026-05-01T15:02:43Z</time></trkpt><trkpt lat="43.73233151230587" lon="11.188593141265166"><ele>81.0</ele><time>2026-05-01T15:02:44Z</time></trkpt><trkpt lat="43.73212025867002" lon="11.188789862723079"><ele>81.0</ele><time>2026-05-01T15:02:45Z</time></trkpt><trkpt lat="43.731914776199254" lon="11.18900718605294"><ele>83.5</ele><time>2026-05-01T15:02:46Z</time></trkpt><trkpt lat="43.73171741555078" lon="11.189240624849688"><ele>86.0</ele><time>2026-05-01T15:02:47Z</time></trkpt><trkpt lat="43.7315257228728" lon="11.18948658392843"><ele>86.0</ele><time>2026-05-01T15:02:48Z</time></trkpt><trkpt lat="43.73134170459532" lon="11.189741300957825"><ele>86.0</ele><time>2026-05-01T15:02:49Z</time></trkpt><trkpt lat="43.73116718310141" lon="11.190006805685382"><ele>82.5</ele><time>2026-05-01T15:02:50Z</time></trkpt><trkpt lat="43.731003836997104" lon="11.190283862602941"><ele>79.0</ele><time>2026-05-01T15:02:51Z</time></trkpt><trkpt lat="43.730848443192215" lon="11.190571461074502"><ele>81.5</ele><time>2026-05-01T15:02:52Z</time></trkpt><trkpt lat="43.73069654995633" lon="11.190866106053592"><ele>84.0</ele><time>2026-05-01T15:02:53Z</time></trkpt><trkpt lat="43.73054757906866" lon="11.191164587813617"><ele>84.0</ele><time>2026-05-01T15:02:54Z</time></trkpt><trkpt lat="43.73040243231792" lon="11.19147027160368"><ele>84.0</ele><time>2026-05-01T15:02:55Z</time></trkpt><trkpt lat="43.730260689859776" lon="11.191784595024856"><ele>87.5</ele><time>2026-05-01T15:02:56Z</time></trkpt><trkpt lat="43.730118577588144" lon="11.192093254100385"><ele>91.0</ele><time>2026-05-01T15:02:57Z</time></trkpt><trkpt lat="43.729974675807405" lon="11.192395562751809"><ele>92.0</ele><time>2026-05-01T15:02:58Z</time></trkpt><trkpt lat="43.72982993280549" lon="11.192698764786297"><ele>93.0</ele><time>2026-05-01T15:02:59Z</time></trkpt><trkpt lat="43.72968392160594" lon="11.193002315740575"><ele>93.5</ele><time>2026-05-01T15:03:00Z</time></trkpt><trkpt lat="43.72953915695199" lon="11.193306308306768"><ele>94.0</ele><time>2026-05-01T15:03:01Z</time></trkpt><trkpt lat="43.729400438634" lon="11.193602929284072"><ele>103.5</ele><time>2026-05-01T15:03:02Z</time></trkpt><trkpt lat="43.72926321027292" lon="11.19389986336419"><ele>113.0</ele><time>2026-05-01T15:03:03Z</time></trkpt><trkpt lat="43.729130903250514" lon="11.194199551935572"><ele>116.0</ele><time>2026-05-01T15:03:04Z</time></trkpt><trkpt lat="43.72899999813422" lon="11.194493646628722"><ele>119.0</ele><time>2026-05-01T15:03:05Z</time></trkpt><trkpt lat="43.728866243454966" lon="11.194796982316204"><ele>116.5</ele><time>2026-05-01T15:03:06Z</time></trkpt><trkpt lat="43.728725989709154" lon="11.195103601370866"><ele>114.0</ele><time>2026-05-01T15:03:07Z</time></trkpt><trkpt lat="43.72858027020775" lon="11.195423419590872"><ele>120.0</ele><time>2026-05-01T15:03:08.074Z</time></trkpt><trkpt lat="43.72844771456421" lon="11.1957227381523"><ele>126.0</ele><time>2026-05-01T15:03:09.07Z</time></trkpt><trkpt lat="43.728310829090596" lon="11.196020768699835"><ele>126.0</ele><time>2026-05-01T15:03:10.075Z</time></trkpt><trkpt lat="43.728174241170265" lon="11.196314476287952"><ele>126.0</ele><time>2026-05-01T15:03:11.071Z</time></trkpt><trkpt lat="43.728044481768" lon="11.196612265306413"><ele>127.0</ele><time>2026-05-01T15:03:12.057Z</time></trkpt><trkpt lat="43.72791441732084" lon="11.196904275711399"><ele>128.0</ele><time>2026-05-01T15:03:13.035Z</time></trkpt><trkpt lat="43.726899324660735" lon="11.206698559256184"><ele>123.5</ele><time>2026-05-01T15:03:39.999Z</time></trkpt><trkpt lat="43.72690702456188" lon="11.207094306928868"><ele>119.0</ele><time>2026-05-01T15:03:41.999Z</time></trkpt><trkpt lat="43.72693334770879" lon="11.207485673186648"><ele>117.0</ele><time>2026-05-01T15:03:42.999Z</time></trkpt><trkpt lat="43.726963948098806" lon="11.20788159703089"><ele>115.0</ele><time>2026-05-01T15:03:43.999Z</time></trkpt><trkpt lat="43.72701413353585" lon="11.208330554981197"><ele>114.0</ele><time>2026-05-01T15:03:44.999Z</time></trkpt><trkpt lat="43.727000324589135" lon="11.208746455132411"><ele>113.0</ele><time>2026-05-01T15:03:45.999Z</time></trkpt><trkpt lat="43.72690488968373" lon="11.209156345413756"><ele>116.5</ele><time>2026-05-01T15:03:46.999Z</time></trkpt><trkpt lat="43.72687242635432" lon="11.209525316904358"><ele>120.0</ele><time>2026-05-01T15:03:47.999Z</time></trkpt><trkpt lat="43.72685348794814" lon="11.209949037654"><ele>120.0</ele><time>2026-05-01T15:03:48.999Z</time></trkpt><trkpt lat="43.726841138898884" lon="11.210334809831489"><ele>120.0</ele><time>2026-05-01T15:03:49.999Z</time></trkpt><trkpt lat="43.72681356636577" lon="11.210724221866649"><ele>114.0</ele><time>2026-05-01T15:03:50.999Z</time></trkpt><trkpt lat="43.72680496078299" lon="11.21111200253287"><ele>108.0</ele><time>2026-05-01T15:03:51.999Z</time></trkpt><trkpt lat="43.72678690692885" lon="11.211489910380223"><ele>103.5</ele><time>2026-05-01T15:03:52.999Z</time></trkpt><trkpt lat="43.72676770108718" lon="11.211864094065607"><ele>99.0</ele><time>2026-05-01T15:03:53.999Z</time></trkpt><trkpt lat="43.72674655904225" lon="11.212230176222494"><ele>99.0</ele><time>2026-05-01T15:03:54.999Z</time></trkpt><trkpt lat="43.72672308819575" lon="11.212591420359383"><ele>99.0</ele><time>2026-05-01T15:03:55.999Z</time></trkpt><trkpt lat="43.72669581255474" lon="11.212955069816477"><ele>97.5</ele><time>2026-05-01T15:03:56.999Z</time></trkpt><trkpt lat="43.72666873561386" lon="11.21332061314261"><ele>96.0</ele><time>2026-05-01T15:03:57.999Z</time></trkpt><trkpt lat="43.72664178671188" lon="11.21367902226992"><ele>95.5</ele><time>2026-05-01T15:03:58.999Z</time></trkpt><trkpt lat="43.72661123003398" lon="11.214030321305856"><ele>95.0</ele><time>2026-05-01T15:03:59.999Z</time></trkpt><trkpt lat="43.72656995614872" lon="11.214382459327581"><ele>95.0</ele><time>2026-05-01T15:04:00.999Z</time></trkpt><trkpt lat="43.72652099112545" lon="11.214731827907116"><ele>95.0</ele><time>2026-05-01T15:04:01.999Z</time></trkpt><trkpt lat="43.72646122729816" lon="11.215075263053611"><ele>94.5</ele><time>2026-05-01T15:04:02.999Z</time></trkpt><trkpt lat="43.72639342488745" lon="11.215418630215208"><ele>94.0</ele><time>2026-05-01T15:04:03.999Z</time></trkpt><trkpt lat="43.72632207822469" lon="11.21575772770146"><ele>91.5</ele><time>2026-05-01T15:04:04.999Z</time></trkpt><trkpt lat="43.72623418991055" lon="11.216089839574707"><ele>89.0</ele><time>2026-05-01T15:04:05.999Z</time></trkpt><trkpt lat="43.726138742495884" lon="11.21642556944913"><ele>93.0</ele><time>2026-05-01T15:04:06.999Z</time></trkpt><trkpt lat="43.72603254196807" lon="11.216754175278446"><ele>97.0</ele><time>2026-05-01T15:04:07.999Z</time></trkpt><trkpt lat="43.72591483130908" lon="11.21707839920615"><ele>95.0</ele><time>2026-05-01T15:04:08.999Z</time></trkpt><trkpt lat="43.7257924433137" lon="11.217399059683299"><ele>93.0</ele><time>2026-05-01T15:04:09.999Z</time></trkpt><trkpt lat="43.72566416000271" lon="11.217727190684968"><ele>93.0</ele><time>2026-05-01T15:04:10.999Z</time></trkpt><trkpt lat="43.725532925045925" lon="11.21804193319574"><ele>93.0</ele><time>2026-05-01T15:04:11.999Z</time></trkpt><trkpt lat="43.72536602792978" lon="11.218337506222216"><ele>94.0</ele><time>2026-05-01T15:04:12.999Z</time></trkpt><trkpt lat="43.725205414802886" lon="11.218624446356326"><ele>95.0</ele><time>2026-05-01T15:04:13.999Z</time></trkpt><trkpt lat="43.72504585711291" lon="11.218919657625005"><ele>90.0</ele><time>2026-05-01T15:04:14.999Z</time></trkpt><trkpt lat="43.724879210241085" lon="11.21921627066574"><ele>85.0</ele><time>2026-05-01T15:04:15.999Z</time></trkpt><trkpt lat="43.72471212502592" lon="11.219511854596492"><ele>85.0</ele><time>2026-05-01T15:04:16.999Z</time></trkpt><trkpt lat="43.724542818315584" lon="11.219800341347428"><ele>85.0</ele><time>2026-05-01T15:04:17.999Z</time></trkpt><trkpt lat="43.724377813167855" lon="11.220093948026191"><ele>83.0</ele><time>2026-05-01T15:04:18.999Z</time></trkpt><trkpt lat="43.72421623156044" lon="11.220389407880425"><ele>81.0</ele><time>2026-05-01T15:04:19.999Z</time></trkpt><trkpt lat="43.72405711210842" lon="11.22069291793892"><ele>81.0</ele><time>2026-05-01T15:04:20.999Z</time></trkpt><trkpt lat="43.72390586286741" lon="11.220998739141468"><ele>81.0</ele><time>2026-05-01T15:04:21.999Z</time></trkpt><trkpt lat="43.72376374761898" lon="11.221307379647092"><ele>78.5</ele><time>2026-05-01T15:04:22.999Z</time></trkpt><trkpt lat="43.72362580266225" lon="11.221622146049718"><ele>76.0</ele><time>2026-05-01T15:04:23.999Z</time></trkpt><trkpt lat="43.72349416001902" lon="11.221946857608593"><ele>75.5</ele><time>2026-05-01T15:04:24.999Z</time></trkpt><trkpt lat="43.72336725588318" lon="11.222274439875502"><ele>75.0</ele><time>2026-05-01T15:04:25.999Z</time></trkpt><trkpt lat="43.72325603673995" lon="11.222610319400003"><ele>73.0</ele><time>2026-05-01T15:04:26.999Z</time></trkpt><trkpt lat="43.72315762980717" lon="11.222962498011855"><ele>71.0</ele><time>2026-05-01T15:04:27.999Z</time></trkpt><trkpt lat="43.723062159842065" lon="11.223315493790226"><ele>69.5</ele><time>2026-05-01T15:04:28.999Z</time></trkpt><trkpt lat="43.722971567205654" lon="11.223668455085663"><ele>68.0</ele><time>2026-05-01T15:04:29.999Z</time></trkpt><trkpt lat="43.72288279213147" lon="11.22401877016009"><ele>67.0</ele><time>2026-05-01T15:04:30.999Z</time></trkpt><trkpt lat="43.72279495896822" lon="11.224362843458355"><ele>66.0</ele><time>2026-05-01T15:04:31.999Z</time></trkpt><trkpt lat="43.722706008723186" lon="11.224710436733252"><ele>70.0</ele><time>2026-05-01T15:04:32.999Z</time></trkpt><trkpt lat="43.722615745078535" lon="11.225060776876495"><ele>74.0</ele><time>2026-05-01T15:04:33.999Z</time></trkpt><trkpt lat="43.72252367434536" lon="11.225411036452519"><ele>74.0</ele><time>2026-05-01T15:04:34.999Z</time></trkpt><trkpt lat="43.722430474337266" lon="11.225762254810643"><ele>74.0</ele><time>2026-05-01T15:04:35.999Z</time></trkpt><trkpt lat="43.72233861767263" lon="11.2261168913291"><ele>74.0</ele><time>2026-05-01T15:04:36.999Z</time></trkpt><trkpt lat="43.72224598593508" lon="11.226469330830943"><ele>74.0</ele><time>2026-05-01T15:04:37.999Z</time></trkpt><trkpt lat="43.72215170666856" lon="11.226824530605434"><ele>78.0</ele><time>2026-05-01T15:04:38.999Z</time></trkpt><trkpt lat="43.72205690168215" lon="11.227179934426223"><ele>82.0</ele><time>2026-05-01T15:04:39.999Z</time></trkpt><trkpt lat="43.721983201297405" lon="11.227567595955984"><ele>116.0</ele><time>2026-05-01T15:04:40.999Z</time></trkpt><trkpt lat="43.72080486659373" lon="11.231960273007598"><ele>96.0</ele><time>2026-05-01T15:04:49.637Z</time></trkpt><trkpt lat="43.72046959416292" lon="11.233244548120801"><ele>99.0</ele><time>2026-05-01T15:04:50.637Z</time></trkpt><trkpt lat="43.72014105381934" lon="11.234532168489022"><ele>116.0</ele><time>2026-05-01T15:04:51.637Z</time></trkpt><trkpt lat="43.71986898448103" lon="11.235844383885457"><ele>128.0</ele><time>2026-05-01T15:04:52.637Z</time></trkpt><trkpt lat="43.719682975443945" lon="11.237185079294525"><ele>110.0</ele><time>2026-05-01T15:04:53.638Z</time></trkpt><trkpt lat="43.719610216717015" lon="11.238545156171302"><ele>107.0</ele><time>2026-05-01T15:04:54.637Z</time></trkpt><trkpt lat="43.71964681485906" lon="11.239908733996366"><ele>113.0</ele><time>2026-05-01T15:04:55.637Z</time></trkpt><trkpt lat="43.71978906498139" lon="11.241258765699989"><ele>115.0</ele><time>2026-05-01T15:04:56.637Z</time></trkpt><trkpt lat="43.72004072920572" lon="11.24257825647627"><ele>125.0</ele><time>2026-05-01T15:04:57.637Z</time></trkpt><trkpt lat="43.72039804344576" lon="11.243850391840525"><ele>144.0</ele><time>2026-05-01T15:04:58.637Z</time></trkpt><trkpt lat="43.72085321279778" lon="11.245061763976187"><ele>133.0</ele><time>2026-05-01T15:04:59.637Z</time></trkpt><trkpt lat="43.72140255731336" lon="11.246196500517819"><ele>133.0</ele><time>2026-05-01T15:05:00.637Z</time></trkpt><trkpt lat="43.72204124309241" lon="11.247238665264438"><ele>141.0</ele><time>2026-05-01T15:05:01.637Z</time></trkpt><trkpt lat="43.72275605259057" lon="11.248182271162943"><ele>149.0</ele><time>2026-05-01T15:05:02.637Z</time></trkpt><trkpt lat="43.72353867463187" lon="11.24901754139861"><ele>131.0</ele><time>2026-05-01T15:05:03.637Z</time></trkpt><trkpt lat="43.72436123455912" lon="11.249778284109388"><ele>116.0</ele><time>2026-05-01T15:05:04.638Z</time></trkpt><trkpt lat="43.72520073864419" lon="11.250500411531705"><ele>122.0</ele><time>2026-05-01T15:05:05.637Z</time></trkpt><trkpt lat="43.726041776145344" lon="11.251220626575355"><ele>103.0</ele><time>2026-05-01T15:05:06.637Z</time></trkpt><trkpt lat="43.72718655418398" lon="11.25233792225438"><ele>103.0</ele><time>2026-05-01T15:05:59.998Z</time></trkpt><trkpt lat="43.72712402222358" lon="11.252766921242248"><ele>103.0</ele><time>2026-05-01T15:06:00.998Z</time></trkpt><trkpt lat="43.727577278829514" lon="11.252920619557504"><ele>102.5</ele><time>2026-05-01T15:06:01.998Z</time></trkpt><trkpt lat="43.72776073718382" lon="11.253139361136126"><ele>102.0</ele><time>2026-05-01T15:06:02.998Z</time></trkpt><trkpt lat="43.72794216197614" lon="11.253386355355268"><ele>102.0</ele><time>2026-05-01T15:06:03.998Z</time></trkpt><trkpt lat="43.72811984140605" lon="11.253640030443867"><ele>102.0</ele><time>2026-05-01T15:06:04.998Z</time></trkpt><trkpt lat="43.728290959467174" lon="11.253900046611045"><ele>100.5</ele><time>2026-05-01T15:06:06Z</time></trkpt><trkpt lat="43.728451512823455" lon="11.254168936062383"><ele>99.0</ele><time>2026-05-01T15:06:07Z</time></trkpt><trkpt lat="43.72861590915158" lon="11.254427896403113"><ele>99.0</ele><time>2026-05-01T15:06:08Z</time></trkpt><trkpt lat="43.728780662506075" lon="11.254693648281785"><ele>99.0</ele><time>2026-05-01T15:06:09Z</time></trkpt><trkpt lat="43.72893838068801" lon="11.254954550309225"><ele>98.0</ele><time>2026-05-01T15:06:10Z</time></trkpt><trkpt lat="43.72909973865249" lon="11.25521993747928"><ele>97.0</ele><time>2026-05-01T15:06:11Z</time></trkpt><trkpt lat="43.729254594582095" lon="11.255491222165801"><ele>91.5</ele><time>2026-05-01T15:06:12Z</time></trkpt><trkpt lat="43.729414074786426" lon="11.25576411500893"><ele>86.0</ele><time>2026-05-01T15:06:13Z</time></trkpt><trkpt lat="43.72957016215609" lon="11.256040656542991"><ele>86.0</ele><time>2026-05-01T15:06:14Z</time></trkpt><trkpt lat="43.72972911053094" lon="11.256305427838958"><ele>86.0</ele><time>2026-05-01T15:06:15Z</time></trkpt><trkpt lat="43.72989024144912" lon="11.256561433631342"><ele>87.5</ele><time>2026-05-01T15:06:16Z</time></trkpt><trkpt lat="43.7300415834337" lon="11.256830106685653"><ele>89.0</ele><time>2026-05-01T15:06:17Z</time></trkpt><trkpt lat="43.73019877356419" lon="11.25710311260465"><ele>85.5</ele><time>2026-05-01T15:06:18Z</time></trkpt><trkpt lat="43.73035149629795" lon="11.257363459604816"><ele>82.0</ele><time>2026-05-01T15:06:19Z</time></trkpt><trkpt lat="43.730511903229306" lon="11.257629158642057"><ele>82.0</ele><time>2026-05-01T15:06:20Z</time></trkpt><trkpt lat="43.73067251138595" lon="11.257899270152796"><ele>82.0</ele><time>2026-05-01T15:06:21Z</time></trkpt><trkpt lat="43.73083017118524" lon="11.258166496639223"><ele>81.5</ele><time>2026-05-01T15:06:22Z</time></trkpt><trkpt lat="43.73098514650219" lon="11.25844567218776"><ele>81.0</ele><time>2026-05-01T15:06:23Z</time></trkpt><trkpt lat="43.731144357004304" lon="11.25871236176673"><ele>83.0</ele><time>2026-05-01T15:06:24Z</time></trkpt><trkpt lat="43.731304090991046" lon="11.25898273187555"><ele>85.0</ele><time>2026-05-01T15:06:25Z</time></trkpt><trkpt lat="43.73146535807042" lon="11.25926094655217"><ele>85.0</ele><time>2026-05-01T15:06:26Z</time></trkpt><trkpt lat="43.73162903499391" lon="11.25953651981226"><ele>85.0</ele><time>2026-05-01T15:06:27Z</time></trkpt><trkpt lat="43.731792448189516" lon="11.259803420609186"><ele>83.5</ele><time>2026-05-01T15:06:28Z</time></trkpt><trkpt lat="43.731957290021164" lon="11.260076078076722"><ele>82.0</ele><time>2026-05-01T15:06:29Z</time></trkpt><trkpt lat="43.73211551597747" lon="11.260345499322202"><ele>82.0</ele><time>2026-05-01T15:06:30Z</time></trkpt><trkpt lat="43.7322765615346" lon="11.260621856379295"><ele>82.0</ele><time>2026-05-01T15:06:31Z</time></trkpt><trkpt lat="43.73243821198189" lon="11.260899684318227"><ele>82.0</ele><time>2026-05-01T15:06:32Z</time></trkpt><trkpt lat="43.73260213455925" lon="11.261170478110577"><ele>82.0</ele><time>2026-05-01T15:06:33Z</time></trkpt><trkpt lat="43.73276791087156" lon="11.261443574180888"><ele>82.0</ele><time>2026-05-01T15:06:34Z</time></trkpt><trkpt lat="43.73293204466176" lon="11.261724286402943"><ele>82.0</ele><time>2026-05-01T15:06:35Z</time></trkpt><trkpt lat="43.73309702825963" lon="11.262003905652232"><ele>82.0</ele><time>2026-05-01T15:06:36Z</time></trkpt><trkpt lat="43.733260170905574" lon="11.262280602940534"><ele>82.0</ele><time>2026-05-01T15:06:37Z</time></trkpt><trkpt lat="43.733416860842226" lon="11.262565840211202"><ele>83.0</ele><time>2026-05-01T15:06:38Z</time></trkpt><trkpt lat="43.73357828148937" lon="11.262844593520358"><ele>84.0</ele><time>2026-05-01T15:06:39Z</time></trkpt><trkpt lat="43.733742548292085" lon="11.263120566411898"><ele>87.0</ele><time>2026-05-01T15:06:40Z</time></trkpt><trkpt lat="43.73390354695214" lon="11.263393615150296"><ele>90.0</ele><time>2026-05-01T15:06:41Z</time></trkpt><trkpt lat="43.734067215689755" lon="11.263663999812525"><ele>90.0</ele><time>2026-05-01T15:06:42Z</time></trkpt><trkpt lat="43.734229772076525" lon="11.263932983387859"><ele>90.0</ele><time>2026-05-01T15:06:43Z</time></trkpt><trkpt lat="43.73438827688006" lon="11.26420220965131"><ele>88.0</ele><time>2026-05-01T15:06:44Z</time></trkpt><trkpt lat="43.73454870874941" lon="11.264476259176215"><ele>86.0</ele><time>2026-05-01T15:06:45Z</time></trkpt><trkpt lat="43.734707972471746" lon="11.26473918421499"><ele>87.5</ele><time>2026-05-01T15:06:46Z</time></trkpt><trkpt lat="43.73486614969713" lon="11.265003535081876"><ele>89.0</ele><time>2026-05-01T15:06:47Z</time></trkpt><trkpt lat="43.73502384875773" lon="11.265275470807765"><ele>89.0</ele><time>2026-05-01T15:06:48Z</time></trkpt><trkpt lat="43.73518416228004" lon="11.265543036486912"><ele>89.0</ele><time>2026-05-01T15:06:49Z</time></trkpt><trkpt lat="43.735340424505196" lon="11.265808051040517"><ele>86.0</ele><time>2026-05-01T15:06:50Z</time></trkpt><trkpt lat="43.73549710203836" lon="11.2660798798879"><ele>83.0</ele><time>2026-05-01T15:06:51Z</time></trkpt><trkpt lat="43.73565327087307" lon="11.266346313731422"><ele>87.0</ele><time>2026-05-01T15:06:52Z</time></trkpt><trkpt lat="43.73580967143849" lon="11.26661524699899"><ele>91.0</ele><time>2026-05-01T15:06:53Z</time></trkpt><trkpt lat="43.73596794495993" lon="11.266876367973342"><ele>89.5</ele><time>2026-05-01T15:06:54Z</time></trkpt><trkpt lat="43.73612514654966" lon="11.26713979601872"><ele>88.0</ele><time>2026-05-01T15:06:54.999Z</time></trkpt><trkpt lat="43.73628332776468" lon="11.267407596873369"><ele>88.0</ele><time>2026-05-01T15:06:55.999Z</time></trkpt><trkpt lat="43.736439466027825" lon="11.267676725876486"><ele>88.0</ele><time>2026-05-01T15:06:56.999Z</time></trkpt><trkpt lat="43.736597173989175" lon="11.267946631240514"><ele>89.0</ele><time>2026-05-01T15:06:57.999Z</time></trkpt><trkpt lat="43.73675378787312" lon="11.268210276957038"><ele>90.0</ele><time>2026-05-01T15:06:58.999Z</time></trkpt><trkpt lat="43.73691362223429" lon="11.268478457446296"><ele>88.5</ele><time>2026-05-01T15:06:59.999Z</time></trkpt><trkpt lat="43.73707160954609" lon="11.268747919853448"><ele>87.0</ele><time>2026-05-01T15:07:00.999Z</time></trkpt><trkpt lat="43.737230597564846" lon="11.269016833240215"><ele>87.0</ele><time>2026-05-01T15:07:01.999Z</time></trkpt><trkpt lat="43.7373918102234" lon="11.269290052082114"><ele>87.0</ele><time>2026-05-01T15:07:02.999Z</time></trkpt><trkpt lat="43.737551202919484" lon="11.269555059185608"><ele>86.0</ele><time>2026-05-01T15:07:03.999Z</time></trkpt><trkpt lat="43.737709893513774" lon="11.26982156453506"><ele>85.0</ele><time>2026-05-01T15:07:04.999Z</time></trkpt><trkpt lat="43.73787188498089" lon="11.270089884978796"><ele>85.0</ele><time>2026-05-01T15:07:05.999Z</time></trkpt><trkpt lat="43.7380318992592" lon="11.2703609502629"><ele>85.0</ele><time>2026-05-01T15:07:06.999Z</time></trkpt><trkpt lat="43.73819349438987" lon="11.270631912045713"><ele>88.0</ele><time>2026-05-01T15:07:07.999Z</time></trkpt><trkpt lat="43.73835549466799" lon="11.270900184254213"><ele>91.0</ele><time>2026-05-01T15:07:08.999Z</time></trkpt><trkpt lat="43.73851632258373" lon="11.271173221373289"><ele>86.5</ele><time>2026-05-01T15:07:09.999Z</time></trkpt><trkpt lat="43.73867600321842" lon="11.271446177437378"><ele>82.0</ele><time>2026-05-01T15:07:10.999Z</time></trkpt><trkpt lat="43.7388328080872" lon="11.271727310793734"><ele>82.0</ele><time>2026-05-01T15:07:11.999Z</time></trkpt><trkpt lat="43.73898516542368" lon="11.27201297148369"><ele>82.0</ele><time>2026-05-01T15:07:12.999Z</time></trkpt><trkpt lat="43.73913005412002" lon="11.272306144381345"><ele>84.0</ele><time>2026-05-01T15:07:13.999Z</time></trkpt><trkpt lat="43.73926811518964" lon="11.272616855005602"><ele>86.0</ele><time>2026-05-01T15:07:14.999Z</time></trkpt><trkpt lat="43.73939634652252" lon="11.272929224845228"><ele>83.0</ele><time>2026-05-01T15:07:15.999Z</time></trkpt><trkpt lat="43.739512934710454" lon="11.273248493213824"><ele>80.0</ele><time>2026-05-01T15:07:16.999Z</time></trkpt><trkpt lat="43.7396209300776" lon="11.273575076608578"><ele>80.0</ele><time>2026-05-01T15:07:17.999Z</time></trkpt><trkpt lat="43.739717668689764" lon="11.27390928417357"><ele>80.0</ele><time>2026-05-01T15:07:18.999Z</time></trkpt><trkpt lat="43.73980221173951" lon="11.27425119846747"><ele>82.0</ele><time>2026-05-01T15:07:19.999Z</time></trkpt><trkpt lat="43.73987265648607" lon="11.274603016899412"><ele>84.0</ele><time>2026-05-01T15:07:20.999Z</time></trkpt><trkpt lat="43.73993054402077" lon="11.274959307482636"><ele>84.0</ele><time>2026-05-01T15:07:21.999Z</time></trkpt><trkpt lat="43.73997795506778" lon="11.275321810576198"><ele>84.0</ele><time>2026-05-01T15:07:22.999Z</time></trkpt><trkpt lat="43.740015383888085" lon="11.275687254106636"><ele>83.5</ele><time>2026-05-01T15:07:23.999Z</time></trkpt><trkpt lat="43.74004720240649" lon="11.276051199254837"><ele>83.0</ele><time>2026-05-01T15:07:24.999Z</time></trkpt><trkpt lat="43.740078492726276" lon="11.27641639601255"><ele>83.0</ele><time>2026-05-01T15:07:25.999Z</time></trkpt><trkpt lat="43.74011114655717" lon="11.276784214002905"><ele>83.0</ele><time>2026-05-01T15:07:26.999Z</time></trkpt><trkpt lat="43.740141785881995" lon="11.277152490566413"><ele>83.5</ele><time>2026-05-01T15:07:27.999Z</time></trkpt><trkpt lat="43.740170203259495" lon="11.277520242608519"><ele>84.0</ele><time>2026-05-01T15:07:28.999Z</time></trkpt><trkpt lat="43.740197131369385" lon="11.277887195524373"><ele>81.0</ele><time>2026-05-01T15:07:29.999Z</time></trkpt><trkpt lat="43.74022367782313" lon="11.278251007759918"><ele>78.0</ele><time>2026-05-01T15:07:30.999Z</time></trkpt><trkpt lat="43.740250733165524" lon="11.278613389120776"><ele>80.0</ele><time>2026-05-01T15:07:31.999Z</time></trkpt><trkpt lat="43.74027719028027" lon="11.278974723009963"><ele>82.0</ele><time>2026-05-01T15:07:32.999Z</time></trkpt><trkpt lat="43.74030339438807" lon="11.279332445229588"><ele>82.0</ele><time>2026-05-01T15:07:33.999Z</time></trkpt><trkpt lat="43.74033134557764" lon="11.279688854958964"><ele>82.0</ele><time>2026-05-01T15:07:34.999Z</time></trkpt><trkpt lat="43.74035908658675" lon="11.280049344619302"><ele>83.5</ele><time>2026-05-01T15:07:35.999Z</time></trkpt><trkpt lat="43.7403865708351" lon="11.280409906647785"><ele>85.0</ele><time>2026-05-01T15:07:36.999Z</time></trkpt><trkpt lat="43.74041414076544" lon="11.280769179732577"><ele>86.5</ele><time>2026-05-01T15:07:37.999Z</time></trkpt><trkpt lat="43.74043680330478" lon="11.281130909603807"><ele>88.0</ele><time>2026-05-01T15:07:38.999Z</time></trkpt><trkpt lat="43.74045554740956" lon="11.281496092642357"><ele>88.0</ele><time>2026-05-01T15:07:39.999Z</time></trkpt><trkpt lat="43.74046597827751" lon="11.281860323278167"><ele>88.0</ele><time>2026-05-01T15:07:40.999Z</time></trkpt><trkpt lat="43.740470265110034" lon="11.282225743666709"><ele>88.0</ele><time>2026-05-01T15:07:41.999Z</time></trkpt><trkpt lat="43.740467673510956" lon="11.282588346622395"><ele>88.0</ele><time>2026-05-01T15:07:42.999Z</time></trkpt><trkpt lat="43.74045576278833" lon="11.282949602277126"><ele>88.0</ele><time>2026-05-01T15:07:43.999Z</time></trkpt><trkpt lat="43.74043135336018" lon="11.283308983683318"><ele>88.0</ele><time>2026-05-01T15:07:44.999Z</time></trkpt><trkpt lat="43.74039559376768" lon="11.283667322912212"><ele>86.5</ele><time>2026-05-01T15:07:45.999Z</time></trkpt><trkpt lat="43.74035217750463" lon="11.284025154918776"><ele>85.0</ele><time>2026-05-01T15:07:46.999Z</time></trkpt><trkpt lat="43.74030219543015" lon="11.28438284857195"><ele>85.0</ele><time>2026-05-01T15:07:47.999Z</time></trkpt><trkpt lat="43.74024274410016" lon="11.284733972339415"><ele>85.0</ele><time>2026-05-01T15:07:48.999Z</time></trkpt><trkpt lat="43.74017004281219" lon="11.285089861548284"><ele>88.5</ele><time>2026-05-01T15:07:49.999Z</time></trkpt><trkpt lat="43.740087092726746" lon="11.285443988784424"><ele>92.0</ele><time>2026-05-01T15:07:50.999Z</time></trkpt><trkpt lat="43.739994849752684" lon="11.285794531194343"><ele>92.0</ele><time>2026-05-01T15:07:51.999Z</time></trkpt><trkpt lat="43.739891386325915" lon="11.286142767522119"><ele>92.0</ele><time>2026-05-01T15:07:52.999Z</time></trkpt><trkpt lat="43.73977988322528" lon="11.286486346991403"><ele>90.0</ele><time>2026-05-01T15:07:53.999Z</time></trkpt><trkpt lat="43.73965706074395" lon="11.286827106597864"><ele>88.0</ele><time>2026-05-01T15:07:54.999Z</time></trkpt><trkpt lat="43.73952391055632" lon="11.287162204307913"><ele>94.0</ele><time>2026-05-01T15:07:55.999Z</time></trkpt><trkpt lat="43.73938031148437" lon="11.287490524137366"><ele>100.0</ele><time>2026-05-01T15:07:56.999Z</time></trkpt><trkpt lat="43.73922765861439" lon="11.287814502790027"><ele>96.5</ele><time>2026-05-01T15:07:57.999Z</time></trkpt><trkpt lat="43.739070304413204" lon="11.288139493311165"><ele>93.0</ele><time>2026-05-01T15:07:58.999Z</time></trkpt><trkpt lat="43.73890863029171" lon="11.288461737405513"><ele>93.0</ele><time>2026-05-01T15:07:59.999Z</time></trkpt><trkpt lat="43.7387448310684" lon="11.288781883062642"><ele>93.0</ele><time>2026-05-01T15:08:00.999Z</time></trkpt><trkpt lat="43.73857701087148" lon="11.289100902992514"><ele>100.0</ele><time>2026-05-01T15:08:01.999Z</time></trkpt><trkpt lat="43.7384063636221" lon="11.289419001977604"><ele>107.0</ele><time>2026-05-01T15:08:02.999Z</time></trkpt><trkpt lat="43.73823644273578" lon="11.289736920525092"><ele>102.0</ele><time>2026-05-01T15:08:03.999Z</time></trkpt><trkpt lat="43.738070551882714" lon="11.290058258043407"><ele>97.0</ele><time>2026-05-01T15:08:04.999Z</time></trkpt><trkpt lat="43.73790809240418" lon="11.290383713042589"><ele>92.0</ele><time>2026-05-01T15:08:05.999Z</time></trkpt><trkpt lat="43.73775185313182" lon="11.290714308566507"><ele>87.0</ele><time>2026-05-01T15:08:06.999Z</time></trkpt><trkpt lat="43.73760179782287" lon="11.291049875807621"><ele>91.5</ele><time>2026-05-01T15:08:07.999Z</time></trkpt><trkpt lat="43.7374595269047" lon="11.291393086195468"><ele>96.0</ele><time>2026-05-01T15:08:08.999Z</time></trkpt><trkpt lat="43.737328564252145" lon="11.291742149941204"><ele>96.0</ele><time>2026-05-01T15:08:09.999Z</time></trkpt><trkpt lat="43.73720656072123" lon="11.292094779200209"><ele>96.0</ele><time>2026-05-01T15:08:11Z</time></trkpt><trkpt lat="43.73709443044869" lon="11.292449034948413"><ele>91.0</ele><time>2026-05-01T15:08:12Z</time></trkpt><trkpt lat="43.73699747122384" lon="11.29281459898277"><ele>86.0</ele><time>2026-05-01T15:08:13Z</time></trkpt><trkpt lat="43.736910274904766" lon="11.29317830098698"><ele>84.0</ele><time>2026-05-01T15:08:14Z</time></trkpt><trkpt lat="43.73683444982218" lon="11.293538240405839"><ele>82.0</ele><time>2026-05-01T15:08:15Z</time></trkpt><trkpt lat="43.73676209866404" lon="11.29389953653253"><ele>83.0</ele><time>2026-05-01T15:08:16Z</time></trkpt><trkpt lat="43.73669370319962" lon="11.294267161338224"><ele>84.0</ele><time>2026-05-01T15:08:17Z</time></trkpt><trkpt lat="43.73662351507657" lon="11.294638353888148"><ele>84.0</ele><time>2026-05-01T15:08:18.001Z</time></trkpt><trkpt lat="43.736551668526" lon="11.295005002412847"><ele>84.0</ele><time>2026-05-01T15:08:19.001Z</time></trkpt><trkpt lat="43.736473037215845" lon="11.295370113268376"><ele>84.0</ele><time>2026-05-01T15:08:20.001Z</time></trkpt><trkpt lat="43.73638260874152" lon="11.2957325254197"><ele>84.0</ele><time>2026-05-01T15:08:21.001Z</time></trkpt><trkpt lat="43.73628244032632" lon="11.296088865884537"><ele>85.0</ele><time>2026-05-01T15:08:22.001Z</time></trkpt><trkpt lat="43.73617009489088" lon="11.296435280581518"><ele>86.0</ele><time>2026-05-01T15:08:23.001Z</time></trkpt><trkpt lat="43.73604573756307" lon="11.296769566366093"><ele>86.5</ele><time>2026-05-01T15:08:24.001Z</time></trkpt><trkpt lat="43.73590785146178" lon="11.297092805631042"><ele>87.0</ele><time>2026-05-01T15:08:25.001Z</time></trkpt><trkpt lat="43.73575777215385" lon="11.29740654493882"><ele>90.5</ele><time>2026-05-01T15:08:26.001Z</time></trkpt><trkpt lat="43.73560146207065" lon="11.297709273855592"><ele>94.0</ele><time>2026-05-01T15:08:27.001Z</time></trkpt><trkpt lat="43.73543409457699" lon="11.298002909380678"><ele>96.0</ele><time>2026-05-01T15:08:28.001Z</time></trkpt><trkpt lat="43.73525385186756" lon="11.298285184926735"><ele>98.0</ele><time>2026-05-01T15:08:29.001Z</time></trkpt><trkpt lat="43.73506871746022" lon="11.298559284138973"><ele>98.0</ele><time>2026-05-01T15:08:30.001Z</time></trkpt><trkpt lat="43.73488010210101" lon="11.298826768451363"><ele>98.0</ele><time>2026-05-01T15:08:31.001Z</time></trkpt><trkpt lat="43.73469219816221" lon="11.29909514234574"><ele>97.0</ele><time>2026-05-01T15:08:32.001Z</time></trkpt><trkpt lat="43.734505317281695" lon="11.299361981194705"><ele>96.0</ele><time>2026-05-01T15:08:33.001Z</time></trkpt><trkpt lat="43.73432038892831" lon="11.299631258524881"><ele>97.5</ele><time>2026-05-01T15:08:34.001Z</time></trkpt><trkpt lat="43.73414251476548" lon="11.299905885048686"><ele>99.0</ele><time>2026-05-01T15:08:35.001Z</time></trkpt><trkpt lat="43.73397413090303" lon="11.300190575184097"><ele>99.0</ele><time>2026-05-01T15:08:36.001Z</time></trkpt><trkpt lat="43.73381315613949" lon="11.300480563878535"><ele>99.0</ele><time>2026-05-01T15:08:37.001Z</time></trkpt><trkpt lat="43.73366949618092" lon="11.300786087492195"><ele>96.5</ele><time>2026-05-01T15:08:38.001Z</time></trkpt><trkpt lat="43.73354155403913" lon="11.301106886615418"><ele>94.0</ele><time>2026-05-01T15:08:39.001Z</time></trkpt><trkpt lat="43.7334359327675" lon="11.301439081122632"><ele>94.0</ele><time>2026-05-01T15:08:40.001Z</time></trkpt><trkpt lat="43.733345590498594" lon="11.30178130642816"><ele>94.0</ele><time>2026-05-01T15:08:41.001Z</time></trkpt><trkpt lat="43.733277129772176" lon="11.302134352415424"><ele>93.5</ele><time>2026-05-01T15:08:42.001Z</time></trkpt><trkpt lat="43.733223563367346" lon="11.302496094164777"><ele>93.0</ele><time>2026-05-01T15:08:43.001Z</time></trkpt><trkpt lat="43.733186634892434" lon="11.302862534685511"><ele>94.0</ele><time>2026-05-01T15:08:44.001Z</time></trkpt><trkpt lat="43.73316375259871" lon="11.303234827159594"><ele>95.0</ele><time>2026-05-01T15:08:45.001Z</time></trkpt><trkpt lat="43.73315506015727" lon="11.303608956846723"><ele>95.0</ele><time>2026-05-01T15:08:46Z</time></trkpt><trkpt lat="43.733154063205305" lon="11.303983367666177"><ele>95.0</ele><time>2026-05-01T15:08:47Z</time></trkpt><trkpt lat="43.73315702379152" lon="11.304360495837127"><ele>95.0</ele><time>2026-05-01T15:08:48Z</time></trkpt><trkpt lat="43.733159249140606" lon="11.304735099753024"><ele>95.0</ele><time>2026-05-01T15:08:49Z</time></trkpt><trkpt lat="43.733160077710984" lon="11.305109883183183"><ele>95.0</ele><time>2026-05-01T15:08:50Z</time></trkpt><trkpt lat="43.733160093772035" lon="11.30548380791318"><ele>95.0</ele><time>2026-05-01T15:08:51Z</time></trkpt><trkpt lat="43.73315746420084" lon="11.305856165063693"><ele>95.5</ele><time>2026-05-01T15:08:52Z</time></trkpt><trkpt lat="43.733146463641106" lon="11.306225955380388"><ele>96.0</ele><time>2026-05-01T15:08:53Z</time></trkpt><trkpt lat="43.73312237873868" lon="11.306594824835809"><ele>96.5</ele><time>2026-05-01T15:08:54Z</time></trkpt><trkpt lat="43.733086850039236" lon="11.306962103296163"><ele>97.0</ele><time>2026-05-01T15:08:55Z</time></trkpt><trkpt lat="43.73304171217437" lon="11.307324930751609"><ele>98.0</ele><time>2026-05-01T15:08:56Z</time></trkpt><trkpt lat="43.73298970964314" lon="11.30768534301969"><ele>99.0</ele><time>2026-05-01T15:08:57Z</time></trkpt><trkpt lat="43.73292856148328" lon="11.30804060765505"><ele>100.0</ele><time>2026-05-01T15:08:58Z</time></trkpt><trkpt lat="43.732860570637996" lon="11.308393239995924"><ele>101.0</ele><time>2026-05-01T15:08:59Z</time></trkpt><trkpt lat="43.73278615616668" lon="11.308743037775935"><ele>99.5</ele><time>2026-05-01T15:09:00Z</time></trkpt><trkpt lat="43.732706957640026" lon="11.309091925909444"><ele>98.0</ele><time>2026-05-01T15:09:01Z</time></trkpt><trkpt lat="43.732626770764135" lon="11.30943877114878"><ele>99.0</ele><time>2026-05-01T15:09:02Z</time></trkpt><trkpt lat="43.73254895908223" lon="11.309785699072812"><ele>100.0</ele><time>2026-05-01T15:09:03Z</time></trkpt><trkpt lat="43.73247067915009" lon="11.310137507158132"><ele>100.0</ele><time>2026-05-01T15:09:04Z</time></trkpt><trkpt lat="43.73239064741317" lon="11.310487558701901"><ele>100.0</ele><time>2026-05-01T15:09:05Z</time></trkpt><trkpt lat="43.73231038098825" lon="11.310832990490187"><ele>104.0</ele><time>2026-05-01T15:09:06Z</time></trkpt><trkpt lat="43.73222900420996" lon="11.311181442540528"><ele>108.0</ele><time>2026-05-01T15:09:07Z</time></trkpt><trkpt lat="43.73214992827942" lon="11.311532131766102"><ele>111.5</ele><time>2026-05-01T15:09:08Z</time></trkpt><trkpt lat="43.732070141411974" lon="11.311886691001343"><ele>115.0</ele><time>2026-05-01T15:09:09Z</time></trkpt><trkpt lat="43.731988732248965" lon="11.312239592515427"><ele>110.5</ele><time>2026-05-01T15:09:10Z</time></trkpt><trkpt lat="43.73190575599996" lon="11.3125947094716"><ele>106.0</ele><time>2026-05-01T15:09:11Z</time></trkpt><trkpt lat="43.73182396030313" lon="11.312949089249676"><ele>107.5</ele><time>2026-05-01T15:09:12Z</time></trkpt><trkpt lat="43.73174206620826" lon="11.313306496765012"><ele>109.0</ele><time>2026-05-01T15:09:13Z</time></trkpt><trkpt lat="43.731661283213036" lon="11.313663212130765"><ele>109.5</ele><time>2026-05-01T15:09:14Z</time></trkpt><trkpt lat="43.73158179451676" lon="11.314018874671012"><ele>110.0</ele><time>2026-05-01T15:09:15Z</time></trkpt><trkpt lat="43.731500771736115" lon="11.314376129651672"><ele>110.0</ele><time>2026-05-01T15:09:16Z</time></trkpt><trkpt lat="43.73141788955868" lon="11.314729418186944"><ele>110.0</ele><time>2026-05-01T15:09:17Z</time></trkpt><trkpt lat="43.731337263976386" lon="11.31508484053992"><ele>111.0</ele><time>2026-05-01T15:09:18Z</time></trkpt><trkpt lat="43.731257299264854" lon="11.315440180265764"><ele>112.0</ele><time>2026-05-01T15:09:19Z</time></trkpt><trkpt lat="43.731176557583304" lon="11.315797281631152"><ele>112.0</ele><time>2026-05-01T15:09:20Z</time></trkpt><trkpt lat="43.73109587178387" lon="11.316153077537928"><ele>112.0</ele><time>2026-05-01T15:09:21Z</time></trkpt><trkpt lat="43.73101367674606" lon="11.316509928984686"><ele>112.0</ele><time>2026-05-01T15:09:22Z</time></trkpt><trkpt lat="43.730931820048426" lon="11.316865676065536"><ele>112.0</ele><time>2026-05-01T15:09:23Z</time></trkpt><trkpt lat="43.73085016074599" lon="11.317225127469797"><ele>114.5</ele><time>2026-05-01T15:09:24Z</time></trkpt><trkpt lat="43.730767666269465" lon="11.317584997249313"><ele>117.0</ele><time>2026-05-01T15:09:25Z</time></trkpt><trkpt lat="43.73068421191776" lon="11.317945406640753"><ele>121.5</ele><time>2026-05-01T15:09:26Z</time></trkpt><trkpt lat="43.7306029655486" lon="11.318308834879975"><ele>126.0</ele><time>2026-05-01T15:09:27Z</time></trkpt><trkpt lat="43.73052257684921" lon="11.318669776532808"><ele>130.0</ele><time>2026-05-01T15:09:28Z</time></trkpt><trkpt lat="43.730442712791785" lon="11.319029792909896"><ele>134.0</ele><time>2026-05-01T15:09:29Z</time></trkpt><trkpt lat="43.73035948834273" lon="11.319390074261847"><ele>131.5</ele><time>2026-05-01T15:09:30Z</time></trkpt><trkpt lat="43.73027815784219" lon="11.319750317145035"><ele>129.0</ele><time>2026-05-01T15:09:31Z</time></trkpt><trkpt lat="43.73019620012818" lon="11.320108269106083"><ele>129.0</ele><time>2026-05-01T15:09:32Z</time></trkpt><trkpt lat="43.730115147818495" lon="11.320468804541651"><ele>129.0</ele><time>2026-05-01T15:09:33Z</time></trkpt><trkpt lat="43.73003611470779" lon="11.3208288061646"><ele>131.5</ele><time>2026-05-01T15:09:34Z</time></trkpt><trkpt lat="43.7299609570965" lon="11.321190816220755"><ele>134.0</ele><time>2026-05-01T15:09:35Z</time></trkpt><trkpt lat="43.72989168958982" lon="11.321554097290305"><ele>136.5</ele><time>2026-05-01T15:09:36Z</time></trkpt><trkpt lat="43.72982747185613" lon="11.321920368873812"><ele>139.0</ele><time>2026-05-01T15:09:37Z</time></trkpt><trkpt lat="43.7297688580957" lon="11.32228639620414"><ele>141.5</ele><time>2026-05-01T15:09:38Z</time></trkpt><trkpt lat="43.729713326227056" lon="11.322655050675776"><ele>144.0</ele><time>2026-05-01T15:09:39Z</time></trkpt><trkpt lat="43.72965780089429" lon="11.32304418087388"><ele>146.0</ele><time>2026-05-01T15:09:40.073Z</time></trkpt><trkpt lat="43.72961322481576" lon="11.323387065520619"><ele>148.0</ele><time>2026-05-01T15:09:41Z</time></trkpt><trkpt lat="43.72957445585348" lon="11.32376820196829"><ele>149.0</ele><time>2026-05-01T15:09:42Z</time></trkpt><trkpt lat="43.72954002484499" lon="11.32408582374855"><ele>150.0</ele><time>2026-05-01T15:09:43Z</time></trkpt><trkpt lat="43.72951513069112" lon="11.324452071705874"><ele>147.5</ele><time>2026-05-01T15:09:44Z</time></trkpt><trkpt lat="43.72949065577601" lon="11.324830300030934"><ele>145.0</ele><time>2026-05-01T15:09:45Z</time></trkpt><trkpt lat="43.72947507227469" lon="11.325202158921506"><ele>143.0</ele><time>2026-05-01T15:09:46Z</time></trkpt><trkpt lat="43.72946640881267" lon="11.325572815667662"><ele>141.0</ele><time>2026-05-01T15:09:47Z</time></trkpt><trkpt lat="43.729463129779354" lon="11.325941168222448"><ele>141.0</ele><time>2026-05-01T15:09:48Z</time></trkpt><trkpt lat="43.72946697967123" lon="11.326310584317888"><ele>141.0</ele><time>2026-05-01T15:09:49Z</time></trkpt><trkpt lat="43.72946710825577" lon="11.326675294664629"><ele>141.5</ele><time>2026-05-01T15:09:50Z</time></trkpt><trkpt lat="43.729467703409384" lon="11.327040119790485"><ele>142.0</ele><time>2026-05-01T15:09:51Z</time></trkpt><trkpt lat="43.72947179093686" lon="11.32740157038491"><ele>143.0</ele><time>2026-05-01T15:09:52Z</time></trkpt><trkpt lat="43.729472526956684" lon="11.327761908776262"><ele>144.0</ele><time>2026-05-01T15:09:53Z</time></trkpt><trkpt lat="43.729470854372195" lon="11.328120440931299"><ele>145.0</ele><time>2026-05-01T15:09:54Z</time></trkpt><trkpt lat="43.72947038867153" lon="11.328479477640654"><ele>146.0</ele><time>2026-05-01T15:09:55Z</time></trkpt><trkpt lat="43.72947042188828" lon="11.328838710722325"><ele>147.5</ele><time>2026-05-01T15:09:56Z</time></trkpt><trkpt lat="43.7294710021557" lon="11.329201614263248"><ele>149.0</ele><time>2026-05-01T15:09:57Z</time></trkpt><trkpt lat="43.729473465459265" lon="11.329564283035142"><ele>150.5</ele><time>2026-05-01T15:09:58Z</time></trkpt><trkpt lat="43.72947735245345" lon="11.329923941829842"><ele>152.0</ele><time>2026-05-01T15:09:59Z</time></trkpt><trkpt lat="43.72948176412229" lon="11.330286136868812"><ele>154.5</ele><time>2026-05-01T15:10:00Z</time></trkpt><trkpt lat="43.729483813914975" lon="11.330645292019799"><ele>157.0</ele><time>2026-05-01T15:10:01Z</time></trkpt><trkpt lat="43.72948534249924" lon="11.331001076066324"><ele>157.0</ele><time>2026-05-01T15:10:02Z</time></trkpt><trkpt lat="43.72948979706397" lon="11.331361312447216"><ele>157.0</ele><time>2026-05-01T15:10:03Z</time></trkpt><trkpt lat="43.72949527139656" lon="11.33172118036632"><ele>160.5</ele><time>2026-05-01T15:10:04Z</time></trkpt><trkpt lat="43.72950089332132" lon="11.332082265519091"><ele>164.0</ele><time>2026-05-01T15:10:05Z</time></trkpt><trkpt lat="43.72950525036975" lon="11.332443735063118"><ele>165.0</ele><time>2026-05-01T15:10:06Z</time></trkpt><trkpt lat="43.72950988305933" lon="11.332806495505656"><ele>166.0</ele><time>2026-05-01T15:10:07Z</time></trkpt><trkpt lat="43.72951389438011" lon="11.33316839587375"><ele>167.0</ele><time>2026-05-01T15:10:08Z</time></trkpt><trkpt lat="43.72951538962332" lon="11.333529358732644"><ele>168.0</ele><time>2026-05-01T15:10:09Z</time></trkpt><trkpt lat="43.72951089901989" lon="11.33389264506453"><ele>170.0</ele><time>2026-05-01T15:10:10Z</time></trkpt><trkpt lat="43.72949841873265" lon="11.334256836124966"><ele>172.0</ele><time>2026-05-01T15:10:11Z</time></trkpt><trkpt lat="43.72947923898375" lon="11.334622819585151"><ele>172.0</ele><time>2026-05-01T15:10:12Z</time></trkpt><trkpt lat="43.72945299700571" lon="11.334988286369553"><ele>172.0</ele><time>2026-05-01T15:10:13Z</time></trkpt><trkpt lat="43.72942141353564" lon="11.335349451014324"><ele>175.0</ele><time>2026-05-01T15:10:13.999Z</time></trkpt><trkpt lat="43.729382572634236" lon="11.335713102326539"><ele>178.0</ele><time>2026-05-01T15:10:14.999Z</time></trkpt><trkpt lat="43.72933477544385" lon="11.336076585763914"><ele>177.0</ele><time>2026-05-01T15:10:15.999Z</time></trkpt><trkpt lat="43.72927636445327" lon="11.336437923858323"><ele>176.0</ele><time>2026-05-01T15:10:17.001Z</time></trkpt><trkpt lat="43.729209028597346" lon="11.336792218378589"><ele>176.0</ele><time>2026-05-01T15:10:18.001Z</time></trkpt><trkpt lat="43.72913696669353" lon="11.3371455085469"><ele>176.0</ele><time>2026-05-01T15:10:19.001Z</time></trkpt><trkpt lat="43.72905796534879" lon="11.337491397892885"><ele>176.0</ele><time>2026-05-01T15:10:20.001Z</time></trkpt><trkpt lat="43.72897523039588" lon="11.337838988529509"><ele>176.0</ele><time>2026-05-01T15:10:21.001Z</time></trkpt><trkpt lat="43.72888706305274" lon="11.338186607920447"><ele>177.5</ele><time>2026-05-01T15:10:22.001Z</time></trkpt><trkpt lat="43.728798106231906" lon="11.338533854460024"><ele>179.0</ele><time>2026-05-01T15:10:23.001Z</time></trkpt><trkpt lat="43.72870307749449" lon="11.338879611606469"><ele>180.5</ele><time>2026-05-01T15:10:24.001Z</time></trkpt><trkpt lat="43.72860527755166" lon="11.339225696206627"><ele>182.0</ele><time>2026-05-01T15:10:25.001Z</time></trkpt><trkpt lat="43.72850880117663" lon="11.339572555932032"><ele>186.5</ele><time>2026-05-01T15:10:26.001Z</time></trkpt><trkpt lat="43.7284160719543" lon="11.339920660505982"><ele>191.0</ele><time>2026-05-01T15:10:27.001Z</time></trkpt><trkpt lat="43.7283241793993" lon="11.340268710554913"><ele>193.0</ele><time>2026-05-01T15:10:28.001Z</time></trkpt><trkpt lat="43.728233655792664" lon="11.340617644748452"><ele>195.0</ele><time>2026-05-01T15:10:29.001Z</time></trkpt><trkpt lat="43.728149761355354" lon="11.340967046239232"><ele>195.0</ele><time>2026-05-01T15:10:30.001Z</time></trkpt><trkpt lat="43.728069722286435" lon="11.34131854196583"><ele>195.0</ele><time>2026-05-01T15:10:31.001Z</time></trkpt><trkpt lat="43.72799196163672" lon="11.341668900956014"><ele>196.5</ele><time>2026-05-01T15:10:32.001Z</time></trkpt><trkpt lat="43.7279189200672" lon="11.342021684492495"><ele>198.0</ele><time>2026-05-01T15:10:33.001Z</time></trkpt><trkpt lat="43.727852029066334" lon="11.342377064741873"><ele>199.0</ele><time>2026-05-01T15:10:34.001Z</time></trkpt><trkpt lat="43.72778785468782" lon="11.342730107200097"><ele>200.0</ele><time>2026-05-01T15:10:35.001Z</time></trkpt><trkpt lat="43.727727692119096" lon="11.343083381487842"><ele>193.5</ele><time>2026-05-01T15:10:36.001Z</time></trkpt><trkpt lat="43.7276713000065" lon="11.343436197805625"><ele>187.0</ele><time>2026-05-01T15:10:37.001Z</time></trkpt><trkpt lat="43.727620311455375" lon="11.343791947502165"><ele>190.5</ele><time>2026-05-01T15:10:38.001Z</time></trkpt><trkpt lat="43.72757502585233" lon="11.344144607042221"><ele>194.0</ele><time>2026-05-01T15:10:39.001Z</time></trkpt><trkpt lat="43.727536754803545" lon="11.344501887145288"><ele>196.5</ele><time>2026-05-01T15:10:40.001Z</time></trkpt><trkpt lat="43.72750816452068" lon="11.34485858938608"><ele>199.0</ele><time>2026-05-01T15:10:41.001Z</time></trkpt><trkpt lat="43.7274890174216" lon="11.345215099295766"><ele>201.0</ele><time>2026-05-01T15:10:42.001Z</time></trkpt><trkpt lat="43.7274783567457" lon="11.345568532440566"><ele>203.0</ele><time>2026-05-01T15:10:43Z</time></trkpt><trkpt lat="43.727479109932176" lon="11.345917417911387"><ele>203.0</ele><time>2026-05-01T15:10:44Z</time></trkpt><trkpt lat="43.72749225793324" lon="11.346262540273896"><ele>203.0</ele><time>2026-05-01T15:10:45Z</time></trkpt><trkpt lat="43.727492538594156" lon="11.346640436052347"><ele>203.5</ele><time>2026-05-01T15:10:46Z</time></trkpt><trkpt lat="43.72752648146959" lon="11.346989614588132"><ele>204.0</ele><time>2026-05-01T15:10:47Z</time></trkpt><trkpt lat="43.72758449485474" lon="11.347332503493899"><ele>202.5</ele><time>2026-05-01T15:10:48Z</time></trkpt><trkpt lat="43.72764711669217" lon="11.347674303040513"><ele>201.0</ele><time>2026-05-01T15:10:49Z</time></trkpt><trkpt lat="43.727716177803174" lon="11.348020455595664"><ele>210.0</ele><time>2026-05-01T15:10:50Z</time></trkpt><trkpt lat="43.72779815651436" lon="11.348361575465752"><ele>219.0</ele><time>2026-05-01T15:10:51Z</time></trkpt><trkpt lat="43.72788313788443" lon="11.348691912559792"><ele>213.5</ele><time>2026-05-01T15:10:52Z</time></trkpt><trkpt lat="43.727956706916856" lon="11.349037547405509"><ele>208.0</ele><time>2026-05-01T15:10:53Z</time></trkpt><trkpt lat="43.72805542720116" lon="11.349373071926715"><ele>208.0</ele><time>2026-05-01T15:10:54Z</time></trkpt><trkpt lat="43.72815428239215" lon="11.349698557190278"><ele>208.0</ele><time>2026-05-01T15:10:55Z</time></trkpt><trkpt lat="43.728245844286036" lon="11.350019526505427"><ele>205.0</ele><time>2026-05-01T15:10:56Z</time></trkpt><trkpt lat="43.72833068305676" lon="11.350344319630365"><ele>202.0</ele><time>2026-05-01T15:10:57Z</time></trkpt><trkpt lat="43.72841741839071" lon="11.350669853431093"><ele>199.5</ele><time>2026-05-01T15:10:58Z</time></trkpt><trkpt lat="43.72850525354206" lon="11.350994930749724"><ele>197.0</ele><time>2026-05-01T15:10:59Z</time></trkpt><trkpt lat="43.728588741925535" lon="11.351311093743325"><ele>214.0</ele><time>2026-05-01T15:11:00Z</time></trkpt><trkpt lat="43.72867367647259" lon="11.35162446896729"><ele>231.0</ele><time>2026-05-01T15:11:01Z</time></trkpt><trkpt lat="43.728747438456466" lon="11.351938027812858"><ele>228.5</ele><time>2026-05-01T15:11:02Z</time></trkpt><trkpt lat="43.72882286928012" lon="11.352261774223749"><ele>226.0</ele><time>2026-05-01T15:11:03Z</time></trkpt><trkpt lat="43.728878963783444" lon="11.352593286952898"><ele>226.0</ele><time>2026-05-01T15:11:04Z</time></trkpt><trkpt lat="43.72892974790421" lon="11.352926688680785"><ele>226.0</ele><time>2026-05-01T15:11:05Z</time></trkpt><trkpt lat="43.72898120305721" lon="11.353265215954709"><ele>223.5</ele><time>2026-05-01T15:11:06Z</time></trkpt><trkpt lat="43.72902523144055" lon="11.353608132530443"><ele>221.0</ele><time>2026-05-01T15:11:07Z</time></trkpt><trkpt lat="43.729063432931746" lon="11.353949789607212"><ele>221.0</ele><time>2026-05-01T15:11:08Z</time></trkpt><trkpt lat="43.729086351170416" lon="11.354296382248405"><ele>221.0</ele><time>2026-05-01T15:11:09Z</time></trkpt><trkpt lat="43.72910933123402" lon="11.35464187766298"><ele>221.5</ele><time>2026-05-01T15:11:10Z</time></trkpt><trkpt lat="43.7291285453229" lon="11.354990615087887"><ele>222.0</ele><time>2026-05-01T15:11:11Z</time></trkpt><trkpt lat="43.729149447301694" lon="11.355343234098514"><ele>223.0</ele><time>2026-05-01T15:11:12Z</time></trkpt><trkpt lat="43.72917101834473" lon="11.35569825612688"><ele>224.0</ele><time>2026-05-01T15:11:13Z</time></trkpt><trkpt lat="43.72919668746416" lon="11.356052736629726"><ele>224.5</ele><time>2026-05-01T15:11:14Z</time></trkpt><trkpt lat="43.72922037428663" lon="11.356406825158535"><ele>225.0</ele><time>2026-05-01T15:11:15Z</time></trkpt><trkpt lat="43.72924254759707" lon="11.356767116347033"><ele>225.0</ele><time>2026-05-01T15:11:16Z</time></trkpt><trkpt lat="43.72926397265368" lon="11.35712538081558"><ele>225.0</ele><time>2026-05-01T15:11:17Z</time></trkpt><trkpt lat="43.72928446499503" lon="11.357483517846367"><ele>223.5</ele><time>2026-05-01T15:11:18Z</time></trkpt><trkpt lat="43.729305527986966" lon="11.357841496463712"><ele>222.0</ele><time>2026-05-01T15:11:19Z</time></trkpt><trkpt lat="43.72932621172919" lon="11.35820013074512"><ele>221.0</ele><time>2026-05-01T15:11:20Z</time></trkpt><trkpt lat="43.72934736557226" lon="11.358556425965947"><ele>220.0</ele><time>2026-05-01T15:11:21Z</time></trkpt><trkpt lat="43.729368018644735" lon="11.358914670932279"><ele>222.0</ele><time>2026-05-01T15:11:22Z</time></trkpt><trkpt lat="43.72938960025211" lon="11.359263822588064"><ele>224.0</ele><time>2026-05-01T15:11:23Z</time></trkpt><trkpt lat="43.729412120925105" lon="11.359607669010435"><ele>236.0</ele><time>2026-05-01T15:11:24Z</time></trkpt><trkpt lat="43.729430862475525" lon="11.359952695260763"><ele>248.0</ele><time>2026-05-01T15:11:25Z</time></trkpt><trkpt lat="43.729452462635436" lon="11.360294596749528"><ele>251.5</ele><time>2026-05-01T15:11:26Z</time></trkpt><trkpt lat="43.729474162085744" lon="11.360631441047403"><ele>255.0</ele><time>2026-05-01T15:11:27Z</time></trkpt><trkpt lat="43.729496046844034" lon="11.360974486872735"><ele>255.0</ele><time>2026-05-01T15:11:28Z</time></trkpt><trkpt lat="43.72951938180752" lon="11.361312199840514"><ele>255.0</ele><time>2026-05-01T15:11:29Z</time></trkpt><trkpt lat="43.72954189542083" lon="11.36165194762452"><ele>256.0</ele><time>2026-05-01T15:11:30Z</time></trkpt><trkpt lat="43.729563211187596" lon="11.361991181691604"><ele>257.0</ele><time>2026-05-01T15:11:31Z</time></trkpt><trkpt lat="43.729585397313905" lon="11.362333381870991"><ele>255.0</ele><time>2026-05-01T15:11:32Z</time></trkpt><trkpt lat="43.72960861395214" lon="11.36267125159134"><ele>253.0</ele><time>2026-05-01T15:11:33Z</time></trkpt><trkpt lat="43.72963766996859" lon="11.363015220579465"><ele>253.5</ele><time>2026-05-01T15:11:34Z</time></trkpt><trkpt lat="43.72966374897392" lon="11.363357447994108"><ele>254.0</ele><time>2026-05-01T15:11:35Z</time></trkpt><trkpt lat="43.72968892780335" lon="11.363701394391612"><ele>255.0</ele><time>2026-05-01T15:11:36Z</time></trkpt><trkpt lat="43.72971180010093" lon="11.364047445942253"><ele>256.0</ele><time>2026-05-01T15:11:37Z</time></trkpt><trkpt lat="43.729729766455165" lon="11.364389991176266"><ele>253.0</ele><time>2026-05-01T15:11:38Z</time></trkpt><trkpt lat="43.72974642237372" lon="11.364740209529115"><ele>250.0</ele><time>2026-05-01T15:11:39Z</time></trkpt><trkpt lat="43.729764092507565" lon="11.365087400286892"><ele>250.0</ele><time>2026-05-01T15:11:40Z</time></trkpt><trkpt lat="43.72977907568069" lon="11.36543735356272"><ele>250.0</ele><time>2026-05-01T15:11:41Z</time></trkpt><trkpt lat="43.7297958815725" lon="11.365786991073778"><ele>250.5</ele><time>2026-05-01T15:11:42Z</time></trkpt><trkpt lat="43.72981657103486" lon="11.3661399582099"><ele>251.0</ele><time>2026-05-01T15:11:43Z</time></trkpt><trkpt lat="43.729835007791095" lon="11.36649063177299"><ele>256.0</ele><time>2026-05-01T15:11:44Z</time></trkpt><trkpt lat="43.72985506453093" lon="11.366846865729585"><ele>261.0</ele><time>2026-05-01T15:11:45Z</time></trkpt><trkpt lat="43.72987459138568" lon="11.367198997154711"><ele>262.5</ele><time>2026-05-01T15:11:46Z</time></trkpt><trkpt lat="43.729898029529835" lon="11.36755323921258"><ele>264.0</ele><time>2026-05-01T15:11:47Z</time></trkpt><trkpt lat="43.72991666504603" lon="11.367905119562007"><ele>263.5</ele><time>2026-05-01T15:11:48Z</time></trkpt><trkpt lat="43.72994093336682" lon="11.368255541553951"><ele>263.0</ele><time>2026-05-01T15:11:49Z</time></trkpt><trkpt lat="43.729962795785134" lon="11.368606941552715"><ele>263.5</ele><time>2026-05-01T15:11:50Z</time></trkpt><trkpt lat="43.7299834606523" lon="11.368956444415357"><ele>264.0</ele><time>2026-05-01T15:11:51Z</time></trkpt><trkpt lat="43.72999350413067" lon="11.3693123487495"><ele>264.0</ele><time>2026-05-01T15:11:52Z</time></trkpt><trkpt lat="43.72999169097943" lon="11.369666675449746"><ele>264.0</ele><time>2026-05-01T15:11:53Z</time></trkpt><trkpt lat="43.72997799118314" lon="11.370016066920334"><ele>263.5</ele><time>2026-05-01T15:11:54Z</time></trkpt><trkpt lat="43.729943526868304" lon="11.370363524303604"><ele>263.0</ele><time>2026-05-01T15:11:55Z</time></trkpt><trkpt lat="43.72987566851468" lon="11.370697666352813"><ele>263.0</ele><time>2026-05-01T15:11:56Z</time></trkpt><trkpt lat="43.72978744695759" lon="11.371025402268861"><ele>263.0</ele><time>2026-05-01T15:11:57Z</time></trkpt><trkpt lat="43.72968634045211" lon="11.371344282296242"><ele>265.5</ele><time>2026-05-01T15:11:58Z</time></trkpt><trkpt lat="43.729571219789065" lon="11.371653286620766"><ele>268.0</ele><time>2026-05-01T15:11:59Z</time></trkpt><trkpt lat="43.72944033215601" lon="11.371946375837553"><ele>267.5</ele><time>2026-05-01T15:12:00Z</time></trkpt><trkpt lat="43.729291386785796" lon="11.37222086390477"><ele>267.0</ele><time>2026-05-01T15:12:01Z</time></trkpt><trkpt lat="43.7291239337264" lon="11.372476555202843"><ele>267.0</ele><time>2026-05-01T15:12:02Z</time></trkpt><trkpt lat="43.728942855186304" lon="11.372716701913394"><ele>267.0</ele><time>2026-05-01T15:12:03Z</time></trkpt><trkpt lat="43.72875330477554" lon="11.372941371253093"><ele>267.5</ele><time>2026-05-01T15:12:04Z</time></trkpt><trkpt lat="43.72855600418796" lon="11.373155248676708"><ele>268.0</ele><time>2026-05-01T15:12:05Z</time></trkpt><trkpt lat="43.728348050940824" lon="11.373349934097735"><ele>268.0</ele><time>2026-05-01T15:12:06Z</time></trkpt><trkpt lat="43.7281319777516" lon="11.373529492261229"><ele>268.0</ele><time>2026-05-01T15:12:06.999Z</time></trkpt><trkpt lat="43.72790560877336" lon="11.373683023144109"><ele>268.5</ele><time>2026-05-01T15:12:07.999Z</time></trkpt><trkpt lat="43.72767028018133" lon="11.37381541207484"><ele>269.0</ele><time>2026-05-01T15:12:08.999Z</time></trkpt><trkpt lat="43.72743090459832" lon="11.373928485676855"><ele>269.0</ele><time>2026-05-01T15:12:09.999Z</time></trkpt><trkpt lat="43.727185490173525" lon="11.374022268421681"><ele>269.0</ele><time>2026-05-01T15:12:10.999Z</time></trkpt><trkpt lat="43.72693843076411" lon="11.374107430128694"><ele>270.5</ele><time>2026-05-01T15:12:11.999Z</time></trkpt><trkpt lat="43.72668706852088" lon="11.374191087677763"><ele>272.0</ele><time>2026-05-01T15:12:12.999Z</time></trkpt><trkpt lat="43.72643557319052" lon="11.374279086475033"><ele>272.0</ele><time>2026-05-01T15:12:13.999Z</time></trkpt><trkpt lat="43.726184057615704" lon="11.374372431743783"><ele>272.0</ele><time>2026-05-01T15:12:14.999Z</time></trkpt><trkpt lat="43.72593284151583" lon="11.374465661611824"><ele>275.0</ele><time>2026-05-01T15:12:15.999Z</time></trkpt><trkpt lat="43.72567880081433" lon="11.374554547990344"><ele>278.0</ele><time>2026-05-01T15:12:16.999Z</time></trkpt><trkpt lat="43.725425555818326" lon="11.374642423803259"><ele>285.0</ele><time>2026-05-01T15:12:17.999Z</time></trkpt><trkpt lat="43.72517244873155" lon="11.374730823268168"><ele>292.0</ele><time>2026-05-01T15:12:18.999Z</time></trkpt><trkpt lat="43.72492078998274" lon="11.374819617550461"><ele>292.0</ele><time>2026-05-01T15:12:19.999Z</time></trkpt><trkpt lat="43.72466739905834" lon="11.374911714360447"><ele>292.0</ele><time>2026-05-01T15:12:20.999Z</time></trkpt><trkpt lat="43.72441854631501" lon="11.37500976042553"><ele>292.0</ele><time>2026-05-01T15:12:21.999Z</time></trkpt><trkpt lat="43.72417625573026" lon="11.375121035625389"><ele>292.0</ele><time>2026-05-01T15:12:23.001Z</time></trkpt><trkpt lat="43.72394214483983" lon="11.3752522109808"><ele>292.0</ele><time>2026-05-01T15:12:24.001Z</time></trkpt><trkpt lat="43.723715583114476" lon="11.375403342044612"><ele>292.0</ele><time>2026-05-01T15:12:25.001Z</time></trkpt><trkpt lat="43.72350070791438" lon="11.375572773172625"><ele>294.5</ele><time>2026-05-01T15:12:26.001Z</time></trkpt><trkpt lat="43.723306132350494" lon="11.3757748188667"><ele>297.0</ele><time>2026-05-01T15:12:27.001Z</time></trkpt><trkpt lat="43.72312003487434" lon="11.375981711991912"><ele>297.0</ele><time>2026-05-01T15:12:28.001Z</time></trkpt><trkpt lat="43.72294231854528" lon="11.376198948492735"><ele>297.0</ele><time>2026-05-01T15:12:29.001Z</time></trkpt><trkpt lat="43.72276966894266" lon="11.376431669695329"><ele>307.0</ele><time>2026-05-01T15:12:30.001Z</time></trkpt><trkpt lat="43.72262128866498" lon="11.376668798948383"><ele>317.0</ele><time>2026-05-01T15:12:31.001Z</time></trkpt><trkpt lat="43.722475043030194" lon="11.376906372916968"><ele>317.0</ele><time>2026-05-01T15:12:32.001Z</time></trkpt><trkpt lat="43.722323071557994" lon="11.377131731960331"><ele>317.0</ele><time>2026-05-01T15:12:33.001Z</time></trkpt><trkpt lat="43.72215564088235" lon="11.377372353390774"><ele>319.5</ele><time>2026-05-01T15:12:34.001Z</time></trkpt><trkpt lat="43.72205020281869" lon="11.37765145978758"><ele>322.0</ele><time>2026-05-01T15:12:35.001Z</time></trkpt><trkpt lat="43.7219093619382" lon="11.377910829028279"><ele>331.0</ele><time>2026-05-01T15:12:36.001Z</time></trkpt><trkpt lat="43.721770709724844" lon="11.378166167705674"><ele>340.0</ele><time>2026-05-01T15:12:37.001Z</time></trkpt><trkpt lat="43.7216207106736" lon="11.378443738698452"><ele>340.0</ele><time>2026-05-01T15:12:38.074Z</time></trkpt><trkpt lat="43.72148280880251" lon="11.378699722855742"><ele>340.0</ele><time>2026-05-01T15:12:39.069Z</time></trkpt><trkpt lat="43.72032673417952" lon="11.380990342779153"><ele>320.0</ele><time>2026-05-01T15:12:42.632Z</time></trkpt><trkpt lat="43.717564991087066" lon="11.386022228567672"><ele>320.0</ele><time>2026-05-01T15:13:05Z</time></trkpt><trkpt lat="43.71741454557915" lon="11.386307818291968"><ele>320.0</ele><time>2026-05-01T15:13:06Z</time></trkpt><trkpt lat="43.71719868292401" lon="11.386706844097764"><ele>319.5</ele><time>2026-05-01T15:13:08Z</time></trkpt><trkpt lat="43.717041400020285" lon="11.387072450392795"><ele>319.0</ele><time>2026-05-01T15:13:09Z</time></trkpt><trkpt lat="43.716871876896256" lon="11.387416816703393"><ele>319.0</ele><time>2026-05-01T15:13:10Z</time></trkpt><trkpt lat="43.716726074730815" lon="11.387697200330958"><ele>319.0</ele><time>2026-05-01T15:13:11Z</time></trkpt><trkpt lat="43.71657204336842" lon="11.38799715481893"><ele>313.5</ele><time>2026-05-01T15:13:12Z</time></trkpt><trkpt lat="43.716416401259046" lon="11.388290886206685"><ele>308.0</ele><time>2026-05-01T15:13:13Z</time></trkpt><trkpt lat="43.716260877746485" lon="11.388573088517061"><ele>310.5</ele><time>2026-05-01T15:13:14Z</time></trkpt><trkpt lat="43.71610481394971" lon="11.388860346852974"><ele>313.0</ele><time>2026-05-01T15:13:15Z</time></trkpt><trkpt lat="43.71594776441185" lon="11.38914945637301"><ele>313.0</ele><time>2026-05-01T15:13:16Z</time></trkpt><trkpt lat="43.71578818461587" lon="11.389434107242796"><ele>313.0</ele><time>2026-05-01T15:13:17Z</time></trkpt><trkpt lat="43.71562357757497" lon="11.389718328986055"><ele>308.0</ele><time>2026-05-01T15:13:18Z</time></trkpt><trkpt lat="43.715459547946644" lon="11.390002487273991"><ele>303.0</ele><time>2026-05-01T15:13:19Z</time></trkpt><trkpt lat="43.71528612103445" lon="11.390287452295194"><ele>302.0</ele><time>2026-05-01T15:13:20Z</time></trkpt><trkpt lat="43.71510664364467" lon="11.390559887972069"><ele>301.0</ele><time>2026-05-01T15:13:21Z</time></trkpt><trkpt lat="43.71490815774475" lon="11.390815558839211"><ele>301.0</ele><time>2026-05-01T15:13:22Z</time></trkpt><trkpt lat="43.714696765757544" lon="11.391045673231313"><ele>301.0</ele><time>2026-05-01T15:13:23Z</time></trkpt><trkpt lat="43.71447354053484" lon="11.391249160222518"><ele>299.0</ele><time>2026-05-01T15:13:24Z</time></trkpt><trkpt lat="43.7142375353335" lon="11.391432686026505"><ele>297.0</ele><time>2026-05-01T15:13:25Z</time></trkpt><trkpt lat="43.713992190078805" lon="11.391592289562455"><ele>297.0</ele><time>2026-05-01T15:13:26Z</time></trkpt><trkpt lat="43.71373757031636" lon="11.391727622305195"><ele>297.0</ele><time>2026-05-01T15:13:27Z</time></trkpt><trkpt lat="43.71347606182198" lon="11.39184862709871"><ele>292.0</ele><time>2026-05-01T15:13:28Z</time></trkpt><trkpt lat="43.71321050200582" lon="11.391956904607717"><ele>287.0</ele><time>2026-05-01T15:13:29Z</time></trkpt><trkpt lat="43.712944153370806" lon="11.392056702026267"><ele>287.0</ele><time>2026-05-01T15:13:30Z</time></trkpt><trkpt lat="43.712676871456196" lon="11.392145122865589"><ele>287.0</ele><time>2026-05-01T15:13:31Z</time></trkpt><trkpt lat="43.712405799599736" lon="11.39221997082036"><ele>287.0</ele><time>2026-05-01T15:13:32Z</time></trkpt><trkpt lat="43.71213261929193" lon="11.392283986905742"><ele>287.0</ele><time>2026-05-01T15:13:33Z</time></trkpt><trkpt lat="43.711859644584415" lon="11.392336497957363"><ele>287.0</ele><time>2026-05-01T15:13:34Z</time></trkpt><trkpt lat="43.71158716776117" lon="11.392382483303246"><ele>287.0</ele><time>2026-05-01T15:13:35Z</time></trkpt><trkpt lat="43.711312813347185" lon="11.392427966604052"><ele>287.0</ele><time>2026-05-01T15:13:36Z</time></trkpt><trkpt lat="43.71103510644392" lon="11.39247436807273"><ele>287.0</ele><time>2026-05-01T15:13:37Z</time></trkpt><trkpt lat="43.71075867257357" lon="11.3925192756578"><ele>287.0</ele><time>2026-05-01T15:13:38Z</time></trkpt><trkpt lat="43.71048239803063" lon="11.392571896572642"><ele>287.0</ele><time>2026-05-01T15:13:39Z</time></trkpt><trkpt lat="43.71020807179169" lon="11.392635817359446"><ele>282.5</ele><time>2026-05-01T15:13:40Z</time></trkpt><trkpt lat="43.709934441765945" lon="11.392709409763235"><ele>278.0</ele><time>2026-05-01T15:13:41Z</time></trkpt><trkpt lat="43.709661544922724" lon="11.392792600453458"><ele>278.0</ele><time>2026-05-01T15:13:42Z</time></trkpt><trkpt lat="43.70939539391744" lon="11.39289963684016"><ele>278.0</ele><time>2026-05-01T15:13:43Z</time></trkpt><trkpt lat="43.709130728560936" lon="11.39302107495038"><ele>274.5</ele><time>2026-05-01T15:13:44Z</time></trkpt><trkpt lat="43.70887427592946" lon="11.39316536500652"><ele>271.0</ele><time>2026-05-01T15:13:45Z</time></trkpt><trkpt lat="43.70862308954008" lon="11.393323677684766"><ele>276.0</ele><time>2026-05-01T15:13:46Z</time></trkpt><trkpt lat="43.70838036358223" lon="11.393498973804387"><ele>281.0</ele><time>2026-05-01T15:13:47Z</time></trkpt><trkpt lat="43.70814327613347" lon="11.39369089585483"><ele>278.5</ele><time>2026-05-01T15:13:48Z</time></trkpt><trkpt lat="43.70791247066707" lon="11.39389014827853"><ele>276.0</ele><time>2026-05-01T15:13:49Z</time></trkpt><trkpt lat="43.70768728748237" lon="11.394098347426937"><ele>276.0</ele><time>2026-05-01T15:13:50Z</time></trkpt><trkpt lat="43.707468962711616" lon="11.394314538923197"><ele>276.0</ele><time>2026-05-01T15:13:51Z</time></trkpt><trkpt lat="43.70725588648518" lon="11.394542267998737"><ele>276.0</ele><time>2026-05-01T15:13:52Z</time></trkpt><trkpt lat="43.707047559699596" lon="11.39477709764623"><ele>276.0</ele><time>2026-05-01T15:13:53Z</time></trkpt><trkpt lat="43.706840819717826" lon="11.395012575678237"><ele>276.0</ele><time>2026-05-01T15:13:54Z</time></trkpt><trkpt lat="43.70662989405138" lon="11.395242914427882"><ele>276.0</ele><time>2026-05-01T15:13:55Z</time></trkpt><trkpt lat="43.70641376954853" lon="11.39546867745525"><ele>275.5</ele><time>2026-05-01T15:13:56Z</time></trkpt><trkpt lat="43.70619224601839" lon="11.395689689269515"><ele>275.0</ele><time>2026-05-01T15:13:56.999Z</time></trkpt><trkpt lat="43.70596763064447" lon="11.395914862069809"><ele>276.0</ele><time>2026-05-01T15:13:57.999Z</time></trkpt><trkpt lat="43.7057422057847" lon="11.396138017933438"><ele>277.0</ele><time>2026-05-01T15:13:58.999Z</time></trkpt><trkpt lat="43.70551818604095" lon="11.396358529975721"><ele>277.0</ele><time>2026-05-01T15:13:59.999Z</time></trkpt><trkpt lat="43.70529825676835" lon="11.396581379690527"><ele>277.0</ele><time>2026-05-01T15:14:00.999Z</time></trkpt><trkpt lat="43.705081904608406" lon="11.39680913681984"><ele>277.5</ele><time>2026-05-01T15:14:01.999Z</time></trkpt><trkpt lat="43.704874727273186" lon="11.39704516226185"><ele>278.0</ele><time>2026-05-01T15:14:02.999Z</time></trkpt><trkpt lat="43.70467424538342" lon="11.397290285859881"><ele>278.0</ele><time>2026-05-01T15:14:03.999Z</time></trkpt><trkpt lat="43.70447691887976" lon="11.397542389819668"><ele>278.0</ele><time>2026-05-01T15:14:04.999Z</time></trkpt><trkpt lat="43.70428253161097" lon="11.397794292275934"><ele>276.0</ele><time>2026-05-01T15:14:05.999Z</time></trkpt><trkpt lat="43.704089259731326" lon="11.398050980555256"><ele>274.0</ele><time>2026-05-01T15:14:06.999Z</time></trkpt><trkpt lat="43.70389253552796" lon="11.398304111496842"><ele>274.0</ele><time>2026-05-01T15:14:07.999Z</time></trkpt><trkpt lat="43.703690760023335" lon="11.398549777068608"><ele>274.0</ele><time>2026-05-01T15:14:08.999Z</time></trkpt><trkpt lat="43.70348927213091" lon="11.39879323744345"><ele>269.5</ele><time>2026-05-01T15:14:09.999Z</time></trkpt><trkpt lat="43.703290564139635" lon="11.399035805916961"><ele>265.0</ele><time>2026-05-01T15:14:10.999Z</time></trkpt><trkpt lat="43.70309417813917" lon="11.399275440099636"><ele>265.0</ele><time>2026-05-01T15:14:11.999Z</time></trkpt><trkpt lat="43.70289690919551" lon="11.399509485306302"><ele>265.0</ele><time>2026-05-01T15:14:12.999Z</time></trkpt><trkpt lat="43.702701417782386" lon="11.399743779022659"><ele>265.5</ele><time>2026-05-01T15:14:13.999Z</time></trkpt><trkpt lat="43.70250911456111" lon="11.399982813766991"><ele>266.0</ele><time>2026-05-01T15:14:14.999Z</time></trkpt><trkpt lat="43.70231592323247" lon="11.400224616382609"><ele>266.0</ele><time>2026-05-01T15:14:15.999Z</time></trkpt><trkpt lat="43.70211927054306" lon="11.400465927219335"><ele>266.0</ele><time>2026-05-01T15:14:16.999Z</time></trkpt><trkpt lat="43.70192097089918" lon="11.400712203027027"><ele>265.0</ele><time>2026-05-01T15:14:17.999Z</time></trkpt><trkpt lat="43.701721254706975" lon="11.400953154664938"><ele>264.0</ele><time>2026-05-01T15:14:18.999Z</time></trkpt><trkpt lat="43.701521775994216" lon="11.401194838090971"><ele>262.0</ele><time>2026-05-01T15:14:19.999Z</time></trkpt><trkpt lat="43.70132091442792" lon="11.401440141122963"><ele>260.0</ele><time>2026-05-01T15:14:20.999Z</time></trkpt><trkpt lat="43.70111638632165" lon="11.401688989799732"><ele>260.5</ele><time>2026-05-01T15:14:21.999Z</time></trkpt><trkpt lat="43.70091389082371" lon="11.401938892370769"><ele>261.0</ele><time>2026-05-01T15:14:22.999Z</time></trkpt><trkpt lat="43.70071221992288" lon="11.402186416878779"><ele>258.5</ele><time>2026-05-01T15:14:23.999Z</time></trkpt><trkpt lat="43.7005093744805" lon="11.402432502844842"><ele>256.0</ele><time>2026-05-01T15:14:24.999Z</time></trkpt><trkpt lat="43.70030501596115" lon="11.40267147855295"><ele>256.5</ele><time>2026-05-01T15:14:25.999Z</time></trkpt><trkpt lat="43.70009657400701" lon="11.402910329901779"><ele>257.0</ele><time>2026-05-01T15:14:26.999Z</time></trkpt><trkpt lat="43.69988935403901" lon="11.403137578299592"><ele>253.0</ele><time>2026-05-01T15:14:27.999Z</time></trkpt><trkpt lat="43.69968184975251" lon="11.403365898765047"><ele>249.0</ele><time>2026-05-01T15:14:29Z</time></trkpt><trkpt lat="43.699471458339936" lon="11.403599375014497"><ele>250.5</ele><time>2026-05-01T15:14:30Z</time></trkpt><trkpt lat="43.699260022837564" lon="11.40382856998409"><ele>252.0</ele><time>2026-05-01T15:14:31Z</time></trkpt><trkpt lat="43.699050016515976" lon="11.40405812783698"><ele>252.0</ele><time>2026-05-01T15:14:32Z</time></trkpt><trkpt lat="43.69884012414108" lon="11.404283347319062"><ele>252.0</ele><time>2026-05-01T15:14:33Z</time></trkpt><trkpt lat="43.698626919348854" lon="11.404508059595484"><ele>246.5</ele><time>2026-05-01T15:14:34Z</time></trkpt><trkpt lat="43.69841417140758" lon="11.404732368446629"><ele>241.0</ele><time>2026-05-01T15:14:35Z</time></trkpt><trkpt lat="43.698195809280776" lon="11.404948946417335"><ele>241.0</ele><time>2026-05-01T15:14:36Z</time></trkpt><trkpt lat="43.69797285262055" lon="11.405165106965272"><ele>241.0</ele><time>2026-05-01T15:14:37Z</time></trkpt><trkpt lat="43.6977424883749" lon="11.405378443514854"><ele>238.0</ele><time>2026-05-01T15:14:38Z</time></trkpt><trkpt lat="43.69751263479727" lon="11.405585655712276"><ele>235.0</ele><time>2026-05-01T15:14:39Z</time></trkpt><trkpt lat="43.69728061579729" lon="11.405790357550378"><ele>235.0</ele><time>2026-05-01T15:14:40Z</time></trkpt><trkpt lat="43.69704854458593" lon="11.405994363764862"><ele>235.0</ele><time>2026-05-01T15:14:41Z</time></trkpt><trkpt lat="43.696816251996026" lon="11.406193586653957"><ele>233.0</ele><time>2026-05-01T15:14:42Z</time></trkpt><trkpt lat="43.6965828986819" lon="11.406391998956783"><ele>231.0</ele><time>2026-05-01T15:14:43Z</time></trkpt><trkpt lat="43.69634893982316" lon="11.406591325707385"><ele>231.0</ele><time>2026-05-01T15:14:44Z</time></trkpt><trkpt lat="43.69611681743778" lon="11.406788379016122"><ele>231.0</ele><time>2026-05-01T15:14:45Z</time></trkpt><trkpt lat="43.69588753619274" lon="11.406982635081146"><ele>227.0</ele><time>2026-05-01T15:14:46Z</time></trkpt><trkpt lat="43.695659064284875" lon="11.407180016016346"><ele>223.0</ele><time>2026-05-01T15:14:47Z</time></trkpt><trkpt lat="43.6954336580617" lon="11.407376366681156"><ele>222.0</ele><time>2026-05-01T15:14:48Z</time></trkpt><trkpt lat="43.695207618142845" lon="11.407571135760698"><ele>221.0</ele><time>2026-05-01T15:14:49Z</time></trkpt><trkpt lat="43.69497662197275" lon="11.407763419504027"><ele>221.0</ele><time>2026-05-01T15:14:50Z</time></trkpt><trkpt lat="43.69474679889741" lon="11.407956880634137"><ele>221.0</ele><time>2026-05-01T15:14:51Z</time></trkpt><trkpt lat="43.69451893411547" lon="11.408160493486701"><ele>222.0</ele><time>2026-05-01T15:14:52Z</time></trkpt><trkpt lat="43.69429662424696" lon="11.40837366589803"><ele>223.0</ele><time>2026-05-01T15:14:53Z</time></trkpt><trkpt lat="43.69408498392009" lon="11.408612988544876"><ele>219.5</ele><time>2026-05-01T15:14:54Z</time></trkpt><trkpt lat="43.693888483749134" lon="11.408868300595106"><ele>216.0</ele><time>2026-05-01T15:14:55Z</time></trkpt><trkpt lat="43.69370801856865" lon="11.409145683489413"><ele>216.5</ele><time>2026-05-01T15:14:56Z</time></trkpt><trkpt lat="43.69354343540397" lon="11.409445378811956"><ele>217.0</ele><time>2026-05-01T15:14:57Z</time></trkpt><trkpt lat="43.69339514101615" lon="11.40975923090607"><ele>217.0</ele><time>2026-05-01T15:14:58Z</time></trkpt><trkpt lat="43.69326576978381" lon="11.410087248353358"><ele>217.0</ele><time>2026-05-01T15:14:59Z</time></trkpt><trkpt lat="43.693153266441065" lon="11.410429768912515"><ele>210.0</ele><time>2026-05-01T15:15:00Z</time></trkpt><trkpt lat="43.693058518110774" lon="11.410784596659829"><ele>203.0</ele><time>2026-05-01T15:15:01Z</time></trkpt><trkpt lat="43.69298633470414" lon="11.4111489167778"><ele>204.0</ele><time>2026-05-01T15:15:02Z</time></trkpt><trkpt lat="43.69293247058166" lon="11.411514672968547"><ele>205.0</ele><time>2026-05-01T15:15:03Z</time></trkpt><trkpt lat="43.69289806565172" lon="11.411884237846568"><ele>206.5</ele><time>2026-05-01T15:15:04Z</time></trkpt><trkpt lat="43.69288294997066" lon="11.412260050894282"><ele>208.0</ele><time>2026-05-01T15:15:05Z</time></trkpt><trkpt lat="43.6928876747431" lon="11.412636640907916"><ele>205.0</ele><time>2026-05-01T15:15:06Z</time></trkpt><trkpt lat="43.69290785298684" lon="11.413014553831943"><ele>202.0</ele><time>2026-05-01T15:15:07Z</time></trkpt><trkpt lat="43.69293865405189" lon="11.413395390600327"><ele>202.0</ele><time>2026-05-01T15:15:08Z</time></trkpt><trkpt lat="43.69297070415027" lon="11.4137790964593"><ele>202.0</ele><time>2026-05-01T15:15:09Z</time></trkpt><trkpt lat="43.693003225308615" lon="11.414160214568554"><ele>201.5</ele><time>2026-05-01T15:15:10Z</time></trkpt><trkpt lat="43.69303426024619" lon="11.41454314901926"><ele>201.0</ele><time>2026-05-01T15:15:11Z</time></trkpt><trkpt lat="43.693065416582215" lon="11.414926458400268"><ele>201.0</ele><time>2026-05-01T15:15:12Z</time></trkpt><trkpt lat="43.69309798136963" lon="11.415307100106359"><ele>201.0</ele><time>2026-05-01T15:15:13Z</time></trkpt><trkpt lat="43.69313065298486" lon="11.415686305810206"><ele>201.5</ele><time>2026-05-01T15:15:14Z</time></trkpt><trkpt lat="43.69316448575106" lon="11.41606281574892"><ele>202.0</ele><time>2026-05-01T15:15:15Z</time></trkpt><trkpt lat="43.69319815193895" lon="11.41643540247591"><ele>202.0</ele><time>2026-05-01T15:15:16Z</time></trkpt><trkpt lat="43.69323426977869" lon="11.416804875585658"><ele>202.0</ele><time>2026-05-01T15:15:17Z</time></trkpt><trkpt lat="43.69328202824814" lon="11.417174453781534"><ele>201.5</ele><time>2026-05-01T15:15:18Z</time></trkpt><trkpt lat="43.693348714402646" lon="11.417534188816909"><ele>201.0</ele><time>2026-05-01T15:15:19Z</time></trkpt><trkpt lat="43.69343169390877" lon="11.417881703758203"><ele>202.5</ele><time>2026-05-01T15:15:20Z</time></trkpt><trkpt lat="43.69352795397805" lon="11.418221943442665"><ele>204.0</ele><time>2026-05-01T15:15:21Z</time></trkpt><trkpt lat="43.69363218864562" lon="11.41855750554866"><ele>195.0</ele><time>2026-05-01T15:15:22Z</time></trkpt><trkpt lat="43.69374042069807" lon="11.418891909168487"><ele>186.0</ele><time>2026-05-01T15:15:23Z</time></trkpt><trkpt lat="43.69385195241484" lon="11.419227187330208"><ele>186.0</ele><time>2026-05-01T15:15:24Z</time></trkpt><trkpt lat="43.693955507360656" lon="11.419565767891045"><ele>186.0</ele><time>2026-05-01T15:15:25Z</time></trkpt><trkpt lat="43.69404220836094" lon="11.419912167111747"><ele>187.0</ele><time>2026-05-01T15:15:26Z</time></trkpt><trkpt lat="43.6941153965429" lon="11.420265558784617"><ele>188.0</ele><time>2026-05-01T15:15:27Z</time></trkpt><trkpt lat="43.694179537340254" lon="11.420622921559621"><ele>188.5</ele><time>2026-05-01T15:15:28Z</time></trkpt><trkpt lat="43.694231800646726" lon="11.420984671120207"><ele>189.0</ele><time>2026-05-01T15:15:29Z</time></trkpt><trkpt lat="43.69427156202359" lon="11.421349176860517"><ele>189.0</ele><time>2026-05-01T15:15:30Z</time></trkpt><trkpt lat="43.69429329705468" lon="11.421716576992475"><ele>189.0</ele><time>2026-05-01T15:15:31Z</time></trkpt><trkpt lat="43.6943034953608" lon="11.42208479407044"><ele>187.0</ele><time>2026-05-01T15:15:32Z</time></trkpt><trkpt lat="43.694300896853235" lon="11.422450868341272"><ele>185.0</ele><time>2026-05-01T15:15:33Z</time></trkpt><trkpt lat="43.69428528425286" lon="11.42281342247483"><ele>184.0</ele><time>2026-05-01T15:15:34Z</time></trkpt><trkpt lat="43.69425812379144" lon="11.423175169010342"><ele>183.0</ele><time>2026-05-01T15:15:35Z</time></trkpt><trkpt lat="43.69422094460176" lon="11.42353550669408"><ele>180.0</ele><time>2026-05-01T15:15:36Z</time></trkpt><trkpt lat="43.69416657332993" lon="11.423893753268587"><ele>177.0</ele><time>2026-05-01T15:15:37Z</time></trkpt><trkpt lat="43.69409919020113" lon="11.424243310529134"><ele>177.0</ele><time>2026-05-01T15:15:38Z</time></trkpt><trkpt lat="43.694020208502" lon="11.42459317068399"><ele>177.0</ele><time>2026-05-01T15:15:39Z</time></trkpt><trkpt lat="43.69393587431224" lon="11.424942666903426"><ele>177.0</ele><time>2026-05-01T15:15:40Z</time></trkpt><trkpt lat="43.69385628590206" lon="11.425296892461077"><ele>177.0</ele><time>2026-05-01T15:15:41Z</time></trkpt><trkpt lat="43.693776596917125" lon="11.42565280106185"><ele>175.0</ele><time>2026-05-01T15:15:42Z</time></trkpt><trkpt lat="43.69369835186965" lon="11.426015890543749"><ele>173.0</ele><time>2026-05-01T15:15:43Z</time></trkpt><trkpt lat="43.69361644488678" lon="11.426380653790314"><ele>174.0</ele><time>2026-05-01T15:15:44Z</time></trkpt><trkpt lat="43.69353461152838" lon="11.426748815006013"><ele>175.0</ele><time>2026-05-01T15:15:45Z</time></trkpt><trkpt lat="43.69345268643793" lon="11.42712369297976"><ele>173.0</ele><time>2026-05-01T15:15:46Z</time></trkpt><trkpt lat="43.693369869750555" lon="11.427501147740308"><ele>171.0</ele><time>2026-05-01T15:15:47Z</time></trkpt><trkpt lat="43.693285894195874" lon="11.427877581214386"><ele>168.0</ele><time>2026-05-01T15:15:48Z</time></trkpt><trkpt lat="43.69320270778511" lon="11.428252445475941"><ele>165.0</ele><time>2026-05-01T15:15:49Z</time></trkpt><trkpt lat="43.693119192855335" lon="11.428625786927189"><ele>162.0</ele><time>2026-05-01T15:15:50Z</time></trkpt><trkpt lat="43.69303463656842" lon="11.428998926211158"><ele>159.0</ele><time>2026-05-01T15:15:51Z</time></trkpt><trkpt lat="43.69295042504985" lon="11.429374515321893"><ele>156.5</ele><time>2026-05-01T15:15:52Z</time></trkpt><trkpt lat="43.69286630720678" lon="11.429747480539042"><ele>154.0</ele><time>2026-05-01T15:15:53Z</time></trkpt><trkpt lat="43.69278216521315" lon="11.430120296267585"><ele>153.0</ele><time>2026-05-01T15:15:53.999Z</time></trkpt><trkpt lat="43.69269777656357" lon="11.430491693176513"><ele>152.0</ele><time>2026-05-01T15:15:54.999Z</time></trkpt><trkpt lat="43.692613461048644" lon="11.430861689116876"><ele>152.0</ele><time>2026-05-01T15:15:55.999Z</time></trkpt><trkpt lat="43.69252945430318" lon="11.431234807577008"><ele>152.0</ele><time>2026-05-01T15:15:56.999Z</time></trkpt><trkpt lat="43.692446737312025" lon="11.431605689096894"><ele>151.5</ele><time>2026-05-01T15:15:57.999Z</time></trkpt><trkpt lat="43.69236414864707" lon="11.431979322944747"><ele>151.0</ele><time>2026-05-01T15:15:58.999Z</time></trkpt><trkpt lat="43.692282939801736" lon="11.43235461108049"><ele>151.0</ele><time>2026-05-01T15:15:59.999Z</time></trkpt><trkpt lat="43.69220146757606" lon="11.432729437092485"><ele>151.0</ele><time>2026-05-01T15:16:00.999Z</time></trkpt><trkpt lat="43.692119870371926" lon="11.433100952919608"><ele>151.0</ele><time>2026-05-01T15:16:01.999Z</time></trkpt><trkpt lat="43.692038182181754" lon="11.433472620139545"><ele>151.0</ele><time>2026-05-01T15:16:02.999Z</time></trkpt><trkpt lat="43.691957983634296" lon="11.433842656823"><ele>156.5</ele><time>2026-05-01T15:16:03.999Z</time></trkpt><trkpt lat="43.69187524763231" lon="11.434208942261309"><ele>162.0</ele><time>2026-05-01T15:16:04.999Z</time></trkpt><trkpt lat="43.69179523519319" lon="11.434576745281827"><ele>162.0</ele><time>2026-05-01T15:16:05.999Z</time></trkpt><trkpt lat="43.691715665316714" lon="11.434947029107036"><ele>162.0</ele><time>2026-05-01T15:16:06.999Z</time></trkpt><trkpt lat="43.691633930577986" lon="11.435314547174766"><ele>161.5</ele><time>2026-05-01T15:16:07.999Z</time></trkpt><trkpt lat="43.69155258780242" lon="11.435683013649742"><ele>161.0</ele><time>2026-05-01T15:16:08.999Z</time></trkpt><trkpt lat="43.691469402058054" lon="11.436051322619592"><ele>159.5</ele><time>2026-05-01T15:16:09.999Z</time></trkpt><trkpt lat="43.69138748903308" lon="11.436417725113701"><ele>158.0</ele><time>2026-05-01T15:16:10.999Z</time></trkpt><trkpt lat="43.69130618202421" lon="11.436784944623511"><ele>156.5</ele><time>2026-05-01T15:16:11.999Z</time></trkpt><trkpt lat="43.691222146441184" lon="11.43715134580715"><ele>155.0</ele><time>2026-05-01T15:16:12.999Z</time></trkpt><trkpt lat="43.691138823438855" lon="11.437516409218642"><ele>158.0</ele><time>2026-05-01T15:16:13.999Z</time></trkpt><trkpt lat="43.69105748691112" lon="11.437880582863196"><ele>161.0</ele><time>2026-05-01T15:16:14.999Z</time></trkpt><trkpt lat="43.69097443867198" lon="11.438245276719185"><ele>161.0</ele><time>2026-05-01T15:16:15.999Z</time></trkpt><trkpt lat="43.69088925198779" lon="11.43860876902263"><ele>161.0</ele><time>2026-05-01T15:16:16.999Z</time></trkpt><trkpt lat="43.69080081357637" lon="11.438967588554275"><ele>159.5</ele><time>2026-05-01T15:16:17.999Z</time></trkpt><trkpt lat="43.69070398694154" lon="11.439321172086562"><ele>158.0</ele><time>2026-05-01T15:16:18.999Z</time></trkpt><trkpt lat="43.690599126418064" lon="11.439667577706022"><ele>156.5</ele><time>2026-05-01T15:16:19.999Z</time></trkpt><trkpt lat="43.69047753094131" lon="11.440002316434166"><ele>155.0</ele><time>2026-05-01T15:16:20.999Z</time></trkpt><trkpt lat="43.69034500097816" lon="11.44033059856434"><ele>156.5</ele><time>2026-05-01T15:16:21.999Z</time></trkpt><trkpt lat="43.690203757977486" lon="11.440652269703687"><ele>158.0</ele><time>2026-05-01T15:16:22.999Z</time></trkpt><trkpt lat="43.69005564689174" lon="11.440971579241364"><ele>158.0</ele><time>2026-05-01T15:16:23.999Z</time></trkpt><trkpt lat="43.689897196593286" lon="11.441285305013402"><ele>158.0</ele><time>2026-05-01T15:16:24.999Z</time></trkpt><trkpt lat="43.689731630234675" lon="11.441590755829466"><ele>155.0</ele><time>2026-05-01T15:16:25.999Z</time></trkpt><trkpt lat="43.68955538227353" lon="11.441887935292888"><ele>152.0</ele><time>2026-05-01T15:16:26.999Z</time></trkpt><trkpt lat="43.68937110813147" lon="11.442173684291557"><ele>149.5</ele><time>2026-05-01T15:16:27.999Z</time></trkpt><trkpt lat="43.68917782352198" lon="11.442448968269794"><ele>147.0</ele><time>2026-05-01T15:16:28.999Z</time></trkpt><trkpt lat="43.688978330472345" lon="11.442716503315205"><ele>146.5</ele><time>2026-05-01T15:16:29.999Z</time></trkpt><trkpt lat="43.68877378033867" lon="11.442974970205057"><ele>146.0</ele><time>2026-05-01T15:16:30.999Z</time></trkpt><trkpt lat="43.688564747610464" lon="11.443224668581749"><ele>144.0</ele><time>2026-05-01T15:16:31.999Z</time></trkpt><trkpt lat="43.68834714915214" lon="11.443457563533903"><ele>142.0</ele><time>2026-05-01T15:16:32.999Z</time></trkpt><trkpt lat="43.68812519396667" lon="11.443680116569263"><ele>142.0</ele><time>2026-05-01T15:16:33.999Z</time></trkpt><trkpt lat="43.687896770696696" lon="11.443888820272623"><ele>142.0</ele><time>2026-05-01T15:16:35Z</time></trkpt><trkpt lat="43.687666474618986" lon="11.444091118597035"><ele>142.0</ele><time>2026-05-01T15:16:36Z</time></trkpt><trkpt lat="43.6874373350422" lon="11.444291384297681"><ele>142.0</ele><time>2026-05-01T15:16:37Z</time></trkpt><trkpt lat="43.68721044588742" lon="11.444496092396921"><ele>140.0</ele><time>2026-05-01T15:16:38Z</time></trkpt><trkpt lat="43.68698667231289" lon="11.444703903010666"><ele>138.0</ele><time>2026-05-01T15:16:39Z</time></trkpt><trkpt lat="43.68676274792786" lon="11.444915236585203"><ele>137.5</ele><time>2026-05-01T15:16:40Z</time></trkpt><trkpt lat="43.68653988532131" lon="11.445123718638452"><ele>137.0</ele><time>2026-05-01T15:16:41Z</time></trkpt><trkpt lat="43.686315215160235" lon="11.44533013945596"><ele>137.5</ele><time>2026-05-01T15:16:42Z</time></trkpt><trkpt lat="43.68608871148975" lon="11.445532837189772"><ele>138.0</ele><time>2026-05-01T15:16:43Z</time></trkpt><trkpt lat="43.685859034023004" lon="11.44573630137548"><ele>138.0</ele><time>2026-05-01T15:16:44Z</time></trkpt><trkpt lat="43.68562983681206" lon="11.44594067468921"><ele>138.0</ele><time>2026-05-01T15:16:45Z</time></trkpt><trkpt lat="43.685401399783835" lon="11.446146019609406"><ele>134.0</ele><time>2026-05-01T15:16:46Z</time></trkpt><trkpt lat="43.68517204591156" lon="11.446350749159897"><ele>130.0</ele><time>2026-05-01T15:16:47Z</time></trkpt><trkpt lat="43.68494314811524" lon="11.446555974202134"><ele>130.0</ele><time>2026-05-01T15:16:48Z</time></trkpt><trkpt lat="43.68471250011356" lon="11.44675943062329"><ele>130.0</ele><time>2026-05-01T15:16:49Z</time></trkpt><trkpt lat="43.68448055084211" lon="11.446961862827438"><ele>127.0</ele><time>2026-05-01T15:16:50Z</time></trkpt><trkpt lat="43.68424686636546" lon="11.44715901949826"><ele>124.0</ele><time>2026-05-01T15:16:51Z</time></trkpt><trkpt lat="43.6840115959847" lon="11.447354795221994"><ele>124.0</ele><time>2026-05-01T15:16:52Z</time></trkpt><trkpt lat="43.683775528931314" lon="11.447553899649641"><ele>124.0</ele><time>2026-05-01T15:16:53Z</time></trkpt><trkpt lat="43.68354111975665" lon="11.447754205556935"><ele>123.0</ele><time>2026-05-01T15:16:54Z</time></trkpt><trkpt lat="43.683308157360784" lon="11.447957436937754"><ele>122.0</ele><time>2026-05-01T15:16:55Z</time></trkpt><trkpt lat="43.6830767617814" lon="11.448161232934995"><ele>121.0</ele><time>2026-05-01T15:16:56Z</time></trkpt><trkpt lat="43.68284531018656" lon="11.448366664567798"><ele>120.0</ele><time>2026-05-01T15:16:57Z</time></trkpt><trkpt lat="43.6826151393209" lon="11.448572473890632"><ele>120.0</ele><time>2026-05-01T15:16:58Z</time></trkpt><trkpt lat="43.68238539352506" lon="11.448779061918598"><ele>120.0</ele><time>2026-05-01T15:16:59Z</time></trkpt><trkpt lat="43.68215747600545" lon="11.448985457216915"><ele>120.0</ele><time>2026-05-01T15:17:00Z</time></trkpt><trkpt lat="43.68193101121845" lon="11.449187408685912"><ele>120.0</ele><time>2026-05-01T15:17:01Z</time></trkpt><trkpt lat="43.68170611357995" lon="11.449391455874563"><ele>120.0</ele><time>2026-05-01T15:17:02Z</time></trkpt><trkpt lat="43.681482623863836" lon="11.449592898065287"><ele>120.0</ele><time>2026-05-01T15:17:03Z</time></trkpt><trkpt lat="43.681260248195976" lon="11.449795790401144"><ele>125.0</ele><time>2026-05-01T15:17:04Z</time></trkpt><trkpt lat="43.68103716201824" lon="11.44999844527176"><ele>130.0</ele><time>2026-05-01T15:17:05Z</time></trkpt><trkpt lat="43.68081194408176" lon="11.450196530002536"><ele>130.0</ele><time>2026-05-01T15:17:06Z</time></trkpt><trkpt lat="43.680584758369335" lon="11.450392053736778"><ele>130.0</ele><time>2026-05-01T15:17:07Z</time></trkpt><trkpt lat="43.68035134159845" lon="11.450584692931827"><ele>132.0</ele><time>2026-05-01T15:17:08Z</time></trkpt><trkpt lat="43.68011375880974" lon="11.45077118795804"><ele>134.0</ele><time>2026-05-01T15:17:09Z</time></trkpt><trkpt lat="43.67987277511516" lon="11.450956049365127"><ele>134.0</ele><time>2026-05-01T15:17:10Z</time></trkpt><trkpt lat="43.6796288687108" lon="11.451135378181196"><ele>134.0</ele><time>2026-05-01T15:17:11Z</time></trkpt><trkpt lat="43.679381389591846" lon="11.45130923794662"><ele>134.5</ele><time>2026-05-01T15:17:12Z</time></trkpt><trkpt lat="43.67912910004363" lon="11.45148658396699"><ele>135.0</ele><time>2026-05-01T15:17:13Z</time></trkpt><trkpt lat="43.6788759488384" lon="11.451656288776926"><ele>135.0</ele><time>2026-05-01T15:17:14Z</time></trkpt><trkpt lat="43.67862112849256" lon="11.45182279665255"><ele>135.0</ele><time>2026-05-01T15:17:15Z</time></trkpt><trkpt lat="43.67836522993911" lon="11.45198161448687"><ele>135.0</ele><time>2026-05-01T15:17:16Z</time></trkpt><trkpt lat="43.678104104638585" lon="11.45213621189059"><ele>135.0</ele><time>2026-05-01T15:17:17Z</time></trkpt><trkpt lat="43.67784121232582" lon="11.452286339449715"><ele>137.5</ele><time>2026-05-01T15:17:18Z</time></trkpt><trkpt lat="43.6775761266218" lon="11.452432356013203"><ele>140.0</ele><time>2026-05-01T15:17:19Z</time></trkpt><trkpt lat="43.67730889392019" lon="11.45256921305703"><ele>140.0</ele><time>2026-05-01T15:17:20Z</time></trkpt><trkpt lat="43.677042047385086" lon="11.45270396589452"><ele>140.0</ele><time>2026-05-01T15:17:21Z</time></trkpt><trkpt lat="43.67677672563023" lon="11.452841676361599"><ele>128.5</ele><time>2026-05-01T15:17:22Z</time></trkpt><trkpt lat="43.67651363658151" lon="11.452980974374944"><ele>117.0</ele><time>2026-05-01T15:17:23Z</time></trkpt><trkpt lat="43.67625057286938" lon="11.453117945677015"><ele>114.0</ele><time>2026-05-01T15:17:24Z</time></trkpt><trkpt lat="43.6759878114391" lon="11.453255279459084"><ele>111.0</ele><time>2026-05-01T15:17:25Z</time></trkpt><trkpt lat="43.67572782354498" lon="11.453392541055585"><ele>111.0</ele><time>2026-05-01T15:17:26Z</time></trkpt><trkpt lat="43.675468480167595" lon="11.453529645786528"><ele>111.0</ele><time>2026-05-01T15:17:27Z</time></trkpt><trkpt lat="43.675209705432394" lon="11.453664920098541"><ele>126.0</ele><time>2026-05-01T15:17:28Z</time></trkpt><trkpt lat="43.67495189625566" lon="11.453799153827578"><ele>141.0</ele><time>2026-05-01T15:17:29Z</time></trkpt><trkpt lat="43.67469611916051" lon="11.45393428477383"><ele>141.0</ele><time>2026-05-01T15:17:30Z</time></trkpt><trkpt lat="43.6744432516164" lon="11.45406998350043"><ele>141.0</ele><time>2026-05-01T15:17:31Z</time></trkpt><trkpt lat="43.674188743834954" lon="11.454208300076662"><ele>149.5</ele><time>2026-05-01T15:17:32Z</time></trkpt><trkpt lat="43.67393469822424" lon="11.45434490349353"><ele>158.0</ele><time>2026-05-01T15:17:33Z</time></trkpt><trkpt lat="43.673678920653444" lon="11.454480380542698"><ele>161.5</ele><time>2026-05-01T15:17:34Z</time></trkpt><trkpt lat="43.67342136735914" lon="11.454615924318006"><ele>165.0</ele><time>2026-05-01T15:17:35Z</time></trkpt><trkpt lat="43.673163371362975" lon="11.454754205753577"><ele>162.5</ele><time>2026-05-01T15:17:36Z</time></trkpt><trkpt lat="43.672905132515645" lon="11.45489654236241"><ele>160.0</ele><time>2026-05-01T15:17:37Z</time></trkpt><trkpt lat="43.67264640000739" lon="11.455041032990263"><ele>160.0</ele><time>2026-05-01T15:17:38Z</time></trkpt><trkpt lat="43.672386324243206" lon="11.455185816603983"><ele>160.0</ele><time>2026-05-01T15:17:39Z</time></trkpt><trkpt lat="43.672178126658814" lon="11.455254235014339"><ele>155.5</ele><time>2026-05-01T15:17:40Z</time></trkpt><trkpt lat="43.67192741253649" lon="11.45538538576585"><ele>151.0</ele><time>2026-05-01T15:17:41Z</time></trkpt><trkpt lat="43.671677026826025" lon="11.455515534269848"><ele>151.0</ele><time>2026-05-01T15:17:42Z</time></trkpt><trkpt lat="43.67139656360427" lon="11.45566289922766"><ele>151.0</ele><time>2026-05-01T15:17:43Z</time></trkpt><trkpt lat="43.67113224154002" lon="11.455807535377907"><ele>143.0</ele><time>2026-05-01T15:17:44Z</time></trkpt><trkpt lat="43.670873773614666" lon="11.455939316043978"><ele>135.0</ele><time>2026-05-01T15:17:45Z</time></trkpt><trkpt lat="43.67062552202661" lon="11.45606924803574"><ele>135.0</ele><time>2026-05-01T15:17:46Z</time></trkpt><trkpt lat="43.670374341745166" lon="11.45620777835229"><ele>135.0</ele><time>2026-05-01T15:17:47Z</time></trkpt><trkpt lat="43.67013096014658" lon="11.456350021037832"><ele>133.0</ele><time>2026-05-01T15:17:48Z</time></trkpt><trkpt lat="43.66988911773231" lon="11.456499757560833"><ele>131.0</ele><time>2026-05-01T15:17:49Z</time></trkpt><trkpt lat="43.669649179474014" lon="11.45664801574342"><ele>130.0</ele><time>2026-05-01T15:17:50Z</time></trkpt><trkpt lat="43.66941179426769" lon="11.456797788037882"><ele>129.0</ele><time>2026-05-01T15:17:51Z</time></trkpt><trkpt lat="43.66917117024058" lon="11.45694773706405"><ele>129.0</ele><time>2026-05-01T15:17:52Z</time></trkpt><trkpt lat="43.668940484510415" lon="11.45708994260125"><ele>129.0</ele><time>2026-05-01T15:17:53Z</time></trkpt><trkpt lat="43.66869248018951" lon="11.457232847530562"><ele>129.0</ele><time>2026-05-01T15:17:54Z</time></trkpt><trkpt lat="43.66844462571422" lon="11.457371138151563"><ele>129.0</ele><time>2026-05-01T15:17:54.999Z</time></trkpt><trkpt lat="43.66819570007576" lon="11.45750405810352"><ele>129.0</ele><time>2026-05-01T15:17:55.999Z</time></trkpt><trkpt lat="43.66794563964907" lon="11.457632379611864"><ele>129.0</ele><time>2026-05-01T15:17:56.999Z</time></trkpt><trkpt lat="43.667693793499694" lon="11.457763679590164"><ele>132.5</ele><time>2026-05-01T15:17:57.999Z</time></trkpt><trkpt lat="43.667440955443105" lon="11.457895834259029"><ele>136.0</ele><time>2026-05-01T15:17:58.999Z</time></trkpt><trkpt lat="43.66718455811532" lon="11.458031337986775"><ele>137.0</ele><time>2026-05-01T15:17:59.999Z</time></trkpt><trkpt lat="43.666928893881284" lon="11.458165815167455"><ele>138.0</ele><time>2026-05-01T15:18:00.999Z</time></trkpt><trkpt lat="43.666670769453944" lon="11.458300238221403"><ele>138.0</ele><time>2026-05-01T15:18:01.999Z</time></trkpt><trkpt lat="43.66641203973214" lon="11.458436957824045"><ele>138.0</ele><time>2026-05-01T15:18:02.999Z</time></trkpt><trkpt lat="43.66615342511383" lon="11.458572851987734"><ele>138.0</ele><time>2026-05-01T15:18:03.999Z</time></trkpt><trkpt lat="43.66589742391574" lon="11.45870951044627"><ele>138.0</ele><time>2026-05-01T15:18:04.999Z</time></trkpt><trkpt lat="43.66564102235824" lon="11.458843310149195"><ele>137.5</ele><time>2026-05-01T15:18:05.999Z</time></trkpt><trkpt lat="43.66538229659605" lon="11.458975050749546"><ele>137.0</ele><time>2026-05-01T15:18:06.999Z</time></trkpt><trkpt lat="43.66512344193237" lon="11.459110771571906"><ele>137.0</ele><time>2026-05-01T15:18:07.999Z</time></trkpt><trkpt lat="43.66486358058469" lon="11.459246435925706"><ele>137.0</ele><time>2026-05-01T15:18:08.999Z</time></trkpt><trkpt lat="43.66460248787395" lon="11.459390068579694"><ele>137.5</ele><time>2026-05-01T15:18:09.999Z</time></trkpt><trkpt lat="43.664344836886926" lon="11.45954012728743"><ele>138.0</ele><time>2026-05-01T15:18:10.999Z</time></trkpt><trkpt lat="43.664089500594564" lon="11.459695456301437"><ele>138.0</ele><time>2026-05-01T15:18:11.999Z</time></trkpt><trkpt lat="43.66383510740269" lon="11.459853794728307"><ele>138.0</ele><time>2026-05-01T15:18:12.999Z</time></trkpt><trkpt lat="43.66358393984793" lon="11.460017792301965"><ele>138.0</ele><time>2026-05-01T15:18:13.999Z</time></trkpt><trkpt lat="43.66333327048615" lon="11.460186591220715"><ele>138.0</ele><time>2026-05-01T15:18:14.999Z</time></trkpt><trkpt lat="43.663083983278995" lon="11.460361184176323"><ele>138.0</ele><time>2026-05-01T15:18:15.999Z</time></trkpt><trkpt lat="43.66283641857748" lon="11.46053971280141"><ele>138.0</ele><time>2026-05-01T15:18:16.999Z</time></trkpt><trkpt lat="43.66258999699755" lon="11.460721747679198"><ele>138.0</ele><time>2026-05-01T15:18:17.999Z</time></trkpt><trkpt lat="43.66234811030371" lon="11.46091144908318"><ele>138.0</ele><time>2026-05-01T15:18:18.999Z</time></trkpt><trkpt lat="43.662107986576714" lon="11.46111158421778"><ele>135.5</ele><time>2026-05-01T15:18:19.999Z</time></trkpt><trkpt lat="43.66186787291668" lon="11.461318110618867"><ele>133.0</ele><time>2026-05-01T15:18:20.999Z</time></trkpt><trkpt lat="43.66162740857561" lon="11.461525324913879"><ele>133.0</ele><time>2026-05-01T15:18:21.999Z</time></trkpt><trkpt lat="43.66138742400984" lon="11.461735818757283"><ele>133.0</ele><time>2026-05-01T15:18:22.999Z</time></trkpt><trkpt lat="43.66114826846644" lon="11.461945335830983"><ele>130.5</ele><time>2026-05-01T15:18:23.999Z</time></trkpt><trkpt lat="43.66090771597456" lon="11.462154667363823"><ele>128.0</ele><time>2026-05-01T15:18:24.999Z</time></trkpt><trkpt lat="43.660667648132126" lon="11.462364042408979"><ele>128.0</ele><time>2026-05-01T15:18:25.999Z</time></trkpt><trkpt lat="43.66042558514759" lon="11.462575125842163"><ele>128.0</ele><time>2026-05-01T15:18:26.999Z</time></trkpt><trkpt lat="43.660186548533645" lon="11.462789484351415"><ele>129.5</ele><time>2026-05-01T15:18:27.999Z</time></trkpt><trkpt lat="43.659948813489734" lon="11.46300625843464"><ele>131.0</ele><time>2026-05-01T15:18:28.999Z</time></trkpt><trkpt lat="43.65970939928849" lon="11.4632206221587"><ele>131.0</ele><time>2026-05-01T15:18:29.999Z</time></trkpt><trkpt lat="43.65946971157756" lon="11.463432296718192"><ele>131.0</ele><time>2026-05-01T15:18:30.999Z</time></trkpt><trkpt lat="43.65922159211959" lon="11.463644717518852"><ele>133.0</ele><time>2026-05-01T15:18:31.999Z</time></trkpt><trkpt lat="43.658979944004265" lon="11.46385988262757"><ele>135.0</ele><time>2026-05-01T15:18:32.999Z</time></trkpt><trkpt lat="43.65873973006817" lon="11.464062824923108"><ele>129.5</ele><time>2026-05-01T15:18:33.999Z</time></trkpt><trkpt lat="43.65850008135335" lon="11.464266945026134"><ele>124.0</ele><time>2026-05-01T15:18:34.999Z</time></trkpt><trkpt lat="43.65825121712612" lon="11.464458027954556"><ele>130.0</ele><time>2026-05-01T15:18:35.999Z</time></trkpt><trkpt lat="43.657992522461925" lon="11.464622243093686"><ele>136.0</ele><time>2026-05-01T15:18:36.999Z</time></trkpt><trkpt lat="43.657738329845756" lon="11.464768014098588"><ele>136.0</ele><time>2026-05-01T15:18:37.999Z</time></trkpt><trkpt lat="43.65747379041944" lon="11.464893880266"><ele>136.0</ele><time>2026-05-01T15:18:38.999Z</time></trkpt><trkpt lat="43.65720927214289" lon="11.465011874374678"><ele>135.5</ele><time>2026-05-01T15:18:39.999Z</time></trkpt><trkpt lat="43.656936628820155" lon="11.465116984177264"><ele>135.0</ele><time>2026-05-01T15:18:41Z</time></trkpt><trkpt lat="43.65666229765303" lon="11.465211387610616"><ele>135.0</ele><time>2026-05-01T15:18:42Z</time></trkpt><trkpt lat="43.65638857589046" lon="11.465286052680437"><ele>135.0</ele><time>2026-05-01T15:18:43Z</time></trkpt><trkpt lat="43.656111728980655" lon="11.46534799090244"><ele>132.0</ele><time>2026-05-01T15:18:44Z</time></trkpt><trkpt lat="43.65583737265944" lon="11.46540434447584"><ele>129.0</ele><time>2026-05-01T15:18:45Z</time></trkpt><trkpt lat="43.65556322884791" lon="11.465436681221345"><ele>134.0</ele><time>2026-05-01T15:18:46Z</time></trkpt><trkpt lat="43.65528711182628" lon="11.465460024320448"><ele>139.0</ele><time>2026-05-01T15:18:47Z</time></trkpt><trkpt lat="43.6550180202087" lon="11.465460382553454"><ele>139.0</ele><time>2026-05-01T15:18:48Z</time></trkpt><trkpt lat="43.65475594292412" lon="11.465451754320481"><ele>139.0</ele><time>2026-05-01T15:18:49Z</time></trkpt><trkpt lat="43.6544865262064" lon="11.465444080875912"><ele>139.5</ele><time>2026-05-01T15:18:50Z</time></trkpt><trkpt lat="43.654217112838296" lon="11.465456021877474"><ele>140.0</ele><time>2026-05-01T15:18:51Z</time></trkpt><trkpt lat="43.65394733081847" lon="11.465456492316331"><ele>140.0</ele><time>2026-05-01T15:18:52Z</time></trkpt><trkpt lat="43.65366868252226" lon="11.465469512026205"><ele>140.0</ele><time>2026-05-01T15:18:53Z</time></trkpt><trkpt lat="43.65339743704045" lon="11.465486005613476"><ele>139.5</ele><time>2026-05-01T15:18:54Z</time></trkpt><trkpt lat="43.653111224173514" lon="11.465474329610103"><ele>139.0</ele><time>2026-05-01T15:18:55Z</time></trkpt><trkpt lat="43.652836539540104" lon="11.465480853474947"><ele>139.5</ele><time>2026-05-01T15:18:56Z</time></trkpt><trkpt lat="43.652561121418415" lon="11.465490160883588"><ele>140.0</ele><time>2026-05-01T15:18:57Z</time></trkpt><trkpt lat="43.65228801569354" lon="11.46550015138619"><ele>140.0</ele><time>2026-05-01T15:18:58Z</time></trkpt><trkpt lat="43.65201233691141" lon="11.465510032878896"><ele>140.0</ele><time>2026-05-01T15:18:59Z</time></trkpt><trkpt lat="43.65173649263665" lon="11.46551863016963"><ele>139.5</ele><time>2026-05-01T15:19:00Z</time></trkpt><trkpt lat="43.65145778850975" lon="11.465523947097322"><ele>139.0</ele><time>2026-05-01T15:19:01Z</time></trkpt><trkpt lat="43.651181030254754" lon="11.465526306952803"><ele>138.0</ele><time>2026-05-01T15:19:02Z</time></trkpt><trkpt lat="43.65090249540506" lon="11.465533995273136"><ele>137.0</ele><time>2026-05-01T15:19:03Z</time></trkpt><trkpt lat="43.65062456680021" lon="11.465538607865836"><ele>137.0</ele><time>2026-05-01T15:19:04Z</time></trkpt><trkpt lat="43.65034803152098" lon="11.46554493172702"><ele>137.0</ele><time>2026-05-01T15:19:05Z</time></trkpt><trkpt lat="43.65006902388041" lon="11.465551904693678"><ele>135.0</ele><time>2026-05-01T15:19:06Z</time></trkpt><trkpt lat="43.6497898277787" lon="11.465556571497087"><ele>133.0</ele><time>2026-05-01T15:19:07Z</time></trkpt><trkpt lat="43.64951105934742" lon="11.46556281514334"><ele>131.0</ele><time>2026-05-01T15:19:08Z</time></trkpt><trkpt lat="43.64923242046678" lon="11.465568270130298"><ele>129.0</ele><time>2026-05-01T15:19:09Z</time></trkpt><trkpt lat="43.64895389575901" lon="11.465572314754889"><ele>129.0</ele><time>2026-05-01T15:19:10Z</time></trkpt><trkpt lat="43.64867581085927" lon="11.465576780440202"><ele>129.0</ele><time>2026-05-01T15:19:11Z</time></trkpt><trkpt lat="43.64839666463445" lon="11.465583082877286"><ele>128.0</ele><time>2026-05-01T15:19:12Z</time></trkpt><trkpt lat="43.64811879093891" lon="11.465594402942372"><ele>127.0</ele><time>2026-05-01T15:19:13Z</time></trkpt><trkpt lat="43.64784059099114" lon="11.465599982760734"><ele>127.0</ele><time>2026-05-01T15:19:14Z</time></trkpt><trkpt lat="43.64756205107241" lon="11.465607518123939"><ele>127.0</ele><time>2026-05-01T15:19:15Z</time></trkpt><trkpt lat="43.647283404270986" lon="11.465613126006813"><ele>127.0</ele><time>2026-05-01T15:19:16Z</time></trkpt><trkpt lat="43.647006571410984" lon="11.465618066854944"><ele>127.0</ele><time>2026-05-01T15:19:17Z</time></trkpt><trkpt lat="43.64673078064946" lon="11.46562336771565"><ele>127.0</ele><time>2026-05-01T15:19:18Z</time></trkpt><trkpt lat="43.646454825357544" lon="11.465628495196945"><ele>127.0</ele><time>2026-05-01T15:19:19Z</time></trkpt><trkpt lat="43.64617877563166" lon="11.46563419097143"><ele>127.5</ele><time>2026-05-01T15:19:20Z</time></trkpt><trkpt lat="43.645905853567164" lon="11.465637751068355"><ele>128.0</ele><time>2026-05-01T15:19:21Z</time></trkpt><trkpt lat="43.64562923069379" lon="11.46564460178815"><ele>128.0</ele><time>2026-05-01T15:19:22Z</time></trkpt><trkpt lat="43.6453576935071" lon="11.465656112078493"><ele>128.0</ele><time>2026-05-01T15:19:23Z</time></trkpt><trkpt lat="43.64508585619239" lon="11.465664049762886"><ele>127.0</ele><time>2026-05-01T15:19:24Z</time></trkpt><trkpt lat="43.64481589331544" lon="11.465668712859912"><ele>126.0</ele><time>2026-05-01T15:19:25Z</time></trkpt><trkpt lat="43.644542044066945" lon="11.465679447196594"><ele>126.0</ele><time>2026-05-01T15:19:26Z</time></trkpt><trkpt lat="43.64427060027925" lon="11.465686764443937"><ele>126.0</ele><time>2026-05-01T15:19:27Z</time></trkpt><trkpt lat="43.643994947998486" lon="11.465696509574046"><ele>126.0</ele><time>2026-05-01T15:19:28Z</time></trkpt><trkpt lat="43.64372141563985" lon="11.465702835260865"><ele>126.0</ele><time>2026-05-01T15:19:29Z</time></trkpt><trkpt lat="43.64344581985793" lon="11.465706685406095"><ele>126.0</ele><time>2026-05-01T15:19:30Z</time></trkpt><trkpt lat="43.64316938927955" lon="11.465716476629627"><ele>126.0</ele><time>2026-05-01T15:19:31Z</time></trkpt><trkpt lat="43.6428948217274" lon="11.465720182681766"><ele>125.5</ele><time>2026-05-01T15:19:32Z</time></trkpt><trkpt lat="43.642618069149016" lon="11.46572893730002"><ele>125.0</ele><time>2026-05-01T15:19:33Z</time></trkpt><trkpt lat="43.64234256380601" lon="11.465731544349847"><ele>125.0</ele><time>2026-05-01T15:19:34Z</time></trkpt><trkpt lat="43.64206749430755" lon="11.465736544696401"><ele>125.0</ele><time>2026-05-01T15:19:35Z</time></trkpt><trkpt lat="43.64179320491609" lon="11.465744255938676"><ele>124.5</ele><time>2026-05-01T15:19:36Z</time></trkpt><trkpt lat="43.64151883178579" lon="11.465749182691244"><ele>124.0</ele><time>2026-05-01T15:19:37Z</time></trkpt><trkpt lat="43.64124137869137" lon="11.465752586929446"><ele>124.5</ele><time>2026-05-01T15:19:38Z</time></trkpt><trkpt lat="43.640976613828634" lon="11.46576033916133"><ele>125.0</ele><time>2026-05-01T15:19:39Z</time></trkpt><trkpt lat="43.6406976935041" lon="11.465766320772609"><ele>125.0</ele><time>2026-05-01T15:19:40Z</time></trkpt><trkpt lat="43.64042271494144" lon="11.465769696651877"><ele>125.0</ele><time>2026-05-01T15:19:41Z</time></trkpt><trkpt lat="43.64014807776504" lon="11.465782548641439"><ele>124.5</ele><time>2026-05-01T15:19:42Z</time></trkpt><trkpt lat="43.6398772906562" lon="11.46578837382199"><ele>124.0</ele><time>2026-05-01T15:19:43Z</time></trkpt><trkpt lat="43.63960936231772" lon="11.465800333799827"><ele>122.5</ele><time>2026-05-01T15:19:44Z</time></trkpt><trkpt lat="43.639339730219376" lon="11.465812294922737"><ele>121.0</ele><time>2026-05-01T15:19:45Z</time></trkpt><trkpt lat="43.63907178825151" lon="11.465825028820333"><ele>121.0</ele><time>2026-05-01T15:19:46Z</time></trkpt><trkpt lat="43.63880178092648" lon="11.46585146564328"><ele>121.0</ele><time>2026-05-01T15:19:47Z</time></trkpt><trkpt lat="43.638534533462106" lon="11.465896651441145"><ele>120.0</ele><time>2026-05-01T15:19:48Z</time></trkpt><trkpt lat="43.638265610395585" lon="11.465962135609887"><ele>119.0</ele><time>2026-05-01T15:19:49Z</time></trkpt><trkpt lat="43.638001191299594" lon="11.466052078151534"><ele>119.5</ele><time>2026-05-01T15:19:50Z</time></trkpt><trkpt lat="43.63773675164358" lon="11.466163482974881"><ele>120.0</ele><time>2026-05-01T15:19:51Z</time></trkpt><trkpt lat="43.63747648600067" lon="11.466290574219398"><ele>120.0</ele><time>2026-05-01T15:19:52Z</time></trkpt><trkpt lat="43.637221405509976" lon="11.466434774780977"><ele>120.0</ele><time>2026-05-01T15:19:53Z</time></trkpt><trkpt lat="43.63697016203376" lon="11.466598217438223"><ele>120.5</ele><time>2026-05-01T15:19:54Z</time></trkpt><trkpt lat="43.63672345913918" lon="11.466775933621108"><ele>121.0</ele><time>2026-05-01T15:19:54.999Z</time></trkpt><trkpt lat="43.63648606916576" lon="11.466973970831301"><ele>120.5</ele><time>2026-05-01T15:19:55.999Z</time></trkpt><trkpt lat="43.636252389038994" lon="11.467190689551073"><ele>120.0</ele><time>2026-05-01T15:19:56.999Z</time></trkpt><trkpt lat="43.63602957881905" lon="11.467418743196237"><ele>120.0</ele><time>2026-05-01T15:19:57.999Z</time></trkpt><trkpt lat="43.635809208960076" lon="11.467655343279727"><ele>120.0</ele><time>2026-05-01T15:19:58.999Z</time></trkpt><trkpt lat="43.63558609862143" lon="11.467898546755107"><ele>120.0</ele><time>2026-05-01T15:19:59.999Z</time></trkpt><trkpt lat="43.63536858240202" lon="11.468139285633836"><ele>120.0</ele><time>2026-05-01T15:20:00.999Z</time></trkpt><trkpt lat="43.63514701817918" lon="11.468379907246456"><ele>120.0</ele><time>2026-05-01T15:20:01.999Z</time></trkpt><trkpt lat="43.63492551066194" lon="11.468621967147639"><ele>120.0</ele><time>2026-05-01T15:20:02.999Z</time></trkpt><trkpt lat="43.634704434347" lon="11.468859052619383"><ele>121.0</ele><time>2026-05-01T15:20:03.999Z</time></trkpt><trkpt lat="43.63448596016967" lon="11.469099338414695"><ele>122.0</ele><time>2026-05-01T15:20:04.999Z</time></trkpt><trkpt lat="43.63426701963373" lon="11.46934149874717"><ele>122.0</ele><time>2026-05-01T15:20:05.999Z</time></trkpt><trkpt lat="43.63404932534662" lon="11.469580182355086"><ele>122.0</ele><time>2026-05-01T15:20:06.999Z</time></trkpt><trkpt lat="43.63383113644567" lon="11.469815628451727"><ele>121.5</ele><time>2026-05-01T15:20:07.999Z</time></trkpt><trkpt lat="43.633613168819146" lon="11.470052677816193"><ele>121.0</ele><time>2026-05-01T15:20:08.999Z</time></trkpt><trkpt lat="43.63339558774778" lon="11.47029226615079"><ele>122.5</ele><time>2026-05-01T15:20:09.999Z</time></trkpt><trkpt lat="43.63317932653912" lon="11.470532907795727"><ele>124.0</ele><time>2026-05-01T15:20:10.999Z</time></trkpt><trkpt lat="43.63296478766755" lon="11.470766748524213"><ele>123.0</ele><time>2026-05-01T15:20:11.999Z</time></trkpt><trkpt lat="43.632751783212214" lon="11.471002513680943"><ele>122.0</ele><time>2026-05-01T15:20:12.999Z</time></trkpt><trkpt lat="43.63253050961314" lon="11.47125393952625"><ele>122.5</ele><time>2026-05-01T15:20:13.999Z</time></trkpt><trkpt lat="43.63230806950211" lon="11.471500591117117"><ele>123.0</ele><time>2026-05-01T15:20:14.999Z</time></trkpt><trkpt lat="43.63208753455189" lon="11.47173714119028"><ele>123.0</ele><time>2026-05-01T15:20:15.999Z</time></trkpt><trkpt lat="43.631863586587656" lon="11.47198345078891"><ele>123.0</ele><time>2026-05-01T15:20:16.999Z</time></trkpt><trkpt lat="43.63164495615943" lon="11.472220625827035"><ele>123.0</ele><time>2026-05-01T15:20:17.999Z</time></trkpt><trkpt lat="43.63142630767344" lon="11.472449196360333"><ele>123.0</ele><time>2026-05-01T15:20:18.999Z</time></trkpt><trkpt lat="43.63121505734053" lon="11.472690546261374"><ele>123.0</ele><time>2026-05-01T15:20:19.999Z</time></trkpt><trkpt lat="43.63099286668156" lon="11.472940909858194"><ele>123.0</ele><time>2026-05-01T15:20:20.999Z</time></trkpt><trkpt lat="43.63077830830081" lon="11.473176912915713"><ele>123.0</ele><time>2026-05-01T15:20:21.999Z</time></trkpt><trkpt lat="43.63056135075935" lon="11.473413359362922"><ele>123.0</ele><time>2026-05-01T15:20:22.999Z</time></trkpt><trkpt lat="43.63034454553296" lon="11.473655710183449"><ele>124.0</ele><time>2026-05-01T15:20:23.999Z</time></trkpt><trkpt lat="43.63013026073112" lon="11.473897972182455"><ele>125.0</ele><time>2026-05-01T15:20:24.999Z</time></trkpt><trkpt lat="43.629913053983465" lon="11.47414019592221"><ele>125.0</ele><time>2026-05-01T15:20:25.999Z</time></trkpt><trkpt lat="43.62968859644877" lon="11.474376265416696"><ele>125.0</ele><time>2026-05-01T15:20:26.999Z</time></trkpt><trkpt lat="43.629467303153206" lon="11.474613325523542"><ele>124.5</ele><time>2026-05-01T15:20:27.999Z</time></trkpt><trkpt lat="43.629245849512586" lon="11.4748597709551"><ele>124.0</ele><time>2026-05-01T15:20:28.999Z</time></trkpt><trkpt lat="43.6290243687183" lon="11.475105582744067"><ele>124.0</ele><time>2026-05-01T15:20:29.999Z</time></trkpt><trkpt lat="43.62879858488676" lon="11.475342166273315"><ele>124.0</ele><time>2026-05-01T15:20:30.999Z</time></trkpt><trkpt lat="43.62857636040583" lon="11.475589630463883"><ele>123.5</ele><time>2026-05-01T15:20:31.999Z</time></trkpt><trkpt lat="43.62834548984648" lon="11.475833957965136"><ele>123.0</ele><time>2026-05-01T15:20:32.999Z</time></trkpt><trkpt lat="43.62811954062732" lon="11.476090093581204"><ele>124.0</ele><time>2026-05-01T15:20:33.999Z</time></trkpt><trkpt lat="43.627902465784736" lon="11.476338583979278"><ele>125.0</ele><time>2026-05-01T15:20:34.999Z</time></trkpt><trkpt lat="43.627676527293836" lon="11.476578082997236"><ele>125.0</ele><time>2026-05-01T15:20:35.999Z</time></trkpt><trkpt lat="43.62745067402193" lon="11.476823747052567"><ele>125.0</ele><time>2026-05-01T15:20:36.999Z</time></trkpt><trkpt lat="43.62722726501362" lon="11.477056039745124"><ele>125.0</ele><time>2026-05-01T15:20:37.999Z</time></trkpt><trkpt lat="43.62700428641646" lon="11.477305898199045"><ele>125.0</ele><time>2026-05-01T15:20:38.999Z</time></trkpt><trkpt lat="43.62678364195338" lon="11.477552754192262"><ele>124.5</ele><time>2026-05-01T15:20:39.999Z</time></trkpt><trkpt lat="43.62656072795729" lon="11.47780201221481"><ele>124.0</ele><time>2026-05-01T15:20:40.999Z</time></trkpt><trkpt lat="43.62634072084407" lon="11.478048315039613"><ele>124.0</ele><time>2026-05-01T15:20:41.999Z</time></trkpt><trkpt lat="43.62611202463231" lon="11.478287479641455"><ele>124.0</ele><time>2026-05-01T15:20:42.999Z</time></trkpt><trkpt lat="43.62588668386261" lon="11.478525220848862"><ele>124.0</ele><time>2026-05-01T15:20:43.999Z</time></trkpt><trkpt lat="43.62566969025687" lon="11.478760435704645"><ele>124.0</ele><time>2026-05-01T15:20:44.999Z</time></trkpt><trkpt lat="43.62545197719084" lon="11.479007523541968"><ele>124.0</ele><time>2026-05-01T15:20:45.999Z</time></trkpt><trkpt lat="43.62523298582948" lon="11.47924957842115"><ele>124.0</ele><time>2026-05-01T15:20:47Z</time></trkpt><trkpt lat="43.62501263034948" lon="11.479491985010592"><ele>124.5</ele><time>2026-05-01T15:20:48Z</time></trkpt><trkpt lat="43.62479592004345" lon="11.479733342113546"><ele>125.0</ele><time>2026-05-01T15:20:49Z</time></trkpt><trkpt lat="43.62457972918413" lon="11.479973729658552"><ele>125.5</ele><time>2026-05-01T15:20:50Z</time></trkpt><trkpt lat="43.624363114367576" lon="11.480205886114765"><ele>126.0</ele><time>2026-05-01T15:20:51Z</time></trkpt><trkpt lat="43.624147028656346" lon="11.480438763474902"><ele>126.0</ele><time>2026-05-01T15:20:52Z</time></trkpt><trkpt lat="43.62393658830389" lon="11.480675672437783"><ele>126.0</ele><time>2026-05-01T15:20:53Z</time></trkpt><trkpt lat="43.62372215533022" lon="11.48091275002237"><ele>126.0</ele><time>2026-05-01T15:20:54Z</time></trkpt><trkpt lat="43.62350528036279" lon="11.481146771505522"><ele>126.0</ele><time>2026-05-01T15:20:55Z</time></trkpt><trkpt lat="43.62329189246069" lon="11.481381695133527"><ele>126.0</ele><time>2026-05-01T15:20:56Z</time></trkpt><trkpt lat="43.62307823188936" lon="11.481614733154482"><ele>126.0</ele><time>2026-05-01T15:20:57Z</time></trkpt><trkpt lat="43.62285812070404" lon="11.481844139045199"><ele>125.5</ele><time>2026-05-01T15:20:58Z</time></trkpt><trkpt lat="43.6226446762582" lon="11.482075425164513"><ele>125.0</ele><time>2026-05-01T15:20:59Z</time></trkpt><trkpt lat="43.62242713919707" lon="11.482304955893278"><ele>125.0</ele><time>2026-05-01T15:21:00Z</time></trkpt><trkpt lat="43.622206133007026" lon="11.482527214458157"><ele>125.0</ele><time>2026-05-01T15:21:01Z</time></trkpt><trkpt lat="43.62198122727201" lon="11.482749073254219"><ele>124.5</ele><time>2026-05-01T15:21:02Z</time></trkpt><trkpt lat="43.621760124835134" lon="11.482974386739683"><ele>124.0</ele><time>2026-05-01T15:21:03Z</time></trkpt><trkpt lat="43.621538117088356" lon="11.483192640576778"><ele>124.0</ele><time>2026-05-01T15:21:04Z</time></trkpt><trkpt lat="43.62131284370639" lon="11.483406977227373"><ele>124.0</ele><time>2026-05-01T15:21:05Z</time></trkpt><trkpt lat="43.62108410313185" lon="11.483613867679075"><ele>124.0</ele><time>2026-05-01T15:21:06Z</time></trkpt><trkpt lat="43.62085685631699" lon="11.483817945702498"><ele>124.0</ele><time>2026-05-01T15:21:07Z</time></trkpt><trkpt lat="43.620625912233066" lon="11.484020356508271"><ele>124.0</ele><time>2026-05-01T15:21:08Z</time></trkpt><trkpt lat="43.620398122973036" lon="11.484221205389035"><ele>124.0</ele><time>2026-05-01T15:21:09Z</time></trkpt><trkpt lat="43.62017107485971" lon="11.484426332674781"><ele>124.0</ele><time>2026-05-01T15:21:10Z</time></trkpt><trkpt lat="43.61994012872264" lon="11.484631094021978"><ele>124.0</ele><time>2026-05-01T15:21:11Z</time></trkpt><trkpt lat="43.61970473787095" lon="11.484827520559257"><ele>123.5</ele><time>2026-05-01T15:21:12Z</time></trkpt><trkpt lat="43.61947521401506" lon="11.485033867720643"><ele>123.0</ele><time>2026-05-01T15:21:13Z</time></trkpt><trkpt lat="43.61924926879676" lon="11.485247337773906"><ele>123.5</ele><time>2026-05-01T15:21:14Z</time></trkpt><trkpt lat="43.619015930599694" lon="11.48545393236276"><ele>124.0</ele><time>2026-05-01T15:21:15Z</time></trkpt><trkpt lat="43.61877979841286" lon="11.485659916878975"><ele>123.0</ele><time>2026-05-01T15:21:16Z</time></trkpt><trkpt lat="43.6185509750613" lon="11.485865460841824"><ele>122.0</ele><time>2026-05-01T15:21:17Z</time></trkpt><trkpt lat="43.618315072373505" lon="11.486073164019874"><ele>123.5</ele><time>2026-05-01T15:21:18Z</time></trkpt><trkpt lat="43.618079480956794" lon="11.486281372019217"><ele>125.0</ele><time>2026-05-01T15:21:19Z</time></trkpt><trkpt lat="43.61784493821292" lon="11.486487640803935"><ele>124.5</ele><time>2026-05-01T15:21:20Z</time></trkpt><trkpt lat="43.61760983067834" lon="11.486692965272704"><ele>124.0</ele><time>2026-05-01T15:21:21Z</time></trkpt><trkpt lat="43.61737761834813" lon="11.486903133968477"><ele>124.0</ele><time>2026-05-01T15:21:22Z</time></trkpt><trkpt lat="43.61714620154443" lon="11.487115596356018"><ele>124.0</ele><time>2026-05-01T15:21:23Z</time></trkpt><trkpt lat="43.61690808254655" lon="11.487322191424767"><ele>124.5</ele><time>2026-05-01T15:21:24Z</time></trkpt><trkpt lat="43.61667384804688" lon="11.487530243695021"><ele>125.0</ele><time>2026-05-01T15:21:25Z</time></trkpt><trkpt lat="43.6164395777101" lon="11.487737069823968"><ele>124.5</ele><time>2026-05-01T15:21:26Z</time></trkpt><trkpt lat="43.616203486092694" lon="11.487944283672354"><ele>124.0</ele><time>2026-05-01T15:21:27Z</time></trkpt><trkpt lat="43.61596402776154" lon="11.488148446606184"><ele>125.0</ele><time>2026-05-01T15:21:28Z</time></trkpt><trkpt lat="43.61573059361328" lon="11.488353517464294"><ele>126.0</ele><time>2026-05-01T15:21:29Z</time></trkpt><trkpt lat="43.61549975013948" lon="11.488561380873684"><ele>125.0</ele><time>2026-05-01T15:21:30Z</time></trkpt><trkpt lat="43.615269041493946" lon="11.488763585584698"><ele>124.0</ele><time>2026-05-01T15:21:31Z</time></trkpt><trkpt lat="43.61504115350123" lon="11.488969595235218"><ele>124.0</ele><time>2026-05-01T15:21:32Z</time></trkpt><trkpt lat="43.61481400351614" lon="11.48916214872272"><ele>124.0</ele><time>2026-05-01T15:21:33Z</time></trkpt><trkpt lat="43.614585439377" lon="11.48936336361152"><ele>124.0</ele><time>2026-05-01T15:21:34Z</time></trkpt><trkpt lat="43.614360127328155" lon="11.489563872107576"><ele>124.0</ele><time>2026-05-01T15:21:35Z</time></trkpt><trkpt lat="43.614134440917425" lon="11.489765058588198"><ele>124.0</ele><time>2026-05-01T15:21:36Z</time></trkpt><trkpt lat="43.61390905669435" lon="11.489968582421856"><ele>124.0</ele><time>2026-05-01T15:21:37Z</time></trkpt><trkpt lat="43.61368096609852" lon="11.490169679432162"><ele>123.0</ele><time>2026-05-01T15:21:38Z</time></trkpt><trkpt lat="43.61345961626085" lon="11.490369356410618"><ele>122.0</ele><time>2026-05-01T15:21:39Z</time></trkpt><trkpt lat="43.613236231320684" lon="11.49056067964728"><ele>123.0</ele><time>2026-05-01T15:21:40Z</time></trkpt><trkpt lat="43.613011181010144" lon="11.49075682501067"><ele>124.0</ele><time>2026-05-01T15:21:41Z</time></trkpt><trkpt lat="43.612790948206055" lon="11.490955281876417"><ele>124.0</ele><time>2026-05-01T15:21:42Z</time></trkpt><trkpt lat="43.61256728927426" lon="11.491154760958043"><ele>124.0</ele><time>2026-05-01T15:21:43Z</time></trkpt><trkpt lat="43.612342978855864" lon="11.491354117509776"><ele>123.5</ele><time>2026-05-01T15:21:44Z</time></trkpt><trkpt lat="43.61211595091521" lon="11.49155304402677"><ele>123.0</ele><time>2026-05-01T15:21:45Z</time></trkpt><trkpt lat="43.61188988010809" lon="11.491754786368036"><ele>123.0</ele><time>2026-05-01T15:21:46Z</time></trkpt><trkpt lat="43.61166137725827" lon="11.491956779952789"><ele>123.0</ele><time>2026-05-01T15:21:47Z</time></trkpt><trkpt lat="43.61143375534854" lon="11.492158898231331"><ele>123.0</ele><time>2026-05-01T15:21:48Z</time></trkpt><trkpt lat="43.61120551633344" lon="11.492355946695668"><ele>123.0</ele><time>2026-05-01T15:21:49Z</time></trkpt><trkpt lat="43.61098198682174" lon="11.492556161476822"><ele>123.0</ele><time>2026-05-01T15:21:50Z</time></trkpt><trkpt lat="43.61075616816269" lon="11.492762510777656"><ele>123.0</ele><time>2026-05-01T15:21:51Z</time></trkpt><trkpt lat="43.61052617903972" lon="11.492964535669561"><ele>123.5</ele><time>2026-05-01T15:21:52Z</time></trkpt><trkpt lat="43.61030225833681" lon="11.493170283385789"><ele>124.0</ele><time>2026-05-01T15:21:53Z</time></trkpt><trkpt lat="43.610074735883146" lon="11.49337138724222"><ele>124.0</ele><time>2026-05-01T15:21:54Z</time></trkpt><trkpt lat="43.60984617986561" lon="11.493575231366748"><ele>124.0</ele><time>2026-05-01T15:21:55Z</time></trkpt><trkpt lat="43.60962133327245" lon="11.493774849346757"><ele>124.0</ele><time>2026-05-01T15:21:55.999Z</time></trkpt><trkpt lat="43.60939486223112" lon="11.493974056938693"><ele>124.0</ele><time>2026-05-01T15:21:56.999Z</time></trkpt><trkpt lat="43.60916825385535" lon="11.494171342717674"><ele>124.0</ele><time>2026-05-01T15:21:57.999Z</time></trkpt><trkpt lat="43.60894473443594" lon="11.494367545437715"><ele>124.0</ele><time>2026-05-01T15:21:58.999Z</time></trkpt><trkpt lat="43.60872284895742" lon="11.494562979577447"><ele>124.5</ele><time>2026-05-01T15:21:59.999Z</time></trkpt><trkpt lat="43.60849797793035" lon="11.494757288934345"><ele>125.0</ele><time>2026-05-01T15:22:00.999Z</time></trkpt><trkpt lat="43.60827854706222" lon="11.494948064095011"><ele>125.0</ele><time>2026-05-01T15:22:01.999Z</time></trkpt><trkpt lat="43.60805747997543" lon="11.495141760081362"><ele>125.0</ele><time>2026-05-01T15:22:02.999Z</time></trkpt><trkpt lat="43.60783867609826" lon="11.495337888074284"><ele>125.0</ele><time>2026-05-01T15:22:03.999Z</time></trkpt><trkpt lat="43.607622499409786" lon="11.495530214165546"><ele>125.0</ele><time>2026-05-01T15:22:04.999Z</time></trkpt><trkpt lat="43.60740749746423" lon="11.49572051109057"><ele>125.0</ele><time>2026-05-01T15:22:05.999Z</time></trkpt><trkpt lat="43.607190323460365" lon="11.495912011720772"><ele>125.0</ele><time>2026-05-01T15:22:06.999Z</time></trkpt><trkpt lat="43.606977038714945" lon="11.496100990061947"><ele>125.5</ele><time>2026-05-01T15:22:07.999Z</time></trkpt><trkpt lat="43.60675977892757" lon="11.496293089902654"><ele>126.0</ele><time>2026-05-01T15:22:08.999Z</time></trkpt><trkpt lat="43.606541413625024" lon="11.496482115580402"><ele>126.0</ele><time>2026-05-01T15:22:09.999Z</time></trkpt><trkpt lat="43.606326270049266" lon="11.49667700735307"><ele>126.0</ele><time>2026-05-01T15:22:10.999Z</time></trkpt><trkpt lat="43.606106810675556" lon="11.496869860060423"><ele>126.0</ele><time>2026-05-01T15:22:11.999Z</time></trkpt><trkpt lat="43.6058886320169" lon="11.497060935126287"><ele>126.0</ele><time>2026-05-01T15:22:12.999Z</time></trkpt><trkpt lat="43.60566978953666" lon="11.497253340926324"><ele>126.0</ele><time>2026-05-01T15:22:13.999Z</time></trkpt><trkpt lat="43.6054529844382" lon="11.497448460981188"><ele>126.0</ele><time>2026-05-01T15:22:14.999Z</time></trkpt><trkpt lat="43.60500292839514" lon="11.497856784870917"><ele>126.5</ele><time>2026-05-01T15:22:16.999Z</time></trkpt><trkpt lat="43.604795047124036" lon="11.498034230336014"><ele>127.0</ele><time>2026-05-01T15:22:17.999Z</time></trkpt><trkpt lat="43.604575214891675" lon="11.498230108809741"><ele>125.5</ele><time>2026-05-01T15:22:18.999Z</time></trkpt><trkpt lat="43.60435356210843" lon="11.498427484314176"><ele>124.0</ele><time>2026-05-01T15:22:19.999Z</time></trkpt><trkpt lat="43.60413133024601" lon="11.49862187955475"><ele>125.5</ele><time>2026-05-01T15:22:20.999Z</time></trkpt><trkpt lat="43.60390917746418" lon="11.498818318858834"><ele>127.0</ele><time>2026-05-01T15:22:21.999Z</time></trkpt><trkpt lat="43.60368756090857" lon="11.49901352337762"><ele>126.5</ele><time>2026-05-01T15:22:22.999Z</time></trkpt><trkpt lat="43.603466708957555" lon="11.499207945785196"><ele>126.0</ele><time>2026-05-01T15:22:23.999Z</time></trkpt><trkpt lat="43.603245498271136" lon="11.499402583689795"><ele>127.0</ele><time>2026-05-01T15:22:24.999Z</time></trkpt><trkpt lat="43.603024447614665" lon="11.499598378118195"><ele>128.0</ele><time>2026-05-01T15:22:25.999Z</time></trkpt><trkpt lat="43.60280162096093" lon="11.499796229856328"><ele>126.0</ele><time>2026-05-01T15:22:26.999Z</time></trkpt><trkpt lat="43.60257843076492" lon="11.499995163855303"><ele>124.0</ele><time>2026-05-01T15:22:27.999Z</time></trkpt><trkpt lat="43.60235419582681" lon="11.500196235831824"><ele>124.0</ele><time>2026-05-01T15:22:28.999Z</time></trkpt><trkpt lat="43.60212940470963" lon="11.500399080923774"><ele>124.0</ele><time>2026-05-01T15:22:29.999Z</time></trkpt><trkpt lat="43.601906090161" lon="11.500604303682715"><ele>123.5</ele><time>2026-05-01T15:22:30.999Z</time></trkpt><trkpt lat="43.601683675807365" lon="11.500813001885039"><ele>123.0</ele><time>2026-05-01T15:22:31.999Z</time></trkpt><trkpt lat="43.60146275065931" lon="11.501025076102737"><ele>123.0</ele><time>2026-05-01T15:22:32.999Z</time></trkpt><trkpt lat="43.60124225978524" lon="11.5012368461241"><ele>123.0</ele><time>2026-05-01T15:22:33.999Z</time></trkpt><trkpt lat="43.601019751966916" lon="11.50145268424534"><ele>124.0</ele><time>2026-05-01T15:22:34.999Z</time></trkpt><trkpt lat="43.600797176703594" lon="11.501671479383484"><ele>125.0</ele><time>2026-05-01T15:22:35.999Z</time></trkpt><trkpt lat="43.600576658918335" lon="11.501892195375202"><ele>124.5</ele><time>2026-05-01T15:22:36.999Z</time></trkpt><trkpt lat="43.600354848122095" lon="11.502122210110718"><ele>124.0</ele><time>2026-05-01T15:22:37.999Z</time></trkpt><trkpt lat="43.60013071692728" lon="11.502352957145089"><ele>124.0</ele><time>2026-05-01T15:22:38.999Z</time></trkpt><trkpt lat="43.59990796830278" lon="11.502592231937793"><ele>124.0</ele><time>2026-05-01T15:22:39.999Z</time></trkpt><trkpt lat="43.599681397242726" lon="11.502834773940966"><ele>124.5</ele><time>2026-05-01T15:22:40.999Z</time></trkpt><trkpt lat="43.599456006711364" lon="11.50308142861604"><ele>125.0</ele><time>2026-05-01T15:22:41.999Z</time></trkpt><trkpt lat="43.599232518954125" lon="11.503325827548196"><ele>125.0</ele><time>2026-05-01T15:22:42.999Z</time></trkpt><trkpt lat="43.59900986199873" lon="11.503571736899207"><ele>125.0</ele><time>2026-05-01T15:22:43.999Z</time></trkpt><trkpt lat="43.59878290768224" lon="11.503819401970302"><ele>125.5</ele><time>2026-05-01T15:22:44.999Z</time></trkpt><trkpt lat="43.59855729486548" lon="11.504068958102572"><ele>126.0</ele><time>2026-05-01T15:22:45.999Z</time></trkpt><trkpt lat="43.59833204384895" lon="11.504315867576901"><ele>126.0</ele><time>2026-05-01T15:22:46.999Z</time></trkpt><trkpt lat="43.598102636213746" lon="11.504568271488278"><ele>126.0</ele><time>2026-05-01T15:22:47.999Z</time></trkpt><trkpt lat="43.59787579090897" lon="11.504820283380825"><ele>126.5</ele><time>2026-05-01T15:22:48.999Z</time></trkpt><trkpt lat="43.59764830103943" lon="11.505071645850254"><ele>127.0</ele><time>2026-05-01T15:22:49.999Z</time></trkpt><trkpt lat="43.59741759479175" lon="11.505325969503627"><ele>126.5</ele><time>2026-05-01T15:22:50.999Z</time></trkpt><trkpt lat="43.59718692135426" lon="11.50558124524238"><ele>126.0</ele><time>2026-05-01T15:22:51.999Z</time></trkpt><trkpt lat="43.596955343705936" lon="11.505836105715936"><ele>126.0</ele><time>2026-05-01T15:22:53Z</time></trkpt><trkpt lat="43.59672511398888" lon="11.506087139169248"><ele>126.0</ele><time>2026-05-01T15:22:54Z</time></trkpt><trkpt lat="43.59649301462567" lon="11.506340999245362"><ele>126.0</ele><time>2026-05-01T15:22:55Z</time></trkpt><trkpt lat="43.59626254122622" lon="11.506596749458632"><ele>126.0</ele><time>2026-05-01T15:22:56Z</time></trkpt><trkpt lat="43.596030982430435" lon="11.506854089933466"><ele>128.0</ele><time>2026-05-01T15:22:57Z</time></trkpt><trkpt lat="43.59579775757585" lon="11.507111661536879"><ele>130.0</ele><time>2026-05-01T15:22:58Z</time></trkpt><trkpt lat="43.59556571010143" lon="11.50736520046337"><ele>128.0</ele><time>2026-05-01T15:22:59Z</time></trkpt><trkpt lat="43.59533167319268" lon="11.507618518083609"><ele>126.0</ele><time>2026-05-01T15:23:00Z</time></trkpt><trkpt lat="43.5950983050784" lon="11.507875526648553"><ele>128.0</ele><time>2026-05-01T15:23:01Z</time></trkpt><trkpt lat="43.594865684121544" lon="11.508132689203105"><ele>130.0</ele><time>2026-05-01T15:23:02Z</time></trkpt><trkpt lat="43.59463254073917" lon="11.508391114542402"><ele>129.5</ele><time>2026-05-01T15:23:03Z</time></trkpt><trkpt lat="43.594397754700026" lon="11.508650133378362"><ele>129.0</ele><time>2026-05-01T15:23:04Z</time></trkpt><trkpt lat="43.59416329091572" lon="11.50890670921116"><ele>129.0</ele><time>2026-05-01T15:23:05Z</time></trkpt><trkpt lat="43.593928523487044" lon="11.509165376204065"><ele>129.0</ele><time>2026-05-01T15:23:06Z</time></trkpt><trkpt lat="43.59369371676463" lon="11.509424665637788"><ele>129.0</ele><time>2026-05-01T15:23:07Z</time></trkpt><trkpt lat="43.59345829939885" lon="11.509684094356409"><ele>129.0</ele><time>2026-05-01T15:23:08Z</time></trkpt><trkpt lat="43.593223229177504" lon="11.509944116676579"><ele>129.0</ele><time>2026-05-01T15:23:09Z</time></trkpt><trkpt lat="43.59298982988799" lon="11.51020038964829"><ele>129.0</ele><time>2026-05-01T15:23:10Z</time></trkpt><trkpt lat="43.59275653338353" lon="11.510455465960655"><ele>128.5</ele><time>2026-05-01T15:23:11Z</time></trkpt><trkpt lat="43.59252288340549" lon="11.510711871164403"><ele>128.0</ele><time>2026-05-01T15:23:12Z</time></trkpt><trkpt lat="43.59228963537334" lon="11.510966380984732"><ele>128.0</ele><time>2026-05-01T15:23:13Z</time></trkpt><trkpt lat="43.59205845069677" lon="11.51122008761073"><ele>128.0</ele><time>2026-05-01T15:23:14Z</time></trkpt><trkpt lat="43.59182784285544" lon="11.511474779649276"><ele>128.0</ele><time>2026-05-01T15:23:15Z</time></trkpt><trkpt lat="43.591597124091535" lon="11.511729043324923"><ele>128.0</ele><time>2026-05-01T15:23:16Z</time></trkpt><trkpt lat="43.59136785256151" lon="11.51198176462359"><ele>128.0</ele><time>2026-05-01T15:23:17Z</time></trkpt><trkpt lat="43.59114053022179" lon="11.512234304982485"><ele>128.0</ele><time>2026-05-01T15:23:18Z</time></trkpt><trkpt lat="43.59091271245347" lon="11.512488599801546"><ele>128.0</ele><time>2026-05-01T15:23:19Z</time></trkpt><trkpt lat="43.59068479263155" lon="11.5127393139637"><ele>128.0</ele><time>2026-05-01T15:23:20Z</time></trkpt><trkpt lat="43.59045774647991" lon="11.51298706059477"><ele>128.5</ele><time>2026-05-01T15:23:21Z</time></trkpt><trkpt lat="43.59023205689783" lon="11.513232557036813"><ele>129.0</ele><time>2026-05-01T15:23:22Z</time></trkpt><trkpt lat="43.590007743049796" lon="11.513479487965762"><ele>129.0</ele><time>2026-05-01T15:23:23Z</time></trkpt><trkpt lat="43.589784146237974" lon="11.51372671769205"><ele>129.0</ele><time>2026-05-01T15:23:24Z</time></trkpt><trkpt lat="43.58956124791327" lon="11.513974710272295"><ele>129.0</ele><time>2026-05-01T15:23:25Z</time></trkpt><trkpt lat="43.589340269143484" lon="11.514220630541457"><ele>129.0</ele><time>2026-05-01T15:23:26Z</time></trkpt><trkpt lat="43.58911927888939" lon="11.514463748355592"><ele>130.0</ele><time>2026-05-01T15:23:27Z</time></trkpt><trkpt lat="43.58889872619988" lon="11.514705698218721"><ele>131.0</ele><time>2026-05-01T15:23:28Z</time></trkpt><trkpt lat="43.58867706770622" lon="11.514948246858804"><ele>131.0</ele><time>2026-05-01T15:23:29Z</time></trkpt><trkpt lat="43.58845506878179" lon="11.51518981116665"><ele>131.0</ele><time>2026-05-01T15:23:30Z</time></trkpt><trkpt lat="43.58823235158691" lon="11.515432556562386"><ele>131.0</ele><time>2026-05-01T15:23:31Z</time></trkpt><trkpt lat="43.58800967497404" lon="11.515675872531318"><ele>131.0</ele><time>2026-05-01T15:23:32Z</time></trkpt><trkpt lat="43.58778775957132" lon="11.515920875549217"><ele>131.0</ele><time>2026-05-01T15:23:33Z</time></trkpt><trkpt lat="43.5875665462291" lon="11.516161897183485"><ele>131.0</ele><time>2026-05-01T15:23:34Z</time></trkpt><trkpt lat="43.58734421279279" lon="11.516405631805931"><ele>131.0</ele><time>2026-05-01T15:23:35Z</time></trkpt><trkpt lat="43.58712324329016" lon="11.516649980152325"><ele>131.0</ele><time>2026-05-01T15:23:36Z</time></trkpt><trkpt lat="43.58690326813951" lon="11.516895618734424"><ele>130.0</ele><time>2026-05-01T15:23:37Z</time></trkpt><trkpt lat="43.58668271831892" lon="11.517140264189921"><ele>129.0</ele><time>2026-05-01T15:23:38Z</time></trkpt><trkpt lat="43.58646176099466" lon="11.517383397217207"><ele>129.0</ele><time>2026-05-01T15:23:39Z</time></trkpt><trkpt lat="43.58624108380101" lon="11.517624952478762"><ele>129.0</ele><time>2026-05-01T15:23:40Z</time></trkpt><trkpt lat="43.586021762680716" lon="11.517868727178527"><ele>129.5</ele><time>2026-05-01T15:23:41Z</time></trkpt><trkpt lat="43.58580210650541" lon="11.518111846226791"><ele>130.0</ele><time>2026-05-01T15:23:42Z</time></trkpt><trkpt lat="43.58558105416764" lon="11.518354199821061"><ele>130.0</ele><time>2026-05-01T15:23:43Z</time></trkpt><trkpt lat="43.585359900071104" lon="11.51859324004035"><ele>130.0</ele><time>2026-05-01T15:23:44Z</time></trkpt><trkpt lat="43.58513812333325" lon="11.518832608470111"><ele>130.0</ele><time>2026-05-01T15:23:45Z</time></trkpt><trkpt lat="43.58491713281551" lon="11.519076333259733"><ele>130.0</ele><time>2026-05-01T15:23:46Z</time></trkpt><trkpt lat="43.58469448030793" lon="11.51932463147614"><ele>130.0</ele><time>2026-05-01T15:23:47Z</time></trkpt><trkpt lat="43.584471774760786" lon="11.519567401220744"><ele>130.0</ele><time>2026-05-01T15:23:48Z</time></trkpt><trkpt lat="43.58425042746497" lon="11.519807460988893"><ele>130.0</ele><time>2026-05-01T15:23:49Z</time></trkpt><trkpt lat="43.58402962942249" lon="11.520046627183396"><ele>130.0</ele><time>2026-05-01T15:23:50Z</time></trkpt><trkpt lat="43.58380864260659" lon="11.520288909527904"><ele>129.0</ele><time>2026-05-01T15:23:51Z</time></trkpt><trkpt lat="43.58358600042806" lon="11.520536902697259"><ele>128.0</ele><time>2026-05-01T15:23:52Z</time></trkpt><trkpt lat="43.58336263225251" lon="11.52078577603721"><ele>128.0</ele><time>2026-05-01T15:23:53Z</time></trkpt><trkpt lat="43.583139570323276" lon="11.521040470561156"><ele>128.0</ele><time>2026-05-01T15:23:54Z</time></trkpt><trkpt lat="43.58292236594803" lon="11.521303705876592"><ele>128.5</ele><time>2026-05-01T15:23:55Z</time></trkpt><trkpt lat="43.5827124731396" lon="11.52158213754886"><ele>129.0</ele><time>2026-05-01T15:23:55.999Z</time></trkpt><trkpt lat="43.58251486555346" lon="11.521872820187752"><ele>128.5</ele><time>2026-05-01T15:23:56.999Z</time></trkpt><trkpt lat="43.5823302195034" lon="11.522176527084984"><ele>128.0</ele><time>2026-05-01T15:23:57.999Z</time></trkpt><trkpt lat="43.58215922983729" lon="11.522490263076422"><ele>129.0</ele><time>2026-05-01T15:23:58.999Z</time></trkpt><trkpt lat="43.58199514272667" lon="11.522811670994157"><ele>130.0</ele><time>2026-05-01T15:23:59.999Z</time></trkpt><trkpt lat="43.581838266607775" lon="11.523136332731319"><ele>130.0</ele><time>2026-05-01T15:24:00.999Z</time></trkpt><trkpt lat="43.58168885829424" lon="11.523459183751836"><ele>130.0</ele><time>2026-05-01T15:24:01.999Z</time></trkpt><trkpt lat="43.58154377949556" lon="11.523790215264853"><ele>129.5</ele><time>2026-05-01T15:24:02.999Z</time></trkpt><trkpt lat="43.58140638034647" lon="11.524127270084621"><ele>129.0</ele><time>2026-05-01T15:24:03.999Z</time></trkpt><trkpt lat="43.58127550779817" lon="11.524469623690571"><ele>129.0</ele><time>2026-05-01T15:24:04.999Z</time></trkpt><trkpt lat="43.58115334873749" lon="11.524814031008722"><ele>129.0</ele><time>2026-05-01T15:24:05.999Z</time></trkpt><trkpt lat="43.58103808594619" lon="11.525161243049089"><ele>129.5</ele><time>2026-05-01T15:24:06.999Z</time></trkpt><trkpt lat="43.58092804988716" lon="11.52551087605766"><ele>130.0</ele><time>2026-05-01T15:24:07.999Z</time></trkpt><trkpt lat="43.58081990742754" lon="11.525862144176974"><ele>130.0</ele><time>2026-05-01T15:24:08.999Z</time></trkpt><trkpt lat="43.58071283168415" lon="11.526215973732041"><ele>130.0</ele><time>2026-05-01T15:24:09.999Z</time></trkpt><trkpt lat="43.580602847033354" lon="11.526568693634262"><ele>130.0</ele><time>2026-05-01T15:24:10.999Z</time></trkpt><trkpt lat="43.58049162354196" lon="11.526921058164408"><ele>130.0</ele><time>2026-05-01T15:24:11.999Z</time></trkpt><trkpt lat="43.58037991336339" lon="11.527275277060841"><ele>130.0</ele><time>2026-05-01T15:24:12.999Z</time></trkpt><trkpt lat="43.580264529329554" lon="11.527630274679675"><ele>130.0</ele><time>2026-05-01T15:24:13.999Z</time></trkpt><trkpt lat="43.58014262976743" lon="11.52797727283"><ele>130.0</ele><time>2026-05-01T15:24:14.999Z</time></trkpt><trkpt lat="43.580012620999966" lon="11.5283230659113"><ele>130.0</ele><time>2026-05-01T15:24:15.999Z</time></trkpt><trkpt lat="43.57987449249033" lon="11.528669436570281"><ele>130.0</ele><time>2026-05-01T15:24:16.999Z</time></trkpt><trkpt lat="43.57972988533838" lon="11.52901050961648"><ele>130.0</ele><time>2026-05-01T15:24:17.999Z</time></trkpt><trkpt lat="43.579577472265676" lon="11.529349037944042"><ele>130.0</ele><time>2026-05-01T15:24:18.999Z</time></trkpt><trkpt lat="43.57941842671866" lon="11.529682294410412"><ele>130.0</ele><time>2026-05-01T15:24:19.999Z</time></trkpt><trkpt lat="43.57925372301226" lon="11.530011568710828"><ele>130.0</ele><time>2026-05-01T15:24:20.999Z</time></trkpt><trkpt lat="43.57908322896322" lon="11.530333229704354"><ele>130.0</ele><time>2026-05-01T15:24:21.999Z</time></trkpt><trkpt lat="43.57890534693337" lon="11.5306481677008"><ele>131.0</ele><time>2026-05-01T15:24:22.999Z</time></trkpt><trkpt lat="43.57871998891601" lon="11.530956537442407"><ele>132.0</ele><time>2026-05-01T15:24:23.999Z</time></trkpt><trkpt lat="43.578532105033645" lon="11.531256521998534"><ele>132.0</ele><time>2026-05-01T15:24:24.999Z</time></trkpt><trkpt lat="43.57833972711391" lon="11.531552182431241"><ele>132.0</ele><time>2026-05-01T15:24:25.999Z</time></trkpt><trkpt lat="43.57814490208636" lon="11.531842958670468"><ele>132.5</ele><time>2026-05-01T15:24:26.999Z</time></trkpt><trkpt lat="43.57794883768285" lon="11.532132512746351"><ele>133.0</ele><time>2026-05-01T15:24:27.999Z</time></trkpt><trkpt lat="43.57775086555122" lon="11.532419539772178"><ele>133.0</ele><time>2026-05-01T15:24:28.999Z</time></trkpt><trkpt lat="43.577552468259604" lon="11.53270571142079"><ele>133.0</ele><time>2026-05-01T15:24:29.999Z</time></trkpt><trkpt lat="43.577354462587714" lon="11.532994348046145"><ele>133.5</ele><time>2026-05-01T15:24:30.999Z</time></trkpt><trkpt lat="43.577155786723615" lon="11.533281031807782"><ele>134.0</ele><time>2026-05-01T15:24:31.999Z</time></trkpt><trkpt lat="43.576956988794116" lon="11.53357048146251"><ele>134.5</ele><time>2026-05-01T15:24:32.999Z</time></trkpt><trkpt lat="43.57675785422008" lon="11.533862202000394"><ele>135.0</ele><time>2026-05-01T15:24:33.999Z</time></trkpt><trkpt lat="43.57655622550583" lon="11.534154470156391"><ele>135.0</ele><time>2026-05-01T15:24:34.999Z</time></trkpt><trkpt lat="43.576356048497786" lon="11.534439573919814"><ele>135.0</ele><time>2026-05-01T15:24:35.999Z</time></trkpt><trkpt lat="43.57615582889474" lon="11.53472694478394"><ele>134.0</ele><time>2026-05-01T15:24:36.999Z</time></trkpt><trkpt lat="43.57595526555255" lon="11.535018104281939"><ele>133.0</ele><time>2026-05-01T15:24:37.999Z</time></trkpt><trkpt lat="43.57575575326051" lon="11.5353083636775"><ele>134.5</ele><time>2026-05-01T15:24:38.999Z</time></trkpt><trkpt lat="43.57555638532779" lon="11.53559570563213"><ele>136.0</ele><time>2026-05-01T15:24:39.999Z</time></trkpt><trkpt lat="43.57535942225354" lon="11.535881583009617"><ele>136.0</ele><time>2026-05-01T15:24:40.999Z</time></trkpt><trkpt lat="43.57516308287718" lon="11.536166581095113"><ele>136.0</ele><time>2026-05-01T15:24:41.999Z</time></trkpt><trkpt lat="43.574967342688424" lon="11.536448780608334"><ele>136.0</ele><time>2026-05-01T15:24:42.999Z</time></trkpt><trkpt lat="43.57476985390786" lon="11.536730648608607"><ele>136.0</ele><time>2026-05-01T15:24:43.999Z</time></trkpt><trkpt lat="43.57457419532043" lon="11.537016094460185"><ele>135.5</ele><time>2026-05-01T15:24:44.999Z</time></trkpt><trkpt lat="43.574376914416675" lon="11.537302069883607"><ele>135.0</ele><time>2026-05-01T15:24:45.999Z</time></trkpt><trkpt lat="43.57417828413827" lon="11.537586190606081"><ele>135.0</ele><time>2026-05-01T15:24:46.999Z</time></trkpt><trkpt lat="43.57397699679685" lon="11.537872583992291"><ele>135.0</ele><time>2026-05-01T15:24:47.999Z</time></trkpt><trkpt lat="43.573774879679355" lon="11.5381581740751"><ele>134.5</ele><time>2026-05-01T15:24:48.999Z</time></trkpt><trkpt lat="43.57356891827095" lon="11.538438382231652"><ele>134.0</ele><time>2026-05-01T15:24:49.999Z</time></trkpt><trkpt lat="43.57335928412633" lon="11.538715340953413"><ele>134.5</ele><time>2026-05-01T15:24:50.999Z</time></trkpt><trkpt lat="43.57314499326231" lon="11.538987202043485"><ele>135.0</ele><time>2026-05-01T15:24:51.999Z</time></trkpt><trkpt lat="43.57292535851624" lon="11.539257952263025"><ele>135.5</ele><time>2026-05-01T15:24:52.999Z</time></trkpt><trkpt lat="43.5727027928861" lon="11.539524629105154"><ele>136.0</ele><time>2026-05-01T15:24:53.999Z</time></trkpt><trkpt lat="43.572476885844964" lon="11.539787618905965"><ele>136.0</ele><time>2026-05-01T15:24:54.999Z</time></trkpt><trkpt lat="43.572246116594734" lon="11.540047084418065"><ele>136.0</ele><time>2026-05-01T15:24:55.999Z</time></trkpt><trkpt lat="43.57201223333347" lon="11.540298726178738"><ele>137.0</ele><time>2026-05-01T15:24:56.999Z</time></trkpt><trkpt lat="43.571775092365286" lon="11.540541969208997"><ele>138.0</ele><time>2026-05-01T15:24:57.999Z</time></trkpt><trkpt lat="43.571531691989925" lon="11.54077672087198"><ele>138.0</ele><time>2026-05-01T15:24:59Z</time></trkpt><trkpt lat="43.57128498767577" lon="11.540998113733368"><ele>138.0</ele><time>2026-05-01T15:25:00Z</time></trkpt><trkpt lat="43.5710336188898" lon="11.541209458104564"><ele>138.0</ele><time>2026-05-01T15:25:01Z</time></trkpt><trkpt lat="43.57077933848342" lon="11.541410371930398"><ele>138.0</ele><time>2026-05-01T15:25:02Z</time></trkpt><trkpt lat="43.570522388672906" lon="11.541601619897113"><ele>137.0</ele><time>2026-05-01T15:25:03Z</time></trkpt><trkpt lat="43.57026293070986" lon="11.541779614641847"><ele>136.0</ele><time>2026-05-01T15:25:04Z</time></trkpt><trkpt lat="43.56999785062796" lon="11.541943431684963"><ele>136.0</ele><time>2026-05-01T15:25:05Z</time></trkpt><trkpt lat="43.569728253223616" lon="11.542092565288465"><ele>136.0</ele><time>2026-05-01T15:25:06Z</time></trkpt><trkpt lat="43.56945514132701" lon="11.542227654006908"><ele>136.0</ele><time>2026-05-01T15:25:07Z</time></trkpt><trkpt lat="43.569177142660166" lon="11.54234786605262"><ele>136.0</ele><time>2026-05-01T15:25:08Z</time></trkpt><trkpt lat="43.56889844768421" lon="11.54244653036909"><ele>136.5</ele><time>2026-05-01T15:25:09Z</time></trkpt><trkpt lat="43.568616580256155" lon="11.542531603761827"><ele>137.0</ele><time>2026-05-01T15:25:10Z</time></trkpt><trkpt lat="43.56833207620332" lon="11.542599577623784"><ele>137.0</ele><time>2026-05-01T15:25:11Z</time></trkpt><trkpt lat="43.5680457576651" lon="11.542653726975539"><ele>137.0</ele><time>2026-05-01T15:25:12Z</time></trkpt><trkpt lat="43.567758076571614" lon="11.542692020186674"><ele>136.5</ele><time>2026-05-01T15:25:13Z</time></trkpt><trkpt lat="43.56747055177015" lon="11.542717262589054"><ele>136.0</ele><time>2026-05-01T15:25:14Z</time></trkpt><trkpt lat="43.56718274121727" lon="11.542730522272597"><ele>136.0</ele><time>2026-05-01T15:25:15Z</time></trkpt><trkpt lat="43.5668945842219" lon="11.54273459306163"><ele>136.0</ele><time>2026-05-01T15:25:16Z</time></trkpt><trkpt lat="43.566607582330896" lon="11.542727382885017"><ele>136.0</ele><time>2026-05-01T15:25:17Z</time></trkpt><trkpt lat="43.5663212781066" lon="11.542707087374119"><ele>136.0</ele><time>2026-05-01T15:25:18Z</time></trkpt><trkpt lat="43.56603407800678" lon="11.542678930695022"><ele>136.0</ele><time>2026-05-01T15:25:19Z</time></trkpt><trkpt lat="43.56574607555738" lon="11.542647169779071"><ele>136.0</ele><time>2026-05-01T15:25:20Z</time></trkpt><trkpt lat="43.56545813184869" lon="11.54261472262149"><ele>135.5</ele><time>2026-05-01T15:25:21Z</time></trkpt><trkpt lat="43.565167610973546" lon="11.542583005561118"><ele>135.0</ele><time>2026-05-01T15:25:22Z</time></trkpt><trkpt lat="43.56487791820978" lon="11.542553475311014"><ele>135.0</ele><time>2026-05-01T15:25:23Z</time></trkpt><trkpt lat="43.564588606222344" lon="11.542527221673852"><ele>135.0</ele><time>2026-05-01T15:25:24Z</time></trkpt><trkpt lat="43.56429816284516" lon="11.542496725627524"><ele>135.0</ele><time>2026-05-01T15:25:25Z</time></trkpt><trkpt lat="43.56400825971752" lon="11.542463223872167"><ele>135.0</ele><time>2026-05-01T15:25:26Z</time></trkpt><trkpt lat="43.563718431807416" lon="11.54243247449637"><ele>135.5</ele><time>2026-05-01T15:25:27Z</time></trkpt><trkpt lat="43.56342790686406" lon="11.542405814301066"><ele>136.0</ele><time>2026-05-01T15:25:28Z</time></trkpt><trkpt lat="43.563136339972345" lon="11.542379618394111"><ele>135.5</ele><time>2026-05-01T15:25:29Z</time></trkpt><trkpt lat="43.562846339602615" lon="11.542353795039125"><ele>135.0</ele><time>2026-05-01T15:25:30Z</time></trkpt><trkpt lat="43.562556302953325" lon="11.542326021841049"><ele>135.0</ele><time>2026-05-01T15:25:31Z</time></trkpt><trkpt lat="43.562267088087" lon="11.54229668592453"><ele>135.0</ele><time>2026-05-01T15:25:32Z</time></trkpt><trkpt lat="43.561981138287926" lon="11.542265536560043"><ele>135.0</ele><time>2026-05-01T15:25:33Z</time></trkpt><trkpt lat="43.5616965358551" lon="11.542234257776903"><ele>135.0</ele><time>2026-05-01T15:25:34Z</time></trkpt><trkpt lat="43.56141429940864" lon="11.542204875943673"><ele>134.5</ele><time>2026-05-01T15:25:35Z</time></trkpt><trkpt lat="43.56113231480331" lon="11.542172923349895"><ele>134.0</ele><time>2026-05-01T15:25:36Z</time></trkpt><trkpt lat="43.560850934124815" lon="11.542138462883058"><ele>134.0</ele><time>2026-05-01T15:25:37Z</time></trkpt><trkpt lat="43.560569687465076" lon="11.542103895134892"><ele>134.0</ele><time>2026-05-01T15:25:38Z</time></trkpt><trkpt lat="43.560291026890795" lon="11.542071078777257"><ele>134.5</ele><time>2026-05-01T15:25:39Z</time></trkpt><trkpt lat="43.560012457547046" lon="11.542051966619328"><ele>135.0</ele><time>2026-05-01T15:25:40Z</time></trkpt><trkpt lat="43.559734721075955" lon="11.54206354057097"><ele>136.0</ele><time>2026-05-01T15:25:41Z</time></trkpt><trkpt lat="43.55945838651138" lon="11.542106759488389"><ele>137.0</ele><time>2026-05-01T15:25:42Z</time></trkpt><trkpt lat="43.559184729175996" lon="11.542173476748655"><ele>137.0</ele><time>2026-05-01T15:25:43Z</time></trkpt><trkpt lat="43.558915715059904" lon="11.542268453546106"><ele>137.0</ele><time>2026-05-01T15:25:44Z</time></trkpt><trkpt lat="43.55865198023007" lon="11.542394397497857"><ele>136.5</ele><time>2026-05-01T15:25:45Z</time></trkpt><trkpt lat="43.55839875454881" lon="11.542546935605989"><ele>136.0</ele><time>2026-05-01T15:25:46Z</time></trkpt><trkpt lat="43.558151801660934" lon="11.542727224995602"><ele>136.5</ele><time>2026-05-01T15:25:47Z</time></trkpt><trkpt lat="43.557917319260426" lon="11.542933015986195"><ele>137.0</ele><time>2026-05-01T15:25:48Z</time></trkpt><trkpt lat="43.55769572361651" lon="11.54316192357819"><ele>137.0</ele><time>2026-05-01T15:25:49Z</time></trkpt><trkpt lat="43.5574857361428" lon="11.543412404043764"><ele>137.0</ele><time>2026-05-01T15:25:50Z</time></trkpt><trkpt lat="43.55729154991959" lon="11.543684648836685"><ele>137.5</ele><time>2026-05-01T15:25:51Z</time></trkpt><trkpt lat="43.55710252242855" lon="11.543963274739644"><ele>138.0</ele><time>2026-05-01T15:25:51.999Z</time></trkpt><trkpt lat="43.55691525117223" lon="11.544244470109804"><ele>138.0</ele><time>2026-05-01T15:25:52.999Z</time></trkpt><trkpt lat="43.55672523349337" lon="11.544515608658957"><ele>138.0</ele><time>2026-05-01T15:25:53.999Z</time></trkpt><trkpt lat="43.556532019160116" lon="11.544784661387926"><ele>139.5</ele><time>2026-05-01T15:25:54.999Z</time></trkpt><trkpt lat="43.55633930389354" lon="11.545055400977695"><ele>141.0</ele><time>2026-05-01T15:25:55.999Z</time></trkpt><trkpt lat="43.556148688098766" lon="11.545329671928116"><ele>139.5</ele><time>2026-05-01T15:25:56.999Z</time></trkpt><trkpt lat="43.555962658317064" lon="11.545614007097084"><ele>138.0</ele><time>2026-05-01T15:25:57.999Z</time></trkpt><trkpt lat="43.555783720411824" lon="11.545906999060112"><ele>138.0</ele><time>2026-05-01T15:25:58.999Z</time></trkpt><trkpt lat="43.555610772232455" lon="11.546204805636826"><ele>138.0</ele><time>2026-05-01T15:25:59.999Z</time></trkpt><trkpt lat="43.55544288188564" lon="11.546509863592739"><ele>137.0</ele><time>2026-05-01T15:26:00.999Z</time></trkpt><trkpt lat="43.55527848423161" lon="11.546819757045244"><ele>136.0</ele><time>2026-05-01T15:26:01.999Z</time></trkpt><trkpt lat="43.55511852125798" lon="11.547126835192286"><ele>136.0</ele><time>2026-05-01T15:26:02.999Z</time></trkpt><trkpt lat="43.55495855458637" lon="11.547433052680828"><ele>136.0</ele><time>2026-05-01T15:26:03.999Z</time></trkpt><trkpt lat="43.55479843669074" lon="11.547736186294182"><ele>136.5</ele><time>2026-05-01T15:26:04.999Z</time></trkpt><trkpt lat="43.55463854343909" lon="11.548032209853098"><ele>137.0</ele><time>2026-05-01T15:26:05.999Z</time></trkpt><trkpt lat="43.55447997637194" lon="11.548324292224812"><ele>135.5</ele><time>2026-05-01T15:26:06.999Z</time></trkpt><trkpt lat="43.55432257499169" lon="11.548616696205547"><ele>134.0</ele><time>2026-05-01T15:26:07.999Z</time></trkpt><trkpt lat="43.55416261928072" lon="11.548905435210171"><ele>134.0</ele><time>2026-05-01T15:26:08.999Z</time></trkpt><trkpt lat="43.55399822721407" lon="11.549188384073965"><ele>134.0</ele><time>2026-05-01T15:26:09.999Z</time></trkpt><trkpt lat="43.55383393202249" lon="11.549474302846795"><ele>134.0</ele><time>2026-05-01T15:26:10.999Z</time></trkpt><trkpt lat="43.55367074606499" lon="11.549762265225473"><ele>134.0</ele><time>2026-05-01T15:26:11.999Z</time></trkpt><trkpt lat="43.55350662043442" lon="11.550046770763585"><ele>134.0</ele><time>2026-05-01T15:26:12.999Z</time></trkpt><trkpt lat="43.553339107752535" lon="11.550329886276714"><ele>134.0</ele><time>2026-05-01T15:26:13.999Z</time></trkpt><trkpt lat="43.55317036944398" lon="11.550611058457712"><ele>134.0</ele><time>2026-05-01T15:26:14.999Z</time></trkpt><trkpt lat="43.55299872314549" lon="11.550893606835455"><ele>134.0</ele><time>2026-05-01T15:26:15.999Z</time></trkpt><trkpt lat="43.55282513304939" lon="11.551176391501299"><ele>134.5</ele><time>2026-05-01T15:26:16.999Z</time></trkpt><trkpt lat="43.55264875924367" lon="11.551459748620909"><ele>135.0</ele><time>2026-05-01T15:26:17.999Z</time></trkpt><trkpt lat="43.55246971488789" lon="11.55174012221674"><ele>135.0</ele><time>2026-05-01T15:26:18.999Z</time></trkpt><trkpt lat="43.55228614628307" lon="11.55201457132314"><ele>135.0</ele><time>2026-05-01T15:26:19.999Z</time></trkpt><trkpt lat="43.55209828330207" lon="11.5522880903832"><ele>135.0</ele><time>2026-05-01T15:26:20.999Z</time></trkpt><trkpt lat="43.55190895625405" lon="11.552565834927515"><ele>135.0</ele><time>2026-05-01T15:26:21.999Z</time></trkpt><trkpt lat="43.5517187442307" lon="11.552841473916446"><ele>136.5</ele><time>2026-05-01T15:26:22.999Z</time></trkpt><trkpt lat="43.55152842024298" lon="11.553116336355178"><ele>138.0</ele><time>2026-05-01T15:26:23.999Z</time></trkpt><trkpt lat="43.55133914889675" lon="11.553393396859295"><ele>138.0</ele><time>2026-05-01T15:26:24.999Z</time></trkpt><trkpt lat="43.55115010075396" lon="11.553670038725393"><ele>138.0</ele><time>2026-05-01T15:26:25.999Z</time></trkpt><trkpt lat="43.55096046212112" lon="11.553946306283866"><ele>138.0</ele><time>2026-05-01T15:26:26.999Z</time></trkpt><trkpt lat="43.55077151459737" lon="11.55422296386237"><ele>138.0</ele><time>2026-05-01T15:26:27.999Z</time></trkpt><trkpt lat="43.55058384967554" lon="11.554498639873783"><ele>138.0</ele><time>2026-05-01T15:26:28.999Z</time></trkpt><trkpt lat="43.55039587545405" lon="11.55477436339009"><ele>138.0</ele><time>2026-05-01T15:26:29.999Z</time></trkpt><trkpt lat="43.550208783704" lon="11.555046923799495"><ele>138.0</ele><time>2026-05-01T15:26:30.999Z</time></trkpt><trkpt lat="43.55002310590005" lon="11.555313419273842"><ele>138.0</ele><time>2026-05-01T15:26:31.999Z</time></trkpt><trkpt lat="43.54983596147602" lon="11.555574301438355"><ele>137.5</ele><time>2026-05-01T15:26:32.999Z</time></trkpt><trkpt lat="43.549652913408615" lon="11.555830743530167"><ele>137.0</ele><time>2026-05-01T15:26:33.999Z</time></trkpt><trkpt lat="43.54948195553088" lon="11.556072084796138"><ele>137.5</ele><time>2026-05-01T15:26:34.999Z</time></trkpt><trkpt lat="43.54932021577186" lon="11.556301315554398"><ele>138.0</ele><time>2026-05-01T15:26:35.999Z</time></trkpt><trkpt lat="43.5491663242326" lon="11.556518754255423"><ele>138.0</ele><time>2026-05-01T15:26:36.999Z</time></trkpt><trkpt lat="43.54901897596721" lon="11.556727531842565"><ele>138.0</ele><time>2026-05-01T15:26:37.999Z</time></trkpt><trkpt lat="43.54887126428879" lon="11.556934468157692"><ele>138.0</ele><time>2026-05-01T15:26:38.999Z</time></trkpt><trkpt lat="43.54872114492825" lon="11.55713820134396"><ele>138.33333333333334</ele><time>2026-05-01T15:26:39.999Z</time></trkpt><trkpt lat="43.54856345768707" lon="11.557345278085924"><ele>138.66666666666669</ele><time>2026-05-01T15:26:40.999Z</time></trkpt><trkpt lat="43.54847729318623" lon="11.557490323849805"><ele>139.0</ele><time>2026-05-01T15:26:41.999Z</time></trkpt><trkpt lat="43.548330720784136" lon="11.55765451337264"><ele>139.0</ele><time>2026-05-01T15:26:42.999Z</time></trkpt><trkpt lat="43.54817773259257" lon="11.557790802612205"><ele>139.0</ele><time>2026-05-01T15:26:43.999Z</time></trkpt><trkpt lat="43.54802360461695" lon="11.557917615924536"><ele>139.0</ele><time>2026-05-01T15:26:44.999Z</time></trkpt><trkpt lat="43.547867499780835" lon="11.55802934544717"><ele>138.33333333333334</ele><time>2026-05-01T15:26:45.999Z</time></trkpt><trkpt lat="43.54771696447906" lon="11.558154761146222"><ele>137.66666666666666</ele><time>2026-05-01T15:26:46.999Z</time></trkpt><trkpt lat="43.54757620524198" lon="11.558296742871258"><ele>137.0</ele><time>2026-05-01T15:26:47.999Z</time></trkpt><trkpt lat="43.54744822940231" lon="11.558465884397592"><ele>137.0</ele><time>2026-05-01T15:26:48.999Z</time></trkpt><trkpt lat="43.54732933881425" lon="11.558644347392587"><ele>137.0</ele><time>2026-05-01T15:26:49.999Z</time></trkpt><trkpt lat="43.54721514430506" lon="11.558836037781143"><ele>137.0</ele><time>2026-05-01T15:26:50.999Z</time></trkpt><trkpt lat="43.547094998134554" lon="11.559024483735469"><ele>137.0</ele><time>2026-05-01T15:26:51.999Z</time></trkpt><trkpt lat="43.54697144896338" lon="11.55921389126642"><ele>137.0</ele><time>2026-05-01T15:26:52.999Z</time></trkpt><trkpt lat="43.54684558181249" lon="11.559403000589427"><ele>137.0</ele><time>2026-05-01T15:26:53.999Z</time></trkpt><trkpt lat="43.546721260256454" lon="11.55959257751794"><ele>137.33333333333331</ele><time>2026-05-01T15:26:54.999Z</time></trkpt><trkpt lat="43.54660983382706" lon="11.559774346306986"><ele>137.66666666666666</ele><time>2026-05-01T15:26:55.999Z</time></trkpt><trkpt lat="43.546539163127164" lon="11.559969786164634"><ele>138.0</ele><time>2026-05-01T15:26:56.999Z</time></trkpt><trkpt lat="43.54652616606578" lon="11.560188843308689"><ele>138.0</ele><time>2026-05-01T15:26:57.999Z</time></trkpt><trkpt lat="43.54657382142674" lon="11.560399269040733"><ele>138.0</ele><time>2026-05-01T15:26:58.999Z</time></trkpt><trkpt lat="43.546656197458276" lon="11.560575121947288"><ele>138.0</ele><time>2026-05-01T15:26:59.999Z</time></trkpt><trkpt lat="43.54677781760994" lon="11.560725785336578"><ele>138.0</ele><time>2026-05-01T15:27:00.999Z</time></trkpt><trkpt lat="43.54692894879722" lon="11.560823636610275"><ele>138.0</ele><time>2026-05-01T15:27:01.999Z</time></trkpt><trkpt lat="43.54709813785823" lon="11.560871248780542"><ele>138.0</ele><time>2026-05-01T15:27:02.999Z</time></trkpt><trkpt lat="43.547283217755215" lon="11.560811623708439"><ele>137.66666666666666</ele><time>2026-05-01T15:27:03.999Z</time></trkpt><trkpt lat="43.54744484102885" lon="11.560712113729585"><ele>137.33333333333331</ele><time>2026-05-01T15:27:05Z</time></trkpt><trkpt lat="43.547583963130656" lon="11.560557781603974"><ele>137.0</ele><time>2026-05-01T15:27:06Z</time></trkpt><trkpt lat="43.547705781865034" lon="11.560375024226975"><ele>137.33333333333331</ele><time>2026-05-01T15:27:07Z</time></trkpt><trkpt lat="43.54781522063327" lon="11.560175059030595"><ele>137.66666666666666</ele><time>2026-05-01T15:27:08Z</time></trkpt><trkpt lat="43.547909599278135" lon="11.55996609485858"><ele>138.0</ele><time>2026-05-01T15:27:09Z</time></trkpt><trkpt lat="43.54798925634421" lon="11.559749751678673"><ele>138.0</ele><time>2026-05-01T15:27:10Z</time></trkpt><trkpt lat="43.548064961533825" lon="11.559540149573857"><ele>138.0</ele><time>2026-05-01T15:27:11Z</time></trkpt><trkpt lat="43.54814407161451" lon="11.559338935851324"><ele>138.0</ele><time>2026-05-01T15:27:12Z</time></trkpt><trkpt lat="43.548231345992946" lon="11.559150245627682"><ele>138.33333333333334</ele><time>2026-05-01T15:27:13Z</time></trkpt><trkpt lat="43.54833815073342" lon="11.558988408476388"><ele>138.66666666666669</ele><time>2026-05-01T15:27:14Z</time></trkpt><trkpt lat="43.548459173372486" lon="11.558852131805898"><ele>139.0</ele><time>2026-05-01T15:27:15Z</time></trkpt><trkpt lat="43.54858971666152" lon="11.558735668338873"><ele>139.0</ele><time>2026-05-01T15:27:16Z</time></trkpt><trkpt lat="43.54872376435385" lon="11.55864039935791"><ele>139.0</ele><time>2026-05-01T15:27:17Z</time></trkpt><trkpt lat="43.54886099223183" lon="11.558560864637112"><ele>139.0</ele><time>2026-05-01T15:27:18Z</time></trkpt><trkpt lat="43.54900340565863" lon="11.558500102512227"><ele>139.0</ele><time>2026-05-01T15:27:19Z</time></trkpt><trkpt lat="43.54914944240373" lon="11.558469653269748"><ele>139.0</ele><time>2026-05-01T15:27:20Z</time></trkpt><trkpt lat="43.549289201877336" lon="11.558431381266544"><ele>139.0</ele><time>2026-05-01T15:27:21Z</time></trkpt><trkpt lat="43.5494095863857" lon="11.558354887873577"><ele>139.0</ele><time>2026-05-01T15:27:22Z</time></trkpt><trkpt lat="43.54949939657252" lon="11.558232085478123"><ele>139.0</ele><time>2026-05-01T15:27:23Z</time></trkpt><trkpt lat="43.54956073965182" lon="11.558086177710663"><ele>139.25</ele><time>2026-05-01T15:27:24Z</time></trkpt><trkpt lat="43.549596518540135" lon="11.557926427996543"><ele>139.5</ele><time>2026-05-01T15:27:25Z</time></trkpt><trkpt lat="43.54961414994234" lon="11.557770583465764"><ele>139.75</ele><time>2026-05-01T15:27:26Z</time></trkpt><trkpt lat="43.54962368572708" lon="11.55761952568463"><ele>140.0</ele><time>2026-05-01T15:27:27Z</time></trkpt><trkpt lat="43.54964135077491" lon="11.557476526484347"><ele>139.4</ele><time>2026-05-01T15:27:28Z</time></trkpt><trkpt lat="43.549675165767795" lon="11.557340116099068"><ele>138.8</ele><time>2026-05-01T15:27:29Z</time></trkpt><trkpt lat="43.5497238578544" lon="11.557214844899761"><ele>138.2</ele><time>2026-05-01T15:27:30Z</time></trkpt><trkpt lat="43.5497788141905" lon="11.557105649174199"><ele>137.6</ele><time>2026-05-01T15:27:31Z</time></trkpt><trkpt lat="43.54983357072021" lon="11.557014860785996"><ele>137.0</ele><time>2026-05-01T15:27:32Z</time></trkpt><trkpt lat="43.54988326900402" lon="11.556932850878399"><ele>137.0</ele><time>2026-05-01T15:27:33Z</time></trkpt><trkpt lat="43.54993617037435" lon="11.556859404735613"><ele>137.0</ele><time>2026-05-01T15:27:34Z</time></trkpt><trkpt lat="43.549976519889064" lon="11.556764416324203"><ele>137.0</ele><time>2026-05-01T15:27:35Z</time></trkpt><trkpt lat="43.55002502595137" lon="11.556660655808047"><ele>137.0</ele><time>2026-05-01T15:27:36Z</time></trkpt><trkpt lat="43.55007423390119" lon="11.556547576892768"><ele>137.0</ele><time>2026-05-01T15:27:37Z</time></trkpt><trkpt lat="43.55012699561565" lon="11.556444747668424"><ele>137.0</ele><time>2026-05-01T15:27:38Z</time></trkpt><trkpt lat="43.55019884398952" lon="11.556381215504354"><ele>137.0</ele><time>2026-05-01T15:27:39Z</time></trkpt><trkpt lat="43.55029021357993" lon="11.55637476705223"><ele>137.0</ele><time>2026-05-01T15:27:40Z</time></trkpt><trkpt lat="43.55038804145871" lon="11.556406049592296"><ele>137.0</ele><time>2026-05-01T15:27:41Z</time></trkpt><trkpt lat="43.550485304023276" lon="11.556449732589076"><ele>137.0</ele><time>2026-05-01T15:27:42Z</time></trkpt><trkpt lat="43.55058644806181" lon="11.556486315853292"><ele>137.0</ele><time>2026-05-01T15:27:43Z</time></trkpt><trkpt lat="43.5506884425692" lon="11.556518646491538"><ele>137.5</ele><time>2026-05-01T15:27:44Z</time></trkpt><trkpt lat="43.5507800378564" lon="11.55655001901907"><ele>138.0</ele><time>2026-05-01T15:27:44.999Z</time></trkpt><trkpt lat="43.55085738480021" lon="11.556596709979704"><ele>138.5</ele><time>2026-05-01T15:27:45.999Z</time></trkpt><trkpt lat="43.55092103171516" lon="11.556661388850316"><ele>139.0</ele><time>2026-05-01T15:27:46.999Z</time></trkpt><trkpt lat="43.550967131889884" lon="11.556748826923513"><ele>139.5</ele><time>2026-05-01T15:27:47.999Z</time></trkpt><trkpt lat="43.550989371760515" lon="11.556848514909579"><ele>140.0</ele><time>2026-05-01T15:27:48.999Z</time></trkpt><trkpt lat="43.5509769882931" lon="11.556970226124422"><ele>140.0</ele><time>2026-05-01T15:27:49.999Z</time></trkpt><trkpt lat="43.55094373409977" lon="11.557096407666329"><ele>140.0</ele><time>2026-05-01T15:27:50.999Z</time></trkpt><trkpt lat="43.55089454148323" lon="11.557227688462778"><ele>140.0</ele><time>2026-05-01T15:27:51.999Z</time></trkpt><trkpt lat="43.550843258915684" lon="11.557365481143322"><ele>140.0</ele><time>2026-05-01T15:27:52.999Z</time></trkpt><trkpt lat="43.55079559107206" lon="11.557513514320199"><ele>140.0</ele><time>2026-05-01T15:27:53.999Z</time></trkpt><trkpt lat="43.550750929745796" lon="11.557668061478589"><ele>140.0</ele><time>2026-05-01T15:27:54.999Z</time></trkpt><trkpt lat="43.55070822794547" lon="11.557835439689098"><ele>140.0</ele><time>2026-05-01T15:27:55.999Z</time></trkpt><trkpt lat="43.55067098028441" lon="11.55800110481591"><ele>140.0</ele><time>2026-05-01T15:27:56.999Z</time></trkpt><trkpt lat="43.55063157279027" lon="11.558162917315133"><ele>140.0</ele><time>2026-05-01T15:27:57.999Z</time></trkpt><trkpt lat="43.550592712681926" lon="11.558335270119178"><ele>140.25</ele><time>2026-05-01T15:27:58.999Z</time></trkpt><trkpt lat="43.55059650586671" lon="11.558515131753449"><ele>140.5</ele><time>2026-05-01T15:27:59.999Z</time></trkpt><trkpt lat="43.55055036984805" lon="11.558704065358928"><ele>140.75</ele><time>2026-05-01T15:28:00.999Z</time></trkpt><trkpt lat="43.55052531028179" lon="11.558886695850159"><ele>141.0</ele><time>2026-05-01T15:28:01.999Z</time></trkpt><trkpt lat="43.55044227301301" lon="11.559058490488342"><ele>141.0</ele><time>2026-05-01T15:28:02.999Z</time></trkpt><trkpt lat="43.55039399130478" lon="11.559236522113563"><ele>141.0</ele><time>2026-05-01T15:28:03.999Z</time></trkpt><trkpt lat="43.550343835920025" lon="11.559414316803284"><ele>141.0</ele><time>2026-05-01T15:28:04.999Z</time></trkpt><trkpt lat="43.550294559097026" lon="11.559590421220376"><ele>141.0</ele><time>2026-05-01T15:28:05.999Z</time></trkpt><trkpt lat="43.550245674221586" lon="11.559766868098093"><ele>140.75</ele><time>2026-05-01T15:28:06.999Z</time></trkpt><trkpt lat="43.55019706728089" lon="11.559937352824253"><ele>140.5</ele><time>2026-05-01T15:28:07.999Z</time></trkpt><trkpt lat="43.550150940806915" lon="11.560103762105687"><ele>140.25</ele><time>2026-05-01T15:28:08.999Z</time></trkpt><trkpt lat="43.55010693130399" lon="11.560271314238715"><ele>140.0</ele><time>2026-05-01T15:28:09.999Z</time></trkpt><trkpt lat="43.55006292369671" lon="11.560436234678386"><ele>140.0</ele><time>2026-05-01T15:28:10.999Z</time></trkpt><trkpt lat="43.55001815894735" lon="11.560598064727321"><ele>140.0</ele><time>2026-05-01T15:28:11.999Z</time></trkpt><trkpt lat="43.54997034652411" lon="11.560760359778701"><ele>140.0</ele><time>2026-05-01T15:28:12.999Z</time></trkpt><trkpt lat="43.549922006009645" lon="11.56092612586935"><ele>140.0</ele><time>2026-05-01T15:28:13.999Z</time></trkpt><trkpt lat="43.549875016519536" lon="11.561092461811658"><ele>140.25</ele><time>2026-05-01T15:28:14.999Z</time></trkpt><trkpt lat="43.54982798204599" lon="11.561259441954046"><ele>140.5</ele><time>2026-05-01T15:28:15.999Z</time></trkpt><trkpt lat="43.54978001017356" lon="11.561426455693095"><ele>140.75</ele><time>2026-05-01T15:28:16.999Z</time></trkpt><trkpt lat="43.549728290298795" lon="11.56159000909313"><ele>141.0</ele><time>2026-05-01T15:28:17.999Z</time></trkpt><trkpt lat="43.549671884925175" lon="11.561753823780858"><ele>141.0</ele><time>2026-05-01T15:28:18.999Z</time></trkpt><trkpt lat="43.549612451183634" lon="11.561926505283248"><ele>141.0</ele><time>2026-05-01T15:28:19.999Z</time></trkpt><trkpt lat="43.549551071134765" lon="11.5620994808135"><ele>141.0</ele><time>2026-05-01T15:28:20.999Z</time></trkpt><trkpt lat="43.54948577966551" lon="11.562272185078609"><ele>141.0</ele><time>2026-05-01T15:28:21.999Z</time></trkpt><trkpt lat="43.54941755712894" lon="11.562448415960391"><ele>140.66666666666666</ele><time>2026-05-01T15:28:22.999Z</time></trkpt><trkpt lat="43.54934582706094" lon="11.562626786884437"><ele>140.33333333333331</ele><time>2026-05-01T15:28:23.999Z</time></trkpt><trkpt lat="43.54927527088562" lon="11.562811341415669"><ele>140.0</ele><time>2026-05-01T15:28:24.999Z</time></trkpt><trkpt lat="43.54920424377328" lon="11.563000120660103"><ele>140.0</ele><time>2026-05-01T15:28:25.999Z</time></trkpt><trkpt lat="43.54913343952001" lon="11.563192569628757"><ele>140.0</ele><time>2026-05-01T15:28:26.999Z</time></trkpt><trkpt lat="43.54906004561943" lon="11.563386998277835"><ele>140.0</ele><time>2026-05-01T15:28:27.999Z</time></trkpt><trkpt lat="43.54898503958511" lon="11.563581893110522"><ele>140.33333333333331</ele><time>2026-05-01T15:28:28.999Z</time></trkpt><trkpt lat="43.548910333563974" lon="11.563779497765271"><ele>140.66666666666666</ele><time>2026-05-01T15:28:29.999Z</time></trkpt><trkpt lat="43.54883412521925" lon="11.563980979031538"><ele>141.0</ele><time>2026-05-01T15:28:30.999Z</time></trkpt><trkpt lat="43.54876149116526" lon="11.564181425704094"><ele>140.66666666666666</ele><time>2026-05-01T15:28:31.999Z</time></trkpt><trkpt lat="43.5486863993005" lon="11.56438516025034"><ele>140.33333333333331</ele><time>2026-05-01T15:28:32.999Z</time></trkpt><trkpt lat="43.54861076536748" lon="11.564591228717509"><ele>140.0</ele><time>2026-05-01T15:28:33.999Z</time></trkpt><trkpt lat="43.54853455536608" lon="11.56479397311939"><ele>140.0</ele><time>2026-05-01T15:28:34.999Z</time></trkpt><trkpt lat="43.54845385343294" lon="11.564992259857002"><ele>140.0</ele><time>2026-05-01T15:28:35.999Z</time></trkpt><trkpt lat="43.548373140767616" lon="11.565191678904915"><ele>140.0</ele><time>2026-05-01T15:28:36.999Z</time></trkpt><trkpt lat="43.54829498447581" lon="11.565390078861602"><ele>140.33333333333331</ele><time>2026-05-01T15:28:37.999Z</time></trkpt><trkpt lat="43.548223468489184" lon="11.565586487261594"><ele>140.66666666666666</ele><time>2026-05-01T15:28:38.999Z</time></trkpt><trkpt lat="43.54815063447475" lon="11.565783002120295"><ele>141.0</ele><time>2026-05-01T15:28:39.999Z</time></trkpt><trkpt lat="43.548080044003626" lon="11.565974166578581"><ele>141.0</ele><time>2026-05-01T15:28:40.999Z</time></trkpt><trkpt lat="43.548009020126045" lon="11.566162331594526"><ele>141.0</ele><time>2026-05-01T15:28:41.999Z</time></trkpt><trkpt lat="43.54794149996035" lon="11.566342465941181"><ele>141.0</ele><time>2026-05-01T15:28:42.999Z</time></trkpt><trkpt lat="43.5478726128812" lon="11.56653010289956"><ele>141.0</ele><time>2026-05-01T15:28:43.999Z</time></trkpt><trkpt lat="43.547799430449444" lon="11.566717007261245"><ele>141.0</ele><time>2026-05-01T15:28:44.999Z</time></trkpt><trkpt lat="43.54772788090886" lon="11.566896964098115"><ele>141.0</ele><time>2026-05-01T15:28:45.999Z</time></trkpt><trkpt lat="43.547655450779914" lon="11.567085737950999"><ele>141.0</ele><time>2026-05-01T15:28:46.999Z</time></trkpt><trkpt lat="43.547581712185206" lon="11.567272556297574"><ele>141.0</ele><time>2026-05-01T15:28:47.999Z</time></trkpt><trkpt lat="43.54751062548827" lon="11.56746321723545"><ele>141.0</ele><time>2026-05-01T15:28:48.999Z</time></trkpt><trkpt lat="43.54743925514438" lon="11.56765326989444"><ele>141.0</ele><time>2026-05-01T15:28:49.999Z</time></trkpt><trkpt lat="43.54736693814619" lon="11.567846620641472"><ele>141.0</ele><time>2026-05-01T15:28:50.999Z</time></trkpt><trkpt lat="43.54729466092794" lon="11.568035011007485"><ele>141.0</ele><time>2026-05-01T15:28:51.999Z</time></trkpt><trkpt lat="43.547224674186204" lon="11.56822352521778"><ele>141.0</ele><time>2026-05-01T15:28:52.999Z</time></trkpt><trkpt lat="43.54715261687056" lon="11.568411452532139"><ele>141.0</ele><time>2026-05-01T15:28:53.999Z</time></trkpt><trkpt lat="43.5470804331627" lon="11.568600584397904"><ele>141.0</ele><time>2026-05-01T15:28:54.999Z</time></trkpt><trkpt lat="43.54701384214371" lon="11.56877994533375"><ele>140.75</ele><time>2026-05-01T15:28:55.999Z</time></trkpt><trkpt lat="43.54694416518341" lon="11.568957061782696"><ele>140.5</ele><time>2026-05-01T15:28:56.999Z</time></trkpt><trkpt lat="43.546879244808956" lon="11.569121377624878"><ele>140.25</ele><time>2026-05-01T15:28:57.999Z</time></trkpt><trkpt lat="43.54682127744066" lon="11.569268801308299"><ele>140.0</ele><time>2026-05-01T15:28:58.999Z</time></trkpt><trkpt lat="43.54676826852742" lon="11.569410638801672"><ele>140.5</ele><time>2026-05-01T15:28:59.999Z</time></trkpt><trkpt lat="43.5467218644969" lon="11.56953727891362"><ele>141.0</ele><time>2026-05-01T15:29:00.999Z</time></trkpt><trkpt lat="43.54666941790323" lon="11.569676375263057"><ele>141.5</ele><time>2026-05-01T15:29:01.999Z</time></trkpt><trkpt lat="43.54661500855842" lon="11.569822036871907"><ele>142.0</ele><time>2026-05-01T15:29:02.999Z</time></trkpt><trkpt lat="43.54656217255977" lon="11.56997262305944"><ele>142.0</ele><time>2026-05-01T15:29:03.999Z</time></trkpt><trkpt lat="43.54650860794963" lon="11.570125986622747"><ele>142.0</ele><time>2026-05-01T15:29:04.999Z</time></trkpt><trkpt lat="43.546456703552884" lon="11.57028066808103"><ele>142.0</ele><time>2026-05-01T15:29:05.999Z</time></trkpt><trkpt lat="43.546404036790285" lon="11.570427955450251"><ele>142.0</ele><time>2026-05-01T15:29:06.999Z</time></trkpt><trkpt lat="43.54635289864404" lon="11.570572153108188"><ele>142.2</ele><time>2026-05-01T15:29:07.999Z</time></trkpt><trkpt lat="43.54629936307119" lon="11.570701747119061"><ele>142.39999999999998</ele><time>2026-05-01T15:29:08.999Z</time></trkpt><trkpt lat="43.546237728648364" lon="11.570799381751993"><ele>142.60000000000002</ele><time>2026-05-01T15:29:10Z</time></trkpt><trkpt lat="43.546170941788986" lon="11.570874638919644"><ele>142.8</ele><time>2026-05-01T15:29:11Z</time></trkpt><trkpt lat="43.54609702367119" lon="11.570935076344654"><ele>143.0</ele><time>2026-05-01T15:29:12Z</time></trkpt><trkpt lat="43.54601289638133" lon="11.570965171514317"><ele>142.25</ele><time>2026-05-01T15:29:13Z</time></trkpt><trkpt lat="43.545913238834586" lon="11.570980676386801"><ele>141.5</ele><time>2026-05-01T15:29:14Z</time></trkpt><trkpt lat="43.54580757440458" lon="11.571016408537565"><ele>140.75</ele><time>2026-05-01T15:29:15Z</time></trkpt><trkpt lat="43.545689447905715" lon="11.571011235259432"><ele>140.0</ele><time>2026-05-01T15:29:16Z</time></trkpt><trkpt lat="43.54556519099763" lon="11.570991613219444"><ele>140.0</ele><time>2026-05-01T15:29:17Z</time></trkpt><trkpt lat="43.54543468731256" lon="11.570995682786512"><ele>140.0</ele><time>2026-05-01T15:29:18Z</time></trkpt><trkpt lat="43.54530001422264" lon="11.571004688821182"><ele>140.0</ele><time>2026-05-01T15:29:19Z</time></trkpt><trkpt lat="43.545173066565674" lon="11.571023477527373"><ele>140.0</ele><time>2026-05-01T15:29:20Z</time></trkpt><trkpt lat="43.54503193047603" lon="11.571056563568282"><ele>140.25</ele><time>2026-05-01T15:29:21Z</time></trkpt><trkpt lat="43.54490870994869" lon="11.571103302894796"><ele>140.5</ele><time>2026-05-01T15:29:22Z</time></trkpt><trkpt lat="43.544777986086274" lon="11.571169625741021"><ele>140.75</ele><time>2026-05-01T15:29:23Z</time></trkpt><trkpt lat="43.54463770027976" lon="11.57123842694462"><ele>141.0</ele><time>2026-05-01T15:29:24Z</time></trkpt><trkpt lat="43.544533340136795" lon="11.57130426795278"><ele>141.0</ele><time>2026-05-01T15:29:25Z</time></trkpt><trkpt lat="43.544413054469736" lon="11.571361972606553"><ele>141.0</ele><time>2026-05-01T15:29:26Z</time></trkpt><trkpt lat="43.544299162014696" lon="11.571360583527097"><ele>141.0</ele><time>2026-05-01T15:29:27Z</time></trkpt><trkpt lat="43.5441821489625" lon="11.571303206437626"><ele>141.0</ele><time>2026-05-01T15:29:28Z</time></trkpt><trkpt lat="43.54408558349454" lon="11.571195352818158"><ele>141.0</ele><time>2026-05-01T15:29:29Z</time></trkpt><trkpt lat="43.54401388991254" lon="11.571042720572965"><ele>141.0</ele><time>2026-05-01T15:29:30Z</time></trkpt><trkpt lat="43.54395419901756" lon="11.570874685830315"><ele>141.0</ele><time>2026-05-01T15:29:31Z</time></trkpt><trkpt lat="43.5438798729955" lon="11.570714192154734"><ele>141.0</ele><time>2026-05-01T15:29:32Z</time></trkpt><trkpt lat="43.54379691332396" lon="11.57057140152949"><ele>140.75</ele><time>2026-05-01T15:29:33Z</time></trkpt><trkpt lat="43.54371028929306" lon="11.570426600279216"><ele>140.5</ele><time>2026-05-01T15:29:34Z</time></trkpt><trkpt lat="43.54363358505712" lon="11.570277772802799"><ele>140.25</ele><time>2026-05-01T15:29:35Z</time></trkpt><trkpt lat="43.543557391059196" lon="11.570134202909086"><ele>140.0</ele><time>2026-05-01T15:29:36Z</time></trkpt><trkpt lat="43.54347889722112" lon="11.570011367864346"><ele>140.0</ele><time>2026-05-01T15:29:37Z</time></trkpt><trkpt lat="43.54340658110495" lon="11.569899260592855"><ele>140.0</ele><time>2026-05-01T15:29:38Z</time></trkpt><trkpt lat="43.54333014104232" lon="11.56981702600865"><ele>140.0</ele><time>2026-05-01T15:29:39Z</time></trkpt><trkpt lat="43.54329973570889" lon="11.56971690668092"><ele>140.0</ele><time>2026-05-01T15:29:40Z</time></trkpt><trkpt lat="43.54316199354302" lon="11.569799818319405"><ele>140.0</ele><time>2026-05-01T15:29:41Z</time></trkpt><trkpt lat="43.54308697312379" lon="11.569876121635323"><ele>140.0</ele><time>2026-05-01T15:29:42Z</time></trkpt><trkpt lat="43.543007804765274" lon="11.569981273845073"><ele>140.0</ele><time>2026-05-01T15:29:43Z</time></trkpt><trkpt lat="43.54292472569152" lon="11.570092584532222"><ele>140.0</ele><time>2026-05-01T15:29:44Z</time></trkpt><trkpt lat="43.542840395911824" lon="11.570198242023546"><ele>140.0</ele><time>2026-05-01T15:29:45Z</time></trkpt><trkpt lat="43.54276161801837" lon="11.57028952477871"><ele>140.0</ele><time>2026-05-01T15:29:46Z</time></trkpt><trkpt lat="43.54268290834969" lon="11.57037871764644"><ele>140.2</ele><time>2026-05-01T15:29:47Z</time></trkpt><trkpt lat="43.542600924591106" lon="11.570470838760956"><ele>140.4</ele><time>2026-05-01T15:29:48Z</time></trkpt><trkpt lat="43.542510805123754" lon="11.570564071746126"><ele>140.6</ele><time>2026-05-01T15:29:49Z</time></trkpt><trkpt lat="43.54243439172855" lon="11.570658968986795"><ele>140.8</ele><time>2026-05-01T15:29:49.999Z</time></trkpt><trkpt lat="43.542361636375524" lon="11.570754940314242"><ele>141.0</ele><time>2026-05-01T15:29:50.999Z</time></trkpt><trkpt lat="43.542294851843835" lon="11.570846750654507"><ele>141.0</ele><time>2026-05-01T15:29:51.999Z</time></trkpt><trkpt lat="43.54222744698477" lon="11.570925250745523"><ele>141.0</ele><time>2026-05-01T15:29:52.999Z</time></trkpt><trkpt lat="43.5421590059594" lon="11.570973926424566"><ele>141.0</ele><time>2026-05-01T15:29:53.999Z</time></trkpt><trkpt lat="43.54208103012323" lon="11.570974170805545"><ele>141.0</ele><time>2026-05-01T15:29:54.999Z</time></trkpt><trkpt lat="43.54198825684593" lon="11.570945433772591"><ele>141.0</ele><time>2026-05-01T15:29:55.999Z</time></trkpt><trkpt lat="43.5418817751968" lon="11.570905943797639"><ele>141.0</ele><time>2026-05-01T15:29:56.999Z</time></trkpt><trkpt lat="43.541771866025286" lon="11.570879886942043"><ele>140.5</ele><time>2026-05-01T15:29:57.999Z</time></trkpt><trkpt lat="43.54165658499075" lon="11.570853141261292"><ele>140.0</ele><time>2026-05-01T15:29:58.999Z</time></trkpt><trkpt lat="43.5415379959624" lon="11.570821311996218"><ele>139.5</ele><time>2026-05-01T15:29:59.999Z</time></trkpt><trkpt lat="43.54141629266448" lon="11.570785427855196"><ele>139.0</ele><time>2026-05-01T15:30:00.999Z</time></trkpt><trkpt lat="43.54128992822135" lon="11.57074934449736"><ele>139.75</ele><time>2026-05-01T15:30:01.999Z</time></trkpt><trkpt lat="43.541162701601586" lon="11.57071731033013"><ele>140.5</ele><time>2026-05-01T15:30:02.999Z</time></trkpt><trkpt lat="43.54103468492801" lon="11.570689094425308"><ele>141.25</ele><time>2026-05-01T15:30:03.999Z</time></trkpt><trkpt lat="43.540907243981174" lon="11.570659655825565"><ele>142.0</ele><time>2026-05-01T15:30:04.999Z</time></trkpt><trkpt lat="43.54078315995431" lon="11.570628086268496"><ele>142.0</ele><time>2026-05-01T15:30:05.999Z</time></trkpt><trkpt lat="43.540665547360994" lon="11.570595133449716"><ele>142.0</ele><time>2026-05-01T15:30:06.999Z</time></trkpt><trkpt lat="43.540560092683805" lon="11.5705455482683"><ele>142.0</ele><time>2026-05-01T15:30:07.999Z</time></trkpt><trkpt lat="43.54047231566458" lon="11.570465095989425"><ele>142.0</ele><time>2026-05-01T15:30:08.999Z</time></trkpt><trkpt lat="43.54040124723654" lon="11.570369249253911"><ele>142.0</ele><time>2026-05-01T15:30:09.999Z</time></trkpt><trkpt lat="43.540323909739826" lon="11.570301469390547"><ele>141.79999999999998</ele><time>2026-05-01T15:30:10.999Z</time></trkpt><trkpt lat="43.54022970810294" lon="11.570295868574838"><ele>141.6</ele><time>2026-05-01T15:30:11.999Z</time></trkpt><trkpt lat="43.54014601750122" lon="11.570360978414232"><ele>141.39999999999998</ele><time>2026-05-01T15:30:12.999Z</time></trkpt><trkpt lat="43.54010209293957" lon="11.570457744976903"><ele>141.2</ele><time>2026-05-01T15:30:13.999Z</time></trkpt><trkpt lat="43.54007994172497" lon="11.570582142133372"><ele>141.0</ele><time>2026-05-01T15:30:14.999Z</time></trkpt><trkpt lat="43.5399914561432" lon="11.570622089911"><ele>141.0</ele><time>2026-05-01T15:30:15.999Z</time></trkpt><trkpt lat="43.53989532646132" lon="11.57071238751758"><ele>141.0</ele><time>2026-05-01T15:30:16.999Z</time></trkpt><trkpt lat="43.53979961156008" lon="11.570819911968455"><ele>141.0</ele><time>2026-05-01T15:30:17.999Z</time></trkpt><trkpt lat="43.539710731706556" lon="11.570955788499145"><ele>141.0</ele><time>2026-05-01T15:30:18.999Z</time></trkpt><trkpt lat="43.53960643697431" lon="11.571092695437414"><ele>140.33333333333334</ele><time>2026-05-01T15:30:19.999Z</time></trkpt><trkpt lat="43.53950461531054" lon="11.571241308203588"><ele>139.66666666666669</ele><time>2026-05-01T15:30:20.999Z</time></trkpt><trkpt lat="43.53940673945731" lon="11.571401618670068"><ele>139.0</ele><time>2026-05-01T15:30:21.999Z</time></trkpt><trkpt lat="43.539304768679955" lon="11.571562071842537"><ele>139.0</ele><time>2026-05-01T15:30:22.999Z</time></trkpt><trkpt lat="43.53919547106415" lon="11.571728205889347"><ele>139.0</ele><time>2026-05-01T15:30:23.999Z</time></trkpt><trkpt lat="43.53908444583451" lon="11.57189990320394"><ele>139.0</ele><time>2026-05-01T15:30:24.999Z</time></trkpt><trkpt lat="43.5389754788884" lon="11.572077977224106"><ele>140.0</ele><time>2026-05-01T15:30:25.999Z</time></trkpt><trkpt lat="43.5388626214958" lon="11.572266428178406"><ele>141.0</ele><time>2026-05-01T15:30:26.999Z</time></trkpt><trkpt lat="43.538753593969325" lon="11.572455462012316"><ele>142.0</ele><time>2026-05-01T15:30:27.999Z</time></trkpt><trkpt lat="43.53864751699434" lon="11.572644899647996"><ele>142.0</ele><time>2026-05-01T15:30:28.999Z</time></trkpt><trkpt lat="43.53853928976864" lon="11.572836530506407"><ele>142.0</ele><time>2026-05-01T15:30:29.999Z</time></trkpt><trkpt lat="43.53843269744278" lon="11.573026451529282"><ele>142.0</ele><time>2026-05-01T15:30:30.999Z</time></trkpt><trkpt lat="43.53832388804724" lon="11.573219663343464"><ele>142.0</ele><time>2026-05-01T15:30:31.999Z</time></trkpt><trkpt lat="43.53821437292827" lon="11.573414476243208"><ele>142.0</ele><time>2026-05-01T15:30:32.999Z</time></trkpt><trkpt lat="43.5381046536936" lon="11.573612848805091"><ele>142.0</ele><time>2026-05-01T15:30:33.999Z</time></trkpt><trkpt lat="43.537993861704024" lon="11.573809382645644"><ele>142.33333333333334</ele><time>2026-05-01T15:30:34.999Z</time></trkpt><trkpt lat="43.537882891757995" lon="11.574008876788614"><ele>142.66666666666666</ele><time>2026-05-01T15:30:35.999Z</time></trkpt><trkpt lat="43.537772465060634" lon="11.574209576034058"><ele>143.0</ele><time>2026-05-01T15:30:36.999Z</time></trkpt><trkpt lat="43.53766125841261" lon="11.57441052632059"><ele>142.33333333333331</ele><time>2026-05-01T15:30:37.999Z</time></trkpt><trkpt lat="43.53754763114333" lon="11.574613645273303"><ele>141.66666666666666</ele><time>2026-05-01T15:30:38.999Z</time></trkpt><trkpt lat="43.53743605115816" lon="11.57482270701315"><ele>141.0</ele><time>2026-05-01T15:30:39.999Z</time></trkpt><trkpt lat="43.53732378126635" lon="11.575033211673551"><ele>141.0</ele><time>2026-05-01T15:30:40.999Z</time></trkpt><trkpt lat="43.537206332334804" lon="11.575247407734794"><ele>141.0</ele><time>2026-05-01T15:30:41.999Z</time></trkpt><trkpt lat="43.537086836245436" lon="11.575459619103146"><ele>141.0</ele><time>2026-05-01T15:30:42.999Z</time></trkpt><trkpt lat="43.536966738482754" lon="11.575674237900616"><ele>141.0</ele><time>2026-05-01T15:30:43.999Z</time></trkpt><trkpt lat="43.53684571108149" lon="11.575895790670838"><ele>141.0</ele><time>2026-05-01T15:30:44.999Z</time></trkpt><trkpt lat="43.53672305670964" lon="11.576119770729424"><ele>141.0</ele><time>2026-05-01T15:30:45.999Z</time></trkpt><trkpt lat="43.53659730526667" lon="11.576344358669097"><ele>141.33333333333334</ele><time>2026-05-01T15:30:46.999Z</time></trkpt><trkpt lat="43.53647177947186" lon="11.576564682242159"><ele>141.66666666666669</ele><time>2026-05-01T15:30:47.999Z</time></trkpt><trkpt lat="43.536347054324764" lon="11.576781410775057"><ele>142.0</ele><time>2026-05-01T15:30:48.999Z</time></trkpt><trkpt lat="43.536227362492774" lon="11.576994247485338"><ele>141.66666666666669</ele><time>2026-05-01T15:30:49.999Z</time></trkpt><trkpt lat="43.53610950582265" lon="11.57720660339151"><ele>141.33333333333334</ele><time>2026-05-01T15:30:50.999Z</time></trkpt><trkpt lat="43.53599366857258" lon="11.577417487294568"><ele>141.0</ele><time>2026-05-01T15:30:51.999Z</time></trkpt><trkpt lat="43.53588001115344" lon="11.577629333048245"><ele>141.0</ele><time>2026-05-01T15:30:52.999Z</time></trkpt><trkpt lat="43.53576633672289" lon="11.577837907283124"><ele>141.0</ele><time>2026-05-01T15:30:53.999Z</time></trkpt><trkpt lat="43.535651537224055" lon="11.578044370642465"><ele>141.0</ele><time>2026-05-01T15:30:54.999Z</time></trkpt><trkpt lat="43.53553654947365" lon="11.578252616013298"><ele>141.0</ele><time>2026-05-01T15:30:55.999Z</time></trkpt><trkpt lat="43.535425055183836" lon="11.57846505445631"><ele>141.0</ele><time>2026-05-01T15:30:56.999Z</time></trkpt><trkpt lat="43.535311642135966" lon="11.578680271700355"><ele>141.0</ele><time>2026-05-01T15:30:57.999Z</time></trkpt><trkpt lat="43.53519782167669" lon="11.578893468770485"><ele>141.0</ele><time>2026-05-01T15:30:58.999Z</time></trkpt><trkpt lat="43.53508123449693" lon="11.579104568737547"><ele>141.0</ele><time>2026-05-01T15:30:59.999Z</time></trkpt><trkpt lat="43.534951198640044" lon="11.579302180871434"><ele>141.0</ele><time>2026-05-01T15:31:00.999Z</time></trkpt><trkpt lat="43.53484610761221" lon="11.579524359810202"><ele>141.66666666666666</ele><time>2026-05-01T15:31:01.999Z</time></trkpt><trkpt lat="43.53472603929097" lon="11.579732086412802"><ele>142.33333333333331</ele><time>2026-05-01T15:31:02.999Z</time></trkpt><trkpt lat="43.53460376621913" lon="11.579944020371169"><ele>143.0</ele><time>2026-05-01T15:31:03.999Z</time></trkpt><trkpt lat="43.53446745250372" lon="11.580133710254191"><ele>143.0</ele><time>2026-05-01T15:31:04.999Z</time></trkpt><trkpt lat="43.53434164748062" lon="11.58033233838192"><ele>143.0</ele><time>2026-05-01T15:31:05.999Z</time></trkpt><trkpt lat="43.53422249821841" lon="11.580518852194517"><ele>143.0</ele><time>2026-05-01T15:31:06.999Z</time></trkpt><trkpt lat="43.53412102905387" lon="11.580703790246117"><ele>143.0</ele><time>2026-05-01T15:31:07.999Z</time></trkpt><trkpt lat="43.534012061929374" lon="11.580867400931735"><ele>143.0</ele><time>2026-05-01T15:31:08.999Z</time></trkpt><trkpt lat="43.533910556246795" lon="11.581042524815846"><ele>143.0</ele><time>2026-05-01T15:31:09.999Z</time></trkpt><trkpt lat="43.53380824199601" lon="11.581230359428105"><ele>142.33333333333331</ele><time>2026-05-01T15:31:10.999Z</time></trkpt><trkpt lat="43.53370276900351" lon="11.581425503537153"><ele>141.66666666666666</ele><time>2026-05-01T15:31:11.999Z</time></trkpt><trkpt lat="43.53359392559646" lon="11.581626043080558"><ele>141.0</ele><time>2026-05-01T15:31:12.999Z</time></trkpt><trkpt lat="43.53348168021553" lon="11.581830331300418"><ele>141.66666666666666</ele><time>2026-05-01T15:31:13.999Z</time></trkpt><trkpt lat="43.533367333461314" lon="11.582044477481713"><ele>142.33333333333331</ele><time>2026-05-01T15:31:14.999Z</time></trkpt><trkpt lat="43.533258795120034" lon="11.582266494733648"><ele>143.0</ele><time>2026-05-01T15:31:16Z</time></trkpt><trkpt lat="43.53314590715697" lon="11.582494958151907"><ele>143.0</ele><time>2026-05-01T15:31:17Z</time></trkpt><trkpt lat="43.53303274569865" lon="11.582720725128171"><ele>143.0</ele><time>2026-05-01T15:31:18Z</time></trkpt><trkpt lat="43.532914472122606" lon="11.582951638034384"><ele>143.0</ele><time>2026-05-01T15:31:19Z</time></trkpt><trkpt lat="43.53279627447495" lon="11.583173542911322"><ele>143.0</ele><time>2026-05-01T15:31:20Z</time></trkpt><trkpt lat="43.53267061870502" lon="11.58339668516376"><ele>143.0</ele><time>2026-05-01T15:31:21Z</time></trkpt><trkpt lat="43.532545376320066" lon="11.58362337470245"><ele>143.0</ele><time>2026-05-01T15:31:22Z</time></trkpt><trkpt lat="43.53241952052222" lon="11.583847986912835"><ele>143.0</ele><time>2026-05-01T15:31:23Z</time></trkpt><trkpt lat="43.53229473094628" lon="11.584073912179173"><ele>143.0</ele><time>2026-05-01T15:31:24Z</time></trkpt><trkpt lat="43.53217010680301" lon="11.584299426240117"><ele>143.0</ele><time>2026-05-01T15:31:25Z</time></trkpt><trkpt lat="43.53204469087718" lon="11.584525418453325"><ele>143.33333333333331</ele><time>2026-05-01T15:31:26Z</time></trkpt><trkpt lat="43.53192009292988" lon="11.58475258140832"><ele>143.66666666666666</ele><time>2026-05-01T15:31:27Z</time></trkpt><trkpt lat="43.53179558807254" lon="11.584975570096098"><ele>144.0</ele><time>2026-05-01T15:31:28Z</time></trkpt><trkpt lat="43.531670105666855" lon="11.585193810865192"><ele>143.66666666666666</ele><time>2026-05-01T15:31:29Z</time></trkpt><trkpt lat="43.53154616058094" lon="11.585416642578226"><ele>143.33333333333331</ele><time>2026-05-01T15:31:30Z</time></trkpt><trkpt lat="43.531425303158095" lon="11.585641655285126"><ele>143.0</ele><time>2026-05-01T15:31:31Z</time></trkpt><trkpt lat="43.53130329263007" lon="11.58586349011938"><ele>143.0</ele><time>2026-05-01T15:31:32Z</time></trkpt><trkpt lat="43.53117808102999" lon="11.586087005649679"><ele>143.0</ele><time>2026-05-01T15:31:33Z</time></trkpt><trkpt lat="43.531054707742676" lon="11.586311170883793"><ele>143.0</ele><time>2026-05-01T15:31:34Z</time></trkpt><trkpt lat="43.530931051517406" lon="11.586539557853367"><ele>143.0</ele><time>2026-05-01T15:31:35Z</time></trkpt><trkpt lat="43.53080699878839" lon="11.586769785485478"><ele>143.0</ele><time>2026-05-01T15:31:36Z</time></trkpt><trkpt lat="43.53068065266355" lon="11.587001700228729"><ele>143.0</ele><time>2026-05-01T15:31:37Z</time></trkpt><trkpt lat="43.53055252971011" lon="11.58723256094761"><ele>143.33333333333331</ele><time>2026-05-01T15:31:38Z</time></trkpt><trkpt lat="43.53042208466375" lon="11.587461840034091"><ele>143.66666666666666</ele><time>2026-05-01T15:31:39Z</time></trkpt><trkpt lat="43.5302923160625" lon="11.58769475000295"><ele>144.0</ele><time>2026-05-01T15:31:40Z</time></trkpt><trkpt lat="43.53016309398116" lon="11.587927691034068"><ele>144.33333333333334</ele><time>2026-05-01T15:31:41Z</time></trkpt><trkpt lat="43.53003310829831" lon="11.58816171753952"><ele>144.66666666666669</ele><time>2026-05-01T15:31:42Z</time></trkpt><trkpt lat="43.52990361832432" lon="11.58839795764592"><ele>145.0</ele><time>2026-05-01T15:31:43Z</time></trkpt><trkpt lat="43.52977762266692" lon="11.588631493333345"><ele>145.0</ele><time>2026-05-01T15:31:44Z</time></trkpt><trkpt lat="43.52965184434996" lon="11.588866675662086"><ele>145.0</ele><time>2026-05-01T15:31:45Z</time></trkpt><trkpt lat="43.529529306027875" lon="11.589103482752387"><ele>145.0</ele><time>2026-05-01T15:31:46Z</time></trkpt><trkpt lat="43.52940919198517" lon="11.589340166497118"><ele>145.0</ele><time>2026-05-01T15:31:47Z</time></trkpt><trkpt lat="43.52928977758573" lon="11.58957221772172"><ele>145.0</ele><time>2026-05-01T15:31:48Z</time></trkpt><trkpt lat="43.5291686109983" lon="11.589800329806318"><ele>145.0</ele><time>2026-05-01T15:31:49Z</time></trkpt><trkpt lat="43.529047519315206" lon="11.590024088381806"><ele>145.0</ele><time>2026-05-01T15:31:50Z</time></trkpt><trkpt lat="43.52892508276428" lon="11.590248557915604"><ele>145.0</ele><time>2026-05-01T15:31:51Z</time></trkpt><trkpt lat="43.52880768941065" lon="11.590463328135623"><ele>145.0</ele><time>2026-05-01T15:31:52Z</time></trkpt><trkpt lat="43.5286867040203" lon="11.590678963577757"><ele>144.33333333333334</ele><time>2026-05-01T15:31:53Z</time></trkpt><trkpt lat="43.528569167855636" lon="11.59089889295736"><ele>143.66666666666666</ele><time>2026-05-01T15:31:53.999Z</time></trkpt><trkpt lat="43.52846476679227" lon="11.591125448068068"><ele>143.0</ele><time>2026-05-01T15:31:54.999Z</time></trkpt><trkpt lat="43.52837587185891" lon="11.591363133664887"><ele>144.33333333333331</ele><time>2026-05-01T15:31:55.999Z</time></trkpt><trkpt lat="43.52830164385196" lon="11.591613481860405"><ele>145.66666666666666</ele><time>2026-05-01T15:31:56.999Z</time></trkpt><trkpt lat="43.52823740639649" lon="11.591879765687269"><ele>147.0</ele><time>2026-05-01T15:31:57.999Z</time></trkpt><trkpt lat="43.528189268061496" lon="11.59214285310687"><ele>149.0</ele><time>2026-05-01T15:31:58.999Z</time></trkpt><trkpt lat="43.52815095636018" lon="11.59238727018776"><ele>151.0</ele><time>2026-05-01T15:31:59.999Z</time></trkpt><trkpt lat="43.52811568915739" lon="11.59261676443584"><ele>153.0</ele><time>2026-05-01T15:32:00.999Z</time></trkpt><trkpt lat="43.52808003485317" lon="11.59282665442123"><ele>154.0</ele><time>2026-05-01T15:32:01.999Z</time></trkpt><trkpt lat="43.52803575312086" lon="11.593025898045088"><ele>155.0</ele><time>2026-05-01T15:32:02.999Z</time></trkpt><trkpt lat="43.52797499712883" lon="11.593224293474544"><ele>156.0</ele><time>2026-05-01T15:32:03.999Z</time></trkpt><trkpt lat="43.52789372246021" lon="11.593394035722216"><ele>153.5</ele><time>2026-05-01T15:32:04.999Z</time></trkpt><trkpt lat="43.527788737541975" lon="11.593514627149519"><ele>151.0</ele><time>2026-05-01T15:32:05.999Z</time></trkpt><trkpt lat="43.5276667195768" lon="11.593593654084216"><ele>148.5</ele><time>2026-05-01T15:32:06.999Z</time></trkpt><trkpt lat="43.52753800668236" lon="11.593637693495578"><ele>146.0</ele><time>2026-05-01T15:32:07.999Z</time></trkpt><trkpt lat="43.52740808646352" lon="11.593647058798627"><ele>146.0</ele><time>2026-05-01T15:32:08.999Z</time></trkpt><trkpt lat="43.52728054210175" lon="11.593618633213813"><ele>146.0</ele><time>2026-05-01T15:32:09.999Z</time></trkpt><trkpt lat="43.52715974527721" lon="11.593551508163575"><ele>146.0</ele><time>2026-05-01T15:32:10.999Z</time></trkpt><trkpt lat="43.527043246484745" lon="11.593452735627311"><ele>146.0</ele><time>2026-05-01T15:32:11.999Z</time></trkpt><trkpt lat="43.52692818266122" lon="11.593334135082472"><ele>145.66666666666666</ele><time>2026-05-01T15:32:12.999Z</time></trkpt><trkpt lat="43.526804857074225" lon="11.59320426458143"><ele>145.33333333333334</ele><time>2026-05-01T15:32:13.999Z</time></trkpt><trkpt lat="43.52667269590078" lon="11.593067846892405"><ele>145.0</ele><time>2026-05-01T15:32:14.999Z</time></trkpt><trkpt lat="43.52653848859759" lon="11.592921546315232"><ele>144.66666666666669</ele><time>2026-05-01T15:32:15.999Z</time></trkpt><trkpt lat="43.52640229152566" lon="11.592763104464186"><ele>144.33333333333334</ele><time>2026-05-01T15:32:16.999Z</time></trkpt><trkpt lat="43.52627137561979" lon="11.59262882225722"><ele>144.0</ele><time>2026-05-01T15:32:17.999Z</time></trkpt><trkpt lat="43.526134082791074" lon="11.592470220045689"><ele>144.0</ele><time>2026-05-01T15:32:18.999Z</time></trkpt><trkpt lat="43.525992991206685" lon="11.592306192779057"><ele>144.0</ele><time>2026-05-01T15:32:19.999Z</time></trkpt><trkpt lat="43.52584531273552" lon="11.592140011318055"><ele>144.0</ele><time>2026-05-01T15:32:20.999Z</time></trkpt><trkpt lat="43.5256964544979" lon="11.591978008654179"><ele>144.33333333333334</ele><time>2026-05-01T15:32:21.999Z</time></trkpt><trkpt lat="43.52554070333216" lon="11.591813487514457"><ele>144.66666666666669</ele><time>2026-05-01T15:32:22.999Z</time></trkpt><trkpt lat="43.52539167942846" lon="11.591644392231407"><ele>145.0</ele><time>2026-05-01T15:32:23.999Z</time></trkpt><trkpt lat="43.52523767355906" lon="11.591468758778708"><ele>145.0</ele><time>2026-05-01T15:32:24.999Z</time></trkpt><trkpt lat="43.525082019112574" lon="11.591300638105189"><ele>145.0</ele><time>2026-05-01T15:32:25.999Z</time></trkpt><trkpt lat="43.52492589385408" lon="11.59112989927344"><ele>145.0</ele><time>2026-05-01T15:32:26.999Z</time></trkpt><trkpt lat="43.52477095599321" lon="11.590959771548876"><ele>144.33333333333334</ele><time>2026-05-01T15:32:27.999Z</time></trkpt><trkpt lat="43.52461633045242" lon="11.590798636609424"><ele>143.66666666666666</ele><time>2026-05-01T15:32:28.999Z</time></trkpt><trkpt lat="43.524468274037616" lon="11.59064211499257"><ele>143.0</ele><time>2026-05-01T15:32:29.999Z</time></trkpt><trkpt lat="43.5243267710935" lon="11.590492566568438"><ele>143.0</ele><time>2026-05-01T15:32:30.999Z</time></trkpt><trkpt lat="43.52420187941711" lon="11.590353018475637"><ele>143.0</ele><time>2026-05-01T15:32:31.999Z</time></trkpt><trkpt lat="43.52410249121587" lon="11.590222396319179"><ele>143.0</ele><time>2026-05-01T15:32:32.999Z</time></trkpt><trkpt lat="43.52402704142932" lon="11.590086551051574"><ele>143.0</ele><time>2026-05-01T15:32:33.999Z</time></trkpt><trkpt lat="43.52399006086981" lon="11.589931090221393"><ele>142.8</ele><time>2026-05-01T15:32:34.999Z</time></trkpt><trkpt lat="43.52397757789905" lon="11.589781041686615"><ele>142.60000000000002</ele><time>2026-05-01T15:32:35.999Z</time></trkpt><trkpt lat="43.52393927597961" lon="11.589663862280979"><ele>142.39999999999998</ele><time>2026-05-01T15:32:36.999Z</time></trkpt><trkpt lat="43.52385985682105" lon="11.589590193790507"><ele>142.2</ele><time>2026-05-01T15:32:37.999Z</time></trkpt><trkpt lat="43.52375466956109" lon="11.589584297734312"><ele>142.0</ele><time>2026-05-01T15:32:38.999Z</time></trkpt><trkpt lat="43.52364448227" lon="11.589641928617286"><ele>142.5</ele><time>2026-05-01T15:32:39.999Z</time></trkpt><trkpt lat="43.523565392097716" lon="11.589754985955626"><ele>143.0</ele><time>2026-05-01T15:32:40.999Z</time></trkpt><trkpt lat="43.52352497212791" lon="11.589909090878116"><ele>143.5</ele><time>2026-05-01T15:32:41.999Z</time></trkpt><trkpt lat="43.52351635521942" lon="11.590083470294745"><ele>144.0</ele><time>2026-05-01T15:32:42.999Z</time></trkpt><trkpt lat="43.523495041231804" lon="11.590267169479226"><ele>144.0</ele><time>2026-05-01T15:32:43.999Z</time></trkpt><trkpt lat="43.52342796377939" lon="11.590438214734636"><ele>144.0</ele><time>2026-05-01T15:32:44.999Z</time></trkpt><trkpt lat="43.523321119670626" lon="11.590590663212222"><ele>144.0</ele><time>2026-05-01T15:32:45.999Z</time></trkpt><trkpt lat="43.523199556217676" lon="11.590738068635158"><ele>144.0</ele><time>2026-05-01T15:32:46.999Z</time></trkpt><trkpt lat="43.523080408851214" lon="11.590888885827805"><ele>144.0</ele><time>2026-05-01T15:32:47.999Z</time></trkpt><trkpt lat="43.52295386451545" lon="11.591050892918773"><ele>144.0</ele><time>2026-05-01T15:32:48.999Z</time></trkpt><trkpt lat="43.52282138521312" lon="11.591219619172687"><ele>144.0</ele><time>2026-05-01T15:32:49.999Z</time></trkpt><trkpt lat="43.52268793305172" lon="11.591391922944005"><ele>144.0</ele><time>2026-05-01T15:32:50.999Z</time></trkpt><trkpt lat="43.5225510005419" lon="11.591563278312385"><ele>144.0</ele><time>2026-05-01T15:32:51.999Z</time></trkpt><trkpt lat="43.52241391499609" lon="11.59172686822441"><ele>144.0</ele><time>2026-05-01T15:32:52.999Z</time></trkpt><trkpt lat="43.522266618092445" lon="11.591892561767398"><ele>144.0</ele><time>2026-05-01T15:32:53.999Z</time></trkpt><trkpt lat="43.5221155260533" lon="11.592058963071363"><ele>144.0</ele><time>2026-05-01T15:32:54.999Z</time></trkpt><trkpt lat="43.52196514493629" lon="11.592220952167802"><ele>143.33333333333334</ele><time>2026-05-01T15:32:55.999Z</time></trkpt><trkpt lat="43.52180499098418" lon="11.592380801855498"><ele>142.66666666666669</ele><time>2026-05-01T15:32:56.999Z</time></trkpt><trkpt lat="43.52164509321822" lon="11.592551262974554"><ele>142.0</ele><time>2026-05-01T15:32:57.999Z</time></trkpt><trkpt lat="43.52148364939586" lon="11.592721745437913"><ele>142.0</ele><time>2026-05-01T15:32:58.999Z</time></trkpt><trkpt lat="43.5213169096984" lon="11.592897035103944"><ele>142.0</ele><time>2026-05-01T15:32:59.999Z</time></trkpt><trkpt lat="43.521149692388775" lon="11.593069448544208"><ele>142.0</ele><time>2026-05-01T15:33:00.999Z</time></trkpt><trkpt lat="43.52098029129783" lon="11.593244999992216"><ele>142.0</ele><time>2026-05-01T15:33:01.999Z</time></trkpt><trkpt lat="43.52080812443702" lon="11.593424242043861"><ele>142.0</ele><time>2026-05-01T15:33:02.999Z</time></trkpt><trkpt lat="43.52063201559709" lon="11.593608291546646"><ele>142.0</ele><time>2026-05-01T15:33:03.999Z</time></trkpt><trkpt lat="43.52045227752168" lon="11.593793341211645"><ele>142.66666666666669</ele><time>2026-05-01T15:33:04.999Z</time></trkpt><trkpt lat="43.520273664095704" lon="11.5939784323768"><ele>143.33333333333334</ele><time>2026-05-01T15:33:05.999Z</time></trkpt><trkpt lat="43.520092595697925" lon="11.594164285886913"><ele>144.0</ele><time>2026-05-01T15:33:06.999Z</time></trkpt><trkpt lat="43.519913287320804" lon="11.594344732508572"><ele>144.0</ele><time>2026-05-01T15:33:07.999Z</time></trkpt><trkpt lat="43.51973292091319" lon="11.594532021705437"><ele>144.0</ele><time>2026-05-01T15:33:08.999Z</time></trkpt><trkpt lat="43.51955458556681" lon="11.594715849117772"><ele>144.0</ele><time>2026-05-01T15:33:09.999Z</time></trkpt><trkpt lat="43.51937176173343" lon="11.594905471413718"><ele>143.5</ele><time>2026-05-01T15:33:10.999Z</time></trkpt><trkpt lat="43.51918464419148" lon="11.595101235665686"><ele>143.0</ele><time>2026-05-01T15:33:11.999Z</time></trkpt><trkpt lat="43.518997517269774" lon="11.595297659935927"><ele>143.5</ele><time>2026-05-01T15:33:12.999Z</time></trkpt><trkpt lat="43.51881187202691" lon="11.59549421565147"><ele>144.0</ele><time>2026-05-01T15:33:13.999Z</time></trkpt><trkpt lat="43.51862547252338" lon="11.595699154646882"><ele>144.0</ele><time>2026-05-01T15:33:14.999Z</time></trkpt><trkpt lat="43.51844345777534" lon="11.595911355549557"><ele>144.0</ele><time>2026-05-01T15:33:15.999Z</time></trkpt><trkpt lat="43.51827160742366" lon="11.596140980460827"><ele>143.5</ele><time>2026-05-01T15:33:16.999Z</time></trkpt><trkpt lat="43.51811610381443" lon="11.596394586435663"><ele>143.0</ele><time>2026-05-01T15:33:17.999Z</time></trkpt><trkpt lat="43.51797626194958" lon="11.596662224525538"><ele>144.0</ele><time>2026-05-01T15:33:18.999Z</time></trkpt><trkpt lat="43.5178580569268" lon="11.596948794305186"><ele>145.0</ele><time>2026-05-01T15:33:19.999Z</time></trkpt><trkpt lat="43.51775966815498" lon="11.59724638125845"><ele>145.0</ele><time>2026-05-01T15:33:20.999Z</time></trkpt><trkpt lat="43.51768512719699" lon="11.597556513397159"><ele>145.0</ele><time>2026-05-01T15:33:22Z</time></trkpt><trkpt lat="43.51762665895976" lon="11.597865390038013"><ele>145.0</ele><time>2026-05-01T15:33:23Z</time></trkpt><trkpt lat="43.517586369747036" lon="11.598174005229772"><ele>145.0</ele><time>2026-05-01T15:33:24Z</time></trkpt><trkpt lat="43.51756023742414" lon="11.598475552646942"><ele>145.0</ele><time>2026-05-01T15:33:25Z</time></trkpt><trkpt lat="43.51754047203364" lon="11.598784523319821"><ele>145.0</ele><time>2026-05-01T15:33:26Z</time></trkpt><trkpt lat="43.51750835577845" lon="11.599083935761309"><ele>145.0</ele><time>2026-05-01T15:33:27Z</time></trkpt><trkpt lat="43.51745866186081" lon="11.599366241320528"><ele>145.0</ele><time>2026-05-01T15:33:28Z</time></trkpt><trkpt lat="43.51738635491542" lon="11.599617725053296"><ele>145.33333333333334</ele><time>2026-05-01T15:33:29Z</time></trkpt><trkpt lat="43.5172843523742" lon="11.599830556941107"><ele>145.66666666666666</ele><time>2026-05-01T15:33:30Z</time></trkpt><trkpt lat="43.517159142870746" lon="11.6000034206744"><ele>146.0</ele><time>2026-05-01T15:33:31Z</time></trkpt><trkpt lat="43.517024108590014" lon="11.600142819818224"><ele>146.0</ele><time>2026-05-01T15:33:32Z</time></trkpt><trkpt lat="43.51688796317059" lon="11.600261913510627"><ele>146.0</ele><time>2026-05-01T15:33:33Z</time></trkpt><trkpt lat="43.516751443379576" lon="11.600340128109139"><ele>146.0</ele><time>2026-05-01T15:33:34Z</time></trkpt><trkpt lat="43.51661438433873" lon="11.600373610768326"><ele>146.0</ele><time>2026-05-01T15:33:35Z</time></trkpt><trkpt lat="43.51648394344498" lon="11.600312536033245"><ele>146.25</ele><time>2026-05-01T15:33:36Z</time></trkpt><trkpt lat="43.516367259740946" lon="11.600344412515684"><ele>146.5</ele><time>2026-05-01T15:33:37Z</time></trkpt><trkpt lat="43.51626026813928" lon="11.600377895896127"><ele>146.75</ele><time>2026-05-01T15:33:38Z</time></trkpt><trkpt lat="43.516196499277605" lon="11.600523912308821"><ele>147.0</ele><time>2026-05-01T15:33:39Z</time></trkpt><trkpt lat="43.516187866002475" lon="11.600694721788138"><ele>146.33333333333334</ele><time>2026-05-01T15:33:40Z</time></trkpt><trkpt lat="43.516136678882305" lon="11.600866760680562"><ele>145.66666666666669</ele><time>2026-05-01T15:33:41Z</time></trkpt><trkpt lat="43.51607284952212" lon="11.60102487059392"><ele>145.0</ele><time>2026-05-01T15:33:42Z</time></trkpt><trkpt lat="43.51589519664907" lon="11.601096880520213"><ele>145.0</ele><time>2026-05-01T15:33:43Z</time></trkpt><trkpt lat="43.51572831525305" lon="11.601207811609353"><ele>145.0</ele><time>2026-05-01T15:33:44Z</time></trkpt><trkpt lat="43.5155478766804" lon="11.601297320428577"><ele>145.0</ele><time>2026-05-01T15:33:45Z</time></trkpt><trkpt lat="43.515361842989904" lon="11.601402690961548"><ele>145.0</ele><time>2026-05-01T15:33:46Z</time></trkpt><trkpt lat="43.51517757105361" lon="11.601520185652145"><ele>145.0</ele><time>2026-05-01T15:33:47Z</time></trkpt><trkpt lat="43.51500065601459" lon="11.601648989825177"><ele>145.0</ele><time>2026-05-01T15:33:48Z</time></trkpt><trkpt lat="43.51482842507686" lon="11.601794776809271"><ele>145.0</ele><time>2026-05-01T15:33:49Z</time></trkpt><trkpt lat="43.5146574641467" lon="11.601963763189303"><ele>145.0</ele><time>2026-05-01T15:33:50Z</time></trkpt><trkpt lat="43.51449672415855" lon="11.602150866962868"><ele>145.0</ele><time>2026-05-01T15:33:51Z</time></trkpt><trkpt lat="43.5143438556692" lon="11.602361003359942"><ele>145.66666666666669</ele><time>2026-05-01T15:33:52Z</time></trkpt><trkpt lat="43.514201830787044" lon="11.602589776602088"><ele>146.33333333333334</ele><time>2026-05-01T15:33:53Z</time></trkpt><trkpt lat="43.514068019194376" lon="11.602835228345006"><ele>147.0</ele><time>2026-05-01T15:33:54Z</time></trkpt><trkpt lat="43.51393565603954" lon="11.60309344108018"><ele>147.0</ele><time>2026-05-01T15:33:55Z</time></trkpt><trkpt lat="43.51380235709676" lon="11.603361347663988"><ele>147.0</ele><time>2026-05-01T15:33:55.999Z</time></trkpt><trkpt lat="43.51366748684739" lon="11.603635987484004"><ele>146.0</ele><time>2026-05-01T15:33:56.999Z</time></trkpt><trkpt lat="43.51353299260342" lon="11.603915086956862"><ele>145.0</ele><time>2026-05-01T15:33:57.999Z</time></trkpt><trkpt lat="43.51339614444576" lon="11.604197814366852"><ele>145.0</ele><time>2026-05-01T15:33:58.999Z</time></trkpt><trkpt lat="43.513259316466055" lon="11.60447797538882"><ele>145.0</ele><time>2026-05-01T15:33:59.999Z</time></trkpt><trkpt lat="43.51312084169844" lon="11.60475077024026"><ele>145.5</ele><time>2026-05-01T15:34:00.999Z</time></trkpt><trkpt lat="43.512977262989196" lon="11.605013460658672"><ele>146.0</ele><time>2026-05-01T15:34:01.999Z</time></trkpt><trkpt lat="43.512824394660505" lon="11.60526591644557"><ele>146.5</ele><time>2026-05-01T15:34:02.999Z</time></trkpt><trkpt lat="43.51266035079846" lon="11.605509861093852"><ele>147.0</ele><time>2026-05-01T15:34:03.999Z</time></trkpt><trkpt lat="43.512486613707445" lon="11.605743562200365"><ele>147.0</ele><time>2026-05-01T15:34:04.999Z</time></trkpt><trkpt lat="43.51230537681406" lon="11.605963649184824"><ele>147.0</ele><time>2026-05-01T15:34:05.999Z</time></trkpt><trkpt lat="43.512114329133034" lon="11.606171375264827"><ele>147.5</ele><time>2026-05-01T15:34:06.999Z</time></trkpt><trkpt lat="43.51191580411605" lon="11.606364456693976"><ele>148.0</ele><time>2026-05-01T15:34:07.999Z</time></trkpt><trkpt lat="43.51170745321245" lon="11.606540433811995"><ele>148.0</ele><time>2026-05-01T15:34:08.999Z</time></trkpt><trkpt lat="43.51149531342752" lon="11.606706846095866"><ele>148.0</ele><time>2026-05-01T15:34:09.999Z</time></trkpt><trkpt lat="43.51127569704632" lon="11.606862828581423"><ele>147.5</ele><time>2026-05-01T15:34:10.999Z</time></trkpt><trkpt lat="43.511053231832406" lon="11.607013296382917"><ele>147.0</ele><time>2026-05-01T15:34:11.999Z</time></trkpt><trkpt lat="43.510828584077785" lon="11.607155101192811"><ele>147.0</ele><time>2026-05-01T15:34:12.999Z</time></trkpt><trkpt lat="43.51060188785232" lon="11.60729774094063"><ele>147.0</ele><time>2026-05-01T15:34:13.999Z</time></trkpt><trkpt lat="43.51037533083209" lon="11.60744017697252"><ele>148.0</ele><time>2026-05-01T15:34:14.999Z</time></trkpt><trkpt lat="43.51015080062102" lon="11.60758125028925"><ele>149.0</ele><time>2026-05-01T15:34:15.999Z</time></trkpt><trkpt lat="43.50992770593192" lon="11.607723287347806"><ele>149.0</ele><time>2026-05-01T15:34:16.999Z</time></trkpt><trkpt lat="43.50970592023301" lon="11.607860731800956"><ele>149.0</ele><time>2026-05-01T15:34:17.999Z</time></trkpt><trkpt lat="43.5094747989881" lon="11.608005189106382"><ele>150.5</ele><time>2026-05-01T15:34:18.999Z</time></trkpt><trkpt lat="43.50924479864912" lon="11.608145055313997"><ele>152.0</ele><time>2026-05-01T15:34:19.999Z</time></trkpt><trkpt lat="43.50901028320195" lon="11.608289639012614"><ele>152.0</ele><time>2026-05-01T15:34:20.999Z</time></trkpt><trkpt lat="43.508775747230914" lon="11.608428609944722"><ele>152.0</ele><time>2026-05-01T15:34:21.999Z</time></trkpt><trkpt lat="43.50854527149093" lon="11.608581496930462"><ele>149.5</ele><time>2026-05-01T15:34:22.999Z</time></trkpt><trkpt lat="43.50831133676698" lon="11.608733643593247"><ele>147.0</ele><time>2026-05-01T15:34:23.999Z</time></trkpt><trkpt lat="43.50808967297681" lon="11.608898718288597"><ele>148.0</ele><time>2026-05-01T15:34:24.999Z</time></trkpt><trkpt lat="43.50787491034604" lon="11.609082510167609"><ele>149.0</ele><time>2026-05-01T15:34:25.999Z</time></trkpt><trkpt lat="43.50767330135424" lon="11.609281851580377"><ele>148.0</ele><time>2026-05-01T15:34:26.999Z</time></trkpt><trkpt lat="43.507483148644575" lon="11.609500767723494"><ele>147.0</ele><time>2026-05-01T15:34:27.999Z</time></trkpt><trkpt lat="43.50730425220101" lon="11.609735346504442"><ele>147.0</ele><time>2026-05-01T15:34:28.999Z</time></trkpt><trkpt lat="43.507133690506365" lon="11.609985492712266"><ele>147.0</ele><time>2026-05-01T15:34:29.999Z</time></trkpt><trkpt lat="43.50696576272062" lon="11.610238575601024"><ele>148.0</ele><time>2026-05-01T15:34:30.999Z</time></trkpt><trkpt lat="43.50679833435862" lon="11.61049580576856"><ele>149.0</ele><time>2026-05-01T15:34:31.999Z</time></trkpt><trkpt lat="43.506632024726564" lon="11.610749894267913"><ele>149.0</ele><time>2026-05-01T15:34:32.999Z</time></trkpt><trkpt lat="43.50646583551489" lon="11.611005360488813"><ele>149.0</ele><time>2026-05-01T15:34:33.999Z</time></trkpt><trkpt lat="43.506300222334275" lon="11.611260281928805"><ele>150.0</ele><time>2026-05-01T15:34:34.999Z</time></trkpt><trkpt lat="43.5061459112454" lon="11.611501661127283"><ele>151.0</ele><time>2026-05-01T15:34:35.999Z</time></trkpt><trkpt lat="43.505994708732544" lon="11.611732162262252"><ele>151.0</ele><time>2026-05-01T15:34:36.999Z</time></trkpt><trkpt lat="43.50584277351748" lon="11.611958950802867"><ele>151.0</ele><time>2026-05-01T15:34:37.999Z</time></trkpt><trkpt lat="43.50569492897058" lon="11.61214202663637"><ele>151.0</ele><time>2026-05-01T15:34:38.999Z</time></trkpt><trkpt lat="43.50552462784317" lon="11.612303348835498"><ele>150.66666666666669</ele><time>2026-05-01T15:34:39.999Z</time></trkpt><trkpt lat="43.50534376624661" lon="11.612426487591398"><ele>150.33333333333334</ele><time>2026-05-01T15:34:40.999Z</time></trkpt><trkpt lat="43.50514663917372" lon="11.612492442235235"><ele>150.0</ele><time>2026-05-01T15:34:41.999Z</time></trkpt><trkpt lat="43.504941297867" lon="11.612505257587193"><ele>150.0</ele><time>2026-05-01T15:34:42.999Z</time></trkpt><trkpt lat="43.50474817401982" lon="11.612468066160357"><ele>150.0</ele><time>2026-05-01T15:34:43.999Z</time></trkpt><trkpt lat="43.50456582289841" lon="11.612370902943981"><ele>150.0</ele><time>2026-05-01T15:34:44.999Z</time></trkpt><trkpt lat="43.50439881900083" lon="11.612238724944968"><ele>150.33333333333334</ele><time>2026-05-01T15:34:45.999Z</time></trkpt><trkpt lat="43.504257261982175" lon="11.612090477464283"><ele>150.66666666666669</ele><time>2026-05-01T15:34:46.999Z</time></trkpt><trkpt lat="43.5041323304624" lon="11.61194801420347"><ele>151.0</ele><time>2026-05-01T15:34:47.999Z</time></trkpt><trkpt lat="43.504025111756675" lon="11.611822878802"><ele>151.0</ele><time>2026-05-01T15:34:48.999Z</time></trkpt><trkpt lat="43.50393860334264" lon="11.611713722484204"><ele>151.0</ele><time>2026-05-01T15:34:49.999Z</time></trkpt><trkpt lat="43.503885970048" lon="11.61160438777042"><ele>151.0</ele><time>2026-05-01T15:34:50.999Z</time></trkpt><trkpt lat="43.503875657151454" lon="11.611479868139748"><ele>151.0</ele><time>2026-05-01T15:34:51.999Z</time></trkpt><trkpt lat="43.503881657887824" lon="11.611337861645119"><ele>151.0</ele><time>2026-05-01T15:34:52.999Z</time></trkpt><trkpt lat="43.50389850172272" lon="11.611185101357158"><ele>151.0</ele><time>2026-05-01T15:34:53.999Z</time></trkpt><trkpt lat="43.5039153177368" lon="11.6110264906104"><ele>151.0</ele><time>2026-05-01T15:34:54.999Z</time></trkpt><trkpt lat="43.50393316974058" lon="11.610859018813287"><ele>151.0</ele><time>2026-05-01T15:34:55.999Z</time></trkpt><trkpt lat="43.50394522794081" lon="11.610695022778838"><ele>151.0</ele><time>2026-05-01T15:34:56.999Z</time></trkpt><trkpt lat="43.503933572991855" lon="11.610539630604006"><ele>151.0</ele><time>2026-05-01T15:34:57.999Z</time></trkpt><trkpt lat="43.503872556276626" lon="11.610422316804442"><ele>151.0</ele><time>2026-05-01T15:34:58.999Z</time></trkpt><trkpt lat="43.503778563664554" lon="11.610366201081176"><ele>151.0</ele><time>2026-05-01T15:34:59.999Z</time></trkpt><trkpt lat="43.50366308242109" lon="11.610350436689158"><ele>151.0</ele><time>2026-05-01T15:35:00.999Z</time></trkpt><trkpt lat="43.50353994679827" lon="11.610325802244303"><ele>151.0</ele><time>2026-05-01T15:35:01.999Z</time></trkpt><trkpt lat="43.50341625804379" lon="11.610262861002852"><ele>150.75</ele><time>2026-05-01T15:35:02.999Z</time></trkpt><trkpt lat="43.503290718802866" lon="11.610166013163385"><ele>150.5</ele><time>2026-05-01T15:35:03.999Z</time></trkpt><trkpt lat="43.5031560515722" lon="11.61007452716858"><ele>150.25</ele><time>2026-05-01T15:35:04.999Z</time></trkpt><trkpt lat="43.50301050133926" lon="11.610012957222873"><ele>150.0</ele><time>2026-05-01T15:35:05.999Z</time></trkpt><trkpt lat="43.502855325386086" lon="11.609975285221322"><ele>150.66666666666666</ele><time>2026-05-01T15:35:06.999Z</time></trkpt><trkpt lat="43.502693484871315" lon="11.609962890486212"><ele>151.33333333333331</ele><time>2026-05-01T15:35:07.999Z</time></trkpt><trkpt lat="43.50252623973455" lon="11.609981213019335"><ele>152.0</ele><time>2026-05-01T15:35:08.999Z</time></trkpt><trkpt lat="43.50235605034797" lon="11.61004934263121"><ele>152.0</ele><time>2026-05-01T15:35:09.999Z</time></trkpt><trkpt lat="43.502187340617844" lon="11.610155463394603"><ele>152.0</ele><time>2026-05-01T15:35:10.999Z</time></trkpt><trkpt lat="43.502019782610546" lon="11.610295880626335"><ele>152.0</ele><time>2026-05-01T15:35:11.999Z</time></trkpt><trkpt lat="43.50185481804074" lon="11.610457107533838"><ele>152.0</ele><time>2026-05-01T15:35:12.999Z</time></trkpt><trkpt lat="43.50169604340941" lon="11.610616155436574"><ele>152.0</ele><time>2026-05-01T15:35:13.999Z</time></trkpt><trkpt lat="43.501534757332315" lon="11.610775643466619"><ele>152.0</ele><time>2026-05-01T15:35:14.999Z</time></trkpt><trkpt lat="43.501371218274215" lon="11.610931776500783"><ele>152.33333333333331</ele><time>2026-05-01T15:35:15.999Z</time></trkpt><trkpt lat="43.5012009158704" lon="11.61109025582723"><ele>152.66666666666666</ele><time>2026-05-01T15:35:16.999Z</time></trkpt><trkpt lat="43.5010230101022" lon="11.611250458875023"><ele>153.0</ele><time>2026-05-01T15:35:17.999Z</time></trkpt><trkpt lat="43.500843101737765" lon="11.611409524842239"><ele>153.0</ele><time>2026-05-01T15:35:18.999Z</time></trkpt><trkpt lat="43.50066184370183" lon="11.611566392009125"><ele>153.0</ele><time>2026-05-01T15:35:19.999Z</time></trkpt><trkpt lat="43.500474651718115" lon="11.611721515326803"><ele>153.0</ele><time>2026-05-01T15:35:20.999Z</time></trkpt><trkpt lat="43.500287333924796" lon="11.611875755354724"><ele>153.5</ele><time>2026-05-01T15:35:21.999Z</time></trkpt><trkpt lat="43.50009518731609" lon="11.612033085800709"><ele>154.0</ele><time>2026-05-01T15:35:22.999Z</time></trkpt><trkpt lat="43.49990091267877" lon="11.612193767862003"><ele>154.0</ele><time>2026-05-01T15:35:23.999Z</time></trkpt><trkpt lat="43.49970479547853" lon="11.612355045247263"><ele>154.0</ele><time>2026-05-01T15:35:24.999Z</time></trkpt><trkpt lat="43.49950652542829" lon="11.612521009594955"><ele>155.0</ele><time>2026-05-01T15:35:25.999Z</time></trkpt><trkpt lat="43.4993058460548" lon="11.612689193837321"><ele>156.0</ele><time>2026-05-01T15:35:27Z</time></trkpt><trkpt lat="43.49910111909932" lon="11.612858080499443"><ele>156.0</ele><time>2026-05-01T15:35:28Z</time></trkpt><trkpt lat="43.4988974221703" lon="11.613022211313499"><ele>156.0</ele><time>2026-05-01T15:35:29Z</time></trkpt><trkpt lat="43.49869171892191" lon="11.613187473133067"><ele>159.0</ele><time>2026-05-01T15:35:30Z</time></trkpt><trkpt lat="43.498484738152946" lon="11.613353597514251"><ele>162.0</ele><time>2026-05-01T15:35:31Z</time></trkpt><trkpt lat="43.49827733209896" lon="11.61352076430139"><ele>162.5</ele><time>2026-05-01T15:35:32Z</time></trkpt><trkpt lat="43.49806950503624" lon="11.613688752140796"><ele>163.0</ele><time>2026-05-01T15:35:33Z</time></trkpt><trkpt lat="43.49786096955619" lon="11.613854274850583"><ele>163.0</ele><time>2026-05-01T15:35:34Z</time></trkpt><trkpt lat="43.49765242949311" lon="11.614018885394433"><ele>163.0</ele><time>2026-05-01T15:35:35Z</time></trkpt><trkpt lat="43.4974466028005" lon="11.614187493054112"><ele>163.0</ele><time>2026-05-01T15:35:36Z</time></trkpt><trkpt lat="43.497238949988805" lon="11.61435700751724"><ele>163.0</ele><time>2026-05-01T15:35:37Z</time></trkpt><trkpt lat="43.497026944248866" lon="11.614516085236025"><ele>160.5</ele><time>2026-05-01T15:35:38Z</time></trkpt><trkpt lat="43.496810385785714" lon="11.614642415307399"><ele>158.0</ele><time>2026-05-01T15:35:39Z</time></trkpt><trkpt lat="43.49658377387903" lon="11.614729997987432"><ele>158.0</ele><time>2026-05-01T15:35:40Z</time></trkpt><trkpt lat="43.496346965680466" lon="11.614780837216426"><ele>158.0</ele><time>2026-05-01T15:35:41Z</time></trkpt><trkpt lat="43.49610690210075" lon="11.614790601616788"><ele>158.0</ele><time>2026-05-01T15:35:42Z</time></trkpt><trkpt lat="43.49586797637001" lon="11.61478362562804"><ele>158.0</ele><time>2026-05-01T15:35:43Z</time></trkpt><trkpt lat="43.49563048204974" lon="11.614785702316862"><ele>159.0</ele><time>2026-05-01T15:35:44Z</time></trkpt><trkpt lat="43.49539780820894" lon="11.614818172980208"><ele>160.0</ele><time>2026-05-01T15:35:45Z</time></trkpt><trkpt lat="43.49516754451218" lon="11.614878404732226"><ele>160.0</ele><time>2026-05-01T15:35:46Z</time></trkpt><trkpt lat="43.49494270670248" lon="11.61496407642297"><ele>160.0</ele><time>2026-05-01T15:35:47Z</time></trkpt><trkpt lat="43.49473064620462" lon="11.615070486698515"><ele>160.33333333333334</ele><time>2026-05-01T15:35:48Z</time></trkpt><trkpt lat="43.49454025953739" lon="11.615187526485697"><ele>160.66666666666666</ele><time>2026-05-01T15:35:49Z</time></trkpt><trkpt lat="43.49436367495866" lon="11.615300398570525"><ele>161.0</ele><time>2026-05-01T15:35:50Z</time></trkpt><trkpt lat="43.49419889936573" lon="11.615410274625145"><ele>161.0</ele><time>2026-05-01T15:35:51Z</time></trkpt><trkpt lat="43.49404567669658" lon="11.615515127131648"><ele>161.0</ele><time>2026-05-01T15:35:52Z</time></trkpt><trkpt lat="43.49390592773868" lon="11.615610787818843"><ele>161.0</ele><time>2026-05-01T15:35:53Z</time></trkpt><trkpt lat="43.49378033923781" lon="11.615696470765576"><ele>161.75</ele><time>2026-05-01T15:35:54Z</time></trkpt><trkpt lat="43.49365161794242" lon="11.615771048529952"><ele>162.5</ele><time>2026-05-01T15:35:55Z</time></trkpt><trkpt lat="43.49351309028991" lon="11.615820606967707"><ele>163.25</ele><time>2026-05-01T15:35:56Z</time></trkpt><trkpt lat="43.4933676476729" lon="11.615785088426275"><ele>164.0</ele><time>2026-05-01T15:35:58Z</time></trkpt><trkpt lat="43.49325040018059" lon="11.615776351549728"><ele>164.0</ele><time>2026-05-01T15:35:59Z</time></trkpt><trkpt lat="43.493140258172545" lon="11.615855435072769"><ele>164.0</ele><time>2026-05-01T15:36:00Z</time></trkpt><trkpt lat="43.49308283006642" lon="11.616023647817581"><ele>164.0</ele><time>2026-05-01T15:36:01Z</time></trkpt><trkpt lat="43.492987346530036" lon="11.616177763963744"><ele>164.0</ele><time>2026-05-01T15:36:02Z</time></trkpt><trkpt lat="43.49292372726573" lon="11.616345585135893"><ele>164.33333333333331</ele><time>2026-05-01T15:36:03Z</time></trkpt><trkpt lat="43.49272819528324" lon="11.61640297252799"><ele>164.66666666666666</ele><time>2026-05-01T15:36:03.999Z</time></trkpt><trkpt lat="43.492589969708376" lon="11.616495007758234"><ele>165.0</ele><time>2026-05-01T15:36:04.999Z</time></trkpt><trkpt lat="43.49245415625059" lon="11.616600715159107"><ele>165.0</ele><time>2026-05-01T15:36:05.999Z</time></trkpt><trkpt lat="43.49232559920052" lon="11.616740645524802"><ele>165.0</ele><time>2026-05-01T15:36:06.999Z</time></trkpt><trkpt lat="43.4922040252103" lon="11.616897601762632"><ele>165.0</ele><time>2026-05-01T15:36:07.999Z</time></trkpt><trkpt lat="43.49208638314904" lon="11.617065931675937"><ele>163.0</ele><time>2026-05-01T15:36:08.999Z</time></trkpt><trkpt lat="43.49197673367155" lon="11.617243124053774"><ele>161.0</ele><time>2026-05-01T15:36:09.999Z</time></trkpt><trkpt lat="43.491871937644454" lon="11.617435854331198"><ele>159.0</ele><time>2026-05-01T15:36:10.999Z</time></trkpt><trkpt lat="43.4917709755037" lon="11.617622975467661"><ele>159.0</ele><time>2026-05-01T15:36:11.999Z</time></trkpt><trkpt lat="43.491665220507294" lon="11.61781218199459"><ele>159.0</ele><time>2026-05-01T15:36:12.999Z</time></trkpt><trkpt lat="43.49155729497009" lon="11.617998281100439"><ele>159.0</ele><time>2026-05-01T15:36:13.999Z</time></trkpt><trkpt lat="43.49144959541156" lon="11.61817257589972"><ele>160.66666666666666</ele><time>2026-05-01T15:36:14.999Z</time></trkpt><trkpt lat="43.49134325748687" lon="11.618350116961137"><ele>162.33333333333331</ele><time>2026-05-01T15:36:15.999Z</time></trkpt><trkpt lat="43.491235261809805" lon="11.61853577648082"><ele>164.0</ele><time>2026-05-01T15:36:16.999Z</time></trkpt><trkpt lat="43.49112919313125" lon="11.618719098839549"><ele>167.33333333333331</ele><time>2026-05-01T15:36:17.999Z</time></trkpt><trkpt lat="43.491026244979075" lon="11.618894276993228"><ele>170.66666666666666</ele><time>2026-05-01T15:36:18.999Z</time></trkpt><trkpt lat="43.490928350290766" lon="11.61905798617071"><ele>174.0</ele><time>2026-05-01T15:36:19.999Z</time></trkpt><trkpt lat="43.490832913332326" lon="11.619201538848484"><ele>174.0</ele><time>2026-05-01T15:36:20.999Z</time></trkpt><trkpt lat="43.49073139598722" lon="11.619321629851902"><ele>174.0</ele><time>2026-05-01T15:36:21.999Z</time></trkpt><trkpt lat="43.49061939783215" lon="11.619424553644349"><ele>174.0</ele><time>2026-05-01T15:36:22.999Z</time></trkpt><trkpt lat="43.49051355634121" lon="11.619493618602597"><ele>174.0</ele><time>2026-05-01T15:36:23.999Z</time></trkpt><trkpt lat="43.49040494047538" lon="11.619536800450922"><ele>175.0</ele><time>2026-05-01T15:36:24.999Z</time></trkpt><trkpt lat="43.49029132908535" lon="11.619549272887435"><ele>176.0</ele><time>2026-05-01T15:36:25.999Z</time></trkpt><trkpt lat="43.49016793413795" lon="11.619540587396452"><ele>177.0</ele><time>2026-05-01T15:36:26.999Z</time></trkpt><trkpt lat="43.490031470055264" lon="11.619518216467537"><ele>178.0</ele><time>2026-05-01T15:36:27.999Z</time></trkpt><trkpt lat="43.48990915128615" lon="11.619549420984116"><ele>178.0</ele><time>2026-05-01T15:36:28.999Z</time></trkpt><trkpt lat="43.489788098802535" lon="11.619507970586708"><ele>178.0</ele><time>2026-05-01T15:36:29.999Z</time></trkpt><trkpt lat="43.48969070902273" lon="11.619507228164716"><ele>178.0</ele><time>2026-05-01T15:36:30.999Z</time></trkpt><trkpt lat="43.48961422356508" lon="11.619509084102702"><ele>178.0</ele><time>2026-05-01T15:36:31.999Z</time></trkpt><trkpt lat="43.48952300735144" lon="11.61952067037274"><ele>178.0</ele><time>2026-05-01T15:36:33.999Z</time></trkpt><trkpt lat="43.48942442507782" lon="11.61953745625546"><ele>176.4</ele><time>2026-05-01T15:36:37.999Z</time></trkpt><trkpt lat="43.4894060295236" lon="11.619696917598345"><ele>174.8</ele><time>2026-05-01T15:36:38.999Z</time></trkpt><trkpt lat="43.489404197529524" lon="11.619820178888231"><ele>173.2</ele><time>2026-05-01T15:36:39.999Z</time></trkpt><trkpt lat="43.48941033913715" lon="11.619948677931655"><ele>171.6</ele><time>2026-05-01T15:36:40.999Z</time></trkpt><trkpt lat="43.48941656145016" lon="11.62007775716055"><ele>170.0</ele><time>2026-05-01T15:36:41.999Z</time></trkpt><trkpt lat="43.48942093713177" lon="11.620214820420761"><ele>170.8</ele><time>2026-05-01T15:36:42.999Z</time></trkpt><trkpt lat="43.4894236371194" lon="11.620359627078017"><ele>171.6</ele><time>2026-05-01T15:36:43.999Z</time></trkpt><trkpt lat="43.489426626179586" lon="11.620506916684954"><ele>172.39999999999998</ele><time>2026-05-01T15:36:44.999Z</time></trkpt><trkpt lat="43.48942517304258" lon="11.620662424479129"><ele>173.2</ele><time>2026-05-01T15:36:45.999Z</time></trkpt><trkpt lat="43.4894142539959" lon="11.62082112905234"><ele>174.0</ele><time>2026-05-01T15:36:46.999Z</time></trkpt><trkpt lat="43.48938572969055" lon="11.620979612300815"><ele>174.0</ele><time>2026-05-01T15:36:47.999Z</time></trkpt><trkpt lat="43.48933580051533" lon="11.621138392171646"><ele>174.0</ele><time>2026-05-01T15:36:48.999Z</time></trkpt><trkpt lat="43.4892604712529" lon="11.621292234894776"><ele>174.0</ele><time>2026-05-01T15:36:49.999Z</time></trkpt><trkpt lat="43.489164241415004" lon="11.621428931218349"><ele>174.0</ele><time>2026-05-01T15:36:50.999Z</time></trkpt><trkpt lat="43.48905003097297" lon="11.621545547038478"><ele>174.33333333333334</ele><time>2026-05-01T15:36:51.999Z</time></trkpt><trkpt lat="43.488920874066274" lon="11.621649143753398"><ele>174.66666666666669</ele><time>2026-05-01T15:36:52.999Z</time></trkpt><trkpt lat="43.48876930807828" lon="11.62173206319842"><ele>175.0</ele><time>2026-05-01T15:36:53.999Z</time></trkpt><trkpt lat="43.488598622176184" lon="11.62181458923156"><ele>175.0</ele><time>2026-05-01T15:36:54.999Z</time></trkpt><trkpt lat="43.48842529314989" lon="11.621903147947585"><ele>175.0</ele><time>2026-05-01T15:36:55.999Z</time></trkpt><trkpt lat="43.48825568387217" lon="11.621997439157964"><ele>175.0</ele><time>2026-05-01T15:36:56.999Z</time></trkpt><trkpt lat="43.48809359568917" lon="11.622091573989993"><ele>179.33333333333334</ele><time>2026-05-01T15:36:57.999Z</time></trkpt><trkpt lat="43.48794138063727" lon="11.622177949816228"><ele>183.66666666666666</ele><time>2026-05-01T15:36:58.999Z</time></trkpt><trkpt lat="43.48779490900375" lon="11.622260165929998"><ele>188.0</ele><time>2026-05-01T15:36:59.999Z</time></trkpt><trkpt lat="43.48764122041782" lon="11.622329421762096"><ele>188.0</ele><time>2026-05-01T15:37:00.999Z</time></trkpt><trkpt lat="43.48747307170051" lon="11.622350319851682"><ele>188.0</ele><time>2026-05-01T15:37:01.999Z</time></trkpt><trkpt lat="43.48730521281781" lon="11.622295995635275"><ele>188.0</ele><time>2026-05-01T15:37:02.999Z</time></trkpt><trkpt lat="43.487138296475294" lon="11.62223003429971"><ele>189.33333333333331</ele><time>2026-05-01T15:37:03.999Z</time></trkpt><trkpt lat="43.48696404692921" lon="11.622178932917743"><ele>190.66666666666666</ele><time>2026-05-01T15:37:04.999Z</time></trkpt><trkpt lat="43.486789930978965" lon="11.62210442481043"><ele>192.0</ele><time>2026-05-01T15:37:05.999Z</time></trkpt><trkpt lat="43.48661255371194" lon="11.622041729350562"><ele>192.0</ele><time>2026-05-01T15:37:06.999Z</time></trkpt><trkpt lat="43.48643647632562" lon="11.62198679716184"><ele>192.0</ele><time>2026-05-01T15:37:07.999Z</time></trkpt><trkpt lat="43.48627234121043" lon="11.621935867555363"><ele>192.0</ele><time>2026-05-01T15:37:08.999Z</time></trkpt><trkpt lat="43.48611983333613" lon="11.621882520082329"><ele>187.33333333333334</ele><time>2026-05-01T15:37:09.999Z</time></trkpt><trkpt lat="43.48597458697007" lon="11.621816136722764"><ele>182.66666666666669</ele><time>2026-05-01T15:37:10.999Z</time></trkpt><trkpt lat="43.48584073662969" lon="11.621703244987803"><ele>178.0</ele><time>2026-05-01T15:37:11.999Z</time></trkpt><trkpt lat="43.48571663423987" lon="11.621549849180132"><ele>178.0</ele><time>2026-05-01T15:37:12.999Z</time></trkpt><trkpt lat="43.48559596784255" lon="11.62137961071004"><ele>178.0</ele><time>2026-05-01T15:37:13.999Z</time></trkpt><trkpt lat="43.485469094196056" lon="11.621211084251136"><ele>178.0</ele><time>2026-05-01T15:37:14.999Z</time></trkpt><trkpt lat="43.48534005935328" lon="11.621051906595689"><ele>177.33333333333334</ele><time>2026-05-01T15:37:15.999Z</time></trkpt><trkpt lat="43.48520762718437" lon="11.620889133903795"><ele>176.66666666666666</ele><time>2026-05-01T15:37:16.999Z</time></trkpt><trkpt lat="43.485078097366944" lon="11.620725449367663"><ele>176.0</ele><time>2026-05-01T15:37:17.999Z</time></trkpt><trkpt lat="43.48494537230165" lon="11.620558435359628"><ele>176.0</ele><time>2026-05-01T15:37:18.999Z</time></trkpt><trkpt lat="43.48481365716459" lon="11.62038936586939"><ele>176.0</ele><time>2026-05-01T15:37:19.999Z</time></trkpt><trkpt lat="43.48468331948807" lon="11.620223697822665"><ele>176.0</ele><time>2026-05-01T15:37:20.999Z</time></trkpt><trkpt lat="43.48455222496246" lon="11.620061169148576"><ele>176.0</ele><time>2026-05-01T15:37:21.999Z</time></trkpt><trkpt lat="43.484421600297736" lon="11.619900079438251"><ele>176.0</ele><time>2026-05-01T15:37:22.999Z</time></trkpt><trkpt lat="43.4842930006734" lon="11.6197374002261"><ele>176.0</ele><time>2026-05-01T15:37:23.999Z</time></trkpt><trkpt lat="43.48416675174347" lon="11.619575357328625"><ele>175.0</ele><time>2026-05-01T15:37:24.999Z</time></trkpt><trkpt lat="43.48403844560823" lon="11.619415651264868"><ele>174.0</ele><time>2026-05-01T15:37:25.999Z</time></trkpt><trkpt lat="43.483909244388215" lon="11.619257466945195"><ele>173.0</ele><time>2026-05-01T15:37:26.999Z</time></trkpt><trkpt lat="43.48378007637547" lon="11.619100054209941"><ele>173.0</ele><time>2026-05-01T15:37:27.999Z</time></trkpt><trkpt lat="43.48365184859822" lon="11.61894429181758"><ele>173.0</ele><time>2026-05-01T15:37:28.999Z</time></trkpt><trkpt lat="43.483526343071254" lon="11.618786126521545"><ele>173.0</ele><time>2026-05-01T15:37:29.999Z</time></trkpt><trkpt lat="43.48340259308181" lon="11.618629140791022"><ele>175.33333333333331</ele><time>2026-05-01T15:37:30.999Z</time></trkpt><trkpt lat="43.4832734886984" lon="11.618480565384145"><ele>177.66666666666666</ele><time>2026-05-01T15:37:31.999Z</time></trkpt><trkpt lat="43.483131554276525" lon="11.618363554694044"><ele>180.0</ele><time>2026-05-01T15:37:33Z</time></trkpt><trkpt lat="43.48296673109882" lon="11.618323819939762"><ele>181.33333333333334</ele><time>2026-05-01T15:37:34Z</time></trkpt><trkpt lat="43.48279925851647" lon="11.618332426366395"><ele>182.66666666666669</ele><time>2026-05-01T15:37:35Z</time></trkpt><trkpt lat="43.482630780007405" lon="11.618394452969824"><ele>184.0</ele><time>2026-05-01T15:37:36Z</time></trkpt><trkpt lat="43.48247225414779" lon="11.618496232826628"><ele>184.0</ele><time>2026-05-01T15:37:37Z</time></trkpt><trkpt lat="43.48231804318613" lon="11.618608337069022"><ele>184.0</ele><time>2026-05-01T15:37:38Z</time></trkpt><trkpt lat="43.4821652112318" lon="11.618719837270122"><ele>184.0</ele><time>2026-05-01T15:37:39Z</time></trkpt><trkpt lat="43.48201463245591" lon="11.618825833022075"><ele>185.0</ele><time>2026-05-01T15:37:40Z</time></trkpt><trkpt lat="43.48186435219886" lon="11.618935758789076"><ele>186.0</ele><time>2026-05-01T15:37:41Z</time></trkpt><trkpt lat="43.48171622777992" lon="11.619049150184422"><ele>187.0</ele><time>2026-05-01T15:37:42Z</time></trkpt><trkpt lat="43.48158194187313" lon="11.61917376119524"><ele>187.0</ele><time>2026-05-01T15:37:43Z</time></trkpt><trkpt lat="43.48145998894649" lon="11.619338208352618"><ele>187.0</ele><time>2026-05-01T15:37:44Z</time></trkpt><trkpt lat="43.481377513160496" lon="11.619531461291933"><ele>187.0</ele><time>2026-05-01T15:37:45Z</time></trkpt><trkpt lat="43.48132847896747" lon="11.619732321421182"><ele>188.25</ele><time>2026-05-01T15:37:46Z</time></trkpt><trkpt lat="43.481299284792236" lon="11.619929703948305"><ele>189.5</ele><time>2026-05-01T15:37:47Z</time></trkpt><trkpt lat="43.48126326469663" lon="11.620121434042776"><ele>190.75</ele><time>2026-05-01T15:37:48Z</time></trkpt><trkpt lat="43.48121471407355" lon="11.620311899932755"><ele>192.0</ele><time>2026-05-01T15:37:49Z</time></trkpt><trkpt lat="43.48112549253917" lon="11.620472817457724"><ele>192.0</ele><time>2026-05-01T15:37:50Z</time></trkpt><trkpt lat="43.48101167661955" lon="11.620605772750483"><ele>192.0</ele><time>2026-05-01T15:37:51Z</time></trkpt><trkpt lat="43.48087289079358" lon="11.620720116692562"><ele>192.0</ele><time>2026-05-01T15:37:52Z</time></trkpt><trkpt lat="43.48073030186832" lon="11.620838894841052"><ele>192.0</ele><time>2026-05-01T15:37:53Z</time></trkpt><trkpt lat="43.48058648036406" lon="11.620950808820535"><ele>192.0</ele><time>2026-05-01T15:37:54Z</time></trkpt><trkpt lat="43.480451954247215" lon="11.621090927664232"><ele>192.0</ele><time>2026-05-01T15:37:55Z</time></trkpt><trkpt lat="43.48031717873015" lon="11.621230423845267"><ele>194.33333333333331</ele><time>2026-05-01T15:37:56Z</time></trkpt><trkpt lat="43.48018338992279" lon="11.621363199054569"><ele>196.66666666666666</ele><time>2026-05-01T15:37:57Z</time></trkpt><trkpt lat="43.48004808587212" lon="11.621493273388015"><ele>199.0</ele><time>2026-05-01T15:37:58Z</time></trkpt><trkpt lat="43.47991132056999" lon="11.621619039015"><ele>199.0</ele><time>2026-05-01T15:37:59Z</time></trkpt><trkpt lat="43.47977227608461" lon="11.621740005863737"><ele>199.0</ele><time>2026-05-01T15:38:00Z</time></trkpt><trkpt lat="43.47963413348682" lon="11.62185562808919"><ele>199.0</ele><time>2026-05-01T15:38:01Z</time></trkpt><trkpt lat="43.47949620335241" lon="11.621966035254466"><ele>198.33333333333331</ele><time>2026-05-01T15:38:02Z</time></trkpt><trkpt lat="43.479357518575036" lon="11.622069563122064"><ele>197.66666666666669</ele><time>2026-05-01T15:38:03Z</time></trkpt><trkpt lat="43.47921987314811" lon="11.62215835548443"><ele>197.0</ele><time>2026-05-01T15:38:04Z</time></trkpt><trkpt lat="43.479075702127766" lon="11.622235358113407"><ele>197.0</ele><time>2026-05-01T15:38:05Z</time></trkpt><trkpt lat="43.47891856550324" lon="11.622255325330748"><ele>197.0</ele><time>2026-05-01T15:38:06Z</time></trkpt><trkpt lat="43.478758524560035" lon="11.622284778797116"><ele>197.0</ele><time>2026-05-01T15:38:07Z</time></trkpt><trkpt lat="43.4785914604747" lon="11.622289512876245"><ele>200.33333333333334</ele><time>2026-05-01T15:38:08Z</time></trkpt><trkpt lat="43.478432034798736" lon="11.622286922355071"><ele>203.66666666666669</ele><time>2026-05-01T15:38:09Z</time></trkpt><trkpt lat="43.47828445380492" lon="11.622255098790356"><ele>207.0</ele><time>2026-05-01T15:38:10Z</time></trkpt><trkpt lat="43.478157475547064" lon="11.622163374534406"><ele>207.0</ele><time>2026-05-01T15:38:10.999Z</time></trkpt><trkpt lat="43.47805247921624" lon="11.6220206218707"><ele>207.0</ele><time>2026-05-01T15:38:11.999Z</time></trkpt><trkpt lat="43.47797015879811" lon="11.621847310436191"><ele>207.0</ele><time>2026-05-01T15:38:12.999Z</time></trkpt><trkpt lat="43.47790126855563" lon="11.621662753653625"><ele>207.0</ele><time>2026-05-01T15:38:13.999Z</time></trkpt><trkpt lat="43.47784337337394" lon="11.621475354932297"><ele>211.33333333333331</ele><time>2026-05-01T15:38:14.999Z</time></trkpt><trkpt lat="43.477787541667716" lon="11.621274401802465"><ele>215.66666666666666</ele><time>2026-05-01T15:38:15.999Z</time></trkpt><trkpt lat="43.47773043818687" lon="11.621063303003922"><ele>220.0</ele><time>2026-05-01T15:38:16.999Z</time></trkpt><trkpt lat="43.477664764881226" lon="11.620848486330619"><ele>221.0</ele><time>2026-05-01T15:38:17.999Z</time></trkpt><trkpt lat="43.47760692705306" lon="11.620602797242507"><ele>222.0</ele><time>2026-05-01T15:38:18.999Z</time></trkpt><trkpt lat="43.477535935938405" lon="11.620337224262174"><ele>223.0</ele><time>2026-05-01T15:38:19.999Z</time></trkpt><trkpt lat="43.47745561247589" lon="11.620050972767398"><ele>225.0</ele><time>2026-05-01T15:38:20.999Z</time></trkpt><trkpt lat="43.47738505704711" lon="11.619736724020672"><ele>227.0</ele><time>2026-05-01T15:38:21.999Z</time></trkpt><trkpt lat="43.477306156904234" lon="11.619436762284074"><ele>228.33333333333334</ele><time>2026-05-01T15:38:22.999Z</time></trkpt><trkpt lat="43.477226759416325" lon="11.619147357959806"><ele>229.66666666666669</ele><time>2026-05-01T15:38:23.999Z</time></trkpt><trkpt lat="43.47713717121847" lon="11.618881528380081"><ele>231.0</ele><time>2026-05-01T15:38:24.999Z</time></trkpt><trkpt lat="43.477023597943926" lon="11.61863406755185"><ele>231.0</ele><time>2026-05-01T15:38:25.999Z</time></trkpt><trkpt lat="43.47687698578422" lon="11.618421631735556"><ele>231.0</ele><time>2026-05-01T15:38:26.999Z</time></trkpt><trkpt lat="43.476700713537085" lon="11.618251068051654"><ele>231.0</ele><time>2026-05-01T15:38:27.999Z</time></trkpt><trkpt lat="43.47650283902245" lon="11.618120938037118"><ele>231.0</ele><time>2026-05-01T15:38:28.999Z</time></trkpt><trkpt lat="43.4762892690036" lon="11.618006429123408"><ele>231.0</ele><time>2026-05-01T15:38:29.999Z</time></trkpt><trkpt lat="43.476070531105194" lon="11.61788860660572"><ele>237.0</ele><time>2026-05-01T15:38:30.999Z</time></trkpt><trkpt lat="43.475850545438" lon="11.617757693666508"><ele>243.0</ele><time>2026-05-01T15:38:31.999Z</time></trkpt><trkpt lat="43.47563421608776" lon="11.617616092721509"><ele>241.0</ele><time>2026-05-01T15:38:32.999Z</time></trkpt><trkpt lat="43.47541186038396" lon="11.617471492837634"><ele>239.0</ele><time>2026-05-01T15:38:33.999Z</time></trkpt><trkpt lat="43.475179771766534" lon="11.617330378077702"><ele>239.0</ele><time>2026-05-01T15:38:34.999Z</time></trkpt><trkpt lat="43.47494250661631" lon="11.61719256322767"><ele>239.0</ele><time>2026-05-01T15:38:35.999Z</time></trkpt><trkpt lat="43.47470643406704" lon="11.617050179743662"><ele>241.0</ele><time>2026-05-01T15:38:36.999Z</time></trkpt><trkpt lat="43.47447865242469" lon="11.616916318732155"><ele>243.0</ele><time>2026-05-01T15:38:37.999Z</time></trkpt><trkpt lat="43.474270270797426" lon="11.616791908179975"><ele>243.0</ele><time>2026-05-01T15:38:38.999Z</time></trkpt><trkpt lat="43.47408683025346" lon="11.616678152267008"><ele>243.0</ele><time>2026-05-01T15:38:39.999Z</time></trkpt><trkpt lat="43.473916379552094" lon="11.616576368056835"><ele>243.0</ele><time>2026-05-01T15:38:40.999Z</time></trkpt><trkpt lat="43.47375625618075" lon="11.616480349763078"><ele>244.66666666666669</ele><time>2026-05-01T15:38:41.999Z</time></trkpt><trkpt lat="43.473613991588905" lon="11.616397615047324"><ele>246.33333333333334</ele><time>2026-05-01T15:38:42.999Z</time></trkpt><trkpt lat="43.47347527425927" lon="11.616314122998968"><ele>248.0</ele><time>2026-05-01T15:38:43.999Z</time></trkpt><trkpt lat="43.47333263238604" lon="11.616225978525767"><ele>247.33333333333334</ele><time>2026-05-01T15:38:44.999Z</time></trkpt><trkpt lat="43.473186911928" lon="11.61613598603283"><ele>246.66666666666669</ele><time>2026-05-01T15:38:45.999Z</time></trkpt><trkpt lat="43.473039819249344" lon="11.616047833227425"><ele>246.0</ele><time>2026-05-01T15:38:46.999Z</time></trkpt><trkpt lat="43.47289448519005" lon="11.61595968412038"><ele>247.66666666666669</ele><time>2026-05-01T15:38:47.999Z</time></trkpt><trkpt lat="43.47274917827987" lon="11.615876913876996"><ele>249.33333333333334</ele><time>2026-05-01T15:38:48.999Z</time></trkpt><trkpt lat="43.47260636117926" lon="11.615790882417418"><ele>251.0</ele><time>2026-05-01T15:38:49.999Z</time></trkpt><trkpt lat="43.47246217977145" lon="11.615694827925498"><ele>251.0</ele><time>2026-05-01T15:38:50.999Z</time></trkpt><trkpt lat="43.47232136192422" lon="11.615585937028222"><ele>251.0</ele><time>2026-05-01T15:38:51.999Z</time></trkpt><trkpt lat="43.47218361927977" lon="11.61546893520074"><ele>251.0</ele><time>2026-05-01T15:38:52.999Z</time></trkpt><trkpt lat="43.472044700386824" lon="11.61534974298051"><ele>251.33333333333334</ele><time>2026-05-01T15:38:53.999Z</time></trkpt><trkpt lat="43.47190341217691" lon="11.615228098290007"><ele>251.66666666666669</ele><time>2026-05-01T15:38:54.999Z</time></trkpt><trkpt lat="43.471761380370744" lon="11.615112338286654"><ele>252.0</ele><time>2026-05-01T15:38:55.999Z</time></trkpt><trkpt lat="43.471615508313555" lon="11.615013079229188"><ele>252.0</ele><time>2026-05-01T15:38:56.999Z</time></trkpt><trkpt lat="43.471457925809695" lon="11.614943359456326"><ele>252.0</ele><time>2026-05-01T15:38:57.999Z</time></trkpt><trkpt lat="43.47128565262202" lon="11.614921263066012"><ele>252.0</ele><time>2026-05-01T15:38:58.999Z</time></trkpt><trkpt lat="43.47110560650208" lon="11.614930680346871"><ele>250.66666666666669</ele><time>2026-05-01T15:38:59.999Z</time></trkpt><trkpt lat="43.47092318399952" lon="11.614954797884252"><ele>249.33333333333334</ele><time>2026-05-01T15:39:00.999Z</time></trkpt><trkpt lat="43.470738042211" lon="11.614980330118911"><ele>248.0</ele><time>2026-05-01T15:39:01.999Z</time></trkpt><trkpt lat="43.47055369375563" lon="11.614989066550402"><ele>246.33333333333334</ele><time>2026-05-01T15:39:02.999Z</time></trkpt><trkpt lat="43.47036822983485" lon="11.614967572957243"><ele>244.66666666666669</ele><time>2026-05-01T15:39:03.999Z</time></trkpt><trkpt lat="43.47018751460507" lon="11.614900397447256"><ele>243.0</ele><time>2026-05-01T15:39:04.999Z</time></trkpt><trkpt lat="43.47001707386464" lon="11.614801621089105"><ele>243.0</ele><time>2026-05-01T15:39:05.999Z</time></trkpt><trkpt lat="43.46985442251585" lon="11.614671437411461"><ele>243.0</ele><time>2026-05-01T15:39:06.999Z</time></trkpt><trkpt lat="43.4696995314754" lon="11.61452389662703"><ele>243.0</ele><time>2026-05-01T15:39:07.999Z</time></trkpt><trkpt lat="43.469556911450184" lon="11.614382963253563"><ele>242.0</ele><time>2026-05-01T15:39:08.999Z</time></trkpt><trkpt lat="43.46942240621259" lon="11.614248054871442"><ele>241.0</ele><time>2026-05-01T15:39:09.999Z</time></trkpt><trkpt lat="43.46930029168104" lon="11.614124698056974"><ele>240.0</ele><time>2026-05-01T15:39:10.999Z</time></trkpt><trkpt lat="43.46919306689846" lon="11.614015980119147"><ele>240.0</ele><time>2026-05-01T15:39:11.999Z</time></trkpt><trkpt lat="43.469074765298785" lon="11.613881436950948"><ele>240.0</ele><time>2026-05-01T15:39:12.999Z</time></trkpt><trkpt lat="43.468990999202376" lon="11.613779380596828"><ele>240.0</ele><time>2026-05-01T15:39:13.999Z</time></trkpt><trkpt lat="43.468930057181154" lon="11.61365286914168"><ele>240.0</ele><time>2026-05-01T15:39:14.999Z</time></trkpt><trkpt lat="43.46890631968581" lon="11.613504271676828"><ele>239.5</ele><time>2026-05-01T15:39:15.999Z</time></trkpt><trkpt lat="43.46892054910992" lon="11.613339233062769"><ele>239.0</ele><time>2026-05-01T15:39:16.999Z</time></trkpt><trkpt lat="43.46892876948468" lon="11.613172231581943"><ele>238.5</ele><time>2026-05-01T15:39:17.999Z</time></trkpt><trkpt lat="43.46901899454062" lon="11.612979309019593"><ele>238.0</ele><time>2026-05-01T15:39:18.999Z</time></trkpt><trkpt lat="43.46907423332929" lon="11.612779276627382"><ele>238.0</ele><time>2026-05-01T15:39:19.999Z</time></trkpt><trkpt lat="43.4691254968531" lon="11.612568220591971"><ele>238.0</ele><time>2026-05-01T15:39:20.999Z</time></trkpt><trkpt lat="43.46917639525627" lon="11.612348018195735"><ele>238.0</ele><time>2026-05-01T15:39:21.999Z</time></trkpt><trkpt lat="43.46923088059918" lon="11.612123714151018"><ele>237.33333333333331</ele><time>2026-05-01T15:39:22.999Z</time></trkpt><trkpt lat="43.46928434662506" lon="11.61188530331382"><ele>236.66666666666669</ele><time>2026-05-01T15:39:23.999Z</time></trkpt><trkpt lat="43.469345935758106" lon="11.611637686221801"><ele>236.0</ele><time>2026-05-01T15:39:24.999Z</time></trkpt><trkpt lat="43.46940957229741" lon="11.61138745212498"><ele>236.33333333333334</ele><time>2026-05-01T15:39:25.999Z</time></trkpt><trkpt lat="43.469472454309674" lon="11.611134418784042"><ele>236.66666666666669</ele><time>2026-05-01T15:39:26.999Z</time></trkpt><trkpt lat="43.46953663818312" lon="11.610880524955855"><ele>237.0</ele><time>2026-05-01T15:39:27.999Z</time></trkpt><trkpt lat="43.469600808839566" lon="11.610619141397004"><ele>236.33333333333331</ele><time>2026-05-01T15:39:28.999Z</time></trkpt><trkpt lat="43.46966824178218" lon="11.610350405598165"><ele>235.66666666666666</ele><time>2026-05-01T15:39:29.999Z</time></trkpt><trkpt lat="43.469733506072465" lon="11.610077210984922"><ele>235.0</ele><time>2026-05-01T15:39:30.999Z</time></trkpt><trkpt lat="43.46979940058548" lon="11.609799766152127"><ele>234.66666666666666</ele><time>2026-05-01T15:39:31.999Z</time></trkpt><trkpt lat="43.46986904356872" lon="11.609519055291587"><ele>234.33333333333331</ele><time>2026-05-01T15:39:32.999Z</time></trkpt><trkpt lat="43.469935989335184" lon="11.609249993388417"><ele>234.0</ele><time>2026-05-01T15:39:33.999Z</time></trkpt><trkpt lat="43.47000383237276" lon="11.608974827398855"><ele>234.0</ele><time>2026-05-01T15:39:34.999Z</time></trkpt><trkpt lat="43.470072980074555" lon="11.60870401461991"><ele>234.0</ele><time>2026-05-01T15:39:35.999Z</time></trkpt><trkpt lat="43.47013711570068" lon="11.60844496434889"><ele>234.0</ele><time>2026-05-01T15:39:36.999Z</time></trkpt><trkpt lat="43.470188074291144" lon="11.608204673380351"><ele>234.0</ele><time>2026-05-01T15:39:37.999Z</time></trkpt><trkpt lat="43.470208855130196" lon="11.60796597782266"><ele>234.0</ele><time>2026-05-01T15:39:39Z</time></trkpt><trkpt lat="43.47019439972328" lon="11.607713539685799"><ele>234.0</ele><time>2026-05-01T15:39:40Z</time></trkpt><trkpt lat="43.47014098226003" lon="11.607482517871757"><ele>236.33333333333331</ele><time>2026-05-01T15:39:41Z</time></trkpt><trkpt lat="43.470040216812315" lon="11.607252647412858"><ele>238.66666666666666</ele><time>2026-05-01T15:39:42Z</time></trkpt><trkpt lat="43.46994909330349" lon="11.607027188510552"><ele>241.0</ele><time>2026-05-01T15:39:43Z</time></trkpt><trkpt lat="43.469949941466545" lon="11.606785578937092"><ele>243.0</ele><time>2026-05-01T15:39:44Z</time></trkpt><trkpt lat="43.469978334504816" lon="11.606534384540538"><ele>245.0</ele><time>2026-05-01T15:39:45Z</time></trkpt><trkpt lat="43.47001189677372" lon="11.606259631513314"><ele>247.0</ele><time>2026-05-01T15:39:46Z</time></trkpt><trkpt lat="43.470046071329264" lon="11.605974922681828"><ele>248.0</ele><time>2026-05-01T15:39:47Z</time></trkpt><trkpt lat="43.47008884762319" lon="11.605694861868328"><ele>249.0</ele><time>2026-05-01T15:39:48Z</time></trkpt><trkpt lat="43.47012214530552" lon="11.60542049416448"><ele>250.0</ele><time>2026-05-01T15:39:49Z</time></trkpt><trkpt lat="43.470150414219674" lon="11.605148653527893"><ele>250.33333333333331</ele><time>2026-05-01T15:39:50Z</time></trkpt><trkpt lat="43.47017631507963" lon="11.60488281993329"><ele>250.66666666666669</ele><time>2026-05-01T15:39:51Z</time></trkpt><trkpt lat="43.47019963002142" lon="11.604616923407796"><ele>251.0</ele><time>2026-05-01T15:39:52Z</time></trkpt><trkpt lat="43.470240102032434" lon="11.6043741968978"><ele>251.0</ele><time>2026-05-01T15:39:53Z</time></trkpt><trkpt lat="43.470293805093654" lon="11.604165143863776"><ele>251.0</ele><time>2026-05-01T15:39:54Z</time></trkpt><trkpt lat="43.47036891562042" lon="11.603976404252876"><ele>251.0</ele><time>2026-05-01T15:39:55Z</time></trkpt><trkpt lat="43.47047888799335" lon="11.60382818821598"><ele>251.33333333333334</ele><time>2026-05-01T15:39:56Z</time></trkpt><trkpt lat="43.47060019107556" lon="11.603683793101048"><ele>251.66666666666669</ele><time>2026-05-01T15:39:57Z</time></trkpt><trkpt lat="43.47073314360108" lon="11.603545252640952"><ele>252.0</ele><time>2026-05-01T15:39:58Z</time></trkpt><trkpt lat="43.47086389093577" lon="11.603388685500565"><ele>251.0</ele><time>2026-05-01T15:39:59Z</time></trkpt><trkpt lat="43.471004744177364" lon="11.603252419534737"><ele>250.0</ele><time>2026-05-01T15:40:00Z</time></trkpt><trkpt lat="43.47114441536942" lon="11.603104605548456"><ele>249.0</ele><time>2026-05-01T15:40:01Z</time></trkpt><trkpt lat="43.47128502548995" lon="11.602952502057216"><ele>249.33333333333331</ele><time>2026-05-01T15:40:02Z</time></trkpt><trkpt lat="43.471424846803295" lon="11.602805095271608"><ele>249.66666666666666</ele><time>2026-05-01T15:40:03Z</time></trkpt><trkpt lat="43.47156274644087" lon="11.602649119358063"><ele>250.0</ele><time>2026-05-01T15:40:04Z</time></trkpt><trkpt lat="43.4717020861874" lon="11.602497085342893"><ele>250.0</ele><time>2026-05-01T15:40:05Z</time></trkpt><trkpt lat="43.471842694703625" lon="11.602352567923406"><ele>250.0</ele><time>2026-05-01T15:40:06Z</time></trkpt><trkpt lat="43.47197968753017" lon="11.602212398464973"><ele>250.0</ele><time>2026-05-01T15:40:06.999Z</time></trkpt><trkpt lat="43.47211866371549" lon="11.602065324747036"><ele>250.66666666666666</ele><time>2026-05-01T15:40:07.999Z</time></trkpt><trkpt lat="43.47225542072337" lon="11.601916527306404"><ele>251.33333333333331</ele><time>2026-05-01T15:40:08.999Z</time></trkpt><trkpt lat="43.47239084668259" lon="11.601768772956403"><ele>252.0</ele><time>2026-05-01T15:40:09.999Z</time></trkpt><trkpt lat="43.47252527337537" lon="11.601623109075138"><ele>252.0</ele><time>2026-05-01T15:40:10.999Z</time></trkpt><trkpt lat="43.47266211478332" lon="11.601479440778926"><ele>252.0</ele><time>2026-05-01T15:40:11.999Z</time></trkpt><trkpt lat="43.472798705888025" lon="11.601332914608937"><ele>252.0</ele><time>2026-05-01T15:40:12.999Z</time></trkpt><trkpt lat="43.4729364924492" lon="11.601184844102251"><ele>253.0</ele><time>2026-05-01T15:40:13.999Z</time></trkpt><trkpt lat="43.473075762189765" lon="11.601039392090264"><ele>254.0</ele><time>2026-05-01T15:40:14.999Z</time></trkpt><trkpt lat="43.47321494376597" lon="11.600892079802298"><ele>255.0</ele><time>2026-05-01T15:40:15.999Z</time></trkpt><trkpt lat="43.47335650436179" lon="11.600750980883088"><ele>255.0</ele><time>2026-05-01T15:40:16.999Z</time></trkpt><trkpt lat="43.473490073663974" lon="11.600611513905514"><ele>255.0</ele><time>2026-05-01T15:40:17.999Z</time></trkpt><trkpt lat="43.473622156280285" lon="11.60046933679966"><ele>255.0</ele><time>2026-05-01T15:40:18.999Z</time></trkpt><trkpt lat="43.47375088534053" lon="11.600328200907661"><ele>255.5</ele><time>2026-05-01T15:40:19.999Z</time></trkpt><trkpt lat="43.47387623402434" lon="11.60019942702283"><ele>256.0</ele><time>2026-05-01T15:40:20.999Z</time></trkpt><trkpt lat="43.47399195021138" lon="11.6000753776961"><ele>256.5</ele><time>2026-05-01T15:40:21.999Z</time></trkpt><trkpt lat="43.47409002694111" lon="11.59993440593639"><ele>257.0</ele><time>2026-05-01T15:40:22.999Z</time></trkpt><trkpt lat="43.474161765933204" lon="11.599762880512657"><ele>257.0</ele><time>2026-05-01T15:40:23.999Z</time></trkpt><trkpt lat="43.474179880804435" lon="11.59957321241258"><ele>257.0</ele><time>2026-05-01T15:40:24.999Z</time></trkpt><trkpt lat="43.47419469475031" lon="11.59938936224514"><ele>257.0</ele><time>2026-05-01T15:40:25.999Z</time></trkpt><trkpt lat="43.47420448229819" lon="11.59922735809413"><ele>257.0</ele><time>2026-05-01T15:40:26.999Z</time></trkpt><trkpt lat="43.47422950931011" lon="11.599090465038792"><ele>256.8</ele><time>2026-05-01T15:40:27.999Z</time></trkpt><trkpt lat="43.47425829860544" lon="11.598979453204924"><ele>256.6</ele><time>2026-05-01T15:40:28.999Z</time></trkpt><trkpt lat="43.4742767220009" lon="11.598884266734906"><ele>256.40000000000003</ele><time>2026-05-01T15:40:29.999Z</time></trkpt><trkpt lat="43.47428128944033" lon="11.598710589636186"><ele>256.2</ele><time>2026-05-01T15:40:31.999Z</time></trkpt><trkpt lat="43.47426786024101" lon="11.598607210990457"><ele>256.0</ele><time>2026-05-01T15:40:32.999Z</time></trkpt><trkpt lat="43.474233610458164" lon="11.59848822494902"><ele>256.0</ele><time>2026-05-01T15:40:33.999Z</time></trkpt><trkpt lat="43.47418681947657" lon="11.598363280655017"><ele>256.0</ele><time>2026-05-01T15:40:34.999Z</time></trkpt><trkpt lat="43.474137792581075" lon="11.598231063518824"><ele>256.0</ele><time>2026-05-01T15:40:35.999Z</time></trkpt><trkpt lat="43.47409275739206" lon="11.598092179439865"><ele>256.0</ele><time>2026-05-01T15:40:36.999Z</time></trkpt><trkpt lat="43.47404987823881" lon="11.597945925801287"><ele>256.0</ele><time>2026-05-01T15:40:37.999Z</time></trkpt><trkpt lat="43.474002879558675" lon="11.597795038415159"><ele>256.5</ele><time>2026-05-01T15:40:38.999Z</time></trkpt><trkpt lat="43.4739557525685" lon="11.59764886821615"><ele>257.0</ele><time>2026-05-01T15:40:39.999Z</time></trkpt><trkpt lat="43.47390568268357" lon="11.597506167007902"><ele>257.5</ele><time>2026-05-01T15:40:40.999Z</time></trkpt><trkpt lat="43.473854776075484" lon="11.59735432854874"><ele>258.0</ele><time>2026-05-01T15:40:41.999Z</time></trkpt><trkpt lat="43.473806623510555" lon="11.59719682323989"><ele>257.75</ele><time>2026-05-01T15:40:42.999Z</time></trkpt><trkpt lat="43.47375979207446" lon="11.597033052052852"><ele>257.5</ele><time>2026-05-01T15:40:43.999Z</time></trkpt><trkpt lat="43.47371119508853" lon="11.596866127224203"><ele>257.25</ele><time>2026-05-01T15:40:44.999Z</time></trkpt><trkpt lat="43.47366620084462" lon="11.596689685815448"><ele>257.0</ele><time>2026-05-01T15:40:45.999Z</time></trkpt><trkpt lat="43.4736318857858" lon="11.596505758473981"><ele>257.5</ele><time>2026-05-01T15:40:46.999Z</time></trkpt><trkpt lat="43.473606058361746" lon="11.596315940998918"><ele>258.0</ele><time>2026-05-01T15:40:47.999Z</time></trkpt><trkpt lat="43.47358525343268" lon="11.5961246769284"><ele>258.5</ele><time>2026-05-01T15:40:48.999Z</time></trkpt><trkpt lat="43.473567822371535" lon="11.595932862729693"><ele>259.0</ele><time>2026-05-01T15:40:49.999Z</time></trkpt><trkpt lat="43.473550415801654" lon="11.59574173102029"><ele>259.25</ele><time>2026-05-01T15:40:50.999Z</time></trkpt><trkpt lat="43.47353311492879" lon="11.595550141792765"><ele>259.5</ele><time>2026-05-01T15:40:51.999Z</time></trkpt><trkpt lat="43.47351399462078" lon="11.595357866251286"><ele>259.75</ele><time>2026-05-01T15:40:52.999Z</time></trkpt><trkpt lat="43.47349363198831" lon="11.595167174254593"><ele>260.0</ele><time>2026-05-01T15:40:53.999Z</time></trkpt><trkpt lat="43.473474382766135" lon="11.594979506618502"><ele>260.25</ele><time>2026-05-01T15:40:54.999Z</time></trkpt><trkpt lat="43.47346041977573" lon="11.594792085087766"><ele>260.5</ele><time>2026-05-01T15:40:55.999Z</time></trkpt><trkpt lat="43.473444919974625" lon="11.594613226979833"><ele>260.75</ele><time>2026-05-01T15:40:56.999Z</time></trkpt><trkpt lat="43.47343004457735" lon="11.59443727022383"><ele>261.0</ele><time>2026-05-01T15:40:57.999Z</time></trkpt><trkpt lat="43.47341408875083" lon="11.594268036601765"><ele>260.6</ele><time>2026-05-01T15:40:58.999Z</time></trkpt><trkpt lat="43.47339831116076" lon="11.594112919012284"><ele>260.20000000000005</ele><time>2026-05-01T15:40:59.999Z</time></trkpt><trkpt lat="43.473382759259835" lon="11.593965426703349"><ele>259.79999999999995</ele><time>2026-05-01T15:41:00.999Z</time></trkpt><trkpt lat="43.473368522512544" lon="11.593830408250698"><ele>259.4</ele><time>2026-05-01T15:41:01.999Z</time></trkpt><trkpt lat="43.473355025047695" lon="11.593708072908425"><ele>259.0</ele><time>2026-05-01T15:41:02.999Z</time></trkpt><trkpt lat="43.473343745212134" lon="11.593603841883105"><ele>258.8</ele><time>2026-05-01T15:41:03.999Z</time></trkpt><trkpt lat="43.47334988436421" lon="11.593441247662644"><ele>258.59999999999997</ele><time>2026-05-01T15:41:05.999Z</time></trkpt><trkpt lat="43.47344526692314" lon="11.59343658898019"><ele>258.4</ele><time>2026-05-01T15:41:07.999Z</time></trkpt><trkpt lat="43.473543044822115" lon="11.593399248481052"><ele>258.2</ele><time>2026-05-01T15:41:09.999Z</time></trkpt><trkpt lat="43.47364196834983" lon="11.593359663991432"><ele>258.0</ele><time>2026-05-01T15:41:11.999Z</time></trkpt><trkpt lat="43.473737215243226" lon="11.593326219307766"><ele>258.0</ele><time>2026-05-01T15:41:13.999Z</time></trkpt><trkpt lat="43.47382595928673" lon="11.593286735421845"><ele>258.0</ele><time>2026-05-01T15:41:15.999Z</time></trkpt><trkpt lat="43.47391820860268" lon="11.593247268897814"><ele>258.0</ele><time>2026-05-01T15:41:17.999Z</time></trkpt><trkpt lat="43.47398615833227" lon="11.593170768651198"><ele>258.0</ele><time>2026-05-01T15:41:19.999Z</time></trkpt><trkpt lat="43.474018197190944" lon="11.593035317183032"><ele>258.0</ele><time>2026-05-01T15:41:21.999Z</time></trkpt><trkpt lat="43.47405667901398" lon="11.5929258109186"><ele>258.4</ele><time>2026-05-01T15:41:23.999Z</time></trkpt><trkpt lat="43.4741458241206" lon="11.592837438758801"><ele>258.8</ele><time>2026-05-01T15:41:25.999Z</time></trkpt><trkpt lat="43.47417959368301" lon="11.592675558074678"><ele>259.2</ele><time>2026-05-01T15:41:27.999Z</time></trkpt><trkpt lat="43.474170894090236" lon="11.592581261393388"><ele>259.6</ele><time>2026-05-01T15:41:28.999Z</time></trkpt><trkpt lat="43.47417791822021" lon="11.592463171062457"><ele>260.0</ele><time>2026-05-01T15:41:30.999Z</time></trkpt><trkpt lat="43.47437622372871" lon="11.59241648552988"><ele>260.0</ele><time>2026-05-01T15:41:34.999Z</time></trkpt><trkpt lat="43.47444213608435" lon="11.592406235647518"><ele>260.0</ele><time>2026-05-01T15:41:35.999Z</time></trkpt><trkpt lat="43.4745421814732" lon="11.592388470656406"><ele>260.0</ele><time>2026-05-01T15:41:37.999Z</time></trkpt><trkpt lat="43.474609429722626" lon="11.592370880866406"><ele>261.0</ele><time>2026-05-01T15:41:40.999Z</time></trkpt></trkseg></trk></gpx>